<?xml version='1.0' encoding='UTF-8'?><gpx version="1.1" creator="JPX - https://github.com/jenetics/jpx" xmlns="http://www.topografix.com/GPX/1/1"><trk><trkseg><trkpt lat="44.7274715" lon="7.8207013"><ele>294.0</ele><time>2026-04-10T06:57:06.7Z</time></trkpt><trkpt lat="44.7274177" lon="7.8207574"><ele>294.0</ele><time>2026-04-10T07:10:13.705Z</time></trkpt><trkpt lat="44.72735" lon="7.8207627"><ele>294.0</ele><time>2026-04-10T07:10:17.711Z</time></trkpt><trkpt lat="44.7272857" lon="7.8207212"><ele>294.0</ele><time>2026-04-10T07:10:21.673Z</time></trkpt><trkpt lat="44.7272445" lon="7.8206489"><ele>294.0</ele><time>2026-04-10T07:10:24.706Z</time></trkpt><trkpt lat="44.7271989" lon="7.8205792"><ele>294.0</ele><time>2026-04-10T07:10:27.604Z</time></trkpt><trkpt lat="44.7271362" lon="7.8206171"><ele>294.0</ele><time>2026-04-10T07:10:30.692Z</time></trkpt><trkpt lat="44.7270762" lon="7.8206544"><ele>294.0</ele><time>2026-04-10T07:10:34.701Z</time></trkpt><trkpt lat="44.7270233" lon="7.8207058"><ele>294.0</ele><time>2026-04-10T07:17:40.851Z</time></trkpt><trkpt lat="44.7269714" lon="7.8207652"><ele>294.0</ele><time>2026-04-10T07:17:45.726Z</time></trkpt><trkpt lat="44.7269176" lon="7.8208136"><ele>294.0</ele><time>2026-04-10T07:17:49.732Z</time></trkpt><trkpt lat="44.7268523" lon="7.8208578"><ele>294.0</ele><time>2026-04-10T07:17:54.709Z</time></trkpt><trkpt lat="44.7267847" lon="7.8208585"><ele>294.0</ele><time>2026-04-10T07:17:59.699Z</time></trkpt><trkpt lat="44.7267386" lon="7.8207824"><ele>294.0</ele><time>2026-04-10T07:18:04.722Z</time></trkpt><trkpt lat="44.7268065" lon="7.8206929"><ele>294.0</ele><time>2026-04-10T07:18:07.917Z</time></trkpt><trkpt lat="44.7268943" lon="7.8206079"><ele>294.0</ele><time>2026-04-10T07:18:10.712Z</time></trkpt><trkpt lat="44.7269875" lon="7.8205194"><ele>294.0</ele><time>2026-04-10T07:18:13.903Z</time></trkpt><trkpt lat="44.7270507" lon="7.820469"><ele>294.0</ele><time>2026-04-10T07:18:15.71Z</time></trkpt><trkpt lat="44.7271189" lon="7.8204195"><ele>294.0</ele><time>2026-04-10T07:18:17.715Z</time></trkpt><trkpt lat="44.7271864" lon="7.8203596"><ele>294.0</ele><time>2026-04-10T07:18:19.721Z</time></trkpt><trkpt lat="44.727241" lon="7.8203104"><ele>294.0</ele><time>2026-04-10T07:18:21.709Z</time></trkpt><trkpt lat="44.7272664" lon="7.8202025"><ele>294.0</ele><time>2026-04-10T07:18:24.706Z</time></trkpt><trkpt lat="44.7272043" lon="7.8200637"><ele>294.0</ele><time>2026-04-10T07:18:27.715Z</time></trkpt><trkpt lat="44.7271043" lon="7.819907"><ele>294.0</ele><time>2026-04-10T07:18:30.699Z</time></trkpt><trkpt lat="44.7270433" lon="7.819789"><ele>292.0</ele><time>2026-04-10T07:18:32.696Z</time></trkpt><trkpt lat="44.7269762" lon="7.8196726"><ele>290.0</ele><time>2026-04-10T07:18:34.725Z</time></trkpt><trkpt lat="44.7269157" lon="7.819577"><ele>288.0</ele><time>2026-04-10T07:18:36.681Z</time></trkpt><trkpt lat="44.7268635" lon="7.8194846"><ele>286.0</ele><time>2026-04-10T07:18:38.98Z</time></trkpt><trkpt lat="44.7268193" lon="7.8193839"><ele>284.0</ele><time>2026-04-10T07:18:41.722Z</time></trkpt><trkpt lat="44.7267743" lon="7.8192898"><ele>282.0</ele><time>2026-04-10T07:18:44.725Z</time></trkpt><trkpt lat="44.7267262" lon="7.8191984"><ele>281.1666666666667</ele><time>2026-04-10T07:18:49.711Z</time></trkpt><trkpt lat="44.7266966" lon="7.8191194"><ele>280.3333333333333</ele><time>2026-04-10T07:19:32.712Z</time></trkpt><trkpt lat="44.7266458" lon="7.8190505"><ele>279.5</ele><time>2026-04-10T07:19:35.719Z</time></trkpt><trkpt lat="44.7265791" lon="7.8189859"><ele>278.66666666666663</ele><time>2026-04-10T07:19:38.726Z</time></trkpt><trkpt lat="44.7265158" lon="7.8188911"><ele>277.8333333333333</ele><time>2026-04-10T07:19:41.715Z</time></trkpt><trkpt lat="44.7264641" lon="7.8188093"><ele>277.0</ele><time>2026-04-10T07:19:43.721Z</time></trkpt><trkpt lat="44.726414" lon="7.8187226"><ele>277.0</ele><time>2026-04-10T07:19:45.719Z</time></trkpt><trkpt lat="44.7263631" lon="7.818644"><ele>277.0</ele><time>2026-04-10T07:19:47.718Z</time></trkpt><trkpt lat="44.7263087" lon="7.8185703"><ele>277.0</ele><time>2026-04-10T07:19:49.757Z</time></trkpt><trkpt lat="44.726262" lon="7.8184851"><ele>277.0</ele><time>2026-04-10T07:19:51.725Z</time></trkpt><trkpt lat="44.726216" lon="7.8183915"><ele>277.0</ele><time>2026-04-10T07:19:53.742Z</time></trkpt><trkpt lat="44.7261631" lon="7.8183008"><ele>277.0</ele><time>2026-04-10T07:19:55.731Z</time></trkpt><trkpt lat="44.7261126" lon="7.818204"><ele>276.6</ele><time>2026-04-10T07:19:57.957Z</time></trkpt><trkpt lat="44.7260216" lon="7.8180688"><ele>276.2</ele><time>2026-04-10T07:20:00.743Z</time></trkpt><trkpt lat="44.7259676" lon="7.8179647"><ele>275.8</ele><time>2026-04-10T07:20:02.954Z</time></trkpt><trkpt lat="44.7258954" lon="7.8178276"><ele>275.4</ele><time>2026-04-10T07:20:05.72Z</time></trkpt><trkpt lat="44.7258455" lon="7.8177315"><ele>275.0</ele><time>2026-04-10T07:20:07.722Z</time></trkpt><trkpt lat="44.725774" lon="7.8176195"><ele>275.0</ele><time>2026-04-10T07:20:10.78Z</time></trkpt><trkpt lat="44.7256991" lon="7.8176158"><ele>275.0</ele><time>2026-04-10T07:20:12.634Z</time></trkpt><trkpt lat="44.7256408" lon="7.8176749"><ele>275.0</ele><time>2026-04-10T07:20:14.722Z</time></trkpt><trkpt lat="44.7255841" lon="7.8177339"><ele>275.0</ele><time>2026-04-10T07:20:16.769Z</time></trkpt><trkpt lat="44.7255257" lon="7.8178011"><ele>275.0</ele><time>2026-04-10T07:20:18.906Z</time></trkpt><trkpt lat="44.7254627" lon="7.8178665"><ele>275.0</ele><time>2026-04-10T07:20:20.743Z</time></trkpt><trkpt lat="44.7253977" lon="7.8179238"><ele>275.0</ele><time>2026-04-10T07:20:22.736Z</time></trkpt><trkpt lat="44.7253348" lon="7.8179802"><ele>275.0</ele><time>2026-04-10T07:20:24.712Z</time></trkpt><trkpt lat="44.7252646" lon="7.8180468"><ele>275.0</ele><time>2026-04-10T07:20:26.997Z</time></trkpt><trkpt lat="44.7251572" lon="7.81815"><ele>275.0</ele><time>2026-04-10T07:20:29.724Z</time></trkpt><trkpt lat="44.7250903" lon="7.818211"><ele>275.0</ele><time>2026-04-10T07:20:31.933Z</time></trkpt><trkpt lat="44.7250193" lon="7.8182787"><ele>275.0</ele><time>2026-04-10T07:20:33.91Z</time></trkpt><trkpt lat="44.724941" lon="7.8183435"><ele>274.6</ele><time>2026-04-10T07:20:35.726Z</time></trkpt><trkpt lat="44.7248381" lon="7.8184478"><ele>274.2</ele><time>2026-04-10T07:20:38.719Z</time></trkpt><trkpt lat="44.7247746" lon="7.8185167"><ele>273.8</ele><time>2026-04-10T07:20:40.725Z</time></trkpt><trkpt lat="44.7246763" lon="7.8186235"><ele>273.4</ele><time>2026-04-10T07:20:43.72Z</time></trkpt><trkpt lat="44.7246065" lon="7.8187005"><ele>273.0</ele><time>2026-04-10T07:20:45.712Z</time></trkpt><trkpt lat="44.7245383" lon="7.8187704"><ele>273.0</ele><time>2026-04-10T07:20:47.709Z</time></trkpt><trkpt lat="44.72447" lon="7.8188334"><ele>273.0</ele><time>2026-04-10T07:20:49.728Z</time></trkpt><trkpt lat="44.7244026" lon="7.8189077"><ele>273.0</ele><time>2026-04-10T07:20:51.735Z</time></trkpt><trkpt lat="44.7243366" lon="7.818981"><ele>273.0</ele><time>2026-04-10T07:20:53.648Z</time></trkpt><trkpt lat="44.7242711" lon="7.8190399"><ele>273.0</ele><time>2026-04-10T07:20:55.649Z</time></trkpt><trkpt lat="44.7242075" lon="7.8190951"><ele>273.0</ele><time>2026-04-10T07:20:57.714Z</time></trkpt><trkpt lat="44.724145" lon="7.819168"><ele>273.0</ele><time>2026-04-10T07:20:59.718Z</time></trkpt><trkpt lat="44.7240805" lon="7.8192255"><ele>273.0</ele><time>2026-04-10T07:21:01.673Z</time></trkpt><trkpt lat="44.7240159" lon="7.8192916"><ele>273.0</ele><time>2026-04-10T07:21:03.74Z</time></trkpt><trkpt lat="44.7239544" lon="7.8193554"><ele>273.0</ele><time>2026-04-10T07:21:05.727Z</time></trkpt><trkpt lat="44.7238914" lon="7.8194195"><ele>273.0</ele><time>2026-04-10T07:21:07.706Z</time></trkpt><trkpt lat="44.7237906" lon="7.8195164"><ele>273.0</ele><time>2026-04-10T07:21:10.727Z</time></trkpt><trkpt lat="44.7237218" lon="7.8195878"><ele>273.0</ele><time>2026-04-10T07:21:12.736Z</time></trkpt><trkpt lat="44.7236601" lon="7.8196586"><ele>273.0</ele><time>2026-04-10T07:21:14.741Z</time></trkpt><trkpt lat="44.7235935" lon="7.8197294"><ele>273.0</ele><time>2026-04-10T07:21:16.737Z</time></trkpt><trkpt lat="44.723529" lon="7.8197957"><ele>273.0</ele><time>2026-04-10T07:21:18.737Z</time></trkpt><trkpt lat="44.7234565" lon="7.8198669"><ele>273.0</ele><time>2026-04-10T07:21:20.702Z</time></trkpt><trkpt lat="44.7233845" lon="7.8199352"><ele>273.0</ele><time>2026-04-10T07:21:22.705Z</time></trkpt><trkpt lat="44.7233276" lon="7.8200014"><ele>273.0</ele><time>2026-04-10T07:21:24.678Z</time></trkpt><trkpt lat="44.7232748" lon="7.8200674"><ele>273.0</ele><time>2026-04-10T07:21:26.721Z</time></trkpt><trkpt lat="44.7232154" lon="7.820128"><ele>273.0</ele><time>2026-04-10T07:21:28.74Z</time></trkpt><trkpt lat="44.7231503" lon="7.8201811"><ele>273.0</ele><time>2026-04-10T07:21:30.724Z</time></trkpt><trkpt lat="44.7230911" lon="7.8202425"><ele>273.0</ele><time>2026-04-10T07:21:32.915Z</time></trkpt><trkpt lat="44.7230057" lon="7.8203437"><ele>273.0</ele><time>2026-04-10T07:21:35.66Z</time></trkpt><trkpt lat="44.7229517" lon="7.8204065"><ele>273.14285714285717</ele><time>2026-04-10T07:21:37.997Z</time></trkpt><trkpt lat="44.7228966" lon="7.8204692"><ele>273.2857142857143</ele><time>2026-04-10T07:21:39.732Z</time></trkpt><trkpt lat="44.7228419" lon="7.8205312"><ele>273.42857142857144</ele><time>2026-04-10T07:21:41.685Z</time></trkpt><trkpt lat="44.7227897" lon="7.8205942"><ele>273.57142857142856</ele><time>2026-04-10T07:21:43.668Z</time></trkpt><trkpt lat="44.7227345" lon="7.8206593"><ele>273.7142857142857</ele><time>2026-04-10T07:21:45.7Z</time></trkpt><trkpt lat="44.7226827" lon="7.8207233"><ele>273.8571428571429</ele><time>2026-04-10T07:21:47.654Z</time></trkpt><trkpt lat="44.7226139" lon="7.8208049"><ele>274.0</ele><time>2026-04-10T07:21:50.676Z</time></trkpt><trkpt lat="44.7225463" lon="7.8207591"><ele>274.4</ele><time>2026-04-10T07:21:53.636Z</time></trkpt><trkpt lat="44.7225157" lon="7.8206757"><ele>274.79999999999995</ele><time>2026-04-10T07:21:55.733Z</time></trkpt><trkpt lat="44.7224863" lon="7.8205805"><ele>275.20000000000005</ele><time>2026-04-10T07:21:57.682Z</time></trkpt><trkpt lat="44.7224201" lon="7.820435"><ele>275.6</ele><time>2026-04-10T07:22:00.734Z</time></trkpt><trkpt lat="44.7223822" lon="7.8203345"><ele>276.0</ele><time>2026-04-10T07:22:02.945Z</time></trkpt><trkpt lat="44.7223283" lon="7.8202028"><ele>275.57142857142856</ele><time>2026-04-10T07:22:05.731Z</time></trkpt><trkpt lat="44.7222808" lon="7.8200883"><ele>275.14285714285717</ele><time>2026-04-10T07:22:08.685Z</time></trkpt><trkpt lat="44.7222457" lon="7.8200084"><ele>274.7142857142857</ele><time>2026-04-10T07:22:11.672Z</time></trkpt><trkpt lat="44.7221968" lon="7.8199301"><ele>274.2857142857143</ele><time>2026-04-10T07:22:16.743Z</time></trkpt><trkpt lat="44.722177" lon="7.8198352"><ele>273.8571428571429</ele><time>2026-04-10T07:22:20.73Z</time></trkpt><trkpt lat="44.7221586" lon="7.8197332"><ele>273.42857142857144</ele><time>2026-04-10T07:25:18.728Z</time></trkpt><trkpt lat="44.7221128" lon="7.8196629"><ele>273.0</ele><time>2026-04-10T07:25:32.975Z</time></trkpt><trkpt lat="44.7220835" lon="7.8195775"><ele>273.0</ele><time>2026-04-10T07:25:36.681Z</time></trkpt><trkpt lat="44.7220345" lon="7.8194941"><ele>273.0</ele><time>2026-04-10T07:25:40.725Z</time></trkpt><trkpt lat="44.7219981" lon="7.819409"><ele>273.0</ele><time>2026-04-10T07:25:44.727Z</time></trkpt><trkpt lat="44.7219615" lon="7.8193135"><ele>273.0</ele><time>2026-04-10T07:25:50.734Z</time></trkpt><trkpt lat="44.7219263" lon="7.8192299"><ele>273.0</ele><time>2026-04-10T07:25:53.916Z</time></trkpt><trkpt lat="44.7218893" lon="7.819102"><ele>273.0</ele><time>2026-04-10T07:25:56.965Z</time></trkpt><trkpt lat="44.7218571" lon="7.8190048"><ele>272.6</ele><time>2026-04-10T07:25:58.953Z</time></trkpt><trkpt lat="44.7218252" lon="7.8189004"><ele>272.20000000000005</ele><time>2026-04-10T07:26:00.739Z</time></trkpt><trkpt lat="44.7217746" lon="7.8187035"><ele>271.8</ele><time>2026-04-10T07:26:03.665Z</time></trkpt><trkpt lat="44.7217368" lon="7.8185669"><ele>271.40000000000003</ele><time>2026-04-10T07:26:05.691Z</time></trkpt><trkpt lat="44.721708" lon="7.8184358"><ele>271.0</ele><time>2026-04-10T07:26:07.953Z</time></trkpt><trkpt lat="44.7216811" lon="7.8183145"><ele>271.0</ele><time>2026-04-10T07:26:09.732Z</time></trkpt><trkpt lat="44.7216563" lon="7.818188"><ele>271.0</ele><time>2026-04-10T07:26:11.713Z</time></trkpt><trkpt lat="44.7216311" lon="7.8180706"><ele>271.0</ele><time>2026-04-10T07:26:13.735Z</time></trkpt><trkpt lat="44.7216044" lon="7.8179609"><ele>271.0</ele><time>2026-04-10T07:26:15.724Z</time></trkpt><trkpt lat="44.7215748" lon="7.8178423"><ele>271.0</ele><time>2026-04-10T07:26:17.72Z</time></trkpt><trkpt lat="44.7215512" lon="7.817711"><ele>271.0</ele><time>2026-04-10T07:26:19.723Z</time></trkpt><trkpt lat="44.7215214" lon="7.817591"><ele>270.5</ele><time>2026-04-10T07:26:21.738Z</time></trkpt><trkpt lat="44.7214936" lon="7.817477"><ele>270.0</ele><time>2026-04-10T07:26:23.68Z</time></trkpt><trkpt lat="44.7214553" lon="7.8173687"><ele>269.5</ele><time>2026-04-10T07:26:25.934Z</time></trkpt><trkpt lat="44.7214216" lon="7.8172598"><ele>269.0</ele><time>2026-04-10T07:26:27.905Z</time></trkpt><trkpt lat="44.7213873" lon="7.8171519"><ele>268.5</ele><time>2026-04-10T07:26:29.725Z</time></trkpt><trkpt lat="44.7213432" lon="7.8170534"><ele>268.0</ele><time>2026-04-10T07:26:31.926Z</time></trkpt><trkpt lat="44.7212992" lon="7.8169446"><ele>268.0</ele><time>2026-04-10T07:26:33.927Z</time></trkpt><trkpt lat="44.7212583" lon="7.8168351"><ele>268.0</ele><time>2026-04-10T07:26:35.723Z</time></trkpt><trkpt lat="44.7211923" lon="7.8166745"><ele>268.0</ele><time>2026-04-10T07:26:38.935Z</time></trkpt><trkpt lat="44.7211438" lon="7.8165663"><ele>268.0</ele><time>2026-04-10T07:26:40.705Z</time></trkpt><trkpt lat="44.7210987" lon="7.8164538"><ele>268.0</ele><time>2026-04-10T07:26:42.725Z</time></trkpt><trkpt lat="44.721055" lon="7.8163456"><ele>268.0</ele><time>2026-04-10T07:26:44.683Z</time></trkpt><trkpt lat="44.7210155" lon="7.8162343"><ele>268.0</ele><time>2026-04-10T07:26:46.719Z</time></trkpt><trkpt lat="44.7209721" lon="7.8161304"><ele>268.0</ele><time>2026-04-10T07:26:48.721Z</time></trkpt><trkpt lat="44.7209361" lon="7.8160199"><ele>268.0</ele><time>2026-04-10T07:26:50.728Z</time></trkpt><trkpt lat="44.7209079" lon="7.8159085"><ele>268.0</ele><time>2026-04-10T07:26:52.727Z</time></trkpt><trkpt lat="44.7208836" lon="7.8157892"><ele>268.0</ele><time>2026-04-10T07:26:54.719Z</time></trkpt><trkpt lat="44.7208615" lon="7.815665"><ele>267.8</ele><time>2026-04-10T07:26:56.921Z</time></trkpt><trkpt lat="44.7208353" lon="7.8154855"><ele>267.6</ele><time>2026-04-10T07:26:59.719Z</time></trkpt><trkpt lat="44.7208141" lon="7.8153584"><ele>267.4</ele><time>2026-04-10T07:27:01.718Z</time></trkpt><trkpt lat="44.7208054" lon="7.8152299"><ele>267.2</ele><time>2026-04-10T07:27:03.894Z</time></trkpt><trkpt lat="44.7207898" lon="7.8150993"><ele>267.0</ele><time>2026-04-10T07:27:05.722Z</time></trkpt><trkpt lat="44.7207786" lon="7.8149749"><ele>267.4</ele><time>2026-04-10T07:27:07.709Z</time></trkpt><trkpt lat="44.720769" lon="7.8148401"><ele>267.79999999999995</ele><time>2026-04-10T07:27:09.688Z</time></trkpt><trkpt lat="44.7207564" lon="7.8147131"><ele>268.2</ele><time>2026-04-10T07:27:11.724Z</time></trkpt><trkpt lat="44.720736" lon="7.8145846"><ele>268.59999999999997</ele><time>2026-04-10T07:27:13.721Z</time></trkpt><trkpt lat="44.7207111" lon="7.8144534"><ele>269.0</ele><time>2026-04-10T07:27:15.913Z</time></trkpt><trkpt lat="44.7206905" lon="7.8143301"><ele>269.0</ele><time>2026-04-10T07:27:17.929Z</time></trkpt><trkpt lat="44.7206611" lon="7.8142081"><ele>269.0</ele><time>2026-04-10T07:27:19.731Z</time></trkpt><trkpt lat="44.7206209" lon="7.8140931"><ele>269.0</ele><time>2026-04-10T07:27:21.728Z</time></trkpt><trkpt lat="44.7205755" lon="7.8139847"><ele>269.0</ele><time>2026-04-10T07:27:23.723Z</time></trkpt><trkpt lat="44.7205194" lon="7.8138727"><ele>269.0</ele><time>2026-04-10T07:27:25.737Z</time></trkpt><trkpt lat="44.7204637" lon="7.8137629"><ele>269.0</ele><time>2026-04-10T07:27:27.699Z</time></trkpt><trkpt lat="44.7204139" lon="7.8136586"><ele>269.0</ele><time>2026-04-10T07:27:29.723Z</time></trkpt><trkpt lat="44.7203625" lon="7.8135503"><ele>269.0</ele><time>2026-04-10T07:27:31.734Z</time></trkpt><trkpt lat="44.7203101" lon="7.8134397"><ele>269.0</ele><time>2026-04-10T07:27:33.729Z</time></trkpt><trkpt lat="44.7202474" lon="7.8133384"><ele>269.0</ele><time>2026-04-10T07:27:35.718Z</time></trkpt><trkpt lat="44.7201813" lon="7.8132499"><ele>268.59999999999997</ele><time>2026-04-10T07:27:37.723Z</time></trkpt><trkpt lat="44.7201122" lon="7.81316"><ele>268.2</ele><time>2026-04-10T07:27:39.721Z</time></trkpt><trkpt lat="44.7200428" lon="7.8130807"><ele>267.79999999999995</ele><time>2026-04-10T07:27:41.731Z</time></trkpt><trkpt lat="44.7199684" lon="7.8130046"><ele>267.4</ele><time>2026-04-10T07:27:43.727Z</time></trkpt><trkpt lat="44.7198996" lon="7.8129288"><ele>267.0</ele><time>2026-04-10T07:27:45.732Z</time></trkpt><trkpt lat="44.7198265" lon="7.8128579"><ele>267.0</ele><time>2026-04-10T07:27:47.908Z</time></trkpt><trkpt lat="44.71971" lon="7.8127471"><ele>267.0</ele><time>2026-04-10T07:27:50.724Z</time></trkpt><trkpt lat="44.7196333" lon="7.81267"><ele>267.0</ele><time>2026-04-10T07:27:52.889Z</time></trkpt><trkpt lat="44.7195573" lon="7.8125921"><ele>267.0</ele><time>2026-04-10T07:27:54.732Z</time></trkpt><trkpt lat="44.7194782" lon="7.8125098"><ele>267.0</ele><time>2026-04-10T07:27:56.892Z</time></trkpt><trkpt lat="44.7193961" lon="7.8124249"><ele>267.5</ele><time>2026-04-10T07:27:58.923Z</time></trkpt><trkpt lat="44.7193159" lon="7.8123376"><ele>268.0</ele><time>2026-04-10T07:28:00.739Z</time></trkpt><trkpt lat="44.7192395" lon="7.8122456"><ele>268.5</ele><time>2026-04-10T07:28:02.885Z</time></trkpt><trkpt lat="44.7191189" lon="7.8121133"><ele>269.0</ele><time>2026-04-10T07:28:05.72Z</time></trkpt><trkpt lat="44.7190381" lon="7.8120309"><ele>269.0</ele><time>2026-04-10T07:28:07.901Z</time></trkpt><trkpt lat="44.7189674" lon="7.8119319"><ele>269.0</ele><time>2026-04-10T07:28:09.722Z</time></trkpt><trkpt lat="44.7189062" lon="7.8118236"><ele>269.0</ele><time>2026-04-10T07:28:11.723Z</time></trkpt><trkpt lat="44.7188507" lon="7.8117067"><ele>269.0</ele><time>2026-04-10T07:28:13.699Z</time></trkpt><trkpt lat="44.7187989" lon="7.8115745"><ele>269.0</ele><time>2026-04-10T07:28:15.727Z</time></trkpt><trkpt lat="44.7187557" lon="7.8114465"><ele>268.8</ele><time>2026-04-10T07:28:17.729Z</time></trkpt><trkpt lat="44.7187066" lon="7.8113169"><ele>268.59999999999997</ele><time>2026-04-10T07:28:19.73Z</time></trkpt><trkpt lat="44.7186636" lon="7.8111935"><ele>268.4</ele><time>2026-04-10T07:28:21.726Z</time></trkpt><trkpt lat="44.7186186" lon="7.8110686"><ele>268.2</ele><time>2026-04-10T07:28:23.722Z</time></trkpt><trkpt lat="44.7185777" lon="7.8109475"><ele>268.0</ele><time>2026-04-10T07:28:25.697Z</time></trkpt><trkpt lat="44.7185359" lon="7.8108239"><ele>267.25</ele><time>2026-04-10T07:28:27.926Z</time></trkpt><trkpt lat="44.7184635" lon="7.8106388"><ele>266.5</ele><time>2026-04-10T07:28:30.735Z</time></trkpt><trkpt lat="44.718419" lon="7.8105147"><ele>265.75</ele><time>2026-04-10T07:28:32.926Z</time></trkpt><trkpt lat="44.7183453" lon="7.8103308"><ele>265.0</ele><time>2026-04-10T07:28:35.68Z</time></trkpt><trkpt lat="44.7182884" lon="7.8102198"><ele>265.0</ele><time>2026-04-10T07:28:38.005Z</time></trkpt><trkpt lat="44.7181949" lon="7.8100482"><ele>265.0</ele><time>2026-04-10T07:28:40.718Z</time></trkpt><trkpt lat="44.7181285" lon="7.8099394"><ele>265.0</ele><time>2026-04-10T07:28:42.977Z</time></trkpt><trkpt lat="44.7180312" lon="7.8097848"><ele>265.0</ele><time>2026-04-10T07:28:45.701Z</time></trkpt><trkpt lat="44.7179616" lon="7.8096802"><ele>265.0</ele><time>2026-04-10T07:28:47.932Z</time></trkpt><trkpt lat="44.7178613" lon="7.8095328"><ele>265.0</ele><time>2026-04-10T07:28:50.713Z</time></trkpt><trkpt lat="44.717798" lon="7.8094278"><ele>265.0</ele><time>2026-04-10T07:28:52.958Z</time></trkpt><trkpt lat="44.717734" lon="7.8093258"><ele>265.0</ele><time>2026-04-10T07:28:54.721Z</time></trkpt><trkpt lat="44.7176653" lon="7.8092178"><ele>265.0</ele><time>2026-04-10T07:28:56.727Z</time></trkpt><trkpt lat="44.717598" lon="7.809112"><ele>265.8</ele><time>2026-04-10T07:28:58.724Z</time></trkpt><trkpt lat="44.7175291" lon="7.8090108"><ele>266.6</ele><time>2026-04-10T07:29:00.721Z</time></trkpt><trkpt lat="44.7174626" lon="7.8089052"><ele>267.4</ele><time>2026-04-10T07:29:02.734Z</time></trkpt><trkpt lat="44.7174033" lon="7.8088053"><ele>268.2</ele><time>2026-04-10T07:29:04.723Z</time></trkpt><trkpt lat="44.7173365" lon="7.8087114"><ele>269.0</ele><time>2026-04-10T07:29:06.702Z</time></trkpt><trkpt lat="44.7172696" lon="7.8086175"><ele>269.0</ele><time>2026-04-10T07:29:08.916Z</time></trkpt><trkpt lat="44.7172124" lon="7.8085371"><ele>269.0</ele><time>2026-04-10T07:29:10.701Z</time></trkpt><trkpt lat="44.7171604" lon="7.8084552"><ele>269.0</ele><time>2026-04-10T07:29:12.928Z</time></trkpt><trkpt lat="44.7171004" lon="7.8083327"><ele>269.0</ele><time>2026-04-10T07:29:15.742Z</time></trkpt><trkpt lat="44.7170847" lon="7.8081953"><ele>269.0</ele><time>2026-04-10T07:29:18.913Z</time></trkpt><trkpt lat="44.717136" lon="7.8081098"><ele>269.0</ele><time>2026-04-10T07:29:20.717Z</time></trkpt><trkpt lat="44.7172404" lon="7.8080129"><ele>269.0</ele><time>2026-04-10T07:29:23.727Z</time></trkpt><trkpt lat="44.7173066" lon="7.8079534"><ele>269.0</ele><time>2026-04-10T07:29:25.903Z</time></trkpt><trkpt lat="44.7173664" lon="7.8078965"><ele>269.0</ele><time>2026-04-10T07:29:27.901Z</time></trkpt><trkpt lat="44.7174634" lon="7.8077996"><ele>269.0</ele><time>2026-04-10T07:29:30.706Z</time></trkpt><trkpt lat="44.7175276" lon="7.8077286"><ele>269.0</ele><time>2026-04-10T07:29:32.956Z</time></trkpt><trkpt lat="44.717636" lon="7.8076313"><ele>269.33333333333337</ele><time>2026-04-10T07:29:35.73Z</time></trkpt><trkpt lat="44.717699" lon="7.8075623"><ele>269.6666666666667</ele><time>2026-04-10T07:29:37.704Z</time></trkpt><trkpt lat="44.71777" lon="7.8074954"><ele>270.0</ele><time>2026-04-10T07:29:39.726Z</time></trkpt><trkpt lat="44.7178472" lon="7.8074228"><ele>270.3333333333333</ele><time>2026-04-10T07:29:41.72Z</time></trkpt><trkpt lat="44.7179227" lon="7.8073472"><ele>270.66666666666663</ele><time>2026-04-10T07:29:43.722Z</time></trkpt><trkpt lat="44.7179985" lon="7.8072705"><ele>271.0</ele><time>2026-04-10T07:29:45.723Z</time></trkpt><trkpt lat="44.718064" lon="7.8072069"><ele>270.40000000000003</ele><time>2026-04-10T07:29:47.703Z</time></trkpt><trkpt lat="44.7181307" lon="7.8071401"><ele>269.8</ele><time>2026-04-10T07:29:49.718Z</time></trkpt><trkpt lat="44.7182325" lon="7.8070343"><ele>269.20000000000005</ele><time>2026-04-10T07:29:52.727Z</time></trkpt><trkpt lat="44.7182941" lon="7.8069562"><ele>268.6</ele><time>2026-04-10T07:29:54.726Z</time></trkpt><trkpt lat="44.7183531" lon="7.8068923"><ele>268.0</ele><time>2026-04-10T07:29:56.72Z</time></trkpt><trkpt lat="44.7184693" lon="7.8067918"><ele>268.0</ele><time>2026-04-10T07:29:59.733Z</time></trkpt><trkpt lat="44.7185377" lon="7.8067116"><ele>268.0</ele><time>2026-04-10T07:30:01.919Z</time></trkpt><trkpt lat="44.7186154" lon="7.8066371"><ele>268.0</ele><time>2026-04-10T07:30:03.916Z</time></trkpt><trkpt lat="44.7186908" lon="7.8065641"><ele>268.0</ele><time>2026-04-10T07:30:05.734Z</time></trkpt><trkpt lat="44.7187687" lon="7.806494"><ele>268.0</ele><time>2026-04-10T07:30:08.018Z</time></trkpt><trkpt lat="44.7188879" lon="7.8063789"><ele>268.25</ele><time>2026-04-10T07:30:10.902Z</time></trkpt><trkpt lat="44.7189647" lon="7.8062993"><ele>268.5</ele><time>2026-04-10T07:30:12.926Z</time></trkpt><trkpt lat="44.7190823" lon="7.8061832"><ele>268.75</ele><time>2026-04-10T07:30:15.723Z</time></trkpt><trkpt lat="44.7191533" lon="7.8061166"><ele>269.0</ele><time>2026-04-10T07:30:17.711Z</time></trkpt><trkpt lat="44.7192672" lon="7.8059979"><ele>268.8</ele><time>2026-04-10T07:30:20.714Z</time></trkpt><trkpt lat="44.7193386" lon="7.805925"><ele>268.59999999999997</ele><time>2026-04-10T07:30:22.912Z</time></trkpt><trkpt lat="44.7194424" lon="7.8058057"><ele>268.4</ele><time>2026-04-10T07:30:25.724Z</time></trkpt><trkpt lat="44.7195184" lon="7.8057264"><ele>268.2</ele><time>2026-04-10T07:30:27.73Z</time></trkpt><trkpt lat="44.7195886" lon="7.8056544"><ele>268.0</ele><time>2026-04-10T07:30:29.734Z</time></trkpt><trkpt lat="44.7196968" lon="7.8055353"><ele>268.0</ele><time>2026-04-10T07:30:32.919Z</time></trkpt><trkpt lat="44.7197628" lon="7.805459"><ele>268.0</ele><time>2026-04-10T07:30:34.72Z</time></trkpt><trkpt lat="44.7198354" lon="7.8053728"><ele>268.0</ele><time>2026-04-10T07:30:36.719Z</time></trkpt><trkpt lat="44.7199057" lon="7.8052949"><ele>268.0</ele><time>2026-04-10T07:30:38.896Z</time></trkpt><trkpt lat="44.719972" lon="7.8052146"><ele>268.0</ele><time>2026-04-10T07:30:40.87Z</time></trkpt><trkpt lat="44.7200417" lon="7.8051348"><ele>268.0</ele><time>2026-04-10T07:30:42.932Z</time></trkpt><trkpt lat="44.7201442" lon="7.8050168"><ele>267.6</ele><time>2026-04-10T07:30:45.72Z</time></trkpt><trkpt lat="44.7202365" lon="7.8048972"><ele>267.20000000000005</ele><time>2026-04-10T07:30:48.891Z</time></trkpt><trkpt lat="44.7203063" lon="7.8048228"><ele>266.8</ele><time>2026-04-10T07:30:50.719Z</time></trkpt><trkpt lat="44.7203745" lon="7.8047427"><ele>266.40000000000003</ele><time>2026-04-10T07:30:52.925Z</time></trkpt><trkpt lat="44.720472" lon="7.8046236"><ele>266.0</ele><time>2026-04-10T07:30:55.717Z</time></trkpt><trkpt lat="44.7205337" lon="7.8045537"><ele>266.0</ele><time>2026-04-10T07:30:57.711Z</time></trkpt><trkpt lat="44.7205973" lon="7.8044737"><ele>266.0</ele><time>2026-04-10T07:30:59.709Z</time></trkpt><trkpt lat="44.7206643" lon="7.8043851"><ele>266.0</ele><time>2026-04-10T07:31:01.73Z</time></trkpt><trkpt lat="44.7207342" lon="7.8043086"><ele>266.0</ele><time>2026-04-10T07:31:03.713Z</time></trkpt><trkpt lat="44.7207978" lon="7.8042344"><ele>266.0</ele><time>2026-04-10T07:31:05.72Z</time></trkpt><trkpt lat="44.7208644" lon="7.8041553"><ele>266.0</ele><time>2026-04-10T07:31:07.626Z</time></trkpt><trkpt lat="44.7209409" lon="7.8040751"><ele>266.1666666666667</ele><time>2026-04-10T07:31:09.675Z</time></trkpt><trkpt lat="44.7210007" lon="7.8040042"><ele>266.33333333333337</ele><time>2026-04-10T07:31:11.617Z</time></trkpt><trkpt lat="44.7210659" lon="7.8039335"><ele>266.5</ele><time>2026-04-10T07:31:13.664Z</time></trkpt><trkpt lat="44.7211289" lon="7.8038637"><ele>266.6666666666667</ele><time>2026-04-10T07:31:15.679Z</time></trkpt><trkpt lat="44.7212" lon="7.8037918"><ele>266.8333333333333</ele><time>2026-04-10T07:31:17.636Z</time></trkpt><trkpt lat="44.7212573" lon="7.8037154"><ele>267.0</ele><time>2026-04-10T07:31:19.655Z</time></trkpt><trkpt lat="44.7213238" lon="7.8036344"><ele>267.0</ele><time>2026-04-10T07:31:21.654Z</time></trkpt><trkpt lat="44.7213949" lon="7.8035723"><ele>267.0</ele><time>2026-04-10T07:31:23.7Z</time></trkpt><trkpt lat="44.7214654" lon="7.8035051"><ele>267.0</ele><time>2026-04-10T07:31:25.661Z</time></trkpt><trkpt lat="44.7215377" lon="7.8034267"><ele>267.0</ele><time>2026-04-10T07:31:27.714Z</time></trkpt><trkpt lat="44.7216049" lon="7.803354"><ele>267.0</ele><time>2026-04-10T07:31:29.723Z</time></trkpt><trkpt lat="44.7216714" lon="7.8032842"><ele>267.0</ele><time>2026-04-10T07:31:31.722Z</time></trkpt><trkpt lat="44.721746" lon="7.8032102"><ele>267.0</ele><time>2026-04-10T07:31:33.679Z</time></trkpt><trkpt lat="44.7218147" lon="7.8031355"><ele>267.0</ele><time>2026-04-10T07:31:35.72Z</time></trkpt><trkpt lat="44.7218904" lon="7.8030601"><ele>267.0</ele><time>2026-04-10T07:31:37.718Z</time></trkpt><trkpt lat="44.7219601" lon="7.8029975"><ele>267.0</ele><time>2026-04-10T07:31:39.714Z</time></trkpt><trkpt lat="44.722035" lon="7.8029246"><ele>267.0</ele><time>2026-04-10T07:31:41.631Z</time></trkpt><trkpt lat="44.7221054" lon="7.8028484"><ele>267.0</ele><time>2026-04-10T07:31:43.67Z</time></trkpt><trkpt lat="44.7221805" lon="7.8027823"><ele>267.0</ele><time>2026-04-10T07:31:45.647Z</time></trkpt><trkpt lat="44.7222518" lon="7.8027036"><ele>267.0</ele><time>2026-04-10T07:31:47.668Z</time></trkpt><trkpt lat="44.7223215" lon="7.8026272"><ele>267.0</ele><time>2026-04-10T07:31:49.703Z</time></trkpt><trkpt lat="44.7223886" lon="7.8025583"><ele>267.0</ele><time>2026-04-10T07:31:51.687Z</time></trkpt><trkpt lat="44.7224596" lon="7.8024905"><ele>267.0</ele><time>2026-04-10T07:31:53.727Z</time></trkpt><trkpt lat="44.7225325" lon="7.8024141"><ele>267.0</ele><time>2026-04-10T07:31:55.718Z</time></trkpt><trkpt lat="44.7226042" lon="7.8023367"><ele>266.8</ele><time>2026-04-10T07:31:57.732Z</time></trkpt><trkpt lat="44.7226748" lon="7.8022672"><ele>266.6</ele><time>2026-04-10T07:31:59.738Z</time></trkpt><trkpt lat="44.7227469" lon="7.802188"><ele>266.40000000000003</ele><time>2026-04-10T07:32:01.718Z</time></trkpt><trkpt lat="44.7228145" lon="7.8020996"><ele>266.2</ele><time>2026-04-10T07:32:03.669Z</time></trkpt><trkpt lat="44.7228841" lon="7.8020021"><ele>266.0</ele><time>2026-04-10T07:32:05.669Z</time></trkpt><trkpt lat="44.7229518" lon="7.801905"><ele>266.0</ele><time>2026-04-10T07:32:07.719Z</time></trkpt><trkpt lat="44.7230156" lon="7.8018098"><ele>266.0</ele><time>2026-04-10T07:32:09.713Z</time></trkpt><trkpt lat="44.7230818" lon="7.8017207"><ele>266.0</ele><time>2026-04-10T07:32:11.707Z</time></trkpt><trkpt lat="44.7231568" lon="7.8016279"><ele>266.0</ele><time>2026-04-10T07:32:13.718Z</time></trkpt><trkpt lat="44.7232245" lon="7.8015371"><ele>266.0</ele><time>2026-04-10T07:32:15.723Z</time></trkpt><trkpt lat="44.7232994" lon="7.8014498"><ele>266.0</ele><time>2026-04-10T07:32:17.685Z</time></trkpt><trkpt lat="44.7233792" lon="7.801383"><ele>266.0</ele><time>2026-04-10T07:32:19.719Z</time></trkpt><trkpt lat="44.7234659" lon="7.8013212"><ele>266.0</ele><time>2026-04-10T07:32:21.678Z</time></trkpt><trkpt lat="44.723547" lon="7.8012584"><ele>266.0</ele><time>2026-04-10T07:32:23.708Z</time></trkpt><trkpt lat="44.7236256" lon="7.8011916"><ele>266.0</ele><time>2026-04-10T07:32:25.726Z</time></trkpt><trkpt lat="44.7237036" lon="7.8011271"><ele>266.0</ele><time>2026-04-10T07:32:27.716Z</time></trkpt><trkpt lat="44.7237849" lon="7.8010602"><ele>266.0</ele><time>2026-04-10T07:32:29.645Z</time></trkpt><trkpt lat="44.7238667" lon="7.8009885"><ele>266.0</ele><time>2026-04-10T07:32:31.728Z</time></trkpt><trkpt lat="44.7239518" lon="7.8009247"><ele>266.0</ele><time>2026-04-10T07:32:33.722Z</time></trkpt><trkpt lat="44.7240321" lon="7.8008706"><ele>266.0</ele><time>2026-04-10T07:32:35.724Z</time></trkpt><trkpt lat="44.7241152" lon="7.8008125"><ele>265.8</ele><time>2026-04-10T07:32:37.728Z</time></trkpt><trkpt lat="44.7241874" lon="7.8007498"><ele>265.6</ele><time>2026-04-10T07:32:39.726Z</time></trkpt><trkpt lat="44.7242655" lon="7.8006859"><ele>265.4</ele><time>2026-04-10T07:32:41.71Z</time></trkpt><trkpt lat="44.7243385" lon="7.8006118"><ele>265.2</ele><time>2026-04-10T07:32:43.735Z</time></trkpt><trkpt lat="44.7244209" lon="7.8005324"><ele>265.0</ele><time>2026-04-10T07:32:45.727Z</time></trkpt><trkpt lat="44.7244977" lon="7.8004655"><ele>264.8</ele><time>2026-04-10T07:32:47.716Z</time></trkpt><trkpt lat="44.724575" lon="7.8003964"><ele>264.6</ele><time>2026-04-10T07:32:49.706Z</time></trkpt><trkpt lat="44.7246497" lon="7.8003268"><ele>264.4</ele><time>2026-04-10T07:32:51.724Z</time></trkpt><trkpt lat="44.7247233" lon="7.8002575"><ele>264.2</ele><time>2026-04-10T07:32:53.719Z</time></trkpt><trkpt lat="44.7248053" lon="7.8001936"><ele>264.0</ele><time>2026-04-10T07:32:55.722Z</time></trkpt><trkpt lat="44.724884" lon="7.8001256"><ele>264.4</ele><time>2026-04-10T07:32:57.713Z</time></trkpt><trkpt lat="44.7249642" lon="7.8000629"><ele>264.79999999999995</ele><time>2026-04-10T07:32:59.717Z</time></trkpt><trkpt lat="44.725046" lon="7.8000017"><ele>265.20000000000005</ele><time>2026-04-10T07:33:01.719Z</time></trkpt><trkpt lat="44.7251232" lon="7.7999407"><ele>265.6</ele><time>2026-04-10T07:33:03.716Z</time></trkpt><trkpt lat="44.7252115" lon="7.7998803"><ele>266.0</ele><time>2026-04-10T07:33:05.677Z</time></trkpt><trkpt lat="44.7252906" lon="7.7998222"><ele>266.2</ele><time>2026-04-10T07:33:07.721Z</time></trkpt><trkpt lat="44.7253781" lon="7.799761"><ele>266.40000000000003</ele><time>2026-04-10T07:33:09.721Z</time></trkpt><trkpt lat="44.7254683" lon="7.7997101"><ele>266.6</ele><time>2026-04-10T07:33:11.721Z</time></trkpt><trkpt lat="44.7255483" lon="7.7996589"><ele>266.8</ele><time>2026-04-10T07:33:13.714Z</time></trkpt><trkpt lat="44.7256349" lon="7.7996081"><ele>267.0</ele><time>2026-04-10T07:33:15.714Z</time></trkpt><trkpt lat="44.7257233" lon="7.7995544"><ele>267.0</ele><time>2026-04-10T07:33:17.722Z</time></trkpt><trkpt lat="44.7258054" lon="7.7995029"><ele>267.0</ele><time>2026-04-10T07:33:19.707Z</time></trkpt><trkpt lat="44.7258882" lon="7.7994472"><ele>267.0</ele><time>2026-04-10T07:33:21.718Z</time></trkpt><trkpt lat="44.7259733" lon="7.7994028"><ele>267.0</ele><time>2026-04-10T07:33:23.716Z</time></trkpt><trkpt lat="44.7260654" lon="7.799405"><ele>267.0</ele><time>2026-04-10T07:33:25.718Z</time></trkpt><trkpt lat="44.726138" lon="7.799457"><ele>267.0</ele><time>2026-04-10T07:33:27.713Z</time></trkpt><trkpt lat="44.726189" lon="7.7995431"><ele>266.6666666666667</ele><time>2026-04-10T07:33:29.704Z</time></trkpt><trkpt lat="44.7262473" lon="7.7996172"><ele>266.3333333333333</ele><time>2026-04-10T07:33:31.719Z</time></trkpt><trkpt lat="44.7263261" lon="7.7996462"><ele>266.0</ele><time>2026-04-10T07:33:33.707Z</time></trkpt><trkpt lat="44.7264129" lon="7.7996001"><ele>265.66666666666663</ele><time>2026-04-10T07:33:35.719Z</time></trkpt><trkpt lat="44.7264924" lon="7.7995265"><ele>265.3333333333333</ele><time>2026-04-10T07:33:37.704Z</time></trkpt><trkpt lat="44.7265679" lon="7.7994596"><ele>265.0</ele><time>2026-04-10T07:33:39.696Z</time></trkpt><trkpt lat="44.726641" lon="7.7993931"><ele>265.0</ele><time>2026-04-10T07:33:41.728Z</time></trkpt><trkpt lat="44.7267191" lon="7.7993223"><ele>265.0</ele><time>2026-04-10T07:33:43.727Z</time></trkpt><trkpt lat="44.7267961" lon="7.7992503"><ele>265.0</ele><time>2026-04-10T07:33:45.721Z</time></trkpt><trkpt lat="44.7268724" lon="7.7991925"><ele>265.0</ele><time>2026-04-10T07:33:47.709Z</time></trkpt><trkpt lat="44.7269628" lon="7.7991707"><ele>265.0</ele><time>2026-04-10T07:33:49.728Z</time></trkpt><trkpt lat="44.7270457" lon="7.7992115"><ele>264.8333333333333</ele><time>2026-04-10T07:33:51.695Z</time></trkpt><trkpt lat="44.7271324" lon="7.7992611"><ele>264.66666666666663</ele><time>2026-04-10T07:33:53.667Z</time></trkpt><trkpt lat="44.7272056" lon="7.7993139"><ele>264.5</ele><time>2026-04-10T07:33:55.716Z</time></trkpt><trkpt lat="44.7272841" lon="7.7993599"><ele>264.3333333333333</ele><time>2026-04-10T07:33:57.717Z</time></trkpt><trkpt lat="44.7273656" lon="7.7993793"><ele>264.1666666666667</ele><time>2026-04-10T07:33:59.718Z</time></trkpt><trkpt lat="44.7274525" lon="7.7993806"><ele>264.0</ele><time>2026-04-10T07:34:01.671Z</time></trkpt><trkpt lat="44.7275381" lon="7.7993695"><ele>264.0</ele><time>2026-04-10T07:34:03.717Z</time></trkpt><trkpt lat="44.7276331" lon="7.7993515"><ele>264.0</ele><time>2026-04-10T07:34:05.689Z</time></trkpt><trkpt lat="44.7277238" lon="7.7993329"><ele>264.0</ele><time>2026-04-10T07:34:07.726Z</time></trkpt><trkpt lat="44.7278183" lon="7.7993132"><ele>264.0</ele><time>2026-04-10T07:34:09.712Z</time></trkpt><trkpt lat="44.7279079" lon="7.7992972"><ele>264.0</ele><time>2026-04-10T07:34:11.72Z</time></trkpt><trkpt lat="44.7279898" lon="7.7992809"><ele>264.3333333333333</ele><time>2026-04-10T07:34:13.721Z</time></trkpt><trkpt lat="44.7280833" lon="7.7992574"><ele>264.6666666666667</ele><time>2026-04-10T07:34:15.702Z</time></trkpt><trkpt lat="44.728178" lon="7.7992368"><ele>265.0</ele><time>2026-04-10T07:34:17.719Z</time></trkpt><trkpt lat="44.728262" lon="7.7992257"><ele>265.33333333333337</ele><time>2026-04-10T07:34:19.723Z</time></trkpt><trkpt lat="44.7283493" lon="7.7992112"><ele>265.6666666666667</ele><time>2026-04-10T07:34:21.703Z</time></trkpt><trkpt lat="44.7284307" lon="7.7991988"><ele>266.0</ele><time>2026-04-10T07:34:23.722Z</time></trkpt><trkpt lat="44.7285109" lon="7.7991881"><ele>265.5</ele><time>2026-04-10T07:34:25.73Z</time></trkpt><trkpt lat="44.7285874" lon="7.7991764"><ele>265.0</ele><time>2026-04-10T07:34:27.714Z</time></trkpt><trkpt lat="44.7286705" lon="7.7991606"><ele>264.5</ele><time>2026-04-10T07:34:29.703Z</time></trkpt><trkpt lat="44.7287505" lon="7.7991392"><ele>264.0</ele><time>2026-04-10T07:34:31.716Z</time></trkpt><trkpt lat="44.7288239" lon="7.7990973"><ele>263.5</ele><time>2026-04-10T07:34:33.713Z</time></trkpt><trkpt lat="44.7288943" lon="7.7990239"><ele>263.0</ele><time>2026-04-10T07:34:35.711Z</time></trkpt><trkpt lat="44.7289566" lon="7.7989354"><ele>263.0</ele><time>2026-04-10T07:34:37.733Z</time></trkpt><trkpt lat="44.7290262" lon="7.798853"><ele>263.0</ele><time>2026-04-10T07:34:39.699Z</time></trkpt><trkpt lat="44.7291015" lon="7.7987827"><ele>263.0</ele><time>2026-04-10T07:34:41.677Z</time></trkpt><trkpt lat="44.7291828" lon="7.7987398"><ele>263.0</ele><time>2026-04-10T07:34:43.738Z</time></trkpt><trkpt lat="44.7292684" lon="7.7987278"><ele>263.0</ele><time>2026-04-10T07:34:45.738Z</time></trkpt><trkpt lat="44.7293572" lon="7.7987221"><ele>263.0</ele><time>2026-04-10T07:34:47.721Z</time></trkpt><trkpt lat="44.7294393" lon="7.7987026"><ele>263.33333333333337</ele><time>2026-04-10T07:34:49.721Z</time></trkpt><trkpt lat="44.7295266" lon="7.7986808"><ele>263.6666666666667</ele><time>2026-04-10T07:34:51.715Z</time></trkpt><trkpt lat="44.7296133" lon="7.7986657"><ele>264.0</ele><time>2026-04-10T07:34:53.717Z</time></trkpt><trkpt lat="44.7296923" lon="7.7986517"><ele>264.3333333333333</ele><time>2026-04-10T07:34:55.737Z</time></trkpt><trkpt lat="44.7297747" lon="7.7986385"><ele>264.66666666666663</ele><time>2026-04-10T07:34:57.717Z</time></trkpt><trkpt lat="44.7298625" lon="7.798618"><ele>265.0</ele><time>2026-04-10T07:34:59.717Z</time></trkpt><trkpt lat="44.7299462" lon="7.7986"><ele>265.0</ele><time>2026-04-10T07:35:01.776Z</time></trkpt><trkpt lat="44.7300285" lon="7.7985909"><ele>265.0</ele><time>2026-04-10T07:35:03.701Z</time></trkpt><trkpt lat="44.7300932" lon="7.7986214"><ele>265.0</ele><time>2026-04-10T07:35:05.729Z</time></trkpt><trkpt lat="44.7301621" lon="7.798644"><ele>265.0</ele><time>2026-04-10T07:35:07.707Z</time></trkpt><trkpt lat="44.7302505" lon="7.7986147"><ele>265.0</ele><time>2026-04-10T07:35:09.731Z</time></trkpt><trkpt lat="44.7303366" lon="7.7985935"><ele>265.0</ele><time>2026-04-10T07:35:11.677Z</time></trkpt><trkpt lat="44.7304207" lon="7.7985844"><ele>265.5</ele><time>2026-04-10T07:35:13.663Z</time></trkpt><trkpt lat="44.7305041" lon="7.7985761"><ele>266.0</ele><time>2026-04-10T07:35:15.719Z</time></trkpt><trkpt lat="44.7305843" lon="7.7985655"><ele>266.5</ele><time>2026-04-10T07:35:17.723Z</time></trkpt><trkpt lat="44.730672" lon="7.7985478"><ele>267.0</ele><time>2026-04-10T07:35:19.724Z</time></trkpt><trkpt lat="44.7307582" lon="7.7985377"><ele>267.5</ele><time>2026-04-10T07:35:21.716Z</time></trkpt><trkpt lat="44.7308407" lon="7.7985231"><ele>268.0</ele><time>2026-04-10T07:35:23.722Z</time></trkpt><trkpt lat="44.7309239" lon="7.7985078"><ele>268.16666666666663</ele><time>2026-04-10T07:35:25.707Z</time></trkpt><trkpt lat="44.7310054" lon="7.7984989"><ele>268.3333333333333</ele><time>2026-04-10T07:35:27.701Z</time></trkpt><trkpt lat="44.7310886" lon="7.7984858"><ele>268.5</ele><time>2026-04-10T07:35:29.71Z</time></trkpt><trkpt lat="44.7311726" lon="7.798473"><ele>268.6666666666667</ele><time>2026-04-10T07:35:31.721Z</time></trkpt><trkpt lat="44.7312626" lon="7.7984608"><ele>268.83333333333337</ele><time>2026-04-10T07:35:33.696Z</time></trkpt><trkpt lat="44.7313533" lon="7.7984475"><ele>269.0</ele><time>2026-04-10T07:35:35.718Z</time></trkpt><trkpt lat="44.7314399" lon="7.7984342"><ele>269.0</ele><time>2026-04-10T07:35:37.717Z</time></trkpt><trkpt lat="44.7315282" lon="7.7984151"><ele>269.0</ele><time>2026-04-10T07:35:39.705Z</time></trkpt><trkpt lat="44.7316208" lon="7.7983978"><ele>269.0</ele><time>2026-04-10T07:35:41.722Z</time></trkpt><trkpt lat="44.7317095" lon="7.7983805"><ele>269.0</ele><time>2026-04-10T07:35:43.729Z</time></trkpt><trkpt lat="44.7317983" lon="7.7983604"><ele>269.0</ele><time>2026-04-10T07:35:45.708Z</time></trkpt><trkpt lat="44.7318806" lon="7.7983443"><ele>269.0</ele><time>2026-04-10T07:35:47.724Z</time></trkpt><trkpt lat="44.7319641" lon="7.7983289"><ele>268.83333333333337</ele><time>2026-04-10T07:35:49.716Z</time></trkpt><trkpt lat="44.7320461" lon="7.7983049"><ele>268.6666666666667</ele><time>2026-04-10T07:35:51.72Z</time></trkpt><trkpt lat="44.7321284" lon="7.798279"><ele>268.5</ele><time>2026-04-10T07:35:53.727Z</time></trkpt><trkpt lat="44.7322124" lon="7.7982511"><ele>268.3333333333333</ele><time>2026-04-10T07:35:55.726Z</time></trkpt><trkpt lat="44.7322949" lon="7.7982216"><ele>268.16666666666663</ele><time>2026-04-10T07:35:57.716Z</time></trkpt><trkpt lat="44.7323888" lon="7.7982038"><ele>268.0</ele><time>2026-04-10T07:35:59.704Z</time></trkpt><trkpt lat="44.7324823" lon="7.7981878"><ele>268.0</ele><time>2026-04-10T07:36:01.735Z</time></trkpt><trkpt lat="44.7325716" lon="7.7981793"><ele>268.0</ele><time>2026-04-10T07:36:03.696Z</time></trkpt><trkpt lat="44.732662" lon="7.7981666"><ele>268.0</ele><time>2026-04-10T07:36:05.721Z</time></trkpt><trkpt lat="44.7327529" lon="7.7981552"><ele>268.0</ele><time>2026-04-10T07:36:07.728Z</time></trkpt><trkpt lat="44.7328383" lon="7.7981408"><ele>268.0</ele><time>2026-04-10T07:36:09.72Z</time></trkpt><trkpt lat="44.7329183" lon="7.7981226"><ele>268.0</ele><time>2026-04-10T07:36:11.716Z</time></trkpt><trkpt lat="44.732998" lon="7.7981211"><ele>267.4</ele><time>2026-04-10T07:36:13.732Z</time></trkpt><trkpt lat="44.7330828" lon="7.79811"><ele>266.8</ele><time>2026-04-10T07:36:15.711Z</time></trkpt><trkpt lat="44.7331852" lon="7.7981042"><ele>266.2</ele><time>2026-04-10T07:36:17.716Z</time></trkpt><trkpt lat="44.73329" lon="7.7980998"><ele>265.6</ele><time>2026-04-10T07:36:19.73Z</time></trkpt><trkpt lat="44.7333962" lon="7.7980828"><ele>265.0</ele><time>2026-04-10T07:36:21.717Z</time></trkpt><trkpt lat="44.7334975" lon="7.7980696"><ele>264.8</ele><time>2026-04-10T07:36:23.687Z</time></trkpt><trkpt lat="44.733595" lon="7.7980472"><ele>264.6</ele><time>2026-04-10T07:36:25.699Z</time></trkpt><trkpt lat="44.7336928" lon="7.7980273"><ele>264.4</ele><time>2026-04-10T07:36:27.725Z</time></trkpt><trkpt lat="44.7337878" lon="7.7980061"><ele>264.2</ele><time>2026-04-10T07:36:29.727Z</time></trkpt><trkpt lat="44.7338792" lon="7.7979758"><ele>264.0</ele><time>2026-04-10T07:36:31.714Z</time></trkpt><trkpt lat="44.7339706" lon="7.7979377"><ele>264.0</ele><time>2026-04-10T07:36:33.711Z</time></trkpt><trkpt lat="44.7340616" lon="7.7978976"><ele>264.0</ele><time>2026-04-10T07:36:35.727Z</time></trkpt><trkpt lat="44.7341566" lon="7.7978624"><ele>264.0</ele><time>2026-04-10T07:36:37.719Z</time></trkpt><trkpt lat="44.7342505" lon="7.7978373"><ele>264.0</ele><time>2026-04-10T07:36:39.722Z</time></trkpt><trkpt lat="44.7343383" lon="7.7978362"><ele>264.0</ele><time>2026-04-10T07:36:41.72Z</time></trkpt><trkpt lat="44.7344259" lon="7.7978539"><ele>264.2</ele><time>2026-04-10T07:36:43.721Z</time></trkpt><trkpt lat="44.7345086" lon="7.7978698"><ele>264.4</ele><time>2026-04-10T07:36:45.73Z</time></trkpt><trkpt lat="44.7345976" lon="7.7978583"><ele>264.6</ele><time>2026-04-10T07:36:47.717Z</time></trkpt><trkpt lat="44.7346896" lon="7.797846"><ele>264.8</ele><time>2026-04-10T07:36:49.712Z</time></trkpt><trkpt lat="44.734784" lon="7.7978336"><ele>265.0</ele><time>2026-04-10T07:36:51.726Z</time></trkpt><trkpt lat="44.7348765" lon="7.7978225"><ele>265.0</ele><time>2026-04-10T07:36:53.658Z</time></trkpt><trkpt lat="44.7349658" lon="7.7978163"><ele>265.0</ele><time>2026-04-10T07:36:55.72Z</time></trkpt><trkpt lat="44.7350524" lon="7.7978035"><ele>265.0</ele><time>2026-04-10T07:36:57.723Z</time></trkpt><trkpt lat="44.7351395" lon="7.7977895"><ele>265.0</ele><time>2026-04-10T07:36:59.69Z</time></trkpt><trkpt lat="44.7352305" lon="7.7977761"><ele>265.0</ele><time>2026-04-10T07:37:01.698Z</time></trkpt><trkpt lat="44.7353148" lon="7.7977667"><ele>265.0</ele><time>2026-04-10T07:37:03.71Z</time></trkpt><trkpt lat="44.7354012" lon="7.7977536"><ele>264.8</ele><time>2026-04-10T07:37:05.705Z</time></trkpt><trkpt lat="44.7354917" lon="7.7977366"><ele>264.6</ele><time>2026-04-10T07:37:07.73Z</time></trkpt><trkpt lat="44.7355862" lon="7.7977289"><ele>264.4</ele><time>2026-04-10T07:37:09.723Z</time></trkpt><trkpt lat="44.7356846" lon="7.7977081"><ele>264.2</ele><time>2026-04-10T07:37:11.652Z</time></trkpt><trkpt lat="44.7357856" lon="7.7976889"><ele>264.0</ele><time>2026-04-10T07:37:13.721Z</time></trkpt><trkpt lat="44.7358879" lon="7.7976668"><ele>264.0</ele><time>2026-04-10T07:37:15.714Z</time></trkpt><trkpt lat="44.7359912" lon="7.7976529"><ele>264.0</ele><time>2026-04-10T07:37:17.712Z</time></trkpt><trkpt lat="44.73609" lon="7.7976404"><ele>264.0</ele><time>2026-04-10T07:37:19.717Z</time></trkpt><trkpt lat="44.7361878" lon="7.7976191"><ele>264.0</ele><time>2026-04-10T07:37:21.723Z</time></trkpt><trkpt lat="44.7362842" lon="7.7976052"><ele>264.0</ele><time>2026-04-10T07:37:23.728Z</time></trkpt><trkpt lat="44.7363762" lon="7.7975945"><ele>264.0</ele><time>2026-04-10T07:37:25.712Z</time></trkpt><trkpt lat="44.7364681" lon="7.7976117"><ele>264.0</ele><time>2026-04-10T07:37:27.721Z</time></trkpt><trkpt lat="44.7365549" lon="7.7976489"><ele>264.0</ele><time>2026-04-10T07:37:29.719Z</time></trkpt><trkpt lat="44.7366435" lon="7.7976649"><ele>264.0</ele><time>2026-04-10T07:37:31.726Z</time></trkpt><trkpt lat="44.7367375" lon="7.7976481"><ele>264.0</ele><time>2026-04-10T07:37:33.727Z</time></trkpt><trkpt lat="44.736832" lon="7.7976438"><ele>264.8</ele><time>2026-04-10T07:37:35.723Z</time></trkpt><trkpt lat="44.7369313" lon="7.7976185"><ele>265.59999999999997</ele><time>2026-04-10T07:37:37.723Z</time></trkpt><trkpt lat="44.7370342" lon="7.7975885"><ele>266.4</ele><time>2026-04-10T07:37:39.704Z</time></trkpt><trkpt lat="44.73713" lon="7.7975604"><ele>267.2</ele><time>2026-04-10T07:37:41.723Z</time></trkpt><trkpt lat="44.7372286" lon="7.7975327"><ele>268.0</ele><time>2026-04-10T07:37:43.729Z</time></trkpt><trkpt lat="44.7373224" lon="7.7975027"><ele>268.0</ele><time>2026-04-10T07:37:45.722Z</time></trkpt><trkpt lat="44.7374176" lon="7.797471"><ele>268.0</ele><time>2026-04-10T07:37:47.72Z</time></trkpt><trkpt lat="44.7375147" lon="7.7974411"><ele>268.0</ele><time>2026-04-10T07:37:49.725Z</time></trkpt><trkpt lat="44.7376091" lon="7.7974114"><ele>268.0</ele><time>2026-04-10T07:37:51.723Z</time></trkpt><trkpt lat="44.7377126" lon="7.7973819"><ele>268.0</ele><time>2026-04-10T07:37:53.717Z</time></trkpt><trkpt lat="44.7378152" lon="7.7973469"><ele>267.6</ele><time>2026-04-10T07:37:55.718Z</time></trkpt><trkpt lat="44.7379141" lon="7.7973168"><ele>267.20000000000005</ele><time>2026-04-10T07:37:57.716Z</time></trkpt><trkpt lat="44.7380108" lon="7.7973047"><ele>266.8</ele><time>2026-04-10T07:37:59.722Z</time></trkpt><trkpt lat="44.7381076" lon="7.7973192"><ele>266.40000000000003</ele><time>2026-04-10T07:38:01.658Z</time></trkpt><trkpt lat="44.7381841" lon="7.7973805"><ele>266.0</ele><time>2026-04-10T07:38:03.724Z</time></trkpt><trkpt lat="44.7382573" lon="7.7974573"><ele>266.0</ele><time>2026-04-10T07:38:05.721Z</time></trkpt><trkpt lat="44.7383482" lon="7.7974879"><ele>266.0</ele><time>2026-04-10T07:38:07.714Z</time></trkpt><trkpt lat="44.7384494" lon="7.7974841"><ele>266.0</ele><time>2026-04-10T07:38:09.653Z</time></trkpt><trkpt lat="44.7385507" lon="7.7974592"><ele>266.0</ele><time>2026-04-10T07:38:11.701Z</time></trkpt><trkpt lat="44.7386505" lon="7.7974275"><ele>266.0</ele><time>2026-04-10T07:38:13.734Z</time></trkpt><trkpt lat="44.7387524" lon="7.7973963"><ele>265.8</ele><time>2026-04-10T07:38:15.718Z</time></trkpt><trkpt lat="44.738849" lon="7.7973684"><ele>265.6</ele><time>2026-04-10T07:38:17.722Z</time></trkpt><trkpt lat="44.7389432" lon="7.7973387"><ele>265.4</ele><time>2026-04-10T07:38:19.718Z</time></trkpt><trkpt lat="44.7390351" lon="7.7973171"><ele>265.2</ele><time>2026-04-10T07:38:21.724Z</time></trkpt><trkpt lat="44.7391265" lon="7.7973088"><ele>265.0</ele><time>2026-04-10T07:38:23.703Z</time></trkpt><trkpt lat="44.7392161" lon="7.7972924"><ele>265.0</ele><time>2026-04-10T07:38:25.727Z</time></trkpt><trkpt lat="44.7393105" lon="7.7972829"><ele>265.0</ele><time>2026-04-10T07:38:27.7Z</time></trkpt><trkpt lat="44.739403" lon="7.7972743"><ele>265.0</ele><time>2026-04-10T07:38:29.718Z</time></trkpt><trkpt lat="44.7394907" lon="7.7972802"><ele>265.0</ele><time>2026-04-10T07:38:31.721Z</time></trkpt><trkpt lat="44.7395506" lon="7.7973503"><ele>265.0</ele><time>2026-04-10T07:38:33.713Z</time></trkpt><trkpt lat="44.7395752" lon="7.7974627"><ele>265.0</ele><time>2026-04-10T07:38:35.688Z</time></trkpt><trkpt lat="44.7395928" lon="7.7975843"><ele>264.8</ele><time>2026-04-10T07:38:37.717Z</time></trkpt><trkpt lat="44.7396065" lon="7.7977209"><ele>264.6</ele><time>2026-04-10T07:38:39.721Z</time></trkpt><trkpt lat="44.7396259" lon="7.7978464"><ele>264.4</ele><time>2026-04-10T07:38:41.716Z</time></trkpt><trkpt lat="44.7396389" lon="7.7979765"><ele>264.2</ele><time>2026-04-10T07:38:43.722Z</time></trkpt><trkpt lat="44.7396535" lon="7.7981038"><ele>264.0</ele><time>2026-04-10T07:38:45.717Z</time></trkpt><trkpt lat="44.7396697" lon="7.7982267"><ele>264.0</ele><time>2026-04-10T07:38:47.718Z</time></trkpt><trkpt lat="44.7396781" lon="7.7983516"><ele>264.0</ele><time>2026-04-10T07:38:49.715Z</time></trkpt><trkpt lat="44.7396907" lon="7.7984823"><ele>264.0</ele><time>2026-04-10T07:38:51.719Z</time></trkpt><trkpt lat="44.7397007" lon="7.7986173"><ele>264.0</ele><time>2026-04-10T07:38:53.69Z</time></trkpt><trkpt lat="44.7397079" lon="7.7987579"><ele>264.0</ele><time>2026-04-10T07:38:55.715Z</time></trkpt><trkpt lat="44.7397196" lon="7.7988849"><ele>264.4</ele><time>2026-04-10T07:38:57.708Z</time></trkpt><trkpt lat="44.7397404" lon="7.7990115"><ele>264.79999999999995</ele><time>2026-04-10T07:38:59.713Z</time></trkpt><trkpt lat="44.7397689" lon="7.7991337"><ele>265.20000000000005</ele><time>2026-04-10T07:39:01.717Z</time></trkpt><trkpt lat="44.7398208" lon="7.7992363"><ele>265.6</ele><time>2026-04-10T07:39:03.715Z</time></trkpt><trkpt lat="44.7398957" lon="7.7993003"><ele>266.0</ele><time>2026-04-10T07:39:05.712Z</time></trkpt><trkpt lat="44.7399832" lon="7.7993294"><ele>266.0</ele><time>2026-04-10T07:39:07.726Z</time></trkpt><trkpt lat="44.7400721" lon="7.7993597"><ele>266.0</ele><time>2026-04-10T07:39:09.718Z</time></trkpt><trkpt lat="44.7401571" lon="7.7994115"><ele>266.0</ele><time>2026-04-10T07:39:11.73Z</time></trkpt><trkpt lat="44.7402395" lon="7.7994685"><ele>266.0</ele><time>2026-04-10T07:39:13.72Z</time></trkpt><trkpt lat="44.7403206" lon="7.7995376"><ele>266.0</ele><time>2026-04-10T07:39:15.718Z</time></trkpt><trkpt lat="44.7404064" lon="7.7996079"><ele>266.0</ele><time>2026-04-10T07:39:17.714Z</time></trkpt><trkpt lat="44.7404875" lon="7.7996786"><ele>266.0</ele><time>2026-04-10T07:39:19.691Z</time></trkpt><trkpt lat="44.7405696" lon="7.7997517"><ele>266.0</ele><time>2026-04-10T07:39:21.715Z</time></trkpt><trkpt lat="44.7406526" lon="7.7998255"><ele>266.0</ele><time>2026-04-10T07:39:23.73Z</time></trkpt><trkpt lat="44.7407365" lon="7.7998952"><ele>266.0</ele><time>2026-04-10T07:39:25.72Z</time></trkpt><trkpt lat="44.7408118" lon="7.7999687"><ele>266.0</ele><time>2026-04-10T07:39:27.72Z</time></trkpt><trkpt lat="44.740888" lon="7.8000424"><ele>266.0</ele><time>2026-04-10T07:39:29.722Z</time></trkpt><trkpt lat="44.7409639" lon="7.8001221"><ele>266.0</ele><time>2026-04-10T07:39:31.721Z</time></trkpt><trkpt lat="44.7410289" lon="7.8001948"><ele>266.0</ele><time>2026-04-10T07:39:33.716Z</time></trkpt><trkpt lat="44.7410773" lon="7.8002844"><ele>266.0</ele><time>2026-04-10T07:39:35.709Z</time></trkpt><trkpt lat="44.7411242" lon="7.8003837"><ele>266.0</ele><time>2026-04-10T07:39:37.732Z</time></trkpt><trkpt lat="44.7411717" lon="7.8004925"><ele>266.2</ele><time>2026-04-10T07:39:39.705Z</time></trkpt><trkpt lat="44.7412117" lon="7.8006076"><ele>266.40000000000003</ele><time>2026-04-10T07:39:41.713Z</time></trkpt><trkpt lat="44.7412478" lon="7.8007295"><ele>266.6</ele><time>2026-04-10T07:39:43.712Z</time></trkpt><trkpt lat="44.7412785" lon="7.8008559"><ele>266.8</ele><time>2026-04-10T07:39:45.725Z</time></trkpt><trkpt lat="44.7413038" lon="7.8009783"><ele>267.0</ele><time>2026-04-10T07:39:47.716Z</time></trkpt><trkpt lat="44.741328" lon="7.8010996"><ele>267.0</ele><time>2026-04-10T07:39:49.712Z</time></trkpt><trkpt lat="44.7413561" lon="7.8012159"><ele>267.0</ele><time>2026-04-10T07:39:51.685Z</time></trkpt><trkpt lat="44.741379" lon="7.8013203"><ele>267.0</ele><time>2026-04-10T07:39:53.674Z</time></trkpt><trkpt lat="44.7414022" lon="7.80142"><ele>267.0</ele><time>2026-04-10T07:39:55.713Z</time></trkpt><trkpt lat="44.7414268" lon="7.8015257"><ele>267.0</ele><time>2026-04-10T07:39:57.721Z</time></trkpt><trkpt lat="44.7414584" lon="7.8016176"><ele>267.0</ele><time>2026-04-10T07:39:59.723Z</time></trkpt><trkpt lat="44.7414897" lon="7.8017095"><ele>267.0</ele><time>2026-04-10T07:40:01.724Z</time></trkpt><trkpt lat="44.741531" lon="7.8018191"><ele>267.0</ele><time>2026-04-10T07:40:04.704Z</time></trkpt><trkpt lat="44.7415707" lon="7.8018975"><ele>267.0</ele><time>2026-04-10T07:40:07.722Z</time></trkpt><trkpt lat="44.7416185" lon="7.8019851"><ele>267.0</ele><time>2026-04-10T07:40:11.703Z</time></trkpt><trkpt lat="44.7416697" lon="7.8020663"><ele>267.0</ele><time>2026-04-10T07:40:15.717Z</time></trkpt><trkpt lat="44.7417139" lon="7.8021413"><ele>267.0</ele><time>2026-04-10T07:40:20.716Z</time></trkpt><trkpt lat="44.7417512" lon="7.8022343"><ele>267.0</ele><time>2026-04-10T07:40:24.717Z</time></trkpt><trkpt lat="44.7418088" lon="7.8023181"><ele>267.0</ele><time>2026-04-10T07:40:28.731Z</time></trkpt><trkpt lat="44.7418682" lon="7.8024109"><ele>267.0</ele><time>2026-04-10T07:40:31.72Z</time></trkpt><trkpt lat="44.7419164" lon="7.8024851"><ele>267.0</ele><time>2026-04-10T07:40:33.713Z</time></trkpt><trkpt lat="44.7419673" lon="7.8025529"><ele>267.0</ele><time>2026-04-10T07:40:35.709Z</time></trkpt><trkpt lat="44.7420203" lon="7.8026162"><ele>267.0</ele><time>2026-04-10T07:40:37.713Z</time></trkpt><trkpt lat="44.7420744" lon="7.8026759"><ele>267.28571428571433</ele><time>2026-04-10T07:40:39.664Z</time></trkpt><trkpt lat="44.7421333" lon="7.8027383"><ele>267.57142857142856</ele><time>2026-04-10T07:40:41.733Z</time></trkpt><trkpt lat="44.7421901" lon="7.8027976"><ele>267.8571428571429</ele><time>2026-04-10T07:40:43.713Z</time></trkpt><trkpt lat="44.7422467" lon="7.8028608"><ele>268.14285714285717</ele><time>2026-04-10T07:40:45.721Z</time></trkpt><trkpt lat="44.7423091" lon="7.802921"><ele>268.42857142857144</ele><time>2026-04-10T07:40:47.714Z</time></trkpt><trkpt lat="44.7423703" lon="7.8029831"><ele>268.7142857142857</ele><time>2026-04-10T07:40:49.684Z</time></trkpt><trkpt lat="44.7424339" lon="7.8030388"><ele>269.0</ele><time>2026-04-10T07:40:51.712Z</time></trkpt><trkpt lat="44.7424972" lon="7.8030903"><ele>269.0</ele><time>2026-04-10T07:40:53.667Z</time></trkpt><trkpt lat="44.742558" lon="7.8031409"><ele>269.0</ele><time>2026-04-10T07:40:55.729Z</time></trkpt><trkpt lat="44.7426191" lon="7.8031862"><ele>269.0</ele><time>2026-04-10T07:40:57.714Z</time></trkpt><trkpt lat="44.7426834" lon="7.8032352"><ele>269.0</ele><time>2026-04-10T07:40:59.732Z</time></trkpt><trkpt lat="44.7427448" lon="7.8032884"><ele>269.0</ele><time>2026-04-10T07:41:01.703Z</time></trkpt><trkpt lat="44.7428016" lon="7.8033315"><ele>269.0</ele><time>2026-04-10T07:41:03.714Z</time></trkpt><trkpt lat="44.7428606" lon="7.8033775"><ele>269.0</ele><time>2026-04-10T07:41:05.709Z</time></trkpt><trkpt lat="44.7429215" lon="7.8034293"><ele>269.57142857142856</ele><time>2026-04-10T07:41:07.721Z</time></trkpt><trkpt lat="44.7429835" lon="7.8034863"><ele>270.14285714285717</ele><time>2026-04-10T07:41:09.683Z</time></trkpt><trkpt lat="44.7430388" lon="7.8035415"><ele>270.7142857142857</ele><time>2026-04-10T07:41:11.697Z</time></trkpt><trkpt lat="44.7430958" lon="7.803618"><ele>271.2857142857143</ele><time>2026-04-10T07:41:13.729Z</time></trkpt><trkpt lat="44.743156" lon="7.8036773"><ele>271.8571428571429</ele><time>2026-04-10T07:41:15.727Z</time></trkpt><trkpt lat="44.7432211" lon="7.8037333"><ele>272.42857142857144</ele><time>2026-04-10T07:41:17.717Z</time></trkpt><trkpt lat="44.743282" lon="7.8037942"><ele>273.0</ele><time>2026-04-10T07:41:19.671Z</time></trkpt><trkpt lat="44.7433357" lon="7.8038672"><ele>273.0</ele><time>2026-04-10T07:41:21.733Z</time></trkpt><trkpt lat="44.7433958" lon="7.8039282"><ele>273.0</ele><time>2026-04-10T07:41:23.717Z</time></trkpt><trkpt lat="44.7434608" lon="7.8039811"><ele>273.0</ele><time>2026-04-10T07:41:25.721Z</time></trkpt><trkpt lat="44.7435216" lon="7.8040408"><ele>273.0</ele><time>2026-04-10T07:41:27.72Z</time></trkpt><trkpt lat="44.743585" lon="7.8040946"><ele>273.0</ele><time>2026-04-10T07:41:29.715Z</time></trkpt><trkpt lat="44.7436529" lon="7.8041433"><ele>273.0</ele><time>2026-04-10T07:41:31.723Z</time></trkpt><trkpt lat="44.74372" lon="7.804188"><ele>273.0</ele><time>2026-04-10T07:41:33.732Z</time></trkpt><trkpt lat="44.7437813" lon="7.8042416"><ele>273.1666666666667</ele><time>2026-04-10T07:41:35.697Z</time></trkpt><trkpt lat="44.7438503" lon="7.8042862"><ele>273.3333333333333</ele><time>2026-04-10T07:41:37.723Z</time></trkpt><trkpt lat="44.7439264" lon="7.8043212"><ele>273.5</ele><time>2026-04-10T07:41:39.724Z</time></trkpt><trkpt lat="44.7439998" lon="7.8043605"><ele>273.66666666666663</ele><time>2026-04-10T07:41:41.717Z</time></trkpt><trkpt lat="44.744071" lon="7.8043938"><ele>273.8333333333333</ele><time>2026-04-10T07:41:43.714Z</time></trkpt><trkpt lat="44.7441427" lon="7.8044357"><ele>274.0</ele><time>2026-04-10T07:41:45.725Z</time></trkpt><trkpt lat="44.74422" lon="7.8044756"><ele>274.0</ele><time>2026-04-10T07:41:47.728Z</time></trkpt><trkpt lat="44.7442976" lon="7.8045233"><ele>274.0</ele><time>2026-04-10T07:41:49.725Z</time></trkpt><trkpt lat="44.7443715" lon="7.8045806"><ele>274.0</ele><time>2026-04-10T07:41:51.73Z</time></trkpt><trkpt lat="44.7444438" lon="7.8046463"><ele>274.0</ele><time>2026-04-10T07:41:53.73Z</time></trkpt><trkpt lat="44.7444975" lon="7.804711"><ele>274.0</ele><time>2026-04-10T07:41:56.668Z</time></trkpt><trkpt lat="44.7444515" lon="7.8046223"><ele>274.0</ele><time>2026-04-10T07:42:02.707Z</time></trkpt><trkpt lat="44.744393" lon="7.8045729"><ele>274.14285714285717</ele><time>2026-04-10T07:42:06.715Z</time></trkpt><trkpt lat="44.7444333" lon="7.8046457"><ele>274.2857142857143</ele><time>2026-04-10T07:43:22.734Z</time></trkpt><trkpt lat="44.7444873" lon="7.8046932"><ele>274.42857142857144</ele><time>2026-04-10T07:43:25.73Z</time></trkpt><trkpt lat="44.7445499" lon="7.8047527"><ele>274.57142857142856</ele><time>2026-04-10T07:43:28.727Z</time></trkpt><trkpt lat="44.7445994" lon="7.8048156"><ele>274.7142857142857</ele><time>2026-04-10T07:43:30.723Z</time></trkpt><trkpt lat="44.7446503" lon="7.8048826"><ele>274.8571428571429</ele><time>2026-04-10T07:43:32.721Z</time></trkpt><trkpt lat="44.7446972" lon="7.8049438"><ele>275.0</ele><time>2026-04-10T07:43:34.731Z</time></trkpt><trkpt lat="44.7447414" lon="7.8050175"><ele>275.0</ele><time>2026-04-10T07:43:36.726Z</time></trkpt><trkpt lat="44.7447907" lon="7.8050867"><ele>275.0</ele><time>2026-04-10T07:43:38.71Z</time></trkpt><trkpt lat="44.7448506" lon="7.8051898"><ele>275.0</ele><time>2026-04-10T07:43:41.735Z</time></trkpt><trkpt lat="44.7449024" lon="7.805273"><ele>275.0</ele><time>2026-04-10T07:43:43.718Z</time></trkpt><trkpt lat="44.7449575" lon="7.8053485"><ele>275.0</ele><time>2026-04-10T07:43:45.708Z</time></trkpt><trkpt lat="44.7450148" lon="7.8054266"><ele>275.0</ele><time>2026-04-10T07:43:47.71Z</time></trkpt><trkpt lat="44.7450764" lon="7.8055112"><ele>274.8</ele><time>2026-04-10T07:43:49.727Z</time></trkpt><trkpt lat="44.7451371" lon="7.8055903"><ele>274.6</ele><time>2026-04-10T07:43:51.741Z</time></trkpt><trkpt lat="44.7451953" lon="7.8056766"><ele>274.4</ele><time>2026-04-10T07:43:53.978Z</time></trkpt><trkpt lat="44.745253" lon="7.8057583"><ele>274.2</ele><time>2026-04-10T07:43:55.719Z</time></trkpt><trkpt lat="44.7453106" lon="7.805845"><ele>274.0</ele><time>2026-04-10T07:43:57.941Z</time></trkpt><trkpt lat="44.7453996" lon="7.8059514"><ele>274.0</ele><time>2026-04-10T07:44:00.905Z</time></trkpt><trkpt lat="44.745485" lon="7.8060654"><ele>274.0</ele><time>2026-04-10T07:44:03.727Z</time></trkpt><trkpt lat="44.7455474" lon="7.8061307"><ele>274.0</ele><time>2026-04-10T07:44:05.715Z</time></trkpt><trkpt lat="44.7456012" lon="7.8061975"><ele>274.0</ele><time>2026-04-10T07:44:07.717Z</time></trkpt><trkpt lat="44.7456554" lon="7.8062572"><ele>274.0</ele><time>2026-04-10T07:44:09.717Z</time></trkpt><trkpt lat="44.7457478" lon="7.806347"><ele>274.0</ele><time>2026-04-10T07:44:12.668Z</time></trkpt><trkpt lat="44.7458048" lon="7.8064104"><ele>274.0</ele><time>2026-04-10T07:44:14.736Z</time></trkpt><trkpt lat="44.7458705" lon="7.8064702"><ele>274.0</ele><time>2026-04-10T07:44:16.896Z</time></trkpt><trkpt lat="44.7459305" lon="7.8065446"><ele>274.0</ele><time>2026-04-10T07:44:18.879Z</time></trkpt><trkpt lat="44.745999" lon="7.8066185"><ele>274.0</ele><time>2026-04-10T07:44:20.736Z</time></trkpt><trkpt lat="44.7460632" lon="7.8067097"><ele>274.0</ele><time>2026-04-10T07:44:22.701Z</time></trkpt><trkpt lat="44.7461316" lon="7.8067847"><ele>274.0</ele><time>2026-04-10T07:44:24.668Z</time></trkpt><trkpt lat="44.7462006" lon="7.8068631"><ele>274.16666666666663</ele><time>2026-04-10T07:44:26.913Z</time></trkpt><trkpt lat="44.7462588" lon="7.8069418"><ele>274.3333333333333</ele><time>2026-04-10T07:44:28.678Z</time></trkpt><trkpt lat="44.7463181" lon="7.8070096"><ele>274.5</ele><time>2026-04-10T07:44:30.707Z</time></trkpt><trkpt lat="44.7464085" lon="7.8070965"><ele>274.6666666666667</ele><time>2026-04-10T07:44:33.95Z</time></trkpt><trkpt lat="44.7464783" lon="7.8071607"><ele>274.83333333333337</ele><time>2026-04-10T07:44:35.739Z</time></trkpt><trkpt lat="44.7465438" lon="7.8072322"><ele>275.0</ele><time>2026-04-10T07:44:37.734Z</time></trkpt><trkpt lat="44.7465967" lon="7.8073143"><ele>275.0</ele><time>2026-04-10T07:44:39.728Z</time></trkpt><trkpt lat="44.7466542" lon="7.8073577"><ele>275.0</ele><time>2026-04-10T07:44:43.755Z</time></trkpt><trkpt lat="44.746724" lon="7.8073784"><ele>275.0</ele><time>2026-04-10T07:44:46.741Z</time></trkpt><trkpt lat="44.7467907" lon="7.8073584"><ele>275.0</ele><time>2026-04-10T07:44:48.914Z</time></trkpt><trkpt lat="44.7468578" lon="7.8073359"><ele>275.0</ele><time>2026-04-10T07:44:50.736Z</time></trkpt><trkpt lat="44.7469758" lon="7.8073002"><ele>275.0</ele><time>2026-04-10T07:44:53.737Z</time></trkpt><trkpt lat="44.7470635" lon="7.8072756"><ele>275.2</ele><time>2026-04-10T07:44:55.742Z</time></trkpt><trkpt lat="44.7471518" lon="7.8072465"><ele>275.4</ele><time>2026-04-10T07:44:57.929Z</time></trkpt><trkpt lat="44.7472891" lon="7.8072009"><ele>275.6</ele><time>2026-04-10T07:45:00.74Z</time></trkpt><trkpt lat="44.7473789" lon="7.8071754"><ele>275.8</ele><time>2026-04-10T07:45:02.747Z</time></trkpt><trkpt lat="44.7474685" lon="7.8071453"><ele>276.0</ele><time>2026-04-10T07:45:04.73Z</time></trkpt><trkpt lat="44.7475647" lon="7.8071106"><ele>276.0</ele><time>2026-04-10T07:45:06.918Z</time></trkpt><trkpt lat="44.7476586" lon="7.80708"><ele>276.0</ele><time>2026-04-10T07:45:08.916Z</time></trkpt><trkpt lat="44.7477559" lon="7.8070463"><ele>276.0</ele><time>2026-04-10T07:45:10.737Z</time></trkpt><trkpt lat="44.7479016" lon="7.8069997"><ele>276.0</ele><time>2026-04-10T07:45:13.915Z</time></trkpt><trkpt lat="44.7479981" lon="7.8069621"><ele>276.0</ele><time>2026-04-10T07:45:15.906Z</time></trkpt><trkpt lat="44.748095" lon="7.8069277"><ele>276.0</ele><time>2026-04-10T07:45:17.899Z</time></trkpt><trkpt lat="44.7482441" lon="7.8068805"><ele>276.0</ele><time>2026-04-10T07:45:20.745Z</time></trkpt><trkpt lat="44.7483863" lon="7.8068236"><ele>276.0</ele><time>2026-04-10T07:45:23.737Z</time></trkpt><trkpt lat="44.7484784" lon="7.8067872"><ele>276.0</ele><time>2026-04-10T07:45:25.728Z</time></trkpt><trkpt lat="44.7485673" lon="7.8067569"><ele>276.0</ele><time>2026-04-10T07:45:27.727Z</time></trkpt><trkpt lat="44.7486784" lon="7.8067369"><ele>276.0</ele><time>2026-04-10T07:45:30.734Z</time></trkpt><trkpt lat="44.7487468" lon="7.8068076"><ele>276.0</ele><time>2026-04-10T07:45:33.721Z</time></trkpt><trkpt lat="44.7487989" lon="7.8068614"><ele>276.0</ele><time>2026-04-10T07:45:35.752Z</time></trkpt><trkpt lat="44.7488609" lon="7.8069239"><ele>276.0</ele><time>2026-04-10T07:45:37.75Z</time></trkpt><trkpt lat="44.7489349" lon="7.8070056"><ele>276.0</ele><time>2026-04-10T07:45:39.721Z</time></trkpt><trkpt lat="44.7490156" lon="7.8070898"><ele>276.40000000000003</ele><time>2026-04-10T07:45:41.751Z</time></trkpt><trkpt lat="44.7491006" lon="7.8071674"><ele>276.8</ele><time>2026-04-10T07:45:43.753Z</time></trkpt><trkpt lat="44.7491851" lon="7.807237"><ele>277.20000000000005</ele><time>2026-04-10T07:45:45.731Z</time></trkpt><trkpt lat="44.7492649" lon="7.8073038"><ele>277.6</ele><time>2026-04-10T07:45:47.733Z</time></trkpt><trkpt lat="44.7493466" lon="7.8073727"><ele>278.0</ele><time>2026-04-10T07:45:49.742Z</time></trkpt><trkpt lat="44.7494256" lon="7.8074442"><ele>278.5</ele><time>2026-04-10T07:45:51.918Z</time></trkpt><trkpt lat="44.7494939" lon="7.8075115"><ele>279.0</ele><time>2026-04-10T07:45:53.924Z</time></trkpt><trkpt lat="44.7495519" lon="7.8075985"><ele>279.5</ele><time>2026-04-10T07:45:55.95Z</time></trkpt><trkpt lat="44.7495812" lon="7.8077025"><ele>280.0</ele><time>2026-04-10T07:45:57.958Z</time></trkpt><trkpt lat="44.7495417" lon="7.807817"><ele>280.5</ele><time>2026-04-10T07:45:59.738Z</time></trkpt><trkpt lat="44.7494942" lon="7.8079029"><ele>281.0</ele><time>2026-04-10T07:46:01.692Z</time></trkpt><trkpt lat="44.7494494" lon="7.8079857"><ele>281.0</ele><time>2026-04-10T07:46:03.728Z</time></trkpt><trkpt lat="44.7494134" lon="7.8080666"><ele>281.0</ele><time>2026-04-10T07:46:05.698Z</time></trkpt><trkpt lat="44.7493813" lon="7.8081843"><ele>281.0</ele><time>2026-04-10T07:46:08.734Z</time></trkpt><trkpt lat="44.7493625" lon="7.8083036"><ele>281.0</ele><time>2026-04-10T07:46:11.723Z</time></trkpt><trkpt lat="44.7493498" lon="7.8084034"><ele>281.0</ele><time>2026-04-10T07:46:15.731Z</time></trkpt><trkpt lat="44.7493112" lon="7.8085025"><ele>281.0</ele><time>2026-04-10T07:46:21.866Z</time></trkpt><trkpt lat="44.7492913" lon="7.8085974"><ele>281.00000000000006</ele><time>2026-04-10T07:46:25.712Z</time></trkpt><trkpt lat="44.7492697" lon="7.8086966"><ele>281.0</ele><time>2026-04-10T07:46:28.726Z</time></trkpt><trkpt lat="44.7492345" lon="7.8087744"><ele>281.0</ele><time>2026-04-10T07:46:30.729Z</time></trkpt><trkpt lat="44.7492087" lon="7.8088573"><ele>281.0</ele><time>2026-04-10T07:46:32.719Z</time></trkpt><trkpt lat="44.749181" lon="7.8089509"><ele>281.0</ele><time>2026-04-10T07:46:34.718Z</time></trkpt><trkpt lat="44.7491466" lon="7.8090393"><ele>281.00000000000006</ele><time>2026-04-10T07:46:36.716Z</time></trkpt><trkpt lat="44.7491221" lon="7.8091443"><ele>281.0</ele><time>2026-04-10T07:46:38.908Z</time></trkpt><trkpt lat="44.7490945" lon="7.8092614"><ele>281.0</ele><time>2026-04-10T07:46:40.911Z</time></trkpt><trkpt lat="44.7490684" lon="7.8093956"><ele>281.0</ele><time>2026-04-10T07:46:42.887Z</time></trkpt><trkpt lat="44.7490438" lon="7.809533"><ele>281.0</ele><time>2026-04-10T07:46:44.695Z</time></trkpt><trkpt lat="44.7490257" lon="7.8096708"><ele>281.0</ele><time>2026-04-10T07:46:46.932Z</time></trkpt><trkpt lat="44.7490065" lon="7.8098094"><ele>281.0</ele><time>2026-04-10T07:46:48.966Z</time></trkpt><trkpt lat="44.7489946" lon="7.8099507"><ele>281.0</ele><time>2026-04-10T07:46:50.749Z</time></trkpt><trkpt lat="44.7489779" lon="7.8100884"><ele>281.0</ele><time>2026-04-10T07:46:52.93Z</time></trkpt><trkpt lat="44.7489593" lon="7.8102198"><ele>281.0</ele><time>2026-04-10T07:46:54.736Z</time></trkpt><trkpt lat="44.7489558" lon="7.8103432"><ele>281.0</ele><time>2026-04-10T07:46:56.766Z</time></trkpt><trkpt lat="44.7489119" lon="7.8105429"><ele>281.0</ele><time>2026-04-10T07:46:59.725Z</time></trkpt><trkpt lat="44.7488535" lon="7.8107516"><ele>281.6</ele><time>2026-04-10T07:47:02.924Z</time></trkpt><trkpt lat="44.748803" lon="7.8109505"><ele>282.20000000000005</ele><time>2026-04-10T07:47:05.712Z</time></trkpt><trkpt lat="44.7487594" lon="7.8110782"><ele>282.79999999999995</ele><time>2026-04-10T07:47:07.663Z</time></trkpt><trkpt lat="44.7487136" lon="7.8111906"><ele>283.4</ele><time>2026-04-10T07:47:09.681Z</time></trkpt><trkpt lat="44.7486776" lon="7.8113106"><ele>284.0</ele><time>2026-04-10T07:47:11.685Z</time></trkpt><trkpt lat="44.7486489" lon="7.8114344"><ele>284.59999999999997</ele><time>2026-04-10T07:47:13.661Z</time></trkpt><trkpt lat="44.7486159" lon="7.8115604"><ele>285.2</ele><time>2026-04-10T07:47:15.669Z</time></trkpt><trkpt lat="44.7485809" lon="7.8116955"><ele>285.79999999999995</ele><time>2026-04-10T07:47:17.658Z</time></trkpt><trkpt lat="44.7485612" lon="7.8118365"><ele>286.4</ele><time>2026-04-10T07:47:19.733Z</time></trkpt><trkpt lat="44.7485279" lon="7.8119716"><ele>287.0</ele><time>2026-04-10T07:47:21.743Z</time></trkpt><trkpt lat="44.7484988" lon="7.812091"><ele>287.0</ele><time>2026-04-10T07:47:23.729Z</time></trkpt><trkpt lat="44.7484771" lon="7.8122083"><ele>287.0</ele><time>2026-04-10T07:47:25.731Z</time></trkpt><trkpt lat="44.7484551" lon="7.8123215"><ele>287.0</ele><time>2026-04-10T07:47:27.749Z</time></trkpt><trkpt lat="44.74843" lon="7.8124292"><ele>287.0</ele><time>2026-04-10T07:47:29.74Z</time></trkpt><trkpt lat="44.7484034" lon="7.8125279"><ele>287.0</ele><time>2026-04-10T07:47:31.739Z</time></trkpt><trkpt lat="44.7483751" lon="7.8126223"><ele>287.0</ele><time>2026-04-10T07:47:33.733Z</time></trkpt><trkpt lat="44.7483435" lon="7.812714"><ele>287.2857142857143</ele><time>2026-04-10T07:47:35.741Z</time></trkpt><trkpt lat="44.7483215" lon="7.8128161"><ele>287.57142857142856</ele><time>2026-04-10T07:47:37.729Z</time></trkpt><trkpt lat="44.7482922" lon="7.8129146"><ele>287.8571428571429</ele><time>2026-04-10T07:47:39.691Z</time></trkpt><trkpt lat="44.7482638" lon="7.8130022"><ele>288.1428571428571</ele><time>2026-04-10T07:47:41.671Z</time></trkpt><trkpt lat="44.7482315" lon="7.8130903"><ele>288.42857142857144</ele><time>2026-04-10T07:47:43.9Z</time></trkpt><trkpt lat="44.7482056" lon="7.8131821"><ele>288.7142857142857</ele><time>2026-04-10T07:47:45.737Z</time></trkpt><trkpt lat="44.7481801" lon="7.8132702"><ele>289.0</ele><time>2026-04-10T07:47:47.927Z</time></trkpt><trkpt lat="44.7481508" lon="7.8133568"><ele>289.0</ele><time>2026-04-10T07:47:49.728Z</time></trkpt><trkpt lat="44.7481312" lon="7.8134464"><ele>289.0</ele><time>2026-04-10T07:47:51.919Z</time></trkpt><trkpt lat="44.74811" lon="7.8135558"><ele>289.0</ele><time>2026-04-10T07:47:53.902Z</time></trkpt><trkpt lat="44.748088" lon="7.8136613"><ele>289.0</ele><time>2026-04-10T07:47:55.92Z</time></trkpt><trkpt lat="44.7480578" lon="7.8138343"><ele>289.0</ele><time>2026-04-10T07:47:58.673Z</time></trkpt><trkpt lat="44.7480405" lon="7.8139592"><ele>289.0</ele><time>2026-04-10T07:48:00.727Z</time></trkpt><trkpt lat="44.7480213" lon="7.8140717"><ele>288.75</ele><time>2026-04-10T07:48:02.703Z</time></trkpt><trkpt lat="44.7479814" lon="7.8142598"><ele>288.5</ele><time>2026-04-10T07:48:05.668Z</time></trkpt><trkpt lat="44.7479534" lon="7.8143986"><ele>288.25</ele><time>2026-04-10T07:48:07.745Z</time></trkpt><trkpt lat="44.7479508" lon="7.8145484"><ele>288.0</ele><time>2026-04-10T07:48:09.73Z</time></trkpt><trkpt lat="44.7479545" lon="7.8147086"><ele>288.6</ele><time>2026-04-10T07:48:11.731Z</time></trkpt><trkpt lat="44.7479568" lon="7.8149634"><ele>289.20000000000005</ele><time>2026-04-10T07:48:14.698Z</time></trkpt><trkpt lat="44.7479614" lon="7.8150541"><ele>289.8</ele><time>2026-04-10T07:48:15.755Z</time></trkpt><trkpt lat="44.747969" lon="7.8151428"><ele>290.40000000000003</ele><time>2026-04-10T07:48:16.739Z</time></trkpt><trkpt lat="44.7479871" lon="7.8153162"><ele>291.0</ele><time>2026-04-10T07:48:18.728Z</time></trkpt><trkpt lat="44.7480048" lon="7.8154843"><ele>291.25</ele><time>2026-04-10T07:48:20.941Z</time></trkpt><trkpt lat="44.7480098" lon="7.8156546"><ele>291.5</ele><time>2026-04-10T07:48:22.937Z</time></trkpt><trkpt lat="44.7479848" lon="7.8158924"><ele>291.75</ele><time>2026-04-10T07:48:25.728Z</time></trkpt><trkpt lat="44.7479609" lon="7.8160418"><ele>292.0</ele><time>2026-04-10T07:48:27.948Z</time></trkpt><trkpt lat="44.7479229" lon="7.8162544"><ele>292.0</ele><time>2026-04-10T07:48:30.724Z</time></trkpt><trkpt lat="44.747898" lon="7.8163806"><ele>292.0</ele><time>2026-04-10T07:48:32.884Z</time></trkpt><trkpt lat="44.7478661" lon="7.8165793"><ele>292.0</ele><time>2026-04-10T07:48:35.665Z</time></trkpt><trkpt lat="44.7478492" lon="7.8166937"><ele>292.0</ele><time>2026-04-10T07:48:37.638Z</time></trkpt><trkpt lat="44.7478274" lon="7.8168166"><ele>292.0</ele><time>2026-04-10T07:48:40.681Z</time></trkpt><trkpt lat="44.7478193" lon="7.8169086"><ele>292.3333333333333</ele><time>2026-04-10T07:48:42.637Z</time></trkpt><trkpt lat="44.7478091" lon="7.8169976"><ele>292.66666666666663</ele><time>2026-04-10T07:48:44.679Z</time></trkpt><trkpt lat="44.7477856" lon="7.817103"><ele>293.0</ele><time>2026-04-10T07:48:46.649Z</time></trkpt><trkpt lat="44.7477661" lon="7.817231"><ele>293.3333333333333</ele><time>2026-04-10T07:48:48.657Z</time></trkpt><trkpt lat="44.7477506" lon="7.8173446"><ele>293.6666666666667</ele><time>2026-04-10T07:48:50.736Z</time></trkpt><trkpt lat="44.7477191" lon="7.8174554"><ele>294.0</ele><time>2026-04-10T07:48:52.649Z</time></trkpt><trkpt lat="44.7476907" lon="7.8175532"><ele>292.6666666666667</ele><time>2026-04-10T07:48:54.668Z</time></trkpt><trkpt lat="44.7476411" lon="7.8176438"><ele>291.3333333333333</ele><time>2026-04-10T07:48:56.644Z</time></trkpt><trkpt lat="44.7475846" lon="7.8177255"><ele>290.0</ele><time>2026-04-10T07:48:58.665Z</time></trkpt><trkpt lat="44.7475389" lon="7.8178291"><ele>288.66666666666663</ele><time>2026-04-10T07:49:00.655Z</time></trkpt><trkpt lat="44.7474945" lon="7.8179231"><ele>287.3333333333333</ele><time>2026-04-10T07:49:02.658Z</time></trkpt><trkpt lat="44.7474519" lon="7.8179955"><ele>286.0</ele><time>2026-04-10T07:49:04.696Z</time></trkpt><trkpt lat="44.7474004" lon="7.8180781"><ele>286.0</ele><time>2026-04-10T07:49:06.645Z</time></trkpt><trkpt lat="44.7473384" lon="7.8182005"><ele>286.0</ele><time>2026-04-10T07:49:08.641Z</time></trkpt><trkpt lat="44.747295" lon="7.8183339"><ele>286.0</ele><time>2026-04-10T07:49:10.654Z</time></trkpt><trkpt lat="44.7472541" lon="7.8184396"><ele>286.0</ele><time>2026-04-10T07:49:12.677Z</time></trkpt><trkpt lat="44.7472192" lon="7.8185242"><ele>286.0</ele><time>2026-04-10T07:49:14.657Z</time></trkpt><trkpt lat="44.7471888" lon="7.818613"><ele>286.0</ele><time>2026-04-10T07:49:16.668Z</time></trkpt><trkpt lat="44.7471487" lon="7.818711"><ele>286.8</ele><time>2026-04-10T07:49:18.686Z</time></trkpt><trkpt lat="44.747122" lon="7.8188131"><ele>287.6</ele><time>2026-04-10T07:49:20.736Z</time></trkpt><trkpt lat="44.7470925" lon="7.8189335"><ele>288.4</ele><time>2026-04-10T07:49:22.747Z</time></trkpt><trkpt lat="44.7470446" lon="7.8190417"><ele>289.2</ele><time>2026-04-10T07:49:24.646Z</time></trkpt><trkpt lat="44.7469989" lon="7.8191638"><ele>290.0</ele><time>2026-04-10T07:49:26.726Z</time></trkpt><trkpt lat="44.7469875" lon="7.8193059"><ele>290.57142857142856</ele><time>2026-04-10T07:49:28.779Z</time></trkpt><trkpt lat="44.7470055" lon="7.8194184"><ele>291.14285714285717</ele><time>2026-04-10T07:49:30.697Z</time></trkpt><trkpt lat="44.7470259" lon="7.8195149"><ele>291.7142857142857</ele><time>2026-04-10T07:49:33.732Z</time></trkpt><trkpt lat="44.7470798" lon="7.819562"><ele>292.2857142857143</ele><time>2026-04-10T07:50:09.638Z</time></trkpt><trkpt lat="44.7471631" lon="7.8195762"><ele>292.8571428571429</ele><time>2026-04-10T07:50:13.662Z</time></trkpt><trkpt lat="44.7472347" lon="7.8195895"><ele>293.42857142857144</ele><time>2026-04-10T07:50:16.73Z</time></trkpt><trkpt lat="44.7472992" lon="7.8196109"><ele>294.0</ele><time>2026-04-10T07:50:19.637Z</time></trkpt><trkpt lat="44.7473675" lon="7.8196729"><ele>294.0</ele><time>2026-04-10T07:50:23.648Z</time></trkpt><trkpt lat="44.74742" lon="7.8197335"><ele>294.0</ele><time>2026-04-10T07:50:26.7Z</time></trkpt><trkpt lat="44.7474565" lon="7.8198241"><ele>294.0</ele><time>2026-04-10T07:50:30.661Z</time></trkpt><trkpt lat="44.7474838" lon="7.8199269"><ele>294.0</ele><time>2026-04-10T07:50:37.643Z</time></trkpt><trkpt lat="44.7475333" lon="7.8200086"><ele>294.0</ele><time>2026-04-10T07:50:42.65Z</time></trkpt><trkpt lat="44.7475729" lon="7.8200913"><ele>294.0</ele><time>2026-04-10T07:50:46.64Z</time></trkpt><trkpt lat="44.7476109" lon="7.8201625"><ele>294.0</ele><time>2026-04-10T07:50:49.659Z</time></trkpt><trkpt lat="44.7476678" lon="7.8202491"><ele>295.14285714285717</ele><time>2026-04-10T07:50:53.746Z</time></trkpt><trkpt lat="44.7477279" lon="7.8203152"><ele>296.2857142857143</ele><time>2026-04-10T07:50:57.644Z</time></trkpt><trkpt lat="44.7477855" lon="7.8203782"><ele>297.42857142857144</ele><time>2026-04-10T07:51:01.654Z</time></trkpt><trkpt lat="44.7478373" lon="7.8204349"><ele>298.57142857142856</ele><time>2026-04-10T07:51:04.658Z</time></trkpt><trkpt lat="44.7478965" lon="7.8204825"><ele>299.7142857142857</ele><time>2026-04-10T07:51:07.646Z</time></trkpt><trkpt lat="44.7479625" lon="7.8205144"><ele>300.8571428571429</ele><time>2026-04-10T07:51:10.646Z</time></trkpt><trkpt lat="44.7480319" lon="7.8205436"><ele>302.0</ele><time>2026-04-10T07:51:13.651Z</time></trkpt><trkpt lat="44.7480996" lon="7.8205612"><ele>302.00000000000006</ele><time>2026-04-10T07:51:17.66Z</time></trkpt><trkpt lat="44.7481842" lon="7.8205597"><ele>302.0</ele><time>2026-04-10T07:51:21.655Z</time></trkpt><trkpt lat="44.7482472" lon="7.8205599"><ele>302.0</ele><time>2026-04-10T07:51:24.636Z</time></trkpt><trkpt lat="44.7483264" lon="7.8205768"><ele>302.0</ele><time>2026-04-10T07:51:28.658Z</time></trkpt><trkpt lat="44.7484033" lon="7.8205936"><ele>302.0</ele><time>2026-04-10T07:51:32.657Z</time></trkpt><trkpt lat="44.7484665" lon="7.8206106"><ele>302.00000000000006</ele><time>2026-04-10T07:51:35.658Z</time></trkpt><trkpt lat="44.7485346" lon="7.8206467"><ele>302.0</ele><time>2026-04-10T07:51:39.643Z</time></trkpt><trkpt lat="44.748596" lon="7.8206688"><ele>303.5714285714286</ele><time>2026-04-10T07:51:43.664Z</time></trkpt><trkpt lat="44.7486709" lon="7.8206955"><ele>305.14285714285717</ele><time>2026-04-10T07:51:47.645Z</time></trkpt><trkpt lat="44.7487354" lon="7.8207286"><ele>306.7142857142857</ele><time>2026-04-10T07:51:51.651Z</time></trkpt><trkpt lat="44.7488106" lon="7.8207658"><ele>308.28571428571433</ele><time>2026-04-10T07:51:55.656Z</time></trkpt><trkpt lat="44.7488703" lon="7.8208053"><ele>309.8571428571429</ele><time>2026-04-10T07:52:00.657Z</time></trkpt><trkpt lat="44.7489299" lon="7.820852"><ele>311.42857142857144</ele><time>2026-04-10T07:52:03.655Z</time></trkpt><trkpt lat="44.748998" lon="7.820846"><ele>313.0</ele><time>2026-04-10T07:52:07.657Z</time></trkpt><trkpt lat="44.7490635" lon="7.8208878"><ele>313.0</ele><time>2026-04-10T07:52:12.642Z</time></trkpt><trkpt lat="44.7491024" lon="7.8209781"><ele>313.0</ele><time>2026-04-10T07:52:16.686Z</time></trkpt><trkpt lat="44.7491587" lon="7.8210222"><ele>313.0</ele><time>2026-04-10T07:52:19.635Z</time></trkpt><trkpt lat="44.7492143" lon="7.8210701"><ele>313.0</ele><time>2026-04-10T07:52:22.647Z</time></trkpt><trkpt lat="44.7492777" lon="7.8211115"><ele>313.0</ele><time>2026-04-10T07:52:26.666Z</time></trkpt><trkpt lat="44.7493496" lon="7.821145"><ele>313.0</ele><time>2026-04-10T07:52:31.656Z</time></trkpt><trkpt lat="44.749413" lon="7.8211873"><ele>313.0</ele><time>2026-04-10T07:52:35.647Z</time></trkpt><trkpt lat="44.7494735" lon="7.8212375"><ele>314.85714285714283</ele><time>2026-04-10T07:52:39.655Z</time></trkpt><trkpt lat="44.749537" lon="7.8212784"><ele>316.7142857142857</ele><time>2026-04-10T07:52:43.684Z</time></trkpt><trkpt lat="44.7496057" lon="7.8213148"><ele>318.57142857142856</ele><time>2026-04-10T07:52:48.739Z</time></trkpt><trkpt lat="44.7496752" lon="7.8213536"><ele>320.42857142857144</ele><time>2026-04-10T07:52:52.675Z</time></trkpt><trkpt lat="44.7497554" lon="7.8213729"><ele>322.2857142857143</ele><time>2026-04-10T07:52:57.646Z</time></trkpt><trkpt lat="44.7498288" lon="7.8214042"><ele>324.14285714285717</ele><time>2026-04-10T07:53:02.673Z</time></trkpt><trkpt lat="44.7499006" lon="7.8214181"><ele>326.0</ele><time>2026-04-10T07:53:06.663Z</time></trkpt><trkpt lat="44.7499576" lon="7.8214574"><ele>326.0</ele><time>2026-04-10T07:53:10.672Z</time></trkpt><trkpt lat="44.7500235" lon="7.821495"><ele>326.0</ele><time>2026-04-10T07:53:14.656Z</time></trkpt><trkpt lat="44.7500879" lon="7.8215255"><ele>326.0</ele><time>2026-04-10T07:53:18.664Z</time></trkpt><trkpt lat="44.7501461" lon="7.8215596"><ele>326.0</ele><time>2026-04-10T07:53:22.651Z</time></trkpt><trkpt lat="44.7502094" lon="7.8216144"><ele>326.0</ele><time>2026-04-10T07:53:27.655Z</time></trkpt><trkpt lat="44.7502617" lon="7.8216884"><ele>326.0</ele><time>2026-04-10T07:53:32.653Z</time></trkpt><trkpt lat="44.7503133" lon="7.821766"><ele>326.0</ele><time>2026-04-10T07:53:36.687Z</time></trkpt><trkpt lat="44.7503626" lon="7.8218354"><ele>326.8571428571429</ele><time>2026-04-10T07:53:40.692Z</time></trkpt><trkpt lat="44.750396" lon="7.8219219"><ele>327.71428571428567</ele><time>2026-04-10T07:53:45.701Z</time></trkpt><trkpt lat="44.7504256" lon="7.8220029"><ele>328.57142857142856</ele><time>2026-04-10T07:53:53.706Z</time></trkpt><trkpt lat="44.7503979" lon="7.8221111"><ele>329.42857142857144</ele><time>2026-04-10T07:54:45.68Z</time></trkpt><trkpt lat="44.7503386" lon="7.8221847"><ele>330.28571428571433</ele><time>2026-04-10T07:54:49.675Z</time></trkpt><trkpt lat="44.7502897" lon="7.8222622"><ele>331.1428571428571</ele><time>2026-04-10T07:54:53.683Z</time></trkpt><trkpt lat="44.7502695" lon="7.8223587"><ele>332.0</ele><time>2026-04-10T07:54:58.653Z</time></trkpt><trkpt lat="44.7502742" lon="7.8224504"><ele>332.0</ele><time>2026-04-10T07:55:03.655Z</time></trkpt><trkpt lat="44.7503028" lon="7.8225407"><ele>332.0</ele><time>2026-04-10T07:55:07.689Z</time></trkpt><trkpt lat="44.7503218" lon="7.82263"><ele>332.0</ele><time>2026-04-10T07:55:11.679Z</time></trkpt><trkpt lat="44.7503317" lon="7.8227213"><ele>332.0</ele><time>2026-04-10T07:55:15.675Z</time></trkpt><trkpt lat="44.7502987" lon="7.8228009"><ele>332.0</ele><time>2026-04-10T07:55:19.67Z</time></trkpt><trkpt lat="44.7502516" lon="7.822885"><ele>332.0</ele><time>2026-04-10T07:55:24.667Z</time></trkpt><trkpt lat="44.7502069" lon="7.8229509"><ele>332.0</ele><time>2026-04-10T07:55:29.651Z</time></trkpt><trkpt lat="44.7501508" lon="7.8229962"><ele>332.1428571428571</ele><time>2026-04-10T07:55:33.684Z</time></trkpt><trkpt lat="44.7501335" lon="7.8230902"><ele>332.28571428571433</ele><time>2026-04-10T07:55:39.664Z</time></trkpt><trkpt lat="44.7501013" lon="7.8231886"><ele>332.42857142857144</ele><time>2026-04-10T07:55:45.656Z</time></trkpt><trkpt lat="44.7501172" lon="7.8232772"><ele>332.57142857142856</ele><time>2026-04-10T07:55:49.647Z</time></trkpt><trkpt lat="44.7501548" lon="7.823372"><ele>332.71428571428567</ele><time>2026-04-10T07:55:54.65Z</time></trkpt><trkpt lat="44.7501996" lon="7.823446"><ele>332.8571428571429</ele><time>2026-04-10T07:56:00.672Z</time></trkpt><trkpt lat="44.7502643" lon="7.823493"><ele>333.0</ele><time>2026-04-10T07:56:06.671Z</time></trkpt><trkpt lat="44.7503273" lon="7.823509"><ele>334.14285714285717</ele><time>2026-04-10T07:56:10.676Z</time></trkpt><trkpt lat="44.750397" lon="7.8235453"><ele>335.2857142857143</ele><time>2026-04-10T07:56:15.677Z</time></trkpt><trkpt lat="44.7504607" lon="7.8235378"><ele>336.42857142857144</ele><time>2026-04-10T07:56:20.667Z</time></trkpt><trkpt lat="44.75053" lon="7.8235352"><ele>337.57142857142856</ele><time>2026-04-10T07:56:24.671Z</time></trkpt><trkpt lat="44.7506033" lon="7.8235098"><ele>338.7142857142857</ele><time>2026-04-10T07:56:29.656Z</time></trkpt><trkpt lat="44.7506729" lon="7.8235041"><ele>339.85714285714283</ele><time>2026-04-10T07:56:34.657Z</time></trkpt><trkpt lat="44.7507477" lon="7.8235016"><ele>341.0</ele><time>2026-04-10T07:56:39.673Z</time></trkpt><trkpt lat="44.7508199" lon="7.8235247"><ele>341.0</ele><time>2026-04-10T07:56:45.65Z</time></trkpt><trkpt lat="44.750893" lon="7.823515"><ele>341.0</ele><time>2026-04-10T07:56:51.658Z</time></trkpt><trkpt lat="44.7509518" lon="7.8234533"><ele>341.0</ele><time>2026-04-10T07:56:56.665Z</time></trkpt><trkpt lat="44.7510094" lon="7.8234016"><ele>341.0</ele><time>2026-04-10T07:57:00.651Z</time></trkpt><trkpt lat="44.7510799" lon="7.8233549"><ele>341.0</ele><time>2026-04-10T07:57:04.711Z</time></trkpt><trkpt lat="44.7511495" lon="7.8233175"><ele>341.0</ele><time>2026-04-10T07:57:08.652Z</time></trkpt><trkpt lat="44.7512109" lon="7.8232886"><ele>341.0</ele><time>2026-04-10T07:57:11.664Z</time></trkpt><trkpt lat="44.7512713" lon="7.8233231"><ele>341.0</ele><time>2026-04-10T07:57:15.655Z</time></trkpt><trkpt lat="44.7512256" lon="7.8234062"><ele>341.0</ele><time>2026-04-10T07:57:18.661Z</time></trkpt><trkpt lat="44.7511813" lon="7.823518"><ele>341.0</ele><time>2026-04-10T07:57:21.651Z</time></trkpt><trkpt lat="44.7511281" lon="7.8236328"><ele>341.0</ele><time>2026-04-10T07:57:24.651Z</time></trkpt><trkpt lat="44.7510921" lon="7.823713"><ele>341.0</ele><time>2026-04-10T07:57:26.648Z</time></trkpt><trkpt lat="44.7510504" lon="7.8237955"><ele>341.0</ele><time>2026-04-10T07:57:28.645Z</time></trkpt><trkpt lat="44.7510056" lon="7.8238863"><ele>341.0</ele><time>2026-04-10T07:57:30.654Z</time></trkpt><trkpt lat="44.7509542" lon="7.8239834"><ele>341.0</ele><time>2026-04-10T07:57:32.65Z</time></trkpt><trkpt lat="44.750901" lon="7.8240816"><ele>341.0</ele><time>2026-04-10T07:57:34.661Z</time></trkpt><trkpt lat="44.7508467" lon="7.8241966"><ele>341.0</ele><time>2026-04-10T07:57:36.671Z</time></trkpt><trkpt lat="44.7507953" lon="7.8243082"><ele>341.0</ele><time>2026-04-10T07:57:38.659Z</time></trkpt><trkpt lat="44.750741" lon="7.8244213"><ele>340.8</ele><time>2026-04-10T07:57:40.666Z</time></trkpt><trkpt lat="44.7506846" lon="7.8245363"><ele>340.6</ele><time>2026-04-10T07:57:42.661Z</time></trkpt><trkpt lat="44.7506366" lon="7.8246457"><ele>340.4</ele><time>2026-04-10T07:57:44.668Z</time></trkpt><trkpt lat="44.75058" lon="7.8247497"><ele>340.2</ele><time>2026-04-10T07:57:46.682Z</time></trkpt><trkpt lat="44.7505251" lon="7.8248689"><ele>340.0</ele><time>2026-04-10T07:57:48.729Z</time></trkpt><trkpt lat="44.7504729" lon="7.8249775"><ele>340.0</ele><time>2026-04-10T07:57:50.65Z</time></trkpt><trkpt lat="44.7504291" lon="7.8250673"><ele>340.0</ele><time>2026-04-10T07:57:52.674Z</time></trkpt><trkpt lat="44.7503847" lon="7.8251561"><ele>340.0</ele><time>2026-04-10T07:57:54.662Z</time></trkpt><trkpt lat="44.7503409" lon="7.8252473"><ele>340.0</ele><time>2026-04-10T07:57:56.669Z</time></trkpt><trkpt lat="44.7502897" lon="7.8253451"><ele>340.0</ele><time>2026-04-10T07:57:58.683Z</time></trkpt><trkpt lat="44.7502444" lon="7.8254381"><ele>340.0</ele><time>2026-04-10T07:58:00.666Z</time></trkpt><trkpt lat="44.750191" lon="7.8255278"><ele>340.0</ele><time>2026-04-10T07:58:02.648Z</time></trkpt><trkpt lat="44.7501376" lon="7.8256222"><ele>340.0</ele><time>2026-04-10T07:58:04.666Z</time></trkpt><trkpt lat="44.7500823" lon="7.8257153"><ele>340.0</ele><time>2026-04-10T07:58:06.656Z</time></trkpt><trkpt lat="44.7500296" lon="7.8258128"><ele>340.0</ele><time>2026-04-10T07:58:08.672Z</time></trkpt><trkpt lat="44.7499797" lon="7.8259162"><ele>340.0</ele><time>2026-04-10T07:58:10.677Z</time></trkpt><trkpt lat="44.7499269" lon="7.8260193"><ele>340.0</ele><time>2026-04-10T07:58:12.669Z</time></trkpt><trkpt lat="44.7498711" lon="7.8261195"><ele>340.0</ele><time>2026-04-10T07:58:14.68Z</time></trkpt><trkpt lat="44.7498178" lon="7.8262184"><ele>340.0</ele><time>2026-04-10T07:58:16.698Z</time></trkpt><trkpt lat="44.749771" lon="7.8263146"><ele>340.0</ele><time>2026-04-10T07:58:18.669Z</time></trkpt><trkpt lat="44.7497182" lon="7.8264014"><ele>340.0</ele><time>2026-04-10T07:58:20.671Z</time></trkpt><trkpt lat="44.749667" lon="7.8264882"><ele>340.0</ele><time>2026-04-10T07:58:22.684Z</time></trkpt><trkpt lat="44.7496152" lon="7.8265771"><ele>340.0</ele><time>2026-04-10T07:58:24.704Z</time></trkpt><trkpt lat="44.7495672" lon="7.8266627"><ele>340.0</ele><time>2026-04-10T07:58:26.659Z</time></trkpt><trkpt lat="44.7495152" lon="7.8267499"><ele>340.0</ele><time>2026-04-10T07:58:28.659Z</time></trkpt><trkpt lat="44.7494596" lon="7.8268406"><ele>340.0</ele><time>2026-04-10T07:58:30.679Z</time></trkpt><trkpt lat="44.7494059" lon="7.8269276"><ele>340.0</ele><time>2026-04-10T07:58:32.65Z</time></trkpt><trkpt lat="44.7493534" lon="7.8270146"><ele>340.0</ele><time>2026-04-10T07:58:34.669Z</time></trkpt><trkpt lat="44.7492973" lon="7.8270922"><ele>340.0</ele><time>2026-04-10T07:58:36.679Z</time></trkpt><trkpt lat="44.7492516" lon="7.8271753"><ele>340.8571428571429</ele><time>2026-04-10T07:58:38.66Z</time></trkpt><trkpt lat="44.7492105" lon="7.8272541"><ele>341.71428571428567</ele><time>2026-04-10T07:58:40.68Z</time></trkpt><trkpt lat="44.7491662" lon="7.8273286"><ele>342.57142857142856</ele><time>2026-04-10T07:58:42.651Z</time></trkpt><trkpt lat="44.749125" lon="7.8274036"><ele>343.42857142857144</ele><time>2026-04-10T07:58:44.662Z</time></trkpt><trkpt lat="44.7490845" lon="7.8274741"><ele>344.28571428571433</ele><time>2026-04-10T07:58:46.678Z</time></trkpt><trkpt lat="44.7490383" lon="7.8275478"><ele>345.1428571428571</ele><time>2026-04-10T07:58:48.692Z</time></trkpt><trkpt lat="44.7489957" lon="7.8276213"><ele>346.0</ele><time>2026-04-10T07:58:50.694Z</time></trkpt><trkpt lat="44.7489408" lon="7.8276907"><ele>346.0</ele><time>2026-04-10T07:58:52.675Z</time></trkpt><trkpt lat="44.7488838" lon="7.827764"><ele>346.0</ele><time>2026-04-10T07:58:54.651Z</time></trkpt><trkpt lat="44.7488209" lon="7.8278351"><ele>346.0</ele><time>2026-04-10T07:58:56.674Z</time></trkpt><trkpt lat="44.7487603" lon="7.8279059"><ele>346.0</ele><time>2026-04-10T07:58:58.684Z</time></trkpt><trkpt lat="44.7486828" lon="7.8279835"><ele>346.0</ele><time>2026-04-10T07:59:00.657Z</time></trkpt><trkpt lat="44.74861" lon="7.8280647"><ele>346.0</ele><time>2026-04-10T07:59:02.655Z</time></trkpt><trkpt lat="44.7485367" lon="7.8281575"><ele>345.8</ele><time>2026-04-10T07:59:04.671Z</time></trkpt><trkpt lat="44.7484562" lon="7.8282626"><ele>345.6</ele><time>2026-04-10T07:59:06.651Z</time></trkpt><trkpt lat="44.7483881" lon="7.8283732"><ele>345.4</ele><time>2026-04-10T07:59:08.661Z</time></trkpt><trkpt lat="44.7483313" lon="7.8284846"><ele>345.2</ele><time>2026-04-10T07:59:10.66Z</time></trkpt><trkpt lat="44.7482773" lon="7.8285983"><ele>345.0</ele><time>2026-04-10T07:59:12.683Z</time></trkpt><trkpt lat="44.7482329" lon="7.8287172"><ele>345.4</ele><time>2026-04-10T07:59:14.701Z</time></trkpt><trkpt lat="44.7481881" lon="7.8288356"><ele>345.8</ele><time>2026-04-10T07:59:16.706Z</time></trkpt><trkpt lat="44.7481435" lon="7.8289582"><ele>346.20000000000005</ele><time>2026-04-10T07:59:18.679Z</time></trkpt><trkpt lat="44.7481027" lon="7.829077"><ele>346.6</ele><time>2026-04-10T07:59:20.667Z</time></trkpt><trkpt lat="44.7480687" lon="7.8291936"><ele>347.0</ele><time>2026-04-10T07:59:22.698Z</time></trkpt><trkpt lat="44.7480355" lon="7.8293172"><ele>347.5</ele><time>2026-04-10T07:59:24.656Z</time></trkpt><trkpt lat="44.7480006" lon="7.8294465"><ele>348.0</ele><time>2026-04-10T07:59:26.681Z</time></trkpt><trkpt lat="44.7479706" lon="7.8295614"><ele>348.5</ele><time>2026-04-10T07:59:28.685Z</time></trkpt><trkpt lat="44.7479504" lon="7.8296795"><ele>349.0</ele><time>2026-04-10T07:59:30.679Z</time></trkpt><trkpt lat="44.7479401" lon="7.829802"><ele>349.5</ele><time>2026-04-10T07:59:32.665Z</time></trkpt><trkpt lat="44.7479512" lon="7.8299124"><ele>350.0</ele><time>2026-04-10T07:59:34.652Z</time></trkpt><trkpt lat="44.7479909" lon="7.8300201"><ele>350.0</ele><time>2026-04-10T07:59:36.65Z</time></trkpt><trkpt lat="44.7480399" lon="7.8301154"><ele>350.0</ele><time>2026-04-10T07:59:38.668Z</time></trkpt><trkpt lat="44.7480884" lon="7.8302138"><ele>350.0</ele><time>2026-04-10T07:59:40.665Z</time></trkpt><trkpt lat="44.7481152" lon="7.8303232"><ele>350.0</ele><time>2026-04-10T07:59:42.659Z</time></trkpt><trkpt lat="44.7481179" lon="7.8304427"><ele>350.0</ele><time>2026-04-10T07:59:44.686Z</time></trkpt><trkpt lat="44.7481057" lon="7.8305608"><ele>350.0</ele><time>2026-04-10T07:59:46.731Z</time></trkpt><trkpt lat="44.7480935" lon="7.8306745"><ele>350.0</ele><time>2026-04-10T07:59:48.67Z</time></trkpt><trkpt lat="44.7480935" lon="7.8308"><ele>350.0</ele><time>2026-04-10T07:59:50.67Z</time></trkpt><trkpt lat="44.7481132" lon="7.8309178"><ele>350.0</ele><time>2026-04-10T07:59:52.687Z</time></trkpt><trkpt lat="44.7481443" lon="7.8310186"><ele>350.0</ele><time>2026-04-10T07:59:54.69Z</time></trkpt><trkpt lat="44.7481803" lon="7.8311022"><ele>350.0</ele><time>2026-04-10T07:59:56.673Z</time></trkpt><trkpt lat="44.7482136" lon="7.8311915"><ele>350.0</ele><time>2026-04-10T07:59:58.669Z</time></trkpt><trkpt lat="44.7482414" lon="7.8312877"><ele>350.14285714285717</ele><time>2026-04-10T08:00:00.669Z</time></trkpt><trkpt lat="44.7482582" lon="7.8313815"><ele>350.2857142857143</ele><time>2026-04-10T08:00:02.671Z</time></trkpt><trkpt lat="44.7482676" lon="7.8315135"><ele>350.42857142857144</ele><time>2026-04-10T08:00:05.658Z</time></trkpt><trkpt lat="44.7482699" lon="7.8316047"><ele>350.57142857142856</ele><time>2026-04-10T08:00:07.65Z</time></trkpt><trkpt lat="44.7482585" lon="7.8316995"><ele>350.7142857142857</ele><time>2026-04-10T08:00:09.683Z</time></trkpt><trkpt lat="44.7482419" lon="7.8317897"><ele>350.8571428571429</ele><time>2026-04-10T08:00:11.704Z</time></trkpt><trkpt lat="44.7482177" lon="7.8318896"><ele>351.0</ele><time>2026-04-10T08:00:13.664Z</time></trkpt><trkpt lat="44.7481856" lon="7.8319742"><ele>351.42857142857144</ele><time>2026-04-10T08:00:15.679Z</time></trkpt><trkpt lat="44.7481591" lon="7.8320651"><ele>351.8571428571429</ele><time>2026-04-10T08:00:17.665Z</time></trkpt><trkpt lat="44.7481361" lon="7.8321503"><ele>352.28571428571433</ele><time>2026-04-10T08:00:19.68Z</time></trkpt><trkpt lat="44.7481241" lon="7.8322403"><ele>352.7142857142857</ele><time>2026-04-10T08:00:21.667Z</time></trkpt><trkpt lat="44.7481215" lon="7.8323325"><ele>353.1428571428571</ele><time>2026-04-10T08:00:23.693Z</time></trkpt><trkpt lat="44.7481259" lon="7.8324314"><ele>353.5714285714286</ele><time>2026-04-10T08:00:25.672Z</time></trkpt><trkpt lat="44.7481355" lon="7.8325287"><ele>354.0</ele><time>2026-04-10T08:00:27.707Z</time></trkpt><trkpt lat="44.7481438" lon="7.8326241"><ele>354.0</ele><time>2026-04-10T08:00:29.651Z</time></trkpt><trkpt lat="44.7481495" lon="7.8327202"><ele>354.0</ele><time>2026-04-10T08:00:31.68Z</time></trkpt><trkpt lat="44.7481443" lon="7.8328288"><ele>354.0</ele><time>2026-04-10T08:00:33.665Z</time></trkpt><trkpt lat="44.7481345" lon="7.8329536"><ele>354.0</ele><time>2026-04-10T08:00:35.648Z</time></trkpt><trkpt lat="44.7481127" lon="7.8330904"><ele>354.0</ele><time>2026-04-10T08:00:37.646Z</time></trkpt><trkpt lat="44.7480834" lon="7.8332171"><ele>354.0</ele><time>2026-04-10T08:00:39.661Z</time></trkpt><trkpt lat="44.7480625" lon="7.83335"><ele>353.79999999999995</ele><time>2026-04-10T08:00:41.665Z</time></trkpt><trkpt lat="44.7480367" lon="7.8334827"><ele>353.59999999999997</ele><time>2026-04-10T08:00:43.652Z</time></trkpt><trkpt lat="44.7480073" lon="7.8336112"><ele>353.4</ele><time>2026-04-10T08:00:45.651Z</time></trkpt><trkpt lat="44.7479814" lon="7.8337379"><ele>353.2</ele><time>2026-04-10T08:00:47.648Z</time></trkpt><trkpt lat="44.7479574" lon="7.8338657"><ele>353.0</ele><time>2026-04-10T08:00:49.671Z</time></trkpt><trkpt lat="44.7479412" lon="7.8339897"><ele>353.0</ele><time>2026-04-10T08:00:51.697Z</time></trkpt><trkpt lat="44.7479299" lon="7.8341113"><ele>353.0</ele><time>2026-04-10T08:00:53.655Z</time></trkpt><trkpt lat="44.7479262" lon="7.8342318"><ele>353.0</ele><time>2026-04-10T08:00:55.667Z</time></trkpt><trkpt lat="44.747908" lon="7.8343491"><ele>353.0</ele><time>2026-04-10T08:00:57.659Z</time></trkpt><trkpt lat="44.7478684" lon="7.8344532"><ele>353.0</ele><time>2026-04-10T08:00:59.708Z</time></trkpt><trkpt lat="44.7478158" lon="7.8345515"><ele>353.0</ele><time>2026-04-10T08:01:01.69Z</time></trkpt><trkpt lat="44.7477707" lon="7.834649"><ele>353.6666666666667</ele><time>2026-04-10T08:01:03.652Z</time></trkpt><trkpt lat="44.7477343" lon="7.8347631"><ele>354.33333333333337</ele><time>2026-04-10T08:01:05.713Z</time></trkpt><trkpt lat="44.7477022" lon="7.834858"><ele>355.0</ele><time>2026-04-10T08:01:07.68Z</time></trkpt><trkpt lat="44.7476838" lon="7.834943"><ele>355.6666666666667</ele><time>2026-04-10T08:01:09.669Z</time></trkpt><trkpt lat="44.7476605" lon="7.8350557"><ele>356.3333333333333</ele><time>2026-04-10T08:01:12.671Z</time></trkpt><trkpt lat="44.7476229" lon="7.8351799"><ele>357.0</ele><time>2026-04-10T08:01:15.647Z</time></trkpt><trkpt lat="44.747595" lon="7.835262"><ele>357.6666666666667</ele><time>2026-04-10T08:01:17.676Z</time></trkpt><trkpt lat="44.7475433" lon="7.8353704"><ele>358.3333333333333</ele><time>2026-04-10T08:01:20.648Z</time></trkpt><trkpt lat="44.7474663" lon="7.8354365"><ele>359.0</ele><time>2026-04-10T08:01:23.664Z</time></trkpt><trkpt lat="44.7474082" lon="7.8354717"><ele>359.66666666666663</ele><time>2026-04-10T08:01:25.651Z</time></trkpt><trkpt lat="44.7473279" lon="7.8355318"><ele>360.3333333333333</ele><time>2026-04-10T08:01:28.649Z</time></trkpt><trkpt lat="44.7472436" lon="7.8355804"><ele>361.0</ele><time>2026-04-10T08:01:31.654Z</time></trkpt><trkpt lat="44.7471795" lon="7.8356193"><ele>361.0</ele><time>2026-04-10T08:01:33.656Z</time></trkpt><trkpt lat="44.7471166" lon="7.835661"><ele>361.0</ele><time>2026-04-10T08:01:35.657Z</time></trkpt><trkpt lat="44.7470539" lon="7.8356997"><ele>361.0</ele><time>2026-04-10T08:01:37.659Z</time></trkpt><trkpt lat="44.7469927" lon="7.8357415"><ele>361.0</ele><time>2026-04-10T08:01:39.676Z</time></trkpt><trkpt lat="44.7469078" lon="7.835791"><ele>361.0</ele><time>2026-04-10T08:01:42.665Z</time></trkpt><trkpt lat="44.746848" lon="7.8358258"><ele>361.0</ele><time>2026-04-10T08:01:44.645Z</time></trkpt><trkpt lat="44.7467855" lon="7.8358664"><ele>361.0</ele><time>2026-04-10T08:01:46.657Z</time></trkpt><trkpt lat="44.7467258" lon="7.8359019"><ele>361.14285714285717</ele><time>2026-04-10T08:01:48.655Z</time></trkpt><trkpt lat="44.7466693" lon="7.835943"><ele>361.2857142857143</ele><time>2026-04-10T08:01:50.642Z</time></trkpt><trkpt lat="44.7466113" lon="7.8359928"><ele>361.42857142857144</ele><time>2026-04-10T08:01:52.684Z</time></trkpt><trkpt lat="44.7465536" lon="7.8360398"><ele>361.57142857142856</ele><time>2026-04-10T08:01:54.651Z</time></trkpt><trkpt lat="44.7464933" lon="7.8360806"><ele>361.71428571428567</ele><time>2026-04-10T08:01:56.679Z</time></trkpt><trkpt lat="44.7464292" lon="7.83612"><ele>361.85714285714283</ele><time>2026-04-10T08:01:58.68Z</time></trkpt><trkpt lat="44.7463663" lon="7.8361621"><ele>362.0</ele><time>2026-04-10T08:02:00.669Z</time></trkpt><trkpt lat="44.7463049" lon="7.836216"><ele>362.2857142857143</ele><time>2026-04-10T08:02:02.672Z</time></trkpt><trkpt lat="44.7462474" lon="7.8362944"><ele>362.57142857142856</ele><time>2026-04-10T08:02:04.674Z</time></trkpt><trkpt lat="44.746209" lon="7.8363647"><ele>362.8571428571429</ele><time>2026-04-10T08:02:06.669Z</time></trkpt><trkpt lat="44.7461825" lon="7.8364527"><ele>363.1428571428571</ele><time>2026-04-10T08:02:08.659Z</time></trkpt><trkpt lat="44.7461603" lon="7.8365387"><ele>363.42857142857144</ele><time>2026-04-10T08:02:10.679Z</time></trkpt><trkpt lat="44.7461163" lon="7.8366557"><ele>363.7142857142857</ele><time>2026-04-10T08:02:13.669Z</time></trkpt><trkpt lat="44.7460766" lon="7.8367314"><ele>364.0</ele><time>2026-04-10T08:02:15.686Z</time></trkpt><trkpt lat="44.7460246" lon="7.8368428"><ele>364.16666666666663</ele><time>2026-04-10T08:02:18.647Z</time></trkpt><trkpt lat="44.7459946" lon="7.8369229"><ele>364.3333333333333</ele><time>2026-04-10T08:02:20.653Z</time></trkpt><trkpt lat="44.7459544" lon="7.837028"><ele>364.5</ele><time>2026-04-10T08:02:23.685Z</time></trkpt><trkpt lat="44.7459302" lon="7.8371526"><ele>364.6666666666667</ele><time>2026-04-10T08:02:26.664Z</time></trkpt><trkpt lat="44.7459231" lon="7.8372665"><ele>364.83333333333337</ele><time>2026-04-10T08:02:29.664Z</time></trkpt><trkpt lat="44.7459026" lon="7.8373867"><ele>365.0</ele><time>2026-04-10T08:02:32.666Z</time></trkpt><trkpt lat="44.7458701" lon="7.8374941"><ele>365.00000000000006</ele><time>2026-04-10T08:02:35.656Z</time></trkpt><trkpt lat="44.7458135" lon="7.8375796"><ele>365.0</ele><time>2026-04-10T08:02:38.656Z</time></trkpt><trkpt lat="44.7457465" lon="7.8376265"><ele>365.0</ele><time>2026-04-10T08:02:41.664Z</time></trkpt><trkpt lat="44.7456919" lon="7.8376837"><ele>365.0</ele><time>2026-04-10T08:02:45.667Z</time></trkpt><trkpt lat="44.7456249" lon="7.837722"><ele>365.0</ele><time>2026-04-10T08:02:48.66Z</time></trkpt><trkpt lat="44.7455601" lon="7.8377709"><ele>365.00000000000006</ele><time>2026-04-10T08:02:51.687Z</time></trkpt><trkpt lat="44.7454938" lon="7.8378143"><ele>365.0</ele><time>2026-04-10T08:02:54.669Z</time></trkpt><trkpt lat="44.7454302" lon="7.8378537"><ele>364.5714285714286</ele><time>2026-04-10T08:02:59.654Z</time></trkpt><trkpt lat="44.7453709" lon="7.837906"><ele>364.14285714285717</ele><time>2026-04-10T08:06:56.647Z</time></trkpt><trkpt lat="44.7453065" lon="7.8379234"><ele>363.7142857142857</ele><time>2026-04-10T08:07:03.653Z</time></trkpt><trkpt lat="44.7452426" lon="7.8379534"><ele>363.28571428571433</ele><time>2026-04-10T08:07:10.662Z</time></trkpt><trkpt lat="44.7451648" lon="7.8379966"><ele>362.85714285714283</ele><time>2026-04-10T08:07:13.666Z</time></trkpt><trkpt lat="44.7450929" lon="7.8380417"><ele>362.42857142857144</ele><time>2026-04-10T08:07:16.656Z</time></trkpt><trkpt lat="44.7450213" lon="7.83809"><ele>362.0</ele><time>2026-04-10T08:07:19.66Z</time></trkpt><trkpt lat="44.7449575" lon="7.838142"><ele>363.0</ele><time>2026-04-10T08:07:22.657Z</time></trkpt><trkpt lat="44.7448783" lon="7.8381983"><ele>364.0</ele><time>2026-04-10T08:07:25.674Z</time></trkpt><trkpt lat="44.7447978" lon="7.8382454"><ele>365.0</ele><time>2026-04-10T08:07:28.651Z</time></trkpt><trkpt lat="44.7447317" lon="7.8382952"><ele>366.0</ele><time>2026-04-10T08:07:31.67Z</time></trkpt><trkpt lat="44.7446633" lon="7.8383388"><ele>367.0</ele><time>2026-04-10T08:07:34.653Z</time></trkpt><trkpt lat="44.744591" lon="7.8383834"><ele>368.0</ele><time>2026-04-10T08:07:37.666Z</time></trkpt><trkpt lat="44.7445321" lon="7.8384237"><ele>368.0</ele><time>2026-04-10T08:07:39.656Z</time></trkpt><trkpt lat="44.744466" lon="7.83846"><ele>368.0</ele><time>2026-04-10T08:07:41.683Z</time></trkpt><trkpt lat="44.7444018" lon="7.8385004"><ele>368.0</ele><time>2026-04-10T08:07:43.659Z</time></trkpt><trkpt lat="44.7443419" lon="7.8385394"><ele>368.0</ele><time>2026-04-10T08:07:45.664Z</time></trkpt><trkpt lat="44.7442571" lon="7.8385909"><ele>368.0</ele><time>2026-04-10T08:07:48.659Z</time></trkpt><trkpt lat="44.74419" lon="7.838644"><ele>368.0</ele><time>2026-04-10T08:07:51.67Z</time></trkpt><trkpt lat="44.7441119" lon="7.8386429"><ele>367.8571428571429</ele><time>2026-04-10T08:07:54.681Z</time></trkpt><trkpt lat="44.7440485" lon="7.838647"><ele>367.71428571428567</ele><time>2026-04-10T08:07:56.664Z</time></trkpt><trkpt lat="44.7439857" lon="7.838683"><ele>367.57142857142856</ele><time>2026-04-10T08:07:59.641Z</time></trkpt><trkpt lat="44.743915" lon="7.8387325"><ele>367.42857142857144</ele><time>2026-04-10T08:08:02.648Z</time></trkpt><trkpt lat="44.7438526" lon="7.8387914"><ele>367.28571428571433</ele><time>2026-04-10T08:08:05.655Z</time></trkpt><trkpt lat="44.743781" lon="7.8388408"><ele>367.1428571428571</ele><time>2026-04-10T08:08:08.668Z</time></trkpt><trkpt lat="44.7437244" lon="7.8388807"><ele>367.0</ele><time>2026-04-10T08:08:11.651Z</time></trkpt><trkpt lat="44.7436596" lon="7.8389123"><ele>367.0</ele><time>2026-04-10T08:08:14.651Z</time></trkpt><trkpt lat="44.7435882" lon="7.8389483"><ele>367.0</ele><time>2026-04-10T08:08:17.66Z</time></trkpt><trkpt lat="44.7435157" lon="7.8389724"><ele>367.0</ele><time>2026-04-10T08:08:20.643Z</time></trkpt><trkpt lat="44.7434394" lon="7.8389908"><ele>367.0</ele><time>2026-04-10T08:08:23.652Z</time></trkpt><trkpt lat="44.7433547" lon="7.8390022"><ele>367.0</ele><time>2026-04-10T08:08:26.668Z</time></trkpt><trkpt lat="44.7432712" lon="7.8390143"><ele>367.0</ele><time>2026-04-10T08:08:29.639Z</time></trkpt><trkpt lat="44.743189" lon="7.8390305"><ele>367.5</ele><time>2026-04-10T08:08:32.656Z</time></trkpt><trkpt lat="44.7431137" lon="7.8390511"><ele>368.0</ele><time>2026-04-10T08:08:35.653Z</time></trkpt><trkpt lat="44.7430416" lon="7.839079"><ele>368.5</ele><time>2026-04-10T08:08:38.656Z</time></trkpt><trkpt lat="44.7429639" lon="7.8391164"><ele>369.0</ele><time>2026-04-10T08:08:41.657Z</time></trkpt><trkpt lat="44.7428826" lon="7.839176"><ele>369.5</ele><time>2026-04-10T08:08:44.666Z</time></trkpt><trkpt lat="44.7428227" lon="7.8392588"><ele>370.0</ele><time>2026-04-10T08:08:47.656Z</time></trkpt><trkpt lat="44.7427761" lon="7.8393195"><ele>370.0</ele><time>2026-04-10T08:08:49.668Z</time></trkpt><trkpt lat="44.7427151" lon="7.8394058"><ele>370.0</ele><time>2026-04-10T08:08:52.652Z</time></trkpt><trkpt lat="44.7426533" lon="7.8394767"><ele>370.0</ele><time>2026-04-10T08:08:55.665Z</time></trkpt><trkpt lat="44.7425995" lon="7.8395333"><ele>370.0</ele><time>2026-04-10T08:08:58.66Z</time></trkpt><trkpt lat="44.7425334" lon="7.8395997"><ele>370.0</ele><time>2026-04-10T08:09:01.668Z</time></trkpt><trkpt lat="44.7424642" lon="7.8396797"><ele>370.0</ele><time>2026-04-10T08:09:04.673Z</time></trkpt><trkpt lat="44.742392" lon="7.839733"><ele>370.3333333333333</ele><time>2026-04-10T08:09:07.685Z</time></trkpt><trkpt lat="44.7423145" lon="7.8397388"><ele>370.66666666666663</ele><time>2026-04-10T08:09:10.651Z</time></trkpt><trkpt lat="44.7422333" lon="7.8397277"><ele>371.0</ele><time>2026-04-10T08:09:13.681Z</time></trkpt><trkpt lat="44.7421502" lon="7.8397431"><ele>371.3333333333333</ele><time>2026-04-10T08:09:16.676Z</time></trkpt><trkpt lat="44.7420788" lon="7.8397666"><ele>371.6666666666667</ele><time>2026-04-10T08:09:19.674Z</time></trkpt><trkpt lat="44.7420007" lon="7.8398086"><ele>372.0</ele><time>2026-04-10T08:09:23.697Z</time></trkpt><trkpt lat="44.7419419" lon="7.8398699"><ele>372.0</ele><time>2026-04-10T08:09:26.663Z</time></trkpt><trkpt lat="44.7418929" lon="7.8399437"><ele>372.0</ele><time>2026-04-10T08:09:29.665Z</time></trkpt><trkpt lat="44.7418432" lon="7.8400376"><ele>372.0</ele><time>2026-04-10T08:09:33.654Z</time></trkpt><trkpt lat="44.7417913" lon="7.8401172"><ele>372.0</ele><time>2026-04-10T08:09:36.676Z</time></trkpt><trkpt lat="44.7417295" lon="7.8402031"><ele>372.0</ele><time>2026-04-10T08:09:39.649Z</time></trkpt><trkpt lat="44.7416589" lon="7.8402669"><ele>372.0</ele><time>2026-04-10T08:09:42.685Z</time></trkpt><trkpt lat="44.741594" lon="7.840342"><ele>372.5</ele><time>2026-04-10T08:09:45.696Z</time></trkpt><trkpt lat="44.741549" lon="7.8404166"><ele>373.0</ele><time>2026-04-10T08:09:48.666Z</time></trkpt><trkpt lat="44.7415238" lon="7.8405046"><ele>373.5</ele><time>2026-04-10T08:09:51.689Z</time></trkpt><trkpt lat="44.7415149" lon="7.8406191"><ele>374.0</ele><time>2026-04-10T08:09:54.656Z</time></trkpt><trkpt lat="44.7415299" lon="7.8407519"><ele>374.5</ele><time>2026-04-10T08:09:57.693Z</time></trkpt><trkpt lat="44.7415446" lon="7.8408721"><ele>375.0</ele><time>2026-04-10T08:10:00.677Z</time></trkpt><trkpt lat="44.7415741" lon="7.8409967"><ele>375.0</ele><time>2026-04-10T08:10:03.654Z</time></trkpt><trkpt lat="44.7416018" lon="7.8411215"><ele>375.0</ele><time>2026-04-10T08:10:06.672Z</time></trkpt><trkpt lat="44.7416202" lon="7.841243"><ele>375.0</ele><time>2026-04-10T08:10:09.672Z</time></trkpt><trkpt lat="44.7415943" lon="7.8413531"><ele>375.0</ele><time>2026-04-10T08:10:12.661Z</time></trkpt><trkpt lat="44.7415587" lon="7.8414412"><ele>375.0</ele><time>2026-04-10T08:10:14.677Z</time></trkpt><trkpt lat="44.7415264" lon="7.8415274"><ele>375.0</ele><time>2026-04-10T08:10:16.656Z</time></trkpt><trkpt lat="44.741487" lon="7.8416183"><ele>375.0</ele><time>2026-04-10T08:10:18.683Z</time></trkpt><trkpt lat="44.741449" lon="7.8417106"><ele>375.0</ele><time>2026-04-10T08:10:20.663Z</time></trkpt><trkpt lat="44.7413852" lon="7.8417844"><ele>375.0</ele><time>2026-04-10T08:10:22.679Z</time></trkpt><trkpt lat="44.7413098" lon="7.8418383"><ele>375.0</ele><time>2026-04-10T08:10:24.672Z</time></trkpt><trkpt lat="44.7412452" lon="7.8418784"><ele>375.0</ele><time>2026-04-10T08:10:26.662Z</time></trkpt><trkpt lat="44.7411805" lon="7.8419201"><ele>375.0</ele><time>2026-04-10T08:10:28.673Z</time></trkpt><trkpt lat="44.7411213" lon="7.8419732"><ele>375.0</ele><time>2026-04-10T08:10:30.67Z</time></trkpt><trkpt lat="44.7410948" lon="7.8420645"><ele>375.0</ele><time>2026-04-10T08:10:32.633Z</time></trkpt><trkpt lat="44.7411109" lon="7.842191"><ele>375.0</ele><time>2026-04-10T08:10:35.643Z</time></trkpt><trkpt lat="44.7411462" lon="7.8422828"><ele>375.0</ele><time>2026-04-10T08:10:37.671Z</time></trkpt><trkpt lat="44.7411705" lon="7.8423658"><ele>375.0</ele><time>2026-04-10T08:10:39.677Z</time></trkpt><trkpt lat="44.7412082" lon="7.8424838"><ele>375.0</ele><time>2026-04-10T08:10:42.688Z</time></trkpt><trkpt lat="44.7412536" lon="7.842601"><ele>375.3333333333333</ele><time>2026-04-10T08:10:45.666Z</time></trkpt><trkpt lat="44.7412848" lon="7.8426878"><ele>375.6666666666667</ele><time>2026-04-10T08:10:47.669Z</time></trkpt><trkpt lat="44.7413188" lon="7.842777"><ele>376.0</ele><time>2026-04-10T08:10:49.676Z</time></trkpt><trkpt lat="44.7413394" lon="7.8428728"><ele>376.33333333333337</ele><time>2026-04-10T08:10:51.694Z</time></trkpt><trkpt lat="44.7413451" lon="7.8429717"><ele>376.6666666666667</ele><time>2026-04-10T08:10:53.683Z</time></trkpt><trkpt lat="44.7413022" lon="7.8430763"><ele>377.0</ele><time>2026-04-10T08:10:56.65Z</time></trkpt><trkpt lat="44.7412128" lon="7.8431308"><ele>377.0</ele><time>2026-04-10T08:10:59.675Z</time></trkpt><trkpt lat="44.7411421" lon="7.8431636"><ele>377.0</ele><time>2026-04-10T08:11:01.751Z</time></trkpt><trkpt lat="44.7410701" lon="7.8432008"><ele>377.0</ele><time>2026-04-10T08:11:03.682Z</time></trkpt><trkpt lat="44.7410043" lon="7.8432429"><ele>377.0</ele><time>2026-04-10T08:11:05.67Z</time></trkpt><trkpt lat="44.7409515" lon="7.8433002"><ele>377.0</ele><time>2026-04-10T08:11:07.7Z</time></trkpt><trkpt lat="44.7408797" lon="7.8433792"><ele>377.0</ele><time>2026-04-10T08:11:10.667Z</time></trkpt><trkpt lat="44.7408055" lon="7.8434391"><ele>377.83333333333337</ele><time>2026-04-10T08:11:13.682Z</time></trkpt><trkpt lat="44.740737" lon="7.8435081"><ele>378.6666666666667</ele><time>2026-04-10T08:11:16.666Z</time></trkpt><trkpt lat="44.7406681" lon="7.8435728"><ele>379.5</ele><time>2026-04-10T08:11:19.693Z</time></trkpt><trkpt lat="44.7405807" lon="7.8436199"><ele>380.3333333333333</ele><time>2026-04-10T08:11:22.671Z</time></trkpt><trkpt lat="44.7405039" lon="7.8436883"><ele>381.16666666666663</ele><time>2026-04-10T08:11:25.663Z</time></trkpt><trkpt lat="44.7404318" lon="7.8437588"><ele>382.0</ele><time>2026-04-10T08:11:28.682Z</time></trkpt><trkpt lat="44.7403806" lon="7.8438142"><ele>382.0</ele><time>2026-04-10T08:11:30.697Z</time></trkpt><trkpt lat="44.7403313" lon="7.8438778"><ele>382.0</ele><time>2026-04-10T08:11:32.689Z</time></trkpt><trkpt lat="44.74029" lon="7.8439499"><ele>382.0</ele><time>2026-04-10T08:11:34.657Z</time></trkpt><trkpt lat="44.7402331" lon="7.8440488"><ele>382.0</ele><time>2026-04-10T08:11:37.669Z</time></trkpt><trkpt lat="44.7401943" lon="7.8441514"><ele>382.0</ele><time>2026-04-10T08:11:40.688Z</time></trkpt><trkpt lat="44.7401653" lon="7.844239"><ele>382.0</ele><time>2026-04-10T08:11:43.661Z</time></trkpt><trkpt lat="44.7401226" lon="7.8443277"><ele>382.66666666666663</ele><time>2026-04-10T08:11:46.679Z</time></trkpt><trkpt lat="44.7400897" lon="7.8444194"><ele>383.3333333333333</ele><time>2026-04-10T08:11:49.702Z</time></trkpt><trkpt lat="44.7400776" lon="7.844534"><ele>384.0</ele><time>2026-04-10T08:11:52.663Z</time></trkpt><trkpt lat="44.7400829" lon="7.8446437"><ele>384.66666666666663</ele><time>2026-04-10T08:11:55.671Z</time></trkpt><trkpt lat="44.7400919" lon="7.8447317"><ele>385.3333333333333</ele><time>2026-04-10T08:11:57.683Z</time></trkpt><trkpt lat="44.7400908" lon="7.8448476"><ele>386.0</ele><time>2026-04-10T08:12:00.673Z</time></trkpt><trkpt lat="44.7400575" lon="7.8449403"><ele>385.99999999999994</ele><time>2026-04-10T08:12:03.679Z</time></trkpt><trkpt lat="44.7400156" lon="7.8450359"><ele>386.0</ele><time>2026-04-10T08:12:06.667Z</time></trkpt><trkpt lat="44.7399526" lon="7.8451393"><ele>386.0</ele><time>2026-04-10T08:12:09.645Z</time></trkpt><trkpt lat="44.7398958" lon="7.8452067"><ele>386.0</ele><time>2026-04-10T08:12:11.71Z</time></trkpt><trkpt lat="44.7398512" lon="7.8452994"><ele>385.99999999999994</ele><time>2026-04-10T08:12:14.683Z</time></trkpt><trkpt lat="44.7398554" lon="7.8454028"><ele>386.0</ele><time>2026-04-10T08:12:17.671Z</time></trkpt><trkpt lat="44.7398839" lon="7.8455266"><ele>385.28571428571433</ele><time>2026-04-10T08:12:20.675Z</time></trkpt><trkpt lat="44.7398986" lon="7.8456208"><ele>384.57142857142856</ele><time>2026-04-10T08:12:22.675Z</time></trkpt><trkpt lat="44.7399082" lon="7.8457128"><ele>383.8571428571429</ele><time>2026-04-10T08:12:24.658Z</time></trkpt><trkpt lat="44.7399033" lon="7.8458254"><ele>383.14285714285717</ele><time>2026-04-10T08:12:26.699Z</time></trkpt><trkpt lat="44.7399074" lon="7.8459387"><ele>382.42857142857144</ele><time>2026-04-10T08:12:28.689Z</time></trkpt><trkpt lat="44.7399198" lon="7.8460456"><ele>381.7142857142857</ele><time>2026-04-10T08:12:30.669Z</time></trkpt><trkpt lat="44.7399427" lon="7.8461395"><ele>381.0</ele><time>2026-04-10T08:12:32.658Z</time></trkpt><trkpt lat="44.7399727" lon="7.846253"><ele>379.6666666666667</ele><time>2026-04-10T08:12:34.658Z</time></trkpt><trkpt lat="44.7400159" lon="7.8463813"><ele>378.3333333333333</ele><time>2026-04-10T08:12:36.675Z</time></trkpt><trkpt lat="44.7400619" lon="7.8464938"><ele>377.0</ele><time>2026-04-10T08:12:38.685Z</time></trkpt><trkpt lat="44.7401073" lon="7.8466102"><ele>375.66666666666663</ele><time>2026-04-10T08:12:40.691Z</time></trkpt><trkpt lat="44.7401475" lon="7.8467"><ele>374.3333333333333</ele><time>2026-04-10T08:12:42.679Z</time></trkpt><trkpt lat="44.7401864" lon="7.8468036"><ele>373.0</ele><time>2026-04-10T08:12:44.688Z</time></trkpt><trkpt lat="44.7402221" lon="7.8469488"><ele>372.59999999999997</ele><time>2026-04-10T08:12:46.69Z</time></trkpt><trkpt lat="44.740236" lon="7.8470965"><ele>372.2</ele><time>2026-04-10T08:12:48.659Z</time></trkpt><trkpt lat="44.7402346" lon="7.8472415"><ele>371.8</ele><time>2026-04-10T08:12:50.678Z</time></trkpt><trkpt lat="44.7402127" lon="7.8473904"><ele>371.4</ele><time>2026-04-10T08:12:52.682Z</time></trkpt><trkpt lat="44.7401632" lon="7.8475214"><ele>371.0</ele><time>2026-04-10T08:12:54.678Z</time></trkpt><trkpt lat="44.7400945" lon="7.8476407"><ele>370.8</ele><time>2026-04-10T08:12:56.677Z</time></trkpt><trkpt lat="44.7400232" lon="7.8477613"><ele>370.6</ele><time>2026-04-10T08:12:58.691Z</time></trkpt><trkpt lat="44.7399604" lon="7.8478795"><ele>370.4</ele><time>2026-04-10T08:13:00.682Z</time></trkpt><trkpt lat="44.7399117" lon="7.8479982"><ele>370.2</ele><time>2026-04-10T08:13:02.684Z</time></trkpt><trkpt lat="44.7398621" lon="7.8481118"><ele>370.0</ele><time>2026-04-10T08:13:04.669Z</time></trkpt><trkpt lat="44.7398193" lon="7.8482184"><ele>370.0</ele><time>2026-04-10T08:13:06.673Z</time></trkpt><trkpt lat="44.7398074" lon="7.8483317"><ele>370.0</ele><time>2026-04-10T08:13:08.692Z</time></trkpt><trkpt lat="44.7398243" lon="7.8484556"><ele>370.0</ele><time>2026-04-10T08:13:10.667Z</time></trkpt><trkpt lat="44.7398784" lon="7.8485834"><ele>370.0</ele><time>2026-04-10T08:13:12.667Z</time></trkpt><trkpt lat="44.7399424" lon="7.848718"><ele>370.0</ele><time>2026-04-10T08:13:14.684Z</time></trkpt><trkpt lat="44.7400172" lon="7.8488628"><ele>369.8333333333333</ele><time>2026-04-10T08:13:16.661Z</time></trkpt><trkpt lat="44.7400539" lon="7.8489368"><ele>369.66666666666663</ele><time>2026-04-10T08:13:17.666Z</time></trkpt><trkpt lat="44.7400852" lon="7.8490201"><ele>369.5</ele><time>2026-04-10T08:13:18.684Z</time></trkpt><trkpt lat="44.7401083" lon="7.8491079"><ele>369.3333333333333</ele><time>2026-04-10T08:13:19.689Z</time></trkpt><trkpt lat="44.740148" lon="7.8492563"><ele>369.1666666666667</ele><time>2026-04-10T08:13:21.664Z</time></trkpt><trkpt lat="44.7401962" lon="7.8493813"><ele>369.0</ele><time>2026-04-10T08:13:23.648Z</time></trkpt><trkpt lat="44.7402481" lon="7.8494697"><ele>370.2857142857143</ele><time>2026-04-10T08:13:25.688Z</time></trkpt><trkpt lat="44.7402899" lon="7.8495379"><ele>371.57142857142856</ele><time>2026-04-10T08:13:27.673Z</time></trkpt><trkpt lat="44.7403508" lon="7.8496206"><ele>372.8571428571429</ele><time>2026-04-10T08:13:30.678Z</time></trkpt><trkpt lat="44.7403957" lon="7.8497067"><ele>374.1428571428571</ele><time>2026-04-10T08:13:33.69Z</time></trkpt><trkpt lat="44.7404597" lon="7.8497537"><ele>375.42857142857144</ele><time>2026-04-10T08:13:37.717Z</time></trkpt><trkpt lat="44.7405384" lon="7.8497295"><ele>376.7142857142857</ele><time>2026-04-10T08:13:41.693Z</time></trkpt><trkpt lat="44.7406087" lon="7.8497523"><ele>378.0</ele><time>2026-04-10T08:13:44.671Z</time></trkpt><trkpt lat="44.7406689" lon="7.8498091"><ele>378.0</ele><time>2026-04-10T08:13:47.648Z</time></trkpt><trkpt lat="44.7406809" lon="7.8499011"><ele>378.0</ele><time>2026-04-10T08:13:52.646Z</time></trkpt><trkpt lat="44.7406699" lon="7.8499885"><ele>378.0</ele><time>2026-04-10T08:13:57.663Z</time></trkpt><trkpt lat="44.7406671" lon="7.8500825"><ele>378.0</ele><time>2026-04-10T08:14:01.654Z</time></trkpt><trkpt lat="44.7406367" lon="7.8501908"><ele>378.0</ele><time>2026-04-10T08:14:06.708Z</time></trkpt><trkpt lat="44.7406426" lon="7.8502944"><ele>378.0</ele><time>2026-04-10T08:14:10.659Z</time></trkpt><trkpt lat="44.7406673" lon="7.8503999"><ele>378.0</ele><time>2026-04-10T08:14:14.675Z</time></trkpt><trkpt lat="44.7406956" lon="7.8505029"><ele>378.42857142857144</ele><time>2026-04-10T08:14:18.648Z</time></trkpt><trkpt lat="44.740725" lon="7.8505926"><ele>378.8571428571429</ele><time>2026-04-10T08:14:22.658Z</time></trkpt><trkpt lat="44.7406882" lon="7.850519"><ele>379.2857142857143</ele><time>2026-04-10T08:14:44.634Z</time></trkpt><trkpt lat="44.7407399" lon="7.850451"><ele>379.7142857142857</ele><time>2026-04-10T08:17:00.68Z</time></trkpt><trkpt lat="44.7408018" lon="7.8503799"><ele>380.14285714285717</ele><time>2026-04-10T08:17:12.678Z</time></trkpt><trkpt lat="44.7408349" lon="7.8502661"><ele>380.57142857142856</ele><time>2026-04-10T08:17:16.677Z</time></trkpt><trkpt lat="44.740882" lon="7.850196"><ele>381.0</ele><time>2026-04-10T08:17:19.676Z</time></trkpt><trkpt lat="44.7409575" lon="7.8501511"><ele>380.5</ele><time>2026-04-10T08:17:22.668Z</time></trkpt><trkpt lat="44.7410297" lon="7.8500919"><ele>380.0</ele><time>2026-04-10T08:17:26.691Z</time></trkpt><trkpt lat="44.7410944" lon="7.8500469"><ele>379.5</ele><time>2026-04-10T08:17:29.666Z</time></trkpt><trkpt lat="44.7411505" lon="7.8499877"><ele>379.0</ele><time>2026-04-10T08:17:32.67Z</time></trkpt><trkpt lat="44.7412423" lon="7.8499411"><ele>378.5</ele><time>2026-04-10T08:17:35.687Z</time></trkpt><trkpt lat="44.7413181" lon="7.8498687"><ele>378.0</ele><time>2026-04-10T08:17:38.683Z</time></trkpt><trkpt lat="44.7413921" lon="7.8498123"><ele>378.0</ele><time>2026-04-10T08:17:40.659Z</time></trkpt><trkpt lat="44.7414508" lon="7.8497661"><ele>378.0</ele><time>2026-04-10T08:17:42.682Z</time></trkpt><trkpt lat="44.7415127" lon="7.849674"><ele>378.0</ele><time>2026-04-10T08:17:45.697Z</time></trkpt><trkpt lat="44.7415613" lon="7.8496155"><ele>378.0</ele><time>2026-04-10T08:17:47.673Z</time></trkpt><trkpt lat="44.7416248" lon="7.8495905"><ele>378.0</ele><time>2026-04-10T08:17:49.666Z</time></trkpt><trkpt lat="44.7416894" lon="7.8495489"><ele>378.0</ele><time>2026-04-10T08:17:51.669Z</time></trkpt><trkpt lat="44.7417661" lon="7.8495067"><ele>378.0</ele><time>2026-04-10T08:17:53.668Z</time></trkpt><trkpt lat="44.7418184" lon="7.8494551"><ele>378.0</ele><time>2026-04-10T08:17:55.708Z</time></trkpt><trkpt lat="44.7418691" lon="7.8493974"><ele>378.0</ele><time>2026-04-10T08:17:58.662Z</time></trkpt><trkpt lat="44.7419058" lon="7.8493079"><ele>378.0</ele><time>2026-04-10T08:18:03.665Z</time></trkpt><trkpt lat="44.7419765" lon="7.8492532"><ele>378.0</ele><time>2026-04-10T08:18:06.685Z</time></trkpt><trkpt lat="44.7420301" lon="7.8491972"><ele>378.0</ele><time>2026-04-10T08:18:09.686Z</time></trkpt><trkpt lat="44.7420916" lon="7.8491494"><ele>378.0</ele><time>2026-04-10T08:18:11.656Z</time></trkpt><trkpt lat="44.7421593" lon="7.8490581"><ele>377.0</ele><time>2026-04-10T08:18:14.67Z</time></trkpt><trkpt lat="44.7422339" lon="7.8490151"><ele>376.0</ele><time>2026-04-10T08:18:17.649Z</time></trkpt><trkpt lat="44.7423166" lon="7.8489678"><ele>375.0</ele><time>2026-04-10T08:18:20.677Z</time></trkpt><trkpt lat="44.7423877" lon="7.8489053"><ele>374.0</ele><time>2026-04-10T08:18:23.706Z</time></trkpt><trkpt lat="44.7424476" lon="7.8488666"><ele>373.0</ele><time>2026-04-10T08:18:25.69Z</time></trkpt><trkpt lat="44.7425037" lon="7.8488223"><ele>372.0</ele><time>2026-04-10T08:18:27.651Z</time></trkpt><trkpt lat="44.7425849" lon="7.8487527"><ele>372.0</ele><time>2026-04-10T08:18:30.675Z</time></trkpt><trkpt lat="44.7426749" lon="7.8487051"><ele>372.0</ele><time>2026-04-10T08:18:33.678Z</time></trkpt><trkpt lat="44.7427353" lon="7.8486564"><ele>372.0</ele><time>2026-04-10T08:18:35.654Z</time></trkpt><trkpt lat="44.7428088" lon="7.8485981"><ele>372.0</ele><time>2026-04-10T08:18:37.656Z</time></trkpt><trkpt lat="44.7428735" lon="7.8485509"><ele>372.0</ele><time>2026-04-10T08:18:39.69Z</time></trkpt><trkpt lat="44.7429452" lon="7.8484895"><ele>372.0</ele><time>2026-04-10T08:18:41.677Z</time></trkpt><trkpt lat="44.7430207" lon="7.8484433"><ele>371.6666666666667</ele><time>2026-04-10T08:18:43.684Z</time></trkpt><trkpt lat="44.7431154" lon="7.848401"><ele>371.3333333333333</ele><time>2026-04-10T08:18:45.694Z</time></trkpt><trkpt lat="44.7431932" lon="7.8483417"><ele>371.0</ele><time>2026-04-10T08:18:47.658Z</time></trkpt><trkpt lat="44.7432692" lon="7.8482934"><ele>370.66666666666663</ele><time>2026-04-10T08:18:49.656Z</time></trkpt><trkpt lat="44.7433491" lon="7.8482419"><ele>370.3333333333333</ele><time>2026-04-10T08:18:52.674Z</time></trkpt><trkpt lat="44.7434086" lon="7.8481993"><ele>370.0</ele><time>2026-04-10T08:18:55.676Z</time></trkpt><trkpt lat="44.7434747" lon="7.8481631"><ele>370.0</ele><time>2026-04-10T08:19:08.634Z</time></trkpt><trkpt lat="44.7435447" lon="7.8481047"><ele>370.0</ele><time>2026-04-10T08:19:24.652Z</time></trkpt><trkpt lat="44.7435831" lon="7.8480334"><ele>370.0</ele><time>2026-04-10T08:19:26.661Z</time></trkpt><trkpt lat="44.7436283" lon="7.8479433"><ele>370.0</ele><time>2026-04-10T08:19:28.689Z</time></trkpt><trkpt lat="44.743667" lon="7.8478576"><ele>370.0</ele><time>2026-04-10T08:19:30.672Z</time></trkpt><trkpt lat="44.7437216" lon="7.8477796"><ele>370.0</ele><time>2026-04-10T08:19:32.685Z</time></trkpt><trkpt lat="44.7437907" lon="7.8477234"><ele>369.3333333333333</ele><time>2026-04-10T08:19:34.673Z</time></trkpt><trkpt lat="44.7438717" lon="7.847711"><ele>368.66666666666663</ele><time>2026-04-10T08:19:36.646Z</time></trkpt><trkpt lat="44.7439567" lon="7.8476824"><ele>368.0</ele><time>2026-04-10T08:19:38.665Z</time></trkpt><trkpt lat="44.7440273" lon="7.8476269"><ele>367.3333333333333</ele><time>2026-04-10T08:19:40.673Z</time></trkpt><trkpt lat="44.7441196" lon="7.84758"><ele>366.6666666666667</ele><time>2026-04-10T08:19:43.676Z</time></trkpt><trkpt lat="44.7441844" lon="7.8475649"><ele>366.0</ele><time>2026-04-10T08:19:45.671Z</time></trkpt><trkpt lat="44.7442699" lon="7.8476134"><ele>366.0</ele><time>2026-04-10T08:19:50.667Z</time></trkpt><trkpt lat="44.7442648" lon="7.8477148"><ele>366.0</ele><time>2026-04-10T08:20:14.667Z</time></trkpt><trkpt lat="44.7442985" lon="7.8478075"><ele>366.0</ele><time>2026-04-10T08:20:28.661Z</time></trkpt><trkpt lat="44.7443122" lon="7.8478942"><ele>366.0</ele><time>2026-04-10T08:20:34.675Z</time></trkpt><trkpt lat="44.7443578" lon="7.8479779"><ele>366.0</ele><time>2026-04-10T08:20:56.671Z</time></trkpt><trkpt lat="44.7443154" lon="7.8480447"><ele>366.0</ele><time>2026-04-10T08:21:05.671Z</time></trkpt><trkpt lat="44.7442711" lon="7.8481092"><ele>366.0</ele><time>2026-04-10T08:21:11.809Z</time></trkpt><trkpt lat="44.7442107" lon="7.8481727"><ele>366.0</ele><time>2026-04-10T08:21:17.919Z</time></trkpt><trkpt lat="44.7441561" lon="7.8482424"><ele>366.0</ele><time>2026-04-10T08:21:23.698Z</time></trkpt><trkpt lat="44.7441022" lon="7.8482962"><ele>366.0</ele><time>2026-04-10T08:21:29.673Z</time></trkpt><trkpt lat="44.7440563" lon="7.8483846"><ele>366.0</ele><time>2026-04-10T08:21:33.67Z</time></trkpt><trkpt lat="44.7440121" lon="7.8484664"><ele>366.0</ele><time>2026-04-10T08:21:37.848Z</time></trkpt><trkpt lat="44.7439598" lon="7.8485301"><ele>366.0</ele><time>2026-04-10T08:21:41.916Z</time></trkpt><trkpt lat="44.7439149" lon="7.8485961"><ele>366.0</ele><time>2026-04-10T08:21:45.667Z</time></trkpt><trkpt lat="44.7438574" lon="7.8486952"><ele>366.8333333333333</ele><time>2026-04-10T08:21:50.871Z</time></trkpt><trkpt lat="44.7438084" lon="7.8487519"><ele>367.6666666666667</ele><time>2026-04-10T08:21:53.653Z</time></trkpt><trkpt lat="44.7437451" lon="7.8488241"><ele>368.5</ele><time>2026-04-10T08:21:57.672Z</time></trkpt><trkpt lat="44.7436733" lon="7.84887"><ele>369.33333333333337</ele><time>2026-04-10T08:22:01.674Z</time></trkpt><trkpt lat="44.7436078" lon="7.8489171"><ele>370.1666666666667</ele><time>2026-04-10T08:22:04.656Z</time></trkpt><trkpt lat="44.743535" lon="7.848971"><ele>371.0</ele><time>2026-04-10T08:22:07.682Z</time></trkpt><trkpt lat="44.7434722" lon="7.8490183"><ele>371.1666666666667</ele><time>2026-04-10T08:22:10.672Z</time></trkpt><trkpt lat="44.7434063" lon="7.8490851"><ele>371.33333333333337</ele><time>2026-04-10T08:22:14.672Z</time></trkpt><trkpt lat="44.7433473" lon="7.8491233"><ele>371.5</ele><time>2026-04-10T08:22:17.663Z</time></trkpt><trkpt lat="44.743272" lon="7.8491733"><ele>371.6666666666667</ele><time>2026-04-10T08:22:21.664Z</time></trkpt><trkpt lat="44.7431971" lon="7.8492457"><ele>371.8333333333333</ele><time>2026-04-10T08:22:25.766Z</time></trkpt><trkpt lat="44.7431073" lon="7.8493227"><ele>372.0</ele><time>2026-04-10T08:22:30.775Z</time></trkpt><trkpt lat="44.7430394" lon="7.8494016"><ele>372.42857142857144</ele><time>2026-04-10T08:22:35.674Z</time></trkpt><trkpt lat="44.7429812" lon="7.8494652"><ele>372.8571428571429</ele><time>2026-04-10T08:22:38.83Z</time></trkpt><trkpt lat="44.7429459" lon="7.8495457"><ele>373.28571428571433</ele><time>2026-04-10T08:22:41.778Z</time></trkpt><trkpt lat="44.7429697" lon="7.8496368"><ele>373.7142857142857</ele><time>2026-04-10T08:22:45.644Z</time></trkpt><trkpt lat="44.7430313" lon="7.8496903"><ele>374.1428571428571</ele><time>2026-04-10T08:22:51.881Z</time></trkpt><trkpt lat="44.7430961" lon="7.8497061"><ele>374.5714285714286</ele><time>2026-04-10T08:22:56.657Z</time></trkpt><trkpt lat="44.7431354" lon="7.8497772"><ele>375.0</ele><time>2026-04-10T08:23:01.652Z</time></trkpt><trkpt lat="44.7431602" lon="7.8498749"><ele>375.0</ele><time>2026-04-10T08:23:06.965Z</time></trkpt><trkpt lat="44.7431849" lon="7.8499618"><ele>375.0</ele><time>2026-04-10T08:23:11.669Z</time></trkpt><trkpt lat="44.7432178" lon="7.850048"><ele>375.0</ele><time>2026-04-10T08:23:17.757Z</time></trkpt><trkpt lat="44.7431917" lon="7.8501504"><ele>375.0</ele><time>2026-04-10T08:23:25.656Z</time></trkpt><trkpt lat="44.7431937" lon="7.8502549"><ele>375.0</ele><time>2026-04-10T08:25:28.641Z</time></trkpt><trkpt lat="44.7432511" lon="7.8501967"><ele>375.0</ele><time>2026-04-10T08:25:33.645Z</time></trkpt><trkpt lat="44.7433203" lon="7.8501895"><ele>375.0</ele><time>2026-04-10T08:25:35.654Z</time></trkpt><trkpt lat="44.7433914" lon="7.8501461"><ele>375.0</ele><time>2026-04-10T08:25:37.675Z</time></trkpt><trkpt lat="44.7434425" lon="7.8500566"><ele>375.0</ele><time>2026-04-10T08:25:39.656Z</time></trkpt><trkpt lat="44.7435034" lon="7.8499782"><ele>375.0</ele><time>2026-04-10T08:25:41.659Z</time></trkpt><trkpt lat="44.7435876" lon="7.8499161"><ele>375.0</ele><time>2026-04-10T08:25:43.673Z</time></trkpt><trkpt lat="44.7436913" lon="7.8498394"><ele>375.0</ele><time>2026-04-10T08:25:45.657Z</time></trkpt><trkpt lat="44.7437713" lon="7.8497749"><ele>374.3333333333333</ele><time>2026-04-10T08:25:47.663Z</time></trkpt><trkpt lat="44.7438321" lon="7.8496947"><ele>373.6666666666667</ele><time>2026-04-10T08:25:49.662Z</time></trkpt><trkpt lat="44.7438826" lon="7.8495956"><ele>373.0</ele><time>2026-04-10T08:25:51.656Z</time></trkpt><trkpt lat="44.743932" lon="7.8494903"><ele>372.33333333333337</ele><time>2026-04-10T08:25:53.727Z</time></trkpt><trkpt lat="44.743958" lon="7.8493842"><ele>371.6666666666667</ele><time>2026-04-10T08:25:55.755Z</time></trkpt><trkpt lat="44.7440089" lon="7.8492993"><ele>371.0</ele><time>2026-04-10T08:25:57.652Z</time></trkpt><trkpt lat="44.7440887" lon="7.8492379"><ele>371.0</ele><time>2026-04-10T08:25:59.651Z</time></trkpt><trkpt lat="44.7441725" lon="7.8491963"><ele>371.0</ele><time>2026-04-10T08:26:02.655Z</time></trkpt><trkpt lat="44.7442495" lon="7.8491668"><ele>371.0</ele><time>2026-04-10T08:26:04.642Z</time></trkpt><trkpt lat="44.7443231" lon="7.8491632"><ele>371.0</ele><time>2026-04-10T08:26:06.644Z</time></trkpt><trkpt lat="44.7443955" lon="7.8491792"><ele>371.0</ele><time>2026-04-10T08:26:08.64Z</time></trkpt><trkpt lat="44.7444812" lon="7.8491289"><ele>371.0</ele><time>2026-04-10T08:26:11.65Z</time></trkpt><trkpt lat="44.7445411" lon="7.849092"><ele>370.33333333333337</ele><time>2026-04-10T08:26:13.67Z</time></trkpt><trkpt lat="44.7445972" lon="7.8490451"><ele>369.6666666666667</ele><time>2026-04-10T08:26:15.668Z</time></trkpt><trkpt lat="44.7446869" lon="7.8490043"><ele>369.0</ele><time>2026-04-10T08:26:18.666Z</time></trkpt><trkpt lat="44.744749" lon="7.8489885"><ele>368.3333333333333</ele><time>2026-04-10T08:26:20.652Z</time></trkpt><trkpt lat="44.7448323" lon="7.8490205"><ele>367.66666666666663</ele><time>2026-04-10T08:26:22.656Z</time></trkpt><trkpt lat="44.7449336" lon="7.8490315"><ele>367.0</ele><time>2026-04-10T08:26:24.66Z</time></trkpt><trkpt lat="44.7450113" lon="7.8490162"><ele>367.0</ele><time>2026-04-10T08:26:26.651Z</time></trkpt><trkpt lat="44.7450851" lon="7.8489949"><ele>367.0</ele><time>2026-04-10T08:26:28.663Z</time></trkpt><trkpt lat="44.7451614" lon="7.848943"><ele>367.0</ele><time>2026-04-10T08:26:31.666Z</time></trkpt><trkpt lat="44.745196" lon="7.8488456"><ele>367.0</ele><time>2026-04-10T08:26:34.643Z</time></trkpt><trkpt lat="44.7452281" lon="7.8487343"><ele>367.0</ele><time>2026-04-10T08:26:37.647Z</time></trkpt><trkpt lat="44.7452702" lon="7.8486554"><ele>367.0</ele><time>2026-04-10T08:26:40.658Z</time></trkpt><trkpt lat="44.7453473" lon="7.8485875"><ele>366.5</ele><time>2026-04-10T08:26:43.635Z</time></trkpt><trkpt lat="44.7454199" lon="7.8485191"><ele>366.0</ele><time>2026-04-10T08:26:46.667Z</time></trkpt><trkpt lat="44.7454998" lon="7.8484531"><ele>365.5</ele><time>2026-04-10T08:26:49.663Z</time></trkpt><trkpt lat="44.7455639" lon="7.8484069"><ele>365.0</ele><time>2026-04-10T08:26:51.654Z</time></trkpt><trkpt lat="44.7456246" lon="7.8483635"><ele>364.5</ele><time>2026-04-10T08:26:53.661Z</time></trkpt><trkpt lat="44.7456886" lon="7.8483204"><ele>364.0</ele><time>2026-04-10T08:26:55.74Z</time></trkpt><trkpt lat="44.7457732" lon="7.8482689"><ele>364.0</ele><time>2026-04-10T08:26:57.677Z</time></trkpt><trkpt lat="44.7458314" lon="7.8482306"><ele>364.0</ele><time>2026-04-10T08:26:58.66Z</time></trkpt><trkpt lat="44.7458888" lon="7.8481864"><ele>364.0</ele><time>2026-04-10T08:26:59.673Z</time></trkpt><trkpt lat="44.7459438" lon="7.8481396"><ele>364.0</ele><time>2026-04-10T08:27:00.672Z</time></trkpt><trkpt lat="44.7459993" lon="7.8480926"><ele>364.0</ele><time>2026-04-10T08:27:01.673Z</time></trkpt><trkpt lat="44.7460834" lon="7.8480072"><ele>364.0</ele><time>2026-04-10T08:27:03.67Z</time></trkpt><trkpt lat="44.7461483" lon="7.8479464"><ele>364.0</ele><time>2026-04-10T08:27:05.657Z</time></trkpt><trkpt lat="44.7462271" lon="7.8479102"><ele>363.4</ele><time>2026-04-10T08:27:07.667Z</time></trkpt><trkpt lat="44.7463166" lon="7.847888"><ele>362.79999999999995</ele><time>2026-04-10T08:27:09.665Z</time></trkpt><trkpt lat="44.7464257" lon="7.8478411"><ele>362.20000000000005</ele><time>2026-04-10T08:27:11.663Z</time></trkpt><trkpt lat="44.7465336" lon="7.8478215"><ele>361.6</ele><time>2026-04-10T08:27:13.678Z</time></trkpt><trkpt lat="44.7466368" lon="7.8477741"><ele>361.0</ele><time>2026-04-10T08:27:15.669Z</time></trkpt><trkpt lat="44.7467458" lon="7.8477034"><ele>361.0</ele><time>2026-04-10T08:27:17.668Z</time></trkpt><trkpt lat="44.7468493" lon="7.8476551"><ele>361.0</ele><time>2026-04-10T08:27:19.659Z</time></trkpt><trkpt lat="44.7469291" lon="7.8476377"><ele>361.0</ele><time>2026-04-10T08:27:22.722Z</time></trkpt><trkpt lat="44.7469953" lon="7.8476351"><ele>361.0</ele><time>2026-04-10T08:27:25.664Z</time></trkpt><trkpt lat="44.7470621" lon="7.8476281"><ele>361.0</ele><time>2026-04-10T08:27:28.653Z</time></trkpt><trkpt lat="44.7470071" lon="7.8476869"><ele>361.0</ele><time>2026-04-10T08:27:40.663Z</time></trkpt><trkpt lat="44.7469625" lon="7.8477675"><ele>361.0</ele><time>2026-04-10T08:27:44.66Z</time></trkpt><trkpt lat="44.7469327" lon="7.8478634"><ele>361.0</ele><time>2026-04-10T08:27:49.712Z</time></trkpt><trkpt lat="44.7468941" lon="7.8479496"><ele>361.0</ele><time>2026-04-10T08:27:52.716Z</time></trkpt><trkpt lat="44.7468521" lon="7.8480241"><ele>361.0</ele><time>2026-04-10T08:27:55.727Z</time></trkpt><trkpt lat="44.7468068" lon="7.8480899"><ele>361.0</ele><time>2026-04-10T08:27:58.719Z</time></trkpt><trkpt lat="44.7467603" lon="7.8481815"><ele>361.0</ele><time>2026-04-10T08:28:02.7Z</time></trkpt><trkpt lat="44.7467188" lon="7.8482608"><ele>361.0</ele><time>2026-04-10T08:28:06.653Z</time></trkpt><trkpt lat="44.746654" lon="7.8483101"><ele>361.0</ele><time>2026-04-10T08:28:10.731Z</time></trkpt><trkpt lat="44.746591" lon="7.8483675"><ele>361.0</ele><time>2026-04-10T08:28:14.716Z</time></trkpt><trkpt lat="44.7465245" lon="7.8484145"><ele>361.0</ele><time>2026-04-10T08:28:18.745Z</time></trkpt><trkpt lat="44.7464523" lon="7.8484832"><ele>361.0</ele><time>2026-04-10T08:28:22.715Z</time></trkpt><trkpt lat="44.7463918" lon="7.8485159"><ele>361.0</ele><time>2026-04-10T08:28:25.726Z</time></trkpt><trkpt lat="44.7463202" lon="7.8485399"><ele>361.0</ele><time>2026-04-10T08:28:28.723Z</time></trkpt><trkpt lat="44.7462512" lon="7.8485989"><ele>361.14285714285717</ele><time>2026-04-10T08:28:31.739Z</time></trkpt><trkpt lat="44.7461971" lon="7.8486492"><ele>361.2857142857143</ele><time>2026-04-10T08:28:34.721Z</time></trkpt><trkpt lat="44.7461495" lon="7.8487143"><ele>361.42857142857144</ele><time>2026-04-10T08:28:37.716Z</time></trkpt><trkpt lat="44.7461011" lon="7.8487764"><ele>361.57142857142856</ele><time>2026-04-10T08:28:40.723Z</time></trkpt><trkpt lat="44.7460281" lon="7.8488342"><ele>361.71428571428567</ele><time>2026-04-10T08:28:43.728Z</time></trkpt><trkpt lat="44.7459735" lon="7.8488842"><ele>361.85714285714283</ele><time>2026-04-10T08:28:46.677Z</time></trkpt><trkpt lat="44.7459074" lon="7.8489375"><ele>362.0</ele><time>2026-04-10T08:28:50.678Z</time></trkpt><trkpt lat="44.7458468" lon="7.8489922"><ele>362.1428571428571</ele><time>2026-04-10T08:28:59.687Z</time></trkpt><trkpt lat="44.7457746" lon="7.8489961"><ele>362.2857142857143</ele><time>2026-04-10T08:29:15.647Z</time></trkpt><trkpt lat="44.7457014" lon="7.8489951"><ele>362.42857142857144</ele><time>2026-04-10T08:29:30.645Z</time></trkpt><trkpt lat="44.745634" lon="7.8490354"><ele>362.57142857142856</ele><time>2026-04-10T08:29:35.66Z</time></trkpt><trkpt lat="44.7455844" lon="7.8491018"><ele>362.7142857142857</ele><time>2026-04-10T08:29:39.652Z</time></trkpt><trkpt lat="44.7455326" lon="7.8491546"><ele>362.85714285714283</ele><time>2026-04-10T08:29:43.746Z</time></trkpt><trkpt lat="44.7454676" lon="7.8491963"><ele>363.0</ele><time>2026-04-10T08:29:47.739Z</time></trkpt><trkpt lat="44.745413" lon="7.8492456"><ele>363.2857142857143</ele><time>2026-04-10T08:29:51.717Z</time></trkpt><trkpt lat="44.7453537" lon="7.849301"><ele>363.57142857142856</ele><time>2026-04-10T08:29:56.73Z</time></trkpt><trkpt lat="44.7452842" lon="7.8493573"><ele>363.8571428571429</ele><time>2026-04-10T08:30:00.724Z</time></trkpt><trkpt lat="44.7452204" lon="7.8494113"><ele>364.1428571428571</ele><time>2026-04-10T08:30:04.731Z</time></trkpt><trkpt lat="44.7451661" lon="7.8494872"><ele>364.42857142857144</ele><time>2026-04-10T08:30:08.653Z</time></trkpt><trkpt lat="44.7451186" lon="7.8495561"><ele>364.7142857142857</ele><time>2026-04-10T08:30:14.66Z</time></trkpt><trkpt lat="44.7450595" lon="7.8496127"><ele>365.0</ele><time>2026-04-10T08:30:21.644Z</time></trkpt><trkpt lat="44.7450126" lon="7.8496827"><ele>365.28571428571433</ele><time>2026-04-10T08:30:31.657Z</time></trkpt><trkpt lat="44.7449773" lon="7.8497604"><ele>365.57142857142856</ele><time>2026-04-10T08:30:38.667Z</time></trkpt><trkpt lat="44.744944" lon="7.8498369"><ele>365.8571428571429</ele><time>2026-04-10T08:30:45.654Z</time></trkpt><trkpt lat="44.7448935" lon="7.8499039"><ele>366.14285714285717</ele><time>2026-04-10T08:30:54.649Z</time></trkpt><trkpt lat="44.7448397" lon="7.8499882"><ele>366.42857142857144</ele><time>2026-04-10T08:30:59.659Z</time></trkpt><trkpt lat="44.7447918" lon="7.850056"><ele>366.7142857142857</ele><time>2026-04-10T08:31:03.739Z</time></trkpt><trkpt lat="44.7447555" lon="7.8501293"><ele>367.0</ele><time>2026-04-10T08:31:07.735Z</time></trkpt><trkpt lat="44.7446949" lon="7.8501798"><ele>367.2857142857143</ele><time>2026-04-10T08:31:12.628Z</time></trkpt><trkpt lat="44.7446431" lon="7.8502308"><ele>367.5714285714286</ele><time>2026-04-10T08:31:16.639Z</time></trkpt><trkpt lat="44.7445958" lon="7.8503084"><ele>367.8571428571429</ele><time>2026-04-10T08:31:20.655Z</time></trkpt><trkpt lat="44.7445453" lon="7.8503857"><ele>368.1428571428571</ele><time>2026-04-10T08:31:24.642Z</time></trkpt><trkpt lat="44.7445071" lon="7.8504652"><ele>368.42857142857144</ele><time>2026-04-10T08:31:29.638Z</time></trkpt><trkpt lat="44.7444552" lon="7.8505417"><ele>368.7142857142857</ele><time>2026-04-10T08:31:33.655Z</time></trkpt><trkpt lat="44.7444092" lon="7.8506277"><ele>369.0</ele><time>2026-04-10T08:31:36.655Z</time></trkpt><trkpt lat="44.7443613" lon="7.8507202"><ele>369.42857142857144</ele><time>2026-04-10T08:31:39.663Z</time></trkpt><trkpt lat="44.7443223" lon="7.8508149"><ele>369.85714285714283</ele><time>2026-04-10T08:31:42.649Z</time></trkpt><trkpt lat="44.7442863" lon="7.8509071"><ele>370.28571428571433</ele><time>2026-04-10T08:31:45.652Z</time></trkpt><trkpt lat="44.7442558" lon="7.8509996"><ele>370.7142857142857</ele><time>2026-04-10T08:31:48.661Z</time></trkpt><trkpt lat="44.7442288" lon="7.851088"><ele>371.14285714285717</ele><time>2026-04-10T08:31:51.663Z</time></trkpt><trkpt lat="44.7441974" lon="7.8511784"><ele>371.5714285714286</ele><time>2026-04-10T08:31:55.672Z</time></trkpt><trkpt lat="44.7441666" lon="7.8512806"><ele>372.0</ele><time>2026-04-10T08:31:59.647Z</time></trkpt><trkpt lat="44.7441212" lon="7.8513582"><ele>372.3333333333333</ele><time>2026-04-10T08:32:03.641Z</time></trkpt><trkpt lat="44.7440652" lon="7.8514424"><ele>372.6666666666667</ele><time>2026-04-10T08:32:07.72Z</time></trkpt><trkpt lat="44.7440381" lon="7.85153"><ele>373.0</ele><time>2026-04-10T08:32:10.647Z</time></trkpt><trkpt lat="44.7440214" lon="7.8516264"><ele>373.33333333333337</ele><time>2026-04-10T08:32:14.642Z</time></trkpt><trkpt lat="44.7440277" lon="7.851743"><ele>373.6666666666667</ele><time>2026-04-10T08:32:18.652Z</time></trkpt><trkpt lat="44.7440183" lon="7.8518396"><ele>374.0</ele><time>2026-04-10T08:32:22.652Z</time></trkpt><trkpt lat="44.7439865" lon="7.851939"><ele>374.1428571428571</ele><time>2026-04-10T08:32:27.665Z</time></trkpt><trkpt lat="44.7439422" lon="7.852024"><ele>374.28571428571433</ele><time>2026-04-10T08:32:31.735Z</time></trkpt><trkpt lat="44.7438904" lon="7.8521101"><ele>374.42857142857144</ele><time>2026-04-10T08:32:35.642Z</time></trkpt><trkpt lat="44.7438505" lon="7.8521894"><ele>374.57142857142856</ele><time>2026-04-10T08:32:39.666Z</time></trkpt><trkpt lat="44.7438168" lon="7.8522934"><ele>374.71428571428567</ele><time>2026-04-10T08:32:43.651Z</time></trkpt><trkpt lat="44.7437718" lon="7.8523764"><ele>374.8571428571429</ele><time>2026-04-10T08:32:47.656Z</time></trkpt><trkpt lat="44.7437417" lon="7.8524601"><ele>375.0</ele><time>2026-04-10T08:32:52.659Z</time></trkpt><trkpt lat="44.7437266" lon="7.8525505"><ele>375.14285714285717</ele><time>2026-04-10T08:32:56.736Z</time></trkpt><trkpt lat="44.7436721" lon="7.852636"><ele>375.2857142857143</ele><time>2026-04-10T08:33:00.659Z</time></trkpt><trkpt lat="44.7436157" lon="7.8527037"><ele>375.42857142857144</ele><time>2026-04-10T08:33:04.651Z</time></trkpt><trkpt lat="44.7435654" lon="7.8527784"><ele>375.57142857142856</ele><time>2026-04-10T08:33:08.655Z</time></trkpt><trkpt lat="44.7435164" lon="7.8528535"><ele>375.71428571428567</ele><time>2026-04-10T08:33:12.644Z</time></trkpt><trkpt lat="44.7434698" lon="7.8529379"><ele>375.85714285714283</ele><time>2026-04-10T08:33:17.664Z</time></trkpt><trkpt lat="44.7434358" lon="7.8530135"><ele>376.0</ele><time>2026-04-10T08:33:21.653Z</time></trkpt><trkpt lat="44.7433868" lon="7.8530818"><ele>376.1428571428571</ele><time>2026-04-10T08:33:26.661Z</time></trkpt><trkpt lat="44.7433335" lon="7.8531468"><ele>376.2857142857143</ele><time>2026-04-10T08:33:56.673Z</time></trkpt><trkpt lat="44.7432746" lon="7.8532129"><ele>376.42857142857144</ele><time>2026-04-10T08:34:03.63Z</time></trkpt><trkpt lat="44.7432051" lon="7.8532335"><ele>376.57142857142856</ele><time>2026-04-10T08:34:07.648Z</time></trkpt><trkpt lat="44.7431159" lon="7.8532373"><ele>376.7142857142857</ele><time>2026-04-10T08:34:11.641Z</time></trkpt><trkpt lat="44.7430466" lon="7.8532438"><ele>376.85714285714283</ele><time>2026-04-10T08:34:14.616Z</time></trkpt><trkpt lat="44.7429738" lon="7.8532378"><ele>377.0</ele><time>2026-04-10T08:34:21.626Z</time></trkpt><trkpt lat="44.7429092" lon="7.8532275"><ele>376.99999999999994</ele><time>2026-04-10T08:34:26.634Z</time></trkpt><trkpt lat="44.7428487" lon="7.8531832"><ele>377.0</ele><time>2026-04-10T08:34:31.635Z</time></trkpt><trkpt lat="44.7427815" lon="7.8531704"><ele>377.0</ele><time>2026-04-10T08:34:36.637Z</time></trkpt><trkpt lat="44.7427216" lon="7.8532235"><ele>377.0</ele><time>2026-04-10T08:34:45.621Z</time></trkpt><trkpt lat="44.7426648" lon="7.8532767"><ele>377.0</ele><time>2026-04-10T08:34:50.631Z</time></trkpt><trkpt lat="44.7425848" lon="7.8533101"><ele>376.99999999999994</ele><time>2026-04-10T08:34:54.634Z</time></trkpt><trkpt lat="44.7425188" lon="7.8532914"><ele>377.0</ele><time>2026-04-10T08:34:56.638Z</time></trkpt><trkpt lat="44.7424577" lon="7.8532529"><ele>377.1428571428571</ele><time>2026-04-10T08:35:00.645Z</time></trkpt><trkpt lat="44.7423977" lon="7.8532135"><ele>377.2857142857143</ele><time>2026-04-10T08:35:07.636Z</time></trkpt><trkpt lat="44.7423219" lon="7.8532297"><ele>377.42857142857144</ele><time>2026-04-10T08:35:14.62Z</time></trkpt><trkpt lat="44.7422475" lon="7.8532544"><ele>377.57142857142856</ele><time>2026-04-10T08:35:18.631Z</time></trkpt><trkpt lat="44.7421785" lon="7.8532811"><ele>377.7142857142857</ele><time>2026-04-10T08:35:21.66Z</time></trkpt><trkpt lat="44.7421128" lon="7.8533014"><ele>377.85714285714283</ele><time>2026-04-10T08:35:24.632Z</time></trkpt><trkpt lat="44.7420355" lon="7.8532846"><ele>378.0</ele><time>2026-04-10T08:35:28.64Z</time></trkpt><trkpt lat="44.7419601" lon="7.8533269"><ele>378.0</ele><time>2026-04-10T08:35:32.628Z</time></trkpt><trkpt lat="44.7418871" lon="7.8533419"><ele>378.0</ele><time>2026-04-10T08:35:35.624Z</time></trkpt><trkpt lat="44.7418225" lon="7.8533308"><ele>378.0</ele><time>2026-04-10T08:35:39.637Z</time></trkpt><trkpt lat="44.7417558" lon="7.8533403"><ele>378.0</ele><time>2026-04-10T08:35:43.631Z</time></trkpt><trkpt lat="44.7416851" lon="7.853328"><ele>378.0</ele><time>2026-04-10T08:35:47.633Z</time></trkpt><trkpt lat="44.7416098" lon="7.8533268"><ele>378.0</ele><time>2026-04-10T08:35:54.641Z</time></trkpt><trkpt lat="44.7415006" lon="7.8533746"><ele>378.57142857142856</ele><time>2026-04-10T08:36:11.63Z</time></trkpt><trkpt lat="44.7414482" lon="7.8534347"><ele>379.1428571428571</ele><time>2026-04-10T08:36:28.647Z</time></trkpt><trkpt lat="44.7413907" lon="7.8534775"><ele>379.7142857142857</ele><time>2026-04-10T08:36:38.632Z</time></trkpt><trkpt lat="44.7413532" lon="7.8535541"><ele>380.2857142857143</ele><time>2026-04-10T08:37:02.63Z</time></trkpt><trkpt lat="44.7413371" lon="7.8536579"><ele>380.85714285714283</ele><time>2026-04-10T08:37:12.651Z</time></trkpt><trkpt lat="44.7413396" lon="7.8537532"><ele>381.42857142857144</ele><time>2026-04-10T08:37:22.677Z</time></trkpt><trkpt lat="44.7413335" lon="7.8538469"><ele>382.0</ele><time>2026-04-10T08:37:28.633Z</time></trkpt><trkpt lat="44.7413302" lon="7.8539537"><ele>382.0</ele><time>2026-04-10T08:37:34.631Z</time></trkpt><trkpt lat="44.7413292" lon="7.8540489"><ele>382.0</ele><time>2026-04-10T08:37:40.654Z</time></trkpt><trkpt lat="44.7412838" lon="7.8541106"><ele>382.0</ele><time>2026-04-10T08:37:47.65Z</time></trkpt><trkpt lat="44.7412127" lon="7.8541595"><ele>382.0</ele><time>2026-04-10T08:37:52.646Z</time></trkpt><trkpt lat="44.7411476" lon="7.8541878"><ele>382.0</ele><time>2026-04-10T08:37:56.638Z</time></trkpt><trkpt lat="44.741077" lon="7.8542218"><ele>382.0</ele><time>2026-04-10T08:38:01.641Z</time></trkpt><trkpt lat="44.7410149" lon="7.8542469"><ele>382.0</ele><time>2026-04-10T08:38:05.663Z</time></trkpt><trkpt lat="44.7409516" lon="7.8542622"><ele>382.5714285714286</ele><time>2026-04-10T08:38:09.643Z</time></trkpt><trkpt lat="44.7408816" lon="7.8542728"><ele>383.1428571428571</ele><time>2026-04-10T08:38:14.671Z</time></trkpt><trkpt lat="44.7408089" lon="7.8542992"><ele>383.7142857142857</ele><time>2026-04-10T08:38:18.654Z</time></trkpt><trkpt lat="44.7407309" lon="7.8543199"><ele>384.28571428571433</ele><time>2026-04-10T08:38:22.639Z</time></trkpt><trkpt lat="44.7406633" lon="7.8543569"><ele>384.8571428571429</ele><time>2026-04-10T08:38:26.636Z</time></trkpt><trkpt lat="44.7406006" lon="7.8543898"><ele>385.42857142857144</ele><time>2026-04-10T08:38:30.621Z</time></trkpt><trkpt lat="44.7405291" lon="7.8544298"><ele>386.0</ele><time>2026-04-10T08:38:34.641Z</time></trkpt><trkpt lat="44.7404542" lon="7.8544699"><ele>386.42857142857144</ele><time>2026-04-10T08:38:41.624Z</time></trkpt><trkpt lat="44.7403814" lon="7.8544761"><ele>386.8571428571429</ele><time>2026-04-10T08:38:46.656Z</time></trkpt><trkpt lat="44.7403082" lon="7.8545047"><ele>387.28571428571433</ele><time>2026-04-10T08:38:50.635Z</time></trkpt><trkpt lat="44.7402463" lon="7.8545622"><ele>387.7142857142857</ele><time>2026-04-10T08:38:55.652Z</time></trkpt><trkpt lat="44.7401953" lon="7.8546189"><ele>388.1428571428571</ele><time>2026-04-10T08:38:58.666Z</time></trkpt><trkpt lat="44.7401405" lon="7.8546628"><ele>388.5714285714286</ele><time>2026-04-10T08:39:02.654Z</time></trkpt><trkpt lat="44.7400726" lon="7.8546917"><ele>389.0</ele><time>2026-04-10T08:41:03.65Z</time></trkpt><trkpt lat="44.7400021" lon="7.8546975"><ele>389.0</ele><time>2026-04-10T08:41:08.656Z</time></trkpt><trkpt lat="44.7399352" lon="7.854727"><ele>389.0</ele><time>2026-04-10T08:41:13.662Z</time></trkpt><trkpt lat="44.7398619" lon="7.8547354"><ele>389.0</ele><time>2026-04-10T08:41:17.651Z</time></trkpt><trkpt lat="44.7397876" lon="7.8547251"><ele>389.0</ele><time>2026-04-10T08:41:21.648Z</time></trkpt><trkpt lat="44.7397241" lon="7.8547387"><ele>389.0</ele><time>2026-04-10T08:41:30.649Z</time></trkpt></trkseg><trkseg><trkpt lat="44.76465" lon="7.853586"><ele>344.00000000000006</ele><time>2026-04-10T09:55:55.636Z</time></trkpt><trkpt lat="44.764646" lon="7.8534831"><ele>344.0</ele><time>2026-04-10T09:55:59.637Z</time></trkpt><trkpt lat="44.7646458" lon="7.853386"><ele>344.0</ele><time>2026-04-10T09:56:03.635Z</time></trkpt><trkpt lat="44.7646266" lon="7.8532948"><ele>344.0</ele><time>2026-04-10T09:56:07.646Z</time></trkpt><trkpt lat="44.7645982" lon="7.8531887"><ele>344.0</ele><time>2026-04-10T09:56:11.626Z</time></trkpt><trkpt lat="44.7645862" lon="7.8530994"><ele>344.00000000000006</ele><time>2026-04-10T09:56:14.657Z</time></trkpt><trkpt lat="44.7645784" lon="7.8530073"><ele>344.0</ele><time>2026-04-10T09:56:17.635Z</time></trkpt><trkpt lat="44.7645591" lon="7.8529109"><ele>344.28571428571433</ele><time>2026-04-10T09:56:20.64Z</time></trkpt><trkpt lat="44.7645251" lon="7.8528256"><ele>344.57142857142856</ele><time>2026-04-10T09:56:24.625Z</time></trkpt><trkpt lat="44.7644728" lon="7.8527675"><ele>344.8571428571429</ele><time>2026-04-10T09:56:29.642Z</time></trkpt><trkpt lat="44.764409" lon="7.8527463"><ele>345.14285714285717</ele><time>2026-04-10T09:56:34.63Z</time></trkpt><trkpt lat="44.7643365" lon="7.852737"><ele>345.42857142857144</ele><time>2026-04-10T09:56:40.645Z</time></trkpt><trkpt lat="44.764269" lon="7.8527458"><ele>345.7142857142857</ele><time>2026-04-10T09:56:44.631Z</time></trkpt><trkpt lat="44.76421" lon="7.8527983"><ele>346.0</ele><time>2026-04-10T09:56:50.632Z</time></trkpt><trkpt lat="44.764164" lon="7.85287"><ele>347.0</ele><time>2026-04-10T09:56:56.616Z</time></trkpt><trkpt lat="44.7641296" lon="7.8529581"><ele>348.0</ele><time>2026-04-10T09:57:02.629Z</time></trkpt><trkpt lat="44.7640801" lon="7.8530557"><ele>349.0</ele><time>2026-04-10T09:57:07.639Z</time></trkpt><trkpt lat="44.7640075" lon="7.8530851"><ele>350.0</ele><time>2026-04-10T09:57:10.661Z</time></trkpt><trkpt lat="44.7639406" lon="7.853064"><ele>351.0</ele><time>2026-04-10T09:57:13.632Z</time></trkpt><trkpt lat="44.7638633" lon="7.8530353"><ele>352.0</ele><time>2026-04-10T09:57:17.635Z</time></trkpt><trkpt lat="44.7638" lon="7.8530509"><ele>353.0</ele><time>2026-04-10T09:57:20.638Z</time></trkpt><trkpt lat="44.7637294" lon="7.8530366"><ele>353.0</ele><time>2026-04-10T09:57:23.639Z</time></trkpt><trkpt lat="44.7636683" lon="7.8530016"><ele>353.0</ele><time>2026-04-10T09:57:26.632Z</time></trkpt><trkpt lat="44.763603" lon="7.8529484"><ele>353.0</ele><time>2026-04-10T09:57:30.657Z</time></trkpt><trkpt lat="44.7635624" lon="7.8528806"><ele>353.0</ele><time>2026-04-10T09:57:33.643Z</time></trkpt><trkpt lat="44.7635222" lon="7.8528074"><ele>353.0</ele><time>2026-04-10T09:57:35.652Z</time></trkpt><trkpt lat="44.7634654" lon="7.8527287"><ele>353.0</ele><time>2026-04-10T09:57:38.638Z</time></trkpt><trkpt lat="44.7634071" lon="7.8526461"><ele>353.0</ele><time>2026-04-10T09:57:43.634Z</time></trkpt><trkpt lat="44.7633484" lon="7.8525907"><ele>352.5</ele><time>2026-04-10T09:57:46.641Z</time></trkpt><trkpt lat="44.7632806" lon="7.8525527"><ele>352.0</ele><time>2026-04-10T09:57:49.642Z</time></trkpt><trkpt lat="44.7631853" lon="7.8524954"><ele>351.5</ele><time>2026-04-10T09:57:52.648Z</time></trkpt><trkpt lat="44.7630919" lon="7.8524353"><ele>351.0</ele><time>2026-04-10T09:57:54.647Z</time></trkpt><trkpt lat="44.7629994" lon="7.8523908"><ele>350.5</ele><time>2026-04-10T09:57:56.633Z</time></trkpt><trkpt lat="44.7629306" lon="7.852369"><ele>350.0</ele><time>2026-04-10T09:57:58.644Z</time></trkpt><trkpt lat="44.7628503" lon="7.8523361"><ele>350.0</ele><time>2026-04-10T09:58:00.663Z</time></trkpt><trkpt lat="44.7627461" lon="7.8523019"><ele>350.0</ele><time>2026-04-10T09:58:02.656Z</time></trkpt><trkpt lat="44.7626301" lon="7.8522504"><ele>350.0</ele><time>2026-04-10T09:58:04.654Z</time></trkpt><trkpt lat="44.7625196" lon="7.8521978"><ele>350.0</ele><time>2026-04-10T09:58:06.638Z</time></trkpt><trkpt lat="44.7624088" lon="7.8521433"><ele>349.0</ele><time>2026-04-10T09:58:08.645Z</time></trkpt><trkpt lat="44.7623147" lon="7.8520807"><ele>348.0</ele><time>2026-04-10T09:58:10.649Z</time></trkpt><trkpt lat="44.762221" lon="7.8520268"><ele>347.0</ele><time>2026-04-10T09:58:12.66Z</time></trkpt><trkpt lat="44.7621585" lon="7.8519972"><ele>346.0</ele><time>2026-04-10T09:58:14.637Z</time></trkpt><trkpt lat="44.7620795" lon="7.8519494"><ele>345.0</ele><time>2026-04-10T09:58:17.641Z</time></trkpt><trkpt lat="44.7620298" lon="7.8518792"><ele>344.0</ele><time>2026-04-10T09:58:26.645Z</time></trkpt><trkpt lat="44.7619916" lon="7.8518038"><ele>344.00000000000006</ele><time>2026-04-10T09:59:15.631Z</time></trkpt><trkpt lat="44.7619238" lon="7.8518366"><ele>344.0</ele><time>2026-04-10T10:00:03.628Z</time></trkpt><trkpt lat="44.7618629" lon="7.8518034"><ele>344.0</ele><time>2026-04-10T10:00:08.681Z</time></trkpt><trkpt lat="44.7617878" lon="7.8517574"><ele>344.0</ele><time>2026-04-10T10:00:12.653Z</time></trkpt><trkpt lat="44.7617242" lon="7.8517181"><ele>344.0</ele><time>2026-04-10T10:00:15.641Z</time></trkpt><trkpt lat="44.7616559" lon="7.8516797"><ele>344.00000000000006</ele><time>2026-04-10T10:00:19.645Z</time></trkpt><trkpt lat="44.7615811" lon="7.8516443"><ele>344.0</ele><time>2026-04-10T10:00:23.642Z</time></trkpt><trkpt lat="44.7615176" lon="7.8516298"><ele>344.33333333333337</ele><time>2026-04-10T10:00:26.628Z</time></trkpt><trkpt lat="44.7614334" lon="7.8515793"><ele>344.6666666666667</ele><time>2026-04-10T10:00:29.656Z</time></trkpt><trkpt lat="44.7613593" lon="7.8515386"><ele>345.0</ele><time>2026-04-10T10:00:32.643Z</time></trkpt><trkpt lat="44.7612936" lon="7.8515023"><ele>345.3333333333333</ele><time>2026-04-10T10:00:35.644Z</time></trkpt><trkpt lat="44.7612327" lon="7.8514706"><ele>345.66666666666663</ele><time>2026-04-10T10:00:38.65Z</time></trkpt><trkpt lat="44.7611586" lon="7.8514512"><ele>346.0</ele><time>2026-04-10T10:00:41.661Z</time></trkpt><trkpt lat="44.7610812" lon="7.8514503"><ele>347.5</ele><time>2026-04-10T10:00:44.666Z</time></trkpt><trkpt lat="44.7609962" lon="7.8514519"><ele>349.0</ele><time>2026-04-10T10:00:47.642Z</time></trkpt><trkpt lat="44.7609276" lon="7.8514843"><ele>350.5</ele><time>2026-04-10T10:00:50.653Z</time></trkpt><trkpt lat="44.7608582" lon="7.8515025"><ele>352.0</ele><time>2026-04-10T10:00:53.632Z</time></trkpt><trkpt lat="44.7607758" lon="7.8515284"><ele>353.5</ele><time>2026-04-10T10:00:56.629Z</time></trkpt><trkpt lat="44.7607041" lon="7.851554"><ele>355.0</ele><time>2026-04-10T10:00:59.64Z</time></trkpt><trkpt lat="44.7606237" lon="7.851582"><ele>355.0</ele><time>2026-04-10T10:01:02.652Z</time></trkpt><trkpt lat="44.7605487" lon="7.8516151"><ele>355.0</ele><time>2026-04-10T10:01:05.64Z</time></trkpt><trkpt lat="44.7604802" lon="7.85167"><ele>355.0</ele><time>2026-04-10T10:01:08.644Z</time></trkpt><trkpt lat="44.7604119" lon="7.85174"><ele>355.0</ele><time>2026-04-10T10:01:11.639Z</time></trkpt><trkpt lat="44.7603561" lon="7.8517869"><ele>355.0</ele><time>2026-04-10T10:01:13.639Z</time></trkpt><trkpt lat="44.7602887" lon="7.8518299"><ele>355.0</ele><time>2026-04-10T10:01:15.632Z</time></trkpt><trkpt lat="44.7602262" lon="7.8518647"><ele>355.0</ele><time>2026-04-10T10:01:17.654Z</time></trkpt><trkpt lat="44.7601653" lon="7.8518963"><ele>356.16666666666663</ele><time>2026-04-10T10:01:19.649Z</time></trkpt><trkpt lat="44.7600827" lon="7.8519124"><ele>357.3333333333333</ele><time>2026-04-10T10:01:22.639Z</time></trkpt><trkpt lat="44.7599949" lon="7.8519014"><ele>358.5</ele><time>2026-04-10T10:01:25.637Z</time></trkpt><trkpt lat="44.7599037" lon="7.8519134"><ele>359.6666666666667</ele><time>2026-04-10T10:01:28.643Z</time></trkpt><trkpt lat="44.7598171" lon="7.8519212"><ele>360.83333333333337</ele><time>2026-04-10T10:01:31.629Z</time></trkpt><trkpt lat="44.7597528" lon="7.851921"><ele>362.0</ele><time>2026-04-10T10:01:34.651Z</time></trkpt><trkpt lat="44.7596828" lon="7.8519416"><ele>362.0</ele><time>2026-04-10T10:01:39.647Z</time></trkpt><trkpt lat="44.7596052" lon="7.851959"><ele>362.0</ele><time>2026-04-10T10:01:43.631Z</time></trkpt><trkpt lat="44.7595379" lon="7.8519455"><ele>362.0</ele><time>2026-04-10T10:01:46.651Z</time></trkpt><trkpt lat="44.7594699" lon="7.8518934"><ele>362.0</ele><time>2026-04-10T10:01:50.635Z</time></trkpt><trkpt lat="44.7594074" lon="7.8518222"><ele>362.0</ele><time>2026-04-10T10:01:55.634Z</time></trkpt><trkpt lat="44.7593377" lon="7.8517626"><ele>362.0</ele><time>2026-04-10T10:01:59.643Z</time></trkpt><trkpt lat="44.7592822" lon="7.8517204"><ele>362.0</ele><time>2026-04-10T10:02:02.632Z</time></trkpt><trkpt lat="44.7592315" lon="7.8516614"><ele>362.57142857142856</ele><time>2026-04-10T10:02:05.635Z</time></trkpt><trkpt lat="44.7591604" lon="7.8516232"><ele>363.1428571428571</ele><time>2026-04-10T10:02:09.637Z</time></trkpt><trkpt lat="44.7590913" lon="7.8516077"><ele>363.7142857142857</ele><time>2026-04-10T10:02:13.632Z</time></trkpt><trkpt lat="44.759027" lon="7.8516097"><ele>364.2857142857143</ele><time>2026-04-10T10:02:16.652Z</time></trkpt><trkpt lat="44.7589535" lon="7.8516195"><ele>364.8571428571429</ele><time>2026-04-10T10:02:20.631Z</time></trkpt><trkpt lat="44.7589069" lon="7.8515517"><ele>365.42857142857144</ele><time>2026-04-10T10:02:26.642Z</time></trkpt><trkpt lat="44.7588715" lon="7.8514771"><ele>366.0</ele><time>2026-04-10T10:02:29.631Z</time></trkpt><trkpt lat="44.7588279" lon="7.8513937"><ele>366.0</ele><time>2026-04-10T10:02:33.636Z</time></trkpt><trkpt lat="44.7587781" lon="7.8513295"><ele>366.0</ele><time>2026-04-10T10:02:36.648Z</time></trkpt><trkpt lat="44.7587276" lon="7.8512457"><ele>366.0</ele><time>2026-04-10T10:02:39.637Z</time></trkpt><trkpt lat="44.758691" lon="7.8511521"><ele>366.0</ele><time>2026-04-10T10:02:42.627Z</time></trkpt><trkpt lat="44.7586579" lon="7.85107"><ele>366.0</ele><time>2026-04-10T10:02:45.654Z</time></trkpt><trkpt lat="44.7586144" lon="7.8509845"><ele>366.0</ele><time>2026-04-10T10:02:52.638Z</time></trkpt><trkpt lat="44.7585491" lon="7.8509508"><ele>366.0</ele><time>2026-04-10T10:02:56.64Z</time></trkpt><trkpt lat="44.7584836" lon="7.8508943"><ele>367.14285714285717</ele><time>2026-04-10T10:03:00.652Z</time></trkpt><trkpt lat="44.7584346" lon="7.8508248"><ele>368.28571428571433</ele><time>2026-04-10T10:03:04.638Z</time></trkpt><trkpt lat="44.7583934" lon="7.8507442"><ele>369.42857142857144</ele><time>2026-04-10T10:03:09.638Z</time></trkpt><trkpt lat="44.7583411" lon="7.8506892"><ele>370.57142857142856</ele><time>2026-04-10T10:03:13.631Z</time></trkpt><trkpt lat="44.758276" lon="7.850668"><ele>371.7142857142857</ele><time>2026-04-10T10:03:17.637Z</time></trkpt><trkpt lat="44.7582245" lon="7.8506059"><ele>372.85714285714283</ele><time>2026-04-10T10:03:21.657Z</time></trkpt><trkpt lat="44.7581675" lon="7.8505484"><ele>374.0</ele><time>2026-04-10T10:03:25.657Z</time></trkpt><trkpt lat="44.7580981" lon="7.8505129"><ele>374.0</ele><time>2026-04-10T10:03:30.66Z</time></trkpt><trkpt lat="44.7580358" lon="7.8504955"><ele>374.0</ele><time>2026-04-10T10:03:35.623Z</time></trkpt><trkpt lat="44.7579754" lon="7.8504568"><ele>374.0</ele><time>2026-04-10T10:03:40.626Z</time></trkpt><trkpt lat="44.7579118" lon="7.850466"><ele>374.0</ele><time>2026-04-10T10:03:45.632Z</time></trkpt><trkpt lat="44.7578448" lon="7.8504326"><ele>374.0</ele><time>2026-04-10T10:03:52.626Z</time></trkpt><trkpt lat="44.7577803" lon="7.8504128"><ele>374.0</ele><time>2026-04-10T10:03:57.68Z</time></trkpt><trkpt lat="44.7577231" lon="7.8503755"><ele>374.0</ele><time>2026-04-10T10:04:01.642Z</time></trkpt><trkpt lat="44.7576563" lon="7.8503551"><ele>374.1428571428571</ele><time>2026-04-10T10:04:07.655Z</time></trkpt><trkpt lat="44.757606" lon="7.8502983"><ele>374.28571428571433</ele><time>2026-04-10T10:04:11.648Z</time></trkpt><trkpt lat="44.7575514" lon="7.8502127"><ele>374.42857142857144</ele><time>2026-04-10T10:04:15.643Z</time></trkpt><trkpt lat="44.7575029" lon="7.850131"><ele>374.57142857142856</ele><time>2026-04-10T10:04:19.648Z</time></trkpt><trkpt lat="44.7574498" lon="7.850069"><ele>374.71428571428567</ele><time>2026-04-10T10:04:24.653Z</time></trkpt><trkpt lat="44.7574139" lon="7.8499946"><ele>374.8571428571429</ele><time>2026-04-10T10:04:28.64Z</time></trkpt><trkpt lat="44.7573639" lon="7.8499107"><ele>375.0</ele><time>2026-04-10T10:04:33.632Z</time></trkpt><trkpt lat="44.7573172" lon="7.8498386"><ele>375.0</ele><time>2026-04-10T10:04:38.645Z</time></trkpt><trkpt lat="44.7572491" lon="7.8498203"><ele>375.0</ele><time>2026-04-10T10:04:42.629Z</time></trkpt><trkpt lat="44.757183" lon="7.8498623"><ele>375.0</ele><time>2026-04-10T10:04:46.624Z</time></trkpt><trkpt lat="44.7571217" lon="7.8499075"><ele>375.0</ele><time>2026-04-10T10:04:50.65Z</time></trkpt><trkpt lat="44.7570494" lon="7.8499591"><ele>375.0</ele><time>2026-04-10T10:04:54.624Z</time></trkpt><trkpt lat="44.7569927" lon="7.8500042"><ele>375.0</ele><time>2026-04-10T10:04:57.66Z</time></trkpt><trkpt lat="44.7569417" lon="7.8500866"><ele>375.0</ele><time>2026-04-10T10:05:01.635Z</time></trkpt><trkpt lat="44.7569121" lon="7.850166"><ele>375.0</ele><time>2026-04-10T10:05:04.637Z</time></trkpt><trkpt lat="44.7568813" lon="7.8502474"><ele>375.0</ele><time>2026-04-10T10:05:07.638Z</time></trkpt><trkpt lat="44.7568471" lon="7.8503544"><ele>375.0</ele><time>2026-04-10T10:05:10.631Z</time></trkpt><trkpt lat="44.7568205" lon="7.8504753"><ele>375.0</ele><time>2026-04-10T10:05:13.635Z</time></trkpt><trkpt lat="44.7568122" lon="7.8505862"><ele>375.0</ele><time>2026-04-10T10:05:16.636Z</time></trkpt><trkpt lat="44.7568059" lon="7.8506914"><ele>375.0</ele><time>2026-04-10T10:05:19.66Z</time></trkpt><trkpt lat="44.7567975" lon="7.850814"><ele>375.0</ele><time>2026-04-10T10:05:22.639Z</time></trkpt><trkpt lat="44.7568049" lon="7.8509412"><ele>375.0</ele><time>2026-04-10T10:05:25.695Z</time></trkpt><trkpt lat="44.7568161" lon="7.8510736"><ele>375.0</ele><time>2026-04-10T10:05:28.642Z</time></trkpt><trkpt lat="44.7568228" lon="7.8512027"><ele>375.0</ele><time>2026-04-10T10:05:31.643Z</time></trkpt><trkpt lat="44.7568259" lon="7.8512928"><ele>375.0</ele><time>2026-04-10T10:05:33.65Z</time></trkpt><trkpt lat="44.7568238" lon="7.8513877"><ele>375.0</ele><time>2026-04-10T10:05:35.643Z</time></trkpt><trkpt lat="44.7568222" lon="7.8514874"><ele>375.0</ele><time>2026-04-10T10:05:37.637Z</time></trkpt><trkpt lat="44.756822" lon="7.8516207"><ele>375.0</ele><time>2026-04-10T10:05:40.648Z</time></trkpt><trkpt lat="44.7568168" lon="7.8517506"><ele>375.0</ele><time>2026-04-10T10:05:43.655Z</time></trkpt><trkpt lat="44.7568138" lon="7.851864"><ele>375.0</ele><time>2026-04-10T10:05:46.647Z</time></trkpt><trkpt lat="44.7568033" lon="7.8519791"><ele>375.0</ele><time>2026-04-10T10:05:49.655Z</time></trkpt><trkpt lat="44.7567822" lon="7.8520992"><ele>375.0</ele><time>2026-04-10T10:05:52.64Z</time></trkpt><trkpt lat="44.7567651" lon="7.8522236"><ele>375.6666666666667</ele><time>2026-04-10T10:05:55.65Z</time></trkpt><trkpt lat="44.7567599" lon="7.8523155"><ele>376.3333333333333</ele><time>2026-04-10T10:05:57.647Z</time></trkpt><trkpt lat="44.7567501" lon="7.8524131"><ele>377.0</ele><time>2026-04-10T10:05:59.651Z</time></trkpt><trkpt lat="44.7567449" lon="7.8525182"><ele>377.66666666666663</ele><time>2026-04-10T10:06:01.666Z</time></trkpt><trkpt lat="44.7567473" lon="7.852629"><ele>378.3333333333333</ele><time>2026-04-10T10:06:03.64Z</time></trkpt><trkpt lat="44.7567647" lon="7.8527455"><ele>379.0</ele><time>2026-04-10T10:06:05.659Z</time></trkpt><trkpt lat="44.7567938" lon="7.852858"><ele>379.3333333333333</ele><time>2026-04-10T10:06:07.653Z</time></trkpt><trkpt lat="44.7568105" lon="7.8529863"><ele>379.66666666666663</ele><time>2026-04-10T10:06:09.634Z</time></trkpt><trkpt lat="44.7568113" lon="7.8531025"><ele>380.0</ele><time>2026-04-10T10:06:11.64Z</time></trkpt><trkpt lat="44.7567957" lon="7.8532033"><ele>380.3333333333333</ele><time>2026-04-10T10:06:13.653Z</time></trkpt><trkpt lat="44.7567824" lon="7.8533038"><ele>380.6666666666667</ele><time>2026-04-10T10:06:15.642Z</time></trkpt><trkpt lat="44.7567645" lon="7.853411"><ele>381.0</ele><time>2026-04-10T10:06:17.634Z</time></trkpt><trkpt lat="44.7567422" lon="7.8535058"><ele>381.5</ele><time>2026-04-10T10:06:19.699Z</time></trkpt><trkpt lat="44.7567099" lon="7.8536179"><ele>382.0</ele><time>2026-04-10T10:06:22.635Z</time></trkpt><trkpt lat="44.7566749" lon="7.8537103"><ele>382.5</ele><time>2026-04-10T10:06:24.657Z</time></trkpt><trkpt lat="44.7566361" lon="7.8538299"><ele>383.0</ele><time>2026-04-10T10:06:27.655Z</time></trkpt><trkpt lat="44.7566087" lon="7.8539269"><ele>383.5</ele><time>2026-04-10T10:06:30.654Z</time></trkpt><trkpt lat="44.7565982" lon="7.8540187"><ele>384.0</ele><time>2026-04-10T10:06:33.648Z</time></trkpt><trkpt lat="44.7565824" lon="7.8541169"><ele>384.0</ele><time>2026-04-10T10:06:36.64Z</time></trkpt><trkpt lat="44.7565587" lon="7.8542359"><ele>384.0</ele><time>2026-04-10T10:06:39.642Z</time></trkpt><trkpt lat="44.7565427" lon="7.8543456"><ele>384.0</ele><time>2026-04-10T10:06:42.642Z</time></trkpt><trkpt lat="44.7565158" lon="7.8544422"><ele>384.0</ele><time>2026-04-10T10:06:45.639Z</time></trkpt><trkpt lat="44.7564694" lon="7.8545303"><ele>384.0</ele><time>2026-04-10T10:06:48.631Z</time></trkpt><trkpt lat="44.7564216" lon="7.8546175"><ele>384.0</ele><time>2026-04-10T10:06:51.638Z</time></trkpt><trkpt lat="44.7563764" lon="7.8547027"><ele>383.99999999999994</ele><time>2026-04-10T10:06:54.649Z</time></trkpt><trkpt lat="44.756345" lon="7.8547942"><ele>384.0</ele><time>2026-04-10T10:06:58.636Z</time></trkpt><trkpt lat="44.7563097" lon="7.8548837"><ele>384.0</ele><time>2026-04-10T10:07:03.645Z</time></trkpt><trkpt lat="44.7562647" lon="7.8549695"><ele>384.0</ele><time>2026-04-10T10:07:08.655Z</time></trkpt><trkpt lat="44.756218" lon="7.855041"><ele>384.0</ele><time>2026-04-10T10:07:12.631Z</time></trkpt><trkpt lat="44.7561577" lon="7.8551039"><ele>383.99999999999994</ele><time>2026-04-10T10:07:15.637Z</time></trkpt><trkpt lat="44.7561027" lon="7.8551555"><ele>384.0</ele><time>2026-04-10T10:07:18.656Z</time></trkpt><trkpt lat="44.7560461" lon="7.8552214"><ele>384.5</ele><time>2026-04-10T10:07:21.637Z</time></trkpt><trkpt lat="44.7559784" lon="7.8552948"><ele>385.0</ele><time>2026-04-10T10:07:24.654Z</time></trkpt><trkpt lat="44.7559167" lon="7.8553653"><ele>385.5</ele><time>2026-04-10T10:07:28.645Z</time></trkpt><trkpt lat="44.7558635" lon="7.8554479"><ele>386.0</ele><time>2026-04-10T10:07:32.635Z</time></trkpt><trkpt lat="44.7558261" lon="7.8555264"><ele>386.5</ele><time>2026-04-10T10:07:35.663Z</time></trkpt><trkpt lat="44.7557828" lon="7.8556103"><ele>387.0</ele><time>2026-04-10T10:07:38.633Z</time></trkpt><trkpt lat="44.7557608" lon="7.8557056"><ele>387.0</ele><time>2026-04-10T10:07:41.649Z</time></trkpt><trkpt lat="44.7557243" lon="7.8558139"><ele>387.0</ele><time>2026-04-10T10:07:44.665Z</time></trkpt><trkpt lat="44.7556797" lon="7.8559189"><ele>387.0</ele><time>2026-04-10T10:07:47.634Z</time></trkpt><trkpt lat="44.7556358" lon="7.8560242"><ele>387.0</ele><time>2026-04-10T10:07:50.635Z</time></trkpt><trkpt lat="44.755604" lon="7.8561308"><ele>387.0</ele><time>2026-04-10T10:07:53.643Z</time></trkpt><trkpt lat="44.7555695" lon="7.8562467"><ele>387.0</ele><time>2026-04-10T10:07:56.661Z</time></trkpt><trkpt lat="44.7555401" lon="7.8563702"><ele>387.14285714285717</ele><time>2026-04-10T10:07:59.645Z</time></trkpt><trkpt lat="44.7555095" lon="7.856452"><ele>387.28571428571433</ele><time>2026-04-10T10:08:01.654Z</time></trkpt><trkpt lat="44.7554743" lon="7.8565619"><ele>387.42857142857144</ele><time>2026-04-10T10:08:04.661Z</time></trkpt><trkpt lat="44.7554472" lon="7.8566465"><ele>387.57142857142856</ele><time>2026-04-10T10:08:06.636Z</time></trkpt><trkpt lat="44.7554191" lon="7.8567301"><ele>387.7142857142857</ele><time>2026-04-10T10:08:08.629Z</time></trkpt><trkpt lat="44.7553935" lon="7.8568116"><ele>387.85714285714283</ele><time>2026-04-10T10:08:10.645Z</time></trkpt><trkpt lat="44.7553663" lon="7.8568927"><ele>388.0</ele><time>2026-04-10T10:08:12.627Z</time></trkpt><trkpt lat="44.755342" lon="7.8569882"><ele>387.50000000000006</ele><time>2026-04-10T10:08:15.639Z</time></trkpt><trkpt lat="44.7553552" lon="7.8570835"><ele>387.0</ele><time>2026-04-10T10:08:22.63Z</time></trkpt><trkpt lat="44.7554277" lon="7.8571463"><ele>386.5</ele><time>2026-04-10T10:08:26.639Z</time></trkpt><trkpt lat="44.755527" lon="7.8571663"><ele>386.0</ele><time>2026-04-10T10:08:29.661Z</time></trkpt><trkpt lat="44.7556178" lon="7.8571791"><ele>385.50000000000006</ele><time>2026-04-10T10:08:31.649Z</time></trkpt><trkpt lat="44.755698" lon="7.857175"><ele>385.0</ele><time>2026-04-10T10:08:33.642Z</time></trkpt><trkpt lat="44.7557752" lon="7.8571334"><ele>385.00000000000006</ele><time>2026-04-10T10:08:35.644Z</time></trkpt><trkpt lat="44.7558611" lon="7.8570877"><ele>385.0</ele><time>2026-04-10T10:08:37.649Z</time></trkpt><trkpt lat="44.7559358" lon="7.8570581"><ele>385.0</ele><time>2026-04-10T10:08:39.66Z</time></trkpt><trkpt lat="44.7560238" lon="7.8570366"><ele>385.0</ele><time>2026-04-10T10:08:41.641Z</time></trkpt><trkpt lat="44.7561043" lon="7.8570359"><ele>385.00000000000006</ele><time>2026-04-10T10:08:43.655Z</time></trkpt><trkpt lat="44.7561865" lon="7.8570394"><ele>385.0</ele><time>2026-04-10T10:08:45.657Z</time></trkpt><trkpt lat="44.7562807" lon="7.8570424"><ele>384.4</ele><time>2026-04-10T10:08:47.634Z</time></trkpt><trkpt lat="44.7563854" lon="7.8570147"><ele>383.8</ele><time>2026-04-10T10:08:49.67Z</time></trkpt><trkpt lat="44.7564967" lon="7.8569714"><ele>383.20000000000005</ele><time>2026-04-10T10:08:51.654Z</time></trkpt><trkpt lat="44.7565707" lon="7.8569068"><ele>382.6</ele><time>2026-04-10T10:08:53.652Z</time></trkpt><trkpt lat="44.7566075" lon="7.8568308"><ele>382.0</ele><time>2026-04-10T10:08:55.643Z</time></trkpt><trkpt lat="44.7566828" lon="7.8567533"><ele>382.0</ele><time>2026-04-10T10:08:58.654Z</time></trkpt><trkpt lat="44.7567528" lon="7.8567217"><ele>382.0</ele><time>2026-04-10T10:09:00.654Z</time></trkpt><trkpt lat="44.7568323" lon="7.8566584"><ele>382.0</ele><time>2026-04-10T10:09:02.629Z</time></trkpt><trkpt lat="44.7569046" lon="7.8565745"><ele>382.0</ele><time>2026-04-10T10:09:04.651Z</time></trkpt><trkpt lat="44.7569608" lon="7.8565186"><ele>382.0</ele><time>2026-04-10T10:09:06.642Z</time></trkpt><trkpt lat="44.7570263" lon="7.8564467"><ele>382.0</ele><time>2026-04-10T10:09:10.647Z</time></trkpt><trkpt lat="44.7570945" lon="7.8564177"><ele>380.42857142857144</ele><time>2026-04-10T10:09:14.645Z</time></trkpt><trkpt lat="44.7571802" lon="7.8563915"><ele>378.85714285714283</ele><time>2026-04-10T10:09:18.647Z</time></trkpt><trkpt lat="44.7572374" lon="7.8563269"><ele>377.2857142857143</ele><time>2026-04-10T10:09:21.636Z</time></trkpt><trkpt lat="44.7572808" lon="7.8562507"><ele>375.7142857142857</ele><time>2026-04-10T10:09:24.644Z</time></trkpt><trkpt lat="44.7572959" lon="7.8561561"><ele>374.1428571428571</ele><time>2026-04-10T10:09:28.642Z</time></trkpt><trkpt lat="44.7572426" lon="7.8560958"><ele>372.57142857142856</ele><time>2026-04-10T10:09:32.639Z</time></trkpt><trkpt lat="44.757182" lon="7.8560486"><ele>371.0</ele><time>2026-04-10T10:09:35.64Z</time></trkpt><trkpt lat="44.7572008" lon="7.8559467"><ele>371.0</ele><time>2026-04-10T10:09:41.623Z</time></trkpt><trkpt lat="44.7572569" lon="7.855855"><ele>371.0</ele><time>2026-04-10T10:09:44.635Z</time></trkpt><trkpt lat="44.7572931" lon="7.8557786"><ele>371.0</ele><time>2026-04-10T10:09:46.652Z</time></trkpt><trkpt lat="44.7573325" lon="7.8556802"><ele>371.0</ele><time>2026-04-10T10:09:48.654Z</time></trkpt><trkpt lat="44.7574037" lon="7.8555512"><ele>371.0</ele><time>2026-04-10T10:09:50.635Z</time></trkpt><trkpt lat="44.7574916" lon="7.8554401"><ele>371.0</ele><time>2026-04-10T10:09:52.641Z</time></trkpt><trkpt lat="44.7575435" lon="7.8553724"><ele>371.0</ele><time>2026-04-10T10:09:54.651Z</time></trkpt><trkpt lat="44.7575874" lon="7.8552913"><ele>371.0</ele><time>2026-04-10T10:09:56.658Z</time></trkpt><trkpt lat="44.7576296" lon="7.8552063"><ele>371.0</ele><time>2026-04-10T10:09:58.647Z</time></trkpt><trkpt lat="44.757705" lon="7.8551756"><ele>371.0</ele><time>2026-04-10T10:10:00.638Z</time></trkpt><trkpt lat="44.7577725" lon="7.8551843"><ele>371.0</ele><time>2026-04-10T10:10:02.633Z</time></trkpt><trkpt lat="44.7578467" lon="7.8551972"><ele>371.0</ele><time>2026-04-10T10:10:04.656Z</time></trkpt><trkpt lat="44.7579219" lon="7.8552127"><ele>370.33333333333337</ele><time>2026-04-10T10:10:06.67Z</time></trkpt><trkpt lat="44.7579918" lon="7.8552403"><ele>369.6666666666667</ele><time>2026-04-10T10:10:08.662Z</time></trkpt><trkpt lat="44.7580557" lon="7.8552765"><ele>369.0</ele><time>2026-04-10T10:10:10.651Z</time></trkpt><trkpt lat="44.7581314" lon="7.8553107"><ele>368.3333333333333</ele><time>2026-04-10T10:10:13.646Z</time></trkpt><trkpt lat="44.7581996" lon="7.8553282"><ele>367.66666666666663</ele><time>2026-04-10T10:10:16.635Z</time></trkpt><trkpt lat="44.7582915" lon="7.8553267"><ele>367.0</ele><time>2026-04-10T10:10:19.65Z</time></trkpt><trkpt lat="44.7583739" lon="7.855295"><ele>367.0</ele><time>2026-04-10T10:10:22.634Z</time></trkpt><trkpt lat="44.7584375" lon="7.8552482"><ele>367.0</ele><time>2026-04-10T10:10:25.641Z</time></trkpt><trkpt lat="44.7585033" lon="7.8551975"><ele>367.0</ele><time>2026-04-10T10:10:28.635Z</time></trkpt><trkpt lat="44.758568" lon="7.8551595"><ele>367.0</ele><time>2026-04-10T10:10:31.649Z</time></trkpt><trkpt lat="44.7586366" lon="7.8551148"><ele>367.0</ele><time>2026-04-10T10:10:34.657Z</time></trkpt><trkpt lat="44.7587127" lon="7.8550745"><ele>367.0</ele><time>2026-04-10T10:10:37.643Z</time></trkpt><trkpt lat="44.7587731" lon="7.8550274"><ele>367.0</ele><time>2026-04-10T10:10:40.661Z</time></trkpt><trkpt lat="44.7588383" lon="7.8549879"><ele>367.2857142857143</ele><time>2026-04-10T10:10:43.632Z</time></trkpt><trkpt lat="44.7589" lon="7.8549551"><ele>367.5714285714286</ele><time>2026-04-10T10:10:47.625Z</time></trkpt><trkpt lat="44.7589635" lon="7.8549009"><ele>367.8571428571429</ele><time>2026-04-10T10:10:52.638Z</time></trkpt><trkpt lat="44.759029" lon="7.8548444"><ele>368.1428571428571</ele><time>2026-04-10T10:10:56.629Z</time></trkpt><trkpt lat="44.7590865" lon="7.8547958"><ele>368.42857142857144</ele><time>2026-04-10T10:11:00.668Z</time></trkpt><trkpt lat="44.7591592" lon="7.8547608"><ele>368.7142857142857</ele><time>2026-04-10T10:11:05.644Z</time></trkpt><trkpt lat="44.7592246" lon="7.8547533"><ele>369.0</ele><time>2026-04-10T10:11:09.662Z</time></trkpt><trkpt lat="44.7592897" lon="7.8547253"><ele>369.0</ele><time>2026-04-10T10:11:13.647Z</time></trkpt><trkpt lat="44.7593671" lon="7.8547201"><ele>369.0</ele><time>2026-04-10T10:11:18.647Z</time></trkpt><trkpt lat="44.7594361" lon="7.8547149"><ele>369.0</ele><time>2026-04-10T10:11:23.641Z</time></trkpt><trkpt lat="44.7595023" lon="7.8546932"><ele>369.0</ele><time>2026-04-10T10:11:29.642Z</time></trkpt><trkpt lat="44.7595675" lon="7.854666"><ele>369.0</ele><time>2026-04-10T10:11:34.652Z</time></trkpt><trkpt lat="44.7596369" lon="7.8546908"><ele>369.0</ele><time>2026-04-10T10:11:39.651Z</time></trkpt><trkpt lat="44.7596754" lon="7.8548064"><ele>369.0</ele><time>2026-04-10T10:11:44.644Z</time></trkpt><trkpt lat="44.7596537" lon="7.8548955"><ele>369.0</ele><time>2026-04-10T10:11:47.642Z</time></trkpt><trkpt lat="44.7596292" lon="7.8549793"><ele>369.0</ele><time>2026-04-10T10:11:51.634Z</time></trkpt><trkpt lat="44.7595915" lon="7.8550643"><ele>369.0</ele><time>2026-04-10T10:11:55.649Z</time></trkpt><trkpt lat="44.7595564" lon="7.8551623"><ele>369.0</ele><time>2026-04-10T10:12:00.649Z</time></trkpt><trkpt lat="44.7595129" lon="7.85525"><ele>369.0</ele><time>2026-04-10T10:12:04.657Z</time></trkpt><trkpt lat="44.7594779" lon="7.8553486"><ele>369.0</ele><time>2026-04-10T10:12:07.643Z</time></trkpt><trkpt lat="44.7594358" lon="7.8554343"><ele>369.0</ele><time>2026-04-10T10:12:10.655Z</time></trkpt><trkpt lat="44.759407" lon="7.8555478"><ele>369.2857142857143</ele><time>2026-04-10T10:12:14.65Z</time></trkpt><trkpt lat="44.7593735" lon="7.8556409"><ele>369.57142857142856</ele><time>2026-04-10T10:12:17.638Z</time></trkpt><trkpt lat="44.7593498" lon="7.8557353"><ele>369.8571428571429</ele><time>2026-04-10T10:12:20.656Z</time></trkpt><trkpt lat="44.7593248" lon="7.8558206"><ele>370.1428571428571</ele><time>2026-04-10T10:12:23.683Z</time></trkpt><trkpt lat="44.7593028" lon="7.8559152"><ele>370.42857142857144</ele><time>2026-04-10T10:12:26.64Z</time></trkpt><trkpt lat="44.7592668" lon="7.8560206"><ele>370.7142857142857</ele><time>2026-04-10T10:12:29.64Z</time></trkpt><trkpt lat="44.7592336" lon="7.8561288"><ele>371.0</ele><time>2026-04-10T10:12:32.672Z</time></trkpt><trkpt lat="44.7591933" lon="7.8562428"><ele>372.33333333333337</ele><time>2026-04-10T10:12:35.64Z</time></trkpt><trkpt lat="44.7591538" lon="7.8563618"><ele>373.6666666666667</ele><time>2026-04-10T10:12:38.637Z</time></trkpt><trkpt lat="44.7591285" lon="7.8564448"><ele>375.0</ele><time>2026-04-10T10:12:40.633Z</time></trkpt><trkpt lat="44.7590929" lon="7.8565649"><ele>376.3333333333333</ele><time>2026-04-10T10:12:43.666Z</time></trkpt><trkpt lat="44.7590636" lon="7.856694"><ele>377.66666666666663</ele><time>2026-04-10T10:12:46.634Z</time></trkpt><trkpt lat="44.7590378" lon="7.8567809"><ele>379.0</ele><time>2026-04-10T10:12:48.655Z</time></trkpt><trkpt lat="44.759013" lon="7.8568661"><ele>379.28571428571433</ele><time>2026-04-10T10:12:50.644Z</time></trkpt><trkpt lat="44.7589869" lon="7.8569506"><ele>379.57142857142856</ele><time>2026-04-10T10:12:52.652Z</time></trkpt><trkpt lat="44.7589566" lon="7.8570369"><ele>379.8571428571429</ele><time>2026-04-10T10:12:54.647Z</time></trkpt><trkpt lat="44.7589221" lon="7.8571263"><ele>380.14285714285717</ele><time>2026-04-10T10:12:56.644Z</time></trkpt><trkpt lat="44.7588902" lon="7.8572239"><ele>380.42857142857144</ele><time>2026-04-10T10:12:58.657Z</time></trkpt><trkpt lat="44.7588579" lon="7.8573154"><ele>380.7142857142857</ele><time>2026-04-10T10:13:00.629Z</time></trkpt><trkpt lat="44.7588307" lon="7.8574044"><ele>381.0</ele><time>2026-04-10T10:13:02.633Z</time></trkpt><trkpt lat="44.7588024" lon="7.8574986"><ele>381.0</ele><time>2026-04-10T10:13:04.649Z</time></trkpt><trkpt lat="44.7587727" lon="7.8575873"><ele>381.0</ele><time>2026-04-10T10:13:06.656Z</time></trkpt><trkpt lat="44.7587436" lon="7.8576767"><ele>381.0</ele><time>2026-04-10T10:13:08.656Z</time></trkpt><trkpt lat="44.758715" lon="7.8577666"><ele>381.0</ele><time>2026-04-10T10:13:10.639Z</time></trkpt><trkpt lat="44.7586889" lon="7.857858"><ele>381.0</ele><time>2026-04-10T10:13:12.639Z</time></trkpt><trkpt lat="44.7586491" lon="7.8579716"><ele>381.0</ele><time>2026-04-10T10:13:15.637Z</time></trkpt><trkpt lat="44.7586169" lon="7.8580843"><ele>381.3333333333333</ele><time>2026-04-10T10:13:18.644Z</time></trkpt><trkpt lat="44.758589" lon="7.8581981"><ele>381.6666666666667</ele><time>2026-04-10T10:13:21.644Z</time></trkpt><trkpt lat="44.758558" lon="7.8582928"><ele>382.0</ele><time>2026-04-10T10:13:24.642Z</time></trkpt><trkpt lat="44.7585072" lon="7.858405"><ele>382.33333333333337</ele><time>2026-04-10T10:13:27.643Z</time></trkpt><trkpt lat="44.7584795" lon="7.8584848"><ele>382.6666666666667</ele><time>2026-04-10T10:13:29.65Z</time></trkpt><trkpt lat="44.7584325" lon="7.8585937"><ele>383.0</ele><time>2026-04-10T10:13:32.653Z</time></trkpt><trkpt lat="44.7583802" lon="7.8587018"><ele>383.33333333333337</ele><time>2026-04-10T10:13:35.634Z</time></trkpt><trkpt lat="44.7583547" lon="7.8587882"><ele>383.6666666666667</ele><time>2026-04-10T10:13:37.649Z</time></trkpt><trkpt lat="44.758325" lon="7.8588989"><ele>384.0</ele><time>2026-04-10T10:13:40.645Z</time></trkpt><trkpt lat="44.7582885" lon="7.8590046"><ele>384.33333333333337</ele><time>2026-04-10T10:13:43.63Z</time></trkpt><trkpt lat="44.758258" lon="7.859109"><ele>384.6666666666667</ele><time>2026-04-10T10:13:46.635Z</time></trkpt><trkpt lat="44.7582222" lon="7.8592172"><ele>385.0</ele><time>2026-04-10T10:13:49.633Z</time></trkpt><trkpt lat="44.7581903" lon="7.8593207"><ele>385.00000000000006</ele><time>2026-04-10T10:13:52.661Z</time></trkpt><trkpt lat="44.7581556" lon="7.8594326"><ele>385.0</ele><time>2026-04-10T10:13:55.635Z</time></trkpt><trkpt lat="44.7581124" lon="7.8595547"><ele>385.0</ele><time>2026-04-10T10:13:58.645Z</time></trkpt><trkpt lat="44.7580702" lon="7.8596743"><ele>385.0</ele><time>2026-04-10T10:14:01.659Z</time></trkpt><trkpt lat="44.7580386" lon="7.8597693"><ele>385.00000000000006</ele><time>2026-04-10T10:14:04.656Z</time></trkpt><trkpt lat="44.7580079" lon="7.8598749"><ele>385.0</ele><time>2026-04-10T10:14:07.66Z</time></trkpt><trkpt lat="44.7579706" lon="7.859971"><ele>385.00000000000006</ele><time>2026-04-10T10:14:10.652Z</time></trkpt><trkpt lat="44.7579357" lon="7.8600635"><ele>385.0</ele><time>2026-04-10T10:14:13.644Z</time></trkpt><trkpt lat="44.7578894" lon="7.8601688"><ele>385.0</ele><time>2026-04-10T10:14:16.629Z</time></trkpt><trkpt lat="44.7578277" lon="7.8602683"><ele>385.0</ele><time>2026-04-10T10:14:19.646Z</time></trkpt><trkpt lat="44.7577601" lon="7.8603729"><ele>385.00000000000006</ele><time>2026-04-10T10:14:22.681Z</time></trkpt><trkpt lat="44.7577168" lon="7.8604386"><ele>385.0</ele><time>2026-04-10T10:14:24.645Z</time></trkpt><trkpt lat="44.7576682" lon="7.8604973"><ele>385.50000000000006</ele><time>2026-04-10T10:14:26.651Z</time></trkpt><trkpt lat="44.757597" lon="7.8605703"><ele>386.0</ele><time>2026-04-10T10:14:29.63Z</time></trkpt><trkpt lat="44.7575429" lon="7.8606192"><ele>386.5</ele><time>2026-04-10T10:14:31.639Z</time></trkpt><trkpt lat="44.7574855" lon="7.8606625"><ele>387.0</ele><time>2026-04-10T10:14:33.638Z</time></trkpt><trkpt lat="44.7574147" lon="7.8607286"><ele>387.50000000000006</ele><time>2026-04-10T10:14:36.643Z</time></trkpt><trkpt lat="44.7573435" lon="7.8608077"><ele>388.0</ele><time>2026-04-10T10:14:39.641Z</time></trkpt><trkpt lat="44.75729" lon="7.8608546"><ele>388.00000000000006</ele><time>2026-04-10T10:14:41.634Z</time></trkpt><trkpt lat="44.7572105" lon="7.8608965"><ele>388.0</ele><time>2026-04-10T10:14:44.645Z</time></trkpt><trkpt lat="44.7571485" lon="7.8609234"><ele>388.0</ele><time>2026-04-10T10:14:47.643Z</time></trkpt><trkpt lat="44.7570823" lon="7.8609463"><ele>388.0</ele><time>2026-04-10T10:14:50.632Z</time></trkpt><trkpt lat="44.7569992" lon="7.8609796"><ele>388.00000000000006</ele><time>2026-04-10T10:14:53.701Z</time></trkpt><trkpt lat="44.7569179" lon="7.8609987"><ele>388.0</ele><time>2026-04-10T10:14:56.648Z</time></trkpt><trkpt lat="44.7568439" lon="7.8610194"><ele>387.7142857142857</ele><time>2026-04-10T10:14:59.652Z</time></trkpt><trkpt lat="44.7567671" lon="7.8610363"><ele>387.42857142857144</ele><time>2026-04-10T10:15:02.646Z</time></trkpt><trkpt lat="44.7566718" lon="7.8610505"><ele>387.14285714285717</ele><time>2026-04-10T10:15:05.641Z</time></trkpt><trkpt lat="44.7566072" lon="7.8610646"><ele>386.8571428571429</ele><time>2026-04-10T10:15:07.64Z</time></trkpt><trkpt lat="44.7565447" lon="7.861084"><ele>386.57142857142856</ele><time>2026-04-10T10:15:09.641Z</time></trkpt><trkpt lat="44.7564728" lon="7.8611074"><ele>386.28571428571433</ele><time>2026-04-10T10:15:11.632Z</time></trkpt><trkpt lat="44.7564047" lon="7.8611364"><ele>386.0</ele><time>2026-04-10T10:15:13.646Z</time></trkpt><trkpt lat="44.756316" lon="7.8611876"><ele>385.99999999999994</ele><time>2026-04-10T10:15:16.638Z</time></trkpt><trkpt lat="44.7562517" lon="7.8612234"><ele>386.0</ele><time>2026-04-10T10:15:18.644Z</time></trkpt><trkpt lat="44.7561763" lon="7.861272"><ele>386.0</ele><time>2026-04-10T10:15:21.658Z</time></trkpt><trkpt lat="44.756098" lon="7.8613244"><ele>386.0</ele><time>2026-04-10T10:15:24.661Z</time></trkpt><trkpt lat="44.7560058" lon="7.8613702"><ele>385.99999999999994</ele><time>2026-04-10T10:15:27.63Z</time></trkpt><trkpt lat="44.7559449" lon="7.8613996"><ele>386.0</ele><time>2026-04-10T10:15:29.648Z</time></trkpt><trkpt lat="44.7558567" lon="7.8614232"><ele>386.49999999999994</ele><time>2026-04-10T10:15:32.643Z</time></trkpt><trkpt lat="44.7557897" lon="7.8614522"><ele>387.0</ele><time>2026-04-10T10:15:34.655Z</time></trkpt><trkpt lat="44.7557269" lon="7.8614718"><ele>387.5</ele><time>2026-04-10T10:15:36.649Z</time></trkpt><trkpt lat="44.7556545" lon="7.8615105"><ele>388.0</ele><time>2026-04-10T10:15:39.651Z</time></trkpt><trkpt lat="44.7555791" lon="7.8615731"><ele>388.49999999999994</ele><time>2026-04-10T10:15:42.648Z</time></trkpt><trkpt lat="44.755526" lon="7.8616229"><ele>389.0</ele><time>2026-04-10T10:15:44.644Z</time></trkpt><trkpt lat="44.7554568" lon="7.8617011"><ele>389.0</ele><time>2026-04-10T10:15:47.648Z</time></trkpt><trkpt lat="44.7554023" lon="7.8617552"><ele>389.0</ele><time>2026-04-10T10:15:49.636Z</time></trkpt><trkpt lat="44.7553283" lon="7.8618326"><ele>389.0</ele><time>2026-04-10T10:15:52.659Z</time></trkpt><trkpt lat="44.7552747" lon="7.8618894"><ele>389.0</ele><time>2026-04-10T10:15:54.656Z</time></trkpt><trkpt lat="44.7552138" lon="7.8619286"><ele>389.0</ele><time>2026-04-10T10:15:56.641Z</time></trkpt><trkpt lat="44.7551568" lon="7.8619715"><ele>389.0</ele><time>2026-04-10T10:15:58.637Z</time></trkpt><trkpt lat="44.7551056" lon="7.8620273"><ele>389.0</ele><time>2026-04-10T10:16:00.623Z</time></trkpt><trkpt lat="44.7550518" lon="7.8620796"><ele>389.0</ele><time>2026-04-10T10:16:02.644Z</time></trkpt><trkpt lat="44.7549908" lon="7.8621243"><ele>389.0</ele><time>2026-04-10T10:16:04.637Z</time></trkpt><trkpt lat="44.7557897" lon="7.8614522"><ele>389.0</ele><time>2026-04-10T10:15:34.655Z</time></trkpt><trkpt lat="44.7557269" lon="7.8614718"><ele>389.0</ele><time>2026-04-10T10:15:36.649Z</time></trkpt><trkpt lat="44.7556545" lon="7.8615105"><ele>389.0</ele><time>2026-04-10T10:15:39.651Z</time></trkpt><trkpt lat="44.7555791" lon="7.8615731"><ele>389.0</ele><time>2026-04-10T10:15:42.648Z</time></trkpt><trkpt lat="44.755526" lon="7.8616229"><ele>389.0</ele><time>2026-04-10T10:15:44.644Z</time></trkpt><trkpt lat="44.7554568" lon="7.8617011"><ele>389.0</ele><time>2026-04-10T10:15:47.648Z</time></trkpt><trkpt lat="44.7554023" lon="7.8617552"><ele>389.0</ele><time>2026-04-10T10:15:49.636Z</time></trkpt><trkpt lat="44.7553283" lon="7.8618326"><ele>389.2857142857143</ele><time>2026-04-10T10:15:52.659Z</time></trkpt><trkpt lat="44.7552747" lon="7.8618894"><ele>389.57142857142856</ele><time>2026-04-10T10:15:54.656Z</time></trkpt><trkpt lat="44.7552138" lon="7.8619286"><ele>389.85714285714283</ele><time>2026-04-10T10:15:56.641Z</time></trkpt><trkpt lat="44.7551568" lon="7.8619715"><ele>390.1428571428571</ele><time>2026-04-10T10:15:58.637Z</time></trkpt><trkpt lat="44.7551056" lon="7.8620273"><ele>390.42857142857144</ele><time>2026-04-10T10:16:00.623Z</time></trkpt><trkpt lat="44.7550518" lon="7.8620796"><ele>390.71428571428567</ele><time>2026-04-10T10:16:02.644Z</time></trkpt><trkpt lat="44.7549908" lon="7.8621243"><ele>391.0</ele><time>2026-04-10T10:16:04.637Z</time></trkpt><trkpt lat="44.7549193" lon="7.8622115"><ele>391.00000000000006</ele><time>2026-04-10T10:16:07.657Z</time></trkpt><trkpt lat="44.7548578" lon="7.8623046"><ele>391.0</ele><time>2026-04-10T10:16:10.63Z</time></trkpt><trkpt lat="44.7547883" lon="7.8623967"><ele>391.0</ele><time>2026-04-10T10:16:13.636Z</time></trkpt><trkpt lat="44.7547386" lon="7.8624569"><ele>391.0</ele><time>2026-04-10T10:16:15.642Z</time></trkpt><trkpt lat="44.7546826" lon="7.8625103"><ele>391.00000000000006</ele><time>2026-04-10T10:16:17.649Z</time></trkpt><trkpt lat="44.7546206" lon="7.8625525"><ele>391.0</ele><time>2026-04-10T10:16:19.651Z</time></trkpt><trkpt lat="44.7545621" lon="7.8626137"><ele>390.6666666666667</ele><time>2026-04-10T10:16:21.66Z</time></trkpt><trkpt lat="44.7545141" lon="7.8626738"><ele>390.33333333333337</ele><time>2026-04-10T10:16:23.643Z</time></trkpt><trkpt lat="44.7544647" lon="7.8627305"><ele>390.0</ele><time>2026-04-10T10:16:25.65Z</time></trkpt><trkpt lat="44.754412" lon="7.8628221"><ele>389.66666666666663</ele><time>2026-04-10T10:16:28.63Z</time></trkpt><trkpt lat="44.7543437" lon="7.8629084"><ele>389.3333333333333</ele><time>2026-04-10T10:16:31.654Z</time></trkpt><trkpt lat="44.7542895" lon="7.8629795"><ele>389.0</ele><time>2026-04-10T10:16:34.649Z</time></trkpt><trkpt lat="44.7542287" lon="7.8630777"><ele>389.66666666666663</ele><time>2026-04-10T10:16:37.66Z</time></trkpt><trkpt lat="44.7541846" lon="7.8631447"><ele>390.3333333333333</ele><time>2026-04-10T10:16:39.651Z</time></trkpt><trkpt lat="44.7541296" lon="7.8632064"><ele>391.0</ele><time>2026-04-10T10:16:41.647Z</time></trkpt><trkpt lat="44.7540814" lon="7.86327"><ele>391.66666666666663</ele><time>2026-04-10T10:16:43.653Z</time></trkpt><trkpt lat="44.7540194" lon="7.8633587"><ele>392.3333333333333</ele><time>2026-04-10T10:16:46.649Z</time></trkpt><trkpt lat="44.7539693" lon="7.8634794"><ele>393.0</ele><time>2026-04-10T10:16:49.682Z</time></trkpt><trkpt lat="44.7539169" lon="7.8635478"><ele>393.0</ele><time>2026-04-10T10:16:51.645Z</time></trkpt><trkpt lat="44.7538456" lon="7.8636092"><ele>393.0</ele><time>2026-04-10T10:16:53.648Z</time></trkpt><trkpt lat="44.7537913" lon="7.863672"><ele>393.0</ele><time>2026-04-10T10:16:55.628Z</time></trkpt><trkpt lat="44.7537205" lon="7.8637086"><ele>393.0</ele><time>2026-04-10T10:16:57.632Z</time></trkpt><trkpt lat="44.7536471" lon="7.8637437"><ele>393.0</ele><time>2026-04-10T10:16:59.632Z</time></trkpt><trkpt lat="44.7535708" lon="7.8637575"><ele>393.0</ele><time>2026-04-10T10:17:01.638Z</time></trkpt><trkpt lat="44.7534871" lon="7.8637739"><ele>393.5</ele><time>2026-04-10T10:17:04.637Z</time></trkpt><trkpt lat="44.7534003" lon="7.863774"><ele>394.0</ele><time>2026-04-10T10:17:07.645Z</time></trkpt><trkpt lat="44.7533265" lon="7.8637822"><ele>394.5</ele><time>2026-04-10T10:17:10.633Z</time></trkpt><trkpt lat="44.7532611" lon="7.8638154"><ele>395.0</ele><time>2026-04-10T10:17:14.66Z</time></trkpt><trkpt lat="44.7531864" lon="7.8638472"><ele>395.5</ele><time>2026-04-10T10:17:18.643Z</time></trkpt><trkpt lat="44.7531025" lon="7.8638645"><ele>396.0</ele><time>2026-04-10T10:17:22.642Z</time></trkpt><trkpt lat="44.7530193" lon="7.8638918"><ele>396.0</ele><time>2026-04-10T10:17:25.666Z</time></trkpt><trkpt lat="44.7529459" lon="7.8638994"><ele>396.0</ele><time>2026-04-10T10:17:28.636Z</time></trkpt><trkpt lat="44.7528795" lon="7.8639063"><ele>396.0</ele><time>2026-04-10T10:17:34.638Z</time></trkpt><trkpt lat="44.752796" lon="7.8639087"><ele>396.0</ele><time>2026-04-10T10:17:38.656Z</time></trkpt><trkpt lat="44.7527315" lon="7.8639268"><ele>396.0</ele><time>2026-04-10T10:17:41.639Z</time></trkpt><trkpt lat="44.7526652" lon="7.8639469"><ele>396.0</ele><time>2026-04-10T10:17:44.66Z</time></trkpt><trkpt lat="44.7525983" lon="7.8639743"><ele>396.0</ele><time>2026-04-10T10:17:47.66Z</time></trkpt><trkpt lat="44.7525272" lon="7.8639916"><ele>396.0</ele><time>2026-04-10T10:17:50.636Z</time></trkpt><trkpt lat="44.7524351" lon="7.8640003"><ele>396.0</ele><time>2026-04-10T10:17:53.654Z</time></trkpt><trkpt lat="44.7523421" lon="7.8640189"><ele>396.0</ele><time>2026-04-10T10:17:56.629Z</time></trkpt><trkpt lat="44.7522793" lon="7.8640295"><ele>396.0</ele><time>2026-04-10T10:17:58.667Z</time></trkpt><trkpt lat="44.7521927" lon="7.8640529"><ele>396.0</ele><time>2026-04-10T10:18:01.645Z</time></trkpt><trkpt lat="44.7521161" lon="7.8640617"><ele>396.0</ele><time>2026-04-10T10:18:04.629Z</time></trkpt><trkpt lat="44.7520326" lon="7.864076"><ele>396.0</ele><time>2026-04-10T10:18:07.661Z</time></trkpt><trkpt lat="44.7519524" lon="7.8640891"><ele>396.0</ele><time>2026-04-10T10:18:10.656Z</time></trkpt><trkpt lat="44.7518649" lon="7.8640886"><ele>396.0</ele><time>2026-04-10T10:18:13.641Z</time></trkpt><trkpt lat="44.7517742" lon="7.8640761"><ele>396.0</ele><time>2026-04-10T10:18:16.637Z</time></trkpt><trkpt lat="44.7517223" lon="7.8640182"><ele>396.0</ele><time>2026-04-10T10:18:19.647Z</time></trkpt><trkpt lat="44.7516977" lon="7.8639154"><ele>396.0</ele><time>2026-04-10T10:18:22.638Z</time></trkpt><trkpt lat="44.7516836" lon="7.8638182"><ele>396.1666666666667</ele><time>2026-04-10T10:18:24.648Z</time></trkpt><trkpt lat="44.7516771" lon="7.8637189"><ele>396.33333333333337</ele><time>2026-04-10T10:18:26.648Z</time></trkpt><trkpt lat="44.7516661" lon="7.8636158"><ele>396.5</ele><time>2026-04-10T10:18:28.655Z</time></trkpt><trkpt lat="44.7516533" lon="7.8635174"><ele>396.6666666666667</ele><time>2026-04-10T10:18:30.651Z</time></trkpt><trkpt lat="44.7516458" lon="7.8634069"><ele>396.83333333333337</ele><time>2026-04-10T10:18:32.651Z</time></trkpt><trkpt lat="44.751635" lon="7.8632634"><ele>397.0</ele><time>2026-04-10T10:18:34.642Z</time></trkpt><trkpt lat="44.751615" lon="7.8631356"><ele>396.83333333333337</ele><time>2026-04-10T10:18:36.638Z</time></trkpt><trkpt lat="44.7516028" lon="7.8630179"><ele>396.6666666666667</ele><time>2026-04-10T10:18:38.655Z</time></trkpt><trkpt lat="44.7515849" lon="7.8629101"><ele>396.5</ele><time>2026-04-10T10:18:41.641Z</time></trkpt><trkpt lat="44.7515624" lon="7.8628188"><ele>396.33333333333337</ele><time>2026-04-10T10:18:44.652Z</time></trkpt><trkpt lat="44.7515753" lon="7.8627211"><ele>396.1666666666667</ele><time>2026-04-10T10:18:49.643Z</time></trkpt><trkpt lat="44.7516059" lon="7.8626331"><ele>396.0</ele><time>2026-04-10T10:18:53.643Z</time></trkpt><trkpt lat="44.7516405" lon="7.8625321"><ele>396.0</ele><time>2026-04-10T10:18:57.655Z</time></trkpt><trkpt lat="44.7516769" lon="7.8624534"><ele>396.0</ele><time>2026-04-10T10:19:00.656Z</time></trkpt><trkpt lat="44.7517254" lon="7.8623795"><ele>396.0</ele><time>2026-04-10T10:19:02.641Z</time></trkpt><trkpt lat="44.7517682" lon="7.8622766"><ele>396.0</ele><time>2026-04-10T10:19:04.644Z</time></trkpt><trkpt lat="44.7517914" lon="7.8621576"><ele>396.0</ele><time>2026-04-10T10:19:06.642Z</time></trkpt><trkpt lat="44.7517848" lon="7.8620091"><ele>396.0</ele><time>2026-04-10T10:19:08.65Z</time></trkpt><trkpt lat="44.7517741" lon="7.8618813"><ele>396.0</ele><time>2026-04-10T10:19:10.66Z</time></trkpt><trkpt lat="44.7517371" lon="7.8617883"><ele>396.0</ele><time>2026-04-10T10:19:12.654Z</time></trkpt><trkpt lat="44.7516933" lon="7.861675"><ele>396.0</ele><time>2026-04-10T10:19:15.657Z</time></trkpt><trkpt lat="44.751663" lon="7.8615591"><ele>396.0</ele><time>2026-04-10T10:19:18.644Z</time></trkpt><trkpt lat="44.7516124" lon="7.861456"><ele>396.0</ele><time>2026-04-10T10:19:21.652Z</time></trkpt><trkpt lat="44.7515729" lon="7.8613368"><ele>396.0</ele><time>2026-04-10T10:19:24.643Z</time></trkpt><trkpt lat="44.7515611" lon="7.8612144"><ele>396.1666666666667</ele><time>2026-04-10T10:19:27.665Z</time></trkpt><trkpt lat="44.75153" lon="7.8611023"><ele>396.33333333333337</ele><time>2026-04-10T10:19:30.652Z</time></trkpt><trkpt lat="44.7514748" lon="7.8610041"><ele>396.5</ele><time>2026-04-10T10:19:33.663Z</time></trkpt><trkpt lat="44.7514402" lon="7.860927"><ele>396.6666666666667</ele><time>2026-04-10T10:19:35.658Z</time></trkpt><trkpt lat="44.7514196" lon="7.8607981"><ele>396.83333333333337</ele><time>2026-04-10T10:19:38.644Z</time></trkpt><trkpt lat="44.7514026" lon="7.8607039"><ele>397.0</ele><time>2026-04-10T10:19:40.654Z</time></trkpt><trkpt lat="44.7513827" lon="7.8606021"><ele>396.40000000000003</ele><time>2026-04-10T10:19:42.657Z</time></trkpt><trkpt lat="44.7513427" lon="7.8604972"><ele>395.8</ele><time>2026-04-10T10:19:44.64Z</time></trkpt><trkpt lat="44.7512998" lon="7.8603838"><ele>395.2</ele><time>2026-04-10T10:19:46.653Z</time></trkpt><trkpt lat="44.7512487" lon="7.8602446"><ele>394.6</ele><time>2026-04-10T10:19:48.643Z</time></trkpt><trkpt lat="44.7512191" lon="7.8601165"><ele>394.0</ele><time>2026-04-10T10:19:50.64Z</time></trkpt><trkpt lat="44.7512257" lon="7.8599584"><ele>393.4</ele><time>2026-04-10T10:19:52.651Z</time></trkpt><trkpt lat="44.7512189" lon="7.8598625"><ele>392.79999999999995</ele><time>2026-04-10T10:19:53.645Z</time></trkpt><trkpt lat="44.7512128" lon="7.859774"><ele>392.20000000000005</ele><time>2026-04-10T10:19:54.639Z</time></trkpt><trkpt lat="44.7511971" lon="7.8596132"><ele>391.6</ele><time>2026-04-10T10:19:56.652Z</time></trkpt><trkpt lat="44.7511605" lon="7.8594727"><ele>391.0</ele><time>2026-04-10T10:19:58.657Z</time></trkpt><trkpt lat="44.7511403" lon="7.8593261"><ele>390.1666666666667</ele><time>2026-04-10T10:20:00.662Z</time></trkpt><trkpt lat="44.7511374" lon="7.8592128"><ele>389.33333333333337</ele><time>2026-04-10T10:20:02.646Z</time></trkpt><trkpt lat="44.7511561" lon="7.8591058"><ele>388.5</ele><time>2026-04-10T10:20:04.634Z</time></trkpt><trkpt lat="44.7511814" lon="7.8589898"><ele>387.66666666666663</ele><time>2026-04-10T10:20:06.659Z</time></trkpt><trkpt lat="44.7512173" lon="7.8588832"><ele>386.8333333333333</ele><time>2026-04-10T10:20:08.644Z</time></trkpt><trkpt lat="44.7512272" lon="7.8587369"><ele>386.0</ele><time>2026-04-10T10:20:10.689Z</time></trkpt><trkpt lat="44.7512161" lon="7.8586172"><ele>386.0</ele><time>2026-04-10T10:20:12.648Z</time></trkpt><trkpt lat="44.7512037" lon="7.858481"><ele>386.0</ele><time>2026-04-10T10:20:14.643Z</time></trkpt><trkpt lat="44.7512112" lon="7.8583484"><ele>386.0</ele><time>2026-04-10T10:20:16.658Z</time></trkpt><trkpt lat="44.7511966" lon="7.8582098"><ele>386.0</ele><time>2026-04-10T10:20:18.646Z</time></trkpt><trkpt lat="44.751172" lon="7.8580856"><ele>386.0</ele><time>2026-04-10T10:20:20.647Z</time></trkpt><trkpt lat="44.7511483" lon="7.8579654"><ele>385.8333333333333</ele><time>2026-04-10T10:20:22.63Z</time></trkpt><trkpt lat="44.7511444" lon="7.8578543"><ele>385.66666666666663</ele><time>2026-04-10T10:20:24.64Z</time></trkpt><trkpt lat="44.7511615" lon="7.8577579"><ele>385.5</ele><time>2026-04-10T10:20:26.643Z</time></trkpt><trkpt lat="44.7511755" lon="7.8576647"><ele>385.33333333333337</ele><time>2026-04-10T10:20:28.633Z</time></trkpt><trkpt lat="44.7511882" lon="7.8575421"><ele>385.1666666666667</ele><time>2026-04-10T10:20:31.652Z</time></trkpt><trkpt lat="44.7512055" lon="7.8574239"><ele>385.0</ele><time>2026-04-10T10:20:34.624Z</time></trkpt><trkpt lat="44.7512298" lon="7.8572958"><ele>384.6</ele><time>2026-04-10T10:20:37.653Z</time></trkpt><trkpt lat="44.7512521" lon="7.8571638"><ele>384.2</ele><time>2026-04-10T10:20:39.654Z</time></trkpt><trkpt lat="44.7512592" lon="7.8570274"><ele>383.79999999999995</ele><time>2026-04-10T10:20:41.653Z</time></trkpt><trkpt lat="44.7512715" lon="7.8568813"><ele>383.4</ele><time>2026-04-10T10:20:43.681Z</time></trkpt><trkpt lat="44.7512619" lon="7.8567923"><ele>383.0</ele><time>2026-04-10T10:20:44.648Z</time></trkpt><trkpt lat="44.7512697" lon="7.8566209"><ele>382.0</ele><time>2026-04-10T10:20:46.66Z</time></trkpt><trkpt lat="44.7512956" lon="7.8564522"><ele>381.0</ele><time>2026-04-10T10:20:48.633Z</time></trkpt><trkpt lat="44.7513328" lon="7.8562914"><ele>380.0</ele><time>2026-04-10T10:20:50.638Z</time></trkpt><trkpt lat="44.7513563" lon="7.8561757"><ele>379.0</ele><time>2026-04-10T10:20:52.659Z</time></trkpt><trkpt lat="44.7513853" lon="7.8560605"><ele>378.0</ele><time>2026-04-10T10:20:54.641Z</time></trkpt><trkpt lat="44.7514172" lon="7.8559347"><ele>377.6666666666667</ele><time>2026-04-10T10:20:56.648Z</time></trkpt><trkpt lat="44.7514383" lon="7.8558185"><ele>377.3333333333333</ele><time>2026-04-10T10:20:58.7Z</time></trkpt><trkpt lat="44.7514711" lon="7.8556906"><ele>377.0</ele><time>2026-04-10T10:21:00.654Z</time></trkpt><trkpt lat="44.7515177" lon="7.8555744"><ele>376.66666666666663</ele><time>2026-04-10T10:21:02.661Z</time></trkpt><trkpt lat="44.7515623" lon="7.855462"><ele>376.3333333333333</ele><time>2026-04-10T10:21:04.651Z</time></trkpt><trkpt lat="44.7516052" lon="7.8553672"><ele>376.0</ele><time>2026-04-10T10:21:06.635Z</time></trkpt><trkpt lat="44.7516475" lon="7.8552606"><ele>376.0</ele><time>2026-04-10T10:21:09.633Z</time></trkpt><trkpt lat="44.7516577" lon="7.8551697"><ele>376.0</ele><time>2026-04-10T10:21:11.643Z</time></trkpt><trkpt lat="44.7516733" lon="7.8550427"><ele>376.0</ele><time>2026-04-10T10:21:14.654Z</time></trkpt><trkpt lat="44.7517063" lon="7.8549657"><ele>376.0</ele><time>2026-04-10T10:21:16.642Z</time></trkpt><trkpt lat="44.7517505" lon="7.8548905"><ele>376.0</ele><time>2026-04-10T10:21:18.652Z</time></trkpt><trkpt lat="44.751819" lon="7.8548158"><ele>376.0</ele><time>2026-04-10T10:21:21.655Z</time></trkpt><trkpt lat="44.7518673" lon="7.8547135"><ele>373.0</ele><time>2026-04-10T10:21:24.643Z</time></trkpt><trkpt lat="44.7518883" lon="7.8545952"><ele>370.0</ele><time>2026-04-10T10:21:27.67Z</time></trkpt><trkpt lat="44.7518949" lon="7.854466"><ele>367.0</ele><time>2026-04-10T10:21:30.64Z</time></trkpt><trkpt lat="44.751905" lon="7.8543785"><ele>364.0</ele><time>2026-04-10T10:21:32.641Z</time></trkpt><trkpt lat="44.7519328" lon="7.8542835"><ele>361.0</ele><time>2026-04-10T10:21:35.656Z</time></trkpt><trkpt lat="44.7519624" lon="7.8541853"><ele>358.0</ele><time>2026-04-10T10:21:40.643Z</time></trkpt><trkpt lat="44.7519819" lon="7.8540981"><ele>357.66666666666663</ele><time>2026-04-10T10:21:45.662Z</time></trkpt><trkpt lat="44.7520212" lon="7.8540185"><ele>357.3333333333333</ele><time>2026-04-10T10:21:48.654Z</time></trkpt><trkpt lat="44.7520962" lon="7.8539698"><ele>357.0</ele><time>2026-04-10T10:21:51.632Z</time></trkpt><trkpt lat="44.7521778" lon="7.8539526"><ele>356.6666666666667</ele><time>2026-04-10T10:21:54.645Z</time></trkpt><trkpt lat="44.7522457" lon="7.8539811"><ele>356.33333333333337</ele><time>2026-04-10T10:21:57.637Z</time></trkpt><trkpt lat="44.752314" lon="7.8540454"><ele>356.0</ele><time>2026-04-10T10:22:01.658Z</time></trkpt><trkpt lat="44.7523673" lon="7.8539636"><ele>356.0</ele><time>2026-04-10T10:22:05.657Z</time></trkpt><trkpt lat="44.7523621" lon="7.8538326"><ele>356.0</ele><time>2026-04-10T10:22:08.627Z</time></trkpt><trkpt lat="44.7523618" lon="7.8537217"><ele>356.0</ele><time>2026-04-10T10:22:11.641Z</time></trkpt><trkpt lat="44.7523603" lon="7.8536277"><ele>356.0</ele><time>2026-04-10T10:22:14.641Z</time></trkpt><trkpt lat="44.7523615" lon="7.8535177"><ele>356.0</ele><time>2026-04-10T10:22:17.64Z</time></trkpt><trkpt lat="44.7523577" lon="7.8534144"><ele>356.0</ele><time>2026-04-10T10:22:20.653Z</time></trkpt><trkpt lat="44.7523267" lon="7.8533093"><ele>355.6666666666667</ele><time>2026-04-10T10:22:23.654Z</time></trkpt><trkpt lat="44.7522884" lon="7.853185"><ele>355.33333333333337</ele><time>2026-04-10T10:22:26.642Z</time></trkpt><trkpt lat="44.7522468" lon="7.8530697"><ele>355.0</ele><time>2026-04-10T10:22:28.641Z</time></trkpt><trkpt lat="44.7522035" lon="7.8529689"><ele>354.6666666666667</ele><time>2026-04-10T10:22:30.638Z</time></trkpt><trkpt lat="44.75214" lon="7.8529073"><ele>354.3333333333333</ele><time>2026-04-10T10:22:32.644Z</time></trkpt><trkpt lat="44.7520673" lon="7.8528689"><ele>354.0</ele><time>2026-04-10T10:22:34.641Z</time></trkpt><trkpt lat="44.7519896" lon="7.8528536"><ele>354.0</ele><time>2026-04-10T10:22:36.649Z</time></trkpt><trkpt lat="44.7519222" lon="7.8528626"><ele>354.0</ele><time>2026-04-10T10:22:38.639Z</time></trkpt><trkpt lat="44.7518514" lon="7.8528852"><ele>354.0</ele><time>2026-04-10T10:22:40.636Z</time></trkpt><trkpt lat="44.751787" lon="7.8529244"><ele>354.0</ele><time>2026-04-10T10:22:42.624Z</time></trkpt><trkpt lat="44.7516957" lon="7.8529529"><ele>354.0</ele><time>2026-04-10T10:22:44.66Z</time></trkpt><trkpt lat="44.7515777" lon="7.8530039"><ele>354.0</ele><time>2026-04-10T10:22:46.646Z</time></trkpt><trkpt lat="44.7514755" lon="7.8530342"><ele>353.5</ele><time>2026-04-10T10:22:48.647Z</time></trkpt><trkpt lat="44.75137" lon="7.8530534"><ele>353.0</ele><time>2026-04-10T10:22:50.634Z</time></trkpt><trkpt lat="44.7512982" lon="7.8530938"><ele>352.5</ele><time>2026-04-10T10:22:52.628Z</time></trkpt><trkpt lat="44.7512236" lon="7.8531317"><ele>352.0</ele><time>2026-04-10T10:22:54.64Z</time></trkpt><trkpt lat="44.7511561" lon="7.853188"><ele>351.5</ele><time>2026-04-10T10:22:56.64Z</time></trkpt><trkpt lat="44.7511024" lon="7.8532698"><ele>351.0</ele><time>2026-04-10T10:22:58.637Z</time></trkpt><trkpt lat="44.7510539" lon="7.8533614"><ele>350.8333333333333</ele><time>2026-04-10T10:23:00.65Z</time></trkpt><trkpt lat="44.7510057" lon="7.8534628"><ele>350.6666666666667</ele><time>2026-04-10T10:23:02.628Z</time></trkpt><trkpt lat="44.7509565" lon="7.8535757"><ele>350.5</ele><time>2026-04-10T10:23:04.636Z</time></trkpt><trkpt lat="44.750889" lon="7.8536647"><ele>350.33333333333337</ele><time>2026-04-10T10:23:06.649Z</time></trkpt><trkpt lat="44.7508255" lon="7.8537476"><ele>350.1666666666667</ele><time>2026-04-10T10:23:08.634Z</time></trkpt><trkpt lat="44.7507685" lon="7.8538273"><ele>350.0</ele><time>2026-04-10T10:23:10.629Z</time></trkpt><trkpt lat="44.7507255" lon="7.8539007"><ele>350.0</ele><time>2026-04-10T10:23:12.633Z</time></trkpt><trkpt lat="44.7506713" lon="7.853986"><ele>350.0</ele><time>2026-04-10T10:23:15.638Z</time></trkpt><trkpt lat="44.7506019" lon="7.8540206"><ele>350.0</ele><time>2026-04-10T10:23:21.66Z</time></trkpt><trkpt lat="44.7505382" lon="7.8540569"><ele>350.0</ele><time>2026-04-10T10:23:25.644Z</time></trkpt><trkpt lat="44.7504935" lon="7.8541231"><ele>350.0</ele><time>2026-04-10T10:23:42.716Z</time></trkpt><trkpt lat="44.7504493" lon="7.8541936"><ele>350.0</ele><time>2026-04-10T10:23:51.629Z</time></trkpt><trkpt lat="44.7503945" lon="7.8542492"><ele>350.0</ele><time>2026-04-10T10:23:59.647Z</time></trkpt><trkpt lat="44.7503421" lon="7.8543073"><ele>349.6666666666667</ele><time>2026-04-10T10:24:08.627Z</time></trkpt><trkpt lat="44.750281" lon="7.8543506"><ele>349.33333333333337</ele><time>2026-04-10T10:24:13.629Z</time></trkpt><trkpt lat="44.7502161" lon="7.8543477"><ele>349.0</ele><time>2026-04-10T10:25:09.626Z</time></trkpt><trkpt lat="44.7501057" lon="7.8543171"><ele>348.6666666666667</ele><time>2026-04-10T10:26:05.634Z</time></trkpt><trkpt lat="44.7500443" lon="7.8542767"><ele>348.3333333333333</ele><time>2026-04-10T10:26:08.641Z</time></trkpt><trkpt lat="44.7499886" lon="7.8542081"><ele>348.0</ele><time>2026-04-10T10:26:12.627Z</time></trkpt><trkpt lat="44.7499274" lon="7.854155"><ele>347.0</ele><time>2026-04-10T10:26:16.638Z</time></trkpt><trkpt lat="44.7498796" lon="7.8540918"><ele>346.0</ele><time>2026-04-10T10:26:20.649Z</time></trkpt><trkpt lat="44.7498149" lon="7.8540347"><ele>345.0</ele><time>2026-04-10T10:26:24.63Z</time></trkpt><trkpt lat="44.7497308" lon="7.8539922"><ele>344.0</ele><time>2026-04-10T10:26:31.661Z</time></trkpt><trkpt lat="44.7496681" lon="7.8540261"><ele>343.0</ele><time>2026-04-10T10:26:35.647Z</time></trkpt><trkpt lat="44.7495976" lon="7.8540867"><ele>342.0</ele><time>2026-04-10T10:26:39.636Z</time></trkpt><trkpt lat="44.7494989" lon="7.8541957"><ele>342.0</ele><time>2026-04-10T10:26:44.64Z</time></trkpt><trkpt lat="44.7494285" lon="7.8542719"><ele>342.0</ele><time>2026-04-10T10:26:48.644Z</time></trkpt><trkpt lat="44.7493492" lon="7.8543214"><ele>342.0</ele><time>2026-04-10T10:26:52.642Z</time></trkpt><trkpt lat="44.7492834" lon="7.8543489"><ele>342.0</ele><time>2026-04-10T10:26:56.637Z</time></trkpt><trkpt lat="44.74922" lon="7.8543923"><ele>342.0</ele><time>2026-04-10T10:26:59.639Z</time></trkpt><trkpt lat="44.7491596" lon="7.8544294"><ele>342.0</ele><time>2026-04-10T10:27:01.628Z</time></trkpt><trkpt lat="44.7490716" lon="7.8544676"><ele>342.3333333333333</ele><time>2026-04-10T10:27:04.636Z</time></trkpt><trkpt lat="44.7489965" lon="7.8545117"><ele>342.6666666666667</ele><time>2026-04-10T10:27:07.646Z</time></trkpt><trkpt lat="44.7489379" lon="7.8545778"><ele>343.0</ele><time>2026-04-10T10:27:10.637Z</time></trkpt><trkpt lat="44.7488769" lon="7.8546615"><ele>343.33333333333337</ele><time>2026-04-10T10:27:13.639Z</time></trkpt><trkpt lat="44.7488327" lon="7.854725"><ele>343.6666666666667</ele><time>2026-04-10T10:27:15.634Z</time></trkpt><trkpt lat="44.7487796" lon="7.8548072"><ele>344.0</ele><time>2026-04-10T10:27:18.658Z</time></trkpt><trkpt lat="44.7487394" lon="7.8548996"><ele>344.0</ele><time>2026-04-10T10:27:21.638Z</time></trkpt><trkpt lat="44.748685" lon="7.854996"><ele>344.0</ele><time>2026-04-10T10:27:24.642Z</time></trkpt><trkpt lat="44.7486386" lon="7.8550926"><ele>344.0</ele><time>2026-04-10T10:27:27.642Z</time></trkpt><trkpt lat="44.7485902" lon="7.8551852"><ele>344.0</ele><time>2026-04-10T10:27:30.653Z</time></trkpt><trkpt lat="44.7485432" lon="7.855246"><ele>344.0</ele><time>2026-04-10T10:27:32.633Z</time></trkpt><trkpt lat="44.7484799" lon="7.8553316"><ele>344.0</ele><time>2026-04-10T10:27:35.648Z</time></trkpt><trkpt lat="44.7484149" lon="7.8554221"><ele>344.28571428571433</ele><time>2026-04-10T10:27:38.626Z</time></trkpt><trkpt lat="44.7483648" lon="7.855485"><ele>344.57142857142856</ele><time>2026-04-10T10:27:40.633Z</time></trkpt><trkpt lat="44.7483097" lon="7.8555393"><ele>344.8571428571429</ele><time>2026-04-10T10:27:42.643Z</time></trkpt><trkpt lat="44.7482502" lon="7.855588"><ele>345.14285714285717</ele><time>2026-04-10T10:27:44.627Z</time></trkpt><trkpt lat="44.7481882" lon="7.8556445"><ele>345.42857142857144</ele><time>2026-04-10T10:27:46.646Z</time></trkpt><trkpt lat="44.7481345" lon="7.8556946"><ele>345.7142857142857</ele><time>2026-04-10T10:27:48.635Z</time></trkpt><trkpt lat="44.7480621" lon="7.8557659"><ele>346.0</ele><time>2026-04-10T10:27:51.651Z</time></trkpt><trkpt lat="44.7479822" lon="7.8558215"><ele>346.0</ele><time>2026-04-10T10:27:54.653Z</time></trkpt><trkpt lat="44.7479286" lon="7.8558736"><ele>346.0</ele><time>2026-04-10T10:27:56.65Z</time></trkpt><trkpt lat="44.7478495" lon="7.8559211"><ele>346.0</ele><time>2026-04-10T10:27:59.651Z</time></trkpt><trkpt lat="44.7477755" lon="7.8559704"><ele>346.0</ele><time>2026-04-10T10:28:02.644Z</time></trkpt><trkpt lat="44.7477019" lon="7.8560189"><ele>346.0</ele><time>2026-04-10T10:28:05.641Z</time></trkpt><trkpt lat="44.7476263" lon="7.8560685"><ele>346.0</ele><time>2026-04-10T10:28:08.663Z</time></trkpt><trkpt lat="44.7475754" lon="7.8561298"><ele>346.5</ele><time>2026-04-10T10:28:11.636Z</time></trkpt><trkpt lat="44.7475098" lon="7.8562055"><ele>347.0</ele><time>2026-04-10T10:28:14.633Z</time></trkpt><trkpt lat="44.7474572" lon="7.8562893"><ele>347.5</ele><time>2026-04-10T10:28:17.65Z</time></trkpt><trkpt lat="44.7474113" lon="7.8563702"><ele>348.0</ele><time>2026-04-10T10:28:20.641Z</time></trkpt><trkpt lat="44.7473626" lon="7.8564365"><ele>348.5</ele><time>2026-04-10T10:28:23.652Z</time></trkpt><trkpt lat="44.7472961" lon="7.8565049"><ele>349.0</ele><time>2026-04-10T10:28:26.641Z</time></trkpt><trkpt lat="44.7472249" lon="7.8565805"><ele>349.0</ele><time>2026-04-10T10:28:29.648Z</time></trkpt><trkpt lat="44.7471554" lon="7.8566396"><ele>349.0</ele><time>2026-04-10T10:28:32.644Z</time></trkpt><trkpt lat="44.7470806" lon="7.8566998"><ele>349.0</ele><time>2026-04-10T10:28:35.632Z</time></trkpt><trkpt lat="44.7470229" lon="7.8567646"><ele>349.0</ele><time>2026-04-10T10:28:38.656Z</time></trkpt><trkpt lat="44.746937" lon="7.8568327"><ele>349.0</ele><time>2026-04-10T10:28:41.409Z</time></trkpt><trkpt lat="44.7468744" lon="7.8568813"><ele>349.0</ele><time>2026-04-10T10:28:42.621Z</time></trkpt><trkpt lat="44.746819" lon="7.8569802"><ele>349.2857142857143</ele><time>2026-04-10T10:28:45.634Z</time></trkpt><trkpt lat="44.7467637" lon="7.8570231"><ele>349.57142857142856</ele><time>2026-04-10T10:28:47.633Z</time></trkpt><trkpt lat="44.7467209" lon="7.8570886"><ele>349.8571428571429</ele><time>2026-04-10T10:28:49.64Z</time></trkpt><trkpt lat="44.7466931" lon="7.8571759"><ele>350.1428571428571</ele><time>2026-04-10T10:28:51.622Z</time></trkpt><trkpt lat="44.7466594" lon="7.8572547"><ele>350.42857142857144</ele><time>2026-04-10T10:28:53.639Z</time></trkpt><trkpt lat="44.7466039" lon="7.8573441"><ele>350.7142857142857</ele><time>2026-04-10T10:28:56.631Z</time></trkpt><trkpt lat="44.746556" lon="7.8574202"><ele>351.0</ele><time>2026-04-10T10:28:58.626Z</time></trkpt><trkpt lat="44.7465084" lon="7.8575052"><ele>351.0</ele><time>2026-04-10T10:29:00.644Z</time></trkpt><trkpt lat="44.7464679" lon="7.857593"><ele>351.0</ele><time>2026-04-10T10:29:02.635Z</time></trkpt><trkpt lat="44.7464523" lon="7.8576978"><ele>351.0</ele><time>2026-04-10T10:29:04.634Z</time></trkpt><trkpt lat="44.7464325" lon="7.8578062"><ele>351.0</ele><time>2026-04-10T10:29:06.633Z</time></trkpt><trkpt lat="44.7464062" lon="7.8579113"><ele>351.0</ele><time>2026-04-10T10:29:08.641Z</time></trkpt><trkpt lat="44.7463751" lon="7.8580309"><ele>351.0</ele><time>2026-04-10T10:29:10.647Z</time></trkpt><trkpt lat="44.7463445" lon="7.8581376"><ele>351.0</ele><time>2026-04-10T10:29:12.651Z</time></trkpt><trkpt lat="44.7463108" lon="7.8582298"><ele>351.0</ele><time>2026-04-10T10:29:14.64Z</time></trkpt><trkpt lat="44.7462543" lon="7.8583185"><ele>351.0</ele><time>2026-04-10T10:29:16.634Z</time></trkpt><trkpt lat="44.7461742" lon="7.8584231"><ele>351.0</ele><time>2026-04-10T10:29:19.64Z</time></trkpt><trkpt lat="44.7461167" lon="7.8584759"><ele>351.0</ele><time>2026-04-10T10:29:21.645Z</time></trkpt><trkpt lat="44.7460589" lon="7.8585489"><ele>351.0</ele><time>2026-04-10T10:29:23.647Z</time></trkpt><trkpt lat="44.7460037" lon="7.8586532"><ele>351.6666666666667</ele><time>2026-04-10T10:29:25.641Z</time></trkpt><trkpt lat="44.7459537" lon="7.8587519"><ele>352.3333333333333</ele><time>2026-04-10T10:29:27.633Z</time></trkpt><trkpt lat="44.7459158" lon="7.8588483"><ele>353.0</ele><time>2026-04-10T10:29:29.654Z</time></trkpt><trkpt lat="44.7458821" lon="7.8589544"><ele>353.66666666666663</ele><time>2026-04-10T10:29:31.633Z</time></trkpt><trkpt lat="44.7458314" lon="7.8590479"><ele>354.3333333333333</ele><time>2026-04-10T10:29:33.636Z</time></trkpt><trkpt lat="44.7457819" lon="7.859139"><ele>355.0</ele><time>2026-04-10T10:29:35.64Z</time></trkpt><trkpt lat="44.7457375" lon="7.8592283"><ele>354.8333333333333</ele><time>2026-04-10T10:29:37.631Z</time></trkpt><trkpt lat="44.7457001" lon="7.8593329"><ele>354.66666666666663</ele><time>2026-04-10T10:29:39.654Z</time></trkpt><trkpt lat="44.7456605" lon="7.859423"><ele>354.5</ele><time>2026-04-10T10:29:41.626Z</time></trkpt><trkpt lat="44.7456089" lon="7.8594945"><ele>354.3333333333333</ele><time>2026-04-10T10:29:43.646Z</time></trkpt><trkpt lat="44.7455426" lon="7.8595728"><ele>354.1666666666667</ele><time>2026-04-10T10:29:45.653Z</time></trkpt><trkpt lat="44.745478" lon="7.8596443"><ele>354.0</ele><time>2026-04-10T10:29:47.639Z</time></trkpt><trkpt lat="44.7454183" lon="7.8597232"><ele>354.0</ele><time>2026-04-10T10:29:49.642Z</time></trkpt><trkpt lat="44.7453691" lon="7.8598174"><ele>354.0</ele><time>2026-04-10T10:29:51.65Z</time></trkpt><trkpt lat="44.7453174" lon="7.8599144"><ele>354.0</ele><time>2026-04-10T10:29:53.641Z</time></trkpt><trkpt lat="44.7452637" lon="7.8600255"><ele>354.0</ele><time>2026-04-10T10:29:55.635Z</time></trkpt><trkpt lat="44.7452089" lon="7.8601274"><ele>354.0</ele><time>2026-04-10T10:29:57.635Z</time></trkpt><trkpt lat="44.7451525" lon="7.8602413"><ele>353.8333333333333</ele><time>2026-04-10T10:29:59.709Z</time></trkpt><trkpt lat="44.7451033" lon="7.8603589"><ele>353.6666666666667</ele><time>2026-04-10T10:30:01.646Z</time></trkpt><trkpt lat="44.7450504" lon="7.8604537"><ele>353.5</ele><time>2026-04-10T10:30:03.649Z</time></trkpt><trkpt lat="44.7450062" lon="7.860538"><ele>353.33333333333337</ele><time>2026-04-10T10:30:05.649Z</time></trkpt><trkpt lat="44.744969" lon="7.8606364"><ele>353.1666666666667</ele><time>2026-04-10T10:30:07.634Z</time></trkpt><trkpt lat="44.7449319" lon="7.8607386"><ele>353.0</ele><time>2026-04-10T10:30:09.669Z</time></trkpt><trkpt lat="44.7449049" lon="7.8608408"><ele>353.0</ele><time>2026-04-10T10:30:11.638Z</time></trkpt><trkpt lat="44.7448773" lon="7.8609437"><ele>353.0</ele><time>2026-04-10T10:30:13.662Z</time></trkpt><trkpt lat="44.744856" lon="7.861041"><ele>353.0</ele><time>2026-04-10T10:30:15.647Z</time></trkpt><trkpt lat="44.7447944" lon="7.8612323"><ele>353.0</ele><time>2026-04-10T10:30:18.655Z</time></trkpt><trkpt lat="44.7447522" lon="7.8613757"><ele>353.0</ele><time>2026-04-10T10:30:20.626Z</time></trkpt><trkpt lat="44.7447145" lon="7.8614925"><ele>353.0</ele><time>2026-04-10T10:30:22.651Z</time></trkpt><trkpt lat="44.7446764" lon="7.861587"><ele>353.0</ele><time>2026-04-10T10:30:24.639Z</time></trkpt><trkpt lat="44.7446389" lon="7.861692"><ele>353.0</ele><time>2026-04-10T10:30:26.638Z</time></trkpt><trkpt lat="44.7445773" lon="7.8617881"><ele>353.0</ele><time>2026-04-10T10:30:28.633Z</time></trkpt><trkpt lat="44.7445146" lon="7.8618916"><ele>353.0</ele><time>2026-04-10T10:30:30.631Z</time></trkpt><trkpt lat="44.744453" lon="7.8619891"><ele>353.0</ele><time>2026-04-10T10:30:32.638Z</time></trkpt><trkpt lat="44.7443872" lon="7.8620751"><ele>353.1666666666667</ele><time>2026-04-10T10:30:34.646Z</time></trkpt><trkpt lat="44.744328" lon="7.8621489"><ele>353.33333333333337</ele><time>2026-04-10T10:30:36.628Z</time></trkpt><trkpt lat="44.7442629" lon="7.8622368"><ele>353.5</ele><time>2026-04-10T10:30:38.625Z</time></trkpt><trkpt lat="44.7441918" lon="7.862303"><ele>353.6666666666667</ele><time>2026-04-10T10:30:40.629Z</time></trkpt><trkpt lat="44.7441159" lon="7.8623416"><ele>353.8333333333333</ele><time>2026-04-10T10:30:42.638Z</time></trkpt><trkpt lat="44.7440536" lon="7.8623894"><ele>354.0</ele><time>2026-04-10T10:30:44.635Z</time></trkpt><trkpt lat="44.7439956" lon="7.8624344"><ele>354.0</ele><time>2026-04-10T10:30:46.65Z</time></trkpt><trkpt lat="44.7439316" lon="7.8624795"><ele>354.0</ele><time>2026-04-10T10:30:48.643Z</time></trkpt><trkpt lat="44.74385" lon="7.8625449"><ele>354.0</ele><time>2026-04-10T10:30:51.636Z</time></trkpt><trkpt lat="44.7437895" lon="7.8625747"><ele>354.0</ele><time>2026-04-10T10:30:53.629Z</time></trkpt><trkpt lat="44.7436912" lon="7.862595"><ele>354.0</ele><time>2026-04-10T10:30:56.626Z</time></trkpt><trkpt lat="44.7436285" lon="7.8626133"><ele>354.0</ele><time>2026-04-10T10:30:58.629Z</time></trkpt><trkpt lat="44.7435458" lon="7.862654"><ele>354.0</ele><time>2026-04-10T10:31:01.652Z</time></trkpt><trkpt lat="44.7434911" lon="7.8627074"><ele>354.0</ele><time>2026-04-10T10:31:04.636Z</time></trkpt><trkpt lat="44.7434343" lon="7.8627477"><ele>354.0</ele><time>2026-04-10T10:31:17.678Z</time></trkpt><trkpt lat="44.7433816" lon="7.8628132"><ele>354.0</ele><time>2026-04-10T10:32:47.634Z</time></trkpt><trkpt lat="44.743328" lon="7.8628677"><ele>354.0</ele><time>2026-04-10T10:32:51.643Z</time></trkpt><trkpt lat="44.7432628" lon="7.862937"><ele>354.0</ele><time>2026-04-10T10:32:56.646Z</time></trkpt><trkpt lat="44.7432139" lon="7.8630055"><ele>354.0</ele><time>2026-04-10T10:32:59.633Z</time></trkpt><trkpt lat="44.7431849" lon="7.8630929"><ele>354.0</ele><time>2026-04-10T10:33:02.623Z</time></trkpt><trkpt lat="44.7431499" lon="7.863194"><ele>354.0</ele><time>2026-04-10T10:33:05.639Z</time></trkpt><trkpt lat="44.7430974" lon="7.8633011"><ele>354.0</ele><time>2026-04-10T10:33:08.617Z</time></trkpt><trkpt lat="44.7430416" lon="7.8634158"><ele>354.0</ele><time>2026-04-10T10:33:11.631Z</time></trkpt><trkpt lat="44.7429905" lon="7.8635203"><ele>354.0</ele><time>2026-04-10T10:33:14.639Z</time></trkpt><trkpt lat="44.7429373" lon="7.8636304"><ele>354.1666666666667</ele><time>2026-04-10T10:33:17.637Z</time></trkpt><trkpt lat="44.7428958" lon="7.8637224"><ele>354.3333333333333</ele><time>2026-04-10T10:33:20.627Z</time></trkpt><trkpt lat="44.7428502" lon="7.8638337"><ele>354.5</ele><time>2026-04-10T10:33:23.636Z</time></trkpt><trkpt lat="44.7428026" lon="7.8639107"><ele>354.66666666666663</ele><time>2026-04-10T10:33:25.637Z</time></trkpt><trkpt lat="44.7427472" lon="7.863985"><ele>354.8333333333333</ele><time>2026-04-10T10:33:27.642Z</time></trkpt><trkpt lat="44.7426956" lon="7.8640611"><ele>355.0</ele><time>2026-04-10T10:33:29.636Z</time></trkpt><trkpt lat="44.7426401" lon="7.864132"><ele>355.0</ele><time>2026-04-10T10:33:31.648Z</time></trkpt><trkpt lat="44.7425695" lon="7.8642177"><ele>355.0</ele><time>2026-04-10T10:33:34.65Z</time></trkpt><trkpt lat="44.7425211" lon="7.8642803"><ele>355.0</ele><time>2026-04-10T10:33:36.644Z</time></trkpt><trkpt lat="44.7424674" lon="7.8643369"><ele>355.0</ele><time>2026-04-10T10:33:38.633Z</time></trkpt><trkpt lat="44.7424054" lon="7.8644028"><ele>355.0</ele><time>2026-04-10T10:33:40.647Z</time></trkpt><trkpt lat="44.7423473" lon="7.8644761"><ele>355.0</ele><time>2026-04-10T10:33:42.615Z</time></trkpt><trkpt lat="44.742295" lon="7.8645533"><ele>355.2857142857143</ele><time>2026-04-10T10:33:44.65Z</time></trkpt><trkpt lat="44.7422355" lon="7.864626"><ele>355.57142857142856</ele><time>2026-04-10T10:33:46.63Z</time></trkpt><trkpt lat="44.7421783" lon="7.8646916"><ele>355.8571428571429</ele><time>2026-04-10T10:33:48.631Z</time></trkpt><trkpt lat="44.7421177" lon="7.8647577"><ele>356.1428571428571</ele><time>2026-04-10T10:33:50.631Z</time></trkpt><trkpt lat="44.742065" lon="7.8648323"><ele>356.42857142857144</ele><time>2026-04-10T10:33:52.623Z</time></trkpt><trkpt lat="44.742013" lon="7.8648976"><ele>356.7142857142857</ele><time>2026-04-10T10:33:54.64Z</time></trkpt><trkpt lat="44.7419582" lon="7.8649611"><ele>357.0</ele><time>2026-04-10T10:33:56.627Z</time></trkpt><trkpt lat="44.7419094" lon="7.8650212"><ele>357.0</ele><time>2026-04-10T10:33:58.625Z</time></trkpt><trkpt lat="44.7418506" lon="7.865082"><ele>357.0</ele><time>2026-04-10T10:34:00.625Z</time></trkpt><trkpt lat="44.7417884" lon="7.8651456"><ele>357.0</ele><time>2026-04-10T10:34:02.627Z</time></trkpt><trkpt lat="44.7417202" lon="7.8652299"><ele>357.0</ele><time>2026-04-10T10:34:05.636Z</time></trkpt><trkpt lat="44.7416499" lon="7.8653126"><ele>357.0</ele><time>2026-04-10T10:34:08.619Z</time></trkpt><trkpt lat="44.7415907" lon="7.8653697"><ele>357.0</ele><time>2026-04-10T10:34:11.631Z</time></trkpt><trkpt lat="44.7415366" lon="7.8654243"><ele>357.0</ele><time>2026-04-10T10:34:13.643Z</time></trkpt><trkpt lat="44.7414751" lon="7.8654855"><ele>357.0</ele><time>2026-04-10T10:34:15.644Z</time></trkpt><trkpt lat="44.7413958" lon="7.8655494"><ele>357.0</ele><time>2026-04-10T10:34:17.643Z</time></trkpt><trkpt lat="44.7413317" lon="7.865614"><ele>357.0</ele><time>2026-04-10T10:34:19.655Z</time></trkpt><trkpt lat="44.7412812" lon="7.8656795"><ele>357.0</ele><time>2026-04-10T10:34:21.638Z</time></trkpt><trkpt lat="44.7412289" lon="7.8657518"><ele>357.0</ele><time>2026-04-10T10:34:23.636Z</time></trkpt><trkpt lat="44.7411797" lon="7.8658118"><ele>357.0</ele><time>2026-04-10T10:34:25.632Z</time></trkpt><trkpt lat="44.7411249" lon="7.8658759"><ele>357.0</ele><time>2026-04-10T10:34:27.65Z</time></trkpt><trkpt lat="44.7410843" lon="7.86595"><ele>357.0</ele><time>2026-04-10T10:34:29.653Z</time></trkpt><trkpt lat="44.741044" lon="7.8660421"><ele>357.0</ele><time>2026-04-10T10:34:31.662Z</time></trkpt><trkpt lat="44.7410069" lon="7.8661378"><ele>357.0</ele><time>2026-04-10T10:34:33.65Z</time></trkpt><trkpt lat="44.7409639" lon="7.8662378"><ele>357.0</ele><time>2026-04-10T10:34:35.65Z</time></trkpt><trkpt lat="44.7409296" lon="7.8663336"><ele>357.7142857142857</ele><time>2026-04-10T10:34:37.636Z</time></trkpt><trkpt lat="44.7408881" lon="7.866438"><ele>358.42857142857144</ele><time>2026-04-10T10:34:39.645Z</time></trkpt><trkpt lat="44.7408413" lon="7.8665207"><ele>359.1428571428571</ele><time>2026-04-10T10:34:41.638Z</time></trkpt><trkpt lat="44.7407981" lon="7.8665959"><ele>359.8571428571429</ele><time>2026-04-10T10:34:43.649Z</time></trkpt><trkpt lat="44.7407531" lon="7.8666764"><ele>360.57142857142856</ele><time>2026-04-10T10:34:45.638Z</time></trkpt><trkpt lat="44.7406971" lon="7.866745"><ele>361.2857142857143</ele><time>2026-04-10T10:34:47.644Z</time></trkpt><trkpt lat="44.7406496" lon="7.8668102"><ele>362.0</ele><time>2026-04-10T10:34:49.647Z</time></trkpt><trkpt lat="44.7405845" lon="7.8668811"><ele>362.0</ele><time>2026-04-10T10:34:51.65Z</time></trkpt><trkpt lat="44.7405299" lon="7.8669536"><ele>362.0</ele><time>2026-04-10T10:34:53.642Z</time></trkpt><trkpt lat="44.7404711" lon="7.8670306"><ele>362.0</ele><time>2026-04-10T10:34:55.645Z</time></trkpt><trkpt lat="44.7404203" lon="7.8671003"><ele>362.0</ele><time>2026-04-10T10:34:57.643Z</time></trkpt><trkpt lat="44.7403597" lon="7.8671795"><ele>362.0</ele><time>2026-04-10T10:34:59.643Z</time></trkpt><trkpt lat="44.7403051" lon="7.8672477"><ele>362.0</ele><time>2026-04-10T10:35:01.639Z</time></trkpt><trkpt lat="44.7402448" lon="7.8673059"><ele>361.85714285714283</ele><time>2026-04-10T10:35:03.632Z</time></trkpt><trkpt lat="44.7401948" lon="7.8673719"><ele>361.71428571428567</ele><time>2026-04-10T10:35:05.639Z</time></trkpt><trkpt lat="44.740146" lon="7.867435"><ele>361.57142857142856</ele><time>2026-04-10T10:35:07.634Z</time></trkpt><trkpt lat="44.7400881" lon="7.867509"><ele>361.42857142857144</ele><time>2026-04-10T10:35:09.638Z</time></trkpt><trkpt lat="44.7400303" lon="7.8675799"><ele>361.2857142857143</ele><time>2026-04-10T10:35:11.624Z</time></trkpt><trkpt lat="44.739977" lon="7.8676438"><ele>361.14285714285717</ele><time>2026-04-10T10:35:13.632Z</time></trkpt><trkpt lat="44.7399237" lon="7.8677064"><ele>361.0</ele><time>2026-04-10T10:35:15.664Z</time></trkpt><trkpt lat="44.739877" lon="7.8677728"><ele>360.8571428571429</ele><time>2026-04-10T10:35:17.638Z</time></trkpt><trkpt lat="44.7398274" lon="7.8678337"><ele>360.71428571428567</ele><time>2026-04-10T10:35:19.656Z</time></trkpt><trkpt lat="44.739775" lon="7.8678985"><ele>360.57142857142856</ele><time>2026-04-10T10:35:21.643Z</time></trkpt><trkpt lat="44.739719" lon="7.8679571"><ele>360.42857142857144</ele><time>2026-04-10T10:35:23.634Z</time></trkpt><trkpt lat="44.7396617" lon="7.8680313"><ele>360.28571428571433</ele><time>2026-04-10T10:35:25.642Z</time></trkpt><trkpt lat="44.739611" lon="7.8681005"><ele>360.1428571428571</ele><time>2026-04-10T10:35:27.633Z</time></trkpt><trkpt lat="44.7395564" lon="7.8681649"><ele>360.0</ele><time>2026-04-10T10:35:29.631Z</time></trkpt><trkpt lat="44.7394961" lon="7.8682293"><ele>360.0</ele><time>2026-04-10T10:35:31.641Z</time></trkpt><trkpt lat="44.7394377" lon="7.8682989"><ele>360.0</ele><time>2026-04-10T10:35:33.64Z</time></trkpt><trkpt lat="44.7393703" lon="7.8683607"><ele>360.0</ele><time>2026-04-10T10:35:35.623Z</time></trkpt><trkpt lat="44.7393109" lon="7.8684234"><ele>360.0</ele><time>2026-04-10T10:35:37.664Z</time></trkpt><trkpt lat="44.739253" lon="7.8684922"><ele>360.0</ele><time>2026-04-10T10:35:39.639Z</time></trkpt><trkpt lat="44.7391971" lon="7.8685573"><ele>360.0</ele><time>2026-04-10T10:35:41.639Z</time></trkpt><trkpt lat="44.7391464" lon="7.8686257"><ele>360.0</ele><time>2026-04-10T10:35:43.636Z</time></trkpt><trkpt lat="44.7390903" lon="7.8686916"><ele>360.0</ele><time>2026-04-10T10:35:45.632Z</time></trkpt><trkpt lat="44.7390291" lon="7.8687567"><ele>360.0</ele><time>2026-04-10T10:35:47.636Z</time></trkpt><trkpt lat="44.7389701" lon="7.8688128"><ele>360.0</ele><time>2026-04-10T10:35:49.636Z</time></trkpt><trkpt lat="44.7389154" lon="7.8688693"><ele>360.0</ele><time>2026-04-10T10:35:51.649Z</time></trkpt><trkpt lat="44.7388551" lon="7.8689248"><ele>360.0</ele><time>2026-04-10T10:35:53.631Z</time></trkpt><trkpt lat="44.7387884" lon="7.8689847"><ele>360.0</ele><time>2026-04-10T10:35:55.652Z</time></trkpt><trkpt lat="44.7387282" lon="7.8690466"><ele>360.0</ele><time>2026-04-10T10:35:57.653Z</time></trkpt><trkpt lat="44.7386747" lon="7.8690968"><ele>360.0</ele><time>2026-04-10T10:35:59.637Z</time></trkpt><trkpt lat="44.7386176" lon="7.8691469"><ele>360.0</ele><time>2026-04-10T10:36:01.634Z</time></trkpt><trkpt lat="44.7385513" lon="7.8691894"><ele>360.0</ele><time>2026-04-10T10:36:03.626Z</time></trkpt><trkpt lat="44.7384908" lon="7.869234"><ele>360.0</ele><time>2026-04-10T10:36:05.636Z</time></trkpt><trkpt lat="44.7384257" lon="7.869281"><ele>360.0</ele><time>2026-04-10T10:36:07.646Z</time></trkpt><trkpt lat="44.7383464" lon="7.8693506"><ele>360.0</ele><time>2026-04-10T10:36:10.643Z</time></trkpt><trkpt lat="44.7382884" lon="7.8694096"><ele>360.1428571428571</ele><time>2026-04-10T10:36:12.623Z</time></trkpt><trkpt lat="44.7382398" lon="7.8694681"><ele>360.28571428571433</ele><time>2026-04-10T10:36:14.637Z</time></trkpt><trkpt lat="44.7381942" lon="7.8695392"><ele>360.42857142857144</ele><time>2026-04-10T10:36:16.639Z</time></trkpt><trkpt lat="44.7381506" lon="7.8696099"><ele>360.57142857142856</ele><time>2026-04-10T10:36:18.627Z</time></trkpt><trkpt lat="44.7381072" lon="7.8696825"><ele>360.71428571428567</ele><time>2026-04-10T10:36:20.651Z</time></trkpt><trkpt lat="44.7380595" lon="7.8697578"><ele>360.8571428571429</ele><time>2026-04-10T10:36:22.648Z</time></trkpt><trkpt lat="44.7380092" lon="7.8698308"><ele>361.0</ele><time>2026-04-10T10:36:24.628Z</time></trkpt><trkpt lat="44.7379544" lon="7.8699086"><ele>361.0</ele><time>2026-04-10T10:36:26.647Z</time></trkpt><trkpt lat="44.7379053" lon="7.8699876"><ele>361.0</ele><time>2026-04-10T10:36:28.638Z</time></trkpt><trkpt lat="44.7378541" lon="7.8700523"><ele>361.0</ele><time>2026-04-10T10:36:30.634Z</time></trkpt><trkpt lat="44.7378042" lon="7.8701111"><ele>361.0</ele><time>2026-04-10T10:36:32.626Z</time></trkpt><trkpt lat="44.7377541" lon="7.8701861"><ele>361.0</ele><time>2026-04-10T10:36:34.638Z</time></trkpt><trkpt lat="44.7377009" lon="7.8702519"><ele>361.0</ele><time>2026-04-10T10:36:36.643Z</time></trkpt><trkpt lat="44.7376472" lon="7.8703068"><ele>361.0</ele><time>2026-04-10T10:36:38.633Z</time></trkpt><trkpt lat="44.7375964" lon="7.8703715"><ele>361.5</ele><time>2026-04-10T10:36:40.638Z</time></trkpt><trkpt lat="44.7375396" lon="7.8704356"><ele>362.0</ele><time>2026-04-10T10:36:42.642Z</time></trkpt><trkpt lat="44.737464" lon="7.8705005"><ele>362.5</ele><time>2026-04-10T10:36:45.642Z</time></trkpt><trkpt lat="44.7374055" lon="7.8705414"><ele>363.0</ele><time>2026-04-10T10:36:47.621Z</time></trkpt><trkpt lat="44.7373471" lon="7.8705953"><ele>363.5</ele><time>2026-04-10T10:36:49.646Z</time></trkpt><trkpt lat="44.7372775" lon="7.8706827"><ele>364.0</ele><time>2026-04-10T10:36:52.651Z</time></trkpt><trkpt lat="44.7372283" lon="7.8707558"><ele>364.0</ele><time>2026-04-10T10:36:54.634Z</time></trkpt><trkpt lat="44.7371772" lon="7.870829"><ele>364.0</ele><time>2026-04-10T10:36:56.634Z</time></trkpt><trkpt lat="44.7371296" lon="7.8708985"><ele>364.0</ele><time>2026-04-10T10:36:58.628Z</time></trkpt><trkpt lat="44.7370726" lon="7.8709734"><ele>364.0</ele><time>2026-04-10T10:37:00.642Z</time></trkpt><trkpt lat="44.7370144" lon="7.8710449"><ele>364.0</ele><time>2026-04-10T10:37:02.635Z</time></trkpt><trkpt lat="44.7369537" lon="7.8711203"><ele>364.0</ele><time>2026-04-10T10:37:04.646Z</time></trkpt><trkpt lat="44.7368906" lon="7.8712075"><ele>364.16666666666663</ele><time>2026-04-10T10:37:06.641Z</time></trkpt><trkpt lat="44.7368246" lon="7.871289"><ele>364.3333333333333</ele><time>2026-04-10T10:37:08.647Z</time></trkpt><trkpt lat="44.7367666" lon="7.8713768"><ele>364.5</ele><time>2026-04-10T10:37:10.653Z</time></trkpt><trkpt lat="44.7367095" lon="7.8714659"><ele>364.6666666666667</ele><time>2026-04-10T10:37:12.636Z</time></trkpt><trkpt lat="44.7366586" lon="7.8715635"><ele>364.83333333333337</ele><time>2026-04-10T10:37:14.637Z</time></trkpt><trkpt lat="44.7366107" lon="7.8716662"><ele>365.0</ele><time>2026-04-10T10:37:16.648Z</time></trkpt><trkpt lat="44.7365708" lon="7.8717647"><ele>364.6666666666667</ele><time>2026-04-10T10:37:18.643Z</time></trkpt><trkpt lat="44.7365155" lon="7.8718716"><ele>364.33333333333337</ele><time>2026-04-10T10:37:20.638Z</time></trkpt><trkpt lat="44.7364616" lon="7.8719838"><ele>364.0</ele><time>2026-04-10T10:37:22.651Z</time></trkpt><trkpt lat="44.7364204" lon="7.8720837"><ele>363.6666666666667</ele><time>2026-04-10T10:37:24.649Z</time></trkpt><trkpt lat="44.7363822" lon="7.8721772"><ele>363.3333333333333</ele><time>2026-04-10T10:37:26.662Z</time></trkpt><trkpt lat="44.7363354" lon="7.8722654"><ele>363.0</ele><time>2026-04-10T10:37:28.639Z</time></trkpt><trkpt lat="44.7362931" lon="7.8723506"><ele>362.99999999999994</ele><time>2026-04-10T10:37:30.661Z</time></trkpt><trkpt lat="44.7362451" lon="7.8724287"><ele>363.0</ele><time>2026-04-10T10:37:32.642Z</time></trkpt><trkpt lat="44.7362" lon="7.872515"><ele>363.0</ele><time>2026-04-10T10:37:34.643Z</time></trkpt><trkpt lat="44.7361488" lon="7.8725811"><ele>363.0</ele><time>2026-04-10T10:37:36.629Z</time></trkpt><trkpt lat="44.7361095" lon="7.8726509"><ele>363.0</ele><time>2026-04-10T10:37:38.633Z</time></trkpt><trkpt lat="44.7360702" lon="7.8727241"><ele>362.99999999999994</ele><time>2026-04-10T10:37:40.637Z</time></trkpt><trkpt lat="44.7360306" lon="7.8727957"><ele>363.0</ele><time>2026-04-10T10:37:42.639Z</time></trkpt><trkpt lat="44.7359812" lon="7.8728828"><ele>363.57142857142856</ele><time>2026-04-10T10:37:44.636Z</time></trkpt><trkpt lat="44.7359358" lon="7.8729703"><ele>364.1428571428571</ele><time>2026-04-10T10:37:46.638Z</time></trkpt><trkpt lat="44.7358867" lon="7.8730459"><ele>364.71428571428567</ele><time>2026-04-10T10:37:48.639Z</time></trkpt><trkpt lat="44.7358418" lon="7.8731166"><ele>365.2857142857143</ele><time>2026-04-10T10:37:50.646Z</time></trkpt><trkpt lat="44.735795" lon="7.8732018"><ele>365.8571428571429</ele><time>2026-04-10T10:37:52.636Z</time></trkpt><trkpt lat="44.7357446" lon="7.8732817"><ele>366.4285714285714</ele><time>2026-04-10T10:37:54.656Z</time></trkpt><trkpt lat="44.7356888" lon="7.8733571"><ele>367.0</ele><time>2026-04-10T10:37:56.64Z</time></trkpt><trkpt lat="44.7356323" lon="7.8734321"><ele>367.16666666666663</ele><time>2026-04-10T10:37:58.641Z</time></trkpt><trkpt lat="44.7355766" lon="7.8735007"><ele>367.3333333333333</ele><time>2026-04-10T10:38:00.642Z</time></trkpt><trkpt lat="44.7355262" lon="7.8735749"><ele>367.5</ele><time>2026-04-10T10:38:02.648Z</time></trkpt><trkpt lat="44.7354743" lon="7.8736371"><ele>367.6666666666667</ele><time>2026-04-10T10:38:04.645Z</time></trkpt><trkpt lat="44.735407" lon="7.8737296"><ele>367.83333333333337</ele><time>2026-04-10T10:38:07.644Z</time></trkpt><trkpt lat="44.7353607" lon="7.8738013"><ele>368.0</ele><time>2026-04-10T10:38:09.655Z</time></trkpt><trkpt lat="44.7353098" lon="7.873885"><ele>368.0</ele><time>2026-04-10T10:38:11.645Z</time></trkpt><trkpt lat="44.7352575" lon="7.8739551"><ele>368.0</ele><time>2026-04-10T10:38:13.649Z</time></trkpt><trkpt lat="44.7352124" lon="7.8740266"><ele>368.0</ele><time>2026-04-10T10:38:15.639Z</time></trkpt><trkpt lat="44.7351647" lon="7.8740898"><ele>368.0</ele><time>2026-04-10T10:38:17.636Z</time></trkpt><trkpt lat="44.7350953" lon="7.874176"><ele>368.0</ele><time>2026-04-10T10:38:20.646Z</time></trkpt><trkpt lat="44.7350369" lon="7.8742372"><ele>368.0</ele><time>2026-04-10T10:38:22.636Z</time></trkpt><trkpt lat="44.7349806" lon="7.874299"><ele>368.0</ele><time>2026-04-10T10:38:24.652Z</time></trkpt><trkpt lat="44.7349237" lon="7.8743566"><ele>368.14285714285717</ele><time>2026-04-10T10:38:26.638Z</time></trkpt><trkpt lat="44.734869" lon="7.8744186"><ele>368.2857142857143</ele><time>2026-04-10T10:38:28.659Z</time></trkpt><trkpt lat="44.7348107" lon="7.8744777"><ele>368.42857142857144</ele><time>2026-04-10T10:38:30.639Z</time></trkpt><trkpt lat="44.7347553" lon="7.8745384"><ele>368.57142857142856</ele><time>2026-04-10T10:38:32.654Z</time></trkpt><trkpt lat="44.7347062" lon="7.8746056"><ele>368.71428571428567</ele><time>2026-04-10T10:38:34.648Z</time></trkpt><trkpt lat="44.734642" lon="7.8746694"><ele>368.85714285714283</ele><time>2026-04-10T10:38:36.641Z</time></trkpt><trkpt lat="44.734589" lon="7.8747285"><ele>369.0</ele><time>2026-04-10T10:38:38.641Z</time></trkpt><trkpt lat="44.7345314" lon="7.8747922"><ele>369.0</ele><time>2026-04-10T10:38:40.641Z</time></trkpt><trkpt lat="44.7344608" lon="7.8748585"><ele>369.0</ele><time>2026-04-10T10:38:42.619Z</time></trkpt><trkpt lat="44.7343904" lon="7.8749277"><ele>369.0</ele><time>2026-04-10T10:38:44.629Z</time></trkpt><trkpt lat="44.7343177" lon="7.8750053"><ele>369.0</ele><time>2026-04-10T10:38:46.62Z</time></trkpt><trkpt lat="44.7342615" lon="7.8750886"><ele>369.0</ele><time>2026-04-10T10:38:48.639Z</time></trkpt><trkpt lat="44.7341986" lon="7.8751781"><ele>369.0</ele><time>2026-04-10T10:38:50.646Z</time></trkpt><trkpt lat="44.7341366" lon="7.8752546"><ele>369.3333333333333</ele><time>2026-04-10T10:38:52.646Z</time></trkpt><trkpt lat="44.7340767" lon="7.8753362"><ele>369.6666666666667</ele><time>2026-04-10T10:38:54.681Z</time></trkpt><trkpt lat="44.7340174" lon="7.8754154"><ele>370.0</ele><time>2026-04-10T10:38:56.68Z</time></trkpt><trkpt lat="44.7339484" lon="7.8754959"><ele>370.33333333333337</ele><time>2026-04-10T10:38:58.683Z</time></trkpt><trkpt lat="44.7338833" lon="7.8755863"><ele>370.6666666666667</ele><time>2026-04-10T10:39:00.655Z</time></trkpt><trkpt lat="44.7338118" lon="7.8756799"><ele>371.0</ele><time>2026-04-10T10:39:02.642Z</time></trkpt><trkpt lat="44.7337395" lon="7.8757542"><ele>371.0</ele><time>2026-04-10T10:39:04.646Z</time></trkpt><trkpt lat="44.7336702" lon="7.8758376"><ele>371.0</ele><time>2026-04-10T10:39:06.648Z</time></trkpt><trkpt lat="44.7336019" lon="7.8759192"><ele>371.0</ele><time>2026-04-10T10:39:08.645Z</time></trkpt><trkpt lat="44.7335287" lon="7.8760032"><ele>371.0</ele><time>2026-04-10T10:39:10.641Z</time></trkpt><trkpt lat="44.7334677" lon="7.876078"><ele>371.0</ele><time>2026-04-10T10:39:12.631Z</time></trkpt><trkpt lat="44.7334014" lon="7.8761573"><ele>371.0</ele><time>2026-04-10T10:39:14.652Z</time></trkpt><trkpt lat="44.7333354" lon="7.8762261"><ele>371.33333333333337</ele><time>2026-04-10T10:39:16.645Z</time></trkpt><trkpt lat="44.7332723" lon="7.8763053"><ele>371.6666666666667</ele><time>2026-04-10T10:39:18.642Z</time></trkpt><trkpt lat="44.7332067" lon="7.8763812"><ele>372.0</ele><time>2026-04-10T10:39:20.632Z</time></trkpt><trkpt lat="44.7331305" lon="7.8764478"><ele>372.3333333333333</ele><time>2026-04-10T10:39:22.646Z</time></trkpt><trkpt lat="44.7330521" lon="7.8765152"><ele>372.66666666666663</ele><time>2026-04-10T10:39:24.639Z</time></trkpt><trkpt lat="44.7329715" lon="7.8765876"><ele>373.0</ele><time>2026-04-10T10:39:26.63Z</time></trkpt><trkpt lat="44.7328975" lon="7.8766463"><ele>373.0</ele><time>2026-04-10T10:39:28.636Z</time></trkpt><trkpt lat="44.7328155" lon="7.8766913"><ele>373.0</ele><time>2026-04-10T10:39:30.628Z</time></trkpt><trkpt lat="44.7327525" lon="7.8767288"><ele>373.0</ele><time>2026-04-10T10:39:32.644Z</time></trkpt><trkpt lat="44.7326944" lon="7.876766"><ele>373.0</ele><time>2026-04-10T10:39:34.676Z</time></trkpt><trkpt lat="44.732633" lon="7.8767959"><ele>373.0</ele><time>2026-04-10T10:39:36.635Z</time></trkpt><trkpt lat="44.73257" lon="7.876822"><ele>373.0</ele><time>2026-04-10T10:39:38.632Z</time></trkpt><trkpt lat="44.7325049" lon="7.8768468"><ele>373.0</ele><time>2026-04-10T10:39:40.638Z</time></trkpt><trkpt lat="44.7324355" lon="7.8768777"><ele>373.0</ele><time>2026-04-10T10:39:42.653Z</time></trkpt><trkpt lat="44.7323435" lon="7.8769117"><ele>373.0</ele><time>2026-04-10T10:39:45.645Z</time></trkpt><trkpt lat="44.7322473" lon="7.8769207"><ele>373.0</ele><time>2026-04-10T10:39:48.638Z</time></trkpt><trkpt lat="44.73218" lon="7.8769235"><ele>373.0</ele><time>2026-04-10T10:39:50.639Z</time></trkpt><trkpt lat="44.7320863" lon="7.8769249"><ele>373.0</ele><time>2026-04-10T10:39:52.644Z</time></trkpt><trkpt lat="44.7320058" lon="7.8769444"><ele>373.0</ele><time>2026-04-10T10:39:54.654Z</time></trkpt><trkpt lat="44.7319348" lon="7.8769552"><ele>373.3333333333333</ele><time>2026-04-10T10:39:56.642Z</time></trkpt><trkpt lat="44.7318665" lon="7.8769766"><ele>373.66666666666663</ele><time>2026-04-10T10:39:58.633Z</time></trkpt><trkpt lat="44.7317966" lon="7.8769953"><ele>374.0</ele><time>2026-04-10T10:40:00.653Z</time></trkpt><trkpt lat="44.7317291" lon="7.8770059"><ele>374.3333333333333</ele><time>2026-04-10T10:40:02.639Z</time></trkpt><trkpt lat="44.7316465" lon="7.8770189"><ele>374.6666666666667</ele><time>2026-04-10T10:40:04.64Z</time></trkpt><trkpt lat="44.731557" lon="7.877072"><ele>375.0</ele><time>2026-04-10T10:40:06.647Z</time></trkpt><trkpt lat="44.7314784" lon="7.8771295"><ele>375.0</ele><time>2026-04-10T10:40:08.648Z</time></trkpt><trkpt lat="44.7313933" lon="7.877156"><ele>375.0</ele><time>2026-04-10T10:40:10.638Z</time></trkpt><trkpt lat="44.7313067" lon="7.8771802"><ele>375.0</ele><time>2026-04-10T10:40:12.615Z</time></trkpt><trkpt lat="44.7312112" lon="7.8772071"><ele>375.0</ele><time>2026-04-10T10:40:14.643Z</time></trkpt><trkpt lat="44.7311222" lon="7.8772237"><ele>375.0</ele><time>2026-04-10T10:40:16.624Z</time></trkpt><trkpt lat="44.7310386" lon="7.8772624"><ele>375.0</ele><time>2026-04-10T10:40:18.645Z</time></trkpt><trkpt lat="44.7309505" lon="7.8773055"><ele>375.0</ele><time>2026-04-10T10:40:20.658Z</time></trkpt><trkpt lat="44.7308655" lon="7.8773375"><ele>375.0</ele><time>2026-04-10T10:40:22.626Z</time></trkpt><trkpt lat="44.7307719" lon="7.8773641"><ele>375.0</ele><time>2026-04-10T10:40:24.641Z</time></trkpt><trkpt lat="44.7306853" lon="7.8773911"><ele>375.0</ele><time>2026-04-10T10:40:26.638Z</time></trkpt><trkpt lat="44.7305919" lon="7.8774234"><ele>375.0</ele><time>2026-04-10T10:40:28.649Z</time></trkpt><trkpt lat="44.7305139" lon="7.87746"><ele>375.0</ele><time>2026-04-10T10:40:30.63Z</time></trkpt><trkpt lat="44.7304307" lon="7.8774941"><ele>375.0</ele><time>2026-04-10T10:40:32.654Z</time></trkpt><trkpt lat="44.7303429" lon="7.8775282"><ele>375.0</ele><time>2026-04-10T10:40:34.64Z</time></trkpt><trkpt lat="44.7302429" lon="7.8775591"><ele>375.0</ele><time>2026-04-10T10:40:36.654Z</time></trkpt><trkpt lat="44.7301448" lon="7.87759"><ele>376.5</ele><time>2026-04-10T10:40:38.63Z</time></trkpt><trkpt lat="44.7300591" lon="7.8776251"><ele>378.0</ele><time>2026-04-10T10:40:40.632Z</time></trkpt><trkpt lat="44.7299718" lon="7.8776555"><ele>379.5</ele><time>2026-04-10T10:40:42.632Z</time></trkpt><trkpt lat="44.7298833" lon="7.8776809"><ele>381.0</ele><time>2026-04-10T10:40:44.751Z</time></trkpt><trkpt lat="44.7298011" lon="7.8777137"><ele>382.5</ele><time>2026-04-10T10:40:46.682Z</time></trkpt><trkpt lat="44.7297234" lon="7.8777544"><ele>384.0</ele><time>2026-04-10T10:40:48.663Z</time></trkpt><trkpt lat="44.7296393" lon="7.8777804"><ele>384.0</ele><time>2026-04-10T10:40:50.652Z</time></trkpt><trkpt lat="44.7295549" lon="7.8778027"><ele>384.0</ele><time>2026-04-10T10:40:52.633Z</time></trkpt><trkpt lat="44.7294746" lon="7.8778231"><ele>384.0</ele><time>2026-04-10T10:40:54.706Z</time></trkpt><trkpt lat="44.7293846" lon="7.8778292"><ele>384.0</ele><time>2026-04-10T10:40:56.63Z</time></trkpt><trkpt lat="44.7292905" lon="7.8778317"><ele>384.0</ele><time>2026-04-10T10:40:58.653Z</time></trkpt><trkpt lat="44.7292016" lon="7.8778322"><ele>384.0</ele><time>2026-04-10T10:41:00.625Z</time></trkpt><trkpt lat="44.7291178" lon="7.877827"><ele>383.5</ele><time>2026-04-10T10:41:02.678Z</time></trkpt><trkpt lat="44.7290304" lon="7.8778175"><ele>383.0</ele><time>2026-04-10T10:41:04.648Z</time></trkpt><trkpt lat="44.728944" lon="7.8778096"><ele>382.5</ele><time>2026-04-10T10:41:06.67Z</time></trkpt><trkpt lat="44.7288611" lon="7.8778001"><ele>382.0</ele><time>2026-04-10T10:41:08.649Z</time></trkpt><trkpt lat="44.7287759" lon="7.8777939"><ele>381.5</ele><time>2026-04-10T10:41:10.667Z</time></trkpt><trkpt lat="44.7286845" lon="7.8777944"><ele>381.0</ele><time>2026-04-10T10:41:12.665Z</time></trkpt><trkpt lat="44.7285967" lon="7.8778102"><ele>380.8333333333333</ele><time>2026-04-10T10:41:14.684Z</time></trkpt><trkpt lat="44.7285048" lon="7.8778368"><ele>380.6666666666667</ele><time>2026-04-10T10:41:16.652Z</time></trkpt><trkpt lat="44.728417" lon="7.877876"><ele>380.5</ele><time>2026-04-10T10:41:18.646Z</time></trkpt><trkpt lat="44.7283365" lon="7.8779143"><ele>380.33333333333337</ele><time>2026-04-10T10:41:20.646Z</time></trkpt><trkpt lat="44.72826" lon="7.8779497"><ele>380.1666666666667</ele><time>2026-04-10T10:41:22.644Z</time></trkpt><trkpt lat="44.7281839" lon="7.8779856"><ele>380.0</ele><time>2026-04-10T10:41:24.652Z</time></trkpt><trkpt lat="44.7281109" lon="7.8780174"><ele>380.0</ele><time>2026-04-10T10:41:26.671Z</time></trkpt><trkpt lat="44.7280375" lon="7.8780582"><ele>380.0</ele><time>2026-04-10T10:41:28.678Z</time></trkpt><trkpt lat="44.7279562" lon="7.8780968"><ele>380.0</ele><time>2026-04-10T10:41:30.723Z</time></trkpt><trkpt lat="44.7278826" lon="7.8781266"><ele>380.0</ele><time>2026-04-10T10:41:32.644Z</time></trkpt><trkpt lat="44.7278137" lon="7.8781704"><ele>380.0</ele><time>2026-04-10T10:41:34.663Z</time></trkpt><trkpt lat="44.7277474" lon="7.8782034"><ele>380.0</ele><time>2026-04-10T10:41:36.644Z</time></trkpt><trkpt lat="44.7276838" lon="7.8782339"><ele>380.5</ele><time>2026-04-10T10:41:38.665Z</time></trkpt><trkpt lat="44.7276016" lon="7.878275"><ele>381.0</ele><time>2026-04-10T10:41:41.634Z</time></trkpt><trkpt lat="44.7275384" lon="7.8783093"><ele>381.5</ele><time>2026-04-10T10:41:43.643Z</time></trkpt><trkpt lat="44.7274586" lon="7.8783432"><ele>382.0</ele><time>2026-04-10T10:41:45.63Z</time></trkpt><trkpt lat="44.7273823" lon="7.8783874"><ele>382.5</ele><time>2026-04-10T10:41:47.647Z</time></trkpt><trkpt lat="44.7272984" lon="7.8784193"><ele>383.0</ele><time>2026-04-10T10:41:49.655Z</time></trkpt><trkpt lat="44.7272175" lon="7.8784435"><ele>383.0</ele><time>2026-04-10T10:41:51.63Z</time></trkpt><trkpt lat="44.7271428" lon="7.8784718"><ele>383.0</ele><time>2026-04-10T10:41:53.672Z</time></trkpt><trkpt lat="44.7270523" lon="7.8784962"><ele>383.0</ele><time>2026-04-10T10:41:55.641Z</time></trkpt><trkpt lat="44.726973" lon="7.8785241"><ele>383.0</ele><time>2026-04-10T10:41:57.638Z</time></trkpt><trkpt lat="44.7268959" lon="7.8785573"><ele>383.0</ele><time>2026-04-10T10:41:59.626Z</time></trkpt><trkpt lat="44.7268231" lon="7.8785825"><ele>383.0</ele><time>2026-04-10T10:42:01.639Z</time></trkpt><trkpt lat="44.7267427" lon="7.8786111"><ele>383.0</ele><time>2026-04-10T10:42:03.64Z</time></trkpt><trkpt lat="44.7266658" lon="7.8786587"><ele>383.0</ele><time>2026-04-10T10:42:05.648Z</time></trkpt><trkpt lat="44.726592" lon="7.8787003"><ele>383.0</ele><time>2026-04-10T10:42:07.639Z</time></trkpt><trkpt lat="44.7265238" lon="7.878741"><ele>383.0</ele><time>2026-04-10T10:42:09.648Z</time></trkpt><trkpt lat="44.7264564" lon="7.8787849"><ele>383.0</ele><time>2026-04-10T10:42:11.656Z</time></trkpt><trkpt lat="44.7263896" lon="7.8788367"><ele>383.0</ele><time>2026-04-10T10:42:13.64Z</time></trkpt><trkpt lat="44.7263258" lon="7.8788906"><ele>383.0</ele><time>2026-04-10T10:42:15.649Z</time></trkpt><trkpt lat="44.7262496" lon="7.8789312"><ele>383.0</ele><time>2026-04-10T10:42:17.687Z</time></trkpt><trkpt lat="44.7261656" lon="7.8789638"><ele>383.0</ele><time>2026-04-10T10:42:19.654Z</time></trkpt><trkpt lat="44.7260894" lon="7.8790047"><ele>383.0</ele><time>2026-04-10T10:42:21.635Z</time></trkpt><trkpt lat="44.7260151" lon="7.8790579"><ele>383.0</ele><time>2026-04-10T10:42:23.639Z</time></trkpt><trkpt lat="44.7259426" lon="7.8791125"><ele>383.0</ele><time>2026-04-10T10:42:25.646Z</time></trkpt><trkpt lat="44.725866" lon="7.8791459"><ele>383.5</ele><time>2026-04-10T10:42:27.648Z</time></trkpt><trkpt lat="44.7257985" lon="7.879185"><ele>384.0</ele><time>2026-04-10T10:42:29.646Z</time></trkpt><trkpt lat="44.7257428" lon="7.8792361"><ele>384.5</ele><time>2026-04-10T10:42:31.639Z</time></trkpt><trkpt lat="44.725686" lon="7.8792744"><ele>385.0</ele><time>2026-04-10T10:42:33.638Z</time></trkpt><trkpt lat="44.7256028" lon="7.8793262"><ele>385.49999999999994</ele><time>2026-04-10T10:42:36.648Z</time></trkpt><trkpt lat="44.7255315" lon="7.8793896"><ele>386.0</ele><time>2026-04-10T10:42:39.661Z</time></trkpt><trkpt lat="44.7254552" lon="7.8794404"><ele>385.8333333333333</ele><time>2026-04-10T10:42:42.634Z</time></trkpt><trkpt lat="44.7253894" lon="7.8794735"><ele>385.66666666666663</ele><time>2026-04-10T10:42:44.64Z</time></trkpt><trkpt lat="44.7253031" lon="7.8795253"><ele>385.5</ele><time>2026-04-10T10:42:47.63Z</time></trkpt><trkpt lat="44.7252493" lon="7.8795752"><ele>385.33333333333337</ele><time>2026-04-10T10:42:49.641Z</time></trkpt><trkpt lat="44.7251848" lon="7.8796267"><ele>385.1666666666667</ele><time>2026-04-10T10:42:52.651Z</time></trkpt><trkpt lat="44.7251091" lon="7.8796577"><ele>385.0</ele><time>2026-04-10T10:42:55.63Z</time></trkpt><trkpt lat="44.7250346" lon="7.8796965"><ele>385.00000000000006</ele><time>2026-04-10T10:42:58.624Z</time></trkpt><trkpt lat="44.7249504" lon="7.8797234"><ele>385.0</ele><time>2026-04-10T10:43:01.634Z</time></trkpt><trkpt lat="44.7248739" lon="7.879751"><ele>385.0</ele><time>2026-04-10T10:43:04.631Z</time></trkpt><trkpt lat="44.7248049" lon="7.8797753"><ele>385.0</ele><time>2026-04-10T10:43:07.633Z</time></trkpt><trkpt lat="44.7247368" lon="7.8798053"><ele>385.00000000000006</ele><time>2026-04-10T10:43:10.642Z</time></trkpt><trkpt lat="44.7246543" lon="7.8798321"><ele>385.0</ele><time>2026-04-10T10:43:13.625Z</time></trkpt><trkpt lat="44.7245677" lon="7.879859"><ele>385.00000000000006</ele><time>2026-04-10T10:43:16.645Z</time></trkpt><trkpt lat="44.7244854" lon="7.8798903"><ele>385.0</ele><time>2026-04-10T10:43:19.627Z</time></trkpt><trkpt lat="44.724405" lon="7.8799208"><ele>385.0</ele><time>2026-04-10T10:43:22.633Z</time></trkpt><trkpt lat="44.7243286" lon="7.8799635"><ele>385.0</ele><time>2026-04-10T10:43:25.63Z</time></trkpt><trkpt lat="44.7242486" lon="7.8800158"><ele>385.00000000000006</ele><time>2026-04-10T10:43:28.628Z</time></trkpt><trkpt lat="44.7241667" lon="7.8800697"><ele>385.0</ele><time>2026-04-10T10:43:31.63Z</time></trkpt><trkpt lat="44.7240973" lon="7.8801151"><ele>385.85714285714283</ele><time>2026-04-10T10:43:34.635Z</time></trkpt><trkpt lat="44.724018" lon="7.8801641"><ele>386.7142857142857</ele><time>2026-04-10T10:43:37.636Z</time></trkpt><trkpt lat="44.7239568" lon="7.8801908"><ele>387.57142857142856</ele><time>2026-04-10T10:43:39.631Z</time></trkpt><trkpt lat="44.7238965" lon="7.8802284"><ele>388.42857142857144</ele><time>2026-04-10T10:43:41.622Z</time></trkpt><trkpt lat="44.7238381" lon="7.8802659"><ele>389.2857142857143</ele><time>2026-04-10T10:43:43.638Z</time></trkpt><trkpt lat="44.7237675" lon="7.8802982"><ele>390.1428571428571</ele><time>2026-04-10T10:43:45.651Z</time></trkpt><trkpt lat="44.7237049" lon="7.8803395"><ele>391.0</ele><time>2026-04-10T10:43:47.648Z</time></trkpt><trkpt lat="44.7236282" lon="7.880395"><ele>390.6666666666667</ele><time>2026-04-10T10:43:50.664Z</time></trkpt><trkpt lat="44.7235445" lon="7.8804455"><ele>390.33333333333337</ele><time>2026-04-10T10:43:53.641Z</time></trkpt><trkpt lat="44.7234792" lon="7.8804847"><ele>390.0</ele><time>2026-04-10T10:43:55.648Z</time></trkpt><trkpt lat="44.7233967" lon="7.8805338"><ele>389.66666666666663</ele><time>2026-04-10T10:43:58.634Z</time></trkpt><trkpt lat="44.7233166" lon="7.8805947"><ele>389.3333333333333</ele><time>2026-04-10T10:44:01.642Z</time></trkpt><trkpt lat="44.723242" lon="7.88065"><ele>389.0</ele><time>2026-04-10T10:44:04.637Z</time></trkpt><trkpt lat="44.7231741" lon="7.8806951"><ele>389.0</ele><time>2026-04-10T10:44:07.647Z</time></trkpt><trkpt lat="44.7231145" lon="7.8807368"><ele>389.0</ele><time>2026-04-10T10:44:10.647Z</time></trkpt><trkpt lat="44.7230533" lon="7.8807761"><ele>389.0</ele><time>2026-04-10T10:44:13.644Z</time></trkpt><trkpt lat="44.7229884" lon="7.880811"><ele>389.0</ele><time>2026-04-10T10:44:16.661Z</time></trkpt><trkpt lat="44.7229258" lon="7.8808213"><ele>389.0</ele><time>2026-04-10T10:44:19.65Z</time></trkpt><trkpt lat="44.7228911" lon="7.8807382"><ele>389.0</ele><time>2026-04-10T10:47:53.651Z</time></trkpt><trkpt lat="44.7228936" lon="7.8808287"><ele>389.0</ele><time>2026-04-10T10:56:11.651Z</time></trkpt><trkpt lat="44.7228198" lon="7.8808731"><ele>389.0</ele><time>2026-04-10T10:57:44.64Z</time></trkpt><trkpt lat="44.7227599" lon="7.8809209"><ele>389.0</ele><time>2026-04-10T10:57:47.632Z</time></trkpt><trkpt lat="44.7226697" lon="7.8809749"><ele>389.0</ele><time>2026-04-10T10:57:50.652Z</time></trkpt><trkpt lat="44.7225912" lon="7.8810114"><ele>389.0</ele><time>2026-04-10T10:57:52.649Z</time></trkpt><trkpt lat="44.7224922" lon="7.8810554"><ele>389.0</ele><time>2026-04-10T10:57:54.645Z</time></trkpt><trkpt lat="44.7223716" lon="7.881085"><ele>388.42857142857144</ele><time>2026-04-10T10:57:56.645Z</time></trkpt><trkpt lat="44.7223025" lon="7.8810881"><ele>387.85714285714283</ele><time>2026-04-10T10:57:57.655Z</time></trkpt><trkpt lat="44.7222379" lon="7.88107"><ele>387.2857142857143</ele><time>2026-04-10T10:57:58.692Z</time></trkpt><trkpt lat="44.7221702" lon="7.8810367"><ele>386.7142857142857</ele><time>2026-04-10T10:57:59.697Z</time></trkpt><trkpt lat="44.7221032" lon="7.880976"><ele>386.1428571428571</ele><time>2026-04-10T10:58:00.708Z</time></trkpt><trkpt lat="44.7220396" lon="7.8809198"><ele>385.57142857142856</ele><time>2026-04-10T10:58:01.717Z</time></trkpt><trkpt lat="44.721978" lon="7.8808754"><ele>385.0</ele><time>2026-04-10T10:58:02.72Z</time></trkpt><trkpt lat="44.721912" lon="7.8808338"><ele>384.14285714285717</ele><time>2026-04-10T10:58:03.7Z</time></trkpt><trkpt lat="44.7218405" lon="7.8808075"><ele>383.2857142857143</ele><time>2026-04-10T10:58:04.731Z</time></trkpt><trkpt lat="44.7217694" lon="7.8808011"><ele>382.42857142857144</ele><time>2026-04-10T10:58:05.698Z</time></trkpt><trkpt lat="44.7216968" lon="7.8808027"><ele>381.57142857142856</ele><time>2026-04-10T10:58:06.699Z</time></trkpt><trkpt lat="44.7216248" lon="7.8808122"><ele>380.7142857142857</ele><time>2026-04-10T10:58:07.639Z</time></trkpt><trkpt lat="44.7215518" lon="7.8808269"><ele>379.8571428571429</ele><time>2026-04-10T10:58:08.722Z</time></trkpt><trkpt lat="44.7214844" lon="7.8808374"><ele>379.0</ele><time>2026-04-10T10:58:09.709Z</time></trkpt><trkpt lat="44.7214147" lon="7.8808472"><ele>379.00000000000006</ele><time>2026-04-10T10:58:10.719Z</time></trkpt><trkpt lat="44.7213477" lon="7.8808559"><ele>379.0</ele><time>2026-04-10T10:58:11.699Z</time></trkpt><trkpt lat="44.721276" lon="7.8808604"><ele>379.0</ele><time>2026-04-10T10:58:12.712Z</time></trkpt><trkpt lat="44.7212104" lon="7.8808692"><ele>379.0</ele><time>2026-04-10T10:58:13.682Z</time></trkpt><trkpt lat="44.7211436" lon="7.8808707"><ele>379.0</ele><time>2026-04-10T10:58:14.721Z</time></trkpt><trkpt lat="44.7210705" lon="7.8808788"><ele>379.00000000000006</ele><time>2026-04-10T10:58:15.719Z</time></trkpt><trkpt lat="44.7210027" lon="7.880888"><ele>379.0</ele><time>2026-04-10T10:58:16.724Z</time></trkpt><trkpt lat="44.7209288" lon="7.8808971"><ele>378.8571428571429</ele><time>2026-04-10T10:58:17.705Z</time></trkpt><trkpt lat="44.7208557" lon="7.8809157"><ele>378.7142857142857</ele><time>2026-04-10T10:58:18.621Z</time></trkpt><trkpt lat="44.720788" lon="7.8809369"><ele>378.57142857142856</ele><time>2026-04-10T10:58:19.716Z</time></trkpt><trkpt lat="44.7207165" lon="7.8809654"><ele>378.42857142857144</ele><time>2026-04-10T10:58:20.667Z</time></trkpt><trkpt lat="44.7206477" lon="7.8810027"><ele>378.2857142857143</ele><time>2026-04-10T10:58:21.713Z</time></trkpt><trkpt lat="44.7205827" lon="7.8810518"><ele>378.14285714285717</ele><time>2026-04-10T10:58:22.67Z</time></trkpt><trkpt lat="44.7205206" lon="7.8811067"><ele>378.0</ele><time>2026-04-10T10:58:23.663Z</time></trkpt><trkpt lat="44.7204619" lon="7.8811664"><ele>377.0</ele><time>2026-04-10T10:58:24.697Z</time></trkpt><trkpt lat="44.720407" lon="7.881228"><ele>376.0</ele><time>2026-04-10T10:58:25.683Z</time></trkpt><trkpt lat="44.720352" lon="7.881296"><ele>375.0</ele><time>2026-04-10T10:58:26.72Z</time></trkpt><trkpt lat="44.720302" lon="7.8813758"><ele>374.0</ele><time>2026-04-10T10:58:27.714Z</time></trkpt><trkpt lat="44.7202467" lon="7.8814599"><ele>373.0</ele><time>2026-04-10T10:58:28.708Z</time></trkpt><trkpt lat="44.720185" lon="7.8815426"><ele>372.0</ele><time>2026-04-10T10:58:29.725Z</time></trkpt><trkpt lat="44.7201228" lon="7.8816299"><ele>372.0</ele><time>2026-04-10T10:58:30.709Z</time></trkpt><trkpt lat="44.7200607" lon="7.8817195"><ele>372.0</ele><time>2026-04-10T10:58:31.733Z</time></trkpt><trkpt lat="44.720005" lon="7.8818045"><ele>372.0</ele><time>2026-04-10T10:58:32.707Z</time></trkpt><trkpt lat="44.7199465" lon="7.8818879"><ele>372.0</ele><time>2026-04-10T10:58:33.719Z</time></trkpt><trkpt lat="44.7198868" lon="7.8819725"><ele>372.0</ele><time>2026-04-10T10:58:34.696Z</time></trkpt><trkpt lat="44.7198347" lon="7.8820648"><ele>372.0</ele><time>2026-04-10T10:58:35.66Z</time></trkpt><trkpt lat="44.7197886" lon="7.8821621"><ele>370.6666666666667</ele><time>2026-04-10T10:58:36.668Z</time></trkpt><trkpt lat="44.7197444" lon="7.8822584"><ele>369.3333333333333</ele><time>2026-04-10T10:58:37.711Z</time></trkpt><trkpt lat="44.7197142" lon="7.8823537"><ele>368.0</ele><time>2026-04-10T10:58:38.712Z</time></trkpt><trkpt lat="44.7196937" lon="7.8824493"><ele>366.66666666666663</ele><time>2026-04-10T10:58:39.701Z</time></trkpt><trkpt lat="44.7196805" lon="7.8825565"><ele>365.3333333333333</ele><time>2026-04-10T10:58:40.716Z</time></trkpt><trkpt lat="44.7196693" lon="7.8826701"><ele>364.0</ele><time>2026-04-10T10:58:41.72Z</time></trkpt><trkpt lat="44.7196568" lon="7.8827843"><ele>362.14285714285717</ele><time>2026-04-10T10:58:42.716Z</time></trkpt><trkpt lat="44.7196475" lon="7.8828876"><ele>360.2857142857143</ele><time>2026-04-10T10:58:43.729Z</time></trkpt><trkpt lat="44.7196384" lon="7.8829897"><ele>358.42857142857144</ele><time>2026-04-10T10:58:44.725Z</time></trkpt><trkpt lat="44.7196278" lon="7.8830879"><ele>356.57142857142856</ele><time>2026-04-10T10:58:45.719Z</time></trkpt><trkpt lat="44.7196184" lon="7.8831802"><ele>354.7142857142857</ele><time>2026-04-10T10:58:46.717Z</time></trkpt><trkpt lat="44.7196146" lon="7.883272"><ele>352.8571428571429</ele><time>2026-04-10T10:58:47.721Z</time></trkpt><trkpt lat="44.719603" lon="7.8833591"><ele>351.0</ele><time>2026-04-10T10:58:48.724Z</time></trkpt><trkpt lat="44.7195673" lon="7.8835249"><ele>350.6666666666667</ele><time>2026-04-10T10:58:50.706Z</time></trkpt><trkpt lat="44.7194907" lon="7.8836781"><ele>350.3333333333333</ele><time>2026-04-10T10:58:52.728Z</time></trkpt><trkpt lat="44.7194367" lon="7.8837442"><ele>350.0</ele><time>2026-04-10T10:58:53.703Z</time></trkpt><trkpt lat="44.71938" lon="7.8838045"><ele>349.66666666666663</ele><time>2026-04-10T10:58:54.728Z</time></trkpt><trkpt lat="44.7193248" lon="7.8838678"><ele>349.3333333333333</ele><time>2026-04-10T10:58:55.705Z</time></trkpt><trkpt lat="44.7192746" lon="7.8839292"><ele>349.0</ele><time>2026-04-10T10:58:56.719Z</time></trkpt><trkpt lat="44.7192197" lon="7.8839864"><ele>350.3333333333333</ele><time>2026-04-10T10:58:57.715Z</time></trkpt><trkpt lat="44.719169" lon="7.8840489"><ele>351.66666666666663</ele><time>2026-04-10T10:58:58.714Z</time></trkpt><trkpt lat="44.7191143" lon="7.8841013"><ele>353.0</ele><time>2026-04-10T10:58:59.718Z</time></trkpt><trkpt lat="44.7189934" lon="7.8841646"><ele>354.3333333333333</ele><time>2026-04-10T10:59:01.74Z</time></trkpt><trkpt lat="44.7189231" lon="7.8841846"><ele>355.6666666666667</ele><time>2026-04-10T10:59:02.723Z</time></trkpt><trkpt lat="44.7188513" lon="7.8842044"><ele>357.0</ele><time>2026-04-10T10:59:03.726Z</time></trkpt><trkpt lat="44.7187796" lon="7.8842307"><ele>357.0</ele><time>2026-04-10T10:59:04.732Z</time></trkpt><trkpt lat="44.7187115" lon="7.8842602"><ele>357.0</ele><time>2026-04-10T10:59:05.747Z</time></trkpt><trkpt lat="44.7186406" lon="7.8843117"><ele>357.0</ele><time>2026-04-10T10:59:06.719Z</time></trkpt><trkpt lat="44.7185662" lon="7.8843637"><ele>357.0</ele><time>2026-04-10T10:59:07.701Z</time></trkpt><trkpt lat="44.7184861" lon="7.8844106"><ele>357.0</ele><time>2026-04-10T10:59:08.688Z</time></trkpt><trkpt lat="44.7184066" lon="7.8844598"><ele>357.0</ele><time>2026-04-10T10:59:09.723Z</time></trkpt><trkpt lat="44.7183272" lon="7.8845058"><ele>354.6</ele><time>2026-04-10T10:59:10.707Z</time></trkpt><trkpt lat="44.7182522" lon="7.8845442"><ele>352.20000000000005</ele><time>2026-04-10T10:59:11.716Z</time></trkpt><trkpt lat="44.7181878" lon="7.8845698"><ele>349.8</ele><time>2026-04-10T10:59:12.72Z</time></trkpt><trkpt lat="44.7180815" lon="7.8846243"><ele>347.4</ele><time>2026-04-10T10:59:14.712Z</time></trkpt><trkpt lat="44.7179925" lon="7.8846767"><ele>345.0</ele><time>2026-04-10T10:59:16.729Z</time></trkpt><trkpt lat="44.717898" lon="7.8847618"><ele>345.0</ele><time>2026-04-10T10:59:18.641Z</time></trkpt><trkpt lat="44.717845" lon="7.884823"><ele>345.0</ele><time>2026-04-10T10:59:19.634Z</time></trkpt><trkpt lat="44.7177898" lon="7.8848846"><ele>345.0</ele><time>2026-04-10T10:59:20.65Z</time></trkpt><trkpt lat="44.7177271" lon="7.8849503"><ele>345.0</ele><time>2026-04-10T10:59:21.654Z</time></trkpt><trkpt lat="44.7176619" lon="7.8850124"><ele>345.0</ele><time>2026-04-10T10:59:22.698Z</time></trkpt><trkpt lat="44.7176015" lon="7.8850762"><ele>345.0</ele><time>2026-04-10T10:59:23.7Z</time></trkpt><trkpt lat="44.7175474" lon="7.8851456"><ele>345.0</ele><time>2026-04-10T10:59:24.679Z</time></trkpt><trkpt lat="44.7174988" lon="7.8852184"><ele>344.57142857142856</ele><time>2026-04-10T10:59:25.652Z</time></trkpt><trkpt lat="44.7174499" lon="7.8852742"><ele>344.1428571428571</ele><time>2026-04-10T10:59:26.706Z</time></trkpt><trkpt lat="44.7173962" lon="7.8853296"><ele>343.71428571428567</ele><time>2026-04-10T10:59:27.703Z</time></trkpt><trkpt lat="44.7173298" lon="7.8853804"><ele>343.2857142857143</ele><time>2026-04-10T10:59:28.649Z</time></trkpt><trkpt lat="44.7172587" lon="7.8854241"><ele>342.85714285714283</ele><time>2026-04-10T10:59:29.694Z</time></trkpt><trkpt lat="44.7171823" lon="7.885462"><ele>342.4285714285714</ele><time>2026-04-10T10:59:30.711Z</time></trkpt><trkpt lat="44.7171007" lon="7.8854985"><ele>342.0</ele><time>2026-04-10T10:59:31.696Z</time></trkpt><trkpt lat="44.7170217" lon="7.8855264"><ele>341.99999999999994</ele><time>2026-04-10T10:59:32.65Z</time></trkpt><trkpt lat="44.7169438" lon="7.8855483"><ele>342.0</ele><time>2026-04-10T10:59:33.685Z</time></trkpt><trkpt lat="44.7168746" lon="7.8855788"><ele>342.0</ele><time>2026-04-10T10:59:34.712Z</time></trkpt><trkpt lat="44.7168116" lon="7.8856115"><ele>342.0</ele><time>2026-04-10T10:59:35.697Z</time></trkpt><trkpt lat="44.7167434" lon="7.885644"><ele>342.0</ele><time>2026-04-10T10:59:36.671Z</time></trkpt><trkpt lat="44.7166735" lon="7.8856758"><ele>341.99999999999994</ele><time>2026-04-10T10:59:37.691Z</time></trkpt><trkpt lat="44.7166065" lon="7.885687"><ele>342.0</ele><time>2026-04-10T10:59:38.687Z</time></trkpt><trkpt lat="44.7164991" lon="7.8856337"><ele>339.8</ele><time>2026-04-10T10:59:40.686Z</time></trkpt><trkpt lat="44.716447" lon="7.885476"><ele>337.6</ele><time>2026-04-10T10:59:42.666Z</time></trkpt><trkpt lat="44.7164584" lon="7.8853181"><ele>335.40000000000003</ele><time>2026-04-10T10:59:44.71Z</time></trkpt><trkpt lat="44.7164685" lon="7.8851835"><ele>333.20000000000005</ele><time>2026-04-10T10:59:46.702Z</time></trkpt><trkpt lat="44.7163906" lon="7.8851265"><ele>331.0</ele><time>2026-04-10T10:59:48.702Z</time></trkpt><trkpt lat="44.7163027" lon="7.8852133"><ele>331.0</ele><time>2026-04-10T10:59:50.704Z</time></trkpt><trkpt lat="44.7162778" lon="7.885378"><ele>331.0</ele><time>2026-04-10T10:59:52.702Z</time></trkpt><trkpt lat="44.7162422" lon="7.8855506"><ele>331.0</ele><time>2026-04-10T10:59:54.682Z</time></trkpt><trkpt lat="44.7162022" lon="7.8856346"><ele>331.0</ele><time>2026-04-10T10:59:55.732Z</time></trkpt><trkpt lat="44.7161468" lon="7.8856909"><ele>331.0</ele><time>2026-04-10T10:59:56.683Z</time></trkpt><trkpt lat="44.7160836" lon="7.8857414"><ele>330.0</ele><time>2026-04-10T10:59:57.695Z</time></trkpt><trkpt lat="44.7160195" lon="7.8857928"><ele>329.0</ele><time>2026-04-10T10:59:58.707Z</time></trkpt><trkpt lat="44.7159627" lon="7.8858587"><ele>328.0</ele><time>2026-04-10T10:59:59.703Z</time></trkpt><trkpt lat="44.7159158" lon="7.8859313"><ele>327.0</ele><time>2026-04-10T11:00:00.73Z</time></trkpt><trkpt lat="44.7158815" lon="7.8860188"><ele>326.0</ele><time>2026-04-10T11:00:01.708Z</time></trkpt><trkpt lat="44.715858" lon="7.8861095"><ele>325.0</ele><time>2026-04-10T11:00:02.674Z</time></trkpt><trkpt lat="44.715824" lon="7.8861937"><ele>324.0</ele><time>2026-04-10T11:00:03.719Z</time></trkpt><trkpt lat="44.7157827" lon="7.8862675"><ele>324.0</ele><time>2026-04-10T11:00:04.722Z</time></trkpt><trkpt lat="44.7157234" lon="7.8863343"><ele>324.0</ele><time>2026-04-10T11:00:05.727Z</time></trkpt><trkpt lat="44.7156456" lon="7.886392"><ele>324.0</ele><time>2026-04-10T11:00:06.703Z</time></trkpt><trkpt lat="44.7155665" lon="7.8864509"><ele>324.0</ele><time>2026-04-10T11:00:07.699Z</time></trkpt><trkpt lat="44.7154953" lon="7.8865075"><ele>324.0</ele><time>2026-04-10T11:00:08.668Z</time></trkpt><trkpt lat="44.7154162" lon="7.8865553"><ele>324.0</ele><time>2026-04-10T11:00:09.687Z</time></trkpt><trkpt lat="44.7153386" lon="7.8865899"><ele>324.0</ele><time>2026-04-10T11:00:10.693Z</time></trkpt><trkpt lat="44.7152557" lon="7.8866062"><ele>324.0</ele><time>2026-04-10T11:00:11.709Z</time></trkpt><trkpt lat="44.715172" lon="7.8866203"><ele>324.0</ele><time>2026-04-10T11:00:12.704Z</time></trkpt><trkpt lat="44.7150878" lon="7.886631"><ele>324.0</ele><time>2026-04-10T11:00:13.696Z</time></trkpt><trkpt lat="44.7150077" lon="7.8866499"><ele>324.0</ele><time>2026-04-10T11:00:14.695Z</time></trkpt><trkpt lat="44.7149212" lon="7.8866725"><ele>324.0</ele><time>2026-04-10T11:00:15.707Z</time></trkpt><trkpt lat="44.7148354" lon="7.8866916"><ele>324.1666666666667</ele><time>2026-04-10T11:00:16.7Z</time></trkpt><trkpt lat="44.7147565" lon="7.8867127"><ele>324.3333333333333</ele><time>2026-04-10T11:00:17.712Z</time></trkpt><trkpt lat="44.7146861" lon="7.8867328"><ele>324.5</ele><time>2026-04-10T11:00:18.695Z</time></trkpt><trkpt lat="44.714615" lon="7.8867506"><ele>324.66666666666663</ele><time>2026-04-10T11:00:19.717Z</time></trkpt><trkpt lat="44.7145391" lon="7.8867634"><ele>324.8333333333333</ele><time>2026-04-10T11:00:20.709Z</time></trkpt><trkpt lat="44.7144631" lon="7.8867788"><ele>325.0</ele><time>2026-04-10T11:00:21.713Z</time></trkpt><trkpt lat="44.7143891" lon="7.8867967"><ele>321.66666666666663</ele><time>2026-04-10T11:00:22.713Z</time></trkpt><trkpt lat="44.7143215" lon="7.886821"><ele>318.3333333333333</ele><time>2026-04-10T11:00:23.697Z</time></trkpt><trkpt lat="44.7142649" lon="7.8868743"><ele>315.0</ele><time>2026-04-10T11:00:24.694Z</time></trkpt><trkpt lat="44.7141759" lon="7.8870095"><ele>311.6666666666667</ele><time>2026-04-10T11:00:26.698Z</time></trkpt><trkpt lat="44.7141304" lon="7.8870867"><ele>308.33333333333337</ele><time>2026-04-10T11:00:27.712Z</time></trkpt><trkpt lat="44.7140871" lon="7.8871663"><ele>305.0</ele><time>2026-04-10T11:00:28.707Z</time></trkpt><trkpt lat="44.7140457" lon="7.8872405"><ele>305.0</ele><time>2026-04-10T11:00:29.705Z</time></trkpt><trkpt lat="44.7140056" lon="7.8873091"><ele>305.0</ele><time>2026-04-10T11:00:30.699Z</time></trkpt><trkpt lat="44.7139456" lon="7.8874342"><ele>305.0</ele><time>2026-04-10T11:00:32.712Z</time></trkpt><trkpt lat="44.7138898" lon="7.8875109"><ele>305.0</ele><time>2026-04-10T11:00:34.698Z</time></trkpt><trkpt lat="44.713827" lon="7.8875235"><ele>305.0</ele><time>2026-04-10T11:00:37.712Z</time></trkpt><trkpt lat="44.7137477" lon="7.8875177"><ele>305.0</ele><time>2026-04-10T11:00:44.706Z</time></trkpt><trkpt lat="44.7136997" lon="7.8875774"><ele>303.33333333333337</ele><time>2026-04-10T11:00:47.712Z</time></trkpt><trkpt lat="44.7136568" lon="7.8876711"><ele>301.6666666666667</ele><time>2026-04-10T11:00:50.704Z</time></trkpt><trkpt lat="44.7136187" lon="7.8877454"><ele>300.0</ele><time>2026-04-10T11:00:53.71Z</time></trkpt><trkpt lat="44.7135566" lon="7.8878281"><ele>298.3333333333333</ele><time>2026-04-10T11:00:57.71Z</time></trkpt><trkpt lat="44.7134793" lon="7.8879269"><ele>296.66666666666663</ele><time>2026-04-10T11:01:00.713Z</time></trkpt><trkpt lat="44.7134005" lon="7.8880444"><ele>295.0</ele><time>2026-04-10T11:01:02.724Z</time></trkpt><trkpt lat="44.7133597" lon="7.8881206"><ele>295.00000000000006</ele><time>2026-04-10T11:01:03.733Z</time></trkpt><trkpt lat="44.713318" lon="7.8881962"><ele>295.0</ele><time>2026-04-10T11:01:04.72Z</time></trkpt><trkpt lat="44.7132745" lon="7.8882737"><ele>295.0</ele><time>2026-04-10T11:01:05.673Z</time></trkpt><trkpt lat="44.7132343" lon="7.8883574"><ele>295.0</ele><time>2026-04-10T11:01:06.708Z</time></trkpt><trkpt lat="44.7131922" lon="7.888441"><ele>295.0</ele><time>2026-04-10T11:01:07.707Z</time></trkpt><trkpt lat="44.7131464" lon="7.8885091"><ele>295.00000000000006</ele><time>2026-04-10T11:01:08.713Z</time></trkpt><trkpt lat="44.7130857" lon="7.8885736"><ele>295.0</ele><time>2026-04-10T11:01:09.673Z</time></trkpt><trkpt lat="44.7130191" lon="7.8886338"><ele>295.00000000000006</ele><time>2026-04-10T11:01:10.701Z</time></trkpt><trkpt lat="44.7129482" lon="7.8886907"><ele>295.0</ele><time>2026-04-10T11:01:11.715Z</time></trkpt><trkpt lat="44.7128867" lon="7.8887483"><ele>295.0</ele><time>2026-04-10T11:01:12.703Z</time></trkpt><trkpt lat="44.7128259" lon="7.8888008"><ele>295.0</ele><time>2026-04-10T11:01:13.715Z</time></trkpt><trkpt lat="44.7127661" lon="7.8888572"><ele>295.0</ele><time>2026-04-10T11:01:14.712Z</time></trkpt><trkpt lat="44.7127069" lon="7.8889071"><ele>295.00000000000006</ele><time>2026-04-10T11:01:15.691Z</time></trkpt><trkpt lat="44.7126407" lon="7.8889489"><ele>295.0</ele><time>2026-04-10T11:01:16.696Z</time></trkpt><trkpt lat="44.7125674" lon="7.88899"><ele>292.3333333333333</ele><time>2026-04-10T11:01:17.705Z</time></trkpt><trkpt lat="44.7124906" lon="7.8890215"><ele>289.66666666666663</ele><time>2026-04-10T11:01:18.672Z</time></trkpt><trkpt lat="44.7124165" lon="7.8890488"><ele>287.0</ele><time>2026-04-10T11:01:19.714Z</time></trkpt><trkpt lat="44.7123338" lon="7.8890749"><ele>284.3333333333333</ele><time>2026-04-10T11:01:20.729Z</time></trkpt><trkpt lat="44.7122467" lon="7.8891003"><ele>281.6666666666667</ele><time>2026-04-10T11:01:21.728Z</time></trkpt><trkpt lat="44.7121598" lon="7.8891262"><ele>279.0</ele><time>2026-04-10T11:01:22.671Z</time></trkpt><trkpt lat="44.7120742" lon="7.8891492"><ele>279.0</ele><time>2026-04-10T11:01:23.657Z</time></trkpt><trkpt lat="44.7119864" lon="7.8891749"><ele>279.0</ele><time>2026-04-10T11:01:24.662Z</time></trkpt><trkpt lat="44.7119014" lon="7.8891981"><ele>279.0</ele><time>2026-04-10T11:01:25.665Z</time></trkpt><trkpt lat="44.7118206" lon="7.889227"><ele>279.0</ele><time>2026-04-10T11:01:26.665Z</time></trkpt><trkpt lat="44.7117318" lon="7.8892592"><ele>279.0</ele><time>2026-04-10T11:01:27.707Z</time></trkpt><trkpt lat="44.7116397" lon="7.8892945"><ele>279.0</ele><time>2026-04-10T11:01:28.711Z</time></trkpt><trkpt lat="44.7115358" lon="7.8893191"><ele>276.2</ele><time>2026-04-10T11:01:29.721Z</time></trkpt><trkpt lat="44.711433" lon="7.8893456"><ele>273.4</ele><time>2026-04-10T11:01:30.704Z</time></trkpt><trkpt lat="44.7113255" lon="7.8893703"><ele>270.6</ele><time>2026-04-10T11:01:31.684Z</time></trkpt><trkpt lat="44.7112168" lon="7.8893958"><ele>267.8</ele><time>2026-04-10T11:01:32.683Z</time></trkpt><trkpt lat="44.7111106" lon="7.8894306"><ele>265.0</ele><time>2026-04-10T11:01:33.689Z</time></trkpt><trkpt lat="44.711002" lon="7.8894735"><ele>263.2</ele><time>2026-04-10T11:01:34.702Z</time></trkpt><trkpt lat="44.7109008" lon="7.8895215"><ele>261.4</ele><time>2026-04-10T11:01:35.688Z</time></trkpt><trkpt lat="44.7108015" lon="7.8895741"><ele>259.6</ele><time>2026-04-10T11:01:36.682Z</time></trkpt><trkpt lat="44.7107072" lon="7.8896326"><ele>257.8</ele><time>2026-04-10T11:01:37.702Z</time></trkpt><trkpt lat="44.7106126" lon="7.8896846"><ele>256.0</ele><time>2026-04-10T11:01:38.699Z</time></trkpt><trkpt lat="44.7105148" lon="7.8897255"><ele>256.0</ele><time>2026-04-10T11:01:39.706Z</time></trkpt><trkpt lat="44.710413" lon="7.889746"><ele>256.0</ele><time>2026-04-10T11:01:40.71Z</time></trkpt><trkpt lat="44.7103105" lon="7.8897529"><ele>256.0</ele><time>2026-04-10T11:01:41.69Z</time></trkpt><trkpt lat="44.7102115" lon="7.8897525"><ele>256.0</ele><time>2026-04-10T11:01:42.703Z</time></trkpt><trkpt lat="44.7101048" lon="7.8897456"><ele>256.0</ele><time>2026-04-10T11:01:43.712Z</time></trkpt><trkpt lat="44.7099997" lon="7.8897302"><ele>254.8</ele><time>2026-04-10T11:01:44.682Z</time></trkpt><trkpt lat="44.709896" lon="7.8897189"><ele>253.60000000000002</ele><time>2026-04-10T11:01:45.694Z</time></trkpt><trkpt lat="44.7097896" lon="7.8897066"><ele>252.4</ele><time>2026-04-10T11:01:46.646Z</time></trkpt><trkpt lat="44.7096815" lon="7.8896907"><ele>251.2</ele><time>2026-04-10T11:01:47.652Z</time></trkpt><trkpt lat="44.709572" lon="7.8896779"><ele>250.0</ele><time>2026-04-10T11:01:48.648Z</time></trkpt><trkpt lat="44.7094637" lon="7.8896629"><ele>248.75</ele><time>2026-04-10T11:01:49.658Z</time></trkpt><trkpt lat="44.7093547" lon="7.8896494"><ele>247.5</ele><time>2026-04-10T11:01:50.648Z</time></trkpt><trkpt lat="44.7092407" lon="7.8896379"><ele>246.25</ele><time>2026-04-10T11:01:51.712Z</time></trkpt><trkpt lat="44.709126" lon="7.8896239"><ele>245.0</ele><time>2026-04-10T11:01:52.733Z</time></trkpt><trkpt lat="44.7090133" lon="7.8896048"><ele>245.0</ele><time>2026-04-10T11:01:53.7Z</time></trkpt><trkpt lat="44.7089045" lon="7.8895897"><ele>245.0</ele><time>2026-04-10T11:01:54.712Z</time></trkpt><trkpt lat="44.7087974" lon="7.8895742"><ele>245.0</ele><time>2026-04-10T11:01:55.723Z</time></trkpt><trkpt lat="44.7086917" lon="7.8895576"><ele>245.0</ele><time>2026-04-10T11:01:56.704Z</time></trkpt><trkpt lat="44.7085882" lon="7.8895408"><ele>245.0</ele><time>2026-04-10T11:01:57.719Z</time></trkpt><trkpt lat="44.7084863" lon="7.8895242"><ele>244.2</ele><time>2026-04-10T11:01:58.703Z</time></trkpt><trkpt lat="44.7083823" lon="7.8895059"><ele>243.4</ele><time>2026-04-10T11:01:59.653Z</time></trkpt><trkpt lat="44.7082815" lon="7.889489"><ele>242.60000000000002</ele><time>2026-04-10T11:02:00.708Z</time></trkpt><trkpt lat="44.7081807" lon="7.8894747"><ele>241.8</ele><time>2026-04-10T11:02:01.691Z</time></trkpt><trkpt lat="44.7080843" lon="7.8894588"><ele>241.0</ele><time>2026-04-10T11:02:02.702Z</time></trkpt><trkpt lat="44.707991" lon="7.8894445"><ele>241.0</ele><time>2026-04-10T11:02:03.719Z</time></trkpt><trkpt lat="44.7078968" lon="7.8894313"><ele>241.00000000000003</ele><time>2026-04-10T11:02:04.688Z</time></trkpt><trkpt lat="44.7078053" lon="7.8894174"><ele>241.00000000000003</ele><time>2026-04-10T11:02:05.696Z</time></trkpt><trkpt lat="44.7077153" lon="7.8894041"><ele>241.0</ele><time>2026-04-10T11:02:06.704Z</time></trkpt><trkpt lat="44.7076227" lon="7.8893881"><ele>241.0</ele><time>2026-04-10T11:02:07.717Z</time></trkpt><trkpt lat="44.7075281" lon="7.8893706"><ele>241.4</ele><time>2026-04-10T11:02:08.719Z</time></trkpt><trkpt lat="44.7074328" lon="7.8893495"><ele>241.8</ele><time>2026-04-10T11:02:09.666Z</time></trkpt><trkpt lat="44.7073374" lon="7.889326"><ele>242.20000000000002</ele><time>2026-04-10T11:02:10.69Z</time></trkpt><trkpt lat="44.7072419" lon="7.8893032"><ele>242.60000000000002</ele><time>2026-04-10T11:02:11.709Z</time></trkpt><trkpt lat="44.7071506" lon="7.8892785"><ele>243.0</ele><time>2026-04-10T11:02:12.699Z</time></trkpt><trkpt lat="44.7070514" lon="7.8892515"><ele>242.0</ele><time>2026-04-10T11:02:13.71Z</time></trkpt><trkpt lat="44.7069541" lon="7.8892317"><ele>241.0</ele><time>2026-04-10T11:02:14.692Z</time></trkpt><trkpt lat="44.706853" lon="7.889216"><ele>240.0</ele><time>2026-04-10T11:02:15.702Z</time></trkpt><trkpt lat="44.7067535" lon="7.8891973"><ele>239.0</ele><time>2026-04-10T11:02:16.692Z</time></trkpt><trkpt lat="44.7066529" lon="7.8891821"><ele>238.0</ele><time>2026-04-10T11:02:17.695Z</time></trkpt><trkpt lat="44.7065512" lon="7.8891651"><ele>237.4</ele><time>2026-04-10T11:02:18.695Z</time></trkpt><trkpt lat="44.7064478" lon="7.8891578"><ele>236.8</ele><time>2026-04-10T11:02:19.667Z</time></trkpt><trkpt lat="44.7063517" lon="7.8891599"><ele>236.2</ele><time>2026-04-10T11:02:20.704Z</time></trkpt><trkpt lat="44.7062539" lon="7.8891675"><ele>235.6</ele><time>2026-04-10T11:02:21.699Z</time></trkpt><trkpt lat="44.7061614" lon="7.8891831"><ele>235.0</ele><time>2026-04-10T11:02:22.711Z</time></trkpt><trkpt lat="44.7060728" lon="7.8892076"><ele>234.6</ele><time>2026-04-10T11:02:23.704Z</time></trkpt><trkpt lat="44.7059838" lon="7.8892376"><ele>234.2</ele><time>2026-04-10T11:02:24.709Z</time></trkpt><trkpt lat="44.7058973" lon="7.8892701"><ele>233.8</ele><time>2026-04-10T11:02:25.714Z</time></trkpt><trkpt lat="44.7058097" lon="7.8892956"><ele>233.4</ele><time>2026-04-10T11:02:26.716Z</time></trkpt><trkpt lat="44.7057193" lon="7.8893143"><ele>233.0</ele><time>2026-04-10T11:02:27.68Z</time></trkpt><trkpt lat="44.705625" lon="7.8893319"><ele>234.0</ele><time>2026-04-10T11:02:28.729Z</time></trkpt><trkpt lat="44.7055318" lon="7.8893537"><ele>235.0</ele><time>2026-04-10T11:02:29.693Z</time></trkpt><trkpt lat="44.7054436" lon="7.8893696"><ele>236.0</ele><time>2026-04-10T11:02:30.712Z</time></trkpt><trkpt lat="44.705352" lon="7.8893899"><ele>237.0</ele><time>2026-04-10T11:02:31.701Z</time></trkpt><trkpt lat="44.7052577" lon="7.8894099"><ele>238.0</ele><time>2026-04-10T11:02:32.723Z</time></trkpt><trkpt lat="44.7051699" lon="7.889436"><ele>238.0</ele><time>2026-04-10T11:02:33.704Z</time></trkpt><trkpt lat="44.7050804" lon="7.8894494"><ele>238.0</ele><time>2026-04-10T11:02:34.719Z</time></trkpt><trkpt lat="44.704988" lon="7.8894631"><ele>238.0</ele><time>2026-04-10T11:02:35.72Z</time></trkpt><trkpt lat="44.7048992" lon="7.8894722"><ele>238.0</ele><time>2026-04-10T11:02:36.698Z</time></trkpt><trkpt lat="44.7048084" lon="7.8894814"><ele>238.0</ele><time>2026-04-10T11:02:37.706Z</time></trkpt><trkpt lat="44.7047138" lon="7.8894907"><ele>238.0</ele><time>2026-04-10T11:02:38.724Z</time></trkpt><trkpt lat="44.7046197" lon="7.8894966"><ele>238.0</ele><time>2026-04-10T11:02:39.696Z</time></trkpt><trkpt lat="44.7045279" lon="7.8894979"><ele>238.0</ele><time>2026-04-10T11:02:40.679Z</time></trkpt><trkpt lat="44.7044326" lon="7.8895069"><ele>238.0</ele><time>2026-04-10T11:02:41.727Z</time></trkpt><trkpt lat="44.7043358" lon="7.8895179"><ele>238.0</ele><time>2026-04-10T11:02:42.704Z</time></trkpt><trkpt lat="44.7042394" lon="7.8895378"><ele>236.66666666666666</ele><time>2026-04-10T11:02:43.685Z</time></trkpt><trkpt lat="44.7041489" lon="7.8895537"><ele>235.33333333333331</ele><time>2026-04-10T11:02:44.687Z</time></trkpt><trkpt lat="44.7040729" lon="7.8895578"><ele>234.0</ele><time>2026-04-10T11:02:45.705Z</time></trkpt><trkpt lat="44.7040006" lon="7.8895596"><ele>232.66666666666669</ele><time>2026-04-10T11:02:46.687Z</time></trkpt><trkpt lat="44.7039269" lon="7.8895597"><ele>231.33333333333334</ele><time>2026-04-10T11:02:47.673Z</time></trkpt><trkpt lat="44.7038527" lon="7.8895599"><ele>230.0</ele><time>2026-04-10T11:02:48.699Z</time></trkpt><trkpt lat="44.7037806" lon="7.8895649"><ele>229.99999999999997</ele><time>2026-04-10T11:02:49.706Z</time></trkpt><trkpt lat="44.7037069" lon="7.8895719"><ele>230.0</ele><time>2026-04-10T11:02:50.691Z</time></trkpt><trkpt lat="44.7036359" lon="7.8895845"><ele>229.99999999999997</ele><time>2026-04-10T11:02:51.708Z</time></trkpt><trkpt lat="44.7035647" lon="7.8895967"><ele>229.99999999999997</ele><time>2026-04-10T11:02:52.703Z</time></trkpt><trkpt lat="44.703491" lon="7.8896064"><ele>230.0</ele><time>2026-04-10T11:02:53.723Z</time></trkpt><trkpt lat="44.7034157" lon="7.889613"><ele>229.99999999999997</ele><time>2026-04-10T11:02:54.716Z</time></trkpt><trkpt lat="44.7033416" lon="7.8896287"><ele>229.99999999999997</ele><time>2026-04-10T11:02:55.723Z</time></trkpt><trkpt lat="44.7032692" lon="7.8896461"><ele>229.28571428571425</ele><time>2026-04-10T11:02:56.711Z</time></trkpt><trkpt lat="44.7031966" lon="7.889657"><ele>228.57142857142856</ele><time>2026-04-10T11:02:57.711Z</time></trkpt><trkpt lat="44.7031204" lon="7.8896703"><ele>227.85714285714286</ele><time>2026-04-10T11:02:58.711Z</time></trkpt><trkpt lat="44.7030471" lon="7.8896855"><ele>227.14285714285714</ele><time>2026-04-10T11:02:59.715Z</time></trkpt><trkpt lat="44.7029754" lon="7.8897013"><ele>226.42857142857144</ele><time>2026-04-10T11:03:00.702Z</time></trkpt><trkpt lat="44.7029018" lon="7.8897118"><ele>225.71428571428575</ele><time>2026-04-10T11:03:01.724Z</time></trkpt><trkpt lat="44.7028307" lon="7.8897149"><ele>225.00000000000003</ele><time>2026-04-10T11:03:02.64Z</time></trkpt><trkpt lat="44.7027602" lon="7.8897187"><ele>224.8</ele><time>2026-04-10T11:03:03.711Z</time></trkpt><trkpt lat="44.7026919" lon="7.8897249"><ele>224.6</ele><time>2026-04-10T11:03:04.715Z</time></trkpt><trkpt lat="44.7025796" lon="7.8897101"><ele>224.39999999999998</ele><time>2026-04-10T11:03:06.717Z</time></trkpt><trkpt lat="44.7024745" lon="7.8896536"><ele>224.2</ele><time>2026-04-10T11:03:08.711Z</time></trkpt><trkpt lat="44.7023933" lon="7.8895351"><ele>224.0</ele><time>2026-04-10T11:03:10.687Z</time></trkpt><trkpt lat="44.7023266" lon="7.8893998"><ele>224.0</ele><time>2026-04-10T11:03:12.709Z</time></trkpt><trkpt lat="44.7022961" lon="7.8893219"><ele>224.0</ele><time>2026-04-10T11:03:13.73Z</time></trkpt><trkpt lat="44.7022668" lon="7.8892405"><ele>224.0</ele><time>2026-04-10T11:03:14.723Z</time></trkpt><trkpt lat="44.7022368" lon="7.889157"><ele>224.0</ele><time>2026-04-10T11:03:15.688Z</time></trkpt><trkpt lat="44.7022077" lon="7.88907"><ele>224.0</ele><time>2026-04-10T11:03:16.708Z</time></trkpt><trkpt lat="44.7021787" lon="7.8889835"><ele>224.0</ele><time>2026-04-10T11:03:17.689Z</time></trkpt><trkpt lat="44.7021468" lon="7.8888939"><ele>224.0</ele><time>2026-04-10T11:03:18.731Z</time></trkpt><trkpt lat="44.7021163" lon="7.8887987"><ele>224.14285714285714</ele><time>2026-04-10T11:03:19.702Z</time></trkpt><trkpt lat="44.7020826" lon="7.8887029"><ele>224.28571428571428</ele><time>2026-04-10T11:03:20.707Z</time></trkpt><trkpt lat="44.7020487" lon="7.8886101"><ele>224.42857142857144</ele><time>2026-04-10T11:03:21.699Z</time></trkpt><trkpt lat="44.7020203" lon="7.8885192"><ele>224.57142857142858</ele><time>2026-04-10T11:03:22.732Z</time></trkpt><trkpt lat="44.7019927" lon="7.8884264"><ele>224.71428571428572</ele><time>2026-04-10T11:03:23.653Z</time></trkpt><trkpt lat="44.701964" lon="7.8883282"><ele>224.8571428571429</ele><time>2026-04-10T11:03:24.726Z</time></trkpt><trkpt lat="44.7019365" lon="7.8882388"><ele>225.00000000000003</ele><time>2026-04-10T11:03:25.717Z</time></trkpt><trkpt lat="44.701909" lon="7.8881496"><ele>224.6</ele><time>2026-04-10T11:03:26.713Z</time></trkpt><trkpt lat="44.7018788" lon="7.8880631"><ele>224.2</ele><time>2026-04-10T11:03:27.703Z</time></trkpt><trkpt lat="44.7018498" lon="7.8879774"><ele>223.8</ele><time>2026-04-10T11:03:28.737Z</time></trkpt><trkpt lat="44.7017953" lon="7.8878185"><ele>223.4</ele><time>2026-04-10T11:03:30.643Z</time></trkpt><trkpt lat="44.7017304" lon="7.8876708"><ele>223.0</ele><time>2026-04-10T11:03:32.661Z</time></trkpt><trkpt lat="44.7016934" lon="7.8875922"><ele>223.0</ele><time>2026-04-10T11:03:33.646Z</time></trkpt><trkpt lat="44.7016545" lon="7.887515"><ele>223.0</ele><time>2026-04-10T11:03:34.678Z</time></trkpt><trkpt lat="44.7016128" lon="7.8874377"><ele>223.0</ele><time>2026-04-10T11:03:35.66Z</time></trkpt><trkpt lat="44.7015737" lon="7.8873602"><ele>223.0</ele><time>2026-04-10T11:03:36.642Z</time></trkpt><trkpt lat="44.701533" lon="7.8872892"><ele>223.0</ele><time>2026-04-10T11:03:37.67Z</time></trkpt><trkpt lat="44.7014934" lon="7.8872152"><ele>223.0</ele><time>2026-04-10T11:03:38.634Z</time></trkpt><trkpt lat="44.7014544" lon="7.8871434"><ele>223.0</ele><time>2026-04-10T11:03:39.649Z</time></trkpt><trkpt lat="44.7013721" lon="7.8870072"><ele>222.99999999999997</ele><time>2026-04-10T11:03:41.639Z</time></trkpt><trkpt lat="44.7012959" lon="7.8868684"><ele>223.0</ele><time>2026-04-10T11:03:43.677Z</time></trkpt><trkpt lat="44.7012545" lon="7.8867985"><ele>223.0</ele><time>2026-04-10T11:03:44.718Z</time></trkpt><trkpt lat="44.701207" lon="7.8867297"><ele>223.0</ele><time>2026-04-10T11:03:45.722Z</time></trkpt><trkpt lat="44.7011616" lon="7.8866612"><ele>222.99999999999997</ele><time>2026-04-10T11:03:46.723Z</time></trkpt><trkpt lat="44.7011216" lon="7.8865915"><ele>223.0</ele><time>2026-04-10T11:03:47.663Z</time></trkpt><trkpt lat="44.7010809" lon="7.8865215"><ele>222.8</ele><time>2026-04-10T11:03:48.736Z</time></trkpt><trkpt lat="44.7010384" lon="7.8864529"><ele>222.60000000000002</ele><time>2026-04-10T11:03:49.706Z</time></trkpt><trkpt lat="44.7009516" lon="7.8863184"><ele>222.39999999999998</ele><time>2026-04-10T11:03:51.737Z</time></trkpt><trkpt lat="44.7009065" lon="7.8862527"><ele>222.2</ele><time>2026-04-10T11:03:52.732Z</time></trkpt><trkpt lat="44.700827" lon="7.8861232"><ele>222.0</ele><time>2026-04-10T11:03:54.722Z</time></trkpt><trkpt lat="44.7007464" lon="7.8860009"><ele>222.2</ele><time>2026-04-10T11:03:56.733Z</time></trkpt><trkpt lat="44.700668" lon="7.8858862"><ele>222.39999999999998</ele><time>2026-04-10T11:03:58.734Z</time></trkpt><trkpt lat="44.7005911" lon="7.8857755"><ele>222.60000000000002</ele><time>2026-04-10T11:04:00.692Z</time></trkpt><trkpt lat="44.7005182" lon="7.885671"><ele>222.8</ele><time>2026-04-10T11:04:02.639Z</time></trkpt><trkpt lat="44.7004208" lon="7.8856555"><ele>223.0</ele><time>2026-04-10T11:04:04.708Z</time></trkpt><trkpt lat="44.700332" lon="7.8857053"><ele>222.99999999999997</ele><time>2026-04-10T11:04:06.676Z</time></trkpt><trkpt lat="44.7002506" lon="7.8857291"><ele>223.0</ele><time>2026-04-10T11:04:08.724Z</time></trkpt><trkpt lat="44.7001607" lon="7.8857468"><ele>223.0</ele><time>2026-04-10T11:04:10.644Z</time></trkpt><trkpt lat="44.700073" lon="7.8857626"><ele>223.0</ele><time>2026-04-10T11:04:12.703Z</time></trkpt><trkpt lat="44.6999828" lon="7.8857879"><ele>222.99999999999997</ele><time>2026-04-10T11:04:14.728Z</time></trkpt><trkpt lat="44.6999046" lon="7.8858176"><ele>223.0</ele><time>2026-04-10T11:04:16.721Z</time></trkpt><trkpt lat="44.6998291" lon="7.8858461"><ele>222.85714285714286</ele><time>2026-04-10T11:04:18.715Z</time></trkpt><trkpt lat="44.6997637" lon="7.8858911"><ele>222.71428571428572</ele><time>2026-04-10T11:04:20.696Z</time></trkpt><trkpt lat="44.6996967" lon="7.8859341"><ele>222.57142857142856</ele><time>2026-04-10T11:04:22.719Z</time></trkpt><trkpt lat="44.6996306" lon="7.8859692"><ele>222.42857142857144</ele><time>2026-04-10T11:04:24.714Z</time></trkpt><trkpt lat="44.6995667" lon="7.8860051"><ele>222.2857142857143</ele><time>2026-04-10T11:04:26.712Z</time></trkpt><trkpt lat="44.6995061" lon="7.8860375"><ele>222.14285714285714</ele><time>2026-04-10T11:04:28.715Z</time></trkpt><trkpt lat="44.6994232" lon="7.8860975"><ele>222.0</ele><time>2026-04-10T11:04:31.736Z</time></trkpt><trkpt lat="44.6993638" lon="7.8861444"><ele>221.66666666666666</ele><time>2026-04-10T11:04:33.719Z</time></trkpt><trkpt lat="44.699303" lon="7.8861832"><ele>221.33333333333331</ele><time>2026-04-10T11:04:35.723Z</time></trkpt><trkpt lat="44.6992415" lon="7.8862195"><ele>221.0</ele><time>2026-04-10T11:04:37.75Z</time></trkpt><trkpt lat="44.6991677" lon="7.886277"><ele>220.66666666666666</ele><time>2026-04-10T11:04:39.724Z</time></trkpt><trkpt lat="44.6990961" lon="7.8863319"><ele>220.33333333333331</ele><time>2026-04-10T11:04:41.718Z</time></trkpt><trkpt lat="44.6990207" lon="7.8863804"><ele>220.0</ele><time>2026-04-10T11:04:43.712Z</time></trkpt><trkpt lat="44.6989441" lon="7.8864267"><ele>220.0</ele><time>2026-04-10T11:04:45.685Z</time></trkpt><trkpt lat="44.698858" lon="7.8864851"><ele>220.0</ele><time>2026-04-10T11:04:47.663Z</time></trkpt><trkpt lat="44.6987212" lon="7.886574"><ele>220.0</ele><time>2026-04-10T11:04:50.67Z</time></trkpt><trkpt lat="44.6986304" lon="7.8866465"><ele>220.0</ele><time>2026-04-10T11:04:52.672Z</time></trkpt><trkpt lat="44.6985047" lon="7.8867539"><ele>219.6</ele><time>2026-04-10T11:04:55.695Z</time></trkpt><trkpt lat="44.6984016" lon="7.8868038"><ele>219.2</ele><time>2026-04-10T11:04:57.636Z</time></trkpt><trkpt lat="44.6983021" lon="7.8868664"><ele>218.8</ele><time>2026-04-10T11:04:59.705Z</time></trkpt><trkpt lat="44.6981966" lon="7.886917"><ele>218.4</ele><time>2026-04-10T11:05:01.633Z</time></trkpt><trkpt lat="44.6980906" lon="7.8869685"><ele>218.0</ele><time>2026-04-10T11:05:03.632Z</time></trkpt><trkpt lat="44.6979914" lon="7.8870002"><ele>218.0</ele><time>2026-04-10T11:05:05.642Z</time></trkpt><trkpt lat="44.6978631" lon="7.8870582"><ele>218.0</ele><time>2026-04-10T11:05:08.654Z</time></trkpt><trkpt lat="44.6977691" lon="7.8871112"><ele>218.0</ele><time>2026-04-10T11:05:10.681Z</time></trkpt><trkpt lat="44.697662" lon="7.8871566"><ele>218.0</ele><time>2026-04-10T11:05:12.671Z</time></trkpt><trkpt lat="44.6975749" lon="7.8872009"><ele>218.0</ele><time>2026-04-10T11:05:14.64Z</time></trkpt><trkpt lat="44.697489" lon="7.8872497"><ele>218.16666666666669</ele><time>2026-04-10T11:05:17.632Z</time></trkpt><trkpt lat="44.6974187" lon="7.8872591"><ele>218.33333333333334</ele><time>2026-04-10T11:05:20.653Z</time></trkpt><trkpt lat="44.6973542" lon="7.8872298"><ele>218.5</ele><time>2026-04-10T11:06:12.694Z</time></trkpt><trkpt lat="44.6972743" lon="7.8872005"><ele>218.66666666666669</ele><time>2026-04-10T11:06:17.733Z</time></trkpt><trkpt lat="44.697187" lon="7.8871882"><ele>218.83333333333334</ele><time>2026-04-10T11:06:20.732Z</time></trkpt><trkpt lat="44.6971216" lon="7.8872362"><ele>219.0</ele><time>2026-04-10T11:06:22.721Z</time></trkpt><trkpt lat="44.6970406" lon="7.8873027"><ele>219.0</ele><time>2026-04-10T11:06:24.73Z</time></trkpt><trkpt lat="44.6969536" lon="7.8873757"><ele>219.0</ele><time>2026-04-10T11:06:26.685Z</time></trkpt><trkpt lat="44.6968546" lon="7.8874554"><ele>219.0</ele><time>2026-04-10T11:06:28.729Z</time></trkpt><trkpt lat="44.696799" lon="7.8875063"><ele>219.0</ele><time>2026-04-10T11:06:29.723Z</time></trkpt><trkpt lat="44.6967432" lon="7.8875516"><ele>219.0</ele><time>2026-04-10T11:06:30.723Z</time></trkpt><trkpt lat="44.6966857" lon="7.8876015"><ele>219.0</ele><time>2026-04-10T11:06:31.739Z</time></trkpt><trkpt lat="44.6966284" lon="7.8876451"><ele>218.71428571428572</ele><time>2026-04-10T11:06:32.715Z</time></trkpt><trkpt lat="44.6965752" lon="7.8876941"><ele>218.42857142857142</ele><time>2026-04-10T11:06:33.698Z</time></trkpt><trkpt lat="44.696521" lon="7.8877414"><ele>218.14285714285714</ele><time>2026-04-10T11:06:34.727Z</time></trkpt><trkpt lat="44.696457" lon="7.8877884"><ele>217.85714285714286</ele><time>2026-04-10T11:06:35.712Z</time></trkpt><trkpt lat="44.6963992" lon="7.8878311"><ele>217.57142857142856</ele><time>2026-04-10T11:06:36.721Z</time></trkpt><trkpt lat="44.6963432" lon="7.8878777"><ele>217.28571428571428</ele><time>2026-04-10T11:06:37.668Z</time></trkpt><trkpt lat="44.6962828" lon="7.8879185"><ele>217.0</ele><time>2026-04-10T11:06:38.699Z</time></trkpt><trkpt lat="44.6962169" lon="7.8879417"><ele>217.0</ele><time>2026-04-10T11:06:39.728Z</time></trkpt><trkpt lat="44.6960987" lon="7.8879564"><ele>217.0</ele><time>2026-04-10T11:06:41.725Z</time></trkpt><trkpt lat="44.6959831" lon="7.8879915"><ele>217.0</ele><time>2026-04-10T11:06:43.724Z</time></trkpt><trkpt lat="44.6958675" lon="7.888031"><ele>217.0</ele><time>2026-04-10T11:06:45.731Z</time></trkpt><trkpt lat="44.6957335" lon="7.8880736"><ele>216.85714285714286</ele><time>2026-04-10T11:06:47.723Z</time></trkpt><trkpt lat="44.6956635" lon="7.8881015"><ele>216.71428571428572</ele><time>2026-04-10T11:06:48.674Z</time></trkpt><trkpt lat="44.695602" lon="7.8881294"><ele>216.57142857142856</ele><time>2026-04-10T11:06:49.711Z</time></trkpt><trkpt lat="44.6955372" lon="7.8881532"><ele>216.42857142857144</ele><time>2026-04-10T11:06:50.697Z</time></trkpt><trkpt lat="44.6954766" lon="7.8881788"><ele>216.28571428571428</ele><time>2026-04-10T11:06:51.714Z</time></trkpt><trkpt lat="44.695412" lon="7.8882092"><ele>216.14285714285714</ele><time>2026-04-10T11:06:52.728Z</time></trkpt><trkpt lat="44.6953499" lon="7.8882418"><ele>216.0</ele><time>2026-04-10T11:06:53.713Z</time></trkpt><trkpt lat="44.6952837" lon="7.8882708"><ele>215.60000000000002</ele><time>2026-04-10T11:06:54.707Z</time></trkpt><trkpt lat="44.6952177" lon="7.8882949"><ele>215.20000000000002</ele><time>2026-04-10T11:06:55.696Z</time></trkpt><trkpt lat="44.6951509" lon="7.8883191"><ele>214.79999999999998</ele><time>2026-04-10T11:06:56.705Z</time></trkpt><trkpt lat="44.6950866" lon="7.888346"><ele>214.39999999999998</ele><time>2026-04-10T11:06:57.712Z</time></trkpt><trkpt lat="44.6948945" lon="7.888414"><ele>214.0</ele><time>2026-04-10T11:07:00.647Z</time></trkpt><trkpt lat="44.6947655" lon="7.8884501"><ele>213.83333333333331</ele><time>2026-04-10T11:07:02.698Z</time></trkpt><trkpt lat="44.6946976" lon="7.8884734"><ele>213.66666666666666</ele><time>2026-04-10T11:07:03.721Z</time></trkpt><trkpt lat="44.6946283" lon="7.8884936"><ele>213.5</ele><time>2026-04-10T11:07:04.683Z</time></trkpt><trkpt lat="44.694562" lon="7.8885155"><ele>213.33333333333331</ele><time>2026-04-10T11:07:05.68Z</time></trkpt><trkpt lat="44.6944953" lon="7.8885404"><ele>213.16666666666666</ele><time>2026-04-10T11:07:06.687Z</time></trkpt><trkpt lat="44.6944312" lon="7.8885647"><ele>213.0</ele><time>2026-04-10T11:07:07.722Z</time></trkpt><trkpt lat="44.6943177" lon="7.8886034"><ele>213.0</ele><time>2026-04-10T11:07:09.719Z</time></trkpt><trkpt lat="44.6941637" lon="7.8886809"><ele>213.0</ele><time>2026-04-10T11:07:12.679Z</time></trkpt><trkpt lat="44.6940658" lon="7.888741"><ele>213.0</ele><time>2026-04-10T11:07:14.635Z</time></trkpt><trkpt lat="44.6939603" lon="7.8888196"><ele>213.0</ele><time>2026-04-10T11:07:16.659Z</time></trkpt><trkpt lat="44.6937947" lon="7.8889129"><ele>213.0</ele><time>2026-04-10T11:07:19.701Z</time></trkpt><trkpt lat="44.6936863" lon="7.8890049"><ele>213.0</ele><time>2026-04-10T11:07:21.673Z</time></trkpt><trkpt lat="44.6936373" lon="7.889067"><ele>213.0</ele><time>2026-04-10T11:07:22.652Z</time></trkpt><trkpt lat="44.6935801" lon="7.8891328"><ele>213.0</ele><time>2026-04-10T11:07:23.654Z</time></trkpt><trkpt lat="44.6935252" lon="7.8891939"><ele>213.0</ele><time>2026-04-10T11:07:24.643Z</time></trkpt><trkpt lat="44.6934666" lon="7.8892574"><ele>213.0</ele><time>2026-04-10T11:07:25.655Z</time></trkpt><trkpt lat="44.6934111" lon="7.8893167"><ele>212.33333333333334</ele><time>2026-04-10T11:07:26.635Z</time></trkpt><trkpt lat="44.6933585" lon="7.8893755"><ele>211.66666666666669</ele><time>2026-04-10T11:07:27.639Z</time></trkpt><trkpt lat="44.6933042" lon="7.8894295"><ele>211.0</ele><time>2026-04-10T11:07:28.651Z</time></trkpt><trkpt lat="44.6931923" lon="7.889562"><ele>210.33333333333334</ele><time>2026-04-10T11:07:30.65Z</time></trkpt><trkpt lat="44.6931343" lon="7.8896266"><ele>209.66666666666669</ele><time>2026-04-10T11:07:31.637Z</time></trkpt><trkpt lat="44.6930725" lon="7.8896856"><ele>209.0</ele><time>2026-04-10T11:07:32.646Z</time></trkpt><trkpt lat="44.6930127" lon="7.8897405"><ele>209.0</ele><time>2026-04-10T11:07:33.656Z</time></trkpt><trkpt lat="44.6929492" lon="7.8897999"><ele>209.0</ele><time>2026-04-10T11:07:34.641Z</time></trkpt><trkpt lat="44.6928833" lon="7.8898587"><ele>209.0</ele><time>2026-04-10T11:07:35.68Z</time></trkpt><trkpt lat="44.69282" lon="7.8899164"><ele>209.0</ele><time>2026-04-10T11:07:36.667Z</time></trkpt><trkpt lat="44.6927584" lon="7.8899684"><ele>209.0</ele><time>2026-04-10T11:07:37.706Z</time></trkpt><trkpt lat="44.6926976" lon="7.8900217"><ele>209.0</ele><time>2026-04-10T11:07:38.72Z</time></trkpt><trkpt lat="44.6926377" lon="7.8900787"><ele>209.0</ele><time>2026-04-10T11:07:39.668Z</time></trkpt><trkpt lat="44.6925802" lon="7.89013"><ele>209.0</ele><time>2026-04-10T11:07:40.693Z</time></trkpt><trkpt lat="44.6925231" lon="7.8901833"><ele>209.0</ele><time>2026-04-10T11:07:41.681Z</time></trkpt><trkpt lat="44.6924604" lon="7.890238"><ele>209.0</ele><time>2026-04-10T11:07:42.683Z</time></trkpt><trkpt lat="44.6924012" lon="7.8902935"><ele>209.0</ele><time>2026-04-10T11:07:43.707Z</time></trkpt><trkpt lat="44.6923366" lon="7.8903509"><ele>209.0</ele><time>2026-04-10T11:07:44.712Z</time></trkpt><trkpt lat="44.6922756" lon="7.8904045"><ele>209.0</ele><time>2026-04-10T11:07:45.725Z</time></trkpt><trkpt lat="44.6922114" lon="7.890461"><ele>209.0</ele><time>2026-04-10T11:07:46.714Z</time></trkpt><trkpt lat="44.6921454" lon="7.8905185"><ele>209.0</ele><time>2026-04-10T11:07:47.702Z</time></trkpt><trkpt lat="44.6920799" lon="7.8905744"><ele>209.0</ele><time>2026-04-10T11:07:48.697Z</time></trkpt><trkpt lat="44.6920172" lon="7.8906252"><ele>209.0</ele><time>2026-04-10T11:07:49.679Z</time></trkpt><trkpt lat="44.6919594" lon="7.8906758"><ele>209.0</ele><time>2026-04-10T11:07:50.718Z</time></trkpt><trkpt lat="44.6919043" lon="7.8907288"><ele>209.0</ele><time>2026-04-10T11:07:51.709Z</time></trkpt><trkpt lat="44.6918484" lon="7.8907811"><ele>209.0</ele><time>2026-04-10T11:07:52.728Z</time></trkpt><trkpt lat="44.6917897" lon="7.890826"><ele>209.0</ele><time>2026-04-10T11:07:53.717Z</time></trkpt><trkpt lat="44.6917299" lon="7.890872"><ele>208.71428571428572</ele><time>2026-04-10T11:07:54.719Z</time></trkpt><trkpt lat="44.6916674" lon="7.8909211"><ele>208.42857142857142</ele><time>2026-04-10T11:07:55.726Z</time></trkpt><trkpt lat="44.691604" lon="7.8909754"><ele>208.14285714285717</ele><time>2026-04-10T11:07:56.734Z</time></trkpt><trkpt lat="44.6915442" lon="7.8910282"><ele>207.85714285714286</ele><time>2026-04-10T11:07:57.727Z</time></trkpt><trkpt lat="44.6914864" lon="7.8910803"><ele>207.57142857142858</ele><time>2026-04-10T11:07:58.725Z</time></trkpt><trkpt lat="44.6914297" lon="7.8911302"><ele>207.2857142857143</ele><time>2026-04-10T11:07:59.737Z</time></trkpt><trkpt lat="44.6913725" lon="7.8911774"><ele>207.0</ele><time>2026-04-10T11:08:00.724Z</time></trkpt><trkpt lat="44.6913129" lon="7.8912315"><ele>207.00000000000003</ele><time>2026-04-10T11:08:01.728Z</time></trkpt><trkpt lat="44.6912522" lon="7.8912838"><ele>207.0</ele><time>2026-04-10T11:08:02.702Z</time></trkpt><trkpt lat="44.6911988" lon="7.891336"><ele>207.0</ele><time>2026-04-10T11:08:03.705Z</time></trkpt><trkpt lat="44.6911438" lon="7.8913874"><ele>207.0</ele><time>2026-04-10T11:08:04.714Z</time></trkpt><trkpt lat="44.6910872" lon="7.8914344"><ele>207.0</ele><time>2026-04-10T11:08:05.684Z</time></trkpt><trkpt lat="44.6910272" lon="7.8914797"><ele>207.00000000000003</ele><time>2026-04-10T11:08:06.714Z</time></trkpt><trkpt lat="44.6909686" lon="7.8915261"><ele>207.0</ele><time>2026-04-10T11:08:07.727Z</time></trkpt><trkpt lat="44.6909051" lon="7.8915622"><ele>207.0</ele><time>2026-04-10T11:08:08.719Z</time></trkpt><trkpt lat="44.6908416" lon="7.8915856"><ele>207.0</ele><time>2026-04-10T11:08:09.707Z</time></trkpt><trkpt lat="44.6907787" lon="7.8916048"><ele>207.0</ele><time>2026-04-10T11:08:10.71Z</time></trkpt><trkpt lat="44.6906513" lon="7.8916377"><ele>207.0</ele><time>2026-04-10T11:08:12.711Z</time></trkpt><trkpt lat="44.6905859" lon="7.8916521"><ele>207.0</ele><time>2026-04-10T11:08:13.716Z</time></trkpt><trkpt lat="44.6904621" lon="7.8916674"><ele>207.00000000000003</ele><time>2026-04-10T11:08:15.691Z</time></trkpt><trkpt lat="44.6903941" lon="7.8916788"><ele>207.0</ele><time>2026-04-10T11:08:16.729Z</time></trkpt><trkpt lat="44.6903276" lon="7.8916926"><ele>207.0</ele><time>2026-04-10T11:08:17.713Z</time></trkpt><trkpt lat="44.6902609" lon="7.8917165"><ele>207.0</ele><time>2026-04-10T11:08:18.737Z</time></trkpt><trkpt lat="44.6901923" lon="7.8917432"><ele>207.0</ele><time>2026-04-10T11:08:19.708Z</time></trkpt><trkpt lat="44.690129" lon="7.8917627"><ele>207.00000000000003</ele><time>2026-04-10T11:08:20.668Z</time></trkpt><trkpt lat="44.6900667" lon="7.8917888"><ele>207.0</ele><time>2026-04-10T11:08:21.728Z</time></trkpt><trkpt lat="44.6900033" lon="7.8918205"><ele>206.5</ele><time>2026-04-10T11:08:22.725Z</time></trkpt><trkpt lat="44.6899412" lon="7.8918433"><ele>206.0</ele><time>2026-04-10T11:08:23.686Z</time></trkpt><trkpt lat="44.6898737" lon="7.8918632"><ele>205.5</ele><time>2026-04-10T11:08:24.696Z</time></trkpt><trkpt lat="44.6898074" lon="7.8918793"><ele>205.0</ele><time>2026-04-10T11:08:25.723Z</time></trkpt><trkpt lat="44.6897441" lon="7.8918959"><ele>204.5</ele><time>2026-04-10T11:08:26.694Z</time></trkpt><trkpt lat="44.6896198" lon="7.8919243"><ele>204.0</ele><time>2026-04-10T11:08:28.739Z</time></trkpt><trkpt lat="44.6894966" lon="7.8919475"><ele>203.66666666666669</ele><time>2026-04-10T11:08:30.709Z</time></trkpt><trkpt lat="44.6892565" lon="7.8920066"><ele>203.33333333333334</ele><time>2026-04-10T11:08:34.664Z</time></trkpt><trkpt lat="44.6891399" lon="7.8920357"><ele>203.0</ele><time>2026-04-10T11:08:36.715Z</time></trkpt><trkpt lat="44.6890175" lon="7.8920642"><ele>203.00000000000003</ele><time>2026-04-10T11:08:38.716Z</time></trkpt><trkpt lat="44.6889546" lon="7.8920808"><ele>203.0</ele><time>2026-04-10T11:08:39.693Z</time></trkpt><trkpt lat="44.6888393" lon="7.8921236"><ele>203.0</ele><time>2026-04-10T11:08:41.715Z</time></trkpt><trkpt lat="44.6887786" lon="7.8921487"><ele>203.0</ele><time>2026-04-10T11:08:42.728Z</time></trkpt><trkpt lat="44.6886597" lon="7.8921979"><ele>203.00000000000003</ele><time>2026-04-10T11:08:44.719Z</time></trkpt><trkpt lat="44.6885979" lon="7.8922163"><ele>203.0</ele><time>2026-04-10T11:08:45.74Z</time></trkpt><trkpt lat="44.6884768" lon="7.8922562"><ele>203.00000000000003</ele><time>2026-04-10T11:08:47.74Z</time></trkpt><trkpt lat="44.6883554" lon="7.8922955"><ele>203.0</ele><time>2026-04-10T11:08:49.723Z</time></trkpt><trkpt lat="44.6882903" lon="7.8923103"><ele>203.0</ele><time>2026-04-10T11:08:50.718Z</time></trkpt><trkpt lat="44.688225" lon="7.8923257"><ele>203.0</ele><time>2026-04-10T11:08:51.718Z</time></trkpt><trkpt lat="44.6881617" lon="7.8923438"><ele>203.00000000000003</ele><time>2026-04-10T11:08:52.716Z</time></trkpt><trkpt lat="44.6880438" lon="7.8923808"><ele>203.0</ele><time>2026-04-10T11:08:54.723Z</time></trkpt><trkpt lat="44.6879252" lon="7.8924147"><ele>203.00000000000003</ele><time>2026-04-10T11:08:56.703Z</time></trkpt><trkpt lat="44.6878074" lon="7.8924377"><ele>203.0</ele><time>2026-04-10T11:08:58.716Z</time></trkpt><trkpt lat="44.6877456" lon="7.892457"><ele>203.0</ele><time>2026-04-10T11:08:59.713Z</time></trkpt><trkpt lat="44.6876245" lon="7.8924968"><ele>203.0</ele><time>2026-04-10T11:09:01.7Z</time></trkpt><trkpt lat="44.6875612" lon="7.8925178"><ele>203.00000000000003</ele><time>2026-04-10T11:09:02.695Z</time></trkpt><trkpt lat="44.687499" lon="7.8925358"><ele>203.0</ele><time>2026-04-10T11:09:03.723Z</time></trkpt><trkpt lat="44.6873809" lon="7.8925699"><ele>202.8</ele><time>2026-04-10T11:09:05.73Z</time></trkpt><trkpt lat="44.6872677" lon="7.8926054"><ele>202.60000000000002</ele><time>2026-04-10T11:09:07.717Z</time></trkpt><trkpt lat="44.6872068" lon="7.8926299"><ele>202.39999999999998</ele><time>2026-04-10T11:09:08.732Z</time></trkpt><trkpt lat="44.6870896" lon="7.8926707"><ele>202.2</ele><time>2026-04-10T11:09:10.723Z</time></trkpt><trkpt lat="44.6869725" lon="7.8926996"><ele>202.0</ele><time>2026-04-10T11:09:12.71Z</time></trkpt><trkpt lat="44.6868596" lon="7.8927335"><ele>202.0</ele><time>2026-04-10T11:09:14.738Z</time></trkpt><trkpt lat="44.6867472" lon="7.8927728"><ele>202.0</ele><time>2026-04-10T11:09:16.678Z</time></trkpt><trkpt lat="44.6866321" lon="7.8928152"><ele>202.0</ele><time>2026-04-10T11:09:18.731Z</time></trkpt><trkpt lat="44.686518" lon="7.8928568"><ele>202.0</ele><time>2026-04-10T11:09:20.695Z</time></trkpt><trkpt lat="44.6864097" lon="7.892896"><ele>202.0</ele><time>2026-04-10T11:09:22.665Z</time></trkpt><trkpt lat="44.6862978" lon="7.8929279"><ele>202.0</ele><time>2026-04-10T11:09:24.722Z</time></trkpt><trkpt lat="44.6861769" lon="7.8929619"><ele>202.0</ele><time>2026-04-10T11:09:26.729Z</time></trkpt><trkpt lat="44.686058" lon="7.8929963"><ele>202.0</ele><time>2026-04-10T11:09:28.726Z</time></trkpt><trkpt lat="44.6859403" lon="7.8930342"><ele>202.0</ele><time>2026-04-10T11:09:30.725Z</time></trkpt><trkpt lat="44.6858296" lon="7.8930801"><ele>202.0</ele><time>2026-04-10T11:09:32.748Z</time></trkpt><trkpt lat="44.6857215" lon="7.8931166"><ele>202.0</ele><time>2026-04-10T11:09:34.715Z</time></trkpt><trkpt lat="44.6856183" lon="7.8931521"><ele>202.0</ele><time>2026-04-10T11:09:36.717Z</time></trkpt><trkpt lat="44.6855574" lon="7.8931758"><ele>202.0</ele><time>2026-04-10T11:09:38.643Z</time></trkpt><trkpt lat="44.6854834" lon="7.8931924"><ele>202.0</ele><time>2026-04-10T11:09:42.709Z</time></trkpt><trkpt lat="44.685421" lon="7.8932104"><ele>202.0</ele><time>2026-04-10T11:09:44.666Z</time></trkpt><trkpt lat="44.6853203" lon="7.8932335"><ele>202.0</ele><time>2026-04-10T11:09:46.718Z</time></trkpt><trkpt lat="44.6852178" lon="7.8932619"><ele>202.0</ele><time>2026-04-10T11:09:48.717Z</time></trkpt><trkpt lat="44.6851176" lon="7.8932896"><ele>202.0</ele><time>2026-04-10T11:09:50.734Z</time></trkpt><trkpt lat="44.6850234" lon="7.8933117"><ele>202.0</ele><time>2026-04-10T11:09:52.73Z</time></trkpt><trkpt lat="44.6849292" lon="7.8933348"><ele>202.0</ele><time>2026-04-10T11:09:54.742Z</time></trkpt><trkpt lat="44.6848394" lon="7.8933564"><ele>202.0</ele><time>2026-04-10T11:09:56.74Z</time></trkpt><trkpt lat="44.684749" lon="7.8933916"><ele>202.0</ele><time>2026-04-10T11:09:58.715Z</time></trkpt><trkpt lat="44.6846701" lon="7.8934455"><ele>202.0</ele><time>2026-04-10T11:10:00.678Z</time></trkpt><trkpt lat="44.6845932" lon="7.8935046"><ele>201.99999999999997</ele><time>2026-04-10T11:10:02.746Z</time></trkpt><trkpt lat="44.6845009" lon="7.8935571"><ele>202.0</ele><time>2026-04-10T11:10:04.702Z</time></trkpt><trkpt lat="44.6844173" lon="7.8936105"><ele>202.0</ele><time>2026-04-10T11:10:06.628Z</time></trkpt><trkpt lat="44.6843354" lon="7.8936478"><ele>202.0</ele><time>2026-04-10T11:10:08.671Z</time></trkpt><trkpt lat="44.6842687" lon="7.8936908"><ele>201.99999999999997</ele><time>2026-04-10T11:10:10.684Z</time></trkpt><trkpt lat="44.6842029" lon="7.8937305"><ele>202.0</ele><time>2026-04-10T11:10:12.679Z</time></trkpt><trkpt lat="44.6841243" lon="7.8937894"><ele>202.2</ele><time>2026-04-10T11:10:14.664Z</time></trkpt><trkpt lat="44.6840103" lon="7.8938884"><ele>202.39999999999998</ele><time>2026-04-10T11:10:17.662Z</time></trkpt><trkpt lat="44.683933" lon="7.8939443"><ele>202.60000000000002</ele><time>2026-04-10T11:10:19.65Z</time></trkpt><trkpt lat="44.6838593" lon="7.8940031"><ele>202.8</ele><time>2026-04-10T11:10:21.64Z</time></trkpt><trkpt lat="44.6837762" lon="7.8940652"><ele>203.0</ele><time>2026-04-10T11:10:23.653Z</time></trkpt><trkpt lat="44.6836939" lon="7.8941187"><ele>203.00000000000003</ele><time>2026-04-10T11:10:25.654Z</time></trkpt><trkpt lat="44.683612" lon="7.8941719"><ele>203.0</ele><time>2026-04-10T11:10:27.632Z</time></trkpt><trkpt lat="44.6835303" lon="7.8942358"><ele>203.0</ele><time>2026-04-10T11:10:29.68Z</time></trkpt><trkpt lat="44.6834559" lon="7.8942941"><ele>203.0</ele><time>2026-04-10T11:10:31.645Z</time></trkpt><trkpt lat="44.6833896" lon="7.8943501"><ele>203.00000000000003</ele><time>2026-04-10T11:10:33.663Z</time></trkpt><trkpt lat="44.6833241" lon="7.8944139"><ele>203.0</ele><time>2026-04-10T11:10:35.659Z</time></trkpt><trkpt lat="44.6832199" lon="7.8944868"><ele>203.00000000000003</ele><time>2026-04-10T11:10:38.641Z</time></trkpt><trkpt lat="44.6831473" lon="7.8945548"><ele>203.0</ele><time>2026-04-10T11:10:40.676Z</time></trkpt><trkpt lat="44.6830841" lon="7.8946097"><ele>203.0</ele><time>2026-04-10T11:10:42.711Z</time></trkpt><trkpt lat="44.683006" lon="7.8946867"><ele>203.0</ele><time>2026-04-10T11:10:45.716Z</time></trkpt><trkpt lat="44.682945" lon="7.8947309"><ele>203.00000000000003</ele><time>2026-04-10T11:10:47.711Z</time></trkpt><trkpt lat="44.6828892" lon="7.8947844"><ele>203.0</ele><time>2026-04-10T11:10:49.723Z</time></trkpt><trkpt lat="44.6828362" lon="7.8948506"><ele>203.0</ele><time>2026-04-10T11:11:04.715Z</time></trkpt><trkpt lat="44.682885" lon="7.8949178"><ele>203.0</ele><time>2026-04-10T11:13:33.714Z</time></trkpt><trkpt lat="44.6828623" lon="7.8950086"><ele>203.0</ele><time>2026-04-10T11:13:38.717Z</time></trkpt><trkpt lat="44.6828335" lon="7.8950906"><ele>203.0</ele><time>2026-04-10T11:14:37.714Z</time></trkpt><trkpt lat="44.6828857" lon="7.8951766"><ele>203.0</ele><time>2026-04-10T11:14:41.644Z</time></trkpt><trkpt lat="44.6829261" lon="7.8952478"><ele>203.0</ele><time>2026-04-10T11:14:44.646Z</time></trkpt><trkpt lat="44.682975" lon="7.8953086"><ele>203.0</ele><time>2026-04-10T11:14:47.71Z</time></trkpt><trkpt lat="44.6830425" lon="7.8953789"><ele>203.0</ele><time>2026-04-10T11:14:51.725Z</time></trkpt><trkpt lat="44.6831033" lon="7.8954429"><ele>203.0</ele><time>2026-04-10T11:14:54.668Z</time></trkpt><trkpt lat="44.6831607" lon="7.8955135"><ele>203.0</ele><time>2026-04-10T11:14:57.707Z</time></trkpt><trkpt lat="44.6832151" lon="7.8955594"><ele>203.0</ele><time>2026-04-10T11:14:59.665Z</time></trkpt><trkpt lat="44.6832642" lon="7.8956272"><ele>203.0</ele><time>2026-04-10T11:15:01.626Z</time></trkpt><trkpt lat="44.6833089" lon="7.8956898"><ele>203.0</ele><time>2026-04-10T11:15:03.628Z</time></trkpt><trkpt lat="44.6833589" lon="7.8957449"><ele>203.0</ele><time>2026-04-10T11:15:05.648Z</time></trkpt><trkpt lat="44.6834105" lon="7.8958107"><ele>203.0</ele><time>2026-04-10T11:15:07.718Z</time></trkpt><trkpt lat="44.6834596" lon="7.8958783"><ele>203.0</ele><time>2026-04-10T11:15:09.722Z</time></trkpt><trkpt lat="44.6835075" lon="7.8959396"><ele>203.0</ele><time>2026-04-10T11:15:11.704Z</time></trkpt><trkpt lat="44.6835609" lon="7.8960022"><ele>203.0</ele><time>2026-04-10T11:15:13.71Z</time></trkpt><trkpt lat="44.6836138" lon="7.8960716"><ele>203.0</ele><time>2026-04-10T11:15:15.695Z</time></trkpt><trkpt lat="44.6836836" lon="7.8961615"><ele>203.0</ele><time>2026-04-10T11:15:18.652Z</time></trkpt><trkpt lat="44.6837353" lon="7.8962238"><ele>203.0</ele><time>2026-04-10T11:15:20.645Z</time></trkpt><trkpt lat="44.6837899" lon="7.8962876"><ele>202.85714285714286</ele><time>2026-04-10T11:15:22.722Z</time></trkpt><trkpt lat="44.6838479" lon="7.8963435"><ele>202.71428571428572</ele><time>2026-04-10T11:15:24.704Z</time></trkpt><trkpt lat="44.6839131" lon="7.8964097"><ele>202.57142857142856</ele><time>2026-04-10T11:15:26.718Z</time></trkpt><trkpt lat="44.6839704" lon="7.8964848"><ele>202.42857142857144</ele><time>2026-04-10T11:15:28.714Z</time></trkpt><trkpt lat="44.6840291" lon="7.8965593"><ele>202.28571428571428</ele><time>2026-04-10T11:15:30.695Z</time></trkpt><trkpt lat="44.6840785" lon="7.8966215"><ele>202.14285714285714</ele><time>2026-04-10T11:15:32.692Z</time></trkpt><trkpt lat="44.6840561" lon="7.8965376"><ele>202.0</ele><time>2026-04-10T11:15:39.681Z</time></trkpt><trkpt lat="44.6840015" lon="7.8964723"><ele>201.99999999999997</ele><time>2026-04-10T11:15:41.687Z</time></trkpt><trkpt lat="44.6839507" lon="7.8964064"><ele>202.0</ele><time>2026-04-10T11:15:43.705Z</time></trkpt><trkpt lat="44.6839103" lon="7.8962996"><ele>202.0</ele><time>2026-04-10T11:15:46.727Z</time></trkpt><trkpt lat="44.6839526" lon="7.8962233"><ele>202.0</ele><time>2026-04-10T11:15:48.712Z</time></trkpt><trkpt lat="44.6840176" lon="7.8961368"><ele>201.99999999999997</ele><time>2026-04-10T11:15:50.696Z</time></trkpt><trkpt lat="44.6840857" lon="7.8960622"><ele>202.0</ele><time>2026-04-10T11:15:52.69Z</time></trkpt><trkpt lat="44.6841346" lon="7.8959783"><ele>202.0</ele><time>2026-04-10T11:15:54.727Z</time></trkpt><trkpt lat="44.6841902" lon="7.8959223"><ele>202.0</ele><time>2026-04-10T11:15:56.744Z</time></trkpt><trkpt lat="44.6842474" lon="7.8958659"><ele>202.0</ele><time>2026-04-10T11:15:58.724Z</time></trkpt><trkpt lat="44.6843145" lon="7.8958293"><ele>202.0</ele><time>2026-04-10T11:16:00.736Z</time></trkpt><trkpt lat="44.684388" lon="7.8958174"><ele>202.0</ele><time>2026-04-10T11:16:03.706Z</time></trkpt><trkpt lat="44.6844258" lon="7.8957304"><ele>202.0</ele><time>2026-04-10T11:16:06.707Z</time></trkpt><trkpt lat="44.6844533" lon="7.8956498"><ele>202.0</ele><time>2026-04-10T11:16:08.716Z</time></trkpt><trkpt lat="44.6844909" lon="7.8955549"><ele>202.16666666666666</ele><time>2026-04-10T11:16:10.711Z</time></trkpt><trkpt lat="44.6845466" lon="7.895479"><ele>202.33333333333331</ele><time>2026-04-10T11:16:12.714Z</time></trkpt><trkpt lat="44.6846138" lon="7.8954525"><ele>202.5</ele><time>2026-04-10T11:16:14.698Z</time></trkpt><trkpt lat="44.6846991" lon="7.8954354"><ele>202.66666666666669</ele><time>2026-04-10T11:16:17.696Z</time></trkpt><trkpt lat="44.6847739" lon="7.895436"><ele>202.83333333333334</ele><time>2026-04-10T11:16:20.695Z</time></trkpt><trkpt lat="44.6848792" lon="7.8955214"><ele>203.0</ele><time>2026-04-10T11:16:24.724Z</time></trkpt><trkpt lat="44.6849357" lon="7.8956166"><ele>203.0</ele><time>2026-04-10T11:16:26.707Z</time></trkpt><trkpt lat="44.6849992" lon="7.8957242"><ele>203.0</ele><time>2026-04-10T11:16:28.718Z</time></trkpt><trkpt lat="44.6850478" lon="7.8958107"><ele>203.0</ele><time>2026-04-10T11:16:30.716Z</time></trkpt><trkpt lat="44.685076" lon="7.8958955"><ele>203.0</ele><time>2026-04-10T11:16:32.719Z</time></trkpt><trkpt lat="44.6850973" lon="7.895979"><ele>203.0</ele><time>2026-04-10T11:16:34.708Z</time></trkpt><trkpt lat="44.6851126" lon="7.8960773"><ele>203.0</ele><time>2026-04-10T11:16:38.694Z</time></trkpt><trkpt lat="44.6851819" lon="7.8960835"><ele>203.0</ele><time>2026-04-10T11:16:42.696Z</time></trkpt><trkpt lat="44.6852626" lon="7.8960644"><ele>202.83333333333334</ele><time>2026-04-10T11:16:45.722Z</time></trkpt><trkpt lat="44.6853385" lon="7.8959922"><ele>202.66666666666669</ele><time>2026-04-10T11:16:47.657Z</time></trkpt><trkpt lat="44.6854162" lon="7.8959465"><ele>202.5</ele><time>2026-04-10T11:16:49.717Z</time></trkpt><trkpt lat="44.6854915" lon="7.8959068"><ele>202.33333333333331</ele><time>2026-04-10T11:16:51.651Z</time></trkpt><trkpt lat="44.6855644" lon="7.8958524"><ele>202.16666666666666</ele><time>2026-04-10T11:16:53.733Z</time></trkpt><trkpt lat="44.685615" lon="7.8957617"><ele>202.0</ele><time>2026-04-10T11:16:55.715Z</time></trkpt><trkpt lat="44.6856695" lon="7.8956863"><ele>201.99999999999997</ele><time>2026-04-10T11:16:57.722Z</time></trkpt><trkpt lat="44.6857402" lon="7.8956108"><ele>202.0</ele><time>2026-04-10T11:17:00.725Z</time></trkpt><trkpt lat="44.6858275" lon="7.8956669"><ele>202.0</ele><time>2026-04-10T11:17:03.725Z</time></trkpt><trkpt lat="44.6858785" lon="7.8957448"><ele>202.0</ele><time>2026-04-10T11:17:05.704Z</time></trkpt><trkpt lat="44.6859305" lon="7.8958296"><ele>201.99999999999997</ele><time>2026-04-10T11:17:07.714Z</time></trkpt><trkpt lat="44.6859914" lon="7.8959148"><ele>202.0</ele><time>2026-04-10T11:17:09.724Z</time></trkpt><trkpt lat="44.6860512" lon="7.8960053"><ele>201.99999999999997</ele><time>2026-04-10T11:17:11.729Z</time></trkpt><trkpt lat="44.6861123" lon="7.8960925"><ele>202.0</ele><time>2026-04-10T11:17:13.716Z</time></trkpt><trkpt lat="44.6861656" lon="7.8961871"><ele>202.0</ele><time>2026-04-10T11:17:15.713Z</time></trkpt><trkpt lat="44.6862164" lon="7.8962545"><ele>202.0</ele><time>2026-04-10T11:17:17.725Z</time></trkpt><trkpt lat="44.6862525" lon="7.8963339"><ele>201.99999999999997</ele><time>2026-04-10T11:17:20.666Z</time></trkpt><trkpt lat="44.6861971" lon="7.8964129"><ele>202.0</ele><time>2026-04-10T11:17:23.683Z</time></trkpt><trkpt lat="44.6861294" lon="7.8964634"><ele>202.0</ele><time>2026-04-10T11:17:25.711Z</time></trkpt><trkpt lat="44.6860485" lon="7.896522"><ele>202.0</ele><time>2026-04-10T11:17:27.708Z</time></trkpt><trkpt lat="44.685963" lon="7.8965944"><ele>202.0</ele><time>2026-04-10T11:17:29.708Z</time></trkpt><trkpt lat="44.6858759" lon="7.8966665"><ele>202.0</ele><time>2026-04-10T11:17:31.711Z</time></trkpt><trkpt lat="44.6857932" lon="7.896749"><ele>202.0</ele><time>2026-04-10T11:17:33.73Z</time></trkpt><trkpt lat="44.6857073" lon="7.896818"><ele>202.2</ele><time>2026-04-10T11:17:35.714Z</time></trkpt><trkpt lat="44.68562" lon="7.8968857"><ele>202.39999999999998</ele><time>2026-04-10T11:17:37.706Z</time></trkpt><trkpt lat="44.6855365" lon="7.8969527"><ele>202.60000000000002</ele><time>2026-04-10T11:17:39.702Z</time></trkpt><trkpt lat="44.6854478" lon="7.8970152"><ele>202.8</ele><time>2026-04-10T11:17:41.725Z</time></trkpt><trkpt lat="44.6853575" lon="7.8970853"><ele>203.0</ele><time>2026-04-10T11:17:43.656Z</time></trkpt><trkpt lat="44.6852652" lon="7.8971602"><ele>202.60000000000002</ele><time>2026-04-10T11:17:45.659Z</time></trkpt><trkpt lat="44.6851746" lon="7.8972355"><ele>202.20000000000002</ele><time>2026-04-10T11:17:47.617Z</time></trkpt><trkpt lat="44.685093" lon="7.8973178"><ele>201.8</ele><time>2026-04-10T11:17:49.662Z</time></trkpt><trkpt lat="44.6850083" lon="7.8974151"><ele>201.4</ele><time>2026-04-10T11:17:51.661Z</time></trkpt><trkpt lat="44.6849297" lon="7.8975358"><ele>201.0</ele><time>2026-04-10T11:17:53.628Z</time></trkpt><trkpt lat="44.6848537" lon="7.8976552"><ele>200.33333333333331</ele><time>2026-04-10T11:17:55.649Z</time></trkpt><trkpt lat="44.6847123" lon="7.8979029"><ele>199.66666666666666</ele><time>2026-04-10T11:17:59.671Z</time></trkpt><trkpt lat="44.6846504" lon="7.8980529"><ele>199.0</ele><time>2026-04-10T11:18:01.719Z</time></trkpt><trkpt lat="44.6845872" lon="7.8982094"><ele>199.0</ele><time>2026-04-10T11:18:03.694Z</time></trkpt><trkpt lat="44.6845552" lon="7.8982898"><ele>199.0</ele><time>2026-04-10T11:18:04.689Z</time></trkpt><trkpt lat="44.6844689" lon="7.8985239"><ele>199.0</ele><time>2026-04-10T11:18:07.709Z</time></trkpt><trkpt lat="44.6844407" lon="7.8986056"><ele>199.0</ele><time>2026-04-10T11:18:08.716Z</time></trkpt><trkpt lat="44.6844109" lon="7.8986859"><ele>199.0</ele><time>2026-04-10T11:18:09.719Z</time></trkpt><trkpt lat="44.6843566" lon="7.8988477"><ele>198.79999999999998</ele><time>2026-04-10T11:18:11.655Z</time></trkpt><trkpt lat="44.6843301" lon="7.8989355"><ele>198.6</ele><time>2026-04-10T11:18:12.718Z</time></trkpt><trkpt lat="44.6843021" lon="7.8990222"><ele>198.4</ele><time>2026-04-10T11:18:13.726Z</time></trkpt><trkpt lat="44.6842573" lon="7.8991867"><ele>198.2</ele><time>2026-04-10T11:18:15.711Z</time></trkpt><trkpt lat="44.6842352" lon="7.8992699"><ele>198.0</ele><time>2026-04-10T11:18:16.713Z</time></trkpt><trkpt lat="44.6841891" lon="7.8994371"><ele>197.71428571428572</ele><time>2026-04-10T11:18:18.669Z</time></trkpt><trkpt lat="44.6841672" lon="7.8995255"><ele>197.42857142857142</ele><time>2026-04-10T11:18:19.71Z</time></trkpt><trkpt lat="44.6841465" lon="7.8996122"><ele>197.14285714285714</ele><time>2026-04-10T11:18:20.707Z</time></trkpt><trkpt lat="44.6841279" lon="7.8996999"><ele>196.85714285714286</ele><time>2026-04-10T11:18:21.691Z</time></trkpt><trkpt lat="44.6841129" lon="7.8997926"><ele>196.57142857142856</ele><time>2026-04-10T11:18:22.657Z</time></trkpt><trkpt lat="44.684099" lon="7.8998874"><ele>196.28571428571428</ele><time>2026-04-10T11:18:23.712Z</time></trkpt><trkpt lat="44.6840801" lon="7.8999819"><ele>196.0</ele><time>2026-04-10T11:18:24.712Z</time></trkpt><trkpt lat="44.6840639" lon="7.90007"><ele>195.85714285714286</ele><time>2026-04-10T11:18:25.7Z</time></trkpt><trkpt lat="44.6840483" lon="7.9001585"><ele>195.71428571428572</ele><time>2026-04-10T11:18:26.706Z</time></trkpt><trkpt lat="44.6840337" lon="7.9002506"><ele>195.57142857142856</ele><time>2026-04-10T11:18:27.694Z</time></trkpt><trkpt lat="44.6840193" lon="7.900343"><ele>195.42857142857144</ele><time>2026-04-10T11:18:28.672Z</time></trkpt><trkpt lat="44.6840055" lon="7.9004311"><ele>195.28571428571428</ele><time>2026-04-10T11:18:29.703Z</time></trkpt><trkpt lat="44.6839945" lon="7.9005202"><ele>195.14285714285714</ele><time>2026-04-10T11:18:30.717Z</time></trkpt><trkpt lat="44.6839831" lon="7.9006104"><ele>195.0</ele><time>2026-04-10T11:18:31.707Z</time></trkpt><trkpt lat="44.6839591" lon="7.9007846"><ele>195.0</ele><time>2026-04-10T11:18:33.71Z</time></trkpt><trkpt lat="44.6839493" lon="7.9008767"><ele>195.0</ele><time>2026-04-10T11:18:34.699Z</time></trkpt><trkpt lat="44.6839419" lon="7.9009678"><ele>195.0</ele><time>2026-04-10T11:18:35.694Z</time></trkpt><trkpt lat="44.6839225" lon="7.9011446"><ele>195.0</ele><time>2026-04-10T11:18:37.699Z</time></trkpt><trkpt lat="44.6839133" lon="7.9012326"><ele>195.0</ele><time>2026-04-10T11:18:38.708Z</time></trkpt><trkpt lat="44.6838962" lon="7.901405"><ele>195.0</ele><time>2026-04-10T11:18:40.704Z</time></trkpt><trkpt lat="44.6838837" lon="7.9015759"><ele>195.0</ele><time>2026-04-10T11:18:42.698Z</time></trkpt><trkpt lat="44.683877" lon="7.9016674"><ele>195.0</ele><time>2026-04-10T11:18:43.711Z</time></trkpt><trkpt lat="44.6838689" lon="7.9017578"><ele>195.0</ele><time>2026-04-10T11:18:44.697Z</time></trkpt><trkpt lat="44.6838501" lon="7.9019373"><ele>195.0</ele><time>2026-04-10T11:18:46.72Z</time></trkpt><trkpt lat="44.6838416" lon="7.9020285"><ele>195.0</ele><time>2026-04-10T11:18:47.713Z</time></trkpt><trkpt lat="44.6838255" lon="7.9021938"><ele>195.0</ele><time>2026-04-10T11:18:49.723Z</time></trkpt><trkpt lat="44.6838102" lon="7.9023617"><ele>195.0</ele><time>2026-04-10T11:18:51.7Z</time></trkpt><trkpt lat="44.6837989" lon="7.9025327"><ele>195.0</ele><time>2026-04-10T11:18:53.696Z</time></trkpt><trkpt lat="44.6837905" lon="7.9026962"><ele>195.0</ele><time>2026-04-10T11:18:55.708Z</time></trkpt><trkpt lat="44.6837746" lon="7.902854"><ele>195.0</ele><time>2026-04-10T11:18:57.714Z</time></trkpt><trkpt lat="44.6837644" lon="7.903011"><ele>195.0</ele><time>2026-04-10T11:18:59.696Z</time></trkpt><trkpt lat="44.683756" lon="7.9031766"><ele>195.0</ele><time>2026-04-10T11:19:01.709Z</time></trkpt><trkpt lat="44.6837444" lon="7.9033478"><ele>195.0</ele><time>2026-04-10T11:19:03.709Z</time></trkpt><trkpt lat="44.6837347" lon="7.9034371"><ele>195.0</ele><time>2026-04-10T11:19:04.716Z</time></trkpt><trkpt lat="44.6837219" lon="7.9036117"><ele>195.0</ele><time>2026-04-10T11:19:06.668Z</time></trkpt><trkpt lat="44.6837059" lon="7.9037802"><ele>195.0</ele><time>2026-04-10T11:19:08.72Z</time></trkpt><trkpt lat="44.6836902" lon="7.9039463"><ele>195.0</ele><time>2026-04-10T11:19:10.713Z</time></trkpt><trkpt lat="44.6836734" lon="7.9041168"><ele>195.0</ele><time>2026-04-10T11:19:12.709Z</time></trkpt><trkpt lat="44.6836614" lon="7.90428"><ele>195.0</ele><time>2026-04-10T11:19:14.71Z</time></trkpt><trkpt lat="44.6836474" lon="7.9044414"><ele>194.75</ele><time>2026-04-10T11:19:16.724Z</time></trkpt><trkpt lat="44.6836314" lon="7.904598"><ele>194.5</ele><time>2026-04-10T11:19:18.709Z</time></trkpt><trkpt lat="44.6836222" lon="7.9047674"><ele>194.25</ele><time>2026-04-10T11:19:20.69Z</time></trkpt><trkpt lat="44.6836116" lon="7.9049357"><ele>194.0</ele><time>2026-04-10T11:19:22.709Z</time></trkpt><trkpt lat="44.6835986" lon="7.9051032"><ele>194.0</ele><time>2026-04-10T11:19:24.712Z</time></trkpt><trkpt lat="44.6835897" lon="7.9052699"><ele>194.0</ele><time>2026-04-10T11:19:26.703Z</time></trkpt><trkpt lat="44.6835808" lon="7.9054373"><ele>194.0</ele><time>2026-04-10T11:19:28.709Z</time></trkpt><trkpt lat="44.6835673" lon="7.905605"><ele>194.0</ele><time>2026-04-10T11:19:30.666Z</time></trkpt><trkpt lat="44.6835534" lon="7.9057632"><ele>193.5</ele><time>2026-04-10T11:19:32.734Z</time></trkpt><trkpt lat="44.6835402" lon="7.905915"><ele>193.0</ele><time>2026-04-10T11:19:34.714Z</time></trkpt><trkpt lat="44.683527" lon="7.9060825"><ele>192.5</ele><time>2026-04-10T11:19:36.688Z</time></trkpt><trkpt lat="44.6835246" lon="7.9062463"><ele>192.0</ele><time>2026-04-10T11:19:38.698Z</time></trkpt><trkpt lat="44.6835236" lon="7.9064172"><ele>192.0</ele><time>2026-04-10T11:19:40.718Z</time></trkpt><trkpt lat="44.6835381" lon="7.9065856"><ele>192.0</ele><time>2026-04-10T11:19:42.692Z</time></trkpt><trkpt lat="44.683549" lon="7.906673"><ele>192.0</ele><time>2026-04-10T11:19:43.715Z</time></trkpt><trkpt lat="44.6835794" lon="7.9068381"><ele>192.0</ele><time>2026-04-10T11:19:45.718Z</time></trkpt><trkpt lat="44.6836505" lon="7.907078"><ele>191.99999999999997</ele><time>2026-04-10T11:19:48.691Z</time></trkpt><trkpt lat="44.6836805" lon="7.9071565"><ele>192.0</ele><time>2026-04-10T11:19:49.717Z</time></trkpt><trkpt lat="44.6837086" lon="7.9072372"><ele>192.0</ele><time>2026-04-10T11:19:50.725Z</time></trkpt><trkpt lat="44.6837383" lon="7.9073159"><ele>192.0</ele><time>2026-04-10T11:19:51.701Z</time></trkpt><trkpt lat="44.6837669" lon="7.9073954"><ele>192.0</ele><time>2026-04-10T11:19:52.69Z</time></trkpt><trkpt lat="44.6838285" lon="7.9075467"><ele>191.99999999999997</ele><time>2026-04-10T11:19:54.725Z</time></trkpt><trkpt lat="44.6838623" lon="7.9076228"><ele>192.0</ele><time>2026-04-10T11:19:55.708Z</time></trkpt><trkpt lat="44.6839284" lon="7.9077733"><ele>192.0</ele><time>2026-04-10T11:19:57.727Z</time></trkpt><trkpt lat="44.683959" lon="7.9078509"><ele>192.0</ele><time>2026-04-10T11:19:58.712Z</time></trkpt><trkpt lat="44.6839901" lon="7.9079305"><ele>192.0</ele><time>2026-04-10T11:19:59.711Z</time></trkpt><trkpt lat="44.6840229" lon="7.9080074"><ele>192.0</ele><time>2026-04-10T11:20:00.708Z</time></trkpt><trkpt lat="44.6840507" lon="7.9080875"><ele>192.0</ele><time>2026-04-10T11:20:01.721Z</time></trkpt><trkpt lat="44.6841137" lon="7.9082363"><ele>192.0</ele><time>2026-04-10T11:20:03.721Z</time></trkpt><trkpt lat="44.6841771" lon="7.9083888"><ele>191.8</ele><time>2026-04-10T11:20:05.699Z</time></trkpt><trkpt lat="44.6842089" lon="7.9084663"><ele>191.6</ele><time>2026-04-10T11:20:06.711Z</time></trkpt><trkpt lat="44.6842409" lon="7.9085441"><ele>191.4</ele><time>2026-04-10T11:20:07.721Z</time></trkpt><trkpt lat="44.6842971" lon="7.9086948"><ele>191.20000000000002</ele><time>2026-04-10T11:20:09.708Z</time></trkpt><trkpt lat="44.6843602" lon="7.9088436"><ele>191.0</ele><time>2026-04-10T11:20:11.703Z</time></trkpt><trkpt lat="44.6844221" lon="7.9089888"><ele>191.16666666666666</ele><time>2026-04-10T11:20:13.718Z</time></trkpt><trkpt lat="44.6844844" lon="7.9091415"><ele>191.33333333333331</ele><time>2026-04-10T11:20:15.721Z</time></trkpt><trkpt lat="44.6845486" lon="7.909292"><ele>191.5</ele><time>2026-04-10T11:20:17.706Z</time></trkpt><trkpt lat="44.6845802" lon="7.9093704"><ele>191.66666666666666</ele><time>2026-04-10T11:20:18.708Z</time></trkpt><trkpt lat="44.6846129" lon="7.9094477"><ele>191.83333333333334</ele><time>2026-04-10T11:20:19.732Z</time></trkpt><trkpt lat="44.684647" lon="7.9095266"><ele>192.0</ele><time>2026-04-10T11:20:20.704Z</time></trkpt><trkpt lat="44.6846793" lon="7.9096061"><ele>192.5</ele><time>2026-04-10T11:20:21.716Z</time></trkpt><trkpt lat="44.6847442" lon="7.9097563"><ele>193.0</ele><time>2026-04-10T11:20:23.679Z</time></trkpt><trkpt lat="44.6848037" lon="7.9099019"><ele>193.5</ele><time>2026-04-10T11:20:25.719Z</time></trkpt><trkpt lat="44.6848652" lon="7.9100588"><ele>194.0</ele><time>2026-04-10T11:20:27.711Z</time></trkpt><trkpt lat="44.6849253" lon="7.9102098"><ele>194.2</ele><time>2026-04-10T11:20:29.703Z</time></trkpt><trkpt lat="44.6849577" lon="7.9102877"><ele>194.39999999999998</ele><time>2026-04-10T11:20:30.723Z</time></trkpt><trkpt lat="44.6850139" lon="7.9104391"><ele>194.6</ele><time>2026-04-10T11:20:32.693Z</time></trkpt><trkpt lat="44.6850736" lon="7.9105915"><ele>194.8</ele><time>2026-04-10T11:20:34.717Z</time></trkpt><trkpt lat="44.6851328" lon="7.9107369"><ele>195.0</ele><time>2026-04-10T11:20:36.717Z</time></trkpt><trkpt lat="44.6851893" lon="7.9108734"><ele>194.25</ele><time>2026-04-10T11:20:38.712Z</time></trkpt><trkpt lat="44.6852393" lon="7.9110061"><ele>193.5</ele><time>2026-04-10T11:20:40.722Z</time></trkpt><trkpt lat="44.6852976" lon="7.9111408"><ele>192.75</ele><time>2026-04-10T11:20:42.691Z</time></trkpt><trkpt lat="44.6853528" lon="7.9112836"><ele>192.0</ele><time>2026-04-10T11:20:44.711Z</time></trkpt><trkpt lat="44.6854837" lon="7.9116134"><ele>192.0</ele><time>2026-04-10T11:20:49.744Z</time></trkpt><trkpt lat="44.6855313" lon="7.9117321"><ele>192.0</ele><time>2026-04-10T11:20:51.716Z</time></trkpt><trkpt lat="44.6855619" lon="7.9118662"><ele>192.0</ele><time>2026-04-10T11:20:53.701Z</time></trkpt><trkpt lat="44.6855789" lon="7.9119907"><ele>192.0</ele><time>2026-04-10T11:20:55.712Z</time></trkpt><trkpt lat="44.6855804" lon="7.9121143"><ele>192.0</ele><time>2026-04-10T11:20:57.711Z</time></trkpt><trkpt lat="44.6855618" lon="7.9122421"><ele>191.6</ele><time>2026-04-10T11:20:59.616Z</time></trkpt><trkpt lat="44.6855186" lon="7.9123639"><ele>191.2</ele><time>2026-04-10T11:21:01.724Z</time></trkpt><trkpt lat="44.6854618" lon="7.9124579"><ele>190.8</ele><time>2026-04-10T11:21:03.69Z</time></trkpt><trkpt lat="44.6853964" lon="7.9125419"><ele>190.4</ele><time>2026-04-10T11:21:05.714Z</time></trkpt><trkpt lat="44.6853142" lon="7.9126163"><ele>190.0</ele><time>2026-04-10T11:21:07.71Z</time></trkpt><trkpt lat="44.6852358" lon="7.9126788"><ele>189.2</ele><time>2026-04-10T11:21:09.71Z</time></trkpt><trkpt lat="44.6851512" lon="7.9127452"><ele>188.4</ele><time>2026-04-10T11:21:11.688Z</time></trkpt><trkpt lat="44.6850639" lon="7.9128126"><ele>187.60000000000002</ele><time>2026-04-10T11:21:13.71Z</time></trkpt><trkpt lat="44.6849718" lon="7.9128762"><ele>186.8</ele><time>2026-04-10T11:21:15.709Z</time></trkpt><trkpt lat="44.6848754" lon="7.9129381"><ele>186.0</ele><time>2026-04-10T11:21:17.706Z</time></trkpt><trkpt lat="44.6847811" lon="7.9130038"><ele>186.0</ele><time>2026-04-10T11:21:19.715Z</time></trkpt><trkpt lat="44.6846872" lon="7.9130784"><ele>186.0</ele><time>2026-04-10T11:21:21.715Z</time></trkpt><trkpt lat="44.6845997" lon="7.9131513"><ele>186.0</ele><time>2026-04-10T11:21:23.716Z</time></trkpt><trkpt lat="44.6845118" lon="7.9132215"><ele>186.0</ele><time>2026-04-10T11:21:25.662Z</time></trkpt><trkpt lat="44.6844292" lon="7.9132866"><ele>186.0</ele><time>2026-04-10T11:21:27.721Z</time></trkpt><trkpt lat="44.6843414" lon="7.9133529"><ele>185.8</ele><time>2026-04-10T11:21:29.713Z</time></trkpt><trkpt lat="44.6842484" lon="7.9134238"><ele>185.60000000000002</ele><time>2026-04-10T11:21:31.723Z</time></trkpt><trkpt lat="44.6841575" lon="7.9134954"><ele>185.4</ele><time>2026-04-10T11:21:33.692Z</time></trkpt><trkpt lat="44.6840621" lon="7.9135664"><ele>185.2</ele><time>2026-04-10T11:21:35.715Z</time></trkpt><trkpt lat="44.6839728" lon="7.9136283"><ele>185.0</ele><time>2026-04-10T11:21:37.711Z</time></trkpt><trkpt lat="44.6838967" lon="7.9136811"><ele>185.0</ele><time>2026-04-10T11:21:39.724Z</time></trkpt><trkpt lat="44.683809" lon="7.9137466"><ele>185.0</ele><time>2026-04-10T11:21:41.721Z</time></trkpt><trkpt lat="44.6837104" lon="7.91382"><ele>185.0</ele><time>2026-04-10T11:21:43.724Z</time></trkpt><trkpt lat="44.683605" lon="7.9138993"><ele>185.0</ele><time>2026-04-10T11:21:45.676Z</time></trkpt><trkpt lat="44.6835473" lon="7.9139424"><ele>185.0</ele><time>2026-04-10T11:21:46.71Z</time></trkpt><trkpt lat="44.6834872" lon="7.9139887"><ele>184.99999999999997</ele><time>2026-04-10T11:21:47.702Z</time></trkpt><trkpt lat="44.683426" lon="7.9140349"><ele>185.0</ele><time>2026-04-10T11:21:48.718Z</time></trkpt><trkpt lat="44.6833654" lon="7.9140846"><ele>185.0</ele><time>2026-04-10T11:21:49.714Z</time></trkpt><trkpt lat="44.6833079" lon="7.9141298"><ele>185.0</ele><time>2026-04-10T11:21:50.72Z</time></trkpt><trkpt lat="44.6832486" lon="7.9141742"><ele>185.0</ele><time>2026-04-10T11:21:51.72Z</time></trkpt><trkpt lat="44.6831882" lon="7.9142269"><ele>184.99999999999997</ele><time>2026-04-10T11:21:52.72Z</time></trkpt><trkpt lat="44.6831292" lon="7.9142806"><ele>185.0</ele><time>2026-04-10T11:21:53.72Z</time></trkpt><trkpt lat="44.6830711" lon="7.9143343"><ele>184.99999999999997</ele><time>2026-04-10T11:21:54.721Z</time></trkpt><trkpt lat="44.6830136" lon="7.9143922"><ele>185.0</ele><time>2026-04-10T11:21:55.713Z</time></trkpt><trkpt lat="44.6829575" lon="7.9144492"><ele>185.0</ele><time>2026-04-10T11:21:56.721Z</time></trkpt><trkpt lat="44.6829025" lon="7.9145102"><ele>185.0</ele><time>2026-04-10T11:21:57.723Z</time></trkpt><trkpt lat="44.6828439" lon="7.9145812"><ele>185.0</ele><time>2026-04-10T11:21:58.704Z</time></trkpt><trkpt lat="44.6827861" lon="7.91465"><ele>184.99999999999997</ele><time>2026-04-10T11:21:59.713Z</time></trkpt><trkpt lat="44.6827302" lon="7.9147158"><ele>185.0</ele><time>2026-04-10T11:22:00.683Z</time></trkpt><trkpt lat="44.6826745" lon="7.9147853"><ele>185.0</ele><time>2026-04-10T11:22:01.671Z</time></trkpt><trkpt lat="44.6826184" lon="7.91486"><ele>185.0</ele><time>2026-04-10T11:22:02.713Z</time></trkpt><trkpt lat="44.6825601" lon="7.9149304"><ele>185.0</ele><time>2026-04-10T11:22:03.709Z</time></trkpt><trkpt lat="44.6824986" lon="7.9150003"><ele>185.0</ele><time>2026-04-10T11:22:04.696Z</time></trkpt><trkpt lat="44.6824363" lon="7.9150722"><ele>185.0</ele><time>2026-04-10T11:22:05.727Z</time></trkpt><trkpt lat="44.6823732" lon="7.9151417"><ele>185.0</ele><time>2026-04-10T11:22:06.723Z</time></trkpt><trkpt lat="44.6823126" lon="7.9152099"><ele>184.85714285714283</ele><time>2026-04-10T11:22:07.723Z</time></trkpt><trkpt lat="44.6822543" lon="7.9152757"><ele>184.71428571428572</ele><time>2026-04-10T11:22:08.69Z</time></trkpt><trkpt lat="44.6821987" lon="7.9153392"><ele>184.57142857142856</ele><time>2026-04-10T11:22:09.713Z</time></trkpt><trkpt lat="44.6821462" lon="7.9154052"><ele>184.42857142857142</ele><time>2026-04-10T11:22:10.721Z</time></trkpt><trkpt lat="44.6820944" lon="7.91547"><ele>184.28571428571428</ele><time>2026-04-10T11:22:11.705Z</time></trkpt><trkpt lat="44.6820439" lon="7.9155368"><ele>184.14285714285714</ele><time>2026-04-10T11:22:12.711Z</time></trkpt><trkpt lat="44.681989" lon="7.9155997"><ele>184.0</ele><time>2026-04-10T11:22:13.717Z</time></trkpt><trkpt lat="44.6819333" lon="7.9156636"><ele>184.0</ele><time>2026-04-10T11:22:14.714Z</time></trkpt><trkpt lat="44.6818776" lon="7.9157223"><ele>184.0</ele><time>2026-04-10T11:22:15.709Z</time></trkpt><trkpt lat="44.6818257" lon="7.9157785"><ele>184.0</ele><time>2026-04-10T11:22:16.713Z</time></trkpt><trkpt lat="44.6817771" lon="7.9158367"><ele>184.0</ele><time>2026-04-10T11:22:17.713Z</time></trkpt><trkpt lat="44.6817269" lon="7.9158957"><ele>184.0</ele><time>2026-04-10T11:22:18.707Z</time></trkpt><trkpt lat="44.6816769" lon="7.9159548"><ele>184.0</ele><time>2026-04-10T11:22:19.701Z</time></trkpt><trkpt lat="44.6815814" lon="7.9160689"><ele>184.0</ele><time>2026-04-10T11:22:21.726Z</time></trkpt><trkpt lat="44.6814849" lon="7.9161818"><ele>184.0</ele><time>2026-04-10T11:22:23.644Z</time></trkpt><trkpt lat="44.6814355" lon="7.9162423"><ele>184.0</ele><time>2026-04-10T11:22:24.716Z</time></trkpt><trkpt lat="44.681389" lon="7.9163091"><ele>184.0</ele><time>2026-04-10T11:22:25.702Z</time></trkpt><trkpt lat="44.681343" lon="7.9163743"><ele>184.0</ele><time>2026-04-10T11:22:26.718Z</time></trkpt><trkpt lat="44.6812933" lon="7.9164378"><ele>184.0</ele><time>2026-04-10T11:22:27.719Z</time></trkpt><trkpt lat="44.6812452" lon="7.9164953"><ele>184.0</ele><time>2026-04-10T11:22:28.704Z</time></trkpt><trkpt lat="44.6811464" lon="7.9166108"><ele>184.0</ele><time>2026-04-10T11:22:30.734Z</time></trkpt><trkpt lat="44.6810967" lon="7.9166721"><ele>184.0</ele><time>2026-04-10T11:22:31.728Z</time></trkpt><trkpt lat="44.6810461" lon="7.9167325"><ele>184.0</ele><time>2026-04-10T11:22:32.72Z</time></trkpt><trkpt lat="44.6809964" lon="7.9167888"><ele>184.0</ele><time>2026-04-10T11:22:33.72Z</time></trkpt><trkpt lat="44.6809449" lon="7.9168436"><ele>184.0</ele><time>2026-04-10T11:22:34.708Z</time></trkpt><trkpt lat="44.6808934" lon="7.9169042"><ele>184.0</ele><time>2026-04-10T11:22:35.7Z</time></trkpt><trkpt lat="44.6808436" lon="7.9169655"><ele>184.0</ele><time>2026-04-10T11:22:36.698Z</time></trkpt><trkpt lat="44.6807967" lon="7.9170255"><ele>184.0</ele><time>2026-04-10T11:22:37.717Z</time></trkpt><trkpt lat="44.6807459" lon="7.9170878"><ele>184.0</ele><time>2026-04-10T11:22:38.719Z</time></trkpt><trkpt lat="44.6806958" lon="7.9171485"><ele>184.0</ele><time>2026-04-10T11:22:39.711Z</time></trkpt><trkpt lat="44.6806471" lon="7.917207"><ele>184.0</ele><time>2026-04-10T11:22:40.702Z</time></trkpt><trkpt lat="44.6805523" lon="7.9173198"><ele>184.0</ele><time>2026-04-10T11:22:42.72Z</time></trkpt><trkpt lat="44.6805046" lon="7.9173792"><ele>184.0</ele><time>2026-04-10T11:22:43.728Z</time></trkpt><trkpt lat="44.6804565" lon="7.9174374"><ele>184.0</ele><time>2026-04-10T11:22:44.721Z</time></trkpt><trkpt lat="44.6804059" lon="7.9174953"><ele>184.0</ele><time>2026-04-10T11:22:45.711Z</time></trkpt><trkpt lat="44.6803551" lon="7.9175505"><ele>184.0</ele><time>2026-04-10T11:22:46.718Z</time></trkpt><trkpt lat="44.6803071" lon="7.917613"><ele>184.0</ele><time>2026-04-10T11:22:47.716Z</time></trkpt><trkpt lat="44.6802613" lon="7.9176743"><ele>184.0</ele><time>2026-04-10T11:22:48.717Z</time></trkpt><trkpt lat="44.6801674" lon="7.9177892"><ele>184.75</ele><time>2026-04-10T11:22:50.712Z</time></trkpt><trkpt lat="44.6800663" lon="7.9178961"><ele>185.5</ele><time>2026-04-10T11:22:52.716Z</time></trkpt><trkpt lat="44.6799715" lon="7.918002"><ele>186.25</ele><time>2026-04-10T11:22:54.703Z</time></trkpt><trkpt lat="44.6798777" lon="7.9181013"><ele>187.0</ele><time>2026-04-10T11:22:56.714Z</time></trkpt><trkpt lat="44.6797835" lon="7.9182018"><ele>187.0</ele><time>2026-04-10T11:22:58.703Z</time></trkpt><trkpt lat="44.6796836" lon="7.9182894"><ele>187.0</ele><time>2026-04-10T11:23:00.703Z</time></trkpt><trkpt lat="44.6795891" lon="7.9183692"><ele>187.0</ele><time>2026-04-10T11:23:02.673Z</time></trkpt><trkpt lat="44.6795096" lon="7.918427"><ele>187.0</ele><time>2026-04-10T11:23:04.759Z</time></trkpt><trkpt lat="44.6794189" lon="7.9184459"><ele>187.0</ele><time>2026-04-10T11:23:06.723Z</time></trkpt><trkpt lat="44.6793087" lon="7.9184743"><ele>187.39999999999998</ele><time>2026-04-10T11:23:08.71Z</time></trkpt><trkpt lat="44.6792088" lon="7.9184931"><ele>187.79999999999998</ele><time>2026-04-10T11:23:10.727Z</time></trkpt><trkpt lat="44.6791233" lon="7.9185116"><ele>188.2</ele><time>2026-04-10T11:23:12.71Z</time></trkpt><trkpt lat="44.6790302" lon="7.9185206"><ele>188.6</ele><time>2026-04-10T11:23:14.721Z</time></trkpt><trkpt lat="44.6789402" lon="7.918532"><ele>189.0</ele><time>2026-04-10T11:23:16.727Z</time></trkpt><trkpt lat="44.678857" lon="7.9185323"><ele>189.0</ele><time>2026-04-10T11:23:18.72Z</time></trkpt><trkpt lat="44.6787841" lon="7.9185419"><ele>189.0</ele><time>2026-04-10T11:23:20.713Z</time></trkpt><trkpt lat="44.678696" lon="7.9185582"><ele>189.0</ele><time>2026-04-10T11:23:23.664Z</time></trkpt><trkpt lat="44.678616" lon="7.9185614"><ele>189.0</ele><time>2026-04-10T11:23:26.71Z</time></trkpt><trkpt lat="44.6785446" lon="7.918562"><ele>189.0</ele><time>2026-04-10T11:23:29.731Z</time></trkpt><trkpt lat="44.678465" lon="7.9185716"><ele>189.0</ele><time>2026-04-10T11:23:33.713Z</time></trkpt><trkpt lat="44.6784015" lon="7.9185816"><ele>189.71428571428572</ele><time>2026-04-10T11:23:36.702Z</time></trkpt><trkpt lat="44.6783372" lon="7.9185891"><ele>190.42857142857144</ele><time>2026-04-10T11:23:39.712Z</time></trkpt><trkpt lat="44.6782712" lon="7.9185891"><ele>191.14285714285714</ele><time>2026-04-10T11:23:42.686Z</time></trkpt><trkpt lat="44.6781993" lon="7.9185892"><ele>191.85714285714286</ele><time>2026-04-10T11:23:45.721Z</time></trkpt><trkpt lat="44.6781313" lon="7.9185923"><ele>192.57142857142858</ele><time>2026-04-10T11:23:48.705Z</time></trkpt><trkpt lat="44.6780604" lon="7.918594"><ele>193.28571428571428</ele><time>2026-04-10T11:23:51.711Z</time></trkpt><trkpt lat="44.6779805" lon="7.9186108"><ele>194.0</ele><time>2026-04-10T11:23:55.736Z</time></trkpt><trkpt lat="44.6779135" lon="7.9186129"><ele>194.00000000000003</ele><time>2026-04-10T11:23:58.724Z</time></trkpt><trkpt lat="44.6778497" lon="7.9186196"><ele>194.0</ele><time>2026-04-10T11:24:01.719Z</time></trkpt><trkpt lat="44.6777702" lon="7.9186335"><ele>194.0</ele><time>2026-04-10T11:24:05.715Z</time></trkpt><trkpt lat="44.6776976" lon="7.9186542"><ele>194.0</ele><time>2026-04-10T11:24:09.702Z</time></trkpt><trkpt lat="44.6776171" lon="7.9186637"><ele>194.00000000000003</ele><time>2026-04-10T11:24:13.715Z</time></trkpt><trkpt lat="44.6775413" lon="7.9186687"><ele>194.0</ele><time>2026-04-10T11:24:17.708Z</time></trkpt><trkpt lat="44.6774658" lon="7.9186796"><ele>195.33333333333334</ele><time>2026-04-10T11:24:21.712Z</time></trkpt><trkpt lat="44.6773848" lon="7.9186928"><ele>196.66666666666669</ele><time>2026-04-10T11:24:25.718Z</time></trkpt><trkpt lat="44.6773091" lon="7.9186952"><ele>198.0</ele><time>2026-04-10T11:24:29.638Z</time></trkpt><trkpt lat="44.677238" lon="7.918705"><ele>199.33333333333331</ele><time>2026-04-10T11:24:33.693Z</time></trkpt><trkpt lat="44.677163" lon="7.9186873"><ele>200.66666666666666</ele><time>2026-04-10T11:24:37.709Z</time></trkpt><trkpt lat="44.6770904" lon="7.9186561"><ele>202.0</ele><time>2026-04-10T11:24:41.716Z</time></trkpt><trkpt lat="44.6770201" lon="7.9186288"><ele>202.0</ele><time>2026-04-10T11:24:45.715Z</time></trkpt><trkpt lat="44.6769555" lon="7.9185914"><ele>202.0</ele><time>2026-04-10T11:24:49.716Z</time></trkpt><trkpt lat="44.6768918" lon="7.9185441"><ele>202.0</ele><time>2026-04-10T11:24:53.7Z</time></trkpt><trkpt lat="44.6768266" lon="7.9184847"><ele>202.0</ele><time>2026-04-10T11:24:57.715Z</time></trkpt><trkpt lat="44.6767707" lon="7.9184191"><ele>202.0</ele><time>2026-04-10T11:25:02.712Z</time></trkpt><trkpt lat="44.6767115" lon="7.9183625"><ele>202.0</ele><time>2026-04-10T11:25:06.69Z</time></trkpt><trkpt lat="44.6766537" lon="7.9182937"><ele>202.0</ele><time>2026-04-10T11:25:10.719Z</time></trkpt><trkpt lat="44.6766015" lon="7.9182396"><ele>203.0</ele><time>2026-04-10T11:25:14.727Z</time></trkpt><trkpt lat="44.6765496" lon="7.9181831"><ele>204.0</ele><time>2026-04-10T11:25:18.709Z</time></trkpt><trkpt lat="44.6765029" lon="7.9181131"><ele>205.0</ele><time>2026-04-10T11:25:22.726Z</time></trkpt><trkpt lat="44.6764401" lon="7.9180462"><ele>206.0</ele><time>2026-04-10T11:25:26.716Z</time></trkpt><trkpt lat="44.676395" lon="7.9179789"><ele>207.0</ele><time>2026-04-10T11:25:30.716Z</time></trkpt><trkpt lat="44.6763461" lon="7.9179109"><ele>208.0</ele><time>2026-04-10T11:25:34.714Z</time></trkpt><trkpt lat="44.6762849" lon="7.9178562"><ele>209.0</ele><time>2026-04-10T11:25:38.709Z</time></trkpt><trkpt lat="44.6762235" lon="7.9177966"><ele>209.0</ele><time>2026-04-10T11:25:42.724Z</time></trkpt><trkpt lat="44.6761573" lon="7.9177423"><ele>209.0</ele><time>2026-04-10T11:25:46.661Z</time></trkpt><trkpt lat="44.6760993" lon="7.9176798"><ele>209.0</ele><time>2026-04-10T11:25:50.714Z</time></trkpt><trkpt lat="44.6760443" lon="7.9176191"><ele>209.0</ele><time>2026-04-10T11:25:54.724Z</time></trkpt><trkpt lat="44.6759873" lon="7.9175522"><ele>209.0</ele><time>2026-04-10T11:25:58.714Z</time></trkpt><trkpt lat="44.6759279" lon="7.9174907"><ele>209.0</ele><time>2026-04-10T11:26:02.739Z</time></trkpt><trkpt lat="44.6758656" lon="7.9174197"><ele>209.0</ele><time>2026-04-10T11:26:06.717Z</time></trkpt><trkpt lat="44.6758122" lon="7.9173592"><ele>210.14285714285714</ele><time>2026-04-10T11:26:09.701Z</time></trkpt><trkpt lat="44.6757475" lon="7.9172892"><ele>211.28571428571428</ele><time>2026-04-10T11:26:13.716Z</time></trkpt><trkpt lat="44.6757024" lon="7.9172261"><ele>212.42857142857144</ele><time>2026-04-10T11:26:16.702Z</time></trkpt><trkpt lat="44.6756546" lon="7.9171684"><ele>213.57142857142856</ele><time>2026-04-10T11:26:19.72Z</time></trkpt><trkpt lat="44.675594" lon="7.9171009"><ele>214.71428571428572</ele><time>2026-04-10T11:26:23.711Z</time></trkpt><trkpt lat="44.6755442" lon="7.9170411"><ele>215.85714285714286</ele><time>2026-04-10T11:26:26.721Z</time></trkpt><trkpt lat="44.6754939" lon="7.916985"><ele>217.0</ele><time>2026-04-10T11:26:29.717Z</time></trkpt><trkpt lat="44.6754433" lon="7.9169258"><ele>217.0</ele><time>2026-04-10T11:26:32.706Z</time></trkpt><trkpt lat="44.6753769" lon="7.9168529"><ele>217.0</ele><time>2026-04-10T11:26:36.649Z</time></trkpt><trkpt lat="44.6753287" lon="7.9167932"><ele>217.0</ele><time>2026-04-10T11:26:39.705Z</time></trkpt><trkpt lat="44.6752706" lon="7.9167235"><ele>217.0</ele><time>2026-04-10T11:26:43.722Z</time></trkpt><trkpt lat="44.675217" lon="7.9166707"><ele>217.0</ele><time>2026-04-10T11:26:46.712Z</time></trkpt><trkpt lat="44.6751559" lon="7.9165938"><ele>217.0</ele><time>2026-04-10T11:26:50.73Z</time></trkpt><trkpt lat="44.6751038" lon="7.9165378"><ele>217.0</ele><time>2026-04-10T11:26:53.694Z</time></trkpt><trkpt lat="44.6750495" lon="7.9164821"><ele>217.85714285714286</ele><time>2026-04-10T11:26:56.725Z</time></trkpt><trkpt lat="44.6749941" lon="7.9164226"><ele>218.71428571428572</ele><time>2026-04-10T11:26:59.711Z</time></trkpt><trkpt lat="44.6749377" lon="7.9163662"><ele>219.57142857142856</ele><time>2026-04-10T11:27:02.702Z</time></trkpt><trkpt lat="44.6748866" lon="7.9163052"><ele>220.42857142857144</ele><time>2026-04-10T11:27:05.648Z</time></trkpt><trkpt lat="44.6748311" lon="7.9162517"><ele>221.28571428571428</ele><time>2026-04-10T11:27:08.711Z</time></trkpt><trkpt lat="44.6747818" lon="7.9161807"><ele>222.14285714285714</ele><time>2026-04-10T11:27:11.707Z</time></trkpt><trkpt lat="44.6747299" lon="7.9161201"><ele>223.0</ele><time>2026-04-10T11:27:14.73Z</time></trkpt><trkpt lat="44.674678" lon="7.9160604"><ele>223.0</ele><time>2026-04-10T11:27:17.71Z</time></trkpt><trkpt lat="44.6746226" lon="7.916002"><ele>223.0</ele><time>2026-04-10T11:27:20.712Z</time></trkpt><trkpt lat="44.6745654" lon="7.9159324"><ele>223.0</ele><time>2026-04-10T11:27:23.725Z</time></trkpt><trkpt lat="44.6745172" lon="7.9158705"><ele>223.0</ele><time>2026-04-10T11:27:26.722Z</time></trkpt><trkpt lat="44.6744667" lon="7.9157906"><ele>223.0</ele><time>2026-04-10T11:27:29.704Z</time></trkpt><trkpt lat="44.6744179" lon="7.9157057"><ele>223.0</ele><time>2026-04-10T11:27:32.728Z</time></trkpt><trkpt lat="44.6743684" lon="7.9156074"><ele>223.0</ele><time>2026-04-10T11:27:35.713Z</time></trkpt><trkpt lat="44.6743199" lon="7.9155128"><ele>223.99999999999997</ele><time>2026-04-10T11:27:38.695Z</time></trkpt><trkpt lat="44.6742816" lon="7.9153988"><ele>225.0</ele><time>2026-04-10T11:27:41.725Z</time></trkpt><trkpt lat="44.6742477" lon="7.9153169"><ele>226.0</ele><time>2026-04-10T11:27:43.724Z</time></trkpt><trkpt lat="44.6742196" lon="7.9152359"><ele>227.0</ele><time>2026-04-10T11:27:45.726Z</time></trkpt><trkpt lat="44.6741791" lon="7.9151161"><ele>227.99999999999997</ele><time>2026-04-10T11:27:48.703Z</time></trkpt><trkpt lat="44.6741471" lon="7.9150027"><ele>229.0</ele><time>2026-04-10T11:27:51.721Z</time></trkpt><trkpt lat="44.6741063" lon="7.9148798"><ele>228.99999999999997</ele><time>2026-04-10T11:27:54.635Z</time></trkpt><trkpt lat="44.6740788" lon="7.9147937"><ele>229.0</ele><time>2026-04-10T11:27:56.705Z</time></trkpt><trkpt lat="44.6740394" lon="7.9146319"><ele>229.0</ele><time>2026-04-10T11:28:00.708Z</time></trkpt><trkpt lat="44.6740034" lon="7.914517"><ele>229.0</ele><time>2026-04-10T11:28:03.741Z</time></trkpt><trkpt lat="44.6739693" lon="7.9144034"><ele>228.99999999999997</ele><time>2026-04-10T11:28:06.703Z</time></trkpt><trkpt lat="44.6739303" lon="7.9142993"><ele>229.0</ele><time>2026-04-10T11:28:09.676Z</time></trkpt><trkpt lat="44.6738951" lon="7.9141984"><ele>229.14285714285714</ele><time>2026-04-10T11:28:12.707Z</time></trkpt><trkpt lat="44.6738544" lon="7.9141073"><ele>229.28571428571428</ele><time>2026-04-10T11:28:15.722Z</time></trkpt><trkpt lat="44.6738151" lon="7.9140328"><ele>229.42857142857142</ele><time>2026-04-10T11:28:18.724Z</time></trkpt><trkpt lat="44.6737677" lon="7.9139577"><ele>229.57142857142856</ele><time>2026-04-10T11:28:21.699Z</time></trkpt><trkpt lat="44.6737229" lon="7.9138774"><ele>229.71428571428572</ele><time>2026-04-10T11:28:24.707Z</time></trkpt><trkpt lat="44.6736856" lon="7.9138053"><ele>229.85714285714283</ele><time>2026-04-10T11:28:27.719Z</time></trkpt><trkpt lat="44.6736283" lon="7.913741"><ele>229.99999999999997</ele><time>2026-04-10T11:28:30.647Z</time></trkpt><trkpt lat="44.6735796" lon="7.9136589"><ele>230.57142857142856</ele><time>2026-04-10T11:28:33.652Z</time></trkpt><trkpt lat="44.6735307" lon="7.9135849"><ele>231.14285714285714</ele><time>2026-04-10T11:28:36.658Z</time></trkpt><trkpt lat="44.6734787" lon="7.9135145"><ele>231.71428571428572</ele><time>2026-04-10T11:28:39.689Z</time></trkpt><trkpt lat="44.6734292" lon="7.9134566"><ele>232.28571428571428</ele><time>2026-04-10T11:28:41.721Z</time></trkpt><trkpt lat="44.6733866" lon="7.9133866"><ele>232.8571428571429</ele><time>2026-04-10T11:28:43.719Z</time></trkpt><trkpt lat="44.673342" lon="7.9133133"><ele>233.42857142857144</ele><time>2026-04-10T11:28:45.719Z</time></trkpt><trkpt lat="44.6732884" lon="7.913228"><ele>234.0</ele><time>2026-04-10T11:28:47.715Z</time></trkpt><trkpt lat="44.6732321" lon="7.9131279"><ele>234.0</ele><time>2026-04-10T11:28:49.709Z</time></trkpt><trkpt lat="44.6731763" lon="7.9130328"><ele>234.0</ele><time>2026-04-10T11:28:51.668Z</time></trkpt><trkpt lat="44.6731285" lon="7.9129294"><ele>234.0</ele><time>2026-04-10T11:28:53.664Z</time></trkpt><trkpt lat="44.6730836" lon="7.9128204"><ele>234.0</ele><time>2026-04-10T11:28:55.721Z</time></trkpt><trkpt lat="44.6730362" lon="7.9127147"><ele>234.0</ele><time>2026-04-10T11:28:57.721Z</time></trkpt><trkpt lat="44.6729929" lon="7.9126049"><ele>234.0</ele><time>2026-04-10T11:28:59.724Z</time></trkpt><trkpt lat="44.6729471" lon="7.9124941"><ele>233.66666666666666</ele><time>2026-04-10T11:29:01.712Z</time></trkpt><trkpt lat="44.6729055" lon="7.912391"><ele>233.33333333333331</ele><time>2026-04-10T11:29:03.714Z</time></trkpt><trkpt lat="44.6728626" lon="7.9122859"><ele>233.0</ele><time>2026-04-10T11:29:05.728Z</time></trkpt><trkpt lat="44.6728223" lon="7.9121814"><ele>232.66666666666666</ele><time>2026-04-10T11:29:07.68Z</time></trkpt><trkpt lat="44.6727818" lon="7.9120882"><ele>232.33333333333331</ele><time>2026-04-10T11:29:09.716Z</time></trkpt><trkpt lat="44.6727385" lon="7.9120032"><ele>232.0</ele><time>2026-04-10T11:29:11.703Z</time></trkpt><trkpt lat="44.6726956" lon="7.9119229"><ele>233.16666666666666</ele><time>2026-04-10T11:29:13.723Z</time></trkpt><trkpt lat="44.6726445" lon="7.9118457"><ele>234.33333333333331</ele><time>2026-04-10T11:29:15.719Z</time></trkpt><trkpt lat="44.6725877" lon="7.9117781"><ele>235.5</ele><time>2026-04-10T11:29:17.72Z</time></trkpt><trkpt lat="44.672526" lon="7.9117098"><ele>236.66666666666669</ele><time>2026-04-10T11:29:19.713Z</time></trkpt><trkpt lat="44.6724677" lon="7.9116358"><ele>237.83333333333334</ele><time>2026-04-10T11:29:21.712Z</time></trkpt><trkpt lat="44.6724182" lon="7.9115647"><ele>239.0</ele><time>2026-04-10T11:29:23.714Z</time></trkpt><trkpt lat="44.6723708" lon="7.9114865"><ele>239.00000000000003</ele><time>2026-04-10T11:29:25.722Z</time></trkpt><trkpt lat="44.6723201" lon="7.9114142"><ele>239.0</ele><time>2026-04-10T11:29:27.711Z</time></trkpt><trkpt lat="44.6722709" lon="7.9113304"><ele>239.00000000000003</ele><time>2026-04-10T11:29:29.726Z</time></trkpt><trkpt lat="44.6722216" lon="7.9112518"><ele>239.00000000000003</ele><time>2026-04-10T11:29:31.727Z</time></trkpt><trkpt lat="44.6721709" lon="7.9111774"><ele>239.0</ele><time>2026-04-10T11:29:33.715Z</time></trkpt><trkpt lat="44.6721182" lon="7.9111013"><ele>239.00000000000003</ele><time>2026-04-10T11:29:35.704Z</time></trkpt><trkpt lat="44.6720655" lon="7.9110373"><ele>239.00000000000003</ele><time>2026-04-10T11:29:37.663Z</time></trkpt><trkpt lat="44.6720144" lon="7.9109649"><ele>239.00000000000003</ele><time>2026-04-10T11:29:39.713Z</time></trkpt><trkpt lat="44.6719479" lon="7.9109134"><ele>239.0</ele><time>2026-04-10T11:29:41.72Z</time></trkpt><trkpt lat="44.6718833" lon="7.910871"><ele>239.00000000000003</ele><time>2026-04-10T11:29:43.715Z</time></trkpt><trkpt lat="44.6718083" lon="7.9108473"><ele>239.00000000000003</ele><time>2026-04-10T11:29:45.704Z</time></trkpt><trkpt lat="44.6717323" lon="7.9108395"><ele>239.0</ele><time>2026-04-10T11:29:47.698Z</time></trkpt><trkpt lat="44.6716621" lon="7.9108405"><ele>239.00000000000003</ele><time>2026-04-10T11:29:49.725Z</time></trkpt><trkpt lat="44.671596" lon="7.9108328"><ele>239.00000000000003</ele><time>2026-04-10T11:29:51.709Z</time></trkpt><trkpt lat="44.6715278" lon="7.9108266"><ele>239.33333333333334</ele><time>2026-04-10T11:29:53.695Z</time></trkpt><trkpt lat="44.6714594" lon="7.9108261"><ele>239.66666666666669</ele><time>2026-04-10T11:29:55.715Z</time></trkpt><trkpt lat="44.6713675" lon="7.9108258"><ele>240.0</ele><time>2026-04-10T11:29:58.704Z</time></trkpt><trkpt lat="44.6713036" lon="7.91082"><ele>240.33333333333331</ele><time>2026-04-10T11:30:00.718Z</time></trkpt><trkpt lat="44.6712146" lon="7.9108181"><ele>240.66666666666666</ele><time>2026-04-10T11:30:03.717Z</time></trkpt><trkpt lat="44.6711193" lon="7.910816"><ele>241.0</ele><time>2026-04-10T11:30:06.694Z</time></trkpt><trkpt lat="44.6710552" lon="7.9108108"><ele>241.33333333333331</ele><time>2026-04-10T11:30:08.703Z</time></trkpt><trkpt lat="44.6709637" lon="7.9108157"><ele>241.66666666666666</ele><time>2026-04-10T11:30:11.72Z</time></trkpt><trkpt lat="44.6709005" lon="7.9108106"><ele>242.0</ele><time>2026-04-10T11:30:13.713Z</time></trkpt><trkpt lat="44.6708066" lon="7.91081"><ele>242.33333333333331</ele><time>2026-04-10T11:30:16.711Z</time></trkpt><trkpt lat="44.6707168" lon="7.9108131"><ele>242.66666666666666</ele><time>2026-04-10T11:30:19.713Z</time></trkpt><trkpt lat="44.6706536" lon="7.910814"><ele>243.0</ele><time>2026-04-10T11:30:21.716Z</time></trkpt><trkpt lat="44.6705885" lon="7.9108111"><ele>243.0</ele><time>2026-04-10T11:30:23.679Z</time></trkpt><trkpt lat="44.6704939" lon="7.9108082"><ele>243.0</ele><time>2026-04-10T11:30:26.716Z</time></trkpt><trkpt lat="44.6704039" lon="7.9108051"><ele>243.0</ele><time>2026-04-10T11:30:29.672Z</time></trkpt><trkpt lat="44.6703159" lon="7.9108053"><ele>243.0</ele><time>2026-04-10T11:30:32.694Z</time></trkpt><trkpt lat="44.6702304" lon="7.9108089"><ele>243.0</ele><time>2026-04-10T11:30:35.718Z</time></trkpt><trkpt lat="44.6701421" lon="7.9108046"><ele>243.0</ele><time>2026-04-10T11:30:38.708Z</time></trkpt><trkpt lat="44.6700586" lon="7.9108048"><ele>244.0</ele><time>2026-04-10T11:30:41.724Z</time></trkpt><trkpt lat="44.6699787" lon="7.9107847"><ele>245.0</ele><time>2026-04-10T11:30:44.718Z</time></trkpt><trkpt lat="44.6698995" lon="7.9107707"><ele>246.0</ele><time>2026-04-10T11:30:47.712Z</time></trkpt><trkpt lat="44.6698232" lon="7.9107527"><ele>247.0</ele><time>2026-04-10T11:30:50.73Z</time></trkpt><trkpt lat="44.6697481" lon="7.9107235"><ele>248.0</ele><time>2026-04-10T11:30:53.703Z</time></trkpt><trkpt lat="44.6696715" lon="7.9106892"><ele>249.0</ele><time>2026-04-10T11:30:56.716Z</time></trkpt><trkpt lat="44.669598" lon="7.9106561"><ele>249.0</ele><time>2026-04-10T11:30:59.708Z</time></trkpt><trkpt lat="44.6695228" lon="7.9106131"><ele>248.99999999999997</ele><time>2026-04-10T11:31:02.708Z</time></trkpt><trkpt lat="44.6694558" lon="7.9105788"><ele>249.0</ele><time>2026-04-10T11:31:05.713Z</time></trkpt><trkpt lat="44.6693892" lon="7.9105422"><ele>249.0</ele><time>2026-04-10T11:31:08.719Z</time></trkpt><trkpt lat="44.669324" lon="7.9105073"><ele>248.99999999999997</ele><time>2026-04-10T11:31:11.712Z</time></trkpt><trkpt lat="44.6692613" lon="7.9104698"><ele>249.0</ele><time>2026-04-10T11:31:14.722Z</time></trkpt><trkpt lat="44.6691965" lon="7.9104489"><ele>249.0</ele><time>2026-04-10T11:31:17.689Z</time></trkpt><trkpt lat="44.6691261" lon="7.9104125"><ele>249.42857142857142</ele><time>2026-04-10T11:31:20.712Z</time></trkpt><trkpt lat="44.6690607" lon="7.9103905"><ele>249.85714285714283</ele><time>2026-04-10T11:31:23.711Z</time></trkpt><trkpt lat="44.6689985" lon="7.910354"><ele>250.28571428571428</ele><time>2026-04-10T11:31:26.691Z</time></trkpt><trkpt lat="44.66893" lon="7.9103194"><ele>250.71428571428572</ele><time>2026-04-10T11:31:29.701Z</time></trkpt><trkpt lat="44.6688671" lon="7.9102889"><ele>251.14285714285714</ele><time>2026-04-10T11:31:32.711Z</time></trkpt><trkpt lat="44.6688057" lon="7.9102554"><ele>251.57142857142856</ele><time>2026-04-10T11:31:35.714Z</time></trkpt><trkpt lat="44.6687431" lon="7.9102184"><ele>252.0</ele><time>2026-04-10T11:31:38.706Z</time></trkpt><trkpt lat="44.6686644" lon="7.9101831"><ele>252.42857142857144</ele><time>2026-04-10T11:31:42.72Z</time></trkpt><trkpt lat="44.6686069" lon="7.9101462"><ele>252.85714285714286</ele><time>2026-04-10T11:31:45.715Z</time></trkpt><trkpt lat="44.6685461" lon="7.9101181"><ele>253.28571428571428</ele><time>2026-04-10T11:31:48.707Z</time></trkpt><trkpt lat="44.6684793" lon="7.9100915"><ele>253.71428571428572</ele><time>2026-04-10T11:31:51.707Z</time></trkpt><trkpt lat="44.6684173" lon="7.9100713"><ele>254.14285714285717</ele><time>2026-04-10T11:31:54.713Z</time></trkpt><trkpt lat="44.6683521" lon="7.9100427"><ele>254.57142857142858</ele><time>2026-04-10T11:31:57.706Z</time></trkpt><trkpt lat="44.6682739" lon="7.9100053"><ele>255.0</ele><time>2026-04-10T11:32:01.719Z</time></trkpt><trkpt lat="44.6682041" lon="7.9099553"><ele>255.57142857142858</ele><time>2026-04-10T11:32:05.713Z</time></trkpt><trkpt lat="44.6681221" lon="7.9099173"><ele>256.14285714285717</ele><time>2026-04-10T11:32:09.721Z</time></trkpt><trkpt lat="44.6680434" lon="7.9098749"><ele>256.7142857142857</ele><time>2026-04-10T11:32:13.713Z</time></trkpt><trkpt lat="44.6679837" lon="7.9098413"><ele>257.2857142857143</ele><time>2026-04-10T11:32:16.709Z</time></trkpt><trkpt lat="44.6679069" lon="7.9098037"><ele>257.8571428571429</ele><time>2026-04-10T11:32:20.715Z</time></trkpt><trkpt lat="44.6678441" lon="7.9097762"><ele>258.42857142857144</ele><time>2026-04-10T11:32:23.727Z</time></trkpt><trkpt lat="44.6677819" lon="7.9097501"><ele>259.0</ele><time>2026-04-10T11:32:26.706Z</time></trkpt><trkpt lat="44.6677207" lon="7.9097186"><ele>259.42857142857144</ele><time>2026-04-10T11:32:29.719Z</time></trkpt><trkpt lat="44.6676568" lon="7.9096898"><ele>259.8571428571429</ele><time>2026-04-10T11:32:32.716Z</time></trkpt><trkpt lat="44.6675984" lon="7.9096549"><ele>260.2857142857143</ele><time>2026-04-10T11:32:35.715Z</time></trkpt><trkpt lat="44.6675311" lon="7.909618"><ele>260.7142857142857</ele><time>2026-04-10T11:32:38.714Z</time></trkpt><trkpt lat="44.6674706" lon="7.9095799"><ele>261.14285714285717</ele><time>2026-04-10T11:32:41.722Z</time></trkpt><trkpt lat="44.6673912" lon="7.9095434"><ele>261.57142857142856</ele><time>2026-04-10T11:32:45.719Z</time></trkpt><trkpt lat="44.6673151" lon="7.9095131"><ele>262.0</ele><time>2026-04-10T11:32:49.723Z</time></trkpt><trkpt lat="44.6672477" lon="7.9094896"><ele>262.0</ele><time>2026-04-10T11:32:52.719Z</time></trkpt><trkpt lat="44.667178" lon="7.9094927"><ele>262.0</ele><time>2026-04-10T11:32:55.718Z</time></trkpt><trkpt lat="44.6671175" lon="7.9095234"><ele>262.0</ele><time>2026-04-10T11:32:58.708Z</time></trkpt><trkpt lat="44.6670557" lon="7.9095764"><ele>262.0</ele><time>2026-04-10T11:33:01.643Z</time></trkpt><trkpt lat="44.6669953" lon="7.9096348"><ele>262.0</ele><time>2026-04-10T11:33:04.711Z</time></trkpt><trkpt lat="44.6669385" lon="7.9096915"><ele>262.0</ele><time>2026-04-10T11:33:07.712Z</time></trkpt><trkpt lat="44.666873" lon="7.9097626"><ele>262.0</ele><time>2026-04-10T11:33:11.674Z</time></trkpt><trkpt lat="44.666807" lon="7.9098338"><ele>262.57142857142856</ele><time>2026-04-10T11:33:15.716Z</time></trkpt><trkpt lat="44.6667381" lon="7.9099055"><ele>263.14285714285717</ele><time>2026-04-10T11:33:19.706Z</time></trkpt><trkpt lat="44.666679" lon="7.9099618"><ele>263.7142857142857</ele><time>2026-04-10T11:33:22.699Z</time></trkpt><trkpt lat="44.6666181" lon="7.9100267"><ele>264.2857142857143</ele><time>2026-04-10T11:33:25.716Z</time></trkpt><trkpt lat="44.6665671" lon="7.910091"><ele>264.8571428571429</ele><time>2026-04-10T11:33:28.706Z</time></trkpt><trkpt lat="44.6665181" lon="7.9101575"><ele>265.42857142857144</ele><time>2026-04-10T11:33:31.723Z</time></trkpt><trkpt lat="44.6664661" lon="7.91022"><ele>266.0</ele><time>2026-04-10T11:33:34.711Z</time></trkpt><trkpt lat="44.6664146" lon="7.9102843"><ele>266.0</ele><time>2026-04-10T11:33:37.728Z</time></trkpt><trkpt lat="44.6663597" lon="7.9103477"><ele>266.0</ele><time>2026-04-10T11:33:40.707Z</time></trkpt><trkpt lat="44.6663069" lon="7.910406"><ele>266.0</ele><time>2026-04-10T11:33:43.717Z</time></trkpt><trkpt lat="44.6662523" lon="7.9104594"><ele>266.0</ele><time>2026-04-10T11:33:46.708Z</time></trkpt><trkpt lat="44.6662037" lon="7.9105198"><ele>266.0</ele><time>2026-04-10T11:33:49.698Z</time></trkpt><trkpt lat="44.6661605" lon="7.9105875"><ele>266.0</ele><time>2026-04-10T11:33:52.73Z</time></trkpt><trkpt lat="44.6661061" lon="7.9106774"><ele>266.0</ele><time>2026-04-10T11:33:56.714Z</time></trkpt><trkpt lat="44.6660602" lon="7.9107563"><ele>267.2857142857143</ele><time>2026-04-10T11:34:00.706Z</time></trkpt><trkpt lat="44.666009" lon="7.910841"><ele>268.57142857142856</ele><time>2026-04-10T11:34:04.716Z</time></trkpt><trkpt lat="44.6659699" lon="7.9109392"><ele>269.8571428571429</ele><time>2026-04-10T11:34:08.703Z</time></trkpt><trkpt lat="44.665932" lon="7.9110192"><ele>271.1428571428571</ele><time>2026-04-10T11:34:12.727Z</time></trkpt><trkpt lat="44.6658972" lon="7.9110958"><ele>272.42857142857144</ele><time>2026-04-10T11:34:16.72Z</time></trkpt><trkpt lat="44.665862" lon="7.9111955"><ele>273.7142857142857</ele><time>2026-04-10T11:34:21.702Z</time></trkpt><trkpt lat="44.665832" lon="7.9112769"><ele>275.0</ele><time>2026-04-10T11:34:25.697Z</time></trkpt><trkpt lat="44.6657961" lon="7.9113672"><ele>275.7142857142857</ele><time>2026-04-10T11:34:29.721Z</time></trkpt><trkpt lat="44.6657637" lon="7.9114579"><ele>276.42857142857144</ele><time>2026-04-10T11:34:33.721Z</time></trkpt><trkpt lat="44.6657362" lon="7.911555"><ele>277.1428571428571</ele><time>2026-04-10T11:34:37.716Z</time></trkpt><trkpt lat="44.6657076" lon="7.9116377"><ele>277.8571428571429</ele><time>2026-04-10T11:34:41.71Z</time></trkpt><trkpt lat="44.665674" lon="7.9117299"><ele>278.57142857142856</ele><time>2026-04-10T11:34:46.653Z</time></trkpt><trkpt lat="44.6656361" lon="7.911819"><ele>279.2857142857143</ele><time>2026-04-10T11:34:51.725Z</time></trkpt><trkpt lat="44.6656079" lon="7.9119103"><ele>280.0</ele><time>2026-04-10T11:34:55.717Z</time></trkpt><trkpt lat="44.6655823" lon="7.9120071"><ele>280.7142857142857</ele><time>2026-04-10T11:34:59.719Z</time></trkpt><trkpt lat="44.6655611" lon="7.9120928"><ele>281.42857142857144</ele><time>2026-04-10T11:35:03.697Z</time></trkpt><trkpt lat="44.6655348" lon="7.9121891"><ele>282.1428571428571</ele><time>2026-04-10T11:35:07.706Z</time></trkpt><trkpt lat="44.6655036" lon="7.9122722"><ele>282.8571428571429</ele><time>2026-04-10T11:35:11.696Z</time></trkpt><trkpt lat="44.6654685" lon="7.9123475"><ele>283.57142857142856</ele><time>2026-04-10T11:35:15.71Z</time></trkpt><trkpt lat="44.6654454" lon="7.9124312"><ele>284.2857142857143</ele><time>2026-04-10T11:35:19.714Z</time></trkpt><trkpt lat="44.6654122" lon="7.9125341"><ele>285.0</ele><time>2026-04-10T11:35:24.714Z</time></trkpt><trkpt lat="44.6653871" lon="7.9126165"><ele>285.57142857142856</ele><time>2026-04-10T11:35:28.714Z</time></trkpt><trkpt lat="44.6653594" lon="7.9127015"><ele>286.14285714285717</ele><time>2026-04-10T11:35:32.715Z</time></trkpt><trkpt lat="44.6653153" lon="7.9127885"><ele>286.7142857142857</ele><time>2026-04-10T11:35:37.708Z</time></trkpt><trkpt lat="44.6652607" lon="7.9128458"><ele>287.2857142857143</ele><time>2026-04-10T11:35:41.712Z</time></trkpt><trkpt lat="44.6651995" lon="7.9129066"><ele>287.85714285714283</ele><time>2026-04-10T11:35:46.715Z</time></trkpt><trkpt lat="44.6651453" lon="7.9129591"><ele>288.42857142857144</ele><time>2026-04-10T11:35:50.719Z</time></trkpt><trkpt lat="44.6650822" lon="7.9130137"><ele>289.0</ele><time>2026-04-10T11:35:55.692Z</time></trkpt><trkpt lat="44.6650182" lon="7.9130565"><ele>289.7142857142857</ele><time>2026-04-10T11:35:59.732Z</time></trkpt><trkpt lat="44.664967" lon="7.9131136"><ele>290.42857142857144</ele><time>2026-04-10T11:36:03.717Z</time></trkpt><trkpt lat="44.6649117" lon="7.9131939"><ele>291.1428571428571</ele><time>2026-04-10T11:36:08.717Z</time></trkpt><trkpt lat="44.6648581" lon="7.9132556"><ele>291.8571428571429</ele><time>2026-04-10T11:36:12.713Z</time></trkpt><trkpt lat="44.6647896" lon="7.9133007"><ele>292.57142857142856</ele><time>2026-04-10T11:36:16.715Z</time></trkpt><trkpt lat="44.6647149" lon="7.9133175"><ele>293.2857142857143</ele><time>2026-04-10T11:36:21.726Z</time></trkpt><trkpt lat="44.6646435" lon="7.9133246"><ele>294.0</ele><time>2026-04-10T11:36:25.728Z</time></trkpt><trkpt lat="44.6645809" lon="7.9133414"><ele>294.0</ele><time>2026-04-10T11:36:29.728Z</time></trkpt><trkpt lat="44.6645154" lon="7.9133595"><ele>294.0</ele><time>2026-04-10T11:36:33.735Z</time></trkpt><trkpt lat="44.6644487" lon="7.9133768"><ele>294.0</ele><time>2026-04-10T11:36:37.733Z</time></trkpt><trkpt lat="44.6643848" lon="7.9134296"><ele>294.0</ele><time>2026-04-10T11:36:42.716Z</time></trkpt><trkpt lat="44.6643383" lon="7.913492"><ele>294.0</ele><time>2026-04-10T11:36:46.714Z</time></trkpt><trkpt lat="44.6642975" lon="7.9135681"><ele>294.0</ele><time>2026-04-10T11:36:50.713Z</time></trkpt><trkpt lat="44.6642539" lon="7.9136414"><ele>294.0</ele><time>2026-04-10T11:36:54.711Z</time></trkpt><trkpt lat="44.664216" lon="7.9137171"><ele>295.2857142857143</ele><time>2026-04-10T11:36:58.724Z</time></trkpt><trkpt lat="44.664173" lon="7.9137997"><ele>296.57142857142856</ele><time>2026-04-10T11:37:02.688Z</time></trkpt><trkpt lat="44.6641408" lon="7.9138915"><ele>297.8571428571429</ele><time>2026-04-10T11:37:06.708Z</time></trkpt><trkpt lat="44.6641004" lon="7.9139786"><ele>299.1428571428571</ele><time>2026-04-10T11:37:11.714Z</time></trkpt><trkpt lat="44.6640605" lon="7.91406"><ele>300.42857142857144</ele><time>2026-04-10T11:37:15.72Z</time></trkpt><trkpt lat="44.6640292" lon="7.9141422"><ele>301.7142857142857</ele><time>2026-04-10T11:37:19.713Z</time></trkpt><trkpt lat="44.6639914" lon="7.9142188"><ele>303.0</ele><time>2026-04-10T11:37:23.709Z</time></trkpt><trkpt lat="44.6639544" lon="7.9142983"><ele>304.0</ele><time>2026-04-10T11:37:27.667Z</time></trkpt><trkpt lat="44.6639131" lon="7.9143768"><ele>305.0</ele><time>2026-04-10T11:37:31.722Z</time></trkpt><trkpt lat="44.6638742" lon="7.9144502"><ele>306.0</ele><time>2026-04-10T11:37:35.721Z</time></trkpt><trkpt lat="44.6638252" lon="7.9145252"><ele>307.0</ele><time>2026-04-10T11:37:39.703Z</time></trkpt><trkpt lat="44.6637796" lon="7.9145954"><ele>308.0</ele><time>2026-04-10T11:37:43.72Z</time></trkpt><trkpt lat="44.6637269" lon="7.9146589"><ele>309.0</ele><time>2026-04-10T11:37:47.722Z</time></trkpt><trkpt lat="44.6636759" lon="7.9147203"><ele>310.0</ele><time>2026-04-10T11:37:51.73Z</time></trkpt><trkpt lat="44.6636177" lon="7.914764"><ele>309.7142857142857</ele><time>2026-04-10T11:37:55.698Z</time></trkpt><trkpt lat="44.6635589" lon="7.9148145"><ele>309.42857142857144</ele><time>2026-04-10T11:37:59.724Z</time></trkpt><trkpt lat="44.663508" lon="7.9148833"><ele>309.1428571428571</ele><time>2026-04-10T11:38:03.719Z</time></trkpt><trkpt lat="44.6634562" lon="7.9149587"><ele>308.8571428571429</ele><time>2026-04-10T11:38:07.724Z</time></trkpt><trkpt lat="44.6634015" lon="7.9150171"><ele>308.57142857142856</ele><time>2026-04-10T11:38:11.713Z</time></trkpt><trkpt lat="44.6633348" lon="7.9150775"><ele>308.2857142857143</ele><time>2026-04-10T11:38:16.716Z</time></trkpt><trkpt lat="44.6632819" lon="7.9151394"><ele>308.0</ele><time>2026-04-10T11:38:20.722Z</time></trkpt><trkpt lat="44.6632219" lon="7.9151994"><ele>309.42857142857144</ele><time>2026-04-10T11:38:24.722Z</time></trkpt><trkpt lat="44.6631827" lon="7.9152847"><ele>310.8571428571429</ele><time>2026-04-10T11:38:28.716Z</time></trkpt><trkpt lat="44.6631316" lon="7.9153617"><ele>312.2857142857143</ele><time>2026-04-10T11:38:32.642Z</time></trkpt><trkpt lat="44.6630778" lon="7.9154275"><ele>313.7142857142857</ele><time>2026-04-10T11:38:36.704Z</time></trkpt><trkpt lat="44.6630271" lon="7.9154883"><ele>315.14285714285717</ele><time>2026-04-10T11:38:40.671Z</time></trkpt><trkpt lat="44.6629724" lon="7.9155654"><ele>316.57142857142856</ele><time>2026-04-10T11:38:44.699Z</time></trkpt><trkpt lat="44.6629264" lon="7.9156327"><ele>318.0</ele><time>2026-04-10T11:38:48.712Z</time></trkpt><trkpt lat="44.6628786" lon="7.9156993"><ele>318.0</ele><time>2026-04-10T11:38:52.713Z</time></trkpt><trkpt lat="44.6628292" lon="7.9157624"><ele>318.0</ele><time>2026-04-10T11:38:56.659Z</time></trkpt><trkpt lat="44.6627846" lon="7.9158336"><ele>318.0</ele><time>2026-04-10T11:39:00.705Z</time></trkpt><trkpt lat="44.6627341" lon="7.9158915"><ele>318.0</ele><time>2026-04-10T11:39:04.7Z</time></trkpt><trkpt lat="44.6626895" lon="7.9159839"><ele>318.0</ele><time>2026-04-10T11:39:08.629Z</time></trkpt><trkpt lat="44.6626475" lon="7.9160727"><ele>318.0</ele><time>2026-04-10T11:39:13.728Z</time></trkpt><trkpt lat="44.6626067" lon="7.9161491"><ele>318.0</ele><time>2026-04-10T11:39:17.709Z</time></trkpt><trkpt lat="44.6625721" lon="7.9162444"><ele>318.57142857142856</ele><time>2026-04-10T11:39:21.722Z</time></trkpt><trkpt lat="44.6625459" lon="7.9163346"><ele>319.14285714285717</ele><time>2026-04-10T11:39:25.708Z</time></trkpt><trkpt lat="44.6625207" lon="7.9164255"><ele>319.7142857142857</ele><time>2026-04-10T11:39:29.716Z</time></trkpt><trkpt lat="44.6624927" lon="7.916516"><ele>320.2857142857143</ele><time>2026-04-10T11:39:33.71Z</time></trkpt><trkpt lat="44.6624624" lon="7.9166124"><ele>320.8571428571429</ele><time>2026-04-10T11:39:37.719Z</time></trkpt><trkpt lat="44.6624447" lon="7.9167018"><ele>321.42857142857144</ele><time>2026-04-10T11:39:41.72Z</time></trkpt><trkpt lat="44.6624199" lon="7.9168074"><ele>322.0</ele><time>2026-04-10T11:39:46.721Z</time></trkpt><trkpt lat="44.6623821" lon="7.9168857"><ele>323.0</ele><time>2026-04-10T11:39:50.647Z</time></trkpt><trkpt lat="44.6623589" lon="7.9169707"><ele>324.0</ele><time>2026-04-10T11:39:54.64Z</time></trkpt><trkpt lat="44.6623303" lon="7.9171025"><ele>325.0</ele><time>2026-04-10T11:40:00.736Z</time></trkpt><trkpt lat="44.6623136" lon="7.9171902"><ele>326.0</ele><time>2026-04-10T11:40:04.681Z</time></trkpt><trkpt lat="44.6622719" lon="7.9172633"><ele>327.0</ele><time>2026-04-10T11:40:07.66Z</time></trkpt><trkpt lat="44.6622611" lon="7.9173524"><ele>328.0</ele><time>2026-04-10T11:40:12.657Z</time></trkpt><trkpt lat="44.6622132" lon="7.9174185"><ele>329.0</ele><time>2026-04-10T11:40:17.66Z</time></trkpt><trkpt lat="44.6621996" lon="7.9175163"><ele>329.7142857142857</ele><time>2026-04-10T11:40:22.654Z</time></trkpt><trkpt lat="44.6622112" lon="7.9176189"><ele>330.42857142857144</ele><time>2026-04-10T11:40:27.707Z</time></trkpt><trkpt lat="44.6622527" lon="7.9176996"><ele>331.1428571428571</ele><time>2026-04-10T11:40:31.639Z</time></trkpt><trkpt lat="44.6622849" lon="7.9177779"><ele>331.8571428571429</ele><time>2026-04-10T11:40:35.7Z</time></trkpt><trkpt lat="44.6623274" lon="7.9178627"><ele>332.57142857142856</ele><time>2026-04-10T11:40:39.712Z</time></trkpt><trkpt lat="44.6623651" lon="7.9179528"><ele>333.2857142857143</ele><time>2026-04-10T11:40:43.713Z</time></trkpt><trkpt lat="44.6624019" lon="7.9180297"><ele>334.0</ele><time>2026-04-10T11:40:47.708Z</time></trkpt><trkpt lat="44.6624392" lon="7.9181051"><ele>334.0</ele><time>2026-04-10T11:40:51.718Z</time></trkpt><trkpt lat="44.6624767" lon="7.918197"><ele>334.0</ele><time>2026-04-10T11:40:56.725Z</time></trkpt><trkpt lat="44.6625134" lon="7.9182867"><ele>334.0</ele><time>2026-04-10T11:41:01.728Z</time></trkpt><trkpt lat="44.6625503" lon="7.9183595"><ele>334.0</ele><time>2026-04-10T11:41:05.705Z</time></trkpt><trkpt lat="44.6625924" lon="7.9184486"><ele>334.0</ele><time>2026-04-10T11:41:10.708Z</time></trkpt><trkpt lat="44.6626234" lon="7.9185275"><ele>334.0</ele><time>2026-04-10T11:41:14.623Z</time></trkpt><trkpt lat="44.6626589" lon="7.9186014"><ele>334.0</ele><time>2026-04-10T11:41:18.631Z</time></trkpt><trkpt lat="44.6626967" lon="7.9186837"><ele>334.0</ele><time>2026-04-10T11:41:22.639Z</time></trkpt><trkpt lat="44.6627383" lon="7.9187673"><ele>334.0</ele><time>2026-04-10T11:41:26.622Z</time></trkpt><trkpt lat="44.6627682" lon="7.9188459"><ele>334.0</ele><time>2026-04-10T11:41:29.643Z</time></trkpt><trkpt lat="44.662812" lon="7.9189328"><ele>334.0</ele><time>2026-04-10T11:41:33.648Z</time></trkpt><trkpt lat="44.6628457" lon="7.919008"><ele>334.0</ele><time>2026-04-10T11:41:36.662Z</time></trkpt><trkpt lat="44.6628789" lon="7.9190929"><ele>334.0</ele><time>2026-04-10T11:41:39.655Z</time></trkpt><trkpt lat="44.662917" lon="7.9191761"><ele>334.0</ele><time>2026-04-10T11:41:42.642Z</time></trkpt><trkpt lat="44.6629487" lon="7.9192641"><ele>334.0</ele><time>2026-04-10T11:41:45.626Z</time></trkpt><trkpt lat="44.6629886" lon="7.9193599"><ele>334.0</ele><time>2026-04-10T11:41:48.642Z</time></trkpt><trkpt lat="44.6630217" lon="7.9194395"><ele>334.0</ele><time>2026-04-10T11:41:51.64Z</time></trkpt><trkpt lat="44.6630573" lon="7.9195372"><ele>334.0</ele><time>2026-04-10T11:41:54.654Z</time></trkpt><trkpt lat="44.6630761" lon="7.9196377"><ele>334.0</ele><time>2026-04-10T11:41:57.647Z</time></trkpt><trkpt lat="44.6630847" lon="7.9197369"><ele>334.0</ele><time>2026-04-10T11:42:00.632Z</time></trkpt><trkpt lat="44.6630937" lon="7.9198404"><ele>334.0</ele><time>2026-04-10T11:42:03.644Z</time></trkpt><trkpt lat="44.6631032" lon="7.9199423"><ele>334.0</ele><time>2026-04-10T11:42:06.646Z</time></trkpt><trkpt lat="44.6631037" lon="7.9200601"><ele>334.0</ele><time>2026-04-10T11:42:10.648Z</time></trkpt><trkpt lat="44.663099" lon="7.9201538"><ele>334.0</ele><time>2026-04-10T11:42:13.652Z</time></trkpt><trkpt lat="44.6630994" lon="7.9202715"><ele>334.0</ele><time>2026-04-10T11:42:17.647Z</time></trkpt><trkpt lat="44.6630993" lon="7.9203719"><ele>334.0</ele><time>2026-04-10T11:42:20.655Z</time></trkpt><trkpt lat="44.6630989" lon="7.920461"><ele>334.0</ele><time>2026-04-10T11:42:23.656Z</time></trkpt><trkpt lat="44.663097" lon="7.920574"><ele>334.0</ele><time>2026-04-10T11:42:27.651Z</time></trkpt><trkpt lat="44.6631012" lon="7.9206642"><ele>334.7142857142857</ele><time>2026-04-10T11:42:30.655Z</time></trkpt><trkpt lat="44.6631097" lon="7.9207548"><ele>335.42857142857144</ele><time>2026-04-10T11:42:33.709Z</time></trkpt><trkpt lat="44.663114" lon="7.9208489"><ele>336.1428571428571</ele><time>2026-04-10T11:42:36.704Z</time></trkpt><trkpt lat="44.663119" lon="7.920939"><ele>336.8571428571429</ele><time>2026-04-10T11:42:39.697Z</time></trkpt><trkpt lat="44.6631175" lon="7.9210482"><ele>337.5714285714286</ele><time>2026-04-10T11:42:43.718Z</time></trkpt><trkpt lat="44.6631251" lon="7.9211551"><ele>338.2857142857143</ele><time>2026-04-10T11:42:47.69Z</time></trkpt><trkpt lat="44.6631327" lon="7.9212453"><ele>339.0</ele><time>2026-04-10T11:42:51.707Z</time></trkpt><trkpt lat="44.6631351" lon="7.9213502"><ele>339.7142857142857</ele><time>2026-04-10T11:42:55.715Z</time></trkpt><trkpt lat="44.6631424" lon="7.9214532"><ele>340.42857142857144</ele><time>2026-04-10T11:42:59.723Z</time></trkpt><trkpt lat="44.6631468" lon="7.9215447"><ele>341.14285714285717</ele><time>2026-04-10T11:43:03.68Z</time></trkpt><trkpt lat="44.6631615" lon="7.9216393"><ele>341.8571428571429</ele><time>2026-04-10T11:43:07.711Z</time></trkpt><trkpt lat="44.6631693" lon="7.9217416"><ele>342.57142857142856</ele><time>2026-04-10T11:43:11.661Z</time></trkpt><trkpt lat="44.6631815" lon="7.9218394"><ele>343.28571428571433</ele><time>2026-04-10T11:43:15.716Z</time></trkpt><trkpt lat="44.6631886" lon="7.9219308"><ele>344.0</ele><time>2026-04-10T11:43:19.726Z</time></trkpt><trkpt lat="44.6631945" lon="7.9220401"><ele>345.00000000000006</ele><time>2026-04-10T11:43:24.626Z</time></trkpt><trkpt lat="44.6631958" lon="7.9221399"><ele>346.0</ele><time>2026-04-10T11:43:28.72Z</time></trkpt><trkpt lat="44.6632053" lon="7.9222305"><ele>347.0</ele><time>2026-04-10T11:43:32.695Z</time></trkpt><trkpt lat="44.6632169" lon="7.9223223"><ele>348.0</ele><time>2026-04-10T11:43:36.696Z</time></trkpt><trkpt lat="44.6632336" lon="7.9224306"><ele>349.0</ele><time>2026-04-10T11:43:40.72Z</time></trkpt><trkpt lat="44.6632418" lon="7.9225292"><ele>350.00000000000006</ele><time>2026-04-10T11:43:44.712Z</time></trkpt><trkpt lat="44.6632523" lon="7.9226255"><ele>351.0</ele><time>2026-04-10T11:43:48.722Z</time></trkpt><trkpt lat="44.663278" lon="7.9227211"><ele>351.3333333333333</ele><time>2026-04-10T11:43:52.714Z</time></trkpt><trkpt lat="44.6633" lon="7.9228075"><ele>351.6666666666667</ele><time>2026-04-10T11:43:55.722Z</time></trkpt><trkpt lat="44.6633326" lon="7.9229138"><ele>352.0</ele><time>2026-04-10T11:43:59.715Z</time></trkpt><trkpt lat="44.6633651" lon="7.9230114"><ele>352.33333333333337</ele><time>2026-04-10T11:44:02.718Z</time></trkpt><trkpt lat="44.6633982" lon="7.9231075"><ele>352.6666666666667</ele><time>2026-04-10T11:44:05.702Z</time></trkpt><trkpt lat="44.6634471" lon="7.9232062"><ele>353.0</ele><time>2026-04-10T11:44:08.691Z</time></trkpt><trkpt lat="44.6634903" lon="7.9233189"><ele>353.33333333333337</ele><time>2026-04-10T11:44:11.701Z</time></trkpt><trkpt lat="44.6635445" lon="7.9234282"><ele>353.6666666666667</ele><time>2026-04-10T11:44:14.719Z</time></trkpt><trkpt lat="44.663589" lon="7.9235254"><ele>354.0</ele><time>2026-04-10T11:44:16.711Z</time></trkpt><trkpt lat="44.6636313" lon="7.9236138"><ele>354.3333333333333</ele><time>2026-04-10T11:44:18.726Z</time></trkpt><trkpt lat="44.6636785" lon="7.9237093"><ele>354.66666666666663</ele><time>2026-04-10T11:44:20.726Z</time></trkpt><trkpt lat="44.6637184" lon="7.9237928"><ele>355.0</ele><time>2026-04-10T11:44:22.713Z</time></trkpt><trkpt lat="44.6637601" lon="7.9238871"><ele>354.5</ele><time>2026-04-10T11:44:24.722Z</time></trkpt><trkpt lat="44.6638057" lon="7.923974"><ele>354.0</ele><time>2026-04-10T11:44:26.711Z</time></trkpt><trkpt lat="44.6638494" lon="7.9240664"><ele>353.5</ele><time>2026-04-10T11:44:28.732Z</time></trkpt><trkpt lat="44.6638984" lon="7.9241611"><ele>353.0</ele><time>2026-04-10T11:44:30.704Z</time></trkpt><trkpt lat="44.663946" lon="7.9242638"><ele>352.5</ele><time>2026-04-10T11:44:32.716Z</time></trkpt><trkpt lat="44.66399" lon="7.9243585"><ele>352.0</ele><time>2026-04-10T11:44:34.729Z</time></trkpt><trkpt lat="44.6640277" lon="7.9244474"><ele>352.0</ele><time>2026-04-10T11:44:36.702Z</time></trkpt><trkpt lat="44.6640713" lon="7.9245361"><ele>352.0</ele><time>2026-04-10T11:44:38.726Z</time></trkpt><trkpt lat="44.6641094" lon="7.9246271"><ele>352.0</ele><time>2026-04-10T11:44:40.714Z</time></trkpt><trkpt lat="44.6641464" lon="7.9247116"><ele>352.0</ele><time>2026-04-10T11:44:42.641Z</time></trkpt><trkpt lat="44.6641722" lon="7.9247926"><ele>352.0</ele><time>2026-04-10T11:44:44.712Z</time></trkpt><trkpt lat="44.6642066" lon="7.9249074"><ele>352.0</ele><time>2026-04-10T11:44:47.707Z</time></trkpt><trkpt lat="44.6642351" lon="7.9250049"><ele>352.0</ele><time>2026-04-10T11:44:50.706Z</time></trkpt><trkpt lat="44.6642559" lon="7.9250986"><ele>353.0</ele><time>2026-04-10T11:44:53.71Z</time></trkpt><trkpt lat="44.6642796" lon="7.9251866"><ele>354.0</ele><time>2026-04-10T11:44:56.726Z</time></trkpt><trkpt lat="44.6643125" lon="7.9252982"><ele>355.0</ele><time>2026-04-10T11:45:00.716Z</time></trkpt><trkpt lat="44.6643377" lon="7.9253868"><ele>356.0</ele><time>2026-04-10T11:45:03.716Z</time></trkpt><trkpt lat="44.6643638" lon="7.9254731"><ele>357.0</ele><time>2026-04-10T11:45:06.725Z</time></trkpt><trkpt lat="44.6643927" lon="7.9255639"><ele>358.0</ele><time>2026-04-10T11:45:09.715Z</time></trkpt><trkpt lat="44.6644185" lon="7.9256462"><ele>359.0</ele><time>2026-04-10T11:45:12.716Z</time></trkpt><trkpt lat="44.6644451" lon="7.9257353"><ele>358.57142857142856</ele><time>2026-04-10T11:45:15.726Z</time></trkpt><trkpt lat="44.6644698" lon="7.9258234"><ele>358.14285714285717</ele><time>2026-04-10T11:45:18.719Z</time></trkpt><trkpt lat="44.6644979" lon="7.9259065"><ele>357.71428571428567</ele><time>2026-04-10T11:45:21.696Z</time></trkpt><trkpt lat="44.6645282" lon="7.9259866"><ele>357.2857142857143</ele><time>2026-04-10T11:45:24.716Z</time></trkpt><trkpt lat="44.6645555" lon="7.9260716"><ele>356.85714285714283</ele><time>2026-04-10T11:45:27.707Z</time></trkpt><trkpt lat="44.6645823" lon="7.9261817"><ele>356.4285714285714</ele><time>2026-04-10T11:45:31.704Z</time></trkpt><trkpt lat="44.6646104" lon="7.9262927"><ele>356.0</ele><time>2026-04-10T11:45:35.699Z</time></trkpt><trkpt lat="44.6646419" lon="7.9264009"><ele>356.0</ele><time>2026-04-10T11:45:39.723Z</time></trkpt><trkpt lat="44.6646701" lon="7.9264813"><ele>356.0</ele><time>2026-04-10T11:45:42.706Z</time></trkpt><trkpt lat="44.6646935" lon="7.926565"><ele>356.0</ele><time>2026-04-10T11:45:45.729Z</time></trkpt><trkpt lat="44.664724" lon="7.9266768"><ele>356.0</ele><time>2026-04-10T11:45:49.718Z</time></trkpt><trkpt lat="44.6647608" lon="7.9267904"><ele>356.0</ele><time>2026-04-10T11:45:52.715Z</time></trkpt><trkpt lat="44.6647948" lon="7.9269075"><ele>356.0</ele><time>2026-04-10T11:45:55.717Z</time></trkpt><trkpt lat="44.6648204" lon="7.9270144"><ele>356.5</ele><time>2026-04-10T11:45:58.688Z</time></trkpt><trkpt lat="44.6648394" lon="7.9271001"><ele>357.0</ele><time>2026-04-10T11:46:00.701Z</time></trkpt><trkpt lat="44.6648739" lon="7.9272147"><ele>357.5</ele><time>2026-04-10T11:46:03.719Z</time></trkpt><trkpt lat="44.6649046" lon="7.9273336"><ele>358.0</ele><time>2026-04-10T11:46:06.652Z</time></trkpt><trkpt lat="44.6649308" lon="7.9274186"><ele>358.5</ele><time>2026-04-10T11:46:08.722Z</time></trkpt><trkpt lat="44.6649662" lon="7.9275301"><ele>359.0</ele><time>2026-04-10T11:46:11.703Z</time></trkpt><trkpt lat="44.664998" lon="7.9276231"><ele>359.14285714285717</ele><time>2026-04-10T11:46:13.698Z</time></trkpt><trkpt lat="44.6650256" lon="7.9277231"><ele>359.28571428571433</ele><time>2026-04-10T11:46:15.717Z</time></trkpt><trkpt lat="44.6650547" lon="7.9278143"><ele>359.42857142857144</ele><time>2026-04-10T11:46:17.717Z</time></trkpt><trkpt lat="44.6650816" lon="7.9279038"><ele>359.57142857142856</ele><time>2026-04-10T11:46:19.726Z</time></trkpt><trkpt lat="44.6651051" lon="7.9279934"><ele>359.7142857142857</ele><time>2026-04-10T11:46:21.718Z</time></trkpt><trkpt lat="44.6651318" lon="7.9280747"><ele>359.85714285714283</ele><time>2026-04-10T11:46:23.668Z</time></trkpt><trkpt lat="44.665159" lon="7.9281654"><ele>360.0</ele><time>2026-04-10T11:46:25.719Z</time></trkpt><trkpt lat="44.665185" lon="7.9282629"><ele>360.0</ele><time>2026-04-10T11:46:27.712Z</time></trkpt><trkpt lat="44.6652233" lon="7.9283797"><ele>360.0</ele><time>2026-04-10T11:46:29.731Z</time></trkpt><trkpt lat="44.665257" lon="7.9284992"><ele>360.0</ele><time>2026-04-10T11:46:31.707Z</time></trkpt><trkpt lat="44.665297" lon="7.9286255"><ele>360.0</ele><time>2026-04-10T11:46:33.73Z</time></trkpt><trkpt lat="44.6653358" lon="7.9287357"><ele>360.0</ele><time>2026-04-10T11:46:35.729Z</time></trkpt><trkpt lat="44.6653523" lon="7.9288384"><ele>360.0</ele><time>2026-04-10T11:46:38.678Z</time></trkpt><trkpt lat="44.6652983" lon="7.9288919"><ele>359.6666666666667</ele><time>2026-04-10T11:46:42.705Z</time></trkpt><trkpt lat="44.6652165" lon="7.9288874"><ele>359.3333333333333</ele><time>2026-04-10T11:50:33.739Z</time></trkpt><trkpt lat="44.665161" lon="7.9288065"><ele>359.0</ele><time>2026-04-10T11:50:37.729Z</time></trkpt><trkpt lat="44.6651035" lon="7.928729"><ele>358.66666666666663</ele><time>2026-04-10T11:50:41.713Z</time></trkpt><trkpt lat="44.6650367" lon="7.9286704"><ele>358.3333333333333</ele><time>2026-04-10T11:50:45.662Z</time></trkpt><trkpt lat="44.6649737" lon="7.9286073"><ele>358.0</ele><time>2026-04-10T11:50:48.663Z</time></trkpt><trkpt lat="44.6649225" lon="7.9285441"><ele>358.0</ele><time>2026-04-10T11:50:51.655Z</time></trkpt><trkpt lat="44.6648682" lon="7.928482"><ele>358.0</ele><time>2026-04-10T11:50:54.681Z</time></trkpt><trkpt lat="44.6648008" lon="7.9284111"><ele>358.0</ele><time>2026-04-10T11:50:57.722Z</time></trkpt><trkpt lat="44.6647335" lon="7.9283471"><ele>358.0</ele><time>2026-04-10T11:51:00.723Z</time></trkpt><trkpt lat="44.6646608" lon="7.9282778"><ele>358.0</ele><time>2026-04-10T11:51:03.731Z</time></trkpt><trkpt lat="44.6645972" lon="7.92821"><ele>358.0</ele><time>2026-04-10T11:51:06.719Z</time></trkpt><trkpt lat="44.664531" lon="7.9281403"><ele>358.3333333333333</ele><time>2026-04-10T11:51:09.702Z</time></trkpt><trkpt lat="44.6644647" lon="7.9280624"><ele>358.66666666666663</ele><time>2026-04-10T11:51:12.708Z</time></trkpt><trkpt lat="44.6643983" lon="7.9279981"><ele>359.0</ele><time>2026-04-10T11:51:15.721Z</time></trkpt><trkpt lat="44.6643432" lon="7.9279275"><ele>359.3333333333333</ele><time>2026-04-10T11:51:18.728Z</time></trkpt><trkpt lat="44.6642794" lon="7.9278601"><ele>359.6666666666667</ele><time>2026-04-10T11:51:21.708Z</time></trkpt><trkpt lat="44.6642267" lon="7.9278026"><ele>360.0</ele><time>2026-04-10T11:51:24.735Z</time></trkpt><trkpt lat="44.6641551" lon="7.9277519"><ele>360.57142857142856</ele><time>2026-04-10T11:51:28.712Z</time></trkpt><trkpt lat="44.6640922" lon="7.9277102"><ele>361.14285714285717</ele><time>2026-04-10T11:51:31.744Z</time></trkpt><trkpt lat="44.6640342" lon="7.9276752"><ele>361.7142857142857</ele><time>2026-04-10T11:51:34.729Z</time></trkpt><trkpt lat="44.6639571" lon="7.9276406"><ele>362.2857142857143</ele><time>2026-04-10T11:51:38.723Z</time></trkpt><trkpt lat="44.6638791" lon="7.9276072"><ele>362.8571428571429</ele><time>2026-04-10T11:51:42.725Z</time></trkpt><trkpt lat="44.6638117" lon="7.927571"><ele>363.42857142857144</ele><time>2026-04-10T11:51:46.703Z</time></trkpt><trkpt lat="44.6637414" lon="7.9275303"><ele>364.0</ele><time>2026-04-10T11:51:51.739Z</time></trkpt><trkpt lat="44.6636838" lon="7.9274936"><ele>365.42857142857144</ele><time>2026-04-10T11:51:55.726Z</time></trkpt><trkpt lat="44.663611" lon="7.9274596"><ele>366.8571428571429</ele><time>2026-04-10T11:51:59.716Z</time></trkpt><trkpt lat="44.6635424" lon="7.9274185"><ele>368.2857142857143</ele><time>2026-04-10T11:52:04.73Z</time></trkpt><trkpt lat="44.6634699" lon="7.9273915"><ele>369.7142857142857</ele><time>2026-04-10T11:52:09.709Z</time></trkpt><trkpt lat="44.6633928" lon="7.9273729"><ele>371.14285714285717</ele><time>2026-04-10T11:52:13.707Z</time></trkpt><trkpt lat="44.6633214" lon="7.9273555"><ele>372.57142857142856</ele><time>2026-04-10T11:52:17.71Z</time></trkpt><trkpt lat="44.6632542" lon="7.9273439"><ele>374.0</ele><time>2026-04-10T11:52:21.722Z</time></trkpt><trkpt lat="44.6631909" lon="7.927349"><ele>374.0</ele><time>2026-04-10T11:52:25.73Z</time></trkpt><trkpt lat="44.6631231" lon="7.9273564"><ele>374.0</ele><time>2026-04-10T11:52:29.729Z</time></trkpt><trkpt lat="44.6630431" lon="7.9273511"><ele>374.0</ele><time>2026-04-10T11:52:33.706Z</time></trkpt><trkpt lat="44.6629616" lon="7.9273588"><ele>374.0</ele><time>2026-04-10T11:52:37.687Z</time></trkpt><trkpt lat="44.662889" lon="7.9273568"><ele>374.0</ele><time>2026-04-10T11:52:41.719Z</time></trkpt><trkpt lat="44.6628173" lon="7.9273522"><ele>374.0</ele><time>2026-04-10T11:52:45.719Z</time></trkpt><trkpt lat="44.6627462" lon="7.9273583"><ele>374.0</ele><time>2026-04-10T11:52:49.705Z</time></trkpt><trkpt lat="44.6626726" lon="7.9273563"><ele>374.7142857142857</ele><time>2026-04-10T11:52:53.716Z</time></trkpt><trkpt lat="44.662607" lon="7.9273412"><ele>375.42857142857144</ele><time>2026-04-10T11:52:57.715Z</time></trkpt><trkpt lat="44.6625337" lon="7.9273391"><ele>376.14285714285717</ele><time>2026-04-10T11:53:01.736Z</time></trkpt><trkpt lat="44.6624647" lon="7.9273187"><ele>376.8571428571429</ele><time>2026-04-10T11:53:05.732Z</time></trkpt><trkpt lat="44.6623883" lon="7.9273185"><ele>377.57142857142856</ele><time>2026-04-10T11:53:09.7Z</time></trkpt><trkpt lat="44.6623227" lon="7.9273144"><ele>378.28571428571433</ele><time>2026-04-10T11:53:13.716Z</time></trkpt><trkpt lat="44.6622546" lon="7.9273088"><ele>379.0</ele><time>2026-04-10T11:53:17.714Z</time></trkpt><trkpt lat="44.6621904" lon="7.9272993"><ele>379.00000000000006</ele><time>2026-04-10T11:53:21.714Z</time></trkpt><trkpt lat="44.6621177" lon="7.9272862"><ele>379.0</ele><time>2026-04-10T11:53:26.716Z</time></trkpt><trkpt lat="44.6620486" lon="7.9272697"><ele>379.0</ele><time>2026-04-10T11:53:31.719Z</time></trkpt><trkpt lat="44.6619772" lon="7.9272428"><ele>379.0</ele><time>2026-04-10T11:53:36.715Z</time></trkpt><trkpt lat="44.6619024" lon="7.9272257"><ele>379.0</ele><time>2026-04-10T11:53:41.722Z</time></trkpt><trkpt lat="44.6618309" lon="7.9271993"><ele>379.00000000000006</ele><time>2026-04-10T11:53:46.705Z</time></trkpt><trkpt lat="44.6617545" lon="7.9271914"><ele>379.0</ele><time>2026-04-10T11:53:51.717Z</time></trkpt><trkpt lat="44.6616773" lon="7.9271749"><ele>379.8571428571429</ele><time>2026-04-10T11:53:56.722Z</time></trkpt><trkpt lat="44.6615946" lon="7.9271703"><ele>380.7142857142857</ele><time>2026-04-10T11:54:01.728Z</time></trkpt><trkpt lat="44.66153" lon="7.9271713"><ele>381.57142857142856</ele><time>2026-04-10T11:54:06.731Z</time></trkpt><trkpt lat="44.6614658" lon="7.9271745"><ele>382.42857142857144</ele><time>2026-04-10T11:54:11.69Z</time></trkpt><trkpt lat="44.6614031" lon="7.9271931"><ele>383.2857142857143</ele><time>2026-04-10T11:54:15.714Z</time></trkpt><trkpt lat="44.6613276" lon="7.9272034"><ele>384.14285714285717</ele><time>2026-04-10T11:54:19.711Z</time></trkpt><trkpt lat="44.6612544" lon="7.9272131"><ele>385.0</ele><time>2026-04-10T11:54:24.717Z</time></trkpt><trkpt lat="44.6611914" lon="7.9272253"><ele>385.0</ele><time>2026-04-10T11:54:28.721Z</time></trkpt><trkpt lat="44.6611249" lon="7.9272262"><ele>385.0</ele><time>2026-04-10T11:54:32.718Z</time></trkpt><trkpt lat="44.6610497" lon="7.9272386"><ele>385.0</ele><time>2026-04-10T11:54:37.706Z</time></trkpt><trkpt lat="44.6609828" lon="7.9272316"><ele>385.0</ele><time>2026-04-10T11:54:41.707Z</time></trkpt><trkpt lat="44.6609148" lon="7.927235"><ele>385.0</ele><time>2026-04-10T11:54:46.699Z</time></trkpt><trkpt lat="44.6608431" lon="7.9272332"><ele>385.0</ele><time>2026-04-10T11:54:51.724Z</time></trkpt><trkpt lat="44.6607771" lon="7.9272314"><ele>385.0</ele><time>2026-04-10T11:54:55.73Z</time></trkpt><trkpt lat="44.6607143" lon="7.9272414"><ele>386.0</ele><time>2026-04-10T11:54:59.704Z</time></trkpt><trkpt lat="44.6606446" lon="7.9272469"><ele>387.0</ele><time>2026-04-10T11:55:03.718Z</time></trkpt><trkpt lat="44.6605647" lon="7.9272392"><ele>388.0</ele><time>2026-04-10T11:55:08.716Z</time></trkpt><trkpt lat="44.6604873" lon="7.927232"><ele>389.0</ele><time>2026-04-10T11:55:13.717Z</time></trkpt><trkpt lat="44.6604111" lon="7.9272244"><ele>390.0</ele><time>2026-04-10T11:55:18.682Z</time></trkpt><trkpt lat="44.660348" lon="7.9272223"><ele>391.0</ele><time>2026-04-10T11:55:22.698Z</time></trkpt><trkpt lat="44.6602742" lon="7.9272104"><ele>392.0</ele><time>2026-04-10T11:55:28.706Z</time></trkpt><trkpt lat="44.6602057" lon="7.9272078"><ele>392.85714285714283</ele><time>2026-04-10T11:55:33.73Z</time></trkpt><trkpt lat="44.6601304" lon="7.9272027"><ele>393.7142857142857</ele><time>2026-04-10T11:55:38.647Z</time></trkpt><trkpt lat="44.6600619" lon="7.927192"><ele>394.57142857142856</ele><time>2026-04-10T11:55:43.727Z</time></trkpt><trkpt lat="44.6599952" lon="7.9271915"><ele>395.42857142857144</ele><time>2026-04-10T11:55:48.703Z</time></trkpt><trkpt lat="44.6599272" lon="7.927178"><ele>396.2857142857143</ele><time>2026-04-10T11:55:53.714Z</time></trkpt><trkpt lat="44.6598613" lon="7.9271751"><ele>397.1428571428571</ele><time>2026-04-10T11:55:58.732Z</time></trkpt><trkpt lat="44.6597888" lon="7.9271774"><ele>398.0</ele><time>2026-04-10T11:56:03.721Z</time></trkpt><trkpt lat="44.6597253" lon="7.9271672"><ele>397.99999999999994</ele><time>2026-04-10T11:56:08.727Z</time></trkpt><trkpt lat="44.6596551" lon="7.927164"><ele>398.0</ele><time>2026-04-10T11:56:13.723Z</time></trkpt><trkpt lat="44.6595808" lon="7.9271493"><ele>398.0</ele><time>2026-04-10T11:56:18.717Z</time></trkpt><trkpt lat="44.6595146" lon="7.9271268"><ele>398.0</ele><time>2026-04-10T11:56:22.715Z</time></trkpt><trkpt lat="44.6594392" lon="7.9271116"><ele>398.0</ele><time>2026-04-10T11:56:26.713Z</time></trkpt><trkpt lat="44.6593742" lon="7.9270911"><ele>397.99999999999994</ele><time>2026-04-10T11:56:29.698Z</time></trkpt><trkpt lat="44.6593094" lon="7.9270756"><ele>398.0</ele><time>2026-04-10T11:56:32.711Z</time></trkpt><trkpt lat="44.6592436" lon="7.9270684"><ele>398.66666666666663</ele><time>2026-04-10T11:56:35.715Z</time></trkpt><trkpt lat="44.6591679" lon="7.9270563"><ele>399.3333333333333</ele><time>2026-04-10T11:56:38.719Z</time></trkpt><trkpt lat="44.6590821" lon="7.9270397"><ele>400.0</ele><time>2026-04-10T11:56:41.742Z</time></trkpt><trkpt lat="44.6590162" lon="7.9270227"><ele>400.66666666666663</ele><time>2026-04-10T11:56:43.736Z</time></trkpt><trkpt lat="44.6589466" lon="7.9270124"><ele>401.3333333333333</ele><time>2026-04-10T11:56:45.728Z</time></trkpt><trkpt lat="44.6588673" lon="7.9270092"><ele>402.0</ele><time>2026-04-10T11:56:47.694Z</time></trkpt><trkpt lat="44.6587909" lon="7.9270103"><ele>402.0</ele><time>2026-04-10T11:56:49.655Z</time></trkpt><trkpt lat="44.6587279" lon="7.926997"><ele>402.0</ele><time>2026-04-10T11:56:51.667Z</time></trkpt><trkpt lat="44.6586543" lon="7.9269869"><ele>402.0</ele><time>2026-04-10T11:56:53.69Z</time></trkpt><trkpt lat="44.6585788" lon="7.9269706"><ele>402.0</ele><time>2026-04-10T11:56:55.736Z</time></trkpt><trkpt lat="44.6585046" lon="7.926962"><ele>402.0</ele><time>2026-04-10T11:56:57.722Z</time></trkpt><trkpt lat="44.6584317" lon="7.9269583"><ele>402.0</ele><time>2026-04-10T11:56:59.708Z</time></trkpt><trkpt lat="44.658368" lon="7.9269512"><ele>402.0</ele><time>2026-04-10T11:57:01.722Z</time></trkpt><trkpt lat="44.6583029" lon="7.9269374"><ele>401.3333333333333</ele><time>2026-04-10T11:57:03.714Z</time></trkpt><trkpt lat="44.6582108" lon="7.9269273"><ele>400.66666666666663</ele><time>2026-04-10T11:57:06.646Z</time></trkpt><trkpt lat="44.6581254" lon="7.9269218"><ele>400.0</ele><time>2026-04-10T11:57:09.694Z</time></trkpt><trkpt lat="44.6580331" lon="7.9269011"><ele>399.3333333333333</ele><time>2026-04-10T11:57:12.645Z</time></trkpt><trkpt lat="44.657963" lon="7.9268922"><ele>398.66666666666663</ele><time>2026-04-10T11:57:14.647Z</time></trkpt><trkpt lat="44.6578891" lon="7.926882"><ele>398.0</ele><time>2026-04-10T11:57:16.644Z</time></trkpt><trkpt lat="44.6578241" lon="7.92688"><ele>397.99999999999994</ele><time>2026-04-10T11:57:18.649Z</time></trkpt><trkpt lat="44.6577479" lon="7.926885"><ele>398.0</ele><time>2026-04-10T11:57:20.645Z</time></trkpt><trkpt lat="44.6576742" lon="7.9268887"><ele>398.0</ele><time>2026-04-10T11:57:22.663Z</time></trkpt><trkpt lat="44.6575995" lon="7.9269035"><ele>398.0</ele><time>2026-04-10T11:57:24.645Z</time></trkpt><trkpt lat="44.657519" lon="7.92693"><ele>397.99999999999994</ele><time>2026-04-10T11:57:26.645Z</time></trkpt><trkpt lat="44.6574348" lon="7.9269623"><ele>398.0</ele><time>2026-04-10T11:57:28.645Z</time></trkpt><trkpt lat="44.6573501" lon="7.92697"><ele>397.99999999999994</ele><time>2026-04-10T11:57:30.717Z</time></trkpt><trkpt lat="44.6572664" lon="7.9269615"><ele>398.0</ele><time>2026-04-10T11:57:32.733Z</time></trkpt><trkpt lat="44.6571781" lon="7.9269607"><ele>398.0</ele><time>2026-04-10T11:57:34.718Z</time></trkpt><trkpt lat="44.6570999" lon="7.9269544"><ele>398.0</ele><time>2026-04-10T11:57:36.715Z</time></trkpt><trkpt lat="44.6570297" lon="7.9269522"><ele>397.99999999999994</ele><time>2026-04-10T11:57:38.715Z</time></trkpt><trkpt lat="44.6569587" lon="7.926972"><ele>398.0</ele><time>2026-04-10T11:57:40.695Z</time></trkpt><trkpt lat="44.6568846" lon="7.9269891"><ele>398.99999999999994</ele><time>2026-04-10T11:57:42.659Z</time></trkpt><trkpt lat="44.6568171" lon="7.9269984"><ele>400.0</ele><time>2026-04-10T11:57:44.709Z</time></trkpt><trkpt lat="44.6567443" lon="7.9270133"><ele>401.0</ele><time>2026-04-10T11:57:46.737Z</time></trkpt><trkpt lat="44.656676" lon="7.9270397"><ele>402.0</ele><time>2026-04-10T11:57:48.674Z</time></trkpt><trkpt lat="44.6566063" lon="7.9270666"><ele>403.0</ele><time>2026-04-10T11:57:50.729Z</time></trkpt><trkpt lat="44.6565364" lon="7.9270966"><ele>403.99999999999994</ele><time>2026-04-10T11:57:52.759Z</time></trkpt><trkpt lat="44.6564729" lon="7.9271279"><ele>405.0</ele><time>2026-04-10T11:57:54.728Z</time></trkpt><trkpt lat="44.6564092" lon="7.9271668"><ele>404.99999999999994</ele><time>2026-04-10T11:57:56.709Z</time></trkpt><trkpt lat="44.6563461" lon="7.9272015"><ele>405.0</ele><time>2026-04-10T11:57:58.68Z</time></trkpt><trkpt lat="44.656278" lon="7.9272286"><ele>405.0</ele><time>2026-04-10T11:58:00.734Z</time></trkpt><trkpt lat="44.6562132" lon="7.9272556"><ele>405.0</ele><time>2026-04-10T11:58:02.698Z</time></trkpt><trkpt lat="44.656152" lon="7.9272789"><ele>405.0</ele><time>2026-04-10T11:58:04.706Z</time></trkpt><trkpt lat="44.6560848" lon="7.9272966"><ele>404.99999999999994</ele><time>2026-04-10T11:58:06.65Z</time></trkpt><trkpt lat="44.6560186" lon="7.9273116"><ele>405.0</ele><time>2026-04-10T11:58:08.696Z</time></trkpt><trkpt lat="44.6559342" lon="7.9273155"><ele>405.8333333333333</ele><time>2026-04-10T11:58:11.699Z</time></trkpt><trkpt lat="44.6558515" lon="7.92732"><ele>406.66666666666663</ele><time>2026-04-10T11:58:14.713Z</time></trkpt><trkpt lat="44.6557656" lon="7.9273367"><ele>407.5</ele><time>2026-04-10T11:58:17.663Z</time></trkpt><trkpt lat="44.6556794" lon="7.9273486"><ele>408.3333333333333</ele><time>2026-04-10T11:58:20.654Z</time></trkpt><trkpt lat="44.6555982" lon="7.9273601"><ele>409.16666666666663</ele><time>2026-04-10T11:58:23.713Z</time></trkpt><trkpt lat="44.6555223" lon="7.9273684"><ele>410.0</ele><time>2026-04-10T11:58:26.719Z</time></trkpt><trkpt lat="44.6554449" lon="7.9273818"><ele>410.0</ele><time>2026-04-10T11:58:29.715Z</time></trkpt><trkpt lat="44.6553709" lon="7.9273949"><ele>410.0</ele><time>2026-04-10T11:58:32.71Z</time></trkpt><trkpt lat="44.6552979" lon="7.9274038"><ele>410.0</ele><time>2026-04-10T11:58:35.699Z</time></trkpt><trkpt lat="44.6552281" lon="7.9274091"><ele>410.0</ele><time>2026-04-10T11:58:38.652Z</time></trkpt><trkpt lat="44.6551589" lon="7.9274246"><ele>410.0</ele><time>2026-04-10T11:58:41.707Z</time></trkpt><trkpt lat="44.6550897" lon="7.9274304"><ele>410.0</ele><time>2026-04-10T11:58:44.706Z</time></trkpt><trkpt lat="44.6550145" lon="7.9274441"><ele>410.0</ele><time>2026-04-10T11:58:47.696Z</time></trkpt><trkpt lat="44.6549453" lon="7.9274485"><ele>411.0</ele><time>2026-04-10T11:58:50.68Z</time></trkpt><trkpt lat="44.6548756" lon="7.9274449"><ele>412.0</ele><time>2026-04-10T11:58:53.639Z</time></trkpt><trkpt lat="44.6548127" lon="7.9274377"><ele>413.0</ele><time>2026-04-10T11:58:56.715Z</time></trkpt><trkpt lat="44.654745" lon="7.9274331"><ele>414.0</ele><time>2026-04-10T11:58:59.7Z</time></trkpt><trkpt lat="44.6546585" lon="7.9274436"><ele>415.0</ele><time>2026-04-10T11:59:02.658Z</time></trkpt><trkpt lat="44.6545899" lon="7.9274331"><ele>416.0</ele><time>2026-04-10T11:59:05.717Z</time></trkpt><trkpt lat="44.6545173" lon="7.9274314"><ele>417.0</ele><time>2026-04-10T11:59:08.712Z</time></trkpt><trkpt lat="44.6544516" lon="7.9274675"><ele>417.7142857142857</ele><time>2026-04-10T11:59:11.718Z</time></trkpt><trkpt lat="44.6544006" lon="7.9275205"><ele>418.4285714285714</ele><time>2026-04-10T11:59:14.708Z</time></trkpt><trkpt lat="44.6543382" lon="7.9275827"><ele>419.1428571428571</ele><time>2026-04-10T11:59:18.728Z</time></trkpt><trkpt lat="44.6542864" lon="7.9276427"><ele>419.8571428571429</ele><time>2026-04-10T11:59:22.705Z</time></trkpt><trkpt lat="44.6542286" lon="7.9276962"><ele>420.57142857142856</ele><time>2026-04-10T11:59:26.716Z</time></trkpt><trkpt lat="44.6541584" lon="7.9277524"><ele>421.2857142857143</ele><time>2026-04-10T11:59:30.718Z</time></trkpt><trkpt lat="44.6540978" lon="7.9277815"><ele>422.0</ele><time>2026-04-10T11:59:33.723Z</time></trkpt><trkpt lat="44.6540401" lon="7.9278305"><ele>422.0</ele><time>2026-04-10T11:59:37.719Z</time></trkpt><trkpt lat="44.653978" lon="7.927866"><ele>422.0</ele><time>2026-04-10T11:59:41.721Z</time></trkpt><trkpt lat="44.6539103" lon="7.9279119"><ele>422.0</ele><time>2026-04-10T11:59:45.732Z</time></trkpt><trkpt lat="44.6538511" lon="7.9279587"><ele>422.0</ele><time>2026-04-10T11:59:49.737Z</time></trkpt><trkpt lat="44.6537841" lon="7.9280223"><ele>422.0</ele><time>2026-04-10T11:59:54.677Z</time></trkpt><trkpt lat="44.6537151" lon="7.9280759"><ele>422.0</ele><time>2026-04-10T11:59:59.705Z</time></trkpt><trkpt lat="44.6536508" lon="7.9281226"><ele>422.0</ele><time>2026-04-10T12:00:03.722Z</time></trkpt><trkpt lat="44.6535863" lon="7.92816"><ele>423.57142857142856</ele><time>2026-04-10T12:00:08.729Z</time></trkpt><trkpt lat="44.6535276" lon="7.9281985"><ele>425.14285714285717</ele><time>2026-04-10T12:00:12.717Z</time></trkpt><trkpt lat="44.6534595" lon="7.9282277"><ele>426.71428571428567</ele><time>2026-04-10T12:00:17.725Z</time></trkpt><trkpt lat="44.6533933" lon="7.9282456"><ele>428.2857142857143</ele><time>2026-04-10T12:00:21.72Z</time></trkpt><trkpt lat="44.653321" lon="7.9282539"><ele>429.85714285714283</ele><time>2026-04-10T12:00:26.714Z</time></trkpt><trkpt lat="44.6532572" lon="7.9282479"><ele>431.4285714285714</ele><time>2026-04-10T12:00:31.723Z</time></trkpt><trkpt lat="44.6531945" lon="7.9282235"><ele>433.0</ele><time>2026-04-10T12:00:36.724Z</time></trkpt><trkpt lat="44.6531299" lon="7.9282138"><ele>433.00000000000006</ele><time>2026-04-10T12:00:42.71Z</time></trkpt><trkpt lat="44.6530651" lon="7.9281957"><ele>433.0</ele><time>2026-04-10T12:00:48.689Z</time></trkpt><trkpt lat="44.6530001" lon="7.9281986"><ele>433.0</ele><time>2026-04-10T12:00:56.696Z</time></trkpt><trkpt lat="44.6529373" lon="7.9282156"><ele>433.0</ele><time>2026-04-10T12:01:03.723Z</time></trkpt><trkpt lat="44.6528259" lon="7.9282215"><ele>433.00000000000006</ele><time>2026-04-10T12:01:13.717Z</time></trkpt><trkpt lat="44.6527602" lon="7.928237"><ele>433.0</ele><time>2026-04-10T12:01:17.706Z</time></trkpt><trkpt lat="44.6530001" lon="7.9281986"><ele>433.00000000000006</ele><time>2026-04-10T12:00:56.696Z</time></trkpt><trkpt lat="44.6529373" lon="7.9282156"><ele>433.0</ele><time>2026-04-10T12:01:03.723Z</time></trkpt><trkpt lat="44.6528259" lon="7.9282215"><ele>433.0</ele><time>2026-04-10T12:01:13.717Z</time></trkpt><trkpt lat="44.6527602" lon="7.928237"><ele>433.0</ele><time>2026-04-10T12:01:17.706Z</time></trkpt><trkpt lat="44.652707" lon="7.9282939"><ele>433.00000000000006</ele><time>2026-04-10T12:01:22.726Z</time></trkpt><trkpt lat="44.6526621" lon="7.9283676"><ele>433.0</ele><time>2026-04-10T12:01:26.719Z</time></trkpt><trkpt lat="44.6526186" lon="7.9284481"><ele>433.71428571428567</ele><time>2026-04-10T12:01:30.711Z</time></trkpt><trkpt lat="44.6525834" lon="7.9285243"><ele>434.42857142857144</ele><time>2026-04-10T12:01:33.717Z</time></trkpt><trkpt lat="44.6525432" lon="7.9286265"><ele>435.1428571428571</ele><time>2026-04-10T12:01:37.711Z</time></trkpt><trkpt lat="44.6525055" lon="7.9287127"><ele>435.85714285714283</ele><time>2026-04-10T12:01:40.734Z</time></trkpt><trkpt lat="44.6524611" lon="7.9287937"><ele>436.57142857142856</ele><time>2026-04-10T12:01:43.716Z</time></trkpt><trkpt lat="44.6524189" lon="7.9288633"><ele>437.2857142857143</ele><time>2026-04-10T12:01:46.696Z</time></trkpt><trkpt lat="44.6523516" lon="7.928906"><ele>438.0</ele><time>2026-04-10T12:01:50.649Z</time></trkpt><trkpt lat="44.6522905" lon="7.9288782"><ele>438.0</ele><time>2026-04-10T12:01:54.63Z</time></trkpt><trkpt lat="44.6522289" lon="7.9288455"><ele>438.0</ele><time>2026-04-10T12:01:58.627Z</time></trkpt><trkpt lat="44.6521635" lon="7.9288062"><ele>438.0</ele><time>2026-04-10T12:02:02.638Z</time></trkpt><trkpt lat="44.6520981" lon="7.9287644"><ele>438.0</ele><time>2026-04-10T12:02:06.627Z</time></trkpt><trkpt lat="44.6520314" lon="7.9287151"><ele>438.0</ele><time>2026-04-10T12:02:11.644Z</time></trkpt><trkpt lat="44.6519669" lon="7.9286703"><ele>438.0</ele><time>2026-04-10T12:02:15.65Z</time></trkpt><trkpt lat="44.6519021" lon="7.9286237"><ele>438.0</ele><time>2026-04-10T12:02:19.627Z</time></trkpt><trkpt lat="44.6518342" lon="7.9285774"><ele>437.7142857142857</ele><time>2026-04-10T12:02:23.629Z</time></trkpt><trkpt lat="44.651775" lon="7.9285372"><ele>437.4285714285714</ele><time>2026-04-10T12:02:26.63Z</time></trkpt><trkpt lat="44.6517065" lon="7.9284832"><ele>437.1428571428571</ele><time>2026-04-10T12:02:30.62Z</time></trkpt><trkpt lat="44.651645" lon="7.9284501"><ele>436.8571428571429</ele><time>2026-04-10T12:02:33.626Z</time></trkpt><trkpt lat="44.6515634" lon="7.9284187"><ele>436.57142857142856</ele><time>2026-04-10T12:02:37.656Z</time></trkpt><trkpt lat="44.6514987" lon="7.9284083"><ele>436.2857142857143</ele><time>2026-04-10T12:02:40.652Z</time></trkpt><trkpt lat="44.6514228" lon="7.9283799"><ele>436.0</ele><time>2026-04-10T12:02:44.662Z</time></trkpt><trkpt lat="44.6513517" lon="7.9283542"><ele>437.2857142857143</ele><time>2026-04-10T12:02:47.704Z</time></trkpt><trkpt lat="44.6512799" lon="7.9283323"><ele>438.57142857142856</ele><time>2026-04-10T12:02:50.656Z</time></trkpt><trkpt lat="44.6512133" lon="7.9283032"><ele>439.8571428571429</ele><time>2026-04-10T12:02:54.657Z</time></trkpt><trkpt lat="44.6511539" lon="7.9282727"><ele>441.1428571428571</ele><time>2026-04-10T12:02:57.655Z</time></trkpt><trkpt lat="44.6510921" lon="7.9282517"><ele>442.4285714285714</ele><time>2026-04-10T12:03:00.657Z</time></trkpt><trkpt lat="44.6510138" lon="7.9282152"><ele>443.7142857142857</ele><time>2026-04-10T12:03:04.643Z</time></trkpt><trkpt lat="44.6509435" lon="7.9282056"><ele>445.0</ele><time>2026-04-10T12:03:08.718Z</time></trkpt><trkpt lat="44.6508648" lon="7.9282022"><ele>445.1666666666667</ele><time>2026-04-10T12:03:12.633Z</time></trkpt><trkpt lat="44.6507862" lon="7.9281954"><ele>445.33333333333337</ele><time>2026-04-10T12:03:16.714Z</time></trkpt><trkpt lat="44.6507033" lon="7.9281844"><ele>445.5</ele><time>2026-04-10T12:03:20.726Z</time></trkpt><trkpt lat="44.6506237" lon="7.9281742"><ele>445.66666666666663</ele><time>2026-04-10T12:03:23.651Z</time></trkpt><trkpt lat="44.6505471" lon="7.9281647"><ele>445.8333333333333</ele><time>2026-04-10T12:03:26.719Z</time></trkpt><trkpt lat="44.6504707" lon="7.9281478"><ele>446.0</ele><time>2026-04-10T12:03:29.732Z</time></trkpt><trkpt lat="44.6503878" lon="7.9281375"><ele>446.0</ele><time>2026-04-10T12:03:33.711Z</time></trkpt><trkpt lat="44.6503283" lon="7.9281061"><ele>446.0</ele><time>2026-04-10T12:03:36.715Z</time></trkpt><trkpt lat="44.650266" lon="7.9280894"><ele>446.0</ele><time>2026-04-10T12:03:39.697Z</time></trkpt><trkpt lat="44.6501944" lon="7.9280549"><ele>446.0</ele><time>2026-04-10T12:03:43.725Z</time></trkpt><trkpt lat="44.6501265" lon="7.9280404"><ele>446.0</ele><time>2026-04-10T12:03:46.692Z</time></trkpt><trkpt lat="44.6500497" lon="7.9280174"><ele>446.0</ele><time>2026-04-10T12:03:50.723Z</time></trkpt><trkpt lat="44.6499714" lon="7.9280016"><ele>446.0</ele><time>2026-04-10T12:03:54.722Z</time></trkpt><trkpt lat="44.6498983" lon="7.9279827"><ele>446.66666666666663</ele><time>2026-04-10T12:03:58.682Z</time></trkpt><trkpt lat="44.6498256" lon="7.9279578"><ele>447.3333333333333</ele><time>2026-04-10T12:04:02.709Z</time></trkpt><trkpt lat="44.6497603" lon="7.9279299"><ele>448.0</ele><time>2026-04-10T12:04:06.702Z</time></trkpt><trkpt lat="44.6496986" lon="7.9279097"><ele>448.66666666666663</ele><time>2026-04-10T12:04:10.728Z</time></trkpt><trkpt lat="44.6496371" lon="7.927868"><ele>449.3333333333333</ele><time>2026-04-10T12:04:14.728Z</time></trkpt><trkpt lat="44.6495717" lon="7.9278355"><ele>450.0</ele><time>2026-04-10T12:04:19.699Z</time></trkpt><trkpt lat="44.6500497" lon="7.9280174"><ele>450.00000000000006</ele><time>2026-04-10T12:03:50.723Z</time></trkpt><trkpt lat="44.6499714" lon="7.9280016"><ele>450.0</ele><time>2026-04-10T12:03:54.722Z</time></trkpt><trkpt lat="44.6498983" lon="7.9279827"><ele>450.00000000000006</ele><time>2026-04-10T12:03:58.682Z</time></trkpt><trkpt lat="44.6498256" lon="7.9279578"><ele>450.00000000000006</ele><time>2026-04-10T12:04:02.709Z</time></trkpt><trkpt lat="44.6497603" lon="7.9279299"><ele>450.0</ele><time>2026-04-10T12:04:06.702Z</time></trkpt><trkpt lat="44.6496986" lon="7.9279097"><ele>450.00000000000006</ele><time>2026-04-10T12:04:10.728Z</time></trkpt><trkpt lat="44.6496371" lon="7.927868"><ele>450.00000000000006</ele><time>2026-04-10T12:04:14.728Z</time></trkpt><trkpt lat="44.6495717" lon="7.9278355"><ele>450.00000000000006</ele><time>2026-04-10T12:04:19.699Z</time></trkpt><trkpt lat="44.6494985" lon="7.9278349"><ele>450.0</ele><time>2026-04-10T12:04:24.703Z</time></trkpt><trkpt lat="44.6494244" lon="7.9278138"><ele>450.00000000000006</ele><time>2026-04-10T12:04:30.702Z</time></trkpt><trkpt lat="44.6493498" lon="7.927796"><ele>450.00000000000006</ele><time>2026-04-10T12:04:35.703Z</time></trkpt><trkpt lat="44.6492832" lon="7.9277889"><ele>450.0</ele><time>2026-04-10T12:04:40.732Z</time></trkpt><trkpt lat="44.6492115" lon="7.9277857"><ele>450.00000000000006</ele><time>2026-04-10T12:04:45.717Z</time></trkpt><trkpt lat="44.6491399" lon="7.9277868"><ele>450.00000000000006</ele><time>2026-04-10T12:04:50.716Z</time></trkpt><trkpt lat="44.6490774" lon="7.927799"><ele>451.00000000000006</ele><time>2026-04-10T12:04:55.721Z</time></trkpt><trkpt lat="44.6490138" lon="7.9278313"><ele>452.0</ele><time>2026-04-10T12:04:59.721Z</time></trkpt><trkpt lat="44.6489489" lon="7.9278492"><ele>453.00000000000006</ele><time>2026-04-10T12:05:03.722Z</time></trkpt><trkpt lat="44.6488804" lon="7.9278528"><ele>454.00000000000006</ele><time>2026-04-10T12:05:06.718Z</time></trkpt><trkpt lat="44.6487934" lon="7.9278799"><ele>455.0</ele><time>2026-04-10T12:05:09.723Z</time></trkpt><trkpt lat="44.648718" lon="7.9278892"><ele>456.00000000000006</ele><time>2026-04-10T12:05:11.724Z</time></trkpt><trkpt lat="44.6486404" lon="7.9279194"><ele>457.00000000000006</ele><time>2026-04-10T12:05:13.721Z</time></trkpt><trkpt lat="44.6485533" lon="7.9279309"><ele>457.33333333333337</ele><time>2026-04-10T12:05:15.715Z</time></trkpt><trkpt lat="44.6484653" lon="7.9279359"><ele>457.6666666666667</ele><time>2026-04-10T12:05:17.673Z</time></trkpt><trkpt lat="44.6483696" lon="7.9279358"><ele>458.0</ele><time>2026-04-10T12:05:19.638Z</time></trkpt><trkpt lat="44.6482803" lon="7.9279366"><ele>458.33333333333337</ele><time>2026-04-10T12:05:21.638Z</time></trkpt><trkpt lat="44.6481877" lon="7.9279401"><ele>458.6666666666667</ele><time>2026-04-10T12:05:23.643Z</time></trkpt><trkpt lat="44.6481069" lon="7.9279479"><ele>459.0</ele><time>2026-04-10T12:05:25.655Z</time></trkpt><trkpt lat="44.6480328" lon="7.9279533"><ele>459.0</ele><time>2026-04-10T12:05:27.679Z</time></trkpt><trkpt lat="44.6479528" lon="7.9279562"><ele>459.0</ele><time>2026-04-10T12:05:29.639Z</time></trkpt><trkpt lat="44.6478839" lon="7.9279567"><ele>459.0</ele><time>2026-04-10T12:05:31.666Z</time></trkpt><trkpt lat="44.6478162" lon="7.9279597"><ele>459.0</ele><time>2026-04-10T12:05:33.653Z</time></trkpt><trkpt lat="44.6477461" lon="7.927963"><ele>459.0</ele><time>2026-04-10T12:05:35.644Z</time></trkpt><trkpt lat="44.6476738" lon="7.9279725"><ele>459.0</ele><time>2026-04-10T12:05:37.652Z</time></trkpt><trkpt lat="44.6476011" lon="7.9279715"><ele>459.0</ele><time>2026-04-10T12:05:39.667Z</time></trkpt><trkpt lat="44.6475357" lon="7.9279791"><ele>458.6666666666667</ele><time>2026-04-10T12:05:41.644Z</time></trkpt><trkpt lat="44.6474474" lon="7.9279754"><ele>458.33333333333337</ele><time>2026-04-10T12:05:44.629Z</time></trkpt><trkpt lat="44.6473845" lon="7.9279802"><ele>458.0</ele><time>2026-04-10T12:05:46.664Z</time></trkpt><trkpt lat="44.6472987" lon="7.9279768"><ele>457.6666666666667</ele><time>2026-04-10T12:05:49.687Z</time></trkpt><trkpt lat="44.6471991" lon="7.9279908"><ele>457.33333333333337</ele><time>2026-04-10T12:05:52.644Z</time></trkpt><trkpt lat="44.6471319" lon="7.9279868"><ele>457.0</ele><time>2026-04-10T12:05:54.655Z</time></trkpt><trkpt lat="44.6470639" lon="7.9279926"><ele>457.00000000000006</ele><time>2026-04-10T12:05:56.654Z</time></trkpt><trkpt lat="44.6469762" lon="7.9280054"><ele>457.0</ele><time>2026-04-10T12:05:59.741Z</time></trkpt><trkpt lat="44.6469083" lon="7.928003"><ele>457.0</ele><time>2026-04-10T12:06:01.678Z</time></trkpt><trkpt lat="44.6468291" lon="7.9280084"><ele>457.0</ele><time>2026-04-10T12:06:03.712Z</time></trkpt><trkpt lat="44.6467463" lon="7.928023"><ele>457.00000000000006</ele><time>2026-04-10T12:06:05.73Z</time></trkpt><trkpt lat="44.646666" lon="7.9280416"><ele>457.0</ele><time>2026-04-10T12:06:07.66Z</time></trkpt><trkpt lat="44.6465961" lon="7.9280692"><ele>457.83333333333337</ele><time>2026-04-10T12:06:09.727Z</time></trkpt><trkpt lat="44.646495" lon="7.9280882"><ele>458.6666666666667</ele><time>2026-04-10T12:06:12.682Z</time></trkpt><trkpt lat="44.6464185" lon="7.9281048"><ele>459.5</ele><time>2026-04-10T12:06:14.648Z</time></trkpt><trkpt lat="44.6463469" lon="7.9281346"><ele>460.33333333333337</ele><time>2026-04-10T12:06:16.653Z</time></trkpt><trkpt lat="44.6462783" lon="7.9281543"><ele>461.1666666666667</ele><time>2026-04-10T12:06:18.707Z</time></trkpt><trkpt lat="44.6462087" lon="7.9281756"><ele>462.0</ele><time>2026-04-10T12:06:20.626Z</time></trkpt><trkpt lat="44.6461398" lon="7.9281805"><ele>462.5</ele><time>2026-04-10T12:06:22.682Z</time></trkpt><trkpt lat="44.6460757" lon="7.9281787"><ele>463.0</ele><time>2026-04-10T12:06:24.644Z</time></trkpt><trkpt lat="44.6460105" lon="7.9281959"><ele>463.5</ele><time>2026-04-10T12:06:26.673Z</time></trkpt><trkpt lat="44.6459375" lon="7.9282168"><ele>464.0</ele><time>2026-04-10T12:06:28.622Z</time></trkpt><trkpt lat="44.645851" lon="7.9282275"><ele>464.5</ele><time>2026-04-10T12:06:30.646Z</time></trkpt><trkpt lat="44.6457828" lon="7.9282405"><ele>465.0</ele><time>2026-04-10T12:06:32.643Z</time></trkpt><trkpt lat="44.645691" lon="7.9282145"><ele>465.0</ele><time>2026-04-10T12:06:35.638Z</time></trkpt><trkpt lat="44.6456155" lon="7.9282506"><ele>465.0</ele><time>2026-04-10T12:06:38.622Z</time></trkpt><trkpt lat="44.6455636" lon="7.9283037"><ele>465.0</ele><time>2026-04-10T12:06:40.657Z</time></trkpt><trkpt lat="44.6455167" lon="7.9283694"><ele>465.0</ele><time>2026-04-10T12:06:42.683Z</time></trkpt><trkpt lat="44.6454622" lon="7.9284523"><ele>465.0</ele><time>2026-04-10T12:06:45.695Z</time></trkpt><trkpt lat="44.6454043" lon="7.9285395"><ele>465.0</ele><time>2026-04-10T12:06:48.692Z</time></trkpt><trkpt lat="44.6453481" lon="7.9286089"><ele>465.0</ele><time>2026-04-10T12:06:51.652Z</time></trkpt><trkpt lat="44.6453001" lon="7.9286782"><ele>465.0</ele><time>2026-04-10T12:06:54.645Z</time></trkpt><trkpt lat="44.6452416" lon="7.9287399"><ele>465.0</ele><time>2026-04-10T12:06:57.654Z</time></trkpt><trkpt lat="44.6451708" lon="7.928811"><ele>465.0</ele><time>2026-04-10T12:07:01.661Z</time></trkpt><trkpt lat="44.6451239" lon="7.928874"><ele>465.0</ele><time>2026-04-10T12:07:04.659Z</time></trkpt><trkpt lat="44.6450763" lon="7.9289388"><ele>465.0</ele><time>2026-04-10T12:07:07.662Z</time></trkpt><trkpt lat="44.6450221" lon="7.9289937"><ele>465.0</ele><time>2026-04-10T12:07:10.646Z</time></trkpt><trkpt lat="44.6449688" lon="7.9290723"><ele>465.57142857142856</ele><time>2026-04-10T12:07:14.67Z</time></trkpt><trkpt lat="44.6449266" lon="7.9291435"><ele>466.14285714285717</ele><time>2026-04-10T12:07:17.647Z</time></trkpt><trkpt lat="44.6448805" lon="7.9292115"><ele>466.7142857142857</ele><time>2026-04-10T12:07:20.664Z</time></trkpt><trkpt lat="44.6448228" lon="7.9292925"><ele>467.2857142857143</ele><time>2026-04-10T12:07:24.655Z</time></trkpt><trkpt lat="44.644774" lon="7.9293548"><ele>467.8571428571429</ele><time>2026-04-10T12:07:27.636Z</time></trkpt><trkpt lat="44.644727" lon="7.9294183"><ele>468.42857142857144</ele><time>2026-04-10T12:07:30.652Z</time></trkpt><trkpt lat="44.6446771" lon="7.9294767"><ele>469.0</ele><time>2026-04-10T12:07:33.64Z</time></trkpt><trkpt lat="44.6446228" lon="7.9295485"><ele>469.0</ele><time>2026-04-10T12:07:37.627Z</time></trkpt><trkpt lat="44.644578" lon="7.9296172"><ele>469.0</ele><time>2026-04-10T12:07:40.644Z</time></trkpt><trkpt lat="44.6445292" lon="7.9296809"><ele>469.0</ele><time>2026-04-10T12:07:43.638Z</time></trkpt><trkpt lat="44.644482" lon="7.9297426"><ele>469.0</ele><time>2026-04-10T12:07:46.625Z</time></trkpt><trkpt lat="44.6444316" lon="7.9298138"><ele>469.0</ele><time>2026-04-10T12:07:49.67Z</time></trkpt><trkpt lat="44.6443832" lon="7.9298826"><ele>469.0</ele><time>2026-04-10T12:07:52.651Z</time></trkpt><trkpt lat="44.6443276" lon="7.9299466"><ele>469.0</ele><time>2026-04-10T12:07:55.657Z</time></trkpt><trkpt lat="44.6442681" lon="7.9299901"><ele>469.6666666666667</ele><time>2026-04-10T12:07:58.649Z</time></trkpt><trkpt lat="44.6441984" lon="7.9300408"><ele>470.33333333333337</ele><time>2026-04-10T12:08:02.727Z</time></trkpt><trkpt lat="44.6441199" lon="7.9300625"><ele>471.0</ele><time>2026-04-10T12:08:06.734Z</time></trkpt><trkpt lat="44.6440507" lon="7.9301195"><ele>471.66666666666663</ele><time>2026-04-10T12:08:10.71Z</time></trkpt><trkpt lat="44.644008" lon="7.9302063"><ele>472.3333333333333</ele><time>2026-04-10T12:08:14.689Z</time></trkpt><trkpt lat="44.6439955" lon="7.9303049"><ele>473.0</ele><time>2026-04-10T12:08:18.699Z</time></trkpt><trkpt lat="44.6439846" lon="7.9303984"><ele>474.28571428571433</ele><time>2026-04-10T12:08:22.733Z</time></trkpt><trkpt lat="44.6439461" lon="7.9304898"><ele>475.57142857142856</ele><time>2026-04-10T12:08:27.722Z</time></trkpt><trkpt lat="44.6438888" lon="7.9305517"><ele>476.8571428571429</ele><time>2026-04-10T12:08:31.654Z</time></trkpt><trkpt lat="44.6438405" lon="7.9306166"><ele>478.14285714285717</ele><time>2026-04-10T12:08:35.651Z</time></trkpt><trkpt lat="44.643791" lon="7.9306749"><ele>479.42857142857144</ele><time>2026-04-10T12:08:39.721Z</time></trkpt><trkpt lat="44.6437362" lon="7.9307444"><ele>480.7142857142857</ele><time>2026-04-10T12:08:44.731Z</time></trkpt><trkpt lat="44.643687" lon="7.9307999"><ele>482.0</ele><time>2026-04-10T12:08:48.706Z</time></trkpt><trkpt lat="44.6436361" lon="7.9308821"><ele>483.0</ele><time>2026-04-10T12:08:53.668Z</time></trkpt><trkpt lat="44.6435901" lon="7.9309463"><ele>484.00000000000006</ele><time>2026-04-10T12:08:57.703Z</time></trkpt><trkpt lat="44.6435459" lon="7.9310104"><ele>485.0</ele><time>2026-04-10T12:09:01.739Z</time></trkpt><trkpt lat="44.643489" lon="7.9310798"><ele>486.0</ele><time>2026-04-10T12:09:06.704Z</time></trkpt><trkpt lat="44.6434412" lon="7.9311419"><ele>487.00000000000006</ele><time>2026-04-10T12:09:10.718Z</time></trkpt><trkpt lat="44.6433937" lon="7.9312105"><ele>488.0</ele><time>2026-04-10T12:09:15.728Z</time></trkpt><trkpt lat="44.6433447" lon="7.9312672"><ele>489.0</ele><time>2026-04-10T12:09:19.714Z</time></trkpt><trkpt lat="44.6432903" lon="7.9313303"><ele>489.0</ele><time>2026-04-10T12:09:24.656Z</time></trkpt><trkpt lat="44.6432462" lon="7.9314119"><ele>489.00000000000006</ele><time>2026-04-10T12:09:29.655Z</time></trkpt><trkpt lat="44.6431979" lon="7.9314799"><ele>489.0</ele><time>2026-04-10T12:09:33.648Z</time></trkpt><trkpt lat="44.6431457" lon="7.9315577"><ele>489.0</ele><time>2026-04-10T12:09:38.704Z</time></trkpt><trkpt lat="44.6430942" lon="7.9316329"><ele>489.00000000000006</ele><time>2026-04-10T12:09:43.651Z</time></trkpt><trkpt lat="44.6430372" lon="7.9316905"><ele>489.0</ele><time>2026-04-10T12:09:47.658Z</time></trkpt><trkpt lat="44.6429841" lon="7.9317662"><ele>489.0</ele><time>2026-04-10T12:09:52.74Z</time></trkpt><trkpt lat="44.6429289" lon="7.9318405"><ele>488.7142857142857</ele><time>2026-04-10T12:09:57.726Z</time></trkpt><trkpt lat="44.6428782" lon="7.9319054"><ele>488.42857142857144</ele><time>2026-04-10T12:10:02.724Z</time></trkpt><trkpt lat="44.6428331" lon="7.9319807"><ele>488.14285714285717</ele><time>2026-04-10T12:10:07.691Z</time></trkpt><trkpt lat="44.6427749" lon="7.9320512"><ele>487.8571428571429</ele><time>2026-04-10T12:10:12.715Z</time></trkpt><trkpt lat="44.6427218" lon="7.9321088"><ele>487.57142857142856</ele><time>2026-04-10T12:10:16.724Z</time></trkpt><trkpt lat="44.6426784" lon="7.9321756"><ele>487.28571428571433</ele><time>2026-04-10T12:10:20.734Z</time></trkpt><trkpt lat="44.6426315" lon="7.9322354"><ele>487.0</ele><time>2026-04-10T12:10:24.728Z</time></trkpt><trkpt lat="44.6425792" lon="7.9322963"><ele>487.14285714285717</ele><time>2026-04-10T12:10:28.727Z</time></trkpt><trkpt lat="44.6425257" lon="7.9323475"><ele>487.2857142857142</ele><time>2026-04-10T12:10:32.653Z</time></trkpt><trkpt lat="44.6424636" lon="7.9323917"><ele>487.4285714285714</ele><time>2026-04-10T12:10:36.657Z</time></trkpt><trkpt lat="44.6424012" lon="7.9324255"><ele>487.57142857142856</ele><time>2026-04-10T12:10:40.655Z</time></trkpt><trkpt lat="44.6423227" lon="7.9324675"><ele>487.71428571428567</ele><time>2026-04-10T12:10:44.657Z</time></trkpt><trkpt lat="44.6422568" lon="7.9325059"><ele>487.8571428571428</ele><time>2026-04-10T12:10:48.659Z</time></trkpt><trkpt lat="44.6421693" lon="7.9325418"><ele>487.99999999999994</ele><time>2026-04-10T12:10:52.64Z</time></trkpt><trkpt lat="44.6420791" lon="7.9325793"><ele>487.99999999999994</ele><time>2026-04-10T12:10:55.667Z</time></trkpt><trkpt lat="44.6419955" lon="7.9325975"><ele>488.0</ele><time>2026-04-10T12:10:58.656Z</time></trkpt><trkpt lat="44.6419101" lon="7.9326387"><ele>488.0</ele><time>2026-04-10T12:11:01.66Z</time></trkpt><trkpt lat="44.6418285" lon="7.9326729"><ele>488.0</ele><time>2026-04-10T12:11:04.683Z</time></trkpt><trkpt lat="44.64175" lon="7.9327068"><ele>487.99999999999994</ele><time>2026-04-10T12:11:07.667Z</time></trkpt><trkpt lat="44.6416726" lon="7.9327377"><ele>488.0</ele><time>2026-04-10T12:11:10.643Z</time></trkpt><trkpt lat="44.6415836" lon="7.9327793"><ele>489.3333333333333</ele><time>2026-04-10T12:11:13.631Z</time></trkpt><trkpt lat="44.6415233" lon="7.9328125"><ele>490.66666666666663</ele><time>2026-04-10T12:11:15.65Z</time></trkpt><trkpt lat="44.6414625" lon="7.9328362"><ele>492.0</ele><time>2026-04-10T12:11:17.664Z</time></trkpt><trkpt lat="44.6413724" lon="7.9328751"><ele>493.33333333333337</ele><time>2026-04-10T12:11:20.743Z</time></trkpt><trkpt lat="44.6413067" lon="7.9329211"><ele>494.6666666666667</ele><time>2026-04-10T12:11:22.73Z</time></trkpt><trkpt lat="44.6412242" lon="7.9329583"><ele>496.0</ele><time>2026-04-10T12:11:24.739Z</time></trkpt><trkpt lat="44.6411482" lon="7.9330114"><ele>496.50000000000006</ele><time>2026-04-10T12:11:26.736Z</time></trkpt><trkpt lat="44.6410723" lon="7.9330517"><ele>497.0</ele><time>2026-04-10T12:11:28.737Z</time></trkpt><trkpt lat="44.6409929" lon="7.933103"><ele>497.5</ele><time>2026-04-10T12:11:30.752Z</time></trkpt><trkpt lat="44.6409134" lon="7.9331475"><ele>498.0</ele><time>2026-04-10T12:11:32.681Z</time></trkpt><trkpt lat="44.6408318" lon="7.933195"><ele>498.50000000000006</ele><time>2026-04-10T12:11:34.661Z</time></trkpt><trkpt lat="44.6407543" lon="7.9332339"><ele>499.0</ele><time>2026-04-10T12:11:36.652Z</time></trkpt><trkpt lat="44.6406623" lon="7.9332719"><ele>499.0</ele><time>2026-04-10T12:11:38.658Z</time></trkpt><trkpt lat="44.6405713" lon="7.9333282"><ele>499.0</ele><time>2026-04-10T12:11:40.664Z</time></trkpt><trkpt lat="44.6404718" lon="7.933379"><ele>499.0</ele><time>2026-04-10T12:11:42.656Z</time></trkpt><trkpt lat="44.6403765" lon="7.9334451"><ele>499.0</ele><time>2026-04-10T12:11:44.653Z</time></trkpt><trkpt lat="44.6402896" lon="7.9335014"><ele>499.0</ele><time>2026-04-10T12:11:46.655Z</time></trkpt><trkpt lat="44.6401962" lon="7.9335534"><ele>498.2</ele><time>2026-04-10T12:11:48.669Z</time></trkpt><trkpt lat="44.6400973" lon="7.9336134"><ele>497.4</ele><time>2026-04-10T12:11:50.666Z</time></trkpt><trkpt lat="44.6399977" lon="7.9336735"><ele>496.6</ele><time>2026-04-10T12:11:52.663Z</time></trkpt><trkpt lat="44.6399051" lon="7.9337238"><ele>495.8</ele><time>2026-04-10T12:11:54.665Z</time></trkpt><trkpt lat="44.6398098" lon="7.9337717"><ele>495.0</ele><time>2026-04-10T12:11:56.663Z</time></trkpt><trkpt lat="44.6397114" lon="7.9338307"><ele>495.0</ele><time>2026-04-10T12:11:58.668Z</time></trkpt><trkpt lat="44.6396155" lon="7.9338863"><ele>495.0</ele><time>2026-04-10T12:12:00.657Z</time></trkpt><trkpt lat="44.639525" lon="7.9339426"><ele>495.0</ele><time>2026-04-10T12:12:02.642Z</time></trkpt><trkpt lat="44.6394339" lon="7.9340038"><ele>495.0</ele><time>2026-04-10T12:12:04.647Z</time></trkpt><trkpt lat="44.6393525" lon="7.9340547"><ele>495.0</ele><time>2026-04-10T12:12:06.624Z</time></trkpt><trkpt lat="44.6392778" lon="7.9341018"><ele>495.71428571428567</ele><time>2026-04-10T12:12:08.646Z</time></trkpt><trkpt lat="44.6392167" lon="7.934141"><ele>496.42857142857144</ele><time>2026-04-10T12:12:10.67Z</time></trkpt><trkpt lat="44.6391459" lon="7.9341437"><ele>497.1428571428571</ele><time>2026-04-10T12:12:15.662Z</time></trkpt><trkpt lat="44.6390846" lon="7.9341804"><ele>497.85714285714283</ele><time>2026-04-10T12:12:19.728Z</time></trkpt><trkpt lat="44.6390191" lon="7.9342218"><ele>498.57142857142856</ele><time>2026-04-10T12:12:24.672Z</time></trkpt><trkpt lat="44.6389354" lon="7.9342613"><ele>499.2857142857143</ele><time>2026-04-10T12:12:42.642Z</time></trkpt><trkpt lat="44.6388731" lon="7.934289"><ele>500.0</ele><time>2026-04-10T12:12:46.655Z</time></trkpt><trkpt lat="44.6388029" lon="7.9343054"><ele>500.0</ele><time>2026-04-10T12:12:52.648Z</time></trkpt><trkpt lat="44.6387246" lon="7.9343199"><ele>500.0</ele><time>2026-04-10T12:12:56.663Z</time></trkpt><trkpt lat="44.6386481" lon="7.9343423"><ele>500.0</ele><time>2026-04-10T12:13:00.649Z</time></trkpt><trkpt lat="44.6385742" lon="7.9343612"><ele>500.0</ele><time>2026-04-10T12:13:04.653Z</time></trkpt><trkpt lat="44.6385074" lon="7.9343733"><ele>500.0</ele><time>2026-04-10T12:13:08.632Z</time></trkpt><trkpt lat="44.6384438" lon="7.934379"><ele>500.0</ele><time>2026-04-10T12:13:12.639Z</time></trkpt><trkpt lat="44.6383741" lon="7.9344233"><ele>500.0</ele><time>2026-04-10T12:13:19.645Z</time></trkpt><trkpt lat="44.6383028" lon="7.9344608"><ele>499.99999999999994</ele><time>2026-04-10T12:13:25.658Z</time></trkpt><trkpt lat="44.6382329" lon="7.9344821"><ele>500.0</ele><time>2026-04-10T12:13:31.662Z</time></trkpt><trkpt lat="44.6381469" lon="7.9345032"><ele>500.0</ele><time>2026-04-10T12:13:38.646Z</time></trkpt><trkpt lat="44.638084" lon="7.9345383"><ele>500.0</ele><time>2026-04-10T12:13:45.653Z</time></trkpt><trkpt lat="44.6379716" lon="7.9345643"><ele>499.99999999999994</ele><time>2026-04-10T12:13:56.66Z</time></trkpt><trkpt lat="44.6379054" lon="7.9345089"><ele>500.0</ele><time>2026-04-10T12:14:03.721Z</time></trkpt><trkpt lat="44.6378544" lon="7.9344258"><ele>499.1428571428571</ele><time>2026-04-10T12:14:09.72Z</time></trkpt><trkpt lat="44.6377906" lon="7.9343826"><ele>498.28571428571433</ele><time>2026-04-10T12:14:13.706Z</time></trkpt><trkpt lat="44.637714" lon="7.9343758"><ele>497.42857142857144</ele><time>2026-04-10T12:14:17.718Z</time></trkpt><trkpt lat="44.6376411" lon="7.9343877"><ele>496.57142857142856</ele><time>2026-04-10T12:14:21.708Z</time></trkpt><trkpt lat="44.6375777" lon="7.9343564"><ele>495.71428571428567</ele><time>2026-04-10T12:14:24.667Z</time></trkpt><trkpt lat="44.6375186" lon="7.9343235"><ele>494.8571428571429</ele><time>2026-04-10T12:14:27.72Z</time></trkpt><trkpt lat="44.6374651" lon="7.9343837"><ele>494.0</ele><time>2026-04-10T12:14:31.708Z</time></trkpt><trkpt lat="44.6374148" lon="7.9344533"><ele>494.0</ele><time>2026-04-10T12:14:35.719Z</time></trkpt><trkpt lat="44.6373791" lon="7.9345317"><ele>494.0</ele><time>2026-04-10T12:14:41.697Z</time></trkpt><trkpt lat="44.6374059" lon="7.9346186"><ele>494.0</ele><time>2026-04-10T12:15:09.703Z</time></trkpt></trkseg><trkseg><trkpt lat="44.5174057" lon="7.9319393"><ele>414.0</ele><time>2026-04-11T07:23:16.803Z</time></trkpt><trkpt lat="44.5174801" lon="7.9319516"><ele>414.0</ele><time>2026-04-11T07:23:20.866Z</time></trkpt><trkpt lat="44.5175461" lon="7.9319714"><ele>414.0</ele><time>2026-04-11T07:23:29.915Z</time></trkpt><trkpt lat="44.5176142" lon="7.932023"><ele>414.0</ele><time>2026-04-11T07:23:49.881Z</time></trkpt><trkpt lat="44.5176762" lon="7.9320822"><ele>414.0</ele><time>2026-04-11T07:23:53.906Z</time></trkpt><trkpt lat="44.517745" lon="7.9321629"><ele>414.0</ele><time>2026-04-11T07:23:56.923Z</time></trkpt><trkpt lat="44.5177959" lon="7.9322281"><ele>414.0</ele><time>2026-04-11T07:23:58.918Z</time></trkpt><trkpt lat="44.5178537" lon="7.9322847"><ele>414.0</ele><time>2026-04-11T07:24:00.92Z</time></trkpt><trkpt lat="44.5179381" lon="7.9323517"><ele>414.0</ele><time>2026-04-11T07:24:04.124Z</time></trkpt><trkpt lat="44.5179933" lon="7.9323952"><ele>414.0</ele><time>2026-04-11T07:24:06.137Z</time></trkpt><trkpt lat="44.5180719" lon="7.9324602"><ele>414.0</ele><time>2026-04-11T07:24:09.076Z</time></trkpt><trkpt lat="44.5181393" lon="7.9325328"><ele>414.0</ele><time>2026-04-11T07:24:11.887Z</time></trkpt><trkpt lat="44.518197" lon="7.9325948"><ele>414.28571428571433</ele><time>2026-04-11T07:24:14.919Z</time></trkpt><trkpt lat="44.5182663" lon="7.9326662"><ele>414.57142857142856</ele><time>2026-04-11T07:24:18.917Z</time></trkpt><trkpt lat="44.5183262" lon="7.9327068"><ele>414.8571428571429</ele><time>2026-04-11T07:24:23.126Z</time></trkpt><trkpt lat="44.5183844" lon="7.9327487"><ele>415.14285714285717</ele><time>2026-04-11T07:24:28.916Z</time></trkpt><trkpt lat="44.5184439" lon="7.9328051"><ele>415.42857142857144</ele><time>2026-04-11T07:24:35.903Z</time></trkpt><trkpt lat="44.5185135" lon="7.9328357"><ele>415.7142857142857</ele><time>2026-04-11T07:24:41.858Z</time></trkpt><trkpt lat="44.5185787" lon="7.9328513"><ele>416.0</ele><time>2026-04-11T07:24:47.918Z</time></trkpt><trkpt lat="44.5186417" lon="7.9328981"><ele>416.0</ele><time>2026-04-11T07:24:53.921Z</time></trkpt><trkpt lat="44.5187039" lon="7.9329436"><ele>416.0</ele><time>2026-04-11T07:25:00.926Z</time></trkpt><trkpt lat="44.5187672" lon="7.9329786"><ele>416.0</ele><time>2026-04-11T07:25:06.926Z</time></trkpt><trkpt lat="44.5188304" lon="7.9330171"><ele>416.0</ele><time>2026-04-11T07:25:13.92Z</time></trkpt><trkpt lat="44.5188984" lon="7.9330466"><ele>416.0</ele><time>2026-04-11T07:25:19.914Z</time></trkpt><trkpt lat="44.5189638" lon="7.9330715"><ele>416.0</ele><time>2026-04-11T07:25:25.92Z</time></trkpt><trkpt lat="44.5190148" lon="7.9331293"><ele>416.0</ele><time>2026-04-11T07:25:31.918Z</time></trkpt><trkpt lat="44.5190806" lon="7.9331205"><ele>418.4285714285714</ele><time>2026-04-11T07:25:37.921Z</time></trkpt><trkpt lat="44.519147" lon="7.9331695"><ele>420.8571428571429</ele><time>2026-04-11T07:25:45.864Z</time></trkpt><trkpt lat="44.5192104" lon="7.9332164"><ele>423.2857142857143</ele><time>2026-04-11T07:25:54.146Z</time></trkpt><trkpt lat="44.5192741" lon="7.933197"><ele>425.71428571428567</ele><time>2026-04-11T07:25:59.925Z</time></trkpt><trkpt lat="44.5193383" lon="7.9332094"><ele>428.1428571428571</ele><time>2026-04-11T07:26:05.937Z</time></trkpt><trkpt lat="44.5193712" lon="7.9332899"><ele>430.57142857142856</ele><time>2026-04-11T07:26:12.893Z</time></trkpt><trkpt lat="44.5193306" lon="7.9333591"><ele>433.0</ele><time>2026-04-11T07:26:18.916Z</time></trkpt><trkpt lat="44.5193949" lon="7.9333222"><ele>432.99999999999994</ele><time>2026-04-11T07:26:29.922Z</time></trkpt><trkpt lat="44.5193631" lon="7.9332424"><ele>433.0</ele><time>2026-04-11T07:26:34.915Z</time></trkpt><trkpt lat="44.5193416" lon="7.9333425"><ele>433.0</ele><time>2026-04-11T07:26:40.913Z</time></trkpt><trkpt lat="44.5193121" lon="7.9334283"><ele>433.0</ele><time>2026-04-11T07:27:10.897Z</time></trkpt><trkpt lat="44.5192791" lon="7.9335059"><ele>433.0</ele><time>2026-04-11T07:28:53.817Z</time></trkpt><trkpt lat="44.5192506" lon="7.9336107"><ele>432.99999999999994</ele><time>2026-04-11T07:28:57.835Z</time></trkpt><trkpt lat="44.5192126" lon="7.9337057"><ele>433.0</ele><time>2026-04-11T07:29:00.849Z</time></trkpt><trkpt lat="44.5191942" lon="7.9338048"><ele>432.00000000000006</ele><time>2026-04-11T07:29:03.863Z</time></trkpt><trkpt lat="44.5191651" lon="7.9339171"><ele>431.0</ele><time>2026-04-11T07:29:05.858Z</time></trkpt><trkpt lat="44.5191396" lon="7.9340065"><ele>430.0</ele><time>2026-04-11T07:29:08.175Z</time></trkpt><trkpt lat="44.5191167" lon="7.9341251"><ele>429.0</ele><time>2026-04-11T07:29:10.925Z</time></trkpt><trkpt lat="44.5190874" lon="7.9342475"><ele>428.00000000000006</ele><time>2026-04-11T07:29:13.939Z</time></trkpt><trkpt lat="44.5190672" lon="7.9343503"><ele>427.0</ele><time>2026-04-11T07:29:15.896Z</time></trkpt><trkpt lat="44.5190373" lon="7.9344571"><ele>425.20000000000005</ele><time>2026-04-11T07:29:18.123Z</time></trkpt><trkpt lat="44.5190079" lon="7.9346362"><ele>423.40000000000003</ele><time>2026-04-11T07:29:20.945Z</time></trkpt><trkpt lat="44.518979" lon="7.9347591"><ele>421.6</ele><time>2026-04-11T07:29:22.907Z</time></trkpt><trkpt lat="44.5189394" lon="7.9348927"><ele>419.79999999999995</ele><time>2026-04-11T07:29:24.908Z</time></trkpt><trkpt lat="44.5188898" lon="7.9350239"><ele>418.0</ele><time>2026-04-11T07:29:27.121Z</time></trkpt><trkpt lat="44.5188142" lon="7.9352157"><ele>417.1666666666667</ele><time>2026-04-11T07:29:29.866Z</time></trkpt><trkpt lat="44.5187815" lon="7.9353434"><ele>416.33333333333337</ele><time>2026-04-11T07:29:32.178Z</time></trkpt><trkpt lat="44.5187493" lon="7.9354522"><ele>415.5</ele><time>2026-04-11T07:29:34.148Z</time></trkpt><trkpt lat="44.5187244" lon="7.9355522"><ele>414.66666666666663</ele><time>2026-04-11T07:29:35.93Z</time></trkpt><trkpt lat="44.5187052" lon="7.9356509"><ele>413.8333333333333</ele><time>2026-04-11T07:29:38.198Z</time></trkpt><trkpt lat="44.5186756" lon="7.9357796"><ele>413.0</ele><time>2026-04-11T07:29:40.921Z</time></trkpt><trkpt lat="44.518633" lon="7.9358862"><ele>414.49999999999994</ele><time>2026-04-11T07:29:43.915Z</time></trkpt><trkpt lat="44.5185688" lon="7.9359756"><ele>416.0</ele><time>2026-04-11T07:29:46.935Z</time></trkpt><trkpt lat="44.5184664" lon="7.9360727"><ele>417.5</ele><time>2026-04-11T07:29:50.94Z</time></trkpt><trkpt lat="44.5184177" lon="7.9361329"><ele>419.0</ele><time>2026-04-11T07:29:52.925Z</time></trkpt><trkpt lat="44.5183727" lon="7.9362008"><ele>420.49999999999994</ele><time>2026-04-11T07:29:54.913Z</time></trkpt><trkpt lat="44.5183062" lon="7.9363013"><ele>422.0</ele><time>2026-04-11T07:29:57.915Z</time></trkpt><trkpt lat="44.5182628" lon="7.9363842"><ele>422.0</ele><time>2026-04-11T07:29:59.917Z</time></trkpt><trkpt lat="44.5182328" lon="7.9364767"><ele>422.0</ele><time>2026-04-11T07:30:01.913Z</time></trkpt><trkpt lat="44.518216" lon="7.936564"><ele>422.0</ele><time>2026-04-11T07:30:03.94Z</time></trkpt><trkpt lat="44.5181983" lon="7.9366538"><ele>422.0</ele><time>2026-04-11T07:30:05.917Z</time></trkpt><trkpt lat="44.5181843" lon="7.9367415"><ele>422.0</ele><time>2026-04-11T07:30:08.14Z</time></trkpt><trkpt lat="44.5181686" lon="7.9368851"><ele>422.0</ele><time>2026-04-11T07:30:10.923Z</time></trkpt><trkpt lat="44.5181622" lon="7.936984"><ele>422.0</ele><time>2026-04-11T07:30:13.104Z</time></trkpt><trkpt lat="44.5181497" lon="7.9371302"><ele>421.6</ele><time>2026-04-11T07:30:15.904Z</time></trkpt><trkpt lat="44.518136" lon="7.9372403"><ele>421.20000000000005</ele><time>2026-04-11T07:30:18.121Z</time></trkpt><trkpt lat="44.5181244" lon="7.9373512"><ele>420.8</ele><time>2026-04-11T07:30:19.943Z</time></trkpt><trkpt lat="44.5181153" lon="7.9374673"><ele>420.4</ele><time>2026-04-11T07:30:22.096Z</time></trkpt><trkpt lat="44.5181123" lon="7.9376621"><ele>420.0</ele><time>2026-04-11T07:30:24.924Z</time></trkpt><trkpt lat="44.5181204" lon="7.9377984"><ele>419.2</ele><time>2026-04-11T07:30:26.91Z</time></trkpt><trkpt lat="44.518134" lon="7.9379409"><ele>418.4</ele><time>2026-04-11T07:30:28.924Z</time></trkpt><trkpt lat="44.5181456" lon="7.9380981"><ele>417.6</ele><time>2026-04-11T07:30:30.929Z</time></trkpt><trkpt lat="44.5181532" lon="7.9382493"><ele>416.8</ele><time>2026-04-11T07:30:32.93Z</time></trkpt><trkpt lat="44.5181686" lon="7.9383856"><ele>416.0</ele><time>2026-04-11T07:30:34.919Z</time></trkpt><trkpt lat="44.5181909" lon="7.9385284"><ele>415.4</ele><time>2026-04-11T07:30:36.899Z</time></trkpt><trkpt lat="44.5182094" lon="7.9386736"><ele>414.8</ele><time>2026-04-11T07:30:38.912Z</time></trkpt><trkpt lat="44.5182238" lon="7.9388098"><ele>414.2</ele><time>2026-04-11T07:30:40.916Z</time></trkpt><trkpt lat="44.5182419" lon="7.9389492"><ele>413.59999999999997</ele><time>2026-04-11T07:30:42.92Z</time></trkpt><trkpt lat="44.518264" lon="7.9390956"><ele>413.0</ele><time>2026-04-11T07:30:44.917Z</time></trkpt><trkpt lat="44.5182902" lon="7.9392481"><ele>412.4</ele><time>2026-04-11T07:30:46.928Z</time></trkpt><trkpt lat="44.5183146" lon="7.9394094"><ele>411.79999999999995</ele><time>2026-04-11T07:30:48.893Z</time></trkpt><trkpt lat="44.5183389" lon="7.9395615"><ele>411.2</ele><time>2026-04-11T07:30:50.941Z</time></trkpt><trkpt lat="44.5183688" lon="7.9397054"><ele>410.6</ele><time>2026-04-11T07:30:52.928Z</time></trkpt><trkpt lat="44.5183972" lon="7.9398386"><ele>410.0</ele><time>2026-04-11T07:30:54.863Z</time></trkpt><trkpt lat="44.5184372" lon="7.9399661"><ele>408.8333333333333</ele><time>2026-04-11T07:30:56.924Z</time></trkpt><trkpt lat="44.5184783" lon="7.9400812"><ele>407.66666666666663</ele><time>2026-04-11T07:30:58.941Z</time></trkpt><trkpt lat="44.5185241" lon="7.9401915"><ele>406.5</ele><time>2026-04-11T07:31:00.922Z</time></trkpt><trkpt lat="44.5185667" lon="7.9402951"><ele>405.33333333333337</ele><time>2026-04-11T07:31:02.932Z</time></trkpt><trkpt lat="44.5186124" lon="7.9403838"><ele>404.1666666666667</ele><time>2026-04-11T07:31:04.931Z</time></trkpt><trkpt lat="44.5186548" lon="7.9404712"><ele>403.0</ele><time>2026-04-11T07:31:06.924Z</time></trkpt><trkpt lat="44.5186981" lon="7.940552"><ele>403.6666666666667</ele><time>2026-04-11T07:31:08.919Z</time></trkpt><trkpt lat="44.5187388" lon="7.9406209"><ele>404.33333333333337</ele><time>2026-04-11T07:31:10.931Z</time></trkpt><trkpt lat="44.518804" lon="7.9407057"><ele>405.0</ele><time>2026-04-11T07:31:13.929Z</time></trkpt><trkpt lat="44.5188747" lon="7.9407954"><ele>405.66666666666663</ele><time>2026-04-11T07:31:16.916Z</time></trkpt><trkpt lat="44.5189334" lon="7.9408628"><ele>406.3333333333333</ele><time>2026-04-11T07:31:18.928Z</time></trkpt><trkpt lat="44.519" lon="7.9409324"><ele>407.0</ele><time>2026-04-11T07:31:20.927Z</time></trkpt><trkpt lat="44.5190628" lon="7.9410033"><ele>406.99999999999994</ele><time>2026-04-11T07:31:22.931Z</time></trkpt><trkpt lat="44.5191244" lon="7.9410817"><ele>407.0</ele><time>2026-04-11T07:31:24.93Z</time></trkpt><trkpt lat="44.5191849" lon="7.9411607"><ele>407.0</ele><time>2026-04-11T07:31:26.918Z</time></trkpt><trkpt lat="44.5192466" lon="7.9412405"><ele>407.0</ele><time>2026-04-11T07:31:28.929Z</time></trkpt><trkpt lat="44.519308" lon="7.9413198"><ele>406.99999999999994</ele><time>2026-04-11T07:31:30.935Z</time></trkpt><trkpt lat="44.519364" lon="7.941403"><ele>407.0</ele><time>2026-04-11T07:31:32.925Z</time></trkpt><trkpt lat="44.5194131" lon="7.9414953"><ele>407.0</ele><time>2026-04-11T07:31:34.928Z</time></trkpt><trkpt lat="44.5194567" lon="7.9415839"><ele>407.0</ele><time>2026-04-11T07:31:37.108Z</time></trkpt><trkpt lat="44.5194963" lon="7.9416748"><ele>407.0</ele><time>2026-04-11T07:31:39.128Z</time></trkpt><trkpt lat="44.5195259" lon="7.9417839"><ele>407.0</ele><time>2026-04-11T07:31:40.943Z</time></trkpt><trkpt lat="44.519565" lon="7.9419569"><ele>407.0</ele><time>2026-04-11T07:31:44.108Z</time></trkpt><trkpt lat="44.5195821" lon="7.9420773"><ele>406.5</ele><time>2026-04-11T07:31:45.929Z</time></trkpt><trkpt lat="44.5196256" lon="7.942271"><ele>406.0</ele><time>2026-04-11T07:31:48.909Z</time></trkpt><trkpt lat="44.5196647" lon="7.9423961"><ele>405.5</ele><time>2026-04-11T07:31:50.923Z</time></trkpt><trkpt lat="44.519734" lon="7.9425736"><ele>405.0</ele><time>2026-04-11T07:31:54.134Z</time></trkpt><trkpt lat="44.5197887" lon="7.94268"><ele>405.0</ele><time>2026-04-11T07:31:55.926Z</time></trkpt><trkpt lat="44.519865" lon="7.9428354"><ele>405.0</ele><time>2026-04-11T07:31:58.917Z</time></trkpt><trkpt lat="44.5199241" lon="7.9429458"><ele>405.0</ele><time>2026-04-11T07:32:00.912Z</time></trkpt><trkpt lat="44.5200131" lon="7.9431237"><ele>405.0</ele><time>2026-04-11T07:32:03.926Z</time></trkpt><trkpt lat="44.5200698" lon="7.9432534"><ele>401.5</ele><time>2026-04-11T07:32:05.921Z</time></trkpt><trkpt lat="44.5201204" lon="7.9433919"><ele>398.0</ele><time>2026-04-11T07:32:07.929Z</time></trkpt><trkpt lat="44.5201778" lon="7.9435347"><ele>394.5</ele><time>2026-04-11T07:32:09.931Z</time></trkpt><trkpt lat="44.5202405" lon="7.9436849"><ele>391.0</ele><time>2026-04-11T07:32:11.944Z</time></trkpt><trkpt lat="44.520306" lon="7.9438393"><ele>391.0</ele><time>2026-04-11T07:32:13.922Z</time></trkpt><trkpt lat="44.520346" lon="7.9439227"><ele>391.0</ele><time>2026-04-11T07:32:14.922Z</time></trkpt><trkpt lat="44.5203853" lon="7.9439971"><ele>391.0</ele><time>2026-04-11T07:32:15.921Z</time></trkpt><trkpt lat="44.5204308" lon="7.9440638"><ele>391.0</ele><time>2026-04-11T07:32:16.926Z</time></trkpt><trkpt lat="44.5204799" lon="7.9441222"><ele>391.0</ele><time>2026-04-11T07:32:17.926Z</time></trkpt><trkpt lat="44.5206584" lon="7.944218"><ele>392.0</ele><time>2026-04-11T07:32:20.929Z</time></trkpt><trkpt lat="44.5207239" lon="7.9442266"><ele>393.0</ele><time>2026-04-11T07:32:22.179Z</time></trkpt><trkpt lat="44.5208499" lon="7.9442146"><ele>394.0</ele><time>2026-04-11T07:32:24.141Z</time></trkpt><trkpt lat="44.5209889" lon="7.9441862"><ele>395.0</ele><time>2026-04-11T07:32:25.925Z</time></trkpt><trkpt lat="44.5210548" lon="7.944162"><ele>396.0</ele><time>2026-04-11T07:32:26.975Z</time></trkpt><trkpt lat="44.5211581" lon="7.9441333"><ele>394.1666666666667</ele><time>2026-04-11T07:32:29.128Z</time></trkpt><trkpt lat="44.5212497" lon="7.9440983"><ele>392.33333333333337</ele><time>2026-04-11T07:32:30.925Z</time></trkpt><trkpt lat="44.521332" lon="7.9440661"><ele>390.5</ele><time>2026-04-11T07:32:33.159Z</time></trkpt><trkpt lat="44.5213976" lon="7.9440326"><ele>388.6666666666667</ele><time>2026-04-11T07:32:34.89Z</time></trkpt><trkpt lat="44.521461" lon="7.9440077"><ele>386.83333333333337</ele><time>2026-04-11T07:32:37.174Z</time></trkpt><trkpt lat="44.5215529" lon="7.9439803"><ele>385.0</ele><time>2026-04-11T07:32:39.921Z</time></trkpt><trkpt lat="44.5216154" lon="7.9439998"><ele>385.0</ele><time>2026-04-11T07:32:46.917Z</time></trkpt><trkpt lat="44.5216596" lon="7.9440645"><ele>385.0</ele><time>2026-04-11T07:33:13.067Z</time></trkpt><trkpt lat="44.5217377" lon="7.9441144"><ele>385.0</ele><time>2026-04-11T07:33:15.934Z</time></trkpt><trkpt lat="44.5218192" lon="7.9441608"><ele>385.0</ele><time>2026-04-11T07:33:18.092Z</time></trkpt><trkpt lat="44.521962" lon="7.9442447"><ele>385.0</ele><time>2026-04-11T07:33:21.137Z</time></trkpt><trkpt lat="44.5220723" lon="7.9443091"><ele>384.5</ele><time>2026-04-11T07:33:23.177Z</time></trkpt><trkpt lat="44.5221769" lon="7.9443644"><ele>384.0</ele><time>2026-04-11T07:33:24.905Z</time></trkpt><trkpt lat="44.5222906" lon="7.9444141"><ele>383.5</ele><time>2026-04-11T07:33:26.923Z</time></trkpt><trkpt lat="44.5224016" lon="7.9444488"><ele>383.0</ele><time>2026-04-11T07:33:29.118Z</time></trkpt><trkpt lat="44.5225188" lon="7.9444786"><ele>383.0</ele><time>2026-04-11T07:33:30.916Z</time></trkpt><trkpt lat="44.5225877" lon="7.9444925"><ele>383.0</ele><time>2026-04-11T07:33:31.901Z</time></trkpt><trkpt lat="44.5226621" lon="7.9445021"><ele>383.0</ele><time>2026-04-11T07:33:32.945Z</time></trkpt><trkpt lat="44.5227363" lon="7.9445074"><ele>383.0</ele><time>2026-04-11T07:33:34.127Z</time></trkpt><trkpt lat="44.5228876" lon="7.9445315"><ele>383.0</ele><time>2026-04-11T07:33:35.875Z</time></trkpt><trkpt lat="44.522965" lon="7.9445408"><ele>383.0</ele><time>2026-04-11T07:33:36.851Z</time></trkpt><trkpt lat="44.5230435" lon="7.944544"><ele>381.4</ele><time>2026-04-11T07:33:37.887Z</time></trkpt><trkpt lat="44.5231238" lon="7.9445512"><ele>379.79999999999995</ele><time>2026-04-11T07:33:38.843Z</time></trkpt><trkpt lat="44.523202" lon="7.9445578"><ele>378.2</ele><time>2026-04-11T07:33:39.926Z</time></trkpt><trkpt lat="44.5232864" lon="7.9445614"><ele>376.6</ele><time>2026-04-11T07:33:41.141Z</time></trkpt><trkpt lat="44.5234581" lon="7.9445892"><ele>375.0</ele><time>2026-04-11T07:33:42.903Z</time></trkpt><trkpt lat="44.5235411" lon="7.944602"><ele>375.0</ele><time>2026-04-11T07:33:43.882Z</time></trkpt><trkpt lat="44.5236204" lon="7.9446158"><ele>375.0</ele><time>2026-04-11T07:33:44.927Z</time></trkpt><trkpt lat="44.5237107" lon="7.9446268"><ele>375.0</ele><time>2026-04-11T07:33:45.942Z</time></trkpt><trkpt lat="44.5237994" lon="7.94464"><ele>375.0</ele><time>2026-04-11T07:33:46.941Z</time></trkpt><trkpt lat="44.5238891" lon="7.9446532"><ele>375.0</ele><time>2026-04-11T07:33:47.93Z</time></trkpt><trkpt lat="44.5239728" lon="7.9446635"><ele>375.0</ele><time>2026-04-11T07:33:48.931Z</time></trkpt><trkpt lat="44.5240547" lon="7.9446808"><ele>373.1666666666667</ele><time>2026-04-11T07:33:49.929Z</time></trkpt><trkpt lat="44.5241349" lon="7.944699"><ele>371.3333333333333</ele><time>2026-04-11T07:33:50.909Z</time></trkpt><trkpt lat="44.5242184" lon="7.9447223"><ele>369.5</ele><time>2026-04-11T07:33:51.934Z</time></trkpt><trkpt lat="44.5242973" lon="7.9447641"><ele>367.66666666666663</ele><time>2026-04-11T07:33:52.938Z</time></trkpt><trkpt lat="44.5243751" lon="7.9448209"><ele>365.8333333333333</ele><time>2026-04-11T07:33:53.935Z</time></trkpt><trkpt lat="44.5244442" lon="7.9449011"><ele>364.0</ele><time>2026-04-11T07:33:54.936Z</time></trkpt><trkpt lat="44.5245073" lon="7.9449814"><ele>361.5</ele><time>2026-04-11T07:33:55.939Z</time></trkpt><trkpt lat="44.524575" lon="7.9450696"><ele>359.0</ele><time>2026-04-11T07:33:56.875Z</time></trkpt><trkpt lat="44.5246447" lon="7.9451526"><ele>356.5</ele><time>2026-04-11T07:33:57.94Z</time></trkpt><trkpt lat="44.524714" lon="7.945238"><ele>354.0</ele><time>2026-04-11T07:33:59.124Z</time></trkpt><trkpt lat="44.5248504" lon="7.9454006"><ele>354.0</ele><time>2026-04-11T07:34:00.919Z</time></trkpt><trkpt lat="44.5249183" lon="7.9454845"><ele>354.0</ele><time>2026-04-11T07:34:01.931Z</time></trkpt><trkpt lat="44.5249869" lon="7.9455657"><ele>354.0</ele><time>2026-04-11T07:34:02.923Z</time></trkpt><trkpt lat="44.5250559" lon="7.9456555"><ele>354.0</ele><time>2026-04-11T07:34:04.164Z</time></trkpt><trkpt lat="44.525176" lon="7.9458602"><ele>354.6</ele><time>2026-04-11T07:34:05.945Z</time></trkpt><trkpt lat="44.5252253" lon="7.9459753"><ele>355.2</ele><time>2026-04-11T07:34:06.93Z</time></trkpt><trkpt lat="44.5252685" lon="7.9461046"><ele>355.8</ele><time>2026-04-11T07:34:07.941Z</time></trkpt><trkpt lat="44.5253118" lon="7.9462351"><ele>356.40000000000003</ele><time>2026-04-11T07:34:08.922Z</time></trkpt><trkpt lat="44.5253552" lon="7.9463656"><ele>357.0</ele><time>2026-04-11T07:34:09.95Z</time></trkpt><trkpt lat="44.5254018" lon="7.946505"><ele>353.75</ele><time>2026-04-11T07:34:10.911Z</time></trkpt><trkpt lat="44.5254475" lon="7.9466515"><ele>350.5</ele><time>2026-04-11T07:34:11.905Z</time></trkpt><trkpt lat="44.5254919" lon="7.9467991"><ele>347.25</ele><time>2026-04-11T07:34:12.923Z</time></trkpt><trkpt lat="44.5255384" lon="7.9469447"><ele>344.0</ele><time>2026-04-11T07:34:14.127Z</time></trkpt><trkpt lat="44.525629" lon="7.9472163"><ele>344.0</ele><time>2026-04-11T07:34:15.935Z</time></trkpt><trkpt lat="44.5256702" lon="7.947335"><ele>344.0</ele><time>2026-04-11T07:34:16.935Z</time></trkpt><trkpt lat="44.5257144" lon="7.9474486"><ele>344.0</ele><time>2026-04-11T07:34:17.92Z</time></trkpt><trkpt lat="44.5257692" lon="7.9475498"><ele>344.0</ele><time>2026-04-11T07:34:18.932Z</time></trkpt><trkpt lat="44.5258383" lon="7.9476337"><ele>344.0</ele><time>2026-04-11T07:34:19.928Z</time></trkpt><trkpt lat="44.5259168" lon="7.9476959"><ele>344.0</ele><time>2026-04-11T07:34:20.933Z</time></trkpt><trkpt lat="44.5259847" lon="7.9477373"><ele>344.0</ele><time>2026-04-11T07:34:21.924Z</time></trkpt><trkpt lat="44.5260463" lon="7.9477754"><ele>344.0</ele><time>2026-04-11T07:34:22.936Z</time></trkpt><trkpt lat="44.5261661" lon="7.947813"><ele>344.0</ele><time>2026-04-11T07:34:24.942Z</time></trkpt><trkpt lat="44.5262778" lon="7.9478502"><ele>344.0</ele><time>2026-04-11T07:34:26.846Z</time></trkpt><trkpt lat="44.5263415" lon="7.9478687"><ele>344.0</ele><time>2026-04-11T07:34:27.855Z</time></trkpt><trkpt lat="44.5264773" lon="7.9479141"><ele>343.0</ele><time>2026-04-11T07:34:29.837Z</time></trkpt><trkpt lat="44.526609" lon="7.9479672"><ele>342.0</ele><time>2026-04-11T07:34:31.91Z</time></trkpt><trkpt lat="44.5266733" lon="7.9479888"><ele>341.0</ele><time>2026-04-11T07:34:32.886Z</time></trkpt><trkpt lat="44.5268654" lon="7.9480906"><ele>340.0</ele><time>2026-04-11T07:34:35.964Z</time></trkpt><trkpt lat="44.5269301" lon="7.948143"><ele>340.0</ele><time>2026-04-11T07:34:36.887Z</time></trkpt><trkpt lat="44.5269957" lon="7.9482"><ele>340.0</ele><time>2026-04-11T07:34:37.871Z</time></trkpt><trkpt lat="44.5270511" lon="7.9482488"><ele>340.0</ele><time>2026-04-11T07:34:38.906Z</time></trkpt><trkpt lat="44.5271255" lon="7.9483166"><ele>340.0</ele><time>2026-04-11T07:34:40.866Z</time></trkpt><trkpt lat="44.5271973" lon="7.9483654"><ele>340.0</ele><time>2026-04-11T07:34:42.845Z</time></trkpt><trkpt lat="44.5272664" lon="7.9484155"><ele>340.0</ele><time>2026-04-11T07:34:44.85Z</time></trkpt><trkpt lat="44.5273323" lon="7.9483941"><ele>339.14285714285717</ele><time>2026-04-11T07:34:46.854Z</time></trkpt><trkpt lat="44.5273936" lon="7.9483273"><ele>338.2857142857143</ele><time>2026-04-11T07:34:48.837Z</time></trkpt><trkpt lat="44.5274387" lon="7.9482427"><ele>337.42857142857144</ele><time>2026-04-11T07:34:50.844Z</time></trkpt><trkpt lat="44.5274552" lon="7.9481457"><ele>336.57142857142856</ele><time>2026-04-11T07:34:54.852Z</time></trkpt><trkpt lat="44.5274986" lon="7.9480741"><ele>335.7142857142857</ele><time>2026-04-11T07:35:04.843Z</time></trkpt><trkpt lat="44.5275376" lon="7.9480004"><ele>334.85714285714283</ele><time>2026-04-11T07:35:08.859Z</time></trkpt><trkpt lat="44.5275939" lon="7.9479434"><ele>334.0</ele><time>2026-04-11T07:35:11.852Z</time></trkpt><trkpt lat="44.5276633" lon="7.9478892"><ele>334.0</ele><time>2026-04-11T07:35:14.853Z</time></trkpt><trkpt lat="44.527719" lon="7.9478441"><ele>334.0</ele><time>2026-04-11T07:35:16.853Z</time></trkpt><trkpt lat="44.5277957" lon="7.9477909"><ele>334.0</ele><time>2026-04-11T07:35:19.847Z</time></trkpt><trkpt lat="44.527879" lon="7.9477397"><ele>334.0</ele><time>2026-04-11T07:35:22.869Z</time></trkpt><trkpt lat="44.5279518" lon="7.9477073"><ele>334.0</ele><time>2026-04-11T07:35:24.856Z</time></trkpt><trkpt lat="44.528024" lon="7.9476582"><ele>334.0</ele><time>2026-04-11T07:35:26.851Z</time></trkpt><trkpt lat="44.5280888" lon="7.9475866"><ele>332.5</ele><time>2026-04-11T07:35:28.837Z</time></trkpt><trkpt lat="44.5281444" lon="7.9475045"><ele>331.0</ele><time>2026-04-11T07:35:30.848Z</time></trkpt><trkpt lat="44.5282087" lon="7.9474104"><ele>329.5</ele><time>2026-04-11T07:35:32.848Z</time></trkpt><trkpt lat="44.5282639" lon="7.9473093"><ele>328.0</ele><time>2026-04-11T07:35:34.85Z</time></trkpt><trkpt lat="44.528309" lon="7.9472029"><ele>326.5</ele><time>2026-04-11T07:35:36.871Z</time></trkpt><trkpt lat="44.5283521" lon="7.947091"><ele>325.0</ele><time>2026-04-11T07:35:38.845Z</time></trkpt><trkpt lat="44.5284061" lon="7.9469923"><ele>325.0</ele><time>2026-04-11T07:35:40.839Z</time></trkpt><trkpt lat="44.5284704" lon="7.9469006"><ele>325.0</ele><time>2026-04-11T07:35:42.832Z</time></trkpt><trkpt lat="44.5285333" lon="7.9467997"><ele>325.0</ele><time>2026-04-11T07:35:44.838Z</time></trkpt><trkpt lat="44.5286011" lon="7.946705"><ele>325.0</ele><time>2026-04-11T07:35:46.842Z</time></trkpt><trkpt lat="44.5286802" lon="7.9466257"><ele>325.0</ele><time>2026-04-11T07:35:48.831Z</time></trkpt><trkpt lat="44.528764" lon="7.946546"><ele>321.4</ele><time>2026-04-11T07:35:50.855Z</time></trkpt><trkpt lat="44.5288593" lon="7.9464736"><ele>317.8</ele><time>2026-04-11T07:35:52.845Z</time></trkpt><trkpt lat="44.5289487" lon="7.9463952"><ele>314.2</ele><time>2026-04-11T07:35:54.833Z</time></trkpt><trkpt lat="44.5290383" lon="7.9463262"><ele>310.6</ele><time>2026-04-11T07:35:56.873Z</time></trkpt><trkpt lat="44.5291114" lon="7.946261"><ele>307.0</ele><time>2026-04-11T07:35:58.862Z</time></trkpt><trkpt lat="44.5291846" lon="7.946204"><ele>307.0</ele><time>2026-04-11T07:36:00.85Z</time></trkpt><trkpt lat="44.5292503" lon="7.9461493"><ele>307.0</ele><time>2026-04-11T07:36:02.85Z</time></trkpt><trkpt lat="44.5293218" lon="7.9461101"><ele>307.0</ele><time>2026-04-11T07:36:04.842Z</time></trkpt><trkpt lat="44.5293779" lon="7.9460693"><ele>307.0</ele><time>2026-04-11T07:36:06.836Z</time></trkpt><trkpt lat="44.5294467" lon="7.9460163"><ele>307.0</ele><time>2026-04-11T07:36:08.829Z</time></trkpt><trkpt lat="44.5295402" lon="7.9459541"><ele>307.0</ele><time>2026-04-11T07:36:10.832Z</time></trkpt><trkpt lat="44.529616" lon="7.9458923"><ele>304.66666666666663</ele><time>2026-04-11T07:36:12.843Z</time></trkpt><trkpt lat="44.5296964" lon="7.9458261"><ele>302.3333333333333</ele><time>2026-04-11T07:36:14.844Z</time></trkpt><trkpt lat="44.5297724" lon="7.9457659"><ele>300.0</ele><time>2026-04-11T07:36:16.831Z</time></trkpt><trkpt lat="44.5298355" lon="7.9457215"><ele>297.6666666666667</ele><time>2026-04-11T07:36:18.834Z</time></trkpt><trkpt lat="44.5299022" lon="7.9456913"><ele>295.33333333333337</ele><time>2026-04-11T07:36:20.835Z</time></trkpt><trkpt lat="44.5299633" lon="7.9456679"><ele>293.0</ele><time>2026-04-11T07:36:22.838Z</time></trkpt><trkpt lat="44.5300559" lon="7.945641"><ele>292.99999999999994</ele><time>2026-04-11T07:36:25.843Z</time></trkpt><trkpt lat="44.5301352" lon="7.9456342"><ele>293.0</ele><time>2026-04-11T07:36:27.835Z</time></trkpt><trkpt lat="44.5302119" lon="7.9456152"><ele>293.0</ele><time>2026-04-11T07:36:29.842Z</time></trkpt><trkpt lat="44.5302859" lon="7.9455966"><ele>293.0</ele><time>2026-04-11T07:36:31.843Z</time></trkpt><trkpt lat="44.530348" lon="7.9455783"><ele>293.0</ele><time>2026-04-11T07:36:33.836Z</time></trkpt><trkpt lat="44.5304146" lon="7.9455532"><ele>292.99999999999994</ele><time>2026-04-11T07:36:38.841Z</time></trkpt><trkpt lat="44.5304812" lon="7.9455497"><ele>293.0</ele><time>2026-04-11T07:36:46.842Z</time></trkpt><trkpt lat="44.5305446" lon="7.9454877"><ele>291.99999999999994</ele><time>2026-04-11T07:36:50.853Z</time></trkpt><trkpt lat="44.5306204" lon="7.9454788"><ele>291.0</ele><time>2026-04-11T07:36:53.837Z</time></trkpt><trkpt lat="44.5306886" lon="7.9454966"><ele>290.0</ele><time>2026-04-11T07:36:56.852Z</time></trkpt><trkpt lat="44.5307516" lon="7.9455058"><ele>289.0</ele><time>2026-04-11T07:36:59.848Z</time></trkpt><trkpt lat="44.53083" lon="7.9454945"><ele>288.0</ele><time>2026-04-11T07:37:03.838Z</time></trkpt><trkpt lat="44.530893" lon="7.945503"><ele>286.99999999999994</ele><time>2026-04-11T07:37:06.854Z</time></trkpt><trkpt lat="44.5309679" lon="7.9455201"><ele>286.0</ele><time>2026-04-11T07:37:10.839Z</time></trkpt><trkpt lat="44.5310064" lon="7.9455958"><ele>285.99999999999994</ele><time>2026-04-11T07:37:14.85Z</time></trkpt><trkpt lat="44.5310039" lon="7.9456932"><ele>286.0</ele><time>2026-04-11T07:37:18.844Z</time></trkpt><trkpt lat="44.5310654" lon="7.9457533"><ele>286.0</ele><time>2026-04-11T07:37:22.83Z</time></trkpt><trkpt lat="44.5311225" lon="7.9456715"><ele>286.0</ele><time>2026-04-11T07:37:26.828Z</time></trkpt><trkpt lat="44.5311365" lon="7.9455821"><ele>286.0</ele><time>2026-04-11T07:37:30.853Z</time></trkpt><trkpt lat="44.5311385" lon="7.9454932"><ele>285.99999999999994</ele><time>2026-04-11T07:37:34.865Z</time></trkpt><trkpt lat="44.5311567" lon="7.9453808"><ele>286.0</ele><time>2026-04-11T07:37:39.848Z</time></trkpt><trkpt lat="44.5311779" lon="7.9452815"><ele>286.0</ele><time>2026-04-11T07:37:45.846Z</time></trkpt><trkpt lat="44.5311199" lon="7.9452452"><ele>286.0</ele><time>2026-04-11T07:38:15.845Z</time></trkpt><trkpt lat="44.5311437" lon="7.9453576"><ele>286.0</ele><time>2026-04-11T07:38:26.839Z</time></trkpt><trkpt lat="44.5312324" lon="7.9454042"><ele>286.0</ele><time>2026-04-11T07:38:29.836Z</time></trkpt><trkpt lat="44.5312981" lon="7.9454237"><ele>286.0</ele><time>2026-04-11T07:38:31.862Z</time></trkpt><trkpt lat="44.5313652" lon="7.9454364"><ele>286.0</ele><time>2026-04-11T07:38:33.84Z</time></trkpt><trkpt lat="44.5314485" lon="7.9454474"><ele>285.71428571428567</ele><time>2026-04-11T07:38:36.844Z</time></trkpt><trkpt lat="44.5315182" lon="7.9454637"><ele>285.42857142857144</ele><time>2026-04-11T07:38:40.833Z</time></trkpt><trkpt lat="44.5315744" lon="7.9454198"><ele>285.1428571428571</ele><time>2026-04-11T07:38:43.891Z</time></trkpt><trkpt lat="44.5316096" lon="7.9453182"><ele>284.85714285714283</ele><time>2026-04-11T07:38:47.923Z</time></trkpt><trkpt lat="44.531626" lon="7.9452157"><ele>284.57142857142856</ele><time>2026-04-11T07:38:50.899Z</time></trkpt><trkpt lat="44.5316314" lon="7.9451194"><ele>284.2857142857143</ele><time>2026-04-11T07:38:53.85Z</time></trkpt><trkpt lat="44.5316377" lon="7.9450282"><ele>284.0</ele><time>2026-04-11T07:38:55.861Z</time></trkpt><trkpt lat="44.5316592" lon="7.9449029"><ele>283.6666666666667</ele><time>2026-04-11T07:38:57.845Z</time></trkpt><trkpt lat="44.5316702" lon="7.944773"><ele>283.33333333333337</ele><time>2026-04-11T07:38:59.858Z</time></trkpt><trkpt lat="44.5316747" lon="7.9446638"><ele>283.0</ele><time>2026-04-11T07:39:01.844Z</time></trkpt><trkpt lat="44.5316781" lon="7.94455"><ele>282.6666666666667</ele><time>2026-04-11T07:39:03.851Z</time></trkpt><trkpt lat="44.531675" lon="7.9444418"><ele>282.3333333333333</ele><time>2026-04-11T07:39:05.866Z</time></trkpt><trkpt lat="44.5316906" lon="7.9443249"><ele>282.0</ele><time>2026-04-11T07:39:07.864Z</time></trkpt><trkpt lat="44.5317033" lon="7.9442102"><ele>282.0</ele><time>2026-04-11T07:39:09.88Z</time></trkpt><trkpt lat="44.5317135" lon="7.9440825"><ele>282.0</ele><time>2026-04-11T07:39:11.865Z</time></trkpt><trkpt lat="44.5317229" lon="7.9439614"><ele>282.0</ele><time>2026-04-11T07:39:13.862Z</time></trkpt><trkpt lat="44.5317296" lon="7.9438415"><ele>282.0</ele><time>2026-04-11T07:39:15.856Z</time></trkpt><trkpt lat="44.5317409" lon="7.9437184"><ele>282.0</ele><time>2026-04-11T07:39:17.854Z</time></trkpt><trkpt lat="44.531749" lon="7.9435806"><ele>282.0</ele><time>2026-04-11T07:39:19.847Z</time></trkpt><trkpt lat="44.5317505" lon="7.943463"><ele>282.0</ele><time>2026-04-11T07:39:21.845Z</time></trkpt><trkpt lat="44.5317599" lon="7.9433351"><ele>282.0</ele><time>2026-04-11T07:39:23.853Z</time></trkpt><trkpt lat="44.5317692" lon="7.9432133"><ele>282.0</ele><time>2026-04-11T07:39:25.851Z</time></trkpt><trkpt lat="44.5317788" lon="7.94308"><ele>282.0</ele><time>2026-04-11T07:39:27.867Z</time></trkpt><trkpt lat="44.5317895" lon="7.9429546"><ele>282.0</ele><time>2026-04-11T07:39:29.862Z</time></trkpt><trkpt lat="44.5317999" lon="7.9428253"><ele>282.0</ele><time>2026-04-11T07:39:31.862Z</time></trkpt><trkpt lat="44.5318122" lon="7.9427003"><ele>282.0</ele><time>2026-04-11T07:39:33.843Z</time></trkpt><trkpt lat="44.5318349" lon="7.9425525"><ele>282.0</ele><time>2026-04-11T07:39:35.842Z</time></trkpt><trkpt lat="44.5318521" lon="7.9424233"><ele>282.0</ele><time>2026-04-11T07:39:37.837Z</time></trkpt><trkpt lat="44.5318547" lon="7.9423033"><ele>282.0</ele><time>2026-04-11T07:39:39.852Z</time></trkpt><trkpt lat="44.5318637" lon="7.9421904"><ele>281.6</ele><time>2026-04-11T07:39:41.843Z</time></trkpt><trkpt lat="44.5318713" lon="7.9420621"><ele>281.2</ele><time>2026-04-11T07:39:43.859Z</time></trkpt><trkpt lat="44.5318864" lon="7.9419353"><ele>280.8</ele><time>2026-04-11T07:39:45.856Z</time></trkpt><trkpt lat="44.531886" lon="7.9418179"><ele>280.4</ele><time>2026-04-11T07:39:47.836Z</time></trkpt><trkpt lat="44.531892" lon="7.9417014"><ele>280.0</ele><time>2026-04-11T07:39:49.864Z</time></trkpt><trkpt lat="44.5319049" lon="7.9415445"><ele>279.8</ele><time>2026-04-11T07:39:51.856Z</time></trkpt><trkpt lat="44.5319172" lon="7.9413791"><ele>279.6</ele><time>2026-04-11T07:39:53.86Z</time></trkpt><trkpt lat="44.5319311" lon="7.9412207"><ele>279.4</ele><time>2026-04-11T07:39:55.88Z</time></trkpt><trkpt lat="44.5319396" lon="7.9410799"><ele>279.2</ele><time>2026-04-11T07:39:57.854Z</time></trkpt><trkpt lat="44.5319495" lon="7.9409457"><ele>279.0</ele><time>2026-04-11T07:39:59.887Z</time></trkpt><trkpt lat="44.5319621" lon="7.940809"><ele>278.5</ele><time>2026-04-11T07:40:01.879Z</time></trkpt><trkpt lat="44.5319746" lon="7.9406792"><ele>278.0</ele><time>2026-04-11T07:40:03.944Z</time></trkpt><trkpt lat="44.5319775" lon="7.940473"><ele>277.5</ele><time>2026-04-11T07:40:06.886Z</time></trkpt><trkpt lat="44.5319941" lon="7.9402615"><ele>277.0</ele><time>2026-04-11T07:40:09.937Z</time></trkpt><trkpt lat="44.5319962" lon="7.9401413"><ele>276.7142857142857</ele><time>2026-04-11T07:40:11.897Z</time></trkpt><trkpt lat="44.531979" lon="7.9400364"><ele>276.4285714285714</ele><time>2026-04-11T07:40:13.954Z</time></trkpt><trkpt lat="44.5319193" lon="7.9399605"><ele>276.1428571428571</ele><time>2026-04-11T07:40:15.924Z</time></trkpt><trkpt lat="44.5318426" lon="7.9399364"><ele>275.85714285714283</ele><time>2026-04-11T07:40:17.929Z</time></trkpt><trkpt lat="44.5317762" lon="7.9399217"><ele>275.57142857142856</ele><time>2026-04-11T07:40:19.94Z</time></trkpt><trkpt lat="44.5317094" lon="7.9399255"><ele>275.2857142857143</ele><time>2026-04-11T07:40:21.849Z</time></trkpt><trkpt lat="44.5316405" lon="7.939918"><ele>275.0</ele><time>2026-04-11T07:40:23.841Z</time></trkpt><trkpt lat="44.5315716" lon="7.939921"><ele>275.0</ele><time>2026-04-11T07:40:25.861Z</time></trkpt><trkpt lat="44.5315167" lon="7.9398426"><ele>275.0</ele><time>2026-04-11T07:40:28.833Z</time></trkpt><trkpt lat="44.5315219" lon="7.9397492"><ele>275.0</ele><time>2026-04-11T07:40:30.852Z</time></trkpt><trkpt lat="44.5315376" lon="7.9396395"><ele>275.0</ele><time>2026-04-11T07:40:32.851Z</time></trkpt><trkpt lat="44.5315624" lon="7.9393916"><ele>275.0</ele><time>2026-04-11T07:40:36.836Z</time></trkpt><trkpt lat="44.5315773" lon="7.9392652"><ele>275.0</ele><time>2026-04-11T07:40:38.872Z</time></trkpt><trkpt lat="44.5315859" lon="7.9390889"><ele>275.0</ele><time>2026-04-11T07:40:41.85Z</time></trkpt><trkpt lat="44.5315957" lon="7.9389776"><ele>275.0</ele><time>2026-04-11T07:40:43.881Z</time></trkpt><trkpt lat="44.5316076" lon="7.9387954"><ele>275.0</ele><time>2026-04-11T07:40:46.869Z</time></trkpt><trkpt lat="44.531619" lon="7.9386784"><ele>275.0</ele><time>2026-04-11T07:40:48.866Z</time></trkpt><trkpt lat="44.5316317" lon="7.9385801"><ele>275.0</ele><time>2026-04-11T07:40:50.848Z</time></trkpt><trkpt lat="44.5316421" lon="7.9384829"><ele>275.0</ele><time>2026-04-11T07:40:52.839Z</time></trkpt><trkpt lat="44.53165" lon="7.9383858"><ele>275.0</ele><time>2026-04-11T07:40:54.847Z</time></trkpt><trkpt lat="44.5316616" lon="7.9382886"><ele>275.0</ele><time>2026-04-11T07:40:56.839Z</time></trkpt><trkpt lat="44.5316737" lon="7.9381656"><ele>275.0</ele><time>2026-04-11T07:40:58.861Z</time></trkpt><trkpt lat="44.5316832" lon="7.9380558"><ele>275.0</ele><time>2026-04-11T07:41:00.85Z</time></trkpt><trkpt lat="44.5316972" lon="7.9379402"><ele>274.83333333333337</ele><time>2026-04-11T07:41:02.852Z</time></trkpt><trkpt lat="44.531703" lon="7.9378188"><ele>274.6666666666667</ele><time>2026-04-11T07:41:04.853Z</time></trkpt><trkpt lat="44.5317185" lon="7.9376931"><ele>274.5</ele><time>2026-04-11T07:41:06.834Z</time></trkpt><trkpt lat="44.531724" lon="7.9375821"><ele>274.3333333333333</ele><time>2026-04-11T07:41:08.837Z</time></trkpt><trkpt lat="44.5317375" lon="7.9374753"><ele>274.16666666666663</ele><time>2026-04-11T07:41:10.866Z</time></trkpt><trkpt lat="44.5317453" lon="7.9373701"><ele>274.0</ele><time>2026-04-11T07:41:12.847Z</time></trkpt><trkpt lat="44.531753" lon="7.9372778"><ele>274.00000000000006</ele><time>2026-04-11T07:41:14.853Z</time></trkpt><trkpt lat="44.5317585" lon="7.9371843"><ele>274.0</ele><time>2026-04-11T07:41:16.871Z</time></trkpt><trkpt lat="44.5317716" lon="7.9370958"><ele>274.0</ele><time>2026-04-11T07:41:18.855Z</time></trkpt><trkpt lat="44.5317802" lon="7.937006"><ele>274.0</ele><time>2026-04-11T07:41:20.852Z</time></trkpt><trkpt lat="44.5317786" lon="7.9369009"><ele>274.0</ele><time>2026-04-11T07:41:22.858Z</time></trkpt><trkpt lat="44.5317885" lon="7.9367916"><ele>274.00000000000006</ele><time>2026-04-11T07:41:24.854Z</time></trkpt><trkpt lat="44.5317978" lon="7.9366731"><ele>274.0</ele><time>2026-04-11T07:41:26.852Z</time></trkpt><trkpt lat="44.531812" lon="7.9365541"><ele>273.66666666666663</ele><time>2026-04-11T07:41:28.842Z</time></trkpt><trkpt lat="44.5318305" lon="7.9364296"><ele>273.3333333333333</ele><time>2026-04-11T07:41:30.847Z</time></trkpt><trkpt lat="44.5318425" lon="7.9363041"><ele>273.0</ele><time>2026-04-11T07:41:32.863Z</time></trkpt><trkpt lat="44.5318656" lon="7.936178"><ele>272.6666666666667</ele><time>2026-04-11T07:41:34.85Z</time></trkpt><trkpt lat="44.5318854" lon="7.9360607"><ele>272.33333333333337</ele><time>2026-04-11T07:41:36.851Z</time></trkpt><trkpt lat="44.5319294" lon="7.9359526"><ele>272.0</ele><time>2026-04-11T07:41:38.874Z</time></trkpt><trkpt lat="44.5319835" lon="7.9358796"><ele>272.0</ele><time>2026-04-11T07:41:40.852Z</time></trkpt><trkpt lat="44.5320531" lon="7.9358439"><ele>272.0</ele><time>2026-04-11T07:41:42.839Z</time></trkpt><trkpt lat="44.5321311" lon="7.9357944"><ele>272.0</ele><time>2026-04-11T07:41:44.849Z</time></trkpt><trkpt lat="44.5322004" lon="7.9357491"><ele>272.0</ele><time>2026-04-11T07:41:46.888Z</time></trkpt><trkpt lat="44.5322723" lon="7.9357163"><ele>272.0</ele><time>2026-04-11T07:41:48.849Z</time></trkpt><trkpt lat="44.5323398" lon="7.9356776"><ele>272.0</ele><time>2026-04-11T07:41:50.842Z</time></trkpt><trkpt lat="44.5324116" lon="7.9356363"><ele>272.0</ele><time>2026-04-11T07:41:52.848Z</time></trkpt><trkpt lat="44.5324818" lon="7.9355971"><ele>272.0</ele><time>2026-04-11T07:41:54.853Z</time></trkpt><trkpt lat="44.5325551" lon="7.93556"><ele>272.0</ele><time>2026-04-11T07:41:56.851Z</time></trkpt><trkpt lat="44.5326277" lon="7.9355143"><ele>272.0</ele><time>2026-04-11T07:41:58.873Z</time></trkpt><trkpt lat="44.5327019" lon="7.9354823"><ele>272.0</ele><time>2026-04-11T07:42:00.842Z</time></trkpt><trkpt lat="44.5327788" lon="7.9354491"><ele>272.0</ele><time>2026-04-11T07:42:02.844Z</time></trkpt><trkpt lat="44.5328552" lon="7.9354073"><ele>272.1666666666667</ele><time>2026-04-11T07:42:04.853Z</time></trkpt><trkpt lat="44.5329302" lon="7.9353661"><ele>272.33333333333337</ele><time>2026-04-11T07:42:06.859Z</time></trkpt><trkpt lat="44.5329954" lon="7.9353266"><ele>272.5</ele><time>2026-04-11T07:42:08.853Z</time></trkpt><trkpt lat="44.533066" lon="7.9352885"><ele>272.6666666666667</ele><time>2026-04-11T07:42:10.862Z</time></trkpt><trkpt lat="44.5331432" lon="7.9352429"><ele>272.8333333333333</ele><time>2026-04-11T07:42:12.834Z</time></trkpt><trkpt lat="44.5332186" lon="7.935205"><ele>273.0</ele><time>2026-04-11T07:42:14.842Z</time></trkpt><trkpt lat="44.5332904" lon="7.935162"><ele>273.0</ele><time>2026-04-11T07:42:16.836Z</time></trkpt><trkpt lat="44.5333595" lon="7.935123"><ele>273.0</ele><time>2026-04-11T07:42:18.854Z</time></trkpt><trkpt lat="44.533437" lon="7.9350903"><ele>273.0</ele><time>2026-04-11T07:42:20.828Z</time></trkpt><trkpt lat="44.5335108" lon="7.9350572"><ele>273.0</ele><time>2026-04-11T07:42:22.847Z</time></trkpt><trkpt lat="44.5335924" lon="7.9350171"><ele>273.0</ele><time>2026-04-11T07:42:24.846Z</time></trkpt><trkpt lat="44.5336666" lon="7.9349847"><ele>273.0</ele><time>2026-04-11T07:42:26.852Z</time></trkpt><trkpt lat="44.5337348" lon="7.9349381"><ele>272.3333333333333</ele><time>2026-04-11T07:42:28.838Z</time></trkpt><trkpt lat="44.5338117" lon="7.9348933"><ele>271.6666666666667</ele><time>2026-04-11T07:42:30.849Z</time></trkpt><trkpt lat="44.5338949" lon="7.9348541"><ele>271.0</ele><time>2026-04-11T07:42:32.862Z</time></trkpt><trkpt lat="44.5339757" lon="7.934814"><ele>270.33333333333337</ele><time>2026-04-11T07:42:34.873Z</time></trkpt><trkpt lat="44.5340577" lon="7.9347762"><ele>269.6666666666667</ele><time>2026-04-11T07:42:36.852Z</time></trkpt><trkpt lat="44.5341402" lon="7.9347383"><ele>269.0</ele><time>2026-04-11T07:42:38.854Z</time></trkpt><trkpt lat="44.5342106" lon="7.9347124"><ele>269.0</ele><time>2026-04-11T07:42:40.847Z</time></trkpt><trkpt lat="44.534296" lon="7.934654"><ele>269.0</ele><time>2026-04-11T07:42:43.854Z</time></trkpt><trkpt lat="44.5343579" lon="7.9345988"><ele>269.0</ele><time>2026-04-11T07:42:45.878Z</time></trkpt><trkpt lat="44.5344172" lon="7.9345461"><ele>269.0</ele><time>2026-04-11T07:42:47.848Z</time></trkpt><trkpt lat="44.5344731" lon="7.934485"><ele>269.0</ele><time>2026-04-11T07:42:49.859Z</time></trkpt><trkpt lat="44.5345231" lon="7.9344281"><ele>269.0</ele><time>2026-04-11T07:42:51.872Z</time></trkpt><trkpt lat="44.5345963" lon="7.9343541"><ele>269.0</ele><time>2026-04-11T07:42:54.846Z</time></trkpt><trkpt lat="44.5346724" lon="7.9342914"><ele>269.0</ele><time>2026-04-11T07:42:57.877Z</time></trkpt><trkpt lat="44.5347331" lon="7.9342556"><ele>269.0</ele><time>2026-04-11T07:43:01.868Z</time></trkpt><trkpt lat="44.534787" lon="7.9341948"><ele>269.0</ele><time>2026-04-11T07:43:35.877Z</time></trkpt><trkpt lat="44.5348409" lon="7.9341217"><ele>269.0</ele><time>2026-04-11T07:43:38.87Z</time></trkpt><trkpt lat="44.5348939" lon="7.9340629"><ele>269.0</ele><time>2026-04-11T07:43:40.866Z</time></trkpt><trkpt lat="44.5349722" lon="7.9339852"><ele>269.0</ele><time>2026-04-11T07:43:43.879Z</time></trkpt><trkpt lat="44.5350314" lon="7.9339214"><ele>269.0</ele><time>2026-04-11T07:43:45.875Z</time></trkpt><trkpt lat="44.5350832" lon="7.9338539"><ele>269.0</ele><time>2026-04-11T07:43:47.848Z</time></trkpt><trkpt lat="44.5351492" lon="7.9337855"><ele>269.0</ele><time>2026-04-11T07:43:49.87Z</time></trkpt><trkpt lat="44.5352231" lon="7.9337016"><ele>269.0</ele><time>2026-04-11T07:43:51.861Z</time></trkpt><trkpt lat="44.535294" lon="7.9336324"><ele>269.0</ele><time>2026-04-11T07:43:53.84Z</time></trkpt><trkpt lat="44.5353484" lon="7.9335674"><ele>268.6666666666667</ele><time>2026-04-11T07:43:55.894Z</time></trkpt><trkpt lat="44.5354136" lon="7.9334784"><ele>268.33333333333337</ele><time>2026-04-11T07:43:58.876Z</time></trkpt><trkpt lat="44.5354656" lon="7.9334011"><ele>268.0</ele><time>2026-04-11T07:44:00.863Z</time></trkpt><trkpt lat="44.5355068" lon="7.9333178"><ele>267.6666666666667</ele><time>2026-04-11T07:44:02.856Z</time></trkpt><trkpt lat="44.5355605" lon="7.9332361"><ele>267.3333333333333</ele><time>2026-04-11T07:44:04.865Z</time></trkpt><trkpt lat="44.5356175" lon="7.9331561"><ele>267.0</ele><time>2026-04-11T07:44:06.858Z</time></trkpt><trkpt lat="44.53568" lon="7.933068"><ele>267.00000000000006</ele><time>2026-04-11T07:44:09.854Z</time></trkpt><trkpt lat="44.5357385" lon="7.9330067"><ele>267.0</ele><time>2026-04-11T07:44:11.895Z</time></trkpt><trkpt lat="44.535796" lon="7.9329583"><ele>267.0</ele><time>2026-04-11T07:44:13.873Z</time></trkpt><trkpt lat="44.5358658" lon="7.9329072"><ele>267.0</ele><time>2026-04-11T07:44:15.887Z</time></trkpt><trkpt lat="44.5359316" lon="7.9328548"><ele>267.0</ele><time>2026-04-11T07:44:17.895Z</time></trkpt><trkpt lat="44.5360014" lon="7.9328126"><ele>267.00000000000006</ele><time>2026-04-11T07:44:20.855Z</time></trkpt><trkpt lat="44.5360674" lon="7.9327757"><ele>267.0</ele><time>2026-04-11T07:44:23.846Z</time></trkpt><trkpt lat="44.5361468" lon="7.932718"><ele>267.0</ele><time>2026-04-11T07:44:26.856Z</time></trkpt><trkpt lat="44.5362142" lon="7.9326954"><ele>267.0</ele><time>2026-04-11T07:44:28.872Z</time></trkpt><trkpt lat="44.5362785" lon="7.9326455"><ele>267.0</ele><time>2026-04-11T07:44:30.856Z</time></trkpt><trkpt lat="44.5363546" lon="7.932599"><ele>267.0</ele><time>2026-04-11T07:44:32.857Z</time></trkpt><trkpt lat="44.536434" lon="7.9325521"><ele>267.0</ele><time>2026-04-11T07:44:34.851Z</time></trkpt><trkpt lat="44.5365035" lon="7.9325099"><ele>267.0</ele><time>2026-04-11T07:44:36.862Z</time></trkpt><trkpt lat="44.5365688" lon="7.9324595"><ele>267.0</ele><time>2026-04-11T07:44:38.86Z</time></trkpt><trkpt lat="44.5366275" lon="7.9324118"><ele>267.0</ele><time>2026-04-11T07:44:40.872Z</time></trkpt><trkpt lat="44.5367077" lon="7.9323496"><ele>267.0</ele><time>2026-04-11T07:44:42.883Z</time></trkpt><trkpt lat="44.5367816" lon="7.9322827"><ele>267.0</ele><time>2026-04-11T07:44:44.874Z</time></trkpt><trkpt lat="44.5368508" lon="7.9322237"><ele>267.0</ele><time>2026-04-11T07:44:46.857Z</time></trkpt><trkpt lat="44.5369219" lon="7.9321605"><ele>267.0</ele><time>2026-04-11T07:44:48.883Z</time></trkpt><trkpt lat="44.5370032" lon="7.9320902"><ele>266.6</ele><time>2026-04-11T07:44:50.87Z</time></trkpt><trkpt lat="44.537077" lon="7.9320079"><ele>266.2</ele><time>2026-04-11T07:44:52.853Z</time></trkpt><trkpt lat="44.5371617" lon="7.9319225"><ele>265.8</ele><time>2026-04-11T07:44:54.867Z</time></trkpt><trkpt lat="44.53723" lon="7.9318323"><ele>265.4</ele><time>2026-04-11T07:44:56.856Z</time></trkpt><trkpt lat="44.5373183" lon="7.9317541"><ele>265.0</ele><time>2026-04-11T07:44:58.858Z</time></trkpt><trkpt lat="44.5374" lon="7.9316796"><ele>264.4</ele><time>2026-04-11T07:45:00.874Z</time></trkpt><trkpt lat="44.5374774" lon="7.9315984"><ele>263.8</ele><time>2026-04-11T07:45:02.859Z</time></trkpt><trkpt lat="44.5375612" lon="7.9315182"><ele>263.2</ele><time>2026-04-11T07:45:04.901Z</time></trkpt><trkpt lat="44.5376342" lon="7.9314323"><ele>262.6</ele><time>2026-04-11T07:45:06.86Z</time></trkpt><trkpt lat="44.5377149" lon="7.9313454"><ele>262.0</ele><time>2026-04-11T07:45:08.856Z</time></trkpt><trkpt lat="44.5377788" lon="7.9312613"><ele>262.0</ele><time>2026-04-11T07:45:10.864Z</time></trkpt><trkpt lat="44.5378347" lon="7.9311783"><ele>262.0</ele><time>2026-04-11T07:45:12.888Z</time></trkpt><trkpt lat="44.5378973" lon="7.9310956"><ele>262.0</ele><time>2026-04-11T07:45:14.843Z</time></trkpt><trkpt lat="44.5379544" lon="7.9310173"><ele>262.0</ele><time>2026-04-11T07:45:16.87Z</time></trkpt><trkpt lat="44.5380051" lon="7.930941"><ele>262.0</ele><time>2026-04-11T07:45:18.875Z</time></trkpt><trkpt lat="44.5380495" lon="7.9308679"><ele>262.0</ele><time>2026-04-11T07:45:20.855Z</time></trkpt><trkpt lat="44.5380986" lon="7.9307497"><ele>262.3333333333333</ele><time>2026-04-11T07:45:23.869Z</time></trkpt><trkpt lat="44.5381336" lon="7.9306537"><ele>262.66666666666663</ele><time>2026-04-11T07:45:25.884Z</time></trkpt><trkpt lat="44.5381836" lon="7.9305674"><ele>263.0</ele><time>2026-04-11T07:45:27.869Z</time></trkpt><trkpt lat="44.5382399" lon="7.9304698"><ele>263.3333333333333</ele><time>2026-04-11T07:45:29.862Z</time></trkpt><trkpt lat="44.5382988" lon="7.9303768"><ele>263.6666666666667</ele><time>2026-04-11T07:45:31.87Z</time></trkpt><trkpt lat="44.538358" lon="7.9302795"><ele>264.0</ele><time>2026-04-11T07:45:33.842Z</time></trkpt><trkpt lat="44.5384266" lon="7.9301801"><ele>264.0</ele><time>2026-04-11T07:45:35.88Z</time></trkpt><trkpt lat="44.5384815" lon="7.9301062"><ele>264.0</ele><time>2026-04-11T07:45:37.864Z</time></trkpt><trkpt lat="44.5385496" lon="7.9300698"><ele>264.0</ele><time>2026-04-11T07:45:39.85Z</time></trkpt><trkpt lat="44.5386176" lon="7.9301007"><ele>264.0</ele><time>2026-04-11T07:45:41.837Z</time></trkpt><trkpt lat="44.5386887" lon="7.9301662"><ele>264.0</ele><time>2026-04-11T07:45:43.841Z</time></trkpt><trkpt lat="44.5387279" lon="7.9302524"><ele>264.0</ele><time>2026-04-11T07:45:45.835Z</time></trkpt><trkpt lat="44.5387609" lon="7.9303447"><ele>264.0</ele><time>2026-04-11T07:45:47.862Z</time></trkpt><trkpt lat="44.5387934" lon="7.930429"><ele>264.0</ele><time>2026-04-11T07:45:49.856Z</time></trkpt><trkpt lat="44.5388396" lon="7.9305051"><ele>264.0</ele><time>2026-04-11T07:45:51.842Z</time></trkpt><trkpt lat="44.5388975" lon="7.930584"><ele>264.0</ele><time>2026-04-11T07:45:53.838Z</time></trkpt><trkpt lat="44.5389461" lon="7.9306769"><ele>264.0</ele><time>2026-04-11T07:45:55.87Z</time></trkpt><trkpt lat="44.5389797" lon="7.9307659"><ele>264.0</ele><time>2026-04-11T07:45:57.861Z</time></trkpt><trkpt lat="44.5390254" lon="7.9308428"><ele>264.0</ele><time>2026-04-11T07:45:59.863Z</time></trkpt><trkpt lat="44.5390708" lon="7.9309489"><ele>264.42857142857144</ele><time>2026-04-11T07:46:02.874Z</time></trkpt><trkpt lat="44.5391113" lon="7.9310182"><ele>264.8571428571429</ele><time>2026-04-11T07:46:04.854Z</time></trkpt><trkpt lat="44.539153" lon="7.9310906"><ele>265.28571428571433</ele><time>2026-04-11T07:46:06.872Z</time></trkpt><trkpt lat="44.5391957" lon="7.9311736"><ele>265.7142857142857</ele><time>2026-04-11T07:46:08.867Z</time></trkpt><trkpt lat="44.5392664" lon="7.9312329"><ele>266.14285714285717</ele><time>2026-04-11T07:46:10.857Z</time></trkpt><trkpt lat="44.5393328" lon="7.9312477"><ele>266.5714285714286</ele><time>2026-04-11T07:46:12.862Z</time></trkpt><trkpt lat="44.539415" lon="7.9312314"><ele>267.0</ele><time>2026-04-11T07:46:15.861Z</time></trkpt><trkpt lat="44.5394793" lon="7.9311708"><ele>267.0</ele><time>2026-04-11T07:46:19.861Z</time></trkpt><trkpt lat="44.5395479" lon="7.9310989"><ele>267.0</ele><time>2026-04-11T07:46:22.841Z</time></trkpt><trkpt lat="44.5396017" lon="7.9309991"><ele>267.0</ele><time>2026-04-11T07:46:25.85Z</time></trkpt><trkpt lat="44.5396695" lon="7.9309082"><ele>267.0</ele><time>2026-04-11T07:46:28.855Z</time></trkpt><trkpt lat="44.5397284" lon="7.9308406"><ele>267.0</ele><time>2026-04-11T07:46:30.868Z</time></trkpt><trkpt lat="44.5397903" lon="7.9307748"><ele>267.0</ele><time>2026-04-11T07:46:32.867Z</time></trkpt><trkpt lat="44.5398435" lon="7.9307052"><ele>266.7142857142857</ele><time>2026-04-11T07:46:34.864Z</time></trkpt><trkpt lat="44.5399025" lon="7.9306267"><ele>266.42857142857144</ele><time>2026-04-11T07:46:36.885Z</time></trkpt><trkpt lat="44.5399597" lon="7.9305633"><ele>266.1428571428571</ele><time>2026-04-11T07:46:38.843Z</time></trkpt><trkpt lat="44.5400092" lon="7.9305026"><ele>265.8571428571429</ele><time>2026-04-11T07:46:40.86Z</time></trkpt><trkpt lat="44.540061" lon="7.9304429"><ele>265.57142857142856</ele><time>2026-04-11T07:46:42.882Z</time></trkpt><trkpt lat="44.5401246" lon="7.9303586"><ele>265.2857142857143</ele><time>2026-04-11T07:46:45.85Z</time></trkpt><trkpt lat="44.5401816" lon="7.9303074"><ele>265.0</ele><time>2026-04-11T07:46:56.85Z</time></trkpt><trkpt lat="44.5402537" lon="7.9302948"><ele>265.0</ele><time>2026-04-11T07:47:00.858Z</time></trkpt><trkpt lat="44.5403296" lon="7.9302223"><ele>265.0</ele><time>2026-04-11T07:47:03.849Z</time></trkpt><trkpt lat="44.5403959" lon="7.9301381"><ele>265.0</ele><time>2026-04-11T07:47:06.85Z</time></trkpt><trkpt lat="44.5404724" lon="7.93006"><ele>265.0</ele><time>2026-04-11T07:47:09.849Z</time></trkpt><trkpt lat="44.5405434" lon="7.9299893"><ele>265.0</ele><time>2026-04-11T07:47:12.852Z</time></trkpt><trkpt lat="44.5405929" lon="7.9299286"><ele>265.0</ele><time>2026-04-11T07:47:14.866Z</time></trkpt><trkpt lat="44.5406479" lon="7.9298727"><ele>264.71428571428567</ele><time>2026-04-11T07:47:16.868Z</time></trkpt><trkpt lat="44.540703" lon="7.9298204"><ele>264.42857142857144</ele><time>2026-04-11T07:47:18.854Z</time></trkpt><trkpt lat="44.5407561" lon="7.9297676"><ele>264.1428571428571</ele><time>2026-04-11T07:47:20.855Z</time></trkpt><trkpt lat="44.5408077" lon="7.929715"><ele>263.85714285714283</ele><time>2026-04-11T07:47:22.856Z</time></trkpt><trkpt lat="44.540859" lon="7.9296469"><ele>263.57142857142856</ele><time>2026-04-11T07:47:24.863Z</time></trkpt><trkpt lat="44.5409048" lon="7.9295754"><ele>263.2857142857143</ele><time>2026-04-11T07:47:26.864Z</time></trkpt><trkpt lat="44.5409566" lon="7.9295172"><ele>263.0</ele><time>2026-04-11T07:47:28.854Z</time></trkpt><trkpt lat="44.5410147" lon="7.9294654"><ele>263.0</ele><time>2026-04-11T07:47:30.852Z</time></trkpt><trkpt lat="44.5410837" lon="7.9293907"><ele>263.0</ele><time>2026-04-11T07:47:33.859Z</time></trkpt><trkpt lat="44.5411413" lon="7.9293221"><ele>263.0</ele><time>2026-04-11T07:47:36.855Z</time></trkpt><trkpt lat="44.5412016" lon="7.9292672"><ele>263.0</ele><time>2026-04-11T07:47:38.846Z</time></trkpt><trkpt lat="44.5412655" lon="7.929218"><ele>263.0</ele><time>2026-04-11T07:47:40.862Z</time></trkpt><trkpt lat="44.5413293" lon="7.9291582"><ele>263.0</ele><time>2026-04-11T07:47:42.866Z</time></trkpt><trkpt lat="44.5413933" lon="7.9291004"><ele>263.1666666666667</ele><time>2026-04-11T07:47:44.848Z</time></trkpt><trkpt lat="44.5414436" lon="7.9290389"><ele>263.33333333333337</ele><time>2026-04-11T07:47:46.851Z</time></trkpt><trkpt lat="44.541501" lon="7.9289685"><ele>263.5</ele><time>2026-04-11T07:47:48.85Z</time></trkpt><trkpt lat="44.5415523" lon="7.9289026"><ele>263.6666666666667</ele><time>2026-04-11T07:47:50.849Z</time></trkpt><trkpt lat="44.5416251" lon="7.9288129"><ele>263.8333333333333</ele><time>2026-04-11T07:47:53.849Z</time></trkpt><trkpt lat="44.5416803" lon="7.9287458"><ele>264.0</ele><time>2026-04-11T07:47:55.881Z</time></trkpt><trkpt lat="44.5417385" lon="7.9286903"><ele>264.0</ele><time>2026-04-11T07:47:57.862Z</time></trkpt><trkpt lat="44.5417975" lon="7.9286306"><ele>264.0</ele><time>2026-04-11T07:47:59.851Z</time></trkpt><trkpt lat="44.5418538" lon="7.9285704"><ele>264.0</ele><time>2026-04-11T07:48:01.849Z</time></trkpt><trkpt lat="44.541906" lon="7.9285189"><ele>264.0</ele><time>2026-04-11T07:48:03.869Z</time></trkpt><trkpt lat="44.5419647" lon="7.9284758"><ele>264.0</ele><time>2026-04-11T07:48:05.847Z</time></trkpt><trkpt lat="44.5420331" lon="7.9284352"><ele>264.0</ele><time>2026-04-11T07:48:08.85Z</time></trkpt><trkpt lat="44.5420957" lon="7.9284121"><ele>264.0</ele><time>2026-04-11T07:48:11.848Z</time></trkpt><trkpt lat="44.5421721" lon="7.928382"><ele>263.5</ele><time>2026-04-11T07:48:14.867Z</time></trkpt><trkpt lat="44.542264" lon="7.9283363"><ele>263.0</ele><time>2026-04-11T07:48:17.853Z</time></trkpt><trkpt lat="44.5423266" lon="7.9282866"><ele>262.5</ele><time>2026-04-11T07:48:19.879Z</time></trkpt><trkpt lat="44.542402" lon="7.9282193"><ele>262.0</ele><time>2026-04-11T07:48:22.849Z</time></trkpt><trkpt lat="44.5424622" lon="7.9281631"><ele>261.5</ele><time>2026-04-11T07:48:24.851Z</time></trkpt><trkpt lat="44.5425138" lon="7.9281086"><ele>261.0</ele><time>2026-04-11T07:48:26.876Z</time></trkpt><trkpt lat="44.5425672" lon="7.9280603"><ele>261.0</ele><time>2026-04-11T07:48:28.862Z</time></trkpt><trkpt lat="44.5426304" lon="7.9280198"><ele>261.0</ele><time>2026-04-11T07:48:30.866Z</time></trkpt><trkpt lat="44.542717" lon="7.9279531"><ele>261.0</ele><time>2026-04-11T07:48:33.84Z</time></trkpt><trkpt lat="44.5427736" lon="7.9279079"><ele>261.0</ele><time>2026-04-11T07:48:35.864Z</time></trkpt><trkpt lat="44.542847" lon="7.927837"><ele>261.0</ele><time>2026-04-11T07:48:38.84Z</time></trkpt><trkpt lat="44.542898" lon="7.9277826"><ele>261.0</ele><time>2026-04-11T07:48:40.862Z</time></trkpt><trkpt lat="44.5429694" lon="7.9277126"><ele>261.6666666666667</ele><time>2026-04-11T07:48:43.849Z</time></trkpt><trkpt lat="44.5430186" lon="7.9276547"><ele>262.3333333333333</ele><time>2026-04-11T07:48:45.868Z</time></trkpt><trkpt lat="44.5430927" lon="7.927579"><ele>263.0</ele><time>2026-04-11T07:48:48.861Z</time></trkpt><trkpt lat="44.5431735" lon="7.9275429"><ele>263.66666666666663</ele><time>2026-04-11T07:48:51.853Z</time></trkpt><trkpt lat="44.5432421" lon="7.9275588"><ele>264.3333333333333</ele><time>2026-04-11T07:48:54.871Z</time></trkpt><trkpt lat="44.5433083" lon="7.9275789"><ele>265.0</ele><time>2026-04-11T07:48:57.877Z</time></trkpt><trkpt lat="44.5433807" lon="7.9276148"><ele>265.4285714285714</ele><time>2026-04-11T07:49:01.862Z</time></trkpt><trkpt lat="44.543451" lon="7.9276256"><ele>265.85714285714283</ele><time>2026-04-11T07:49:05.866Z</time></trkpt><trkpt lat="44.5435222" lon="7.927664"><ele>266.2857142857143</ele><time>2026-04-11T07:49:09.876Z</time></trkpt><trkpt lat="44.5435861" lon="7.9276946"><ele>266.71428571428567</ele><time>2026-04-11T07:49:12.864Z</time></trkpt><trkpt lat="44.5436468" lon="7.9277255"><ele>267.1428571428571</ele><time>2026-04-11T07:49:15.866Z</time></trkpt><trkpt lat="44.5437113" lon="7.9277836"><ele>267.57142857142856</ele><time>2026-04-11T07:49:18.869Z</time></trkpt><trkpt lat="44.5437562" lon="7.9278778"><ele>268.0</ele><time>2026-04-11T07:49:21.848Z</time></trkpt><trkpt lat="44.5437911" lon="7.9279742"><ele>269.5</ele><time>2026-04-11T07:49:24.854Z</time></trkpt><trkpt lat="44.5438227" lon="7.9280801"><ele>271.0</ele><time>2026-04-11T07:49:28.852Z</time></trkpt><trkpt lat="44.5438553" lon="7.9281819"><ele>272.5</ele><time>2026-04-11T07:49:32.866Z</time></trkpt><trkpt lat="44.5438858" lon="7.9282813"><ele>274.0</ele><time>2026-04-11T07:49:36.86Z</time></trkpt><trkpt lat="44.5438888" lon="7.9283928"><ele>275.5</ele><time>2026-04-11T07:49:40.844Z</time></trkpt><trkpt lat="44.5438783" lon="7.9284806"><ele>277.0</ele><time>2026-04-11T07:49:43.83Z</time></trkpt><trkpt lat="44.5438533" lon="7.9285747"><ele>278.0</ele><time>2026-04-11T07:49:46.859Z</time></trkpt><trkpt lat="44.543833" lon="7.9286615"><ele>279.0</ele><time>2026-04-11T07:49:49.86Z</time></trkpt><trkpt lat="44.5438143" lon="7.9287621"><ele>280.0</ele><time>2026-04-11T07:49:53.848Z</time></trkpt><trkpt lat="44.5438068" lon="7.9288559"><ele>281.0</ele><time>2026-04-11T07:49:57.863Z</time></trkpt><trkpt lat="44.5437821" lon="7.9289699"><ele>282.0</ele><time>2026-04-11T07:50:01.847Z</time></trkpt><trkpt lat="44.5437583" lon="7.9290536"><ele>283.0</ele><time>2026-04-11T07:50:04.874Z</time></trkpt><trkpt lat="44.5437206" lon="7.9291571"><ele>284.0</ele><time>2026-04-11T07:50:08.865Z</time></trkpt><trkpt lat="44.5436802" lon="7.9292527"><ele>284.0</ele><time>2026-04-11T07:50:11.856Z</time></trkpt><trkpt lat="44.5436458" lon="7.9293703"><ele>284.0</ele><time>2026-04-11T07:50:15.855Z</time></trkpt><trkpt lat="44.5436108" lon="7.9294642"><ele>284.0</ele><time>2026-04-11T07:50:18.867Z</time></trkpt><trkpt lat="44.5435875" lon="7.9295708"><ele>284.0</ele><time>2026-04-11T07:50:22.87Z</time></trkpt><trkpt lat="44.5435729" lon="7.9296787"><ele>284.0</ele><time>2026-04-11T07:50:26.856Z</time></trkpt><trkpt lat="44.5435704" lon="7.9297965"><ele>284.0</ele><time>2026-04-11T07:50:30.86Z</time></trkpt><trkpt lat="44.5435631" lon="7.9299102"><ele>284.0</ele><time>2026-04-11T07:50:34.851Z</time></trkpt><trkpt lat="44.5435536" lon="7.9300299"><ele>284.0</ele><time>2026-04-11T07:50:38.848Z</time></trkpt><trkpt lat="44.5435528" lon="7.9301216"><ele>284.0</ele><time>2026-04-11T07:50:42.868Z</time></trkpt><trkpt lat="44.5435501" lon="7.9302322"><ele>284.0</ele><time>2026-04-11T07:50:47.862Z</time></trkpt><trkpt lat="44.5435429" lon="7.9303259"><ele>284.0</ele><time>2026-04-11T07:50:52.877Z</time></trkpt><trkpt lat="44.5435388" lon="7.9304348"><ele>284.0</ele><time>2026-04-11T07:50:57.852Z</time></trkpt><trkpt lat="44.5435277" lon="7.9305343"><ele>284.0</ele><time>2026-04-11T07:51:02.857Z</time></trkpt><trkpt lat="44.5435278" lon="7.9306239"><ele>285.0</ele><time>2026-04-11T07:51:06.847Z</time></trkpt><trkpt lat="44.5435231" lon="7.930713"><ele>286.0</ele><time>2026-04-11T07:51:10.856Z</time></trkpt><trkpt lat="44.543512" lon="7.9308135"><ele>287.0</ele><time>2026-04-11T07:51:14.854Z</time></trkpt><trkpt lat="44.5435058" lon="7.9309015"><ele>288.0</ele><time>2026-04-11T07:51:18.862Z</time></trkpt><trkpt lat="44.5435088" lon="7.9310051"><ele>289.0</ele><time>2026-04-11T07:51:22.855Z</time></trkpt><trkpt lat="44.5435208" lon="7.9311186"><ele>290.0</ele><time>2026-04-11T07:51:26.855Z</time></trkpt><trkpt lat="44.5435077" lon="7.9312268"><ele>291.0</ele><time>2026-04-11T07:51:30.873Z</time></trkpt><trkpt lat="44.5435153" lon="7.9313254"><ele>292.0</ele><time>2026-04-11T07:51:34.85Z</time></trkpt><trkpt lat="44.5435435" lon="7.9314336"><ele>293.0</ele><time>2026-04-11T07:51:38.862Z</time></trkpt><trkpt lat="44.5435474" lon="7.9315272"><ele>294.0</ele><time>2026-04-11T07:51:42.852Z</time></trkpt><trkpt lat="44.5435645" lon="7.9316177"><ele>295.0</ele><time>2026-04-11T07:51:46.837Z</time></trkpt><trkpt lat="44.5435973" lon="7.931724"><ele>296.0</ele><time>2026-04-11T07:51:50.847Z</time></trkpt><trkpt lat="44.543624" lon="7.9318046"><ele>297.0</ele><time>2026-04-11T07:51:54.848Z</time></trkpt><trkpt lat="44.5436474" lon="7.931897"><ele>298.0</ele><time>2026-04-11T07:51:58.861Z</time></trkpt><trkpt lat="44.5436774" lon="7.9319796"><ele>299.16666666666663</ele><time>2026-04-11T07:52:02.855Z</time></trkpt><trkpt lat="44.5436898" lon="7.9320877"><ele>300.3333333333333</ele><time>2026-04-11T07:52:07.854Z</time></trkpt><trkpt lat="44.5437172" lon="7.9321861"><ele>301.5</ele><time>2026-04-11T07:52:11.866Z</time></trkpt><trkpt lat="44.5437164" lon="7.9322872"><ele>302.6666666666667</ele><time>2026-04-11T07:52:15.861Z</time></trkpt><trkpt lat="44.5437485" lon="7.9323931"><ele>303.83333333333337</ele><time>2026-04-11T07:52:20.846Z</time></trkpt><trkpt lat="44.5437818" lon="7.9324881"><ele>305.0</ele><time>2026-04-11T07:52:24.847Z</time></trkpt><trkpt lat="44.5438199" lon="7.9325825"><ele>305.2857142857143</ele><time>2026-04-11T07:52:28.847Z</time></trkpt><trkpt lat="44.5438552" lon="7.9326712"><ele>305.57142857142856</ele><time>2026-04-11T07:52:32.856Z</time></trkpt><trkpt lat="44.543883" lon="7.9327635"><ele>305.85714285714283</ele><time>2026-04-11T07:52:36.864Z</time></trkpt><trkpt lat="44.5439098" lon="7.9328445"><ele>306.1428571428571</ele><time>2026-04-11T07:52:40.854Z</time></trkpt><trkpt lat="44.5439437" lon="7.9329333"><ele>306.42857142857144</ele><time>2026-04-11T07:52:44.849Z</time></trkpt><trkpt lat="44.5439816" lon="7.9330169"><ele>306.71428571428567</ele><time>2026-04-11T07:52:48.846Z</time></trkpt><trkpt lat="44.5439959" lon="7.9331244"><ele>307.0</ele><time>2026-04-11T07:52:52.849Z</time></trkpt><trkpt lat="44.5440227" lon="7.9332144"><ele>306.99999999999994</ele><time>2026-04-11T07:52:56.837Z</time></trkpt><trkpt lat="44.5440294" lon="7.9333152"><ele>307.0</ele><time>2026-04-11T07:53:00.855Z</time></trkpt><trkpt lat="44.5440314" lon="7.9334059"><ele>307.0</ele><time>2026-04-11T07:53:04.834Z</time></trkpt><trkpt lat="44.5440547" lon="7.9335061"><ele>307.0</ele><time>2026-04-11T07:53:09.842Z</time></trkpt><trkpt lat="44.5440592" lon="7.9336057"><ele>307.0</ele><time>2026-04-11T07:53:13.828Z</time></trkpt><trkpt lat="44.5440689" lon="7.9337039"><ele>306.99999999999994</ele><time>2026-04-11T07:53:18.845Z</time></trkpt><trkpt lat="44.5440986" lon="7.9338035"><ele>307.0</ele><time>2026-04-11T07:53:24.849Z</time></trkpt><trkpt lat="44.544143" lon="7.9338761"><ele>308.2857142857143</ele><time>2026-04-11T07:53:29.841Z</time></trkpt><trkpt lat="44.5441708" lon="7.9339622"><ele>309.57142857142856</ele><time>2026-04-11T07:53:33.828Z</time></trkpt><trkpt lat="44.5441845" lon="7.9340552"><ele>310.8571428571429</ele><time>2026-04-11T07:53:37.848Z</time></trkpt><trkpt lat="44.5442105" lon="7.9341583"><ele>312.1428571428571</ele><time>2026-04-11T07:53:42.842Z</time></trkpt><trkpt lat="44.5442382" lon="7.9342644"><ele>313.42857142857144</ele><time>2026-04-11T07:53:46.844Z</time></trkpt><trkpt lat="44.5442392" lon="7.9343611"><ele>314.7142857142857</ele><time>2026-04-11T07:53:51.855Z</time></trkpt><trkpt lat="44.544231" lon="7.934461"><ele>316.0</ele><time>2026-04-11T07:53:56.857Z</time></trkpt><trkpt lat="44.5442417" lon="7.9345608"><ele>317.00000000000006</ele><time>2026-04-11T07:54:02.837Z</time></trkpt><trkpt lat="44.5442511" lon="7.9346592"><ele>318.0</ele><time>2026-04-11T07:55:02.832Z</time></trkpt><trkpt lat="44.544289" lon="7.9347488"><ele>319.0</ele><time>2026-04-11T07:55:33.842Z</time></trkpt><trkpt lat="44.5443464" lon="7.9348094"><ele>320.0</ele><time>2026-04-11T07:56:13.854Z</time></trkpt><trkpt lat="44.5443664" lon="7.9348967"><ele>321.0</ele><time>2026-04-11T07:56:20.85Z</time></trkpt><trkpt lat="44.5444052" lon="7.9349791"><ele>322.00000000000006</ele><time>2026-04-11T07:56:26.842Z</time></trkpt><trkpt lat="44.5444321" lon="7.9350718"><ele>323.0</ele><time>2026-04-11T07:56:30.854Z</time></trkpt><trkpt lat="44.544434" lon="7.9351668"><ele>323.5714285714286</ele><time>2026-04-11T07:56:36.825Z</time></trkpt><trkpt lat="44.5444765" lon="7.9352465"><ele>324.14285714285717</ele><time>2026-04-11T07:56:40.85Z</time></trkpt><trkpt lat="44.5445206" lon="7.9353348"><ele>324.7142857142857</ele><time>2026-04-11T07:56:45.852Z</time></trkpt><trkpt lat="44.5445549" lon="7.9354101"><ele>325.28571428571433</ele><time>2026-04-11T07:56:50.851Z</time></trkpt><trkpt lat="44.5446104" lon="7.9354772"><ele>325.8571428571429</ele><time>2026-04-11T07:56:54.861Z</time></trkpt><trkpt lat="44.5446582" lon="7.9355403"><ele>326.42857142857144</ele><time>2026-04-11T07:56:57.836Z</time></trkpt><trkpt lat="44.5447017" lon="7.9356155"><ele>327.0</ele><time>2026-04-11T07:57:02.841Z</time></trkpt><trkpt lat="44.5447352" lon="7.93571"><ele>327.0</ele><time>2026-04-11T07:57:07.839Z</time></trkpt><trkpt lat="44.544776" lon="7.9357913"><ele>327.0</ele><time>2026-04-11T07:57:11.835Z</time></trkpt><trkpt lat="44.5448192" lon="7.9358594"><ele>327.0</ele><time>2026-04-11T07:57:15.847Z</time></trkpt><trkpt lat="44.5448445" lon="7.9359455"><ele>327.0</ele><time>2026-04-11T07:57:20.844Z</time></trkpt><trkpt lat="44.5447806" lon="7.9359989"><ele>327.0</ele><time>2026-04-11T07:57:26.83Z</time></trkpt><trkpt lat="44.5447148" lon="7.9359909"><ele>327.0</ele><time>2026-04-11T07:57:30.845Z</time></trkpt><trkpt lat="44.5446452" lon="7.9359925"><ele>327.0</ele><time>2026-04-11T07:57:34.831Z</time></trkpt><trkpt lat="44.5445832" lon="7.9359649"><ele>327.1428571428571</ele><time>2026-04-11T07:57:37.836Z</time></trkpt><trkpt lat="44.5445106" lon="7.9359385"><ele>327.2857142857143</ele><time>2026-04-11T07:57:42.836Z</time></trkpt><trkpt lat="44.5444459" lon="7.9358915"><ele>327.42857142857144</ele><time>2026-04-11T07:57:47.854Z</time></trkpt><trkpt lat="44.5443781" lon="7.9358524"><ele>327.57142857142856</ele><time>2026-04-11T07:57:52.85Z</time></trkpt><trkpt lat="44.5443116" lon="7.9358228"><ele>327.7142857142857</ele><time>2026-04-11T07:57:56.842Z</time></trkpt><trkpt lat="44.5442444" lon="7.9357951"><ele>327.85714285714283</ele><time>2026-04-11T07:58:00.842Z</time></trkpt><trkpt lat="44.5441813" lon="7.9357487"><ele>328.0</ele><time>2026-04-11T07:58:04.832Z</time></trkpt><trkpt lat="44.5441216" lon="7.9356947"><ele>327.99999999999994</ele><time>2026-04-11T07:58:08.842Z</time></trkpt><trkpt lat="44.5440633" lon="7.9356399"><ele>328.0</ele><time>2026-04-11T07:58:12.84Z</time></trkpt><trkpt lat="44.5440002" lon="7.9355796"><ele>328.0</ele><time>2026-04-11T07:58:17.85Z</time></trkpt><trkpt lat="44.5439593" lon="7.9354978"><ele>328.0</ele><time>2026-04-11T07:58:21.854Z</time></trkpt><trkpt lat="44.5439363" lon="7.9353948"><ele>328.0</ele><time>2026-04-11T07:58:25.865Z</time></trkpt><trkpt lat="44.543902" lon="7.9353098"><ele>327.99999999999994</ele><time>2026-04-11T07:58:29.833Z</time></trkpt><trkpt lat="44.5438779" lon="7.9352078"><ele>328.0</ele><time>2026-04-11T07:58:33.853Z</time></trkpt><trkpt lat="44.5438477" lon="7.9351301"><ele>327.2857142857143</ele><time>2026-04-11T07:58:37.859Z</time></trkpt><trkpt lat="44.5438159" lon="7.935048"><ele>326.57142857142856</ele><time>2026-04-11T07:58:41.872Z</time></trkpt><trkpt lat="44.5437749" lon="7.9349597"><ele>325.8571428571429</ele><time>2026-04-11T07:58:45.861Z</time></trkpt><trkpt lat="44.5437314" lon="7.9348682"><ele>325.1428571428571</ele><time>2026-04-11T07:58:49.87Z</time></trkpt><trkpt lat="44.5436948" lon="7.9347748"><ele>324.42857142857144</ele><time>2026-04-11T07:58:53.865Z</time></trkpt><trkpt lat="44.5436463" lon="7.9346848"><ele>323.7142857142857</ele><time>2026-04-11T07:58:57.857Z</time></trkpt><trkpt lat="44.543603" lon="7.9346033"><ele>323.0</ele><time>2026-04-11T07:59:01.848Z</time></trkpt><trkpt lat="44.5435544" lon="7.93451"><ele>324.14285714285717</ele><time>2026-04-11T07:59:05.856Z</time></trkpt><trkpt lat="44.5434989" lon="7.9344498"><ele>325.2857142857143</ele><time>2026-04-11T07:59:09.843Z</time></trkpt><trkpt lat="44.5434666" lon="7.9343668"><ele>326.42857142857144</ele><time>2026-04-11T07:59:14.869Z</time></trkpt><trkpt lat="44.5434237" lon="7.9342805"><ele>327.57142857142856</ele><time>2026-04-11T07:59:18.879Z</time></trkpt><trkpt lat="44.5433777" lon="7.9342049"><ele>328.7142857142857</ele><time>2026-04-11T07:59:22.849Z</time></trkpt><trkpt lat="44.5433403" lon="7.9341198"><ele>329.8571428571429</ele><time>2026-04-11T07:59:26.869Z</time></trkpt><trkpt lat="44.543284" lon="7.9340545"><ele>331.0</ele><time>2026-04-11T07:59:30.861Z</time></trkpt><trkpt lat="44.5432319" lon="7.933976"><ele>331.0</ele><time>2026-04-11T07:59:35.857Z</time></trkpt><trkpt lat="44.5431652" lon="7.9339305"><ele>331.0</ele><time>2026-04-11T07:59:39.86Z</time></trkpt><trkpt lat="44.5430958" lon="7.9338935"><ele>331.0</ele><time>2026-04-11T07:59:43.85Z</time></trkpt><trkpt lat="44.5430313" lon="7.9339137"><ele>331.0</ele><time>2026-04-11T07:59:47.839Z</time></trkpt><trkpt lat="44.542975" lon="7.933962"><ele>331.0</ele><time>2026-04-11T07:59:51.905Z</time></trkpt><trkpt lat="44.5429142" lon="7.9340282"><ele>331.0</ele><time>2026-04-11T07:59:56.86Z</time></trkpt><trkpt lat="44.5428859" lon="7.934126"><ele>331.0</ele><time>2026-04-11T08:00:01.87Z</time></trkpt><trkpt lat="44.5428979" lon="7.9342169"><ele>331.8571428571429</ele><time>2026-04-11T08:00:05.869Z</time></trkpt><trkpt lat="44.5429474" lon="7.9342946"><ele>332.7142857142857</ele><time>2026-04-11T08:00:10.849Z</time></trkpt><trkpt lat="44.5429758" lon="7.9343742"><ele>333.57142857142856</ele><time>2026-04-11T08:00:14.855Z</time></trkpt><trkpt lat="44.5430121" lon="7.9344471"><ele>334.42857142857144</ele><time>2026-04-11T08:00:18.871Z</time></trkpt><trkpt lat="44.5430464" lon="7.934529"><ele>335.2857142857143</ele><time>2026-04-11T08:00:22.843Z</time></trkpt><trkpt lat="44.5430708" lon="7.9346246"><ele>336.14285714285717</ele><time>2026-04-11T08:00:27.857Z</time></trkpt><trkpt lat="44.5430634" lon="7.9347158"><ele>337.0</ele><time>2026-04-11T08:00:31.858Z</time></trkpt><trkpt lat="44.5430732" lon="7.9348036"><ele>337.00000000000006</ele><time>2026-04-11T08:00:35.857Z</time></trkpt><trkpt lat="44.5430711" lon="7.9349036"><ele>337.0</ele><time>2026-04-11T08:00:40.852Z</time></trkpt><trkpt lat="44.5430571" lon="7.9349945"><ele>337.0</ele><time>2026-04-11T08:00:45.858Z</time></trkpt><trkpt lat="44.5430567" lon="7.935084"><ele>337.0</ele><time>2026-04-11T08:00:51.858Z</time></trkpt><trkpt lat="44.5430536" lon="7.9351932"><ele>337.0</ele><time>2026-04-11T08:00:56.854Z</time></trkpt><trkpt lat="44.5430484" lon="7.9352899"><ele>337.00000000000006</ele><time>2026-04-11T08:01:00.854Z</time></trkpt><trkpt lat="44.5430433" lon="7.9353896"><ele>337.0</ele><time>2026-04-11T08:01:04.856Z</time></trkpt><trkpt lat="44.5430374" lon="7.9354949"><ele>338.00000000000006</ele><time>2026-04-11T08:01:09.855Z</time></trkpt><trkpt lat="44.5430431" lon="7.9355898"><ele>339.0</ele><time>2026-04-11T08:01:13.856Z</time></trkpt><trkpt lat="44.5430556" lon="7.9356934"><ele>340.0</ele><time>2026-04-11T08:01:17.844Z</time></trkpt><trkpt lat="44.5430778" lon="7.9357848"><ele>341.0</ele><time>2026-04-11T08:01:21.851Z</time></trkpt><trkpt lat="44.5431053" lon="7.935884"><ele>342.0</ele><time>2026-04-11T08:01:25.859Z</time></trkpt><trkpt lat="44.5431326" lon="7.9359857"><ele>343.00000000000006</ele><time>2026-04-11T08:01:29.845Z</time></trkpt><trkpt lat="44.5431579" lon="7.9360919"><ele>344.0</ele><time>2026-04-11T08:01:33.833Z</time></trkpt><trkpt lat="44.5431759" lon="7.9361962"><ele>345.42857142857144</ele><time>2026-04-11T08:01:37.86Z</time></trkpt><trkpt lat="44.5432059" lon="7.9363071"><ele>346.8571428571429</ele><time>2026-04-11T08:01:41.86Z</time></trkpt><trkpt lat="44.5432303" lon="7.9364061"><ele>348.28571428571433</ele><time>2026-04-11T08:01:45.849Z</time></trkpt><trkpt lat="44.5432578" lon="7.9364886"><ele>349.7142857142857</ele><time>2026-04-11T08:01:49.854Z</time></trkpt><trkpt lat="44.543268" lon="7.9365908"><ele>351.1428571428571</ele><time>2026-04-11T08:01:53.856Z</time></trkpt><trkpt lat="44.543276" lon="7.9366973"><ele>352.5714285714286</ele><time>2026-04-11T08:01:58.861Z</time></trkpt><trkpt lat="44.5432871" lon="7.9367949"><ele>354.0</ele><time>2026-04-11T08:02:02.842Z</time></trkpt><trkpt lat="44.5432964" lon="7.9368927"><ele>355.42857142857144</ele><time>2026-04-11T08:02:07.851Z</time></trkpt><trkpt lat="44.5433074" lon="7.9369978"><ele>356.85714285714283</ele><time>2026-04-11T08:02:12.856Z</time></trkpt><trkpt lat="44.5433369" lon="7.9370845"><ele>358.2857142857143</ele><time>2026-04-11T08:02:16.859Z</time></trkpt><trkpt lat="44.5433558" lon="7.9371807"><ele>359.7142857142857</ele><time>2026-04-11T08:02:20.885Z</time></trkpt><trkpt lat="44.5433721" lon="7.9372665"><ele>361.1428571428571</ele><time>2026-04-11T08:02:24.851Z</time></trkpt><trkpt lat="44.5434039" lon="7.9373666"><ele>362.57142857142856</ele><time>2026-04-11T08:02:29.863Z</time></trkpt><trkpt lat="44.5434525" lon="7.9374445"><ele>364.0</ele><time>2026-04-11T08:02:34.851Z</time></trkpt><trkpt lat="44.5434952" lon="7.9375218"><ele>365.2857142857143</ele><time>2026-04-11T08:02:39.85Z</time></trkpt><trkpt lat="44.5435441" lon="7.9375889"><ele>366.57142857142856</ele><time>2026-04-11T08:02:45.847Z</time></trkpt><trkpt lat="44.5436019" lon="7.9376537"><ele>367.8571428571429</ele><time>2026-04-11T08:02:52.853Z</time></trkpt><trkpt lat="44.5436489" lon="7.9377133"><ele>369.1428571428571</ele><time>2026-04-11T08:02:57.856Z</time></trkpt><trkpt lat="44.543706" lon="7.9377668"><ele>370.42857142857144</ele><time>2026-04-11T08:03:02.849Z</time></trkpt><trkpt lat="44.543767" lon="7.937826"><ele>371.7142857142857</ele><time>2026-04-11T08:03:08.873Z</time></trkpt><trkpt lat="44.5438269" lon="7.9378643"><ele>373.0</ele><time>2026-04-11T08:03:13.86Z</time></trkpt><trkpt lat="44.5438884" lon="7.9379147"><ele>373.2857142857143</ele><time>2026-04-11T08:03:19.864Z</time></trkpt><trkpt lat="44.5439408" lon="7.9379733"><ele>373.57142857142856</ele><time>2026-04-11T08:03:25.852Z</time></trkpt><trkpt lat="44.5440031" lon="7.9380172"><ele>373.8571428571429</ele><time>2026-04-11T08:03:31.87Z</time></trkpt><trkpt lat="44.544066" lon="7.9380412"><ele>374.1428571428571</ele><time>2026-04-11T08:03:37.854Z</time></trkpt><trkpt lat="44.5441308" lon="7.9380992"><ele>374.4285714285714</ele><time>2026-04-11T08:03:43.856Z</time></trkpt><trkpt lat="44.5441888" lon="7.9381684"><ele>374.7142857142857</ele><time>2026-04-11T08:03:48.853Z</time></trkpt><trkpt lat="44.5442431" lon="7.9382437"><ele>375.0</ele><time>2026-04-11T08:03:54.854Z</time></trkpt><trkpt lat="44.5442712" lon="7.9383355"><ele>376.2857142857143</ele><time>2026-04-11T08:04:00.853Z</time></trkpt><trkpt lat="44.5442968" lon="7.938423"><ele>377.57142857142856</ele><time>2026-04-11T08:04:06.859Z</time></trkpt><trkpt lat="44.544272" lon="7.9385089"><ele>378.85714285714283</ele><time>2026-04-11T08:04:14.852Z</time></trkpt><trkpt lat="44.5442507" lon="7.93861"><ele>380.1428571428571</ele><time>2026-04-11T08:04:22.837Z</time></trkpt><trkpt lat="44.544245" lon="7.9387006"><ele>381.42857142857144</ele><time>2026-04-11T08:04:29.859Z</time></trkpt><trkpt lat="44.5441961" lon="7.9387696"><ele>382.71428571428567</ele><time>2026-04-11T08:04:35.842Z</time></trkpt><trkpt lat="44.5441314" lon="7.9388006"><ele>384.0</ele><time>2026-04-11T08:04:39.856Z</time></trkpt><trkpt lat="44.5440718" lon="7.9388484"><ele>383.99999999999994</ele><time>2026-04-11T08:04:43.851Z</time></trkpt><trkpt lat="44.544064" lon="7.9389394"><ele>384.0</ele><time>2026-04-11T08:04:50.862Z</time></trkpt><trkpt lat="44.5440953" lon="7.9390374"><ele>384.0</ele><time>2026-04-11T08:04:55.877Z</time></trkpt><trkpt lat="44.5441487" lon="7.9391068"><ele>384.0</ele><time>2026-04-11T08:05:00.842Z</time></trkpt><trkpt lat="44.5442033" lon="7.939169"><ele>384.0</ele><time>2026-04-11T08:05:04.851Z</time></trkpt><trkpt lat="44.5442632" lon="7.9392078"><ele>383.99999999999994</ele><time>2026-04-11T08:05:09.856Z</time></trkpt><trkpt lat="44.5443317" lon="7.9392217"><ele>384.0</ele><time>2026-04-11T08:05:13.885Z</time></trkpt><trkpt lat="44.5444032" lon="7.9392141"><ele>383.99999999999994</ele><time>2026-04-11T08:05:17.853Z</time></trkpt><trkpt lat="44.5444701" lon="7.9392062"><ele>384.0</ele><time>2026-04-11T08:05:21.861Z</time></trkpt><trkpt lat="44.5445334" lon="7.9391922"><ele>384.0</ele><time>2026-04-11T08:05:25.85Z</time></trkpt><trkpt lat="44.544605" lon="7.9392251"><ele>384.0</ele><time>2026-04-11T08:05:30.852Z</time></trkpt><trkpt lat="44.5446478" lon="7.9392914"><ele>384.0</ele><time>2026-04-11T08:05:34.867Z</time></trkpt><trkpt lat="44.5446678" lon="7.9393763"><ele>383.99999999999994</ele><time>2026-04-11T08:05:38.882Z</time></trkpt><trkpt lat="44.544686" lon="7.9394808"><ele>384.0</ele><time>2026-04-11T08:05:44.853Z</time></trkpt><trkpt lat="44.5447003" lon="7.9395775"><ele>384.99999999999994</ele><time>2026-04-11T08:05:49.877Z</time></trkpt><trkpt lat="44.5447107" lon="7.9396665"><ele>386.0</ele><time>2026-04-11T08:05:54.864Z</time></trkpt><trkpt lat="44.5447145" lon="7.9397619"><ele>387.0</ele><time>2026-04-11T08:05:59.86Z</time></trkpt><trkpt lat="44.5447244" lon="7.9398688"><ele>388.0</ele><time>2026-04-11T08:06:04.87Z</time></trkpt><trkpt lat="44.5447461" lon="7.9399548"><ele>389.0</ele><time>2026-04-11T08:06:08.881Z</time></trkpt><trkpt lat="44.5447811" lon="7.9400456"><ele>389.99999999999994</ele><time>2026-04-11T08:06:12.844Z</time></trkpt><trkpt lat="44.5448277" lon="7.940128"><ele>391.0</ele><time>2026-04-11T08:06:16.871Z</time></trkpt><trkpt lat="44.544889" lon="7.940179"><ele>390.99999999999994</ele><time>2026-04-11T08:06:21.869Z</time></trkpt><trkpt lat="44.5449596" lon="7.940191"><ele>391.0</ele><time>2026-04-11T08:06:27.861Z</time></trkpt><trkpt lat="44.5450248" lon="7.9402012"><ele>391.0</ele><time>2026-04-11T08:06:32.855Z</time></trkpt><trkpt lat="44.5450905" lon="7.9402044"><ele>391.0</ele><time>2026-04-11T08:06:36.843Z</time></trkpt><trkpt lat="44.5451555" lon="7.9402241"><ele>391.0</ele><time>2026-04-11T08:06:40.858Z</time></trkpt><trkpt lat="44.5452304" lon="7.9402364"><ele>390.99999999999994</ele><time>2026-04-11T08:06:45.868Z</time></trkpt><trkpt lat="44.5452989" lon="7.9402438"><ele>391.0</ele><time>2026-04-11T08:06:50.857Z</time></trkpt><trkpt lat="44.5453628" lon="7.9402526"><ele>392.85714285714283</ele><time>2026-04-11T08:06:54.852Z</time></trkpt><trkpt lat="44.5454304" lon="7.9402726"><ele>394.7142857142857</ele><time>2026-04-11T08:06:58.85Z</time></trkpt><trkpt lat="44.5455103" lon="7.9402792"><ele>396.57142857142856</ele><time>2026-04-11T08:07:03.874Z</time></trkpt><trkpt lat="44.5455787" lon="7.9403041"><ele>398.42857142857144</ele><time>2026-04-11T08:07:09.878Z</time></trkpt><trkpt lat="44.5456565" lon="7.9403319"><ele>400.2857142857143</ele><time>2026-04-11T08:07:14.865Z</time></trkpt><trkpt lat="44.5457176" lon="7.9403949"><ele>402.1428571428571</ele><time>2026-04-11T08:07:19.877Z</time></trkpt><trkpt lat="44.5457729" lon="7.9404591"><ele>404.0</ele><time>2026-04-11T08:07:23.863Z</time></trkpt><trkpt lat="44.5458317" lon="7.9405106"><ele>404.0</ele><time>2026-04-11T08:07:28.868Z</time></trkpt><trkpt lat="44.5458844" lon="7.9405597"><ele>404.0</ele><time>2026-04-11T08:07:32.854Z</time></trkpt><trkpt lat="44.5459385" lon="7.9406231"><ele>404.0</ele><time>2026-04-11T08:07:36.84Z</time></trkpt><trkpt lat="44.5459927" lon="7.9406823"><ele>404.0</ele><time>2026-04-11T08:07:40.851Z</time></trkpt><trkpt lat="44.5460453" lon="7.9407585"><ele>404.0</ele><time>2026-04-11T08:07:45.854Z</time></trkpt><trkpt lat="44.5460893" lon="7.9408309"><ele>404.0</ele><time>2026-04-11T08:07:50.854Z</time></trkpt><trkpt lat="44.5461417" lon="7.9408818"><ele>404.0</ele><time>2026-04-11T08:07:55.877Z</time></trkpt><trkpt lat="44.5461965" lon="7.9409426"><ele>405.7142857142857</ele><time>2026-04-11T08:08:00.854Z</time></trkpt><trkpt lat="44.5462494" lon="7.9410077"><ele>407.42857142857144</ele><time>2026-04-11T08:08:06.877Z</time></trkpt><trkpt lat="44.5462996" lon="7.9410692"><ele>409.1428571428571</ele><time>2026-04-11T08:08:11.866Z</time></trkpt><trkpt lat="44.5463537" lon="7.9411356"><ele>410.8571428571429</ele><time>2026-04-11T08:08:17.848Z</time></trkpt><trkpt lat="44.5464072" lon="7.9412001"><ele>412.5714285714286</ele><time>2026-04-11T08:08:23.86Z</time></trkpt><trkpt lat="44.5464654" lon="7.9412581"><ele>414.2857142857143</ele><time>2026-04-11T08:08:29.872Z</time></trkpt><trkpt lat="44.5465076" lon="7.9413331"><ele>416.0</ele><time>2026-04-11T08:08:34.865Z</time></trkpt><trkpt lat="44.5465607" lon="7.9414013"><ele>416.0</ele><time>2026-04-11T08:08:41.841Z</time></trkpt><trkpt lat="44.5466119" lon="7.9414689"><ele>416.0</ele><time>2026-04-11T08:08:47.851Z</time></trkpt><trkpt lat="44.5466475" lon="7.9415554"><ele>416.0</ele><time>2026-04-11T08:08:55.869Z</time></trkpt><trkpt lat="44.5467035" lon="7.941629"><ele>416.0</ele><time>2026-04-11T08:09:00.864Z</time></trkpt><trkpt lat="44.5467571" lon="7.9416939"><ele>416.0</ele><time>2026-04-11T08:09:07.869Z</time></trkpt><trkpt lat="44.5468142" lon="7.9417481"><ele>416.0</ele><time>2026-04-11T08:09:12.866Z</time></trkpt><trkpt lat="44.5468624" lon="7.9418056"><ele>416.0</ele><time>2026-04-11T08:09:17.864Z</time></trkpt><trkpt lat="44.5469023" lon="7.9418875"><ele>415.2857142857143</ele><time>2026-04-11T08:09:23.854Z</time></trkpt><trkpt lat="44.5469531" lon="7.94194"><ele>414.5714285714286</ele><time>2026-04-11T08:09:28.87Z</time></trkpt><trkpt lat="44.547016" lon="7.9419838"><ele>413.8571428571429</ele><time>2026-04-11T08:09:35.846Z</time></trkpt><trkpt lat="44.5470716" lon="7.9420416"><ele>413.1428571428571</ele><time>2026-04-11T08:09:43.864Z</time></trkpt><trkpt lat="44.5471303" lon="7.9421154"><ele>412.42857142857144</ele><time>2026-04-11T08:09:49.855Z</time></trkpt><trkpt lat="44.5471823" lon="7.9421865"><ele>411.7142857142857</ele><time>2026-04-11T08:09:54.849Z</time></trkpt><trkpt lat="44.5471872" lon="7.9422753"><ele>411.0</ele><time>2026-04-11T08:10:00.845Z</time></trkpt><trkpt lat="44.5471804" lon="7.9423673"><ele>410.7142857142857</ele><time>2026-04-11T08:10:05.841Z</time></trkpt><trkpt lat="44.5471878" lon="7.942464"><ele>410.42857142857144</ele><time>2026-04-11T08:10:15.87Z</time></trkpt><trkpt lat="44.5472497" lon="7.9425288"><ele>410.1428571428571</ele><time>2026-04-11T08:10:20.847Z</time></trkpt><trkpt lat="44.5473051" lon="7.9425982"><ele>409.8571428571429</ele><time>2026-04-11T08:10:24.87Z</time></trkpt><trkpt lat="44.5473626" lon="7.9426458"><ele>409.5714285714286</ele><time>2026-04-11T08:10:28.856Z</time></trkpt><trkpt lat="44.5474293" lon="7.9426717"><ele>409.2857142857143</ele><time>2026-04-11T08:10:34.848Z</time></trkpt><trkpt lat="44.5474938" lon="7.9427101"><ele>409.0</ele><time>2026-04-11T08:10:40.868Z</time></trkpt><trkpt lat="44.5475656" lon="7.9427132"><ele>409.0</ele><time>2026-04-11T08:10:45.849Z</time></trkpt><trkpt lat="44.5476368" lon="7.9427437"><ele>409.0</ele><time>2026-04-11T08:10:50.858Z</time></trkpt><trkpt lat="44.547714" lon="7.9427453"><ele>409.0</ele><time>2026-04-11T08:10:56.852Z</time></trkpt><trkpt lat="44.5477787" lon="7.9427101"><ele>409.0</ele><time>2026-04-11T08:11:02.842Z</time></trkpt><trkpt lat="44.5478407" lon="7.9426735"><ele>409.0</ele><time>2026-04-11T08:11:08.848Z</time></trkpt><trkpt lat="44.547912" lon="7.9426691"><ele>409.0</ele><time>2026-04-11T08:11:14.852Z</time></trkpt><trkpt lat="44.5479737" lon="7.9427137"><ele>409.0</ele><time>2026-04-11T08:11:19.871Z</time></trkpt><trkpt lat="44.5480315" lon="7.9427495"><ele>412.1428571428571</ele><time>2026-04-11T08:11:23.863Z</time></trkpt><trkpt lat="44.5480838" lon="7.9428151"><ele>415.28571428571433</ele><time>2026-04-11T08:11:29.87Z</time></trkpt><trkpt lat="44.5481298" lon="7.9428938"><ele>418.42857142857144</ele><time>2026-04-11T08:11:35.858Z</time></trkpt><trkpt lat="44.5481833" lon="7.9429559"><ele>421.57142857142856</ele><time>2026-04-11T08:11:40.873Z</time></trkpt><trkpt lat="44.5482391" lon="7.9430095"><ele>424.71428571428567</ele><time>2026-04-11T08:11:46.86Z</time></trkpt><trkpt lat="44.5482988" lon="7.9430819"><ele>427.8571428571429</ele><time>2026-04-11T08:11:52.867Z</time></trkpt><trkpt lat="44.5483603" lon="7.9431108"><ele>431.0</ele><time>2026-04-11T08:11:57.879Z</time></trkpt><trkpt lat="44.548408" lon="7.9431863"><ele>431.0</ele><time>2026-04-11T08:12:03.853Z</time></trkpt><trkpt lat="44.5484719" lon="7.9432251"><ele>431.0</ele><time>2026-04-11T08:12:09.854Z</time></trkpt><trkpt lat="44.5485363" lon="7.9432597"><ele>431.0</ele><time>2026-04-11T08:12:16.844Z</time></trkpt><trkpt lat="44.5486017" lon="7.9432769"><ele>431.0</ele><time>2026-04-11T08:12:23.891Z</time></trkpt><trkpt lat="44.5486756" lon="7.9432524"><ele>431.0</ele><time>2026-04-11T08:12:30.867Z</time></trkpt><trkpt lat="44.5487395" lon="7.9432827"><ele>431.0</ele><time>2026-04-11T08:12:36.849Z</time></trkpt><trkpt lat="44.5488045" lon="7.9433038"><ele>431.0</ele><time>2026-04-11T08:12:43.842Z</time></trkpt><trkpt lat="44.548875" lon="7.9433177"><ele>431.5714285714286</ele><time>2026-04-11T08:12:49.866Z</time></trkpt><trkpt lat="44.548925" lon="7.9433783"><ele>432.1428571428571</ele><time>2026-04-11T08:12:55.872Z</time></trkpt><trkpt lat="44.5489811" lon="7.9434473"><ele>432.7142857142857</ele><time>2026-04-11T08:13:01.871Z</time></trkpt><trkpt lat="44.5490355" lon="7.9434995"><ele>433.28571428571433</ele><time>2026-04-11T08:13:06.846Z</time></trkpt><trkpt lat="44.5490918" lon="7.94356"><ele>433.8571428571429</ele><time>2026-04-11T08:13:11.841Z</time></trkpt><trkpt lat="44.5491451" lon="7.9436187"><ele>434.42857142857144</ele><time>2026-04-11T08:13:16.844Z</time></trkpt><trkpt lat="44.5492002" lon="7.9436706"><ele>435.0</ele><time>2026-04-11T08:13:21.858Z</time></trkpt><trkpt lat="44.5492508" lon="7.9437382"><ele>435.00000000000006</ele><time>2026-04-11T08:13:25.869Z</time></trkpt><trkpt lat="44.5493061" lon="7.9438022"><ele>435.0</ele><time>2026-04-11T08:13:30.863Z</time></trkpt><trkpt lat="44.549366" lon="7.9438408"><ele>435.0</ele><time>2026-04-11T08:13:34.854Z</time></trkpt><trkpt lat="44.5494261" lon="7.943907"><ele>435.0</ele><time>2026-04-11T08:13:39.872Z</time></trkpt><trkpt lat="44.5494849" lon="7.9439632"><ele>435.0</ele><time>2026-04-11T08:13:44.853Z</time></trkpt><trkpt lat="44.5495404" lon="7.9440265"><ele>435.00000000000006</ele><time>2026-04-11T08:13:49.861Z</time></trkpt><trkpt lat="44.5495971" lon="7.9440908"><ele>435.0</ele><time>2026-04-11T08:13:53.839Z</time></trkpt><trkpt lat="44.5496614" lon="7.94414"><ele>434.6666666666667</ele><time>2026-04-11T08:13:58.869Z</time></trkpt><trkpt lat="44.549715" lon="7.944191"><ele>434.33333333333337</ele><time>2026-04-11T08:15:37.875Z</time></trkpt><trkpt lat="44.5497872" lon="7.9442558"><ele>434.0</ele><time>2026-04-11T08:15:40.853Z</time></trkpt><trkpt lat="44.5498457" lon="7.9443032"><ele>433.6666666666667</ele><time>2026-04-11T08:15:42.875Z</time></trkpt><trkpt lat="44.5499258" lon="7.9443596"><ele>433.33333333333337</ele><time>2026-04-11T08:15:44.849Z</time></trkpt><trkpt lat="44.5500077" lon="7.9444205"><ele>433.0</ele><time>2026-04-11T08:15:46.869Z</time></trkpt><trkpt lat="44.5500829" lon="7.9444678"><ele>432.1666666666667</ele><time>2026-04-11T08:15:48.898Z</time></trkpt><trkpt lat="44.5501537" lon="7.9445117"><ele>431.33333333333337</ele><time>2026-04-11T08:15:50.87Z</time></trkpt><trkpt lat="44.550233" lon="7.9445646"><ele>430.5</ele><time>2026-04-11T08:15:52.854Z</time></trkpt><trkpt lat="44.5503017" lon="7.9446058"><ele>429.66666666666663</ele><time>2026-04-11T08:15:54.849Z</time></trkpt><trkpt lat="44.5503642" lon="7.9446565"><ele>428.8333333333333</ele><time>2026-04-11T08:15:56.872Z</time></trkpt><trkpt lat="44.550437" lon="7.9446956"><ele>428.0</ele><time>2026-04-11T08:15:58.862Z</time></trkpt><trkpt lat="44.5505186" lon="7.9447484"><ele>428.3333333333333</ele><time>2026-04-11T08:16:00.871Z</time></trkpt><trkpt lat="44.5505877" lon="7.9448134"><ele>428.66666666666663</ele><time>2026-04-11T08:16:02.858Z</time></trkpt><trkpt lat="44.5506577" lon="7.9448655"><ele>429.0</ele><time>2026-04-11T08:16:04.869Z</time></trkpt><trkpt lat="44.5507227" lon="7.9449109"><ele>429.33333333333337</ele><time>2026-04-11T08:16:06.867Z</time></trkpt><trkpt lat="44.5508058" lon="7.9449746"><ele>429.6666666666667</ele><time>2026-04-11T08:16:09.861Z</time></trkpt><trkpt lat="44.5508628" lon="7.9450235"><ele>430.0</ele><time>2026-04-11T08:16:11.877Z</time></trkpt><trkpt lat="44.5509255" lon="7.9450796"><ele>430.0</ele><time>2026-04-11T08:16:13.87Z</time></trkpt><trkpt lat="44.550984" lon="7.945138"><ele>430.0</ele><time>2026-04-11T08:16:15.855Z</time></trkpt><trkpt lat="44.5510413" lon="7.9451868"><ele>430.0</ele><time>2026-04-11T08:16:17.866Z</time></trkpt><trkpt lat="44.5511004" lon="7.94524"><ele>430.0</ele><time>2026-04-11T08:16:19.87Z</time></trkpt><trkpt lat="44.5511569" lon="7.9452953"><ele>430.0</ele><time>2026-04-11T08:16:21.87Z</time></trkpt><trkpt lat="44.551215" lon="7.9453433"><ele>430.0</ele><time>2026-04-11T08:16:23.847Z</time></trkpt><trkpt lat="44.5512847" lon="7.9453763"><ele>430.0</ele><time>2026-04-11T08:16:25.858Z</time></trkpt><trkpt lat="44.5513558" lon="7.9454094"><ele>431.2857142857143</ele><time>2026-04-11T08:16:27.884Z</time></trkpt><trkpt lat="44.5514365" lon="7.9454278"><ele>432.5714285714286</ele><time>2026-04-11T08:16:29.862Z</time></trkpt><trkpt lat="44.5515094" lon="7.9454614"><ele>433.8571428571429</ele><time>2026-04-11T08:16:31.853Z</time></trkpt><trkpt lat="44.5515744" lon="7.9454867"><ele>435.1428571428571</ele><time>2026-04-11T08:16:33.864Z</time></trkpt><trkpt lat="44.5516385" lon="7.9455157"><ele>436.42857142857144</ele><time>2026-04-11T08:16:35.849Z</time></trkpt><trkpt lat="44.5517059" lon="7.9455383"><ele>437.7142857142857</ele><time>2026-04-11T08:16:37.873Z</time></trkpt><trkpt lat="44.5517688" lon="7.9455632"><ele>439.0</ele><time>2026-04-11T08:16:39.891Z</time></trkpt><trkpt lat="44.5518465" lon="7.9455966"><ele>439.00000000000006</ele><time>2026-04-11T08:16:42.85Z</time></trkpt><trkpt lat="44.5519061" lon="7.945634"><ele>439.0</ele><time>2026-04-11T08:16:47.87Z</time></trkpt><trkpt lat="44.5519647" lon="7.9457114"><ele>439.0</ele><time>2026-04-11T08:17:37.86Z</time></trkpt><trkpt lat="44.5520344" lon="7.9457736"><ele>439.0</ele><time>2026-04-11T08:17:40.861Z</time></trkpt><trkpt lat="44.5520981" lon="7.9458403"><ele>439.00000000000006</ele><time>2026-04-11T08:17:43.885Z</time></trkpt><trkpt lat="44.5521762" lon="7.9458942"><ele>439.0</ele><time>2026-04-11T08:17:46.86Z</time></trkpt><trkpt lat="44.5522415" lon="7.9459352"><ele>438.0</ele><time>2026-04-11T08:17:48.869Z</time></trkpt><trkpt lat="44.5523095" lon="7.9459784"><ele>437.0</ele><time>2026-04-11T08:17:50.905Z</time></trkpt><trkpt lat="44.5523876" lon="7.9460447"><ele>436.0</ele><time>2026-04-11T08:17:52.86Z</time></trkpt><trkpt lat="44.5524869" lon="7.9461447"><ele>435.0</ele><time>2026-04-11T08:17:54.874Z</time></trkpt><trkpt lat="44.5525393" lon="7.946197"><ele>434.0</ele><time>2026-04-11T08:17:55.88Z</time></trkpt><trkpt lat="44.5526326" lon="7.9462956"><ele>434.0</ele><time>2026-04-11T08:17:57.867Z</time></trkpt><trkpt lat="44.552729" lon="7.9463801"><ele>434.0</ele><time>2026-04-11T08:17:59.852Z</time></trkpt><trkpt lat="44.5528279" lon="7.9464824"><ele>434.0</ele><time>2026-04-11T08:18:01.854Z</time></trkpt><trkpt lat="44.5529309" lon="7.946563"><ele>434.0</ele><time>2026-04-11T08:18:03.86Z</time></trkpt><trkpt lat="44.5530207" lon="7.94665"><ele>435.49999999999994</ele><time>2026-04-11T08:18:05.876Z</time></trkpt><trkpt lat="44.5530828" lon="7.9467712"><ele>437.0</ele><time>2026-04-11T08:18:07.894Z</time></trkpt><trkpt lat="44.5531246" lon="7.9468836"><ele>438.5</ele><time>2026-04-11T08:18:09.887Z</time></trkpt><trkpt lat="44.5531617" lon="7.9469644"><ele>440.0</ele><time>2026-04-11T08:18:11.87Z</time></trkpt><trkpt lat="44.553207" lon="7.9470684"><ele>441.49999999999994</ele><time>2026-04-11T08:18:14.874Z</time></trkpt><trkpt lat="44.5532272" lon="7.9471929"><ele>443.0</ele><time>2026-04-11T08:18:17.843Z</time></trkpt><trkpt lat="44.5532398" lon="7.9472856"><ele>442.99999999999994</ele><time>2026-04-11T08:18:19.864Z</time></trkpt><trkpt lat="44.553255" lon="7.9473875"><ele>443.0</ele><time>2026-04-11T08:18:21.868Z</time></trkpt><trkpt lat="44.5532978" lon="7.9474903"><ele>443.0</ele><time>2026-04-11T08:18:24.848Z</time></trkpt><trkpt lat="44.5533688" lon="7.9475412"><ele>443.0</ele><time>2026-04-11T08:18:28.85Z</time></trkpt><trkpt lat="44.5534352" lon="7.9476022"><ele>442.99999999999994</ele><time>2026-04-11T08:18:31.896Z</time></trkpt><trkpt lat="44.5535042" lon="7.9476545"><ele>443.0</ele><time>2026-04-11T08:18:34.858Z</time></trkpt><trkpt lat="44.5535729" lon="7.9477408"><ele>442.49999999999994</ele><time>2026-04-11T08:18:37.863Z</time></trkpt><trkpt lat="44.5536245" lon="7.947799"><ele>442.0</ele><time>2026-04-11T08:18:39.875Z</time></trkpt><trkpt lat="44.5536925" lon="7.9478823"><ele>441.5</ele><time>2026-04-11T08:18:42.865Z</time></trkpt><trkpt lat="44.5537658" lon="7.9479446"><ele>441.0</ele><time>2026-04-11T08:18:45.852Z</time></trkpt><trkpt lat="44.5538362" lon="7.9480187"><ele>440.49999999999994</ele><time>2026-04-11T08:18:48.858Z</time></trkpt><trkpt lat="44.553893" lon="7.9480691"><ele>440.0</ele><time>2026-04-11T08:18:50.846Z</time></trkpt><trkpt lat="44.5539522" lon="7.9481051"><ele>439.99999999999994</ele><time>2026-04-11T08:18:52.871Z</time></trkpt><trkpt lat="44.5540087" lon="7.9481574"><ele>440.0</ele><time>2026-04-11T08:18:54.859Z</time></trkpt><trkpt lat="44.554066" lon="7.9482056"><ele>440.0</ele><time>2026-04-11T08:18:56.869Z</time></trkpt><trkpt lat="44.5541253" lon="7.9482542"><ele>440.0</ele><time>2026-04-11T08:18:58.84Z</time></trkpt><trkpt lat="44.5541882" lon="7.9483328"><ele>440.0</ele><time>2026-04-11T08:19:01.848Z</time></trkpt><trkpt lat="44.5542327" lon="7.9484073"><ele>439.99999999999994</ele><time>2026-04-11T08:19:03.838Z</time></trkpt><trkpt lat="44.5542873" lon="7.9484771"><ele>440.0</ele><time>2026-04-11T08:19:05.858Z</time></trkpt><trkpt lat="44.5543361" lon="7.9485548"><ele>438.66666666666663</ele><time>2026-04-11T08:19:07.873Z</time></trkpt><trkpt lat="44.5543923" lon="7.9486146"><ele>437.3333333333333</ele><time>2026-04-11T08:19:09.861Z</time></trkpt><trkpt lat="44.5544529" lon="7.9486724"><ele>436.0</ele><time>2026-04-11T08:19:11.868Z</time></trkpt><trkpt lat="44.5545101" lon="7.9487464"><ele>434.66666666666663</ele><time>2026-04-11T08:19:13.865Z</time></trkpt><trkpt lat="44.5545857" lon="7.9488132"><ele>433.3333333333333</ele><time>2026-04-11T08:19:15.856Z</time></trkpt><trkpt lat="44.5546537" lon="7.9488723"><ele>432.0</ele><time>2026-04-11T08:19:17.851Z</time></trkpt><trkpt lat="44.5547093" lon="7.948933"><ele>432.0</ele><time>2026-04-11T08:19:19.907Z</time></trkpt><trkpt lat="44.5547686" lon="7.9489892"><ele>432.0</ele><time>2026-04-11T08:19:21.845Z</time></trkpt><trkpt lat="44.5548214" lon="7.9490538"><ele>432.0</ele><time>2026-04-11T08:19:23.855Z</time></trkpt><trkpt lat="44.5548756" lon="7.949126"><ele>432.0</ele><time>2026-04-11T08:19:25.863Z</time></trkpt><trkpt lat="44.5549391" lon="7.9491978"><ele>432.0</ele><time>2026-04-11T08:19:27.855Z</time></trkpt><trkpt lat="44.555014" lon="7.9492752"><ele>432.0</ele><time>2026-04-11T08:19:29.838Z</time></trkpt><trkpt lat="44.5550945" lon="7.9493567"><ele>432.20000000000005</ele><time>2026-04-11T08:19:31.879Z</time></trkpt><trkpt lat="44.5551782" lon="7.9494411"><ele>432.40000000000003</ele><time>2026-04-11T08:19:33.856Z</time></trkpt><trkpt lat="44.5552578" lon="7.949532"><ele>432.59999999999997</ele><time>2026-04-11T08:19:35.844Z</time></trkpt><trkpt lat="44.5553273" lon="7.9496211"><ele>432.79999999999995</ele><time>2026-04-11T08:19:37.858Z</time></trkpt><trkpt lat="44.5554032" lon="7.9496985"><ele>433.0</ele><time>2026-04-11T08:19:39.872Z</time></trkpt><trkpt lat="44.5554827" lon="7.9497763"><ele>433.00000000000006</ele><time>2026-04-11T08:19:41.88Z</time></trkpt><trkpt lat="44.5555528" lon="7.949848"><ele>433.0</ele><time>2026-04-11T08:19:43.879Z</time></trkpt><trkpt lat="44.5556094" lon="7.9499106"><ele>433.0</ele><time>2026-04-11T08:19:45.876Z</time></trkpt><trkpt lat="44.5556792" lon="7.9499761"><ele>433.0</ele><time>2026-04-11T08:19:47.887Z</time></trkpt><trkpt lat="44.5557409" lon="7.9500471"><ele>433.00000000000006</ele><time>2026-04-11T08:19:49.839Z</time></trkpt><trkpt lat="44.5557929" lon="7.9501266"><ele>433.0</ele><time>2026-04-11T08:19:51.858Z</time></trkpt><trkpt lat="44.555839" lon="7.950204"><ele>432.33333333333337</ele><time>2026-04-11T08:19:53.864Z</time></trkpt><trkpt lat="44.5558844" lon="7.9502725"><ele>431.6666666666667</ele><time>2026-04-11T08:19:55.846Z</time></trkpt><trkpt lat="44.5559383" lon="7.9503446"><ele>431.0</ele><time>2026-04-11T08:19:57.854Z</time></trkpt><trkpt lat="44.5559991" lon="7.9504422"><ele>430.33333333333337</ele><time>2026-04-11T08:20:00.846Z</time></trkpt><trkpt lat="44.5560624" lon="7.9505341"><ele>429.6666666666667</ele><time>2026-04-11T08:20:03.833Z</time></trkpt><trkpt lat="44.5561216" lon="7.9506171"><ele>429.0</ele><time>2026-04-11T08:20:06.853Z</time></trkpt><trkpt lat="44.5561677" lon="7.9506811"><ele>429.8333333333333</ele><time>2026-04-11T08:20:09.858Z</time></trkpt><trkpt lat="44.5562377" lon="7.9507397"><ele>430.66666666666663</ele><time>2026-04-11T08:20:12.871Z</time></trkpt><trkpt lat="44.5562949" lon="7.9507808"><ele>431.5</ele><time>2026-04-11T08:20:14.871Z</time></trkpt><trkpt lat="44.5563708" lon="7.9508425"><ele>432.3333333333333</ele><time>2026-04-11T08:20:17.847Z</time></trkpt><trkpt lat="44.5564475" lon="7.9509019"><ele>433.16666666666663</ele><time>2026-04-11T08:20:20.855Z</time></trkpt><trkpt lat="44.5565039" lon="7.9509501"><ele>434.0</ele><time>2026-04-11T08:20:22.868Z</time></trkpt><trkpt lat="44.5565669" lon="7.9509746"><ele>433.99999999999994</ele><time>2026-04-11T08:20:24.858Z</time></trkpt><trkpt lat="44.556637" lon="7.9510029"><ele>434.0</ele><time>2026-04-11T08:20:26.847Z</time></trkpt><trkpt lat="44.5567101" lon="7.9510314"><ele>434.0</ele><time>2026-04-11T08:20:28.853Z</time></trkpt><trkpt lat="44.5567723" lon="7.9510615"><ele>434.0</ele><time>2026-04-11T08:20:30.849Z</time></trkpt><trkpt lat="44.5568308" lon="7.9511093"><ele>433.99999999999994</ele><time>2026-04-11T08:20:32.871Z</time></trkpt><trkpt lat="44.556875" lon="7.9511985"><ele>434.0</ele><time>2026-04-11T08:20:34.84Z</time></trkpt><trkpt lat="44.556897" lon="7.9513303"><ele>434.0</ele><time>2026-04-11T08:20:36.855Z</time></trkpt><trkpt lat="44.5569057" lon="7.9514414"><ele>434.0</ele><time>2026-04-11T08:20:38.85Z</time></trkpt><trkpt lat="44.5569168" lon="7.9515598"><ele>434.0</ele><time>2026-04-11T08:20:41.882Z</time></trkpt><trkpt lat="44.5569172" lon="7.9516574"><ele>434.0</ele><time>2026-04-11T08:20:44.868Z</time></trkpt><trkpt lat="44.5568986" lon="7.9517457"><ele>434.0</ele><time>2026-04-11T08:20:47.878Z</time></trkpt><trkpt lat="44.5569548" lon="7.9518028"><ele>434.0</ele><time>2026-04-11T08:20:51.86Z</time></trkpt><trkpt lat="44.5570193" lon="7.9517807"><ele>434.0</ele><time>2026-04-11T08:21:27.85Z</time></trkpt><trkpt lat="44.557059" lon="7.9518602"><ele>435.16666666666663</ele><time>2026-04-11T08:21:34.846Z</time></trkpt><trkpt lat="44.557132" lon="7.951926"><ele>436.3333333333333</ele><time>2026-04-11T08:22:33.859Z</time></trkpt><trkpt lat="44.5571012" lon="7.9518447"><ele>437.5</ele><time>2026-04-11T08:23:42.827Z</time></trkpt><trkpt lat="44.5571764" lon="7.9518436"><ele>438.66666666666663</ele><time>2026-04-11T08:24:03.908Z</time></trkpt><trkpt lat="44.5572538" lon="7.951779"><ele>439.8333333333333</ele><time>2026-04-11T08:24:06.077Z</time></trkpt><trkpt lat="44.5572762" lon="7.9516274"><ele>441.0</ele><time>2026-04-11T08:24:07.87Z</time></trkpt><trkpt lat="44.5572442" lon="7.9515364"><ele>437.20000000000005</ele><time>2026-04-11T08:24:08.888Z</time></trkpt><trkpt lat="44.5572069" lon="7.9513873"><ele>433.40000000000003</ele><time>2026-04-11T08:24:10.895Z</time></trkpt><trkpt lat="44.5572321" lon="7.9512588"><ele>429.6</ele><time>2026-04-11T08:24:12.881Z</time></trkpt><trkpt lat="44.55735" lon="7.9512594"><ele>425.8</ele><time>2026-04-11T08:24:14.882Z</time></trkpt><trkpt lat="44.5574159" lon="7.9512986"><ele>422.0</ele><time>2026-04-11T08:24:15.857Z</time></trkpt><trkpt lat="44.5574895" lon="7.9513444"><ele>422.0</ele><time>2026-04-11T08:24:16.891Z</time></trkpt><trkpt lat="44.5575719" lon="7.9513874"><ele>422.0</ele><time>2026-04-11T08:24:17.9Z</time></trkpt><trkpt lat="44.5576613" lon="7.9514251"><ele>422.0</ele><time>2026-04-11T08:24:18.892Z</time></trkpt><trkpt lat="44.5577618" lon="7.9514579"><ele>422.0</ele><time>2026-04-11T08:24:19.887Z</time></trkpt><trkpt lat="44.5578592" lon="7.9514976"><ele>422.0</ele><time>2026-04-11T08:24:20.897Z</time></trkpt><trkpt lat="44.5579569" lon="7.9515447"><ele>418.75</ele><time>2026-04-11T08:24:22.089Z</time></trkpt><trkpt lat="44.5581409" lon="7.951625"><ele>415.5</ele><time>2026-04-11T08:24:23.867Z</time></trkpt><trkpt lat="44.5582333" lon="7.9516473"><ele>412.25</ele><time>2026-04-11T08:24:24.916Z</time></trkpt><trkpt lat="44.558328" lon="7.9516521"><ele>409.0</ele><time>2026-04-11T08:24:25.902Z</time></trkpt><trkpt lat="44.5584212" lon="7.9516332"><ele>409.00000000000006</ele><time>2026-04-11T08:24:26.907Z</time></trkpt><trkpt lat="44.5585112" lon="7.9515952"><ele>409.0</ele><time>2026-04-11T08:24:27.896Z</time></trkpt><trkpt lat="44.5585973" lon="7.9515452"><ele>409.0</ele><time>2026-04-11T08:24:28.829Z</time></trkpt><trkpt lat="44.5586771" lon="7.9514987"><ele>409.0</ele><time>2026-04-11T08:24:29.883Z</time></trkpt><trkpt lat="44.5587609" lon="7.9514537"><ele>409.00000000000006</ele><time>2026-04-11T08:24:30.888Z</time></trkpt><trkpt lat="44.5588445" lon="7.9514245"><ele>409.0</ele><time>2026-04-11T08:24:31.895Z</time></trkpt><trkpt lat="44.5589322" lon="7.9514034"><ele>407.50000000000006</ele><time>2026-04-11T08:24:32.843Z</time></trkpt><trkpt lat="44.5590229" lon="7.9513867"><ele>406.0</ele><time>2026-04-11T08:24:33.884Z</time></trkpt><trkpt lat="44.5591083" lon="7.9513693"><ele>404.5</ele><time>2026-04-11T08:24:34.888Z</time></trkpt><trkpt lat="44.5591894" lon="7.9513543"><ele>403.0</ele><time>2026-04-11T08:24:35.89Z</time></trkpt><trkpt lat="44.5592655" lon="7.951338"><ele>401.50000000000006</ele><time>2026-04-11T08:24:36.901Z</time></trkpt><trkpt lat="44.5593368" lon="7.9513217"><ele>400.0</ele><time>2026-04-11T08:24:38.136Z</time></trkpt><trkpt lat="44.5594093" lon="7.9513088"><ele>396.4</ele><time>2026-04-11T08:24:39.138Z</time></trkpt><trkpt lat="44.5595525" lon="7.9513292"><ele>392.8</ele><time>2026-04-11T08:24:40.882Z</time></trkpt><trkpt lat="44.5596148" lon="7.9513507"><ele>389.20000000000005</ele><time>2026-04-11T08:24:41.85Z</time></trkpt><trkpt lat="44.5597062" lon="7.9513989"><ele>385.6</ele><time>2026-04-11T08:24:43.9Z</time></trkpt><trkpt lat="44.5597924" lon="7.9514598"><ele>382.0</ele><time>2026-04-11T08:24:46.87Z</time></trkpt><trkpt lat="44.5598671" lon="7.9515046"><ele>382.0</ele><time>2026-04-11T08:24:48.874Z</time></trkpt><trkpt lat="44.5599471" lon="7.9515097"><ele>382.0</ele><time>2026-04-11T08:24:50.893Z</time></trkpt><trkpt lat="44.5600031" lon="7.9514385"><ele>382.0</ele><time>2026-04-11T08:24:53.882Z</time></trkpt><trkpt lat="44.5600725" lon="7.951438"><ele>382.0</ele><time>2026-04-11T08:25:47.823Z</time></trkpt><trkpt lat="44.5601338" lon="7.95152"><ele>382.0</ele><time>2026-04-11T08:25:50.81Z</time></trkpt><trkpt lat="44.5602224" lon="7.9516244"><ele>382.0</ele><time>2026-04-11T08:25:53.839Z</time></trkpt><trkpt lat="44.5603175" lon="7.9517531"><ele>381.0</ele><time>2026-04-11T08:25:56.819Z</time></trkpt><trkpt lat="44.5603926" lon="7.951833"><ele>380.0</ele><time>2026-04-11T08:25:58.843Z</time></trkpt><trkpt lat="44.5604655" lon="7.9519048"><ele>379.0</ele><time>2026-04-11T08:26:00.832Z</time></trkpt><trkpt lat="44.5605844" lon="7.9520221"><ele>378.0</ele><time>2026-04-11T08:26:03.833Z</time></trkpt><trkpt lat="44.5606503" lon="7.9520866"><ele>377.0</ele><time>2026-04-11T08:26:05.847Z</time></trkpt><trkpt lat="44.5607177" lon="7.9521511"><ele>377.0</ele><time>2026-04-11T08:26:07.824Z</time></trkpt><trkpt lat="44.5607659" lon="7.9522085"><ele>377.0</ele><time>2026-04-11T08:26:09.825Z</time></trkpt><trkpt lat="44.5608213" lon="7.9522683"><ele>377.0</ele><time>2026-04-11T08:26:12.822Z</time></trkpt><trkpt lat="44.5608894" lon="7.9523596"><ele>377.0</ele><time>2026-04-11T08:26:17.845Z</time></trkpt><trkpt lat="44.5609455" lon="7.9524368"><ele>377.0</ele><time>2026-04-11T08:26:21.808Z</time></trkpt><trkpt lat="44.5609943" lon="7.952497"><ele>377.0</ele><time>2026-04-11T08:26:25.842Z</time></trkpt><trkpt lat="44.5610541" lon="7.9525742"><ele>375.6666666666667</ele><time>2026-04-11T08:26:29.814Z</time></trkpt><trkpt lat="44.5611022" lon="7.9526431"><ele>374.33333333333337</ele><time>2026-04-11T08:26:33.818Z</time></trkpt><trkpt lat="44.5611638" lon="7.9527201"><ele>373.0</ele><time>2026-04-11T08:26:39.849Z</time></trkpt><trkpt lat="44.5612342" lon="7.9527685"><ele>371.6666666666667</ele><time>2026-04-11T08:26:42.841Z</time></trkpt><trkpt lat="44.5613808" lon="7.9527776"><ele>370.3333333333333</ele><time>2026-04-11T08:26:45.822Z</time></trkpt><trkpt lat="44.5614455" lon="7.9527674"><ele>369.0</ele><time>2026-04-11T08:26:47.827Z</time></trkpt><trkpt lat="44.5615219" lon="7.9527611"><ele>369.0</ele><time>2026-04-11T08:26:49.859Z</time></trkpt><trkpt lat="44.5616098" lon="7.9527614"><ele>369.0</ele><time>2026-04-11T08:26:51.833Z</time></trkpt><trkpt lat="44.5616875" lon="7.9527605"><ele>369.0</ele><time>2026-04-11T08:26:53.819Z</time></trkpt><trkpt lat="44.5617715" lon="7.9527595"><ele>369.0</ele><time>2026-04-11T08:26:55.826Z</time></trkpt><trkpt lat="44.5618507" lon="7.9527693"><ele>369.0</ele><time>2026-04-11T08:26:57.822Z</time></trkpt><trkpt lat="44.561919" lon="7.9527821"><ele>369.0</ele><time>2026-04-11T08:26:59.825Z</time></trkpt><trkpt lat="44.5619834" lon="7.9527808"><ele>366.8333333333333</ele><time>2026-04-11T08:27:01.813Z</time></trkpt><trkpt lat="44.562053" lon="7.9528009"><ele>364.6666666666667</ele><time>2026-04-11T08:27:14.85Z</time></trkpt><trkpt lat="44.5621311" lon="7.9528308"><ele>362.5</ele><time>2026-04-11T08:27:25.836Z</time></trkpt><trkpt lat="44.5621785" lon="7.9529053"><ele>360.33333333333337</ele><time>2026-04-11T08:28:06.801Z</time></trkpt><trkpt lat="44.5621787" lon="7.953028"><ele>358.1666666666667</ele><time>2026-04-11T08:28:10.821Z</time></trkpt><trkpt lat="44.5621317" lon="7.9531247"><ele>356.0</ele><time>2026-04-11T08:28:13.877Z</time></trkpt><trkpt lat="44.5620731" lon="7.9531796"><ele>356.8</ele><time>2026-04-11T08:28:15.844Z</time></trkpt><trkpt lat="44.5619734" lon="7.9532635"><ele>357.6</ele><time>2026-04-11T08:28:18.824Z</time></trkpt><trkpt lat="44.5619047" lon="7.9533566"><ele>358.4</ele><time>2026-04-11T08:28:20.829Z</time></trkpt><trkpt lat="44.5618332" lon="7.9534411"><ele>359.2</ele><time>2026-04-11T08:28:22.814Z</time></trkpt><trkpt lat="44.5617449" lon="7.9535278"><ele>360.0</ele><time>2026-04-11T08:28:24.819Z</time></trkpt><trkpt lat="44.5616725" lon="7.9536207"><ele>360.0</ele><time>2026-04-11T08:28:26.834Z</time></trkpt><trkpt lat="44.561646" lon="7.9537878"><ele>360.0</ele><time>2026-04-11T08:28:29.806Z</time></trkpt><trkpt lat="44.5616467" lon="7.9539105"><ele>360.0</ele><time>2026-04-11T08:28:31.842Z</time></trkpt><trkpt lat="44.5616405" lon="7.9540437"><ele>360.0</ele><time>2026-04-11T08:28:33.873Z</time></trkpt><trkpt lat="44.561633" lon="7.9541879"><ele>360.0</ele><time>2026-04-11T08:28:35.835Z</time></trkpt><trkpt lat="44.5616188" lon="7.9543306"><ele>359.5</ele><time>2026-04-11T08:28:37.833Z</time></trkpt><trkpt lat="44.5616195" lon="7.9544721"><ele>359.0</ele><time>2026-04-11T08:28:39.868Z</time></trkpt><trkpt lat="44.5616042" lon="7.954664"><ele>358.5</ele><time>2026-04-11T08:28:42.821Z</time></trkpt><trkpt lat="44.5615986" lon="7.9548224"><ele>358.0</ele><time>2026-04-11T08:28:45.851Z</time></trkpt><trkpt lat="44.5616057" lon="7.9549957"><ele>359.2</ele><time>2026-04-11T08:28:49.839Z</time></trkpt><trkpt lat="44.5616119" lon="7.9550848"><ele>360.4</ele><time>2026-04-11T08:28:51.847Z</time></trkpt><trkpt lat="44.5616166" lon="7.9552175"><ele>361.59999999999997</ele><time>2026-04-11T08:28:54.833Z</time></trkpt><trkpt lat="44.5616158" lon="7.955335"><ele>362.79999999999995</ele><time>2026-04-11T08:28:57.828Z</time></trkpt><trkpt lat="44.5616174" lon="7.9554971"><ele>364.0</ele><time>2026-04-11T08:29:01.834Z</time></trkpt><trkpt lat="44.5616146" lon="7.9556303"><ele>364.0</ele><time>2026-04-11T08:29:05.845Z</time></trkpt><trkpt lat="44.5616115" lon="7.9557453"><ele>364.0</ele><time>2026-04-11T08:29:09.834Z</time></trkpt><trkpt lat="44.5615701" lon="7.9558458"><ele>364.0</ele><time>2026-04-11T08:29:13.859Z</time></trkpt><trkpt lat="44.5614924" lon="7.9558615"><ele>364.0</ele><time>2026-04-11T08:29:17.85Z</time></trkpt><trkpt lat="44.5614171" lon="7.9557883"><ele>364.0</ele><time>2026-04-11T08:29:24.847Z</time></trkpt><trkpt lat="44.5613742" lon="7.9557044"><ele>364.0</ele><time>2026-04-11T08:29:31.874Z</time></trkpt><trkpt lat="44.5613142" lon="7.9556691"><ele>364.0</ele><time>2026-04-11T08:29:38.82Z</time></trkpt><trkpt lat="44.5612421" lon="7.9556501"><ele>364.0</ele><time>2026-04-11T08:29:44.829Z</time></trkpt><trkpt lat="44.5611733" lon="7.955646"><ele>364.0</ele><time>2026-04-11T08:29:50.821Z</time></trkpt><trkpt lat="44.5610966" lon="7.9556984"><ele>364.0</ele><time>2026-04-11T08:30:09.823Z</time></trkpt><trkpt lat="44.5610429" lon="7.9557749"><ele>364.0</ele><time>2026-04-11T08:30:13.83Z</time></trkpt><trkpt lat="44.5609977" lon="7.9558702"><ele>364.0</ele><time>2026-04-11T08:30:18.863Z</time></trkpt><trkpt lat="44.560967" lon="7.9559518"><ele>364.8333333333333</ele><time>2026-04-11T08:30:23.821Z</time></trkpt><trkpt lat="44.5609062" lon="7.9560247"><ele>365.66666666666663</ele><time>2026-04-11T08:30:31.831Z</time></trkpt><trkpt lat="44.5608522" lon="7.9561179"><ele>366.5</ele><time>2026-04-11T08:30:39.836Z</time></trkpt><trkpt lat="44.5608014" lon="7.9561812"><ele>367.3333333333333</ele><time>2026-04-11T08:30:44.815Z</time></trkpt><trkpt lat="44.5607326" lon="7.9562249"><ele>368.1666666666667</ele><time>2026-04-11T08:30:49.812Z</time></trkpt><trkpt lat="44.56067" lon="7.956269"><ele>369.0</ele><time>2026-04-11T08:31:36.842Z</time></trkpt><trkpt lat="44.560593" lon="7.9563244"><ele>369.0</ele><time>2026-04-11T08:31:43.845Z</time></trkpt><trkpt lat="44.5605162" lon="7.9563917"><ele>369.0</ele><time>2026-04-11T08:31:49.826Z</time></trkpt><trkpt lat="44.5604329" lon="7.956451"><ele>369.0</ele><time>2026-04-11T08:31:55.819Z</time></trkpt><trkpt lat="44.5603726" lon="7.9564868"><ele>369.0</ele><time>2026-04-11T08:31:59.813Z</time></trkpt><trkpt lat="44.5602854" lon="7.9565373"><ele>369.0</ele><time>2026-04-11T08:32:05.847Z</time></trkpt><trkpt lat="44.56023" lon="7.9565907"><ele>369.0</ele><time>2026-04-11T08:32:09.828Z</time></trkpt><trkpt lat="44.560164" lon="7.9566405"><ele>372.2857142857143</ele><time>2026-04-11T08:32:13.847Z</time></trkpt><trkpt lat="44.560112" lon="7.9567093"><ele>375.57142857142856</ele><time>2026-04-11T08:32:17.814Z</time></trkpt><trkpt lat="44.5600634" lon="7.9567875"><ele>378.8571428571429</ele><time>2026-04-11T08:32:21.84Z</time></trkpt><trkpt lat="44.5600233" lon="7.9568581"><ele>382.1428571428571</ele><time>2026-04-11T08:32:25.832Z</time></trkpt><trkpt lat="44.5599523" lon="7.9569559"><ele>385.42857142857144</ele><time>2026-04-11T08:32:31.857Z</time></trkpt><trkpt lat="44.5599221" lon="7.9570345"><ele>388.7142857142857</ele><time>2026-04-11T08:32:35.831Z</time></trkpt><trkpt lat="44.5598842" lon="7.9571252"><ele>392.0</ele><time>2026-04-11T08:32:39.844Z</time></trkpt><trkpt lat="44.5598513" lon="7.9572183"><ele>392.0</ele><time>2026-04-11T08:32:43.846Z</time></trkpt><trkpt lat="44.5598175" lon="7.9573138"><ele>392.0</ele><time>2026-04-11T08:32:47.832Z</time></trkpt><trkpt lat="44.5598026" lon="7.957421"><ele>392.0</ele><time>2026-04-11T08:32:51.841Z</time></trkpt><trkpt lat="44.5597821" lon="7.9575177"><ele>392.0</ele><time>2026-04-11T08:32:55.859Z</time></trkpt><trkpt lat="44.559784" lon="7.9576249"><ele>392.0</ele><time>2026-04-11T08:32:59.86Z</time></trkpt><trkpt lat="44.5597985" lon="7.9577145"><ele>392.0</ele><time>2026-04-11T08:33:02.83Z</time></trkpt><trkpt lat="44.5598241" lon="7.9578211"><ele>392.0</ele><time>2026-04-11T08:33:06.827Z</time></trkpt><trkpt lat="44.5598676" lon="7.957923"><ele>393.66666666666663</ele><time>2026-04-11T08:33:10.814Z</time></trkpt><trkpt lat="44.5599106" lon="7.9580166"><ele>395.3333333333333</ele><time>2026-04-11T08:33:14.828Z</time></trkpt><trkpt lat="44.5599521" lon="7.9581098"><ele>397.0</ele><time>2026-04-11T08:33:18.815Z</time></trkpt><trkpt lat="44.5600221" lon="7.9582155"><ele>398.66666666666663</ele><time>2026-04-11T08:33:23.833Z</time></trkpt><trkpt lat="44.5600973" lon="7.9583015"><ele>400.3333333333333</ele><time>2026-04-11T08:33:28.813Z</time></trkpt><trkpt lat="44.5601492" lon="7.9583706"><ele>402.0</ele><time>2026-04-11T08:33:32.823Z</time></trkpt><trkpt lat="44.5602033" lon="7.9584407"><ele>400.6666666666667</ele><time>2026-04-11T08:33:36.824Z</time></trkpt><trkpt lat="44.5602447" lon="7.9585111"><ele>399.33333333333337</ele><time>2026-04-11T08:33:39.871Z</time></trkpt><trkpt lat="44.560311" lon="7.9586119"><ele>398.0</ele><time>2026-04-11T08:33:43.813Z</time></trkpt><trkpt lat="44.5603628" lon="7.9587119"><ele>396.6666666666667</ele><time>2026-04-11T08:33:47.814Z</time></trkpt><trkpt lat="44.5604129" lon="7.9588119"><ele>395.33333333333337</ele><time>2026-04-11T08:33:51.822Z</time></trkpt><trkpt lat="44.5604431" lon="7.9589125"><ele>394.0</ele><time>2026-04-11T08:33:55.826Z</time></trkpt><trkpt lat="44.5604838" lon="7.9590238"><ele>394.00000000000006</ele><time>2026-04-11T08:34:00.82Z</time></trkpt><trkpt lat="44.5605" lon="7.959125"><ele>394.0</ele><time>2026-04-11T08:34:05.824Z</time></trkpt><trkpt lat="44.5605016" lon="7.9592548"><ele>394.0</ele><time>2026-04-11T08:34:11.842Z</time></trkpt><trkpt lat="44.5605039" lon="7.959371"><ele>394.0</ele><time>2026-04-11T08:34:16.855Z</time></trkpt><trkpt lat="44.5604984" lon="7.9594646"><ele>394.00000000000006</ele><time>2026-04-11T08:34:20.819Z</time></trkpt><trkpt lat="44.560498" lon="7.9595602"><ele>394.0</ele><time>2026-04-11T08:34:24.831Z</time></trkpt><trkpt lat="44.5605111" lon="7.9596582"><ele>394.57142857142856</ele><time>2026-04-11T08:34:30.819Z</time></trkpt><trkpt lat="44.5605071" lon="7.9597603"><ele>395.14285714285717</ele><time>2026-04-11T08:34:39.858Z</time></trkpt><trkpt lat="44.5604957" lon="7.9598666"><ele>395.71428571428567</ele><time>2026-04-11T08:34:46.826Z</time></trkpt><trkpt lat="44.5604768" lon="7.9599665"><ele>396.2857142857143</ele><time>2026-04-11T08:34:53.83Z</time></trkpt><trkpt lat="44.5604593" lon="7.9600578"><ele>396.85714285714283</ele><time>2026-04-11T08:34:58.825Z</time></trkpt><trkpt lat="44.5604444" lon="7.9601566"><ele>397.4285714285714</ele><time>2026-04-11T08:35:05.849Z</time></trkpt><trkpt lat="44.5604123" lon="7.9602576"><ele>398.0</ele><time>2026-04-11T08:35:12.833Z</time></trkpt><trkpt lat="44.5603777" lon="7.9603582"><ele>401.49999999999994</ele><time>2026-04-11T08:35:18.821Z</time></trkpt><trkpt lat="44.5603301" lon="7.9604312"><ele>405.0</ele><time>2026-04-11T08:35:25.843Z</time></trkpt><trkpt lat="44.5603198" lon="7.9605339"><ele>408.5</ele><time>2026-04-11T08:35:32.84Z</time></trkpt><trkpt lat="44.5602772" lon="7.9606084"><ele>412.0</ele><time>2026-04-11T08:35:37.839Z</time></trkpt><trkpt lat="44.5602403" lon="7.9607119"><ele>415.49999999999994</ele><time>2026-04-11T08:35:43.84Z</time></trkpt><trkpt lat="44.560173" lon="7.9607937"><ele>419.0</ele><time>2026-04-11T08:35:50.826Z</time></trkpt><trkpt lat="44.5601249" lon="7.9608726"><ele>418.99999999999994</ele><time>2026-04-11T08:35:55.852Z</time></trkpt><trkpt lat="44.560079" lon="7.9609709"><ele>419.0</ele><time>2026-04-11T08:36:01.846Z</time></trkpt><trkpt lat="44.5600478" lon="7.9610623"><ele>419.0</ele><time>2026-04-11T08:36:06.845Z</time></trkpt><trkpt lat="44.5600413" lon="7.9611847"><ele>419.0</ele><time>2026-04-11T08:36:12.831Z</time></trkpt><trkpt lat="44.5600494" lon="7.9612946"><ele>418.99999999999994</ele><time>2026-04-11T08:36:19.831Z</time></trkpt><trkpt lat="44.5600616" lon="7.9613899"><ele>419.0</ele><time>2026-04-11T08:36:24.841Z</time></trkpt><trkpt lat="44.5600901" lon="7.9614888"><ele>418.99999999999994</ele><time>2026-04-11T08:36:31.832Z</time></trkpt><trkpt lat="44.5600787" lon="7.9615912"><ele>419.0</ele><time>2026-04-11T08:36:38.833Z</time></trkpt><trkpt lat="44.5600681" lon="7.9617045"><ele>419.0</ele><time>2026-04-11T08:36:47.841Z</time></trkpt><trkpt lat="44.5600759" lon="7.9618077"><ele>419.0</ele><time>2026-04-11T08:36:52.848Z</time></trkpt><trkpt lat="44.5600592" lon="7.9619003"><ele>419.0</ele><time>2026-04-11T08:36:58.817Z</time></trkpt><trkpt lat="44.5600389" lon="7.9620075"><ele>418.99999999999994</ele><time>2026-04-11T08:37:06.811Z</time></trkpt><trkpt lat="44.5600152" lon="7.9620901"><ele>419.0</ele><time>2026-04-11T08:37:11.84Z</time></trkpt><trkpt lat="44.5599939" lon="7.9621815"><ele>419.71428571428567</ele><time>2026-04-11T08:37:16.844Z</time></trkpt><trkpt lat="44.559999" lon="7.962284"><ele>420.42857142857144</ele><time>2026-04-11T08:37:21.815Z</time></trkpt><trkpt lat="44.5600061" lon="7.9623836"><ele>421.1428571428571</ele><time>2026-04-11T08:37:26.825Z</time></trkpt><trkpt lat="44.5600181" lon="7.962473"><ele>421.85714285714283</ele><time>2026-04-11T08:37:31.831Z</time></trkpt><trkpt lat="44.5600105" lon="7.9625763"><ele>422.57142857142856</ele><time>2026-04-11T08:37:38.834Z</time></trkpt><trkpt lat="44.5600218" lon="7.9626798"><ele>423.2857142857143</ele><time>2026-04-11T08:37:43.847Z</time></trkpt><trkpt lat="44.5600409" lon="7.9627645"><ele>424.0</ele><time>2026-04-11T08:37:48.817Z</time></trkpt><trkpt lat="44.5600591" lon="7.9628529"><ele>424.7142857142857</ele><time>2026-04-11T08:37:53.84Z</time></trkpt><trkpt lat="44.560081" lon="7.9629395"><ele>425.4285714285714</ele><time>2026-04-11T08:37:58.812Z</time></trkpt><trkpt lat="44.5600943" lon="7.9630399"><ele>426.1428571428571</ele><time>2026-04-11T08:38:03.844Z</time></trkpt><trkpt lat="44.5601116" lon="7.9631336"><ele>426.8571428571429</ele><time>2026-04-11T08:38:08.827Z</time></trkpt><trkpt lat="44.5601471" lon="7.9632231"><ele>427.57142857142856</ele><time>2026-04-11T08:38:13.855Z</time></trkpt><trkpt lat="44.5601689" lon="7.9633219"><ele>428.2857142857143</ele><time>2026-04-11T08:38:19.825Z</time></trkpt><trkpt lat="44.5601949" lon="7.9634119"><ele>429.0</ele><time>2026-04-11T08:38:24.824Z</time></trkpt><trkpt lat="44.5602404" lon="7.9634851"><ele>429.0</ele><time>2026-04-11T08:38:28.824Z</time></trkpt><trkpt lat="44.5602839" lon="7.9635518"><ele>429.0</ele><time>2026-04-11T08:38:32.824Z</time></trkpt><trkpt lat="44.5603237" lon="7.9636261"><ele>429.0</ele><time>2026-04-11T08:38:36.812Z</time></trkpt><trkpt lat="44.5603809" lon="7.9636834"><ele>429.0</ele><time>2026-04-11T08:45:26.837Z</time></trkpt><trkpt lat="44.560445" lon="7.9637535"><ele>429.0</ele><time>2026-04-11T08:45:31.835Z</time></trkpt><trkpt lat="44.5605047" lon="7.9638342"><ele>429.0</ele><time>2026-04-11T08:45:35.842Z</time></trkpt><trkpt lat="44.5605565" lon="7.9638918"><ele>429.0</ele><time>2026-04-11T08:45:38.839Z</time></trkpt><trkpt lat="44.5606134" lon="7.9639513"><ele>429.42857142857144</ele><time>2026-04-11T08:45:42.833Z</time></trkpt><trkpt lat="44.5606693" lon="7.9639968"><ele>429.8571428571429</ele><time>2026-04-11T08:45:45.828Z</time></trkpt><trkpt lat="44.5607268" lon="7.9640415"><ele>430.2857142857143</ele><time>2026-04-11T08:45:48.841Z</time></trkpt><trkpt lat="44.560791" lon="7.9640766"><ele>430.7142857142857</ele><time>2026-04-11T08:45:51.827Z</time></trkpt><trkpt lat="44.5608535" lon="7.9641106"><ele>431.1428571428571</ele><time>2026-04-11T08:45:54.839Z</time></trkpt><trkpt lat="44.5609269" lon="7.9641515"><ele>431.57142857142856</ele><time>2026-04-11T08:45:57.82Z</time></trkpt><trkpt lat="44.560998" lon="7.9641927"><ele>432.0</ele><time>2026-04-11T08:46:00.829Z</time></trkpt><trkpt lat="44.561077" lon="7.9642441"><ele>432.0</ele><time>2026-04-11T08:46:03.842Z</time></trkpt><trkpt lat="44.5611608" lon="7.9642902"><ele>432.0</ele><time>2026-04-11T08:46:06.831Z</time></trkpt><trkpt lat="44.5612252" lon="7.9643169"><ele>432.0</ele><time>2026-04-11T08:46:08.824Z</time></trkpt><trkpt lat="44.5612894" lon="7.9643375"><ele>432.0</ele><time>2026-04-11T08:46:10.821Z</time></trkpt><trkpt lat="44.5613555" lon="7.9643609"><ele>432.0</ele><time>2026-04-11T08:46:12.852Z</time></trkpt><trkpt lat="44.5614268" lon="7.9643673"><ele>432.0</ele><time>2026-04-11T08:46:14.822Z</time></trkpt><trkpt lat="44.5614944" lon="7.9643687"><ele>432.0</ele><time>2026-04-11T08:46:16.831Z</time></trkpt><trkpt lat="44.5615925" lon="7.9643627"><ele>431.0</ele><time>2026-04-11T08:46:19.832Z</time></trkpt><trkpt lat="44.561662" lon="7.9643655"><ele>430.0</ele><time>2026-04-11T08:46:21.827Z</time></trkpt><trkpt lat="44.561767" lon="7.9643627"><ele>429.0</ele><time>2026-04-11T08:46:24.851Z</time></trkpt><trkpt lat="44.5618442" lon="7.9643502"><ele>428.0</ele><time>2026-04-11T08:46:26.831Z</time></trkpt><trkpt lat="44.5619144" lon="7.9643318"><ele>427.0</ele><time>2026-04-11T08:47:03.833Z</time></trkpt><trkpt lat="44.5619894" lon="7.9643137"><ele>426.0</ele><time>2026-04-11T08:47:06.807Z</time></trkpt><trkpt lat="44.5620667" lon="7.9642856"><ele>425.6666666666667</ele><time>2026-04-11T08:47:08.83Z</time></trkpt><trkpt lat="44.5621733" lon="7.9642593"><ele>425.33333333333337</ele><time>2026-04-11T08:47:10.824Z</time></trkpt><trkpt lat="44.5622405" lon="7.9642417"><ele>425.0</ele><time>2026-04-11T08:47:11.795Z</time></trkpt><trkpt lat="44.5623075" lon="7.9642242"><ele>424.6666666666667</ele><time>2026-04-11T08:47:12.825Z</time></trkpt><trkpt lat="44.5623757" lon="7.9642125"><ele>424.33333333333337</ele><time>2026-04-11T08:47:13.836Z</time></trkpt><trkpt lat="44.5624483" lon="7.9641971"><ele>424.0</ele><time>2026-04-11T08:47:14.832Z</time></trkpt><trkpt lat="44.5625178" lon="7.9641865"><ele>424.00000000000006</ele><time>2026-04-11T08:47:15.842Z</time></trkpt><trkpt lat="44.5625937" lon="7.9641738"><ele>424.0</ele><time>2026-04-11T08:47:16.836Z</time></trkpt><trkpt lat="44.5626658" lon="7.9641569"><ele>424.0</ele><time>2026-04-11T08:47:17.829Z</time></trkpt><trkpt lat="44.5627308" lon="7.9641373"><ele>424.0</ele><time>2026-04-11T08:47:18.811Z</time></trkpt><trkpt lat="44.5627915" lon="7.9641093"><ele>424.00000000000006</ele><time>2026-04-11T08:47:19.833Z</time></trkpt><trkpt lat="44.5629063" lon="7.9640587"><ele>424.0</ele><time>2026-04-11T08:47:21.825Z</time></trkpt><trkpt lat="44.5629661" lon="7.9640308"><ele>422.6</ele><time>2026-04-11T08:47:22.816Z</time></trkpt><trkpt lat="44.5630612" lon="7.96398"><ele>421.2</ele><time>2026-04-11T08:47:24.875Z</time></trkpt><trkpt lat="44.5631702" lon="7.9639107"><ele>419.8</ele><time>2026-04-11T08:47:26.829Z</time></trkpt><trkpt lat="44.5632362" lon="7.9638694"><ele>418.40000000000003</ele><time>2026-04-11T08:47:27.829Z</time></trkpt><trkpt lat="44.5633586" lon="7.9637511"><ele>417.0</ele><time>2026-04-11T08:47:29.816Z</time></trkpt><trkpt lat="44.5634191" lon="7.9636843"><ele>417.0</ele><time>2026-04-11T08:47:30.828Z</time></trkpt><trkpt lat="44.5634838" lon="7.9636625"><ele>417.0</ele><time>2026-04-11T08:47:31.832Z</time></trkpt><trkpt lat="44.5635453" lon="7.963685"><ele>417.0</ele><time>2026-04-11T08:47:32.838Z</time></trkpt><trkpt lat="44.5636068" lon="7.9637454"><ele>417.0</ele><time>2026-04-11T08:47:33.83Z</time></trkpt><trkpt lat="44.5636691" lon="7.9638129"><ele>417.0</ele><time>2026-04-11T08:47:34.823Z</time></trkpt><trkpt lat="44.5637485" lon="7.963866"><ele>417.0</ele><time>2026-04-11T08:47:35.818Z</time></trkpt><trkpt lat="44.5638286" lon="7.9639294"><ele>416.20000000000005</ele><time>2026-04-11T08:47:36.837Z</time></trkpt><trkpt lat="44.5639725" lon="7.9640534"><ele>415.4</ele><time>2026-04-11T08:47:38.865Z</time></trkpt><trkpt lat="44.5640309" lon="7.9641261"><ele>414.6</ele><time>2026-04-11T08:47:39.831Z</time></trkpt><trkpt lat="44.5640771" lon="7.964218"><ele>413.79999999999995</ele><time>2026-04-11T08:47:40.84Z</time></trkpt><trkpt lat="44.5641173" lon="7.9643137"><ele>413.0</ele><time>2026-04-11T08:47:41.812Z</time></trkpt><trkpt lat="44.5641479" lon="7.9644028"><ele>412.99999999999994</ele><time>2026-04-11T08:47:42.836Z</time></trkpt><trkpt lat="44.5641772" lon="7.9644834"><ele>413.0</ele><time>2026-04-11T08:47:43.831Z</time></trkpt><trkpt lat="44.5641963" lon="7.9646656"><ele>413.0</ele><time>2026-04-11T08:47:46.838Z</time></trkpt><trkpt lat="44.5642039" lon="7.9647805"><ele>413.0</ele><time>2026-04-11T08:47:49.837Z</time></trkpt><trkpt lat="44.5642549" lon="7.9648545"><ele>412.99999999999994</ele><time>2026-04-11T08:47:51.838Z</time></trkpt><trkpt lat="44.5643046" lon="7.9649484"><ele>413.0</ele><time>2026-04-11T08:47:53.849Z</time></trkpt><trkpt lat="44.5643584" lon="7.9650353"><ele>413.66666666666663</ele><time>2026-04-11T08:47:55.838Z</time></trkpt><trkpt lat="44.5643989" lon="7.9651154"><ele>414.3333333333333</ele><time>2026-04-11T08:47:57.846Z</time></trkpt><trkpt lat="44.5644464" lon="7.9651935"><ele>415.0</ele><time>2026-04-11T08:47:59.829Z</time></trkpt><trkpt lat="44.5644971" lon="7.9652739"><ele>415.66666666666663</ele><time>2026-04-11T08:48:01.836Z</time></trkpt><trkpt lat="44.5645487" lon="7.965345"><ele>416.3333333333333</ele><time>2026-04-11T08:48:03.826Z</time></trkpt><trkpt lat="44.564609" lon="7.9654274"><ele>417.0</ele><time>2026-04-11T08:48:05.816Z</time></trkpt><trkpt lat="44.5646842" lon="7.9655014"><ele>415.8</ele><time>2026-04-11T08:48:07.838Z</time></trkpt><trkpt lat="44.5647558" lon="7.9655778"><ele>414.6</ele><time>2026-04-11T08:48:09.924Z</time></trkpt><trkpt lat="44.5648218" lon="7.9656592"><ele>413.40000000000003</ele><time>2026-04-11T08:48:11.878Z</time></trkpt><trkpt lat="44.5648958" lon="7.9657294"><ele>412.20000000000005</ele><time>2026-04-11T08:48:14.074Z</time></trkpt><trkpt lat="44.5649644" lon="7.9658231"><ele>411.0</ele><time>2026-04-11T08:48:15.88Z</time></trkpt><trkpt lat="44.5650171" lon="7.9659505"><ele>411.0</ele><time>2026-04-11T08:48:17.865Z</time></trkpt><trkpt lat="44.5650297" lon="7.9661656"><ele>411.0</ele><time>2026-04-11T08:48:20.88Z</time></trkpt><trkpt lat="44.5650259" lon="7.9663209"><ele>411.0</ele><time>2026-04-11T08:48:23.055Z</time></trkpt><trkpt lat="44.5650193" lon="7.9664707"><ele>411.0</ele><time>2026-04-11T08:48:24.856Z</time></trkpt><trkpt lat="44.5650142" lon="7.9666198"><ele>411.75</ele><time>2026-04-11T08:48:26.876Z</time></trkpt><trkpt lat="44.5650195" lon="7.9669032"><ele>412.5</ele><time>2026-04-11T08:48:30.848Z</time></trkpt><trkpt lat="44.5650231" lon="7.9670414"><ele>413.25</ele><time>2026-04-11T08:48:33.073Z</time></trkpt><trkpt lat="44.5650293" lon="7.9671721"><ele>414.0</ele><time>2026-04-11T08:48:34.868Z</time></trkpt><trkpt lat="44.565036" lon="7.9673057"><ele>414.0</ele><time>2026-04-11T08:48:37.049Z</time></trkpt><trkpt lat="44.5650573" lon="7.9675133"><ele>414.0</ele><time>2026-04-11T08:48:39.874Z</time></trkpt><trkpt lat="44.5650888" lon="7.9676485"><ele>414.0</ele><time>2026-04-11T08:48:41.862Z</time></trkpt><trkpt lat="44.5651396" lon="7.9677625"><ele>414.0</ele><time>2026-04-11T08:48:44.011Z</time></trkpt><trkpt lat="44.5652073" lon="7.9678675"><ele>414.0</ele><time>2026-04-11T08:48:45.87Z</time></trkpt><trkpt lat="44.5652855" lon="7.9679636"><ele>413.0</ele><time>2026-04-11T08:48:47.856Z</time></trkpt><trkpt lat="44.5654142" lon="7.9680861"><ele>412.0</ele><time>2026-04-11T08:48:51.053Z</time></trkpt><trkpt lat="44.5655135" lon="7.9681612"><ele>411.0</ele><time>2026-04-11T08:48:53.08Z</time></trkpt><trkpt lat="44.5656622" lon="7.9682633"><ele>410.0</ele><time>2026-04-11T08:48:56.073Z</time></trkpt><trkpt lat="44.5657671" lon="7.9683236"><ele>412.75</ele><time>2026-04-11T08:48:57.81Z</time></trkpt><trkpt lat="44.5658766" lon="7.9683847"><ele>415.5</ele><time>2026-04-11T08:48:59.876Z</time></trkpt><trkpt lat="44.565986" lon="7.9684313"><ele>418.25</ele><time>2026-04-11T08:49:02.065Z</time></trkpt><trkpt lat="44.5660975" lon="7.9684914"><ele>421.0</ele><time>2026-04-11T08:49:04.059Z</time></trkpt><trkpt lat="44.566215" lon="7.9685362"><ele>421.0</ele><time>2026-04-11T08:49:05.851Z</time></trkpt><trkpt lat="44.5663304" lon="7.9685635"><ele>421.0</ele><time>2026-04-11T08:49:07.883Z</time></trkpt><trkpt lat="44.5664468" lon="7.9685656"><ele>421.0</ele><time>2026-04-11T08:49:09.879Z</time></trkpt><trkpt lat="44.5665583" lon="7.9685459"><ele>421.0</ele><time>2026-04-11T08:49:11.861Z</time></trkpt><trkpt lat="44.5667233" lon="7.9684881"><ele>421.0</ele><time>2026-04-11T08:49:14.849Z</time></trkpt><trkpt lat="44.5668393" lon="7.968449"><ele>421.0</ele><time>2026-04-11T08:49:16.876Z</time></trkpt><trkpt lat="44.5669564" lon="7.9684107"><ele>421.0</ele><time>2026-04-11T08:49:18.839Z</time></trkpt><trkpt lat="44.5670679" lon="7.9683504"><ele>421.0</ele><time>2026-04-11T08:49:20.868Z</time></trkpt><trkpt lat="44.5672399" lon="7.9682553"><ele>419.20000000000005</ele><time>2026-04-11T08:49:24.044Z</time></trkpt><trkpt lat="44.5673525" lon="7.9681988"><ele>417.40000000000003</ele><time>2026-04-11T08:49:25.875Z</time></trkpt><trkpt lat="44.5674417" lon="7.9681409"><ele>415.6</ele><time>2026-04-11T08:49:27.875Z</time></trkpt><trkpt lat="44.5675176" lon="7.9680958"><ele>413.8</ele><time>2026-04-11T08:49:29.877Z</time></trkpt><trkpt lat="44.567593" lon="7.9680415"><ele>412.0</ele><time>2026-04-11T08:49:32.08Z</time></trkpt><trkpt lat="44.567676" lon="7.967977"><ele>412.0</ele><time>2026-04-11T08:49:34.086Z</time></trkpt><trkpt lat="44.5677549" lon="7.967913"><ele>412.0</ele><time>2026-04-11T08:49:35.878Z</time></trkpt><trkpt lat="44.5678472" lon="7.967868"><ele>412.0</ele><time>2026-04-11T08:49:38.133Z</time></trkpt><trkpt lat="44.567954" lon="7.967842"><ele>412.0</ele><time>2026-04-11T08:49:39.888Z</time></trkpt><trkpt lat="44.5680653" lon="7.9678238"><ele>412.0</ele><time>2026-04-11T08:49:42.054Z</time></trkpt><trkpt lat="44.5681669" lon="7.9678218"><ele>411.25</ele><time>2026-04-11T08:49:44.055Z</time></trkpt><trkpt lat="44.5682741" lon="7.9678248"><ele>410.5</ele><time>2026-04-11T08:49:45.872Z</time></trkpt><trkpt lat="44.5683962" lon="7.9678438"><ele>409.75</ele><time>2026-04-11T08:49:47.8Z</time></trkpt><trkpt lat="44.5685735" lon="7.9678963"><ele>409.0</ele><time>2026-04-11T08:49:50.864Z</time></trkpt><trkpt lat="44.5687414" lon="7.9679553"><ele>409.00000000000006</ele><time>2026-04-11T08:49:54.102Z</time></trkpt><trkpt lat="44.5688367" lon="7.9679949"><ele>409.0</ele><time>2026-04-11T08:49:55.888Z</time></trkpt><trkpt lat="44.5689137" lon="7.9680051"><ele>409.0</ele><time>2026-04-11T08:49:57.869Z</time></trkpt><trkpt lat="44.568982" lon="7.9680312"><ele>409.0</ele><time>2026-04-11T08:49:59.81Z</time></trkpt><trkpt lat="44.5691036" lon="7.9680845"><ele>409.00000000000006</ele><time>2026-04-11T08:50:03.869Z</time></trkpt><trkpt lat="44.5691692" lon="7.9681034"><ele>409.0</ele><time>2026-04-11T08:50:05.888Z</time></trkpt><trkpt lat="44.5692341" lon="7.9681284"><ele>409.00000000000006</ele><time>2026-04-11T08:50:07.886Z</time></trkpt><trkpt lat="44.5693026" lon="7.9681459"><ele>409.0</ele><time>2026-04-11T08:50:09.875Z</time></trkpt><trkpt lat="44.5693689" lon="7.9681624"><ele>409.0</ele><time>2026-04-11T08:50:12.071Z</time></trkpt><trkpt lat="44.5694379" lon="7.9681836"><ele>409.0</ele><time>2026-04-11T08:50:14.156Z</time></trkpt><trkpt lat="44.5695086" lon="7.9682112"><ele>409.00000000000006</ele><time>2026-04-11T08:50:16.057Z</time></trkpt><trkpt lat="44.5695751" lon="7.9682329"><ele>409.0</ele><time>2026-04-11T08:50:18.075Z</time></trkpt><trkpt lat="44.569677" lon="7.9682544"><ele>409.0</ele><time>2026-04-11T08:50:21.056Z</time></trkpt><trkpt lat="44.5697395" lon="7.9682666"><ele>409.0</ele><time>2026-04-11T08:50:23.071Z</time></trkpt><trkpt lat="44.5698604" lon="7.9682687"><ele>409.0</ele><time>2026-04-11T08:50:26.858Z</time></trkpt><trkpt lat="44.569973" lon="7.968264"><ele>409.0</ele><time>2026-04-11T08:50:30.843Z</time></trkpt><trkpt lat="44.5701294" lon="7.9682384"><ele>409.00000000000006</ele><time>2026-04-11T08:50:35.859Z</time></trkpt><trkpt lat="44.5702091" lon="7.9682269"><ele>409.0</ele><time>2026-04-11T08:50:38.86Z</time></trkpt><trkpt lat="44.5702972" lon="7.9682216"><ele>409.0</ele><time>2026-04-11T08:50:42.051Z</time></trkpt><trkpt lat="44.5703892" lon="7.9682261"><ele>409.0</ele><time>2026-04-11T08:50:44.878Z</time></trkpt><trkpt lat="44.5704823" lon="7.9682366"><ele>409.00000000000006</ele><time>2026-04-11T08:50:47.866Z</time></trkpt><trkpt lat="44.5705682" lon="7.9682494"><ele>409.0</ele><time>2026-04-11T08:50:50.862Z</time></trkpt><trkpt lat="44.5706542" lon="7.9682636"><ele>410.79999999999995</ele><time>2026-04-11T08:50:53.89Z</time></trkpt><trkpt lat="44.5707352" lon="7.968273"><ele>412.59999999999997</ele><time>2026-04-11T08:50:56.799Z</time></trkpt><trkpt lat="44.5708165" lon="7.9682759"><ele>414.4</ele><time>2026-04-11T08:50:59.874Z</time></trkpt><trkpt lat="44.5708997" lon="7.9682647"><ele>416.2</ele><time>2026-04-11T08:51:02.878Z</time></trkpt><trkpt lat="44.5709896" lon="7.9682498"><ele>418.0</ele><time>2026-04-11T08:51:05.829Z</time></trkpt><trkpt lat="44.5710982" lon="7.9682069"><ele>418.0</ele><time>2026-04-11T08:51:09.882Z</time></trkpt><trkpt lat="44.5711807" lon="7.9681664"><ele>418.0</ele><time>2026-04-11T08:51:13.049Z</time></trkpt><trkpt lat="44.5712385" lon="7.9681274"><ele>418.0</ele><time>2026-04-11T08:51:14.879Z</time></trkpt><trkpt lat="44.5712983" lon="7.968091"><ele>418.0</ele><time>2026-04-11T08:51:16.852Z</time></trkpt><trkpt lat="44.5713597" lon="7.9680475"><ele>418.0</ele><time>2026-04-11T08:51:19.046Z</time></trkpt><trkpt lat="44.571429" lon="7.9680333"><ele>418.0</ele><time>2026-04-11T08:51:20.876Z</time></trkpt><trkpt lat="44.5715043" lon="7.9680323"><ele>418.0</ele><time>2026-04-11T08:51:23.072Z</time></trkpt><trkpt lat="44.571607" lon="7.9680629"><ele>418.00000000000006</ele><time>2026-04-11T08:51:25.854Z</time></trkpt><trkpt lat="44.5716713" lon="7.9680946"><ele>418.0</ele><time>2026-04-11T08:51:27.874Z</time></trkpt><trkpt lat="44.5717361" lon="7.9681322"><ele>418.0</ele><time>2026-04-11T08:51:29.872Z</time></trkpt><trkpt lat="44.571808" lon="7.9681707"><ele>418.0</ele><time>2026-04-11T08:51:31.881Z</time></trkpt><trkpt lat="44.5718743" lon="7.9682156"><ele>418.00000000000006</ele><time>2026-04-11T08:51:33.862Z</time></trkpt><trkpt lat="44.5719684" lon="7.9682765"><ele>418.0</ele><time>2026-04-11T08:51:36.881Z</time></trkpt><trkpt lat="44.5720358" lon="7.9683208"><ele>417.50000000000006</ele><time>2026-04-11T08:51:38.871Z</time></trkpt><trkpt lat="44.5721032" lon="7.9683722"><ele>417.0</ele><time>2026-04-11T08:51:40.875Z</time></trkpt><trkpt lat="44.5722052" lon="7.968442"><ele>416.5</ele><time>2026-04-11T08:51:43.874Z</time></trkpt><trkpt lat="44.5722832" lon="7.968479"><ele>416.0</ele><time>2026-04-11T08:51:45.881Z</time></trkpt><trkpt lat="44.572348" lon="7.9685271"><ele>415.50000000000006</ele><time>2026-04-11T08:51:47.861Z</time></trkpt><trkpt lat="44.5724158" lon="7.9685629"><ele>415.0</ele><time>2026-04-11T08:51:49.887Z</time></trkpt><trkpt lat="44.5724801" lon="7.9686036"><ele>415.00000000000006</ele><time>2026-04-11T08:51:51.872Z</time></trkpt><trkpt lat="44.5725455" lon="7.9686389"><ele>415.0</ele><time>2026-04-11T08:51:53.91Z</time></trkpt><trkpt lat="44.5726123" lon="7.9686732"><ele>415.0</ele><time>2026-04-11T08:51:55.882Z</time></trkpt><trkpt lat="44.5726753" lon="7.9687116"><ele>415.0</ele><time>2026-04-11T08:51:57.878Z</time></trkpt><trkpt lat="44.5727391" lon="7.9687522"><ele>415.00000000000006</ele><time>2026-04-11T08:51:59.883Z</time></trkpt><trkpt lat="44.5728324" lon="7.9688025"><ele>415.0</ele><time>2026-04-11T08:52:02.882Z</time></trkpt><trkpt lat="44.5728927" lon="7.9688571"><ele>414.1666666666667</ele><time>2026-04-11T08:52:04.865Z</time></trkpt><trkpt lat="44.5729439" lon="7.9689174"><ele>413.33333333333337</ele><time>2026-04-11T08:52:06.886Z</time></trkpt><trkpt lat="44.5729942" lon="7.9689763"><ele>412.5</ele><time>2026-04-11T08:52:08.897Z</time></trkpt><trkpt lat="44.5730531" lon="7.9690701"><ele>411.66666666666663</ele><time>2026-04-11T08:52:11.817Z</time></trkpt><trkpt lat="44.5731018" lon="7.9691601"><ele>410.8333333333333</ele><time>2026-04-11T08:52:14.884Z</time></trkpt><trkpt lat="44.5731481" lon="7.9692529"><ele>410.0</ele><time>2026-04-11T08:52:17.859Z</time></trkpt><trkpt lat="44.5731942" lon="7.9693343"><ele>409.99999999999994</ele><time>2026-04-11T08:52:20.871Z</time></trkpt><trkpt lat="44.5732595" lon="7.9694384"><ele>410.0</ele><time>2026-04-11T08:52:24.817Z</time></trkpt><trkpt lat="44.5733102" lon="7.969506"><ele>410.0</ele><time>2026-04-11T08:52:27.819Z</time></trkpt><trkpt lat="44.5733653" lon="7.969568"><ele>410.0</ele><time>2026-04-11T08:52:30.82Z</time></trkpt><trkpt lat="44.5734255" lon="7.9696299"><ele>409.99999999999994</ele><time>2026-04-11T08:52:33.911Z</time></trkpt><trkpt lat="44.5734939" lon="7.9696693"><ele>410.0</ele><time>2026-04-11T08:52:36.816Z</time></trkpt><trkpt lat="44.5735587" lon="7.969717"><ele>409.99999999999994</ele><time>2026-04-11T08:52:39.822Z</time></trkpt><trkpt lat="44.573636" lon="7.9697471"><ele>410.0</ele><time>2026-04-11T08:52:42.937Z</time></trkpt><trkpt lat="44.5737104" lon="7.9697751"><ele>410.0</ele><time>2026-04-11T08:52:45.818Z</time></trkpt><trkpt lat="44.573786" lon="7.9698121"><ele>410.0</ele><time>2026-04-11T08:52:48.927Z</time></trkpt><trkpt lat="44.57386" lon="7.9698393"><ele>409.99999999999994</ele><time>2026-04-11T08:52:51.93Z</time></trkpt><trkpt lat="44.5739425" lon="7.9698728"><ele>410.0</ele><time>2026-04-11T08:52:54.836Z</time></trkpt><trkpt lat="44.5740201" lon="7.9699094"><ele>409.4</ele><time>2026-04-11T08:52:57.81Z</time></trkpt><trkpt lat="44.5741044" lon="7.969933"><ele>408.8</ele><time>2026-04-11T08:53:00.817Z</time></trkpt><trkpt lat="44.5742049" lon="7.9699564"><ele>408.20000000000005</ele><time>2026-04-11T08:53:04.795Z</time></trkpt><trkpt lat="44.5742785" lon="7.969979"><ele>407.6</ele><time>2026-04-11T08:53:07.808Z</time></trkpt><trkpt lat="44.5743605" lon="7.9699997"><ele>407.0</ele><time>2026-04-11T08:53:10.935Z</time></trkpt><trkpt lat="44.5744703" lon="7.9700262"><ele>408.49999999999994</ele><time>2026-04-11T08:53:14.815Z</time></trkpt><trkpt lat="44.5745521" lon="7.9700453"><ele>410.0</ele><time>2026-04-11T08:53:17.813Z</time></trkpt><trkpt lat="44.5746285" lon="7.9700642"><ele>411.5</ele><time>2026-04-11T08:53:20.808Z</time></trkpt><trkpt lat="44.5747034" lon="7.9700962"><ele>413.0</ele><time>2026-04-11T08:53:23.927Z</time></trkpt><trkpt lat="44.5747774" lon="7.9701168"><ele>414.49999999999994</ele><time>2026-04-11T08:53:26.816Z</time></trkpt><trkpt lat="44.5748482" lon="7.9701444"><ele>416.0</ele><time>2026-04-11T08:53:29.816Z</time></trkpt><trkpt lat="44.5749196" lon="7.9701768"><ele>415.99999999999994</ele><time>2026-04-11T08:53:32.838Z</time></trkpt><trkpt lat="44.5749909" lon="7.9702104"><ele>416.0</ele><time>2026-04-11T08:53:35.812Z</time></trkpt><trkpt lat="44.5750663" lon="7.9702375"><ele>416.0</ele><time>2026-04-11T08:53:38.942Z</time></trkpt><trkpt lat="44.5751429" lon="7.9702643"><ele>416.0</ele><time>2026-04-11T08:53:41.806Z</time></trkpt><trkpt lat="44.5752249" lon="7.9702961"><ele>415.99999999999994</ele><time>2026-04-11T08:53:44.802Z</time></trkpt><trkpt lat="44.5752994" lon="7.9703288"><ele>416.0</ele><time>2026-04-11T08:53:47.797Z</time></trkpt><trkpt lat="44.5753681" lon="7.9703627"><ele>417.3333333333333</ele><time>2026-04-11T08:53:50.808Z</time></trkpt><trkpt lat="44.5754455" lon="7.9704012"><ele>418.66666666666663</ele><time>2026-04-11T08:53:53.92Z</time></trkpt><trkpt lat="44.5755173" lon="7.970439"><ele>420.0</ele><time>2026-04-11T08:53:56.814Z</time></trkpt><trkpt lat="44.5755973" lon="7.9704744"><ele>421.33333333333337</ele><time>2026-04-11T08:53:59.813Z</time></trkpt><trkpt lat="44.5756769" lon="7.9705075"><ele>422.6666666666667</ele><time>2026-04-11T08:54:02.955Z</time></trkpt><trkpt lat="44.5757548" lon="7.9705253"><ele>424.0</ele><time>2026-04-11T08:54:05.805Z</time></trkpt><trkpt lat="44.5758306" lon="7.970539"><ele>424.0</ele><time>2026-04-11T08:54:08.952Z</time></trkpt><trkpt lat="44.5759072" lon="7.9705476"><ele>424.0</ele><time>2026-04-11T08:54:11.958Z</time></trkpt><trkpt lat="44.5760133" lon="7.970535"><ele>424.0</ele><time>2026-04-11T08:54:15.813Z</time></trkpt><trkpt lat="44.5760991" lon="7.970507"><ele>424.0</ele><time>2026-04-11T08:54:18.895Z</time></trkpt><trkpt lat="44.576178" lon="7.9704692"><ele>424.0</ele><time>2026-04-11T08:54:22.085Z</time></trkpt><trkpt lat="44.5762741" lon="7.9704063"><ele>424.1666666666667</ele><time>2026-04-11T08:54:25.821Z</time></trkpt><trkpt lat="44.5763508" lon="7.9703544"><ele>424.33333333333337</ele><time>2026-04-11T08:54:28.794Z</time></trkpt><trkpt lat="44.5764292" lon="7.9702946"><ele>424.5</ele><time>2026-04-11T08:54:31.829Z</time></trkpt><trkpt lat="44.5765061" lon="7.9702418"><ele>424.66666666666663</ele><time>2026-04-11T08:54:34.803Z</time></trkpt><trkpt lat="44.5765819" lon="7.970207"><ele>424.8333333333333</ele><time>2026-04-11T08:54:37.817Z</time></trkpt><trkpt lat="44.5766593" lon="7.9701808"><ele>425.0</ele><time>2026-04-11T08:54:40.791Z</time></trkpt><trkpt lat="44.5767331" lon="7.9701538"><ele>424.99999999999994</ele><time>2026-04-11T08:54:43.995Z</time></trkpt><trkpt lat="44.5768074" lon="7.9701382"><ele>425.0</ele><time>2026-04-11T08:54:46.821Z</time></trkpt><trkpt lat="44.5769056" lon="7.9701169"><ele>425.0</ele><time>2026-04-11T08:54:50.823Z</time></trkpt><trkpt lat="44.5770019" lon="7.9700998"><ele>425.0</ele><time>2026-04-11T08:54:54.893Z</time></trkpt><trkpt lat="44.5770743" lon="7.9700861"><ele>424.99999999999994</ele><time>2026-04-11T08:54:58.064Z</time></trkpt><trkpt lat="44.5771431" lon="7.9700833"><ele>425.0</ele><time>2026-04-11T08:55:00.876Z</time></trkpt><trkpt lat="44.5772128" lon="7.9700826"><ele>425.85714285714283</ele><time>2026-04-11T08:55:03.905Z</time></trkpt><trkpt lat="44.5772816" lon="7.9701022"><ele>426.71428571428567</ele><time>2026-04-11T08:55:06.942Z</time></trkpt><trkpt lat="44.5773477" lon="7.9701335"><ele>427.57142857142856</ele><time>2026-04-11T08:55:09.814Z</time></trkpt><trkpt lat="44.5774113" lon="7.9701624"><ele>428.42857142857144</ele><time>2026-04-11T08:55:12.792Z</time></trkpt><trkpt lat="44.5774795" lon="7.9702035"><ele>429.2857142857143</ele><time>2026-04-11T08:55:15.79Z</time></trkpt><trkpt lat="44.5775372" lon="7.9702432"><ele>430.14285714285717</ele><time>2026-04-11T08:55:18.801Z</time></trkpt><trkpt lat="44.5775964" lon="7.9702982"><ele>431.0</ele><time>2026-04-11T08:55:21.797Z</time></trkpt><trkpt lat="44.5776557" lon="7.9703506"><ele>431.0</ele><time>2026-04-11T08:55:24.815Z</time></trkpt><trkpt lat="44.5777137" lon="7.9703917"><ele>431.0</ele><time>2026-04-11T08:55:27.798Z</time></trkpt><trkpt lat="44.5777808" lon="7.9704162"><ele>431.0</ele><time>2026-04-11T08:55:30.795Z</time></trkpt><trkpt lat="44.5778462" lon="7.9704238"><ele>431.0</ele><time>2026-04-11T08:55:33.777Z</time></trkpt><trkpt lat="44.5779159" lon="7.9704093"><ele>431.0</ele><time>2026-04-11T08:55:36.81Z</time></trkpt><trkpt lat="44.5779865" lon="7.9703697"><ele>431.0</ele><time>2026-04-11T08:55:39.793Z</time></trkpt><trkpt lat="44.5780471" lon="7.9703129"><ele>431.0</ele><time>2026-04-11T08:55:42.798Z</time></trkpt><trkpt lat="44.5780964" lon="7.9702406"><ele>430.7142857142857</ele><time>2026-04-11T08:55:45.812Z</time></trkpt><trkpt lat="44.57814" lon="7.9701603"><ele>430.4285714285714</ele><time>2026-04-11T08:55:48.817Z</time></trkpt><trkpt lat="44.5781843" lon="7.9700831"><ele>430.1428571428571</ele><time>2026-04-11T08:55:51.824Z</time></trkpt><trkpt lat="44.5782222" lon="7.9700032"><ele>429.8571428571429</ele><time>2026-04-11T08:55:54.791Z</time></trkpt><trkpt lat="44.5782596" lon="7.969916"><ele>429.57142857142856</ele><time>2026-04-11T08:55:57.791Z</time></trkpt><trkpt lat="44.5783081" lon="7.9698301"><ele>429.2857142857143</ele><time>2026-04-11T08:56:00.793Z</time></trkpt><trkpt lat="44.5783422" lon="7.9697543"><ele>429.0</ele><time>2026-04-11T08:56:03.811Z</time></trkpt><trkpt lat="44.5783757" lon="7.9696655"><ele>431.5</ele><time>2026-04-11T08:56:06.893Z</time></trkpt><trkpt lat="44.5784239" lon="7.9695581"><ele>434.0</ele><time>2026-04-11T08:56:10.837Z</time></trkpt><trkpt lat="44.578458" lon="7.9694782"><ele>436.5</ele><time>2026-04-11T08:56:14.08Z</time></trkpt><trkpt lat="44.5785222" lon="7.9693553"><ele>439.0</ele><time>2026-04-11T08:56:17.843Z</time></trkpt><trkpt lat="44.5785647" lon="7.9692715"><ele>441.5</ele><time>2026-04-11T08:56:20.88Z</time></trkpt><trkpt lat="44.5786" lon="7.9691814"><ele>444.0</ele><time>2026-04-11T08:56:23.852Z</time></trkpt><trkpt lat="44.5786397" lon="7.9690946"><ele>444.57142857142856</ele><time>2026-04-11T08:56:26.876Z</time></trkpt><trkpt lat="44.5786767" lon="7.9690208"><ele>445.14285714285717</ele><time>2026-04-11T08:56:29.904Z</time></trkpt><trkpt lat="44.5787281" lon="7.9689462"><ele>445.7142857142857</ele><time>2026-04-11T08:56:32.876Z</time></trkpt><trkpt lat="44.5787879" lon="7.9688812"><ele>446.2857142857143</ele><time>2026-04-11T08:56:35.857Z</time></trkpt><trkpt lat="44.5788437" lon="7.9688221"><ele>446.8571428571429</ele><time>2026-04-11T08:56:38.876Z</time></trkpt><trkpt lat="44.5789072" lon="7.9687671"><ele>447.42857142857144</ele><time>2026-04-11T08:56:41.884Z</time></trkpt><trkpt lat="44.5789704" lon="7.9687271"><ele>448.0</ele><time>2026-04-11T08:56:44.803Z</time></trkpt><trkpt lat="44.5790422" lon="7.9686929"><ele>448.0</ele><time>2026-04-11T08:56:47.815Z</time></trkpt><trkpt lat="44.5791135" lon="7.9686691"><ele>448.0</ele><time>2026-04-11T08:56:50.803Z</time></trkpt><trkpt lat="44.5792031" lon="7.9686475"><ele>448.0</ele><time>2026-04-11T08:56:54.821Z</time></trkpt><trkpt lat="44.5792708" lon="7.9686426"><ele>448.0</ele><time>2026-04-11T08:56:57.923Z</time></trkpt><trkpt lat="44.5793343" lon="7.9686502"><ele>448.0</ele><time>2026-04-11T08:57:00.805Z</time></trkpt><trkpt lat="44.5793992" lon="7.9686648"><ele>448.0</ele><time>2026-04-11T08:57:03.876Z</time></trkpt><trkpt lat="44.5794858" lon="7.9686863"><ele>448.0</ele><time>2026-04-11T08:57:07.926Z</time></trkpt><trkpt lat="44.5795544" lon="7.9686971"><ele>449.0</ele><time>2026-04-11T08:57:10.885Z</time></trkpt><trkpt lat="44.5796164" lon="7.968716"><ele>450.0</ele><time>2026-04-11T08:57:13.823Z</time></trkpt><trkpt lat="44.5796826" lon="7.9687279"><ele>451.0</ele><time>2026-04-11T08:57:16.821Z</time></trkpt><trkpt lat="44.579757" lon="7.9687383"><ele>452.0</ele><time>2026-04-11T08:57:19.823Z</time></trkpt><trkpt lat="44.5798286" lon="7.9687617"><ele>453.0</ele><time>2026-04-11T08:57:22.898Z</time></trkpt><trkpt lat="44.5798915" lon="7.9687827"><ele>454.0</ele><time>2026-04-11T08:57:25.857Z</time></trkpt><trkpt lat="44.5799747" lon="7.9687971"><ele>455.0</ele><time>2026-04-11T08:57:29.81Z</time></trkpt><trkpt lat="44.5800462" lon="7.9688118"><ele>455.0</ele><time>2026-04-11T08:57:32.813Z</time></trkpt><trkpt lat="44.5801213" lon="7.9688307"><ele>455.0</ele><time>2026-04-11T08:57:35.812Z</time></trkpt><trkpt lat="44.5801969" lon="7.9688483"><ele>455.0</ele><time>2026-04-11T08:57:38.911Z</time></trkpt><trkpt lat="44.5802696" lon="7.9688691"><ele>455.0</ele><time>2026-04-11T08:57:41.927Z</time></trkpt><trkpt lat="44.5803417" lon="7.9688798"><ele>455.0</ele><time>2026-04-11T08:57:44.82Z</time></trkpt><trkpt lat="44.5804183" lon="7.9688895"><ele>455.0</ele><time>2026-04-11T08:57:47.915Z</time></trkpt><trkpt lat="44.5804898" lon="7.9688812"><ele>455.0</ele><time>2026-04-11T08:57:50.888Z</time></trkpt><trkpt lat="44.5805659" lon="7.9688618"><ele>455.8333333333333</ele><time>2026-04-11T08:57:54.132Z</time></trkpt><trkpt lat="44.5806385" lon="7.9688352"><ele>456.66666666666663</ele><time>2026-04-11T08:57:56.939Z</time></trkpt><trkpt lat="44.5807408" lon="7.9688027"><ele>457.5</ele><time>2026-04-11T08:58:00.889Z</time></trkpt><trkpt lat="44.5808197" lon="7.9687753"><ele>458.33333333333337</ele><time>2026-04-11T08:58:03.878Z</time></trkpt><trkpt lat="44.5808942" lon="7.9687465"><ele>459.1666666666667</ele><time>2026-04-11T08:58:06.867Z</time></trkpt><trkpt lat="44.5809712" lon="7.9687136"><ele>460.0</ele><time>2026-04-11T08:58:09.801Z</time></trkpt><trkpt lat="44.5810539" lon="7.9686941"><ele>459.99999999999994</ele><time>2026-04-11T08:58:12.813Z</time></trkpt><trkpt lat="44.5811302" lon="7.9686673"><ele>460.0</ele><time>2026-04-11T08:58:15.815Z</time></trkpt><trkpt lat="44.581204" lon="7.968637"><ele>459.99999999999994</ele><time>2026-04-11T08:58:18.818Z</time></trkpt><trkpt lat="44.5812718" lon="7.9686102"><ele>459.99999999999994</ele><time>2026-04-11T08:58:21.819Z</time></trkpt><trkpt lat="44.5813394" lon="7.9685753"><ele>460.0</ele><time>2026-04-11T08:58:25.876Z</time></trkpt><trkpt lat="44.5814113" lon="7.968549"><ele>459.99999999999994</ele><time>2026-04-11T08:58:29.066Z</time></trkpt><trkpt lat="44.5814754" lon="7.9685254"><ele>459.99999999999994</ele><time>2026-04-11T08:58:32.116Z</time></trkpt><trkpt lat="44.5815691" lon="7.9684885"><ele>461.00000000000006</ele><time>2026-04-11T08:58:35.886Z</time></trkpt><trkpt lat="44.5816673" lon="7.9684505"><ele>462.0</ele><time>2026-04-11T08:58:39.862Z</time></trkpt><trkpt lat="44.5817639" lon="7.9684127"><ele>463.0</ele><time>2026-04-11T08:58:43.821Z</time></trkpt><trkpt lat="44.5818365" lon="7.9683958"><ele>464.0</ele><time>2026-04-11T08:58:46.956Z</time></trkpt><trkpt lat="44.581903" lon="7.9683692"><ele>465.00000000000006</ele><time>2026-04-11T08:58:49.831Z</time></trkpt><trkpt lat="44.5819739" lon="7.9683179"><ele>466.0</ele><time>2026-04-11T08:58:53.815Z</time></trkpt><trkpt lat="44.5820569" lon="7.9683166"><ele>466.6666666666667</ele><time>2026-04-11T08:58:57.87Z</time></trkpt><trkpt lat="44.582122" lon="7.9682964"><ele>467.33333333333337</ele><time>2026-04-11T08:59:01.809Z</time></trkpt><trkpt lat="44.5821912" lon="7.9683046"><ele>468.0</ele><time>2026-04-11T09:00:41.839Z</time></trkpt><trkpt lat="44.5822378" lon="7.9683858"><ele>468.66666666666663</ele><time>2026-04-11T09:00:45.804Z</time></trkpt><trkpt lat="44.5822734" lon="7.968542"><ele>469.3333333333333</ele><time>2026-04-11T09:00:49.802Z</time></trkpt><trkpt lat="44.5822923" lon="7.9686349"><ele>470.0</ele><time>2026-04-11T09:00:51.808Z</time></trkpt><trkpt lat="44.5823149" lon="7.9687302"><ele>469.99999999999994</ele><time>2026-04-11T09:00:53.8Z</time></trkpt><trkpt lat="44.5823312" lon="7.9688311"><ele>470.0</ele><time>2026-04-11T09:00:55.784Z</time></trkpt><trkpt lat="44.5823418" lon="7.9689335"><ele>470.0</ele><time>2026-04-11T09:00:58.817Z</time></trkpt><trkpt lat="44.5823469" lon="7.9690459"><ele>470.0</ele><time>2026-04-11T09:01:03.817Z</time></trkpt><trkpt lat="44.5823046" lon="7.9691494"><ele>469.99999999999994</ele><time>2026-04-11T09:01:09.801Z</time></trkpt><trkpt lat="44.5822395" lon="7.9692576"><ele>470.0</ele><time>2026-04-11T09:01:13.798Z</time></trkpt><trkpt lat="44.582186" lon="7.9693322"><ele>469.16666666666663</ele><time>2026-04-11T09:01:15.809Z</time></trkpt><trkpt lat="44.5821216" lon="7.9694062"><ele>468.3333333333333</ele><time>2026-04-11T09:01:17.861Z</time></trkpt><trkpt lat="44.5820481" lon="7.9694721"><ele>467.5</ele><time>2026-04-11T09:01:19.833Z</time></trkpt><trkpt lat="44.5819771" lon="7.9695544"><ele>466.66666666666663</ele><time>2026-04-11T09:01:21.822Z</time></trkpt><trkpt lat="44.5819027" lon="7.9696221"><ele>465.8333333333333</ele><time>2026-04-11T09:01:23.831Z</time></trkpt><trkpt lat="44.5818405" lon="7.9696842"><ele>465.0</ele><time>2026-04-11T09:01:25.815Z</time></trkpt><trkpt lat="44.581775" lon="7.9697388"><ele>465.0</ele><time>2026-04-11T09:01:27.791Z</time></trkpt><trkpt lat="44.5817069" lon="7.9698213"><ele>465.0</ele><time>2026-04-11T09:01:29.799Z</time></trkpt><trkpt lat="44.5816317" lon="7.9699071"><ele>465.0</ele><time>2026-04-11T09:01:31.791Z</time></trkpt><trkpt lat="44.5815706" lon="7.9700016"><ele>465.0</ele><time>2026-04-11T09:01:33.796Z</time></trkpt><trkpt lat="44.5815185" lon="7.9700966"><ele>465.0</ele><time>2026-04-11T09:01:35.796Z</time></trkpt><trkpt lat="44.5814879" lon="7.9702179"><ele>466.5</ele><time>2026-04-11T09:01:37.789Z</time></trkpt><trkpt lat="44.5814558" lon="7.9703471"><ele>468.0</ele><time>2026-04-11T09:01:40.794Z</time></trkpt><trkpt lat="44.5814397" lon="7.9704371"><ele>469.5</ele><time>2026-04-11T09:01:43.798Z</time></trkpt><trkpt lat="44.5814315" lon="7.9705423"><ele>471.0</ele><time>2026-04-11T09:01:46.797Z</time></trkpt><trkpt lat="44.5814166" lon="7.9706851"><ele>472.5</ele><time>2026-04-11T09:01:51.796Z</time></trkpt><trkpt lat="44.5814026" lon="7.9707783"><ele>474.0</ele><time>2026-04-11T09:01:55.798Z</time></trkpt><trkpt lat="44.581371" lon="7.9708836"><ele>472.8571428571428</ele><time>2026-04-11T09:01:59.798Z</time></trkpt><trkpt lat="44.5813423" lon="7.9710001"><ele>471.71428571428567</ele><time>2026-04-11T09:02:03.802Z</time></trkpt><trkpt lat="44.5813056" lon="7.9710852"><ele>470.57142857142856</ele><time>2026-04-11T09:02:06.806Z</time></trkpt><trkpt lat="44.5812646" lon="7.9711638"><ele>469.4285714285714</ele><time>2026-04-11T09:02:09.805Z</time></trkpt><trkpt lat="44.5812186" lon="7.9712348"><ele>468.2857142857142</ele><time>2026-04-11T09:02:12.809Z</time></trkpt><trkpt lat="44.5811738" lon="7.9713051"><ele>467.14285714285717</ele><time>2026-04-11T09:02:15.798Z</time></trkpt><trkpt lat="44.5811245" lon="7.9713861"><ele>466.0</ele><time>2026-04-11T09:02:19.809Z</time></trkpt><trkpt lat="44.5811004" lon="7.9714748"><ele>466.00000000000006</ele><time>2026-04-11T09:02:23.807Z</time></trkpt><trkpt lat="44.5810383" lon="7.9715757"><ele>466.0</ele><time>2026-04-11T09:02:27.812Z</time></trkpt><trkpt lat="44.5809636" lon="7.9717065"><ele>466.0</ele><time>2026-04-11T09:02:32.812Z</time></trkpt><trkpt lat="44.5809388" lon="7.9718068"><ele>466.0</ele><time>2026-04-11T09:02:35.793Z</time></trkpt><trkpt lat="44.5809658" lon="7.9718905"><ele>466.00000000000006</ele><time>2026-04-11T09:02:38.807Z</time></trkpt><trkpt lat="44.5810027" lon="7.9719699"><ele>466.0</ele><time>2026-04-11T09:02:42.841Z</time></trkpt><trkpt lat="44.5810683" lon="7.9720304"><ele>466.57142857142856</ele><time>2026-04-11T09:02:47.834Z</time></trkpt><trkpt lat="44.5811471" lon="7.9720481"><ele>467.1428571428571</ele><time>2026-04-11T09:02:53.795Z</time></trkpt><trkpt lat="44.5812251" lon="7.972027"><ele>467.71428571428567</ele><time>2026-04-11T09:02:59.804Z</time></trkpt><trkpt lat="44.5813011" lon="7.9720173"><ele>468.2857142857143</ele><time>2026-04-11T09:03:05.786Z</time></trkpt><trkpt lat="44.5813705" lon="7.9719964"><ele>468.8571428571428</ele><time>2026-04-11T09:03:11.782Z</time></trkpt><trkpt lat="44.5814368" lon="7.9719655"><ele>469.4285714285714</ele><time>2026-04-11T09:03:17.802Z</time></trkpt><trkpt lat="44.5815014" lon="7.9719496"><ele>470.0</ele><time>2026-04-11T09:03:22.792Z</time></trkpt><trkpt lat="44.581575" lon="7.9719253"><ele>472.8333333333333</ele><time>2026-04-11T09:03:29.793Z</time></trkpt><trkpt lat="44.5816409" lon="7.9718922"><ele>475.66666666666663</ele><time>2026-04-11T09:03:37.8Z</time></trkpt><trkpt lat="44.5817123" lon="7.9718496"><ele>478.5</ele><time>2026-04-11T09:03:45.79Z</time></trkpt><trkpt lat="44.5818049" lon="7.9717964"><ele>481.33333333333337</ele><time>2026-04-11T09:03:52.817Z</time></trkpt><trkpt lat="44.5818374" lon="7.9717107"><ele>484.1666666666667</ele><time>2026-04-11T09:03:57.794Z</time></trkpt><trkpt lat="44.5818773" lon="7.9716398"><ele>487.0</ele><time>2026-04-11T09:04:02.783Z</time></trkpt><trkpt lat="44.5819208" lon="7.9715627"><ele>487.0</ele><time>2026-04-11T09:04:08.789Z</time></trkpt><trkpt lat="44.5819779" lon="7.971495"><ele>487.0</ele><time>2026-04-11T09:04:14.786Z</time></trkpt><trkpt lat="44.5820176" lon="7.9714226"><ele>487.0</ele><time>2026-04-11T09:04:19.791Z</time></trkpt><trkpt lat="44.5820804" lon="7.9713638"><ele>487.0</ele><time>2026-04-11T09:04:25.794Z</time></trkpt><trkpt lat="44.5821317" lon="7.971279"><ele>487.0</ele><time>2026-04-11T09:04:31.792Z</time></trkpt><trkpt lat="44.5821829" lon="7.9712106"><ele>487.0</ele><time>2026-04-11T09:04:36.817Z</time></trkpt><trkpt lat="44.5822543" lon="7.9712048"><ele>487.0</ele><time>2026-04-11T09:04:41.79Z</time></trkpt><trkpt lat="44.5823158" lon="7.971153"><ele>488.0</ele><time>2026-04-11T09:04:46.801Z</time></trkpt><trkpt lat="44.5823799" lon="7.9711076"><ele>489.0</ele><time>2026-04-11T09:04:52.811Z</time></trkpt><trkpt lat="44.5824407" lon="7.9710621"><ele>490.0</ele><time>2026-04-11T09:04:57.785Z</time></trkpt><trkpt lat="44.5824935" lon="7.9710072"><ele>491.0</ele><time>2026-04-11T09:05:02.787Z</time></trkpt><trkpt lat="44.5825584" lon="7.9709561"><ele>492.0</ele><time>2026-04-11T09:05:08.813Z</time></trkpt><trkpt lat="44.5826076" lon="7.9708827"><ele>493.0</ele><time>2026-04-11T09:05:14.803Z</time></trkpt><trkpt lat="44.5826784" lon="7.9708673"><ele>494.0</ele><time>2026-04-11T09:05:20.793Z</time></trkpt><trkpt lat="44.5827248" lon="7.9708044"><ele>494.0</ele><time>2026-04-11T09:05:26.81Z</time></trkpt><trkpt lat="44.5828013" lon="7.9708068"><ele>494.0</ele><time>2026-04-11T09:05:32.777Z</time></trkpt><trkpt lat="44.5828616" lon="7.9707593"><ele>494.0</ele><time>2026-04-11T09:05:40.808Z</time></trkpt><trkpt lat="44.582909" lon="7.9706856"><ele>494.0</ele><time>2026-04-11T09:05:48.784Z</time></trkpt><trkpt lat="44.5829766" lon="7.9706574"><ele>494.0</ele><time>2026-04-11T09:05:54.795Z</time></trkpt><trkpt lat="44.5830408" lon="7.9706216"><ele>494.0</ele><time>2026-04-11T09:05:59.801Z</time></trkpt><trkpt lat="44.583094" lon="7.9705621"><ele>494.0</ele><time>2026-04-11T09:06:03.789Z</time></trkpt><trkpt lat="44.5831573" lon="7.9705239"><ele>497.14285714285717</ele><time>2026-04-11T09:06:08.794Z</time></trkpt><trkpt lat="44.5832216" lon="7.970478"><ele>500.2857142857142</ele><time>2026-04-11T09:06:13.801Z</time></trkpt><trkpt lat="44.5832832" lon="7.9704189"><ele>503.4285714285714</ele><time>2026-04-11T09:06:18.796Z</time></trkpt><trkpt lat="44.5833262" lon="7.9703484"><ele>506.57142857142856</ele><time>2026-04-11T09:06:22.785Z</time></trkpt><trkpt lat="44.5833944" lon="7.9703091"><ele>509.71428571428567</ele><time>2026-04-11T09:06:27.806Z</time></trkpt><trkpt lat="44.5834559" lon="7.9702743"><ele>512.8571428571428</ele><time>2026-04-11T09:06:31.81Z</time></trkpt><trkpt lat="44.5835248" lon="7.9702566"><ele>516.0</ele><time>2026-04-11T09:06:35.8Z</time></trkpt><trkpt lat="44.5835886" lon="7.9702518"><ele>515.9999999999999</ele><time>2026-04-11T09:06:40.826Z</time></trkpt><trkpt lat="44.5836577" lon="7.9702486"><ele>516.0</ele><time>2026-04-11T09:06:44.798Z</time></trkpt><trkpt lat="44.5837245" lon="7.970219"><ele>516.0</ele><time>2026-04-11T09:06:49.8Z</time></trkpt><trkpt lat="44.5837897" lon="7.9701912"><ele>516.0</ele><time>2026-04-11T09:06:54.808Z</time></trkpt><trkpt lat="44.5838549" lon="7.9702239"><ele>516.0</ele><time>2026-04-11T09:06:58.809Z</time></trkpt><trkpt lat="44.5839239" lon="7.9702351"><ele>515.9999999999999</ele><time>2026-04-11T09:07:03.799Z</time></trkpt><trkpt lat="44.5839884" lon="7.9702252"><ele>516.0</ele><time>2026-04-11T09:07:07.799Z</time></trkpt><trkpt lat="44.584052" lon="7.970198"><ele>515.1428571428571</ele><time>2026-04-11T09:07:11.781Z</time></trkpt><trkpt lat="44.5841175" lon="7.9701494"><ele>514.2857142857142</ele><time>2026-04-11T09:07:16.839Z</time></trkpt><trkpt lat="44.5841877" lon="7.970107"><ele>513.4285714285714</ele><time>2026-04-11T09:07:21.799Z</time></trkpt><trkpt lat="44.5842346" lon="7.9700376"><ele>512.5714285714286</ele><time>2026-04-11T09:07:26.805Z</time></trkpt><trkpt lat="44.5843008" lon="7.9699926"><ele>511.7142857142858</ele><time>2026-04-11T09:07:31.793Z</time></trkpt><trkpt lat="44.5843221" lon="7.9699011"><ele>510.8571428571429</ele><time>2026-04-11T09:07:36.835Z</time></trkpt><trkpt lat="44.5843514" lon="7.9699882"><ele>510.0</ele><time>2026-04-11T09:13:36.792Z</time></trkpt><trkpt lat="44.5844169" lon="7.9700103"><ele>510.0</ele><time>2026-04-11T09:14:41.793Z</time></trkpt><trkpt lat="44.5844713" lon="7.9699442"><ele>510.00000000000006</ele><time>2026-04-11T09:14:47.802Z</time></trkpt><trkpt lat="44.5845418" lon="7.9699164"><ele>510.0</ele><time>2026-04-11T09:14:52.807Z</time></trkpt><trkpt lat="44.5846044" lon="7.9698792"><ele>510.0</ele><time>2026-04-11T09:14:56.797Z</time></trkpt><trkpt lat="44.5846666" lon="7.9698489"><ele>510.00000000000006</ele><time>2026-04-11T09:15:00.811Z</time></trkpt><trkpt lat="44.5847277" lon="7.9698238"><ele>510.0</ele><time>2026-04-11T09:15:04.798Z</time></trkpt><trkpt lat="44.5848035" lon="7.9697839"><ele>510.0</ele><time>2026-04-11T09:15:09.803Z</time></trkpt><trkpt lat="44.5848659" lon="7.9697433"><ele>512.1428571428571</ele><time>2026-04-11T09:15:13.796Z</time></trkpt><trkpt lat="44.5849247" lon="7.9697113"><ele>514.2857142857143</ele><time>2026-04-11T09:15:17.795Z</time></trkpt><trkpt lat="44.5849818" lon="7.9696699"><ele>516.4285714285714</ele><time>2026-04-11T09:15:21.845Z</time></trkpt><trkpt lat="44.5850265" lon="7.9695896"><ele>518.5714285714286</ele><time>2026-04-11T09:15:25.841Z</time></trkpt><trkpt lat="44.5850678" lon="7.9695042"><ele>520.7142857142858</ele><time>2026-04-11T09:15:29.803Z</time></trkpt><trkpt lat="44.5851008" lon="7.9694246"><ele>522.8571428571429</ele><time>2026-04-11T09:15:32.793Z</time></trkpt><trkpt lat="44.5851412" lon="7.9693291"><ele>525.0</ele><time>2026-04-11T09:15:36.78Z</time></trkpt><trkpt lat="44.5851829" lon="7.96926"><ele>525.0</ele><time>2026-04-11T09:15:40.819Z</time></trkpt><trkpt lat="44.5852471" lon="7.9691956"><ele>525.0</ele><time>2026-04-11T09:15:45.804Z</time></trkpt><trkpt lat="44.5853153" lon="7.9691428"><ele>525.0</ele><time>2026-04-11T09:15:50.793Z</time></trkpt><trkpt lat="44.5853762" lon="7.9691079"><ele>525.0</ele><time>2026-04-11T09:15:55.796Z</time></trkpt><trkpt lat="44.5854346" lon="7.9690625"><ele>525.0</ele><time>2026-04-11T09:16:00.798Z</time></trkpt><trkpt lat="44.5854879" lon="7.969015"><ele>525.0</ele><time>2026-04-11T09:16:04.811Z</time></trkpt><trkpt lat="44.5855314" lon="7.9689339"><ele>525.0</ele><time>2026-04-11T09:16:09.825Z</time></trkpt><trkpt lat="44.5855586" lon="7.9688523"><ele>524.0</ele><time>2026-04-11T09:16:13.818Z</time></trkpt><trkpt lat="44.5855777" lon="7.9687625"><ele>523.0</ele><time>2026-04-11T09:16:18.808Z</time></trkpt><trkpt lat="44.5855497" lon="7.9686566"><ele>522.0</ele><time>2026-04-11T09:16:23.8Z</time></trkpt><trkpt lat="44.5855257" lon="7.9685747"><ele>521.0</ele><time>2026-04-11T09:16:26.812Z</time></trkpt><trkpt lat="44.5854868" lon="7.9684712"><ele>520.0</ele><time>2026-04-11T09:16:30.805Z</time></trkpt><trkpt lat="44.5854477" lon="7.9683806"><ele>519.0</ele><time>2026-04-11T09:16:34.817Z</time></trkpt><trkpt lat="44.5854141" lon="7.9683052"><ele>518.0</ele><time>2026-04-11T09:16:37.807Z</time></trkpt><trkpt lat="44.5853833" lon="7.9682199"><ele>518.4285714285714</ele><time>2026-04-11T09:16:40.82Z</time></trkpt><trkpt lat="44.5853505" lon="7.9681392"><ele>518.8571428571429</ele><time>2026-04-11T09:16:43.815Z</time></trkpt><trkpt lat="44.5852834" lon="7.9680816"><ele>519.2857142857142</ele><time>2026-04-11T09:16:46.797Z</time></trkpt><trkpt lat="44.5852202" lon="7.9680822"><ele>519.7142857142858</ele><time>2026-04-11T09:16:49.803Z</time></trkpt><trkpt lat="44.5851379" lon="7.9680913"><ele>520.1428571428571</ele><time>2026-04-11T09:16:53.793Z</time></trkpt><trkpt lat="44.5850849" lon="7.9681464"><ele>520.5714285714286</ele><time>2026-04-11T09:16:57.806Z</time></trkpt><trkpt lat="44.5850605" lon="7.9682295"><ele>521.0</ele><time>2026-04-11T09:17:01.839Z</time></trkpt><trkpt lat="44.5850289" lon="7.9683171"><ele>520.4285714285714</ele><time>2026-04-11T09:17:05.813Z</time></trkpt><trkpt lat="44.5850038" lon="7.9684011"><ele>519.8571428571429</ele><time>2026-04-11T09:17:09.819Z</time></trkpt><trkpt lat="44.584944" lon="7.9684349"><ele>519.2857142857143</ele><time>2026-04-11T09:17:15.82Z</time></trkpt><trkpt lat="44.5848729" lon="7.9684198"><ele>518.7142857142858</ele><time>2026-04-11T09:17:32.794Z</time></trkpt><trkpt lat="44.5849129" lon="7.9684947"><ele>518.1428571428572</ele><time>2026-04-11T09:18:37.791Z</time></trkpt><trkpt lat="44.5848553" lon="7.9685413"><ele>517.5714285714286</ele><time>2026-04-11T09:18:41.776Z</time></trkpt><trkpt lat="44.584771" lon="7.9685157"><ele>517.0</ele><time>2026-04-11T09:18:44.785Z</time></trkpt><trkpt lat="44.584709" lon="7.9684906"><ele>517.0</ele><time>2026-04-11T09:18:46.796Z</time></trkpt><trkpt lat="44.5846399" lon="7.9684852"><ele>517.0</ele><time>2026-04-11T09:18:48.815Z</time></trkpt><trkpt lat="44.5845773" lon="7.9684628"><ele>517.0</ele><time>2026-04-11T09:18:50.797Z</time></trkpt><trkpt lat="44.5844998" lon="7.9684206"><ele>517.0</ele><time>2026-04-11T09:18:53.795Z</time></trkpt><trkpt lat="44.5844358" lon="7.9683598"><ele>517.0</ele><time>2026-04-11T09:18:58.777Z</time></trkpt><trkpt lat="44.5843737" lon="7.9683021"><ele>517.0</ele><time>2026-04-11T09:19:02.789Z</time></trkpt><trkpt lat="44.5843498" lon="7.9681952"><ele>517.0</ele><time>2026-04-11T09:19:06.796Z</time></trkpt><trkpt lat="44.5843002" lon="7.9681385"><ele>515.2857142857143</ele><time>2026-04-11T09:19:12.8Z</time></trkpt><trkpt lat="44.5842408" lon="7.9681802"><ele>513.5714285714287</ele><time>2026-04-11T09:19:16.782Z</time></trkpt><trkpt lat="44.5842196" lon="7.9682705"><ele>511.8571428571429</ele><time>2026-04-11T09:19:20.777Z</time></trkpt><trkpt lat="44.5841664" lon="7.9681899"><ele>510.1428571428571</ele><time>2026-04-11T09:19:29.787Z</time></trkpt><trkpt lat="44.5841644" lon="7.9681002"><ele>508.4285714285714</ele><time>2026-04-11T09:19:33.791Z</time></trkpt><trkpt lat="44.5841841" lon="7.9680156"><ele>506.71428571428567</ele><time>2026-04-11T09:19:37.795Z</time></trkpt><trkpt lat="44.5841791" lon="7.9679263"><ele>505.0</ele><time>2026-04-11T09:19:40.804Z</time></trkpt><trkpt lat="44.5840958" lon="7.9678971"><ele>505.0</ele><time>2026-04-11T09:19:45.785Z</time></trkpt><trkpt lat="44.5840273" lon="7.9679012"><ele>504.99999999999994</ele><time>2026-04-11T09:19:48.81Z</time></trkpt><trkpt lat="44.5839609" lon="7.9679486"><ele>505.0</ele><time>2026-04-11T09:19:51.8Z</time></trkpt><trkpt lat="44.5838937" lon="7.9679947"><ele>505.0</ele><time>2026-04-11T09:19:54.795Z</time></trkpt><trkpt lat="44.583847" lon="7.9680602"><ele>504.99999999999994</ele><time>2026-04-11T09:19:57.786Z</time></trkpt><trkpt lat="44.5838653" lon="7.9681711"><ele>505.0</ele><time>2026-04-11T09:20:00.781Z</time></trkpt><trkpt lat="44.5838493" lon="7.9682704"><ele>505.0</ele><time>2026-04-11T09:20:03.813Z</time></trkpt><trkpt lat="44.583788" lon="7.9682201"><ele>505.00000000000006</ele><time>2026-04-11T09:20:10.795Z</time></trkpt><trkpt lat="44.583762" lon="7.9681039"><ele>505.0</ele><time>2026-04-11T09:20:14.819Z</time></trkpt><trkpt lat="44.5837574" lon="7.9680147"><ele>505.0</ele><time>2026-04-11T09:20:16.803Z</time></trkpt><trkpt lat="44.5837445" lon="7.9678879"><ele>505.0</ele><time>2026-04-11T09:20:19.806Z</time></trkpt><trkpt lat="44.583739" lon="7.9677776"><ele>505.00000000000006</ele><time>2026-04-11T09:20:22.789Z</time></trkpt><trkpt lat="44.5836663" lon="7.9677485"><ele>505.0</ele><time>2026-04-11T09:20:25.804Z</time></trkpt><trkpt lat="44.5835971" lon="7.9677548"><ele>500.83333333333337</ele><time>2026-04-11T09:20:27.794Z</time></trkpt><trkpt lat="44.5835374" lon="7.9677948"><ele>496.6666666666667</ele><time>2026-04-11T09:20:30.788Z</time></trkpt><trkpt lat="44.5834674" lon="7.9678261"><ele>492.5</ele><time>2026-04-11T09:20:33.791Z</time></trkpt><trkpt lat="44.5833925" lon="7.9678073"><ele>488.33333333333337</ele><time>2026-04-11T09:20:36.796Z</time></trkpt><trkpt lat="44.5833288" lon="7.9677973"><ele>484.1666666666667</ele><time>2026-04-11T09:20:39.833Z</time></trkpt><trkpt lat="44.583242" lon="7.9677957"><ele>480.0</ele><time>2026-04-11T09:20:42.835Z</time></trkpt><trkpt lat="44.5831737" lon="7.9677288"><ele>480.0</ele><time>2026-04-11T09:20:47.798Z</time></trkpt><trkpt lat="44.5832052" lon="7.9676367"><ele>480.0</ele><time>2026-04-11T09:20:51.797Z</time></trkpt><trkpt lat="44.5832793" lon="7.9675773"><ele>480.0</ele><time>2026-04-11T09:20:56.801Z</time></trkpt><trkpt lat="44.5833479" lon="7.9675288"><ele>480.0</ele><time>2026-04-11T09:20:59.82Z</time></trkpt><trkpt lat="44.5834247" lon="7.9674472"><ele>480.0</ele><time>2026-04-11T09:21:02.805Z</time></trkpt><trkpt lat="44.5834875" lon="7.9673834"><ele>480.0</ele><time>2026-04-11T09:21:04.83Z</time></trkpt><trkpt lat="44.583566" lon="7.9673107"><ele>479.0</ele><time>2026-04-11T09:21:06.814Z</time></trkpt><trkpt lat="44.5836496" lon="7.9672089"><ele>478.0</ele><time>2026-04-11T09:21:08.805Z</time></trkpt><trkpt lat="44.5837381" lon="7.9670977"><ele>477.0</ele><time>2026-04-11T09:21:10.839Z</time></trkpt><trkpt lat="44.5837854" lon="7.9670365"><ele>476.0</ele><time>2026-04-11T09:21:11.803Z</time></trkpt><trkpt lat="44.5838318" lon="7.9669714"><ele>475.0</ele><time>2026-04-11T09:21:12.796Z</time></trkpt><trkpt lat="44.5838877" lon="7.9669036"><ele>474.0</ele><time>2026-04-11T09:21:13.819Z</time></trkpt><trkpt lat="44.5839421" lon="7.9668357"><ele>473.0</ele><time>2026-04-11T09:21:14.808Z</time></trkpt><trkpt lat="44.5839951" lon="7.9667614"><ele>472.0</ele><time>2026-04-11T09:21:15.796Z</time></trkpt><trkpt lat="44.5840525" lon="7.9666841"><ele>471.0</ele><time>2026-04-11T09:21:16.792Z</time></trkpt><trkpt lat="44.5841082" lon="7.9666053"><ele>470.0</ele><time>2026-04-11T09:21:17.796Z</time></trkpt><trkpt lat="44.5841685" lon="7.9665329"><ele>469.0</ele><time>2026-04-11T09:21:18.784Z</time></trkpt><trkpt lat="44.5842243" lon="7.966459"><ele>468.0</ele><time>2026-04-11T09:21:19.794Z</time></trkpt><trkpt lat="44.584278" lon="7.9663903"><ele>468.0</ele><time>2026-04-11T09:21:20.811Z</time></trkpt><trkpt lat="44.5843337" lon="7.966323"><ele>468.00000000000006</ele><time>2026-04-11T09:21:21.811Z</time></trkpt><trkpt lat="44.5843958" lon="7.9662547"><ele>468.0</ele><time>2026-04-11T09:21:22.786Z</time></trkpt><trkpt lat="44.5844576" lon="7.9661894"><ele>468.0</ele><time>2026-04-11T09:21:23.838Z</time></trkpt><trkpt lat="44.5845232" lon="7.9661236"><ele>468.00000000000006</ele><time>2026-04-11T09:21:24.808Z</time></trkpt><trkpt lat="44.5845817" lon="7.9660724"><ele>468.0</ele><time>2026-04-11T09:21:25.807Z</time></trkpt><trkpt lat="44.5846461" lon="7.9660342"><ele>468.0</ele><time>2026-04-11T09:21:26.81Z</time></trkpt><trkpt lat="44.5847124" lon="7.9659928"><ele>466.8333333333333</ele><time>2026-04-11T09:21:27.804Z</time></trkpt><trkpt lat="44.5847837" lon="7.9659575"><ele>465.66666666666663</ele><time>2026-04-11T09:21:28.799Z</time></trkpt><trkpt lat="44.5848578" lon="7.9659288"><ele>464.5</ele><time>2026-04-11T09:21:29.817Z</time></trkpt><trkpt lat="44.5849396" lon="7.965891"><ele>463.3333333333333</ele><time>2026-04-11T09:21:30.793Z</time></trkpt><trkpt lat="44.5850152" lon="7.9658471"><ele>462.16666666666663</ele><time>2026-04-11T09:21:31.804Z</time></trkpt><trkpt lat="44.5850846" lon="7.9657957"><ele>461.0</ele><time>2026-04-11T09:21:32.811Z</time></trkpt><trkpt lat="44.58515" lon="7.9657317"><ele>460.99999999999994</ele><time>2026-04-11T09:21:33.809Z</time></trkpt><trkpt lat="44.5852164" lon="7.9656745"><ele>461.0</ele><time>2026-04-11T09:21:34.795Z</time></trkpt><trkpt lat="44.585276" lon="7.9656001"><ele>461.0</ele><time>2026-04-11T09:21:35.793Z</time></trkpt><trkpt lat="44.585339" lon="7.9655028"><ele>461.0</ele><time>2026-04-11T09:21:36.781Z</time></trkpt><trkpt lat="44.5853978" lon="7.9654079"><ele>460.99999999999994</ele><time>2026-04-11T09:21:37.795Z</time></trkpt><trkpt lat="44.5854406" lon="7.9653081"><ele>461.0</ele><time>2026-04-11T09:21:38.796Z</time></trkpt><trkpt lat="44.5854799" lon="7.9652049"><ele>460.16666666666663</ele><time>2026-04-11T09:21:39.807Z</time></trkpt><trkpt lat="44.5855122" lon="7.9651067"><ele>459.3333333333333</ele><time>2026-04-11T09:21:40.798Z</time></trkpt><trkpt lat="44.5855405" lon="7.9650078"><ele>458.5</ele><time>2026-04-11T09:21:41.806Z</time></trkpt><trkpt lat="44.5855716" lon="7.9649024"><ele>457.66666666666663</ele><time>2026-04-11T09:21:42.806Z</time></trkpt><trkpt lat="44.5856017" lon="7.9647952"><ele>456.8333333333333</ele><time>2026-04-11T09:21:43.799Z</time></trkpt><trkpt lat="44.5856385" lon="7.9646892"><ele>456.0</ele><time>2026-04-11T09:21:44.822Z</time></trkpt><trkpt lat="44.5856759" lon="7.9645847"><ele>456.0</ele><time>2026-04-11T09:21:45.799Z</time></trkpt><trkpt lat="44.5857092" lon="7.9644748"><ele>456.0</ele><time>2026-04-11T09:21:46.796Z</time></trkpt><trkpt lat="44.5857424" lon="7.9643727"><ele>456.0</ele><time>2026-04-11T09:21:47.81Z</time></trkpt><trkpt lat="44.5857783" lon="7.9642665"><ele>456.0</ele><time>2026-04-11T09:21:48.801Z</time></trkpt><trkpt lat="44.5858137" lon="7.9641608"><ele>456.0</ele><time>2026-04-11T09:21:49.799Z</time></trkpt><trkpt lat="44.5858493" lon="7.964056"><ele>456.0</ele><time>2026-04-11T09:21:50.796Z</time></trkpt><trkpt lat="44.5858883" lon="7.9639568"><ele>453.6666666666667</ele><time>2026-04-11T09:21:51.819Z</time></trkpt><trkpt lat="44.5859254" lon="7.9638598"><ele>451.33333333333337</ele><time>2026-04-11T09:21:52.794Z</time></trkpt><trkpt lat="44.5859623" lon="7.9637715"><ele>449.0</ele><time>2026-04-11T09:21:53.828Z</time></trkpt><trkpt lat="44.5859906" lon="7.9636869"><ele>446.6666666666667</ele><time>2026-04-11T09:21:54.803Z</time></trkpt><trkpt lat="44.5860409" lon="7.9635465"><ele>444.33333333333337</ele><time>2026-04-11T09:21:56.803Z</time></trkpt><trkpt lat="44.5860985" lon="7.9634353"><ele>442.0</ele><time>2026-04-11T09:21:58.813Z</time></trkpt><trkpt lat="44.5861681" lon="7.9633794"><ele>441.33333333333337</ele><time>2026-04-11T09:22:01.798Z</time></trkpt><trkpt lat="44.586259" lon="7.9633917"><ele>440.6666666666667</ele><time>2026-04-11T09:22:04.805Z</time></trkpt><trkpt lat="44.5863348" lon="7.9634357"><ele>440.0</ele><time>2026-04-11T09:22:06.803Z</time></trkpt><trkpt lat="44.5864095" lon="7.9634802"><ele>439.33333333333337</ele><time>2026-04-11T09:22:08.813Z</time></trkpt><trkpt lat="44.5865034" lon="7.9635486"><ele>438.6666666666667</ele><time>2026-04-11T09:22:10.819Z</time></trkpt><trkpt lat="44.5865611" lon="7.9635979"><ele>438.0</ele><time>2026-04-11T09:22:11.82Z</time></trkpt><trkpt lat="44.5866256" lon="7.9636392"><ele>438.0</ele><time>2026-04-11T09:22:12.806Z</time></trkpt><trkpt lat="44.5866949" lon="7.9636778"><ele>438.0</ele><time>2026-04-11T09:22:13.799Z</time></trkpt><trkpt lat="44.5867652" lon="7.9637222"><ele>438.0</ele><time>2026-04-11T09:22:14.8Z</time></trkpt><trkpt lat="44.5868423" lon="7.9637687"><ele>438.0</ele><time>2026-04-11T09:22:15.812Z</time></trkpt><trkpt lat="44.5869181" lon="7.9638174"><ele>438.0</ele><time>2026-04-11T09:22:16.815Z</time></trkpt><trkpt lat="44.5869947" lon="7.963878"><ele>438.0</ele><time>2026-04-11T09:22:17.801Z</time></trkpt><trkpt lat="44.5870675" lon="7.9639498"><ele>436.8333333333333</ele><time>2026-04-11T09:22:18.806Z</time></trkpt><trkpt lat="44.5871312" lon="7.964019"><ele>435.66666666666663</ele><time>2026-04-11T09:22:19.805Z</time></trkpt><trkpt lat="44.5871917" lon="7.9640946"><ele>434.5</ele><time>2026-04-11T09:22:20.801Z</time></trkpt><trkpt lat="44.5872585" lon="7.9641731"><ele>433.3333333333333</ele><time>2026-04-11T09:22:21.799Z</time></trkpt><trkpt lat="44.5873293" lon="7.9642552"><ele>432.16666666666663</ele><time>2026-04-11T09:22:22.8Z</time></trkpt><trkpt lat="44.5874027" lon="7.9643359"><ele>431.0</ele><time>2026-04-11T09:22:23.817Z</time></trkpt><trkpt lat="44.587468" lon="7.9644188"><ele>430.99999999999994</ele><time>2026-04-11T09:22:24.798Z</time></trkpt><trkpt lat="44.5875373" lon="7.9644996"><ele>431.0</ele><time>2026-04-11T09:22:25.826Z</time></trkpt><trkpt lat="44.5876038" lon="7.9645743"><ele>431.0</ele><time>2026-04-11T09:22:26.805Z</time></trkpt><trkpt lat="44.5876639" lon="7.9646512"><ele>431.0</ele><time>2026-04-11T09:22:27.8Z</time></trkpt><trkpt lat="44.5877187" lon="7.9647216"><ele>430.99999999999994</ele><time>2026-04-11T09:22:28.805Z</time></trkpt><trkpt lat="44.5877728" lon="7.9647895"><ele>431.0</ele><time>2026-04-11T09:22:29.804Z</time></trkpt><trkpt lat="44.5878252" lon="7.9648617"><ele>427.99999999999994</ele><time>2026-04-11T09:22:30.795Z</time></trkpt><trkpt lat="44.5878768" lon="7.9649271"><ele>425.0</ele><time>2026-04-11T09:22:31.806Z</time></trkpt><trkpt lat="44.5879285" lon="7.9649888"><ele>422.0</ele><time>2026-04-11T09:22:32.804Z</time></trkpt><trkpt lat="44.5880282" lon="7.965104"><ele>419.0</ele><time>2026-04-11T09:22:34.8Z</time></trkpt><trkpt lat="44.5880767" lon="7.9651798"><ele>415.99999999999994</ele><time>2026-04-11T09:22:35.79Z</time></trkpt><trkpt lat="44.5881" lon="7.9652638"><ele>413.0</ele><time>2026-04-11T09:22:36.807Z</time></trkpt><trkpt lat="44.5881101" lon="7.9653565"><ele>412.99999999999994</ele><time>2026-04-11T09:22:37.809Z</time></trkpt><trkpt lat="44.5881132" lon="7.965456"><ele>413.0</ele><time>2026-04-11T09:22:38.789Z</time></trkpt><trkpt lat="44.5881036" lon="7.9655582"><ele>413.0</ele><time>2026-04-11T09:22:39.793Z</time></trkpt><trkpt lat="44.58809" lon="7.9656678"><ele>413.0</ele><time>2026-04-11T09:22:40.823Z</time></trkpt><trkpt lat="44.5880792" lon="7.9657796"><ele>412.99999999999994</ele><time>2026-04-11T09:22:41.808Z</time></trkpt><trkpt lat="44.5880725" lon="7.965895"><ele>413.0</ele><time>2026-04-11T09:22:42.802Z</time></trkpt><trkpt lat="44.5880686" lon="7.9660049"><ele>413.99999999999994</ele><time>2026-04-11T09:22:43.813Z</time></trkpt><trkpt lat="44.5880665" lon="7.9661039"><ele>415.0</ele><time>2026-04-11T09:22:44.794Z</time></trkpt><trkpt lat="44.5880786" lon="7.9662005"><ele>416.0</ele><time>2026-04-11T09:22:45.822Z</time></trkpt><trkpt lat="44.5881043" lon="7.9662901"><ele>417.0</ele><time>2026-04-11T09:22:46.826Z</time></trkpt><trkpt lat="44.5881383" lon="7.9663649"><ele>417.99999999999994</ele><time>2026-04-11T09:22:47.807Z</time></trkpt><trkpt lat="44.588231" lon="7.9664722"><ele>419.0</ele><time>2026-04-11T09:22:49.789Z</time></trkpt><trkpt lat="44.5883295" lon="7.9664898"><ele>419.0</ele><time>2026-04-11T09:22:51.789Z</time></trkpt><trkpt lat="44.5884001" lon="7.9663682"><ele>419.0</ele><time>2026-04-11T09:22:53.781Z</time></trkpt><trkpt lat="44.5884408" lon="7.9662199"><ele>419.0</ele><time>2026-04-11T09:22:55.796Z</time></trkpt><trkpt lat="44.5884976" lon="7.966053"><ele>419.0</ele><time>2026-04-11T09:22:57.807Z</time></trkpt><trkpt lat="44.58854" lon="7.9659713"><ele>419.0</ele><time>2026-04-11T09:22:58.79Z</time></trkpt><trkpt lat="44.5885842" lon="7.965893"><ele>417.99999999999994</ele><time>2026-04-11T09:22:59.804Z</time></trkpt><trkpt lat="44.5886248" lon="7.9658191"><ele>417.0</ele><time>2026-04-11T09:23:00.795Z</time></trkpt><trkpt lat="44.5886684" lon="7.9657469"><ele>416.0</ele><time>2026-04-11T09:23:01.809Z</time></trkpt><trkpt lat="44.5887141" lon="7.9656745"><ele>415.0</ele><time>2026-04-11T09:23:02.813Z</time></trkpt><trkpt lat="44.5887603" lon="7.9656087"><ele>413.99999999999994</ele><time>2026-04-11T09:23:03.807Z</time></trkpt><trkpt lat="44.5888006" lon="7.9655407"><ele>413.0</ele><time>2026-04-11T09:23:04.804Z</time></trkpt><trkpt lat="44.5888871" lon="7.9654225"><ele>411.99999999999994</ele><time>2026-04-11T09:23:06.817Z</time></trkpt><trkpt lat="44.5889907" lon="7.9653244"><ele>411.0</ele><time>2026-04-11T09:23:08.819Z</time></trkpt><trkpt lat="44.5890539" lon="7.9652825"><ele>410.0</ele><time>2026-04-11T09:23:09.798Z</time></trkpt><trkpt lat="44.5891191" lon="7.9652353"><ele>409.0</ele><time>2026-04-11T09:23:10.81Z</time></trkpt><trkpt lat="44.5891863" lon="7.9651838"><ele>407.99999999999994</ele><time>2026-04-11T09:23:11.796Z</time></trkpt><trkpt lat="44.589259" lon="7.9651331"><ele>407.0</ele><time>2026-04-11T09:23:12.8Z</time></trkpt><trkpt lat="44.5893242" lon="7.9650842"><ele>405.5714285714286</ele><time>2026-04-11T09:23:13.81Z</time></trkpt><trkpt lat="44.5893886" lon="7.965024"><ele>404.14285714285717</ele><time>2026-04-11T09:23:14.825Z</time></trkpt><trkpt lat="44.5894564" lon="7.9649663"><ele>402.7142857142857</ele><time>2026-04-11T09:23:15.791Z</time></trkpt><trkpt lat="44.5895247" lon="7.9649248"><ele>401.28571428571433</ele><time>2026-04-11T09:23:16.81Z</time></trkpt><trkpt lat="44.589587" lon="7.9648924"><ele>399.85714285714283</ele><time>2026-04-11T09:23:17.793Z</time></trkpt><trkpt lat="44.5896506" lon="7.9648551"><ele>398.42857142857144</ele><time>2026-04-11T09:23:18.809Z</time></trkpt><trkpt lat="44.589713" lon="7.96482"><ele>397.0</ele><time>2026-04-11T09:23:19.789Z</time></trkpt><trkpt lat="44.5897677" lon="7.9647744"><ele>395.33333333333337</ele><time>2026-04-11T09:23:20.816Z</time></trkpt><trkpt lat="44.5898204" lon="7.9647208"><ele>393.6666666666667</ele><time>2026-04-11T09:23:21.799Z</time></trkpt><trkpt lat="44.589871" lon="7.9646618"><ele>392.0</ele><time>2026-04-11T09:23:22.815Z</time></trkpt><trkpt lat="44.5899249" lon="7.9645982"><ele>390.33333333333337</ele><time>2026-04-11T09:23:23.793Z</time></trkpt><trkpt lat="44.5899717" lon="7.9645321"><ele>388.6666666666667</ele><time>2026-04-11T09:23:24.805Z</time></trkpt><trkpt lat="44.590047" lon="7.9643964"><ele>387.0</ele><time>2026-04-11T09:23:26.809Z</time></trkpt><trkpt lat="44.5901101" lon="7.9642381"><ele>385.8571428571429</ele><time>2026-04-11T09:23:28.812Z</time></trkpt><trkpt lat="44.5901407" lon="7.9641471"><ele>384.7142857142857</ele><time>2026-04-11T09:23:29.811Z</time></trkpt><trkpt lat="44.5901693" lon="7.9640562"><ele>383.57142857142856</ele><time>2026-04-11T09:23:30.807Z</time></trkpt><trkpt lat="44.5902031" lon="7.9639697"><ele>382.42857142857144</ele><time>2026-04-11T09:23:31.804Z</time></trkpt><trkpt lat="44.5902422" lon="7.9638985"><ele>381.2857142857143</ele><time>2026-04-11T09:23:32.797Z</time></trkpt><trkpt lat="44.5903044" lon="7.9638668"><ele>380.14285714285717</ele><time>2026-04-11T09:23:33.817Z</time></trkpt><trkpt lat="44.5903794" lon="7.9638749"><ele>379.0</ele><time>2026-04-11T09:23:34.789Z</time></trkpt><trkpt lat="44.5904569" lon="7.9638949"><ele>378.0</ele><time>2026-04-11T09:23:35.792Z</time></trkpt><trkpt lat="44.5905376" lon="7.9639143"><ele>377.0</ele><time>2026-04-11T09:23:36.813Z</time></trkpt><trkpt lat="44.5906242" lon="7.9639276"><ele>376.0</ele><time>2026-04-11T09:23:37.803Z</time></trkpt><trkpt lat="44.5907065" lon="7.9639205"><ele>375.0</ele><time>2026-04-11T09:23:38.815Z</time></trkpt><trkpt lat="44.5907833" lon="7.9638988"><ele>374.0</ele><time>2026-04-11T09:23:39.79Z</time></trkpt><trkpt lat="44.5908643" lon="7.9638731"><ele>373.0</ele><time>2026-04-11T09:23:40.791Z</time></trkpt><trkpt lat="44.5909468" lon="7.9638501"><ele>373.0</ele><time>2026-04-11T09:23:41.8Z</time></trkpt><trkpt lat="44.5910246" lon="7.9638154"><ele>373.0</ele><time>2026-04-11T09:23:42.803Z</time></trkpt><trkpt lat="44.5911017" lon="7.9637736"><ele>373.0</ele><time>2026-04-11T09:23:43.787Z</time></trkpt><trkpt lat="44.5911807" lon="7.9637396"><ele>373.0</ele><time>2026-04-11T09:23:44.802Z</time></trkpt><trkpt lat="44.59127" lon="7.9637151"><ele>373.0</ele><time>2026-04-11T09:23:45.795Z</time></trkpt><trkpt lat="44.5913683" lon="7.9637058"><ele>373.0</ele><time>2026-04-11T09:23:46.793Z</time></trkpt><trkpt lat="44.5914595" lon="7.9636983"><ele>372.2857142857143</ele><time>2026-04-11T09:23:47.798Z</time></trkpt><trkpt lat="44.591537" lon="7.9636994"><ele>371.57142857142856</ele><time>2026-04-11T09:23:48.802Z</time></trkpt><trkpt lat="44.5916131" lon="7.9637148"><ele>370.8571428571429</ele><time>2026-04-11T09:23:49.803Z</time></trkpt><trkpt lat="44.5916833" lon="7.9637392"><ele>370.1428571428571</ele><time>2026-04-11T09:23:50.8Z</time></trkpt><trkpt lat="44.5917573" lon="7.9637557"><ele>369.4285714285714</ele><time>2026-04-11T09:23:51.818Z</time></trkpt><trkpt lat="44.5918258" lon="7.9637638"><ele>368.7142857142857</ele><time>2026-04-11T09:23:52.799Z</time></trkpt><trkpt lat="44.5919012" lon="7.9637696"><ele>368.0</ele><time>2026-04-11T09:23:53.819Z</time></trkpt><trkpt lat="44.591983" lon="7.9637589"><ele>367.33333333333337</ele><time>2026-04-11T09:23:54.794Z</time></trkpt><trkpt lat="44.592061" lon="7.9637377"><ele>366.6666666666667</ele><time>2026-04-11T09:23:55.785Z</time></trkpt><trkpt lat="44.5921376" lon="7.9636985"><ele>366.0</ele><time>2026-04-11T09:23:56.788Z</time></trkpt><trkpt lat="44.5922128" lon="7.963653"><ele>365.3333333333333</ele><time>2026-04-11T09:23:57.792Z</time></trkpt><trkpt lat="44.5922885" lon="7.9636025"><ele>364.66666666666663</ele><time>2026-04-11T09:23:58.796Z</time></trkpt><trkpt lat="44.5923557" lon="7.9635534"><ele>364.0</ele><time>2026-04-11T09:23:59.797Z</time></trkpt><trkpt lat="44.5924227" lon="7.9635113"><ele>364.0</ele><time>2026-04-11T09:24:00.801Z</time></trkpt><trkpt lat="44.5924937" lon="7.9634678"><ele>364.0</ele><time>2026-04-11T09:24:01.79Z</time></trkpt><trkpt lat="44.5925608" lon="7.9634251"><ele>364.0</ele><time>2026-04-11T09:24:02.794Z</time></trkpt><trkpt lat="44.5926235" lon="7.9633816"><ele>364.0</ele><time>2026-04-11T09:24:03.806Z</time></trkpt><trkpt lat="44.5926831" lon="7.9633364"><ele>364.0</ele><time>2026-04-11T09:24:04.797Z</time></trkpt><trkpt lat="44.5927415" lon="7.9632885"><ele>364.0</ele><time>2026-04-11T09:24:05.82Z</time></trkpt><trkpt lat="44.5928022" lon="7.9632314"><ele>364.0</ele><time>2026-04-11T09:24:06.787Z</time></trkpt><trkpt lat="44.5928593" lon="7.9631712"><ele>362.16666666666663</ele><time>2026-04-11T09:24:07.798Z</time></trkpt><trkpt lat="44.5929146" lon="7.963114"><ele>360.3333333333333</ele><time>2026-04-11T09:24:08.802Z</time></trkpt><trkpt lat="44.5929722" lon="7.9630667"><ele>358.5</ele><time>2026-04-11T09:24:09.799Z</time></trkpt><trkpt lat="44.5930311" lon="7.9630301"><ele>356.6666666666667</ele><time>2026-04-11T09:24:10.796Z</time></trkpt><trkpt lat="44.5931369" lon="7.9629877"><ele>354.83333333333337</ele><time>2026-04-11T09:24:12.809Z</time></trkpt><trkpt lat="44.5932268" lon="7.9629663"><ele>353.0</ele><time>2026-04-11T09:24:14.801Z</time></trkpt><trkpt lat="44.5933049" lon="7.9629694"><ele>353.0</ele><time>2026-04-11T09:24:16.818Z</time></trkpt><trkpt lat="44.5933969" lon="7.9629599"><ele>353.0</ele><time>2026-04-11T09:24:18.801Z</time></trkpt><trkpt lat="44.5935082" lon="7.9629363"><ele>353.0</ele><time>2026-04-11T09:24:20.798Z</time></trkpt><trkpt lat="44.5936297" lon="7.962915"><ele>353.0</ele><time>2026-04-11T09:24:22.808Z</time></trkpt><trkpt lat="44.593699" lon="7.9629069"><ele>353.0</ele><time>2026-04-11T09:24:23.801Z</time></trkpt><trkpt lat="44.5937749" lon="7.962901"><ele>352.6666666666667</ele><time>2026-04-11T09:24:24.804Z</time></trkpt><trkpt lat="44.593858" lon="7.9628922"><ele>352.33333333333337</ele><time>2026-04-11T09:24:25.832Z</time></trkpt><trkpt lat="44.5939447" lon="7.9628801"><ele>352.0</ele><time>2026-04-11T09:24:26.789Z</time></trkpt><trkpt lat="44.5940291" lon="7.96286"><ele>351.6666666666667</ele><time>2026-04-11T09:24:27.792Z</time></trkpt><trkpt lat="44.594115" lon="7.9628287"><ele>351.3333333333333</ele><time>2026-04-11T09:24:28.8Z</time></trkpt><trkpt lat="44.5942029" lon="7.9627867"><ele>351.0</ele><time>2026-04-11T09:24:29.798Z</time></trkpt><trkpt lat="44.5942868" lon="7.9627443"><ele>351.0</ele><time>2026-04-11T09:24:30.792Z</time></trkpt><trkpt lat="44.5943738" lon="7.9626996"><ele>351.0</ele><time>2026-04-11T09:24:31.795Z</time></trkpt><trkpt lat="44.5944531" lon="7.9626628"><ele>351.0</ele><time>2026-04-11T09:24:32.789Z</time></trkpt><trkpt lat="44.5945297" lon="7.9626209"><ele>351.0</ele><time>2026-04-11T09:24:33.798Z</time></trkpt><trkpt lat="44.5946059" lon="7.9625789"><ele>351.0</ele><time>2026-04-11T09:24:34.796Z</time></trkpt><trkpt lat="44.5946769" lon="7.962543"><ele>351.0</ele><time>2026-04-11T09:24:35.785Z</time></trkpt><trkpt lat="44.5947449" lon="7.9625084"><ele>349.5714285714286</ele><time>2026-04-11T09:24:36.786Z</time></trkpt><trkpt lat="44.5948106" lon="7.9624739"><ele>348.14285714285717</ele><time>2026-04-11T09:24:37.796Z</time></trkpt><trkpt lat="44.5948702" lon="7.9624452"><ele>346.7142857142857</ele><time>2026-04-11T09:24:38.811Z</time></trkpt><trkpt lat="44.5949299" lon="7.9624162"><ele>345.28571428571433</ele><time>2026-04-11T09:24:39.805Z</time></trkpt><trkpt lat="44.5949952" lon="7.9623878"><ele>343.8571428571429</ele><time>2026-04-11T09:24:40.794Z</time></trkpt><trkpt lat="44.5950624" lon="7.962357"><ele>342.42857142857144</ele><time>2026-04-11T09:24:41.8Z</time></trkpt><trkpt lat="44.595128" lon="7.9623239"><ele>341.0</ele><time>2026-04-11T09:24:42.804Z</time></trkpt><trkpt lat="44.5951913" lon="7.9622932"><ele>341.0</ele><time>2026-04-11T09:24:43.8Z</time></trkpt><trkpt lat="44.5953125" lon="7.9622523"><ele>341.0</ele><time>2026-04-11T09:24:45.825Z</time></trkpt><trkpt lat="44.5954394" lon="7.9622656"><ele>341.0</ele><time>2026-04-11T09:24:47.811Z</time></trkpt><trkpt lat="44.5955033" lon="7.9622915"><ele>341.0</ele><time>2026-04-11T09:24:48.789Z</time></trkpt><trkpt lat="44.5956171" lon="7.9623406"><ele>341.0</ele><time>2026-04-11T09:24:50.814Z</time></trkpt><trkpt lat="44.5957191" lon="7.9624241"><ele>341.0</ele><time>2026-04-11T09:24:52.815Z</time></trkpt><trkpt lat="44.5957719" lon="7.9625052"><ele>341.0</ele><time>2026-04-11T09:24:53.791Z</time></trkpt><trkpt lat="44.5958086" lon="7.9625858"><ele>341.0</ele><time>2026-04-11T09:24:54.785Z</time></trkpt><trkpt lat="44.5958916" lon="7.9626844"><ele>341.0</ele><time>2026-04-11T09:24:56.786Z</time></trkpt><trkpt lat="44.5959832" lon="7.9626379"><ele>341.0</ele><time>2026-04-11T09:24:58.79Z</time></trkpt><trkpt lat="44.5960352" lon="7.9625486"><ele>341.0</ele><time>2026-04-11T09:25:00.817Z</time></trkpt><trkpt lat="44.5960689" lon="7.9624613"><ele>340.33333333333337</ele><time>2026-04-11T09:25:02.797Z</time></trkpt><trkpt lat="44.5960883" lon="7.9623557"><ele>339.6666666666667</ele><time>2026-04-11T09:25:04.802Z</time></trkpt><trkpt lat="44.5960944" lon="7.9622294"><ele>339.0</ele><time>2026-04-11T09:25:07.807Z</time></trkpt><trkpt lat="44.5960877" lon="7.9621251"><ele>338.3333333333333</ele><time>2026-04-11T09:25:11.813Z</time></trkpt><trkpt lat="44.5960895" lon="7.9620255"><ele>337.66666666666663</ele><time>2026-04-11T09:25:15.815Z</time></trkpt><trkpt lat="44.5960986" lon="7.9619207"><ele>337.0</ele><time>2026-04-11T09:25:18.797Z</time></trkpt><trkpt lat="44.5961374" lon="7.9618076"><ele>337.3333333333333</ele><time>2026-04-11T09:25:21.799Z</time></trkpt><trkpt lat="44.5961769" lon="7.9617344"><ele>337.66666666666663</ele><time>2026-04-11T09:25:23.799Z</time></trkpt><trkpt lat="44.5962205" lon="7.9616593"><ele>338.0</ele><time>2026-04-11T09:25:25.804Z</time></trkpt><trkpt lat="44.5962752" lon="7.9615929"><ele>338.3333333333333</ele><time>2026-04-11T09:25:27.798Z</time></trkpt><trkpt lat="44.5963303" lon="7.9615232"><ele>338.6666666666667</ele><time>2026-04-11T09:25:29.801Z</time></trkpt><trkpt lat="44.596392" lon="7.9614469"><ele>339.0</ele><time>2026-04-11T09:25:31.807Z</time></trkpt><trkpt lat="44.5964643" lon="7.9613672"><ele>339.0</ele><time>2026-04-11T09:25:33.794Z</time></trkpt><trkpt lat="44.5965386" lon="7.9612928"><ele>339.0</ele><time>2026-04-11T09:25:35.797Z</time></trkpt><trkpt lat="44.5966022" lon="7.9612231"><ele>339.0</ele><time>2026-04-11T09:25:37.802Z</time></trkpt><trkpt lat="44.5966621" lon="7.961148"><ele>339.0</ele><time>2026-04-11T09:25:39.797Z</time></trkpt><trkpt lat="44.596714" lon="7.9610787"><ele>339.0</ele><time>2026-04-11T09:25:41.806Z</time></trkpt><trkpt lat="44.5967754" lon="7.961002"><ele>339.0</ele><time>2026-04-11T09:25:43.811Z</time></trkpt><trkpt lat="44.5968645" lon="7.9609349"><ele>339.0</ele><time>2026-04-11T09:25:45.801Z</time></trkpt><trkpt lat="44.5969453" lon="7.9608895"><ele>339.0</ele><time>2026-04-11T09:25:47.798Z</time></trkpt><trkpt lat="44.5970218" lon="7.9608356"><ele>339.0</ele><time>2026-04-11T09:25:50.806Z</time></trkpt><trkpt lat="44.5970885" lon="7.9607795"><ele>339.0</ele><time>2026-04-11T09:25:54.8Z</time></trkpt><trkpt lat="44.597156" lon="7.9607283"><ele>339.0</ele><time>2026-04-11T09:25:59.794Z</time></trkpt><trkpt lat="44.597216" lon="7.9606958"><ele>339.0</ele><time>2026-04-11T09:26:04.796Z</time></trkpt><trkpt lat="44.5972857" lon="7.9606546"><ele>338.1666666666667</ele><time>2026-04-11T09:26:22.806Z</time></trkpt><trkpt lat="44.5973517" lon="7.9606498"><ele>337.3333333333333</ele><time>2026-04-11T09:26:25.802Z</time></trkpt><trkpt lat="44.5974423" lon="7.960644"><ele>336.5</ele><time>2026-04-11T09:26:28.791Z</time></trkpt><trkpt lat="44.5975316" lon="7.9606517"><ele>335.66666666666663</ele><time>2026-04-11T09:26:31.802Z</time></trkpt><trkpt lat="44.5975966" lon="7.9606464"><ele>334.8333333333333</ele><time>2026-04-11T09:26:33.791Z</time></trkpt><trkpt lat="44.5976853" lon="7.9606348"><ele>334.0</ele><time>2026-04-11T09:26:36.803Z</time></trkpt><trkpt lat="44.5977724" lon="7.9606056"><ele>333.8333333333333</ele><time>2026-04-11T09:26:39.797Z</time></trkpt><trkpt lat="44.5978571" lon="7.9605679"><ele>333.66666666666663</ele><time>2026-04-11T09:26:42.795Z</time></trkpt><trkpt lat="44.5979331" lon="7.9605369"><ele>333.5</ele><time>2026-04-11T09:26:45.807Z</time></trkpt><trkpt lat="44.5980087" lon="7.960524"><ele>333.3333333333333</ele><time>2026-04-11T09:26:48.795Z</time></trkpt><trkpt lat="44.5980871" lon="7.9605444"><ele>333.1666666666667</ele><time>2026-04-11T09:26:51.822Z</time></trkpt><trkpt lat="44.5981635" lon="7.9605732"><ele>333.0</ele><time>2026-04-11T09:26:53.798Z</time></trkpt><trkpt lat="44.5982379" lon="7.9606062"><ele>333.0</ele><time>2026-04-11T09:26:55.803Z</time></trkpt><trkpt lat="44.5983233" lon="7.9606544"><ele>333.0</ele><time>2026-04-11T09:26:58.808Z</time></trkpt><trkpt lat="44.5984058" lon="7.960681"><ele>333.0</ele><time>2026-04-11T09:27:01.826Z</time></trkpt><trkpt lat="44.5984689" lon="7.9606649"><ele>333.0</ele><time>2026-04-11T09:27:03.801Z</time></trkpt><trkpt lat="44.598535" lon="7.9606375"><ele>333.0</ele><time>2026-04-11T09:27:05.811Z</time></trkpt><trkpt lat="44.5985917" lon="7.960585"><ele>333.0</ele><time>2026-04-11T09:27:07.835Z</time></trkpt><trkpt lat="44.5986593" lon="7.9605276"><ele>332.5714285714286</ele><time>2026-04-11T09:27:09.801Z</time></trkpt><trkpt lat="44.5987187" lon="7.9604619"><ele>332.1428571428571</ele><time>2026-04-11T09:27:11.799Z</time></trkpt><trkpt lat="44.5987491" lon="7.9603773"><ele>331.7142857142857</ele><time>2026-04-11T09:27:13.808Z</time></trkpt><trkpt lat="44.5987804" lon="7.9602748"><ele>331.28571428571433</ele><time>2026-04-11T09:27:15.804Z</time></trkpt><trkpt lat="44.598807" lon="7.9601682"><ele>330.8571428571429</ele><time>2026-04-11T09:27:17.816Z</time></trkpt><trkpt lat="44.5988228" lon="7.9600786"><ele>330.42857142857144</ele><time>2026-04-11T09:27:19.796Z</time></trkpt><trkpt lat="44.5988322" lon="7.9599673"><ele>330.0</ele><time>2026-04-11T09:27:22.798Z</time></trkpt><trkpt lat="44.5988434" lon="7.9598674"><ele>328.8333333333333</ele><time>2026-04-11T09:27:25.826Z</time></trkpt><trkpt lat="44.598857" lon="7.9597726"><ele>327.6666666666667</ele><time>2026-04-11T09:27:27.82Z</time></trkpt><trkpt lat="44.5988803" lon="7.9596718"><ele>326.5</ele><time>2026-04-11T09:27:29.813Z</time></trkpt><trkpt lat="44.5988928" lon="7.959566"><ele>325.33333333333337</ele><time>2026-04-11T09:27:31.825Z</time></trkpt><trkpt lat="44.5989076" lon="7.9594489"><ele>324.1666666666667</ele><time>2026-04-11T09:27:33.8Z</time></trkpt><trkpt lat="44.5989171" lon="7.9593247"><ele>323.0</ele><time>2026-04-11T09:27:35.798Z</time></trkpt><trkpt lat="44.5989292" lon="7.95922"><ele>322.0</ele><time>2026-04-11T09:27:37.798Z</time></trkpt><trkpt lat="44.5989357" lon="7.9591195"><ele>321.0</ele><time>2026-04-11T09:27:40.816Z</time></trkpt><trkpt lat="44.5989781" lon="7.9590377"><ele>320.0</ele><time>2026-04-11T09:27:42.792Z</time></trkpt><trkpt lat="44.5990243" lon="7.9589623"><ele>319.0</ele><time>2026-04-11T09:27:44.788Z</time></trkpt><trkpt lat="44.5990591" lon="7.9588554"><ele>318.0</ele><time>2026-04-11T09:27:47.803Z</time></trkpt><trkpt lat="44.5990575" lon="7.9587542"><ele>317.0</ele><time>2026-04-11T09:27:50.811Z</time></trkpt><trkpt lat="44.5990702" lon="7.9586292"><ele>317.0</ele><time>2026-04-11T09:27:53.8Z</time></trkpt><trkpt lat="44.5990795" lon="7.9585317"><ele>317.0</ele><time>2026-04-11T09:27:55.824Z</time></trkpt><trkpt lat="44.5990893" lon="7.958431"><ele>317.0</ele><time>2026-04-11T09:27:57.818Z</time></trkpt><trkpt lat="44.5991212" lon="7.9583114"><ele>317.0</ele><time>2026-04-11T09:27:59.808Z</time></trkpt><trkpt lat="44.5991582" lon="7.958226"><ele>317.0</ele><time>2026-04-11T09:28:01.825Z</time></trkpt><trkpt lat="44.5992035" lon="7.9581408"><ele>317.0</ele><time>2026-04-11T09:28:03.803Z</time></trkpt><trkpt lat="44.5992579" lon="7.958063"><ele>317.5</ele><time>2026-04-11T09:28:05.81Z</time></trkpt><trkpt lat="44.5993292" lon="7.9579877"><ele>318.0</ele><time>2026-04-11T09:28:07.81Z</time></trkpt><trkpt lat="44.5993957" lon="7.9579097"><ele>318.5</ele><time>2026-04-11T09:28:09.8Z</time></trkpt><trkpt lat="44.5994493" lon="7.9578422"><ele>319.0</ele><time>2026-04-11T09:28:11.8Z</time></trkpt><trkpt lat="44.5994984" lon="7.9577802"><ele>319.5</ele><time>2026-04-11T09:28:13.798Z</time></trkpt><trkpt lat="44.5995524" lon="7.9577147"><ele>320.0</ele><time>2026-04-11T09:28:15.803Z</time></trkpt><trkpt lat="44.5996063" lon="7.9576529"><ele>320.0</ele><time>2026-04-11T09:28:17.808Z</time></trkpt><trkpt lat="44.5996586" lon="7.9575831"><ele>320.0</ele><time>2026-04-11T09:28:19.795Z</time></trkpt><trkpt lat="44.5997144" lon="7.957496"><ele>320.0</ele><time>2026-04-11T09:28:21.829Z</time></trkpt><trkpt lat="44.5997837" lon="7.9574105"><ele>320.0</ele><time>2026-04-11T09:28:23.792Z</time></trkpt><trkpt lat="44.5998556" lon="7.9573051"><ele>320.0</ele><time>2026-04-11T09:28:25.83Z</time></trkpt><trkpt lat="44.5999109" lon="7.9572247"><ele>320.0</ele><time>2026-04-11T09:28:27.806Z</time></trkpt><trkpt lat="44.5999593" lon="7.9571636"><ele>319.5</ele><time>2026-04-11T09:28:29.817Z</time></trkpt><trkpt lat="44.6000189" lon="7.9570851"><ele>319.0</ele><time>2026-04-11T09:28:32.818Z</time></trkpt><trkpt lat="44.6000823" lon="7.957007"><ele>318.5</ele><time>2026-04-11T09:28:35.806Z</time></trkpt><trkpt lat="44.6001499" lon="7.9569246"><ele>318.0</ele><time>2026-04-11T09:28:38.818Z</time></trkpt><trkpt lat="44.6002152" lon="7.9568501"><ele>317.5</ele><time>2026-04-11T09:28:41.814Z</time></trkpt><trkpt lat="44.6002746" lon="7.9567817"><ele>317.0</ele><time>2026-04-11T09:28:44.814Z</time></trkpt><trkpt lat="44.6003575" lon="7.9567282"><ele>315.1666666666667</ele><time>2026-04-11T09:28:47.84Z</time></trkpt><trkpt lat="44.6004273" lon="7.9566758"><ele>313.33333333333337</ele><time>2026-04-11T09:28:49.809Z</time></trkpt><trkpt lat="44.6005099" lon="7.9566318"><ele>311.5</ele><time>2026-04-11T09:28:51.854Z</time></trkpt><trkpt lat="44.6005828" lon="7.956595"><ele>309.6666666666667</ele><time>2026-04-11T09:28:53.855Z</time></trkpt><trkpt lat="44.6006494" lon="7.9565509"><ele>307.8333333333333</ele><time>2026-04-11T09:28:55.822Z</time></trkpt><trkpt lat="44.6007147" lon="7.956512"><ele>306.0</ele><time>2026-04-11T09:28:57.859Z</time></trkpt><trkpt lat="44.6007783" lon="7.9564795"><ele>306.0</ele><time>2026-04-11T09:28:59.847Z</time></trkpt><trkpt lat="44.6008409" lon="7.9564408"><ele>306.0</ele><time>2026-04-11T09:29:01.85Z</time></trkpt><trkpt lat="44.6009004" lon="7.9564083"><ele>306.0</ele><time>2026-04-11T09:29:03.815Z</time></trkpt><trkpt lat="44.6009638" lon="7.956372"><ele>306.0</ele><time>2026-04-11T09:29:05.808Z</time></trkpt><trkpt lat="44.6010297" lon="7.9563449"><ele>306.0</ele><time>2026-04-11T09:29:07.851Z</time></trkpt><trkpt lat="44.6011214" lon="7.9563087"><ele>306.0</ele><time>2026-04-11T09:29:10.866Z</time></trkpt><trkpt lat="44.6011916" lon="7.9562767"><ele>306.0</ele><time>2026-04-11T09:29:12.805Z</time></trkpt><trkpt lat="44.601254" lon="7.9562363"><ele>305.1428571428571</ele><time>2026-04-11T09:29:14.85Z</time></trkpt><trkpt lat="44.6013219" lon="7.9562013"><ele>304.2857142857143</ele><time>2026-04-11T09:29:16.875Z</time></trkpt><trkpt lat="44.6013984" lon="7.956168"><ele>303.42857142857144</ele><time>2026-04-11T09:29:18.808Z</time></trkpt><trkpt lat="44.6014703" lon="7.9561419"><ele>302.57142857142856</ele><time>2026-04-11T09:29:20.843Z</time></trkpt><trkpt lat="44.6015349" lon="7.956114"><ele>301.7142857142857</ele><time>2026-04-11T09:29:22.852Z</time></trkpt><trkpt lat="44.6016024" lon="7.9560936"><ele>300.85714285714283</ele><time>2026-04-11T09:29:24.814Z</time></trkpt><trkpt lat="44.6016777" lon="7.9560778"><ele>300.0</ele><time>2026-04-11T09:29:26.81Z</time></trkpt><trkpt lat="44.6017555" lon="7.9560493"><ele>300.0</ele><time>2026-04-11T09:29:28.861Z</time></trkpt><trkpt lat="44.6018425" lon="7.9560356"><ele>300.0</ele><time>2026-04-11T09:29:31.85Z</time></trkpt><trkpt lat="44.6018994" lon="7.9559812"><ele>300.0</ele><time>2026-04-11T09:29:35.835Z</time></trkpt><trkpt lat="44.6019544" lon="7.9558623"><ele>300.0</ele><time>2026-04-11T09:29:38.899Z</time></trkpt><trkpt lat="44.602007" lon="7.9557403"><ele>300.0</ele><time>2026-04-11T09:29:40.876Z</time></trkpt><trkpt lat="44.6020704" lon="7.9556076"><ele>297.0</ele><time>2026-04-11T09:29:42.827Z</time></trkpt><trkpt lat="44.6021324" lon="7.9554921"><ele>294.0</ele><time>2026-04-11T09:29:44.908Z</time></trkpt><trkpt lat="44.6021987" lon="7.9553919"><ele>291.0</ele><time>2026-04-11T09:29:46.878Z</time></trkpt><trkpt lat="44.6022672" lon="7.9552955"><ele>288.0</ele><time>2026-04-11T09:29:48.87Z</time></trkpt><trkpt lat="44.6023213" lon="7.9552259"><ele>285.0</ele><time>2026-04-11T09:29:50.894Z</time></trkpt><trkpt lat="44.6023832" lon="7.9551418"><ele>285.0</ele><time>2026-04-11T09:29:53.86Z</time></trkpt><trkpt lat="44.6024624" lon="7.9551162"><ele>285.0</ele><time>2026-04-11T09:29:56.864Z</time></trkpt><trkpt lat="44.6025296" lon="7.9551371"><ele>285.0</ele><time>2026-04-11T09:29:58.858Z</time></trkpt><trkpt lat="44.6025924" lon="7.9550587"><ele>285.0</ele><time>2026-04-11T09:30:00.85Z</time></trkpt><trkpt lat="44.6026677" lon="7.9549676"><ele>285.0</ele><time>2026-04-11T09:30:02.866Z</time></trkpt><trkpt lat="44.6027492" lon="7.9548599"><ele>285.0</ele><time>2026-04-11T09:30:04.856Z</time></trkpt><trkpt lat="44.6028142" lon="7.9547502"><ele>284.4</ele><time>2026-04-11T09:30:06.882Z</time></trkpt><trkpt lat="44.6028865" lon="7.954636"><ele>283.8</ele><time>2026-04-11T09:30:08.854Z</time></trkpt><trkpt lat="44.6029592" lon="7.9545296"><ele>283.2</ele><time>2026-04-11T09:30:10.791Z</time></trkpt><trkpt lat="44.6030255" lon="7.9544278"><ele>282.6</ele><time>2026-04-11T09:30:12.852Z</time></trkpt><trkpt lat="44.6031002" lon="7.9543523"><ele>282.0</ele><time>2026-04-11T09:30:14.808Z</time></trkpt><trkpt lat="44.6031948" lon="7.9542923"><ele>282.0</ele><time>2026-04-11T09:30:16.801Z</time></trkpt><trkpt lat="44.6032766" lon="7.9542372"><ele>282.0</ele><time>2026-04-11T09:30:18.837Z</time></trkpt><trkpt lat="44.6033599" lon="7.9541811"><ele>282.0</ele><time>2026-04-11T09:30:20.875Z</time></trkpt><trkpt lat="44.603437" lon="7.9541282"><ele>282.0</ele><time>2026-04-11T09:30:22.839Z</time></trkpt><trkpt lat="44.6035072" lon="7.9540623"><ele>282.0</ele><time>2026-04-11T09:30:24.808Z</time></trkpt><trkpt lat="44.603575" lon="7.9539855"><ele>282.0</ele><time>2026-04-11T09:30:26.886Z</time></trkpt><trkpt lat="44.6036089" lon="7.9538865"><ele>281.14285714285717</ele><time>2026-04-11T09:30:28.876Z</time></trkpt><trkpt lat="44.6036163" lon="7.953768"><ele>280.2857142857143</ele><time>2026-04-11T09:30:31.896Z</time></trkpt><trkpt lat="44.6036495" lon="7.9536499"><ele>279.42857142857144</ele><time>2026-04-11T09:30:34.863Z</time></trkpt><trkpt lat="44.6036759" lon="7.9535695"><ele>278.57142857142856</ele><time>2026-04-11T09:30:36.848Z</time></trkpt><trkpt lat="44.6037116" lon="7.9534863"><ele>277.7142857142857</ele><time>2026-04-11T09:30:38.879Z</time></trkpt><trkpt lat="44.6037446" lon="7.9533982"><ele>276.8571428571429</ele><time>2026-04-11T09:30:40.847Z</time></trkpt><trkpt lat="44.6037888" lon="7.9533278"><ele>276.0</ele><time>2026-04-11T09:30:42.814Z</time></trkpt><trkpt lat="44.6038384" lon="7.9532618"><ele>275.1666666666667</ele><time>2026-04-11T09:30:44.881Z</time></trkpt><trkpt lat="44.6039075" lon="7.9532154"><ele>274.3333333333333</ele><time>2026-04-11T09:30:46.885Z</time></trkpt><trkpt lat="44.6039884" lon="7.9531889"><ele>273.5</ele><time>2026-04-11T09:30:48.884Z</time></trkpt><trkpt lat="44.6040726" lon="7.9531965"><ele>272.66666666666663</ele><time>2026-04-11T09:30:50.885Z</time></trkpt><trkpt lat="44.6041723" lon="7.953203"><ele>271.8333333333333</ele><time>2026-04-11T09:30:52.825Z</time></trkpt><trkpt lat="44.6042463" lon="7.9531927"><ele>271.0</ele><time>2026-04-11T09:30:54.845Z</time></trkpt><trkpt lat="44.6043483" lon="7.9531556"><ele>271.0</ele><time>2026-04-11T09:30:56.874Z</time></trkpt><trkpt lat="44.6044121" lon="7.9531286"><ele>271.0</ele><time>2026-04-11T09:30:57.858Z</time></trkpt><trkpt lat="44.6045252" lon="7.9530765"><ele>271.0</ele><time>2026-04-11T09:30:59.867Z</time></trkpt><trkpt lat="44.6046416" lon="7.953021"><ele>271.0</ele><time>2026-04-11T09:31:01.858Z</time></trkpt><trkpt lat="44.6047511" lon="7.9529693"><ele>271.0</ele><time>2026-04-11T09:31:03.851Z</time></trkpt><trkpt lat="44.6048707" lon="7.9529441"><ele>270.40000000000003</ele><time>2026-04-11T09:31:05.83Z</time></trkpt><trkpt lat="44.6049895" lon="7.9529424"><ele>269.8</ele><time>2026-04-11T09:31:07.83Z</time></trkpt><trkpt lat="44.605102" lon="7.9529512"><ele>269.20000000000005</ele><time>2026-04-11T09:31:09.838Z</time></trkpt><trkpt lat="44.6052068" lon="7.9529388"><ele>268.6</ele><time>2026-04-11T09:31:11.855Z</time></trkpt><trkpt lat="44.6052998" lon="7.952895"><ele>268.0</ele><time>2026-04-11T09:31:13.914Z</time></trkpt><trkpt lat="44.6053475" lon="7.9528237"><ele>267.8333333333333</ele><time>2026-04-11T09:31:15.879Z</time></trkpt><trkpt lat="44.6053441" lon="7.9527137"><ele>267.66666666666663</ele><time>2026-04-11T09:31:18.837Z</time></trkpt><trkpt lat="44.605329" lon="7.9525818"><ele>267.5</ele><time>2026-04-11T09:31:21.839Z</time></trkpt><trkpt lat="44.6053582" lon="7.95248"><ele>267.3333333333333</ele><time>2026-04-11T09:31:23.884Z</time></trkpt><trkpt lat="44.6054097" lon="7.9523737"><ele>267.1666666666667</ele><time>2026-04-11T09:31:25.877Z</time></trkpt><trkpt lat="44.6054673" lon="7.9522782"><ele>267.0</ele><time>2026-04-11T09:31:27.821Z</time></trkpt><trkpt lat="44.6055352" lon="7.9521926"><ele>266.0</ele><time>2026-04-11T09:31:29.898Z</time></trkpt><trkpt lat="44.6056097" lon="7.9521025"><ele>265.0</ele><time>2026-04-11T09:31:31.853Z</time></trkpt><trkpt lat="44.6057105" lon="7.9520306"><ele>264.0</ele><time>2026-04-11T09:31:33.859Z</time></trkpt><trkpt lat="44.6058247" lon="7.9519781"><ele>263.0</ele><time>2026-04-11T09:31:35.882Z</time></trkpt><trkpt lat="44.6059367" lon="7.9518913"><ele>263.0</ele><time>2026-04-11T09:31:37.838Z</time></trkpt><trkpt lat="44.605992" lon="7.9518374"><ele>263.0</ele><time>2026-04-11T09:31:38.864Z</time></trkpt><trkpt lat="44.6060484" lon="7.9517764"><ele>263.0</ele><time>2026-04-11T09:31:39.923Z</time></trkpt><trkpt lat="44.6060977" lon="7.9517111"><ele>263.0</ele><time>2026-04-11T09:31:40.877Z</time></trkpt><trkpt lat="44.6061425" lon="7.9516426"><ele>263.0</ele><time>2026-04-11T09:31:41.85Z</time></trkpt><trkpt lat="44.6061917" lon="7.9515805"><ele>263.0</ele><time>2026-04-11T09:31:42.879Z</time></trkpt><trkpt lat="44.6062425" lon="7.9515255"><ele>263.0</ele><time>2026-04-11T09:31:43.861Z</time></trkpt><trkpt lat="44.6062924" lon="7.9514695"><ele>262.6</ele><time>2026-04-11T09:31:44.853Z</time></trkpt><trkpt lat="44.6063852" lon="7.9513752"><ele>262.20000000000005</ele><time>2026-04-11T09:31:46.881Z</time></trkpt><trkpt lat="44.6064778" lon="7.9512927"><ele>261.8</ele><time>2026-04-11T09:31:48.847Z</time></trkpt><trkpt lat="44.6065775" lon="7.9512248"><ele>261.40000000000003</ele><time>2026-04-11T09:31:50.89Z</time></trkpt><trkpt lat="44.6066898" lon="7.9512203"><ele>261.0</ele><time>2026-04-11T09:31:52.79Z</time></trkpt><trkpt lat="44.6067884" lon="7.9512799"><ele>261.0</ele><time>2026-04-11T09:31:54.858Z</time></trkpt><trkpt lat="44.6068972" lon="7.9513456"><ele>261.0</ele><time>2026-04-11T09:31:56.875Z</time></trkpt><trkpt lat="44.6070047" lon="7.9513546"><ele>261.0</ele><time>2026-04-11T09:31:58.826Z</time></trkpt><trkpt lat="44.607107" lon="7.9513096"><ele>261.0</ele><time>2026-04-11T09:32:00.798Z</time></trkpt><trkpt lat="44.6072119" lon="7.9512379"><ele>260.8</ele><time>2026-04-11T09:32:02.809Z</time></trkpt><trkpt lat="44.6073153" lon="7.9511557"><ele>260.6</ele><time>2026-04-11T09:32:04.897Z</time></trkpt><trkpt lat="44.6074085" lon="7.951085"><ele>260.4</ele><time>2026-04-11T09:32:06.837Z</time></trkpt><trkpt lat="44.6075116" lon="7.9510279"><ele>260.2</ele><time>2026-04-11T09:32:08.841Z</time></trkpt><trkpt lat="44.6076151" lon="7.9509799"><ele>260.0</ele><time>2026-04-11T09:32:10.89Z</time></trkpt><trkpt lat="44.6077223" lon="7.9509534"><ele>260.0</ele><time>2026-04-11T09:32:12.82Z</time></trkpt><trkpt lat="44.6078261" lon="7.9509283"><ele>260.0</ele><time>2026-04-11T09:32:14.893Z</time></trkpt><trkpt lat="44.6079339" lon="7.9509087"><ele>260.0</ele><time>2026-04-11T09:32:16.894Z</time></trkpt><trkpt lat="44.6080501" lon="7.9508988"><ele>260.0</ele><time>2026-04-11T09:32:18.804Z</time></trkpt><trkpt lat="44.6081558" lon="7.9508997"><ele>260.0</ele><time>2026-04-11T09:32:20.811Z</time></trkpt><trkpt lat="44.6082637" lon="7.9508989"><ele>259.5</ele><time>2026-04-11T09:32:22.875Z</time></trkpt><trkpt lat="44.6083754" lon="7.9508946"><ele>259.0</ele><time>2026-04-11T09:32:24.834Z</time></trkpt><trkpt lat="44.6084906" lon="7.9508819"><ele>258.5</ele><time>2026-04-11T09:32:26.85Z</time></trkpt><trkpt lat="44.6086139" lon="7.9508654"><ele>258.0</ele><time>2026-04-11T09:32:28.803Z</time></trkpt><trkpt lat="44.6087392" lon="7.9508582"><ele>256.0</ele><time>2026-04-11T09:32:30.8Z</time></trkpt><trkpt lat="44.6088564" lon="7.9508524"><ele>254.0</ele><time>2026-04-11T09:32:32.795Z</time></trkpt><trkpt lat="44.6089745" lon="7.9508542"><ele>252.0</ele><time>2026-04-11T09:32:34.808Z</time></trkpt><trkpt lat="44.6090802" lon="7.9508487"><ele>250.0</ele><time>2026-04-11T09:32:36.806Z</time></trkpt><trkpt lat="44.6091919" lon="7.9508397"><ele>250.0</ele><time>2026-04-11T09:32:38.789Z</time></trkpt><trkpt lat="44.6092983" lon="7.9508313"><ele>250.0</ele><time>2026-04-11T09:32:40.803Z</time></trkpt><trkpt lat="44.6093995" lon="7.9508169"><ele>250.0</ele><time>2026-04-11T09:32:42.806Z</time></trkpt><trkpt lat="44.6094956" lon="7.9507974"><ele>250.0</ele><time>2026-04-11T09:32:44.802Z</time></trkpt><trkpt lat="44.6095995" lon="7.950776"><ele>250.0</ele><time>2026-04-11T09:32:46.809Z</time></trkpt><trkpt lat="44.6096939" lon="7.9507447"><ele>249.25</ele><time>2026-04-11T09:32:48.824Z</time></trkpt><trkpt lat="44.6098006" lon="7.950727"><ele>248.5</ele><time>2026-04-11T09:32:50.816Z</time></trkpt><trkpt lat="44.6099202" lon="7.9507004"><ele>247.75</ele><time>2026-04-11T09:32:52.803Z</time></trkpt><trkpt lat="44.6100373" lon="7.9506735"><ele>247.0</ele><time>2026-04-11T09:32:54.805Z</time></trkpt><trkpt lat="44.6101553" lon="7.9506517"><ele>247.0</ele><time>2026-04-11T09:32:56.819Z</time></trkpt><trkpt lat="44.6102733" lon="7.9506331"><ele>247.0</ele><time>2026-04-11T09:32:58.826Z</time></trkpt><trkpt lat="44.6103793" lon="7.9506147"><ele>247.0</ele><time>2026-04-11T09:33:00.829Z</time></trkpt><trkpt lat="44.6104835" lon="7.9505807"><ele>247.0</ele><time>2026-04-11T09:33:02.808Z</time></trkpt><trkpt lat="44.6105761" lon="7.9505325"><ele>247.0</ele><time>2026-04-11T09:33:04.824Z</time></trkpt><trkpt lat="44.6106722" lon="7.9504727"><ele>246.6</ele><time>2026-04-11T09:33:06.823Z</time></trkpt><trkpt lat="44.6107766" lon="7.95044"><ele>246.2</ele><time>2026-04-11T09:33:08.817Z</time></trkpt><trkpt lat="44.6108811" lon="7.9504274"><ele>245.8</ele><time>2026-04-11T09:33:10.792Z</time></trkpt><trkpt lat="44.6109815" lon="7.9504184"><ele>245.4</ele><time>2026-04-11T09:33:12.808Z</time></trkpt><trkpt lat="44.6110966" lon="7.9504213"><ele>245.0</ele><time>2026-04-11T09:33:14.803Z</time></trkpt><trkpt lat="44.6112045" lon="7.9504099"><ele>244.4</ele><time>2026-04-11T09:33:16.795Z</time></trkpt><trkpt lat="44.6113003" lon="7.9503834"><ele>243.8</ele><time>2026-04-11T09:33:18.813Z</time></trkpt><trkpt lat="44.6113982" lon="7.9503372"><ele>243.2</ele><time>2026-04-11T09:33:20.807Z</time></trkpt><trkpt lat="44.6114837" lon="7.9502692"><ele>242.6</ele><time>2026-04-11T09:33:22.836Z</time></trkpt><trkpt lat="44.6115642" lon="7.9501909"><ele>242.0</ele><time>2026-04-11T09:33:24.834Z</time></trkpt><trkpt lat="44.6116497" lon="7.950122"><ele>242.00000000000003</ele><time>2026-04-11T09:33:26.819Z</time></trkpt><trkpt lat="44.6117408" lon="7.950076"><ele>242.0</ele><time>2026-04-11T09:33:28.803Z</time></trkpt><trkpt lat="44.6118364" lon="7.9500514"><ele>242.0</ele><time>2026-04-11T09:33:30.83Z</time></trkpt><trkpt lat="44.6119273" lon="7.9500432"><ele>242.0</ele><time>2026-04-11T09:33:32.823Z</time></trkpt><trkpt lat="44.612007" lon="7.9500446"><ele>242.00000000000003</ele><time>2026-04-11T09:33:34.819Z</time></trkpt><trkpt lat="44.6120845" lon="7.9500548"><ele>242.0</ele><time>2026-04-11T09:33:36.809Z</time></trkpt><trkpt lat="44.6121577" lon="7.9500785"><ele>241.85714285714283</ele><time>2026-04-11T09:33:38.814Z</time></trkpt><trkpt lat="44.612233" lon="7.9500937"><ele>241.7142857142857</ele><time>2026-04-11T09:33:40.813Z</time></trkpt><trkpt lat="44.6123029" lon="7.9501111"><ele>241.57142857142856</ele><time>2026-04-11T09:33:42.798Z</time></trkpt><trkpt lat="44.6123663" lon="7.9501254"><ele>241.42857142857144</ele><time>2026-04-11T09:33:44.803Z</time></trkpt><trkpt lat="44.6124444" lon="7.95014"><ele>241.2857142857143</ele><time>2026-04-11T09:33:47.807Z</time></trkpt><trkpt lat="44.6125159" lon="7.9501545"><ele>241.14285714285717</ele><time>2026-04-11T09:33:50.824Z</time></trkpt><trkpt lat="44.6125838" lon="7.95016"><ele>241.0</ele><time>2026-04-11T09:33:53.818Z</time></trkpt><trkpt lat="44.6126497" lon="7.9501625"><ele>241.0</ele><time>2026-04-11T09:33:56.809Z</time></trkpt><trkpt lat="44.6127244" lon="7.950158"><ele>241.00000000000003</ele><time>2026-04-11T09:34:00.832Z</time></trkpt><trkpt lat="44.6128013" lon="7.9501588"><ele>241.0</ele><time>2026-04-11T09:34:04.803Z</time></trkpt><trkpt lat="44.6128792" lon="7.9501562"><ele>241.0</ele><time>2026-04-11T09:34:08.789Z</time></trkpt><trkpt lat="44.6129545" lon="7.9501484"><ele>241.00000000000003</ele><time>2026-04-11T09:34:13.809Z</time></trkpt><trkpt lat="44.6130284" lon="7.9501585"><ele>241.0</ele><time>2026-04-11T09:34:19.8Z</time></trkpt><trkpt lat="44.6130949" lon="7.9501632"><ele>241.0</ele><time>2026-04-11T09:34:24.817Z</time></trkpt><trkpt lat="44.6131632" lon="7.9501779"><ele>240.83333333333331</ele><time>2026-04-11T09:34:29.818Z</time></trkpt><trkpt lat="44.6132308" lon="7.9501798"><ele>240.66666666666666</ele><time>2026-04-11T09:34:34.81Z</time></trkpt><trkpt lat="44.6133053" lon="7.9501793"><ele>240.5</ele><time>2026-04-11T09:34:40.796Z</time></trkpt><trkpt lat="44.6133831" lon="7.9502083"><ele>240.33333333333331</ele><time>2026-04-11T09:34:48.815Z</time></trkpt><trkpt lat="44.6134775" lon="7.9502183"><ele>240.16666666666666</ele><time>2026-04-11T09:34:57.805Z</time></trkpt><trkpt lat="44.6135402" lon="7.9502046"><ele>240.0</ele><time>2026-04-11T09:35:02.845Z</time></trkpt><trkpt lat="44.6136086" lon="7.9501709"><ele>241.5</ele><time>2026-04-11T09:35:09.826Z</time></trkpt><trkpt lat="44.6136614" lon="7.9501042"><ele>243.0</ele><time>2026-04-11T09:35:15.815Z</time></trkpt><trkpt lat="44.6136928" lon="7.9500256"><ele>244.5</ele><time>2026-04-11T09:35:21.831Z</time></trkpt><trkpt lat="44.6137195" lon="7.9499337"><ele>246.0</ele><time>2026-04-11T09:35:27.833Z</time></trkpt><trkpt lat="44.6137248" lon="7.9498347"><ele>247.5</ele><time>2026-04-11T09:35:34.809Z</time></trkpt><trkpt lat="44.6136959" lon="7.9497384"><ele>249.0</ele><time>2026-04-11T09:35:45.828Z</time></trkpt><trkpt lat="44.6136459" lon="7.9496051"><ele>250.0</ele><time>2026-04-11T09:36:17.836Z</time></trkpt><trkpt lat="44.6136124" lon="7.9495208"><ele>250.99999999999997</ele><time>2026-04-11T09:38:12.875Z</time></trkpt><trkpt lat="44.6136035" lon="7.9494263"><ele>252.0</ele><time>2026-04-11T09:38:22.873Z</time></trkpt><trkpt lat="44.6136047" lon="7.9493296"><ele>253.0</ele><time>2026-04-11T09:38:25.877Z</time></trkpt><trkpt lat="44.6135915" lon="7.9492113"><ele>253.99999999999997</ele><time>2026-04-11T09:38:28.87Z</time></trkpt><trkpt lat="44.6135822" lon="7.9491179"><ele>255.0</ele><time>2026-04-11T09:38:30.844Z</time></trkpt><trkpt lat="44.6135727" lon="7.9490288"><ele>256.0</ele><time>2026-04-11T09:38:32.873Z</time></trkpt><trkpt lat="44.6135587" lon="7.9489274"><ele>255.83333333333331</ele><time>2026-04-11T09:38:34.884Z</time></trkpt><trkpt lat="44.613548" lon="7.9488257"><ele>255.66666666666666</ele><time>2026-04-11T09:38:36.861Z</time></trkpt><trkpt lat="44.6135472" lon="7.9487211"><ele>255.5</ele><time>2026-04-11T09:38:38.894Z</time></trkpt><trkpt lat="44.6135374" lon="7.948605"><ele>255.33333333333331</ele><time>2026-04-11T09:38:40.906Z</time></trkpt><trkpt lat="44.6135188" lon="7.948497"><ele>255.16666666666666</ele><time>2026-04-11T09:38:42.919Z</time></trkpt><trkpt lat="44.6134951" lon="7.9483872"><ele>255.0</ele><time>2026-04-11T09:38:44.852Z</time></trkpt><trkpt lat="44.6134502" lon="7.9482611"><ele>255.0</ele><time>2026-04-11T09:38:46.881Z</time></trkpt><trkpt lat="44.6134046" lon="7.9481259"><ele>255.0</ele><time>2026-04-11T09:38:48.901Z</time></trkpt><trkpt lat="44.613366" lon="7.947987"><ele>255.0</ele><time>2026-04-11T09:38:50.835Z</time></trkpt><trkpt lat="44.6132506" lon="7.947589"><ele>253.6</ele><time>2026-04-11T09:38:56.87Z</time></trkpt><trkpt lat="44.6132462" lon="7.9474423"><ele>252.2</ele><time>2026-04-11T09:38:58.882Z</time></trkpt><trkpt lat="44.6132577" lon="7.9472949"><ele>250.8</ele><time>2026-04-11T09:39:00.867Z</time></trkpt><trkpt lat="44.6132791" lon="7.9471403"><ele>249.4</ele><time>2026-04-11T09:39:02.868Z</time></trkpt><trkpt lat="44.6133018" lon="7.9469823"><ele>248.0</ele><time>2026-04-11T09:39:04.869Z</time></trkpt><trkpt lat="44.6133346" lon="7.9468186"><ele>247.8</ele><time>2026-04-11T09:39:06.864Z</time></trkpt><trkpt lat="44.6133718" lon="7.9466029"><ele>247.60000000000002</ele><time>2026-04-11T09:39:09.872Z</time></trkpt><trkpt lat="44.6133838" lon="7.9464607"><ele>247.39999999999998</ele><time>2026-04-11T09:39:11.873Z</time></trkpt><trkpt lat="44.6133697" lon="7.9463574"><ele>247.2</ele><time>2026-04-11T09:39:13.874Z</time></trkpt><trkpt lat="44.6133297" lon="7.946271"><ele>247.0</ele><time>2026-04-11T09:39:17.089Z</time></trkpt><trkpt lat="44.6132703" lon="7.9461696"><ele>247.0</ele><time>2026-04-11T09:39:20.876Z</time></trkpt><trkpt lat="44.6132316" lon="7.9460985"><ele>247.0</ele><time>2026-04-11T09:39:23.889Z</time></trkpt><trkpt lat="44.6131734" lon="7.9460227"><ele>247.0</ele><time>2026-04-11T09:39:27.81Z</time></trkpt><trkpt lat="44.613127" lon="7.9459564"><ele>247.0</ele><time>2026-04-11T09:39:30.813Z</time></trkpt><trkpt lat="44.6130766" lon="7.9459017"><ele>247.0</ele><time>2026-04-11T09:39:33.989Z</time></trkpt><trkpt lat="44.6130138" lon="7.9458398"><ele>247.0</ele><time>2026-04-11T09:39:37.803Z</time></trkpt><trkpt lat="44.6129373" lon="7.9458075"><ele>247.0</ele><time>2026-04-11T09:39:41.797Z</time></trkpt><trkpt lat="44.6128625" lon="7.9457778"><ele>247.83333333333331</ele><time>2026-04-11T09:39:45.879Z</time></trkpt><trkpt lat="44.6127795" lon="7.9457576"><ele>248.66666666666666</ele><time>2026-04-11T09:39:49.857Z</time></trkpt><trkpt lat="44.6126794" lon="7.9457321"><ele>249.5</ele><time>2026-04-11T09:39:54.837Z</time></trkpt><trkpt lat="44.6126027" lon="7.9457228"><ele>250.33333333333331</ele><time>2026-04-11T09:39:58.854Z</time></trkpt><trkpt lat="44.6125187" lon="7.9456805"><ele>251.16666666666666</ele><time>2026-04-11T09:40:03.776Z</time></trkpt><trkpt lat="44.6124442" lon="7.9456244"><ele>252.0</ele><time>2026-04-11T09:40:08.01Z</time></trkpt><trkpt lat="44.6123801" lon="7.9455962"><ele>252.0</ele><time>2026-04-11T09:40:10.85Z</time></trkpt><trkpt lat="44.6122961" lon="7.9455494"><ele>252.0</ele><time>2026-04-11T09:40:14.771Z</time></trkpt><trkpt lat="44.6122272" lon="7.9455011"><ele>252.0</ele><time>2026-04-11T09:40:18.767Z</time></trkpt><trkpt lat="44.6121658" lon="7.945429"><ele>252.0</ele><time>2026-04-11T09:40:22.894Z</time></trkpt><trkpt lat="44.6120989" lon="7.9453875"><ele>252.0</ele><time>2026-04-11T09:40:25.778Z</time></trkpt><trkpt lat="44.6120261" lon="7.9453461"><ele>252.0</ele><time>2026-04-11T09:40:28.849Z</time></trkpt><trkpt lat="44.6119433" lon="7.9452936"><ele>253.0</ele><time>2026-04-11T09:40:34.02Z</time></trkpt><trkpt lat="44.6118205" lon="7.9452359"><ele>254.0</ele><time>2026-04-11T09:42:10.766Z</time></trkpt><trkpt lat="44.6117371" lon="7.9451899"><ele>255.0</ele><time>2026-04-11T09:42:23.771Z</time></trkpt><trkpt lat="44.6116648" lon="7.9451423"><ele>256.0</ele><time>2026-04-11T09:42:35.794Z</time></trkpt><trkpt lat="44.6115901" lon="7.9450924"><ele>257.0</ele><time>2026-04-11T09:42:47.819Z</time></trkpt><trkpt lat="44.6115124" lon="7.9450521"><ele>258.42857142857144</ele><time>2026-04-11T09:42:59.797Z</time></trkpt><trkpt lat="44.6114509" lon="7.9450077"><ele>259.8571428571429</ele><time>2026-04-11T09:43:11.847Z</time></trkpt><trkpt lat="44.611392" lon="7.9449513"><ele>261.28571428571433</ele><time>2026-04-11T09:43:24.832Z</time></trkpt><trkpt lat="44.6113336" lon="7.9448987"><ele>262.7142857142857</ele><time>2026-04-11T09:43:35.81Z</time></trkpt><trkpt lat="44.6112662" lon="7.9448536"><ele>264.14285714285717</ele><time>2026-04-11T09:43:47.774Z</time></trkpt><trkpt lat="44.6111923" lon="7.9448131"><ele>265.5714285714286</ele><time>2026-04-11T09:44:00.839Z</time></trkpt><trkpt lat="44.6111254" lon="7.9447435"><ele>267.0</ele><time>2026-04-11T09:44:12.844Z</time></trkpt><trkpt lat="44.6110558" lon="7.944706"><ele>267.7142857142857</ele><time>2026-04-11T09:44:25.767Z</time></trkpt><trkpt lat="44.6109809" lon="7.9446146"><ele>268.42857142857144</ele><time>2026-04-11T09:44:53.741Z</time></trkpt><trkpt lat="44.6109274" lon="7.9445669"><ele>269.1428571428571</ele><time>2026-04-11T09:48:25.832Z</time></trkpt><trkpt lat="44.6108618" lon="7.9445467"><ele>269.8571428571429</ele><time>2026-04-11T09:48:38.757Z</time></trkpt><trkpt lat="44.6108476" lon="7.9444566"><ele>270.57142857142856</ele><time>2026-04-11T09:48:55.766Z</time></trkpt><trkpt lat="44.6108166" lon="7.9443705"><ele>271.2857142857143</ele><time>2026-04-11T09:49:06.845Z</time></trkpt><trkpt lat="44.6107839" lon="7.9442828"><ele>272.0</ele><time>2026-04-11T09:49:14.751Z</time></trkpt><trkpt lat="44.6107507" lon="7.9442055"><ele>275.4285714285714</ele><time>2026-04-11T09:49:22.777Z</time></trkpt><trkpt lat="44.6106875" lon="7.9441725"><ele>278.85714285714283</ele><time>2026-04-11T09:49:34.78Z</time></trkpt><trkpt lat="44.6106629" lon="7.94408"><ele>282.2857142857143</ele><time>2026-04-11T09:49:45.815Z</time></trkpt><trkpt lat="44.6107098" lon="7.9440207"><ele>285.71428571428567</ele><time>2026-04-11T09:49:57.773Z</time></trkpt><trkpt lat="44.6107657" lon="7.9439684"><ele>289.1428571428571</ele><time>2026-04-11T09:50:11.83Z</time></trkpt><trkpt lat="44.6108238" lon="7.9439261"><ele>292.57142857142856</ele><time>2026-04-11T09:50:20.838Z</time></trkpt><trkpt lat="44.6108258" lon="7.9438305"><ele>296.0</ele><time>2026-04-11T10:00:50.766Z</time></trkpt><trkpt lat="44.6108362" lon="7.9437417"><ele>296.0</ele><time>2026-04-11T10:00:56.744Z</time></trkpt><trkpt lat="44.6108313" lon="7.9436445"><ele>296.0</ele><time>2026-04-11T10:01:04.771Z</time></trkpt><trkpt lat="44.6108175" lon="7.9435423"><ele>296.0</ele><time>2026-04-11T10:01:12.781Z</time></trkpt><trkpt lat="44.6107994" lon="7.9434486"><ele>296.0</ele><time>2026-04-11T10:01:18.775Z</time></trkpt><trkpt lat="44.6107914" lon="7.9433597"><ele>296.0</ele><time>2026-04-11T10:01:24.777Z</time></trkpt><trkpt lat="44.6107691" lon="7.9432752"><ele>296.0</ele><time>2026-04-11T10:01:29.743Z</time></trkpt><trkpt lat="44.6107585" lon="7.9431847"><ele>296.0</ele><time>2026-04-11T10:01:35.741Z</time></trkpt><trkpt lat="44.6107449" lon="7.9430969"><ele>296.7142857142857</ele><time>2026-04-11T10:01:41.765Z</time></trkpt><trkpt lat="44.6107113" lon="7.9430204"><ele>297.42857142857144</ele><time>2026-04-11T10:01:45.768Z</time></trkpt><trkpt lat="44.610679" lon="7.9429419"><ele>298.1428571428571</ele><time>2026-04-11T10:01:49.78Z</time></trkpt><trkpt lat="44.6106334" lon="7.9428724"><ele>298.8571428571429</ele><time>2026-04-11T10:01:54.787Z</time></trkpt><trkpt lat="44.6105937" lon="7.942787"><ele>299.57142857142856</ele><time>2026-04-11T10:02:00.79Z</time></trkpt><trkpt lat="44.6105585" lon="7.9426961"><ele>300.2857142857143</ele><time>2026-04-11T10:02:05.79Z</time></trkpt><trkpt lat="44.6105191" lon="7.942627"><ele>301.0</ele><time>2026-04-11T10:02:10.857Z</time></trkpt><trkpt lat="44.610464" lon="7.9425801"><ele>301.0</ele><time>2026-04-11T10:02:44.856Z</time></trkpt><trkpt lat="44.6104001" lon="7.9425528"><ele>301.0</ele><time>2026-04-11T10:02:49.825Z</time></trkpt><trkpt lat="44.6103563" lon="7.9424588"><ele>301.0</ele><time>2026-04-11T10:02:53.836Z</time></trkpt><trkpt lat="44.6103259" lon="7.9423742"><ele>301.0</ele><time>2026-04-11T10:02:57.785Z</time></trkpt><trkpt lat="44.6102931" lon="7.9422866"><ele>301.0</ele><time>2026-04-11T10:03:00.837Z</time></trkpt><trkpt lat="44.6102669" lon="7.9422045"><ele>301.0</ele><time>2026-04-11T10:03:03.82Z</time></trkpt><trkpt lat="44.6102475" lon="7.9421085"><ele>301.0</ele><time>2026-04-11T10:03:06.837Z</time></trkpt><trkpt lat="44.6102354" lon="7.9420075"><ele>301.0</ele><time>2026-04-11T10:03:10.839Z</time></trkpt><trkpt lat="44.6102322" lon="7.9419046"><ele>301.0</ele><time>2026-04-11T10:03:14.772Z</time></trkpt><trkpt lat="44.6102236" lon="7.9417972"><ele>301.0</ele><time>2026-04-11T10:03:18.804Z</time></trkpt><trkpt lat="44.6102175" lon="7.941683"><ele>301.0</ele><time>2026-04-11T10:03:22.804Z</time></trkpt><trkpt lat="44.6102174" lon="7.9415724"><ele>301.0</ele><time>2026-04-11T10:03:26.769Z</time></trkpt><trkpt lat="44.6102424" lon="7.941479"><ele>301.0</ele><time>2026-04-11T10:03:30.779Z</time></trkpt><trkpt lat="44.6102656" lon="7.9413945"><ele>301.0</ele><time>2026-04-11T10:03:33.856Z</time></trkpt><trkpt lat="44.610267" lon="7.9412866"><ele>301.2857142857143</ele><time>2026-04-11T10:03:37.804Z</time></trkpt><trkpt lat="44.6102438" lon="7.9411949"><ele>301.57142857142856</ele><time>2026-04-11T10:03:41.788Z</time></trkpt><trkpt lat="44.610254" lon="7.9410922"><ele>301.8571428571429</ele><time>2026-04-11T10:03:45.817Z</time></trkpt><trkpt lat="44.610228" lon="7.9409952"><ele>302.1428571428571</ele><time>2026-04-11T10:04:04.853Z</time></trkpt><trkpt lat="44.6102006" lon="7.9409099"><ele>302.42857142857144</ele><time>2026-04-11T10:04:08.864Z</time></trkpt><trkpt lat="44.6101783" lon="7.9408112"><ele>302.7142857142857</ele><time>2026-04-11T10:04:12.797Z</time></trkpt><trkpt lat="44.6101668" lon="7.9406972"><ele>303.0</ele><time>2026-04-11T10:04:16.858Z</time></trkpt><trkpt lat="44.6101584" lon="7.9405957"><ele>303.42857142857144</ele><time>2026-04-11T10:04:20.857Z</time></trkpt><trkpt lat="44.6101568" lon="7.9404851"><ele>303.85714285714283</ele><time>2026-04-11T10:04:24.866Z</time></trkpt><trkpt lat="44.6101441" lon="7.9403786"><ele>304.2857142857143</ele><time>2026-04-11T10:04:28.82Z</time></trkpt><trkpt lat="44.6101017" lon="7.940308"><ele>304.7142857142857</ele><time>2026-04-11T10:04:32.803Z</time></trkpt><trkpt lat="44.6100751" lon="7.9402156"><ele>305.14285714285717</ele><time>2026-04-11T10:04:37.828Z</time></trkpt><trkpt lat="44.610078" lon="7.9401178"><ele>305.57142857142856</ele><time>2026-04-11T10:04:43.853Z</time></trkpt><trkpt lat="44.6100702" lon="7.9400223"><ele>306.0</ele><time>2026-04-11T10:04:48.771Z</time></trkpt><trkpt lat="44.6100607" lon="7.9399285"><ele>307.1428571428571</ele><time>2026-04-11T10:04:53.754Z</time></trkpt><trkpt lat="44.6100483" lon="7.9398321"><ele>308.2857142857143</ele><time>2026-04-11T10:04:58.776Z</time></trkpt><trkpt lat="44.610041" lon="7.9397311"><ele>309.42857142857144</ele><time>2026-04-11T10:05:03.838Z</time></trkpt><trkpt lat="44.6100186" lon="7.9396422"><ele>310.57142857142856</ele><time>2026-04-11T10:05:08.785Z</time></trkpt><trkpt lat="44.6099796" lon="7.9395609"><ele>311.7142857142857</ele><time>2026-04-11T10:05:14.769Z</time></trkpt><trkpt lat="44.6099328" lon="7.9394781"><ele>312.85714285714283</ele><time>2026-04-11T10:05:20.783Z</time></trkpt><trkpt lat="44.6098807" lon="7.9394004"><ele>314.0</ele><time>2026-04-11T10:05:26.772Z</time></trkpt><trkpt lat="44.6098183" lon="7.9393391"><ele>313.99999999999994</ele><time>2026-04-11T10:05:32.763Z</time></trkpt><trkpt lat="44.6097523" lon="7.939311"><ele>314.0</ele><time>2026-04-11T10:05:37.771Z</time></trkpt><trkpt lat="44.6096743" lon="7.9392847"><ele>314.0</ele><time>2026-04-11T10:05:43.77Z</time></trkpt><trkpt lat="44.609601" lon="7.9392765"><ele>314.0</ele><time>2026-04-11T10:05:49.831Z</time></trkpt><trkpt lat="44.609537" lon="7.9392356"><ele>314.0</ele><time>2026-04-11T10:05:55.767Z</time></trkpt><trkpt lat="44.6094752" lon="7.9392086"><ele>313.99999999999994</ele><time>2026-04-11T10:06:00.779Z</time></trkpt><trkpt lat="44.6094176" lon="7.9391665"><ele>314.0</ele><time>2026-04-11T10:06:05.754Z</time></trkpt><trkpt lat="44.6093469" lon="7.939178"><ele>315.57142857142856</ele><time>2026-04-11T10:06:11.841Z</time></trkpt><trkpt lat="44.6093094" lon="7.9391009"><ele>317.1428571428571</ele><time>2026-04-11T10:06:16.769Z</time></trkpt><trkpt lat="44.6092366" lon="7.9390924"><ele>318.71428571428567</ele><time>2026-04-11T10:06:22.828Z</time></trkpt><trkpt lat="44.6091779" lon="7.939042"><ele>320.2857142857143</ele><time>2026-04-11T10:06:28.765Z</time></trkpt><trkpt lat="44.6091136" lon="7.9390452"><ele>321.8571428571429</ele><time>2026-04-11T10:06:35.777Z</time></trkpt><trkpt lat="44.6090951" lon="7.9389463"><ele>323.4285714285714</ele><time>2026-04-11T10:06:43.832Z</time></trkpt><trkpt lat="44.6090594" lon="7.9388675"><ele>325.0</ele><time>2026-04-11T10:06:51.776Z</time></trkpt><trkpt lat="44.6090099" lon="7.9387975"><ele>325.0</ele><time>2026-04-11T10:06:59.759Z</time></trkpt><trkpt lat="44.6089505" lon="7.9387607"><ele>325.0</ele><time>2026-04-11T10:07:04.822Z</time></trkpt><trkpt lat="44.6088827" lon="7.9387193"><ele>325.0</ele><time>2026-04-11T10:07:10.829Z</time></trkpt><trkpt lat="44.6088141" lon="7.9386942"><ele>325.0</ele><time>2026-04-11T10:07:16.824Z</time></trkpt><trkpt lat="44.6087528" lon="7.9386648"><ele>325.0</ele><time>2026-04-11T10:07:21.765Z</time></trkpt><trkpt lat="44.6086899" lon="7.9386294"><ele>325.0</ele><time>2026-04-11T10:07:26.774Z</time></trkpt><trkpt lat="44.6086277" lon="7.9386073"><ele>325.0</ele><time>2026-04-11T10:07:31.765Z</time></trkpt><trkpt lat="44.6085632" lon="7.9385684"><ele>326.1428571428571</ele><time>2026-04-11T10:07:37.769Z</time></trkpt><trkpt lat="44.6084933" lon="7.9385372"><ele>327.28571428571433</ele><time>2026-04-11T10:07:43.837Z</time></trkpt><trkpt lat="44.608428" lon="7.9385354"><ele>328.42857142857144</ele><time>2026-04-11T10:07:48.823Z</time></trkpt><trkpt lat="44.6083647" lon="7.9385294"><ele>329.57142857142856</ele><time>2026-04-11T10:07:53.823Z</time></trkpt><trkpt lat="44.6082961" lon="7.9385249"><ele>330.71428571428567</ele><time>2026-04-11T10:07:58.777Z</time></trkpt><trkpt lat="44.6082267" lon="7.938516"><ele>331.8571428571429</ele><time>2026-04-11T10:08:03.82Z</time></trkpt><trkpt lat="44.6081588" lon="7.9385005"><ele>333.0</ele><time>2026-04-11T10:08:08.779Z</time></trkpt><trkpt lat="44.6080918" lon="7.938456"><ele>333.0</ele><time>2026-04-11T10:08:13.829Z</time></trkpt><trkpt lat="44.6080193" lon="7.9384308"><ele>333.0</ele><time>2026-04-11T10:08:18.836Z</time></trkpt><trkpt lat="44.607958" lon="7.9383861"><ele>333.0</ele><time>2026-04-11T10:08:23.831Z</time></trkpt><trkpt lat="44.6078948" lon="7.938345"><ele>333.0</ele><time>2026-04-11T10:08:28.831Z</time></trkpt><trkpt lat="44.6078298" lon="7.9383101"><ele>333.0</ele><time>2026-04-11T10:08:33.835Z</time></trkpt><trkpt lat="44.6077609" lon="7.9382874"><ele>333.0</ele><time>2026-04-11T10:08:38.828Z</time></trkpt><trkpt lat="44.6076992" lon="7.9382652"><ele>333.0</ele><time>2026-04-11T10:08:42.826Z</time></trkpt><trkpt lat="44.6076324" lon="7.9382492"><ele>334.5714285714286</ele><time>2026-04-11T10:08:46.822Z</time></trkpt><trkpt lat="44.6075728" lon="7.9382067"><ele>336.1428571428571</ele><time>2026-04-11T10:08:50.806Z</time></trkpt><trkpt lat="44.6075006" lon="7.9381676"><ele>337.7142857142857</ele><time>2026-04-11T10:08:55.835Z</time></trkpt><trkpt lat="44.6074408" lon="7.9381319"><ele>339.28571428571433</ele><time>2026-04-11T10:08:59.841Z</time></trkpt><trkpt lat="44.6073748" lon="7.9380815"><ele>340.8571428571429</ele><time>2026-04-11T10:09:04.84Z</time></trkpt><trkpt lat="44.6073112" lon="7.9380229"><ele>342.42857142857144</ele><time>2026-04-11T10:09:09.828Z</time></trkpt><trkpt lat="44.6072523" lon="7.9379738"><ele>344.0</ele><time>2026-04-11T10:09:14.813Z</time></trkpt><trkpt lat="44.6071905" lon="7.9379223"><ele>344.0</ele><time>2026-04-11T10:09:19.842Z</time></trkpt><trkpt lat="44.6071329" lon="7.9378752"><ele>344.0</ele><time>2026-04-11T10:09:24.837Z</time></trkpt><trkpt lat="44.6070728" lon="7.9378373"><ele>344.0</ele><time>2026-04-11T10:09:29.825Z</time></trkpt><trkpt lat="44.6070099" lon="7.9378178"><ele>344.0</ele><time>2026-04-11T10:09:34.823Z</time></trkpt><trkpt lat="44.6069416" lon="7.937841"><ele>344.0</ele><time>2026-04-11T10:09:37.822Z</time></trkpt><trkpt lat="44.6068638" lon="7.9379061"><ele>344.0</ele><time>2026-04-11T10:09:39.836Z</time></trkpt><trkpt lat="44.6067596" lon="7.9380185"><ele>343.8571428571429</ele><time>2026-04-11T10:09:41.829Z</time></trkpt><trkpt lat="44.6066902" lon="7.9380521"><ele>343.7142857142857</ele><time>2026-04-11T10:09:42.826Z</time></trkpt><trkpt lat="44.606616" lon="7.9380538"><ele>343.57142857142856</ele><time>2026-04-11T10:09:43.804Z</time></trkpt><trkpt lat="44.6065517" lon="7.9380522"><ele>343.42857142857144</ele><time>2026-04-11T10:09:44.822Z</time></trkpt><trkpt lat="44.6064852" lon="7.9380365"><ele>343.2857142857143</ele><time>2026-04-11T10:09:45.831Z</time></trkpt><trkpt lat="44.6064199" lon="7.9380193"><ele>343.14285714285717</ele><time>2026-04-11T10:09:46.837Z</time></trkpt><trkpt lat="44.6063548" lon="7.9380133"><ele>343.0</ele><time>2026-04-11T10:09:47.764Z</time></trkpt><trkpt lat="44.6062521" lon="7.9379953"><ele>343.0</ele><time>2026-04-11T10:09:49.836Z</time></trkpt><trkpt lat="44.6061702" lon="7.9379908"><ele>343.0</ele><time>2026-04-11T10:09:51.837Z</time></trkpt><trkpt lat="44.606091" lon="7.9379776"><ele>343.0</ele><time>2026-04-11T10:09:54.842Z</time></trkpt><trkpt lat="44.6060273" lon="7.9379682"><ele>343.0</ele><time>2026-04-11T10:09:57.824Z</time></trkpt><trkpt lat="44.6059493" lon="7.9379548"><ele>343.0</ele><time>2026-04-11T10:10:02.831Z</time></trkpt><trkpt lat="44.605872" lon="7.937942"><ele>343.0</ele><time>2026-04-11T10:10:07.813Z</time></trkpt><trkpt lat="44.6057998" lon="7.9379202"><ele>343.14285714285717</ele><time>2026-04-11T10:10:12.828Z</time></trkpt><trkpt lat="44.6057343" lon="7.9378755"><ele>343.2857142857143</ele><time>2026-04-11T10:10:17.822Z</time></trkpt><trkpt lat="44.6056598" lon="7.9378785"><ele>343.42857142857144</ele><time>2026-04-11T10:10:22.83Z</time></trkpt><trkpt lat="44.6055831" lon="7.9378734"><ele>343.57142857142856</ele><time>2026-04-11T10:10:26.826Z</time></trkpt><trkpt lat="44.6055101" lon="7.9378712"><ele>343.7142857142857</ele><time>2026-04-11T10:10:30.809Z</time></trkpt><trkpt lat="44.6054413" lon="7.9378797"><ele>343.8571428571429</ele><time>2026-04-11T10:10:33.825Z</time></trkpt><trkpt lat="44.6053646" lon="7.9378722"><ele>344.0</ele><time>2026-04-11T10:10:38.033Z</time></trkpt><trkpt lat="44.6052801" lon="7.9378847"><ele>345.6666666666667</ele><time>2026-04-11T10:10:41.838Z</time></trkpt><trkpt lat="44.6051729" lon="7.9378885"><ele>347.33333333333337</ele><time>2026-04-11T10:10:45.833Z</time></trkpt><trkpt lat="44.6050844" lon="7.9379061"><ele>349.0</ele><time>2026-04-11T10:10:49.027Z</time></trkpt><trkpt lat="44.6050247" lon="7.937937"><ele>350.6666666666667</ele><time>2026-04-11T10:10:50.829Z</time></trkpt><trkpt lat="44.6049598" lon="7.9379893"><ele>352.3333333333333</ele><time>2026-04-11T10:10:53.827Z</time></trkpt><trkpt lat="44.6049056" lon="7.9380352"><ele>354.0</ele><time>2026-04-11T10:10:56.834Z</time></trkpt><trkpt lat="44.6048537" lon="7.9380884"><ele>354.0</ele><time>2026-04-11T10:10:59.793Z</time></trkpt><trkpt lat="44.6047937" lon="7.938139"><ele>354.0</ele><time>2026-04-11T10:11:02.777Z</time></trkpt><trkpt lat="44.6047299" lon="7.9381997"><ele>354.0</ele><time>2026-04-11T10:11:06.829Z</time></trkpt><trkpt lat="44.604667" lon="7.938255"><ele>354.0</ele><time>2026-04-11T10:11:10.837Z</time></trkpt><trkpt lat="44.6045937" lon="7.9383008"><ele>354.0</ele><time>2026-04-11T10:11:14.804Z</time></trkpt><trkpt lat="44.6045339" lon="7.9383295"><ele>354.0</ele><time>2026-04-11T10:11:19.035Z</time></trkpt><trkpt lat="44.6044646" lon="7.9383471"><ele>354.0</ele><time>2026-04-11T10:11:22.983Z</time></trkpt><trkpt lat="44.6043956" lon="7.9383654"><ele>353.5714285714286</ele><time>2026-04-11T10:11:27.08Z</time></trkpt><trkpt lat="44.6043285" lon="7.938364"><ele>353.1428571428571</ele><time>2026-04-11T10:11:30.83Z</time></trkpt><trkpt lat="44.6042344" lon="7.9383716"><ele>352.7142857142857</ele><time>2026-04-11T10:11:35.811Z</time></trkpt><trkpt lat="44.6041619" lon="7.9383627"><ele>352.28571428571433</ele><time>2026-04-11T10:11:39.837Z</time></trkpt><trkpt lat="44.6040944" lon="7.9383697"><ele>351.8571428571429</ele><time>2026-04-11T10:11:43.841Z</time></trkpt><trkpt lat="44.6040303" lon="7.9383741"><ele>351.42857142857144</ele><time>2026-04-11T10:11:47.729Z</time></trkpt><trkpt lat="44.6039686" lon="7.9384104"><ele>351.0</ele><time>2026-04-11T10:11:51.761Z</time></trkpt><trkpt lat="44.6038902" lon="7.9384236"><ele>351.00000000000006</ele><time>2026-04-11T10:11:56.835Z</time></trkpt><trkpt lat="44.6038232" lon="7.9384377"><ele>351.0</ele><time>2026-04-11T10:12:00.822Z</time></trkpt><trkpt lat="44.6037467" lon="7.9384541"><ele>351.0</ele><time>2026-04-11T10:12:04.831Z</time></trkpt><trkpt lat="44.6036814" lon="7.9384618"><ele>351.0</ele><time>2026-04-11T10:12:08.839Z</time></trkpt><trkpt lat="44.6036101" lon="7.938479"><ele>351.0</ele><time>2026-04-11T10:12:12.803Z</time></trkpt><trkpt lat="44.6035355" lon="7.9384884"><ele>351.00000000000006</ele><time>2026-04-11T10:12:18.051Z</time></trkpt><trkpt lat="44.6034623" lon="7.9385121"><ele>351.0</ele><time>2026-04-11T10:12:22.82Z</time></trkpt><trkpt lat="44.6033987" lon="7.9385172"><ele>352.5714285714286</ele><time>2026-04-11T10:12:27.83Z</time></trkpt><trkpt lat="44.6033245" lon="7.9385341"><ele>354.14285714285717</ele><time>2026-04-11T10:12:33.86Z</time></trkpt><trkpt lat="44.6032605" lon="7.9385329"><ele>355.7142857142857</ele><time>2026-04-11T10:12:38.828Z</time></trkpt><trkpt lat="44.6031992" lon="7.9385568"><ele>357.28571428571433</ele><time>2026-04-11T10:12:54.774Z</time></trkpt><trkpt lat="44.6031119" lon="7.9385891"><ele>358.85714285714283</ele><time>2026-04-11T10:13:06.835Z</time></trkpt><trkpt lat="44.6030268" lon="7.9386202"><ele>360.42857142857144</ele><time>2026-04-11T10:13:20.824Z</time></trkpt><trkpt lat="44.6029586" lon="7.9386283"><ele>362.0</ele><time>2026-04-11T10:13:32.82Z</time></trkpt><trkpt lat="44.6028916" lon="7.9385993"><ele>363.0</ele><time>2026-04-11T10:13:43.81Z</time></trkpt><trkpt lat="44.6028181" lon="7.9385966"><ele>364.0</ele><time>2026-04-11T10:13:53.054Z</time></trkpt><trkpt lat="44.6027439" lon="7.9385924"><ele>365.0</ele><time>2026-04-11T10:14:02.019Z</time></trkpt><trkpt lat="44.6026744" lon="7.938581"><ele>366.0</ele><time>2026-04-11T10:14:17.808Z</time></trkpt><trkpt lat="44.6026022" lon="7.9385673"><ele>367.0</ele><time>2026-04-11T10:14:24.845Z</time></trkpt><trkpt lat="44.6025355" lon="7.9385578"><ele>368.0</ele><time>2026-04-11T10:14:29.84Z</time></trkpt><trkpt lat="44.6024605" lon="7.938529"><ele>369.0</ele><time>2026-04-11T10:14:34.827Z</time></trkpt><trkpt lat="44.602378" lon="7.9385079"><ele>369.0</ele><time>2026-04-11T10:14:38.852Z</time></trkpt><trkpt lat="44.6022945" lon="7.9384757"><ele>369.0</ele><time>2026-04-11T10:14:41.841Z</time></trkpt><trkpt lat="44.6022305" lon="7.9384498"><ele>369.0</ele><time>2026-04-11T10:14:43.843Z</time></trkpt><trkpt lat="44.6021566" lon="7.9384116"><ele>369.0</ele><time>2026-04-11T10:14:45.855Z</time></trkpt><trkpt lat="44.6020674" lon="7.938366"><ele>369.0</ele><time>2026-04-11T10:14:47.851Z</time></trkpt><trkpt lat="44.6019666" lon="7.9383142"><ele>369.0</ele><time>2026-04-11T10:14:49.852Z</time></trkpt><trkpt lat="44.6018691" lon="7.9382601"><ele>370.0</ele><time>2026-04-11T10:14:51.845Z</time></trkpt><trkpt lat="44.6017844" lon="7.9382091"><ele>371.0</ele><time>2026-04-11T10:14:53.832Z</time></trkpt><trkpt lat="44.6017108" lon="7.9381655"><ele>372.0</ele><time>2026-04-11T10:14:55.839Z</time></trkpt><trkpt lat="44.6016405" lon="7.938131"><ele>373.0</ele><time>2026-04-11T10:14:58.774Z</time></trkpt><trkpt lat="44.6015685" lon="7.9380974"><ele>374.0</ele><time>2026-04-11T10:15:01.835Z</time></trkpt><trkpt lat="44.6015043" lon="7.9380641"><ele>375.0</ele><time>2026-04-11T10:15:04.772Z</time></trkpt><trkpt lat="44.6014395" lon="7.9380347"><ele>375.0</ele><time>2026-04-11T10:15:07.828Z</time></trkpt><trkpt lat="44.6013776" lon="7.938004"><ele>375.0</ele><time>2026-04-11T10:15:10.848Z</time></trkpt><trkpt lat="44.6013012" lon="7.9379729"><ele>375.0</ele><time>2026-04-11T10:15:13.842Z</time></trkpt><trkpt lat="44.6012394" lon="7.9379535"><ele>375.0</ele><time>2026-04-11T10:15:15.851Z</time></trkpt><trkpt lat="44.6011642" lon="7.9379167"><ele>375.0</ele><time>2026-04-11T10:15:17.831Z</time></trkpt><trkpt lat="44.6010647" lon="7.937878"><ele>375.0</ele><time>2026-04-11T10:15:19.844Z</time></trkpt><trkpt lat="44.600956" lon="7.9378589"><ele>373.5</ele><time>2026-04-11T10:15:21.835Z</time></trkpt><trkpt lat="44.6008903" lon="7.9378538"><ele>372.0</ele><time>2026-04-11T10:15:22.832Z</time></trkpt><trkpt lat="44.6008228" lon="7.937841"><ele>370.5</ele><time>2026-04-11T10:15:23.833Z</time></trkpt><trkpt lat="44.6007568" lon="7.9378231"><ele>369.0</ele><time>2026-04-11T10:15:24.851Z</time></trkpt><trkpt lat="44.6006899" lon="7.9378013"><ele>367.5</ele><time>2026-04-11T10:15:25.837Z</time></trkpt><trkpt lat="44.600623" lon="7.9377765"><ele>366.0</ele><time>2026-04-11T10:15:26.836Z</time></trkpt><trkpt lat="44.6005106" lon="7.9377241"><ele>366.0</ele><time>2026-04-11T10:15:28.831Z</time></trkpt><trkpt lat="44.6004242" lon="7.9376792"><ele>366.0</ele><time>2026-04-11T10:15:30.845Z</time></trkpt><trkpt lat="44.6003591" lon="7.9376405"><ele>366.0</ele><time>2026-04-11T10:15:32.793Z</time></trkpt><trkpt lat="44.6002779" lon="7.9376035"><ele>366.0</ele><time>2026-04-11T10:15:35.839Z</time></trkpt><trkpt lat="44.6002003" lon="7.9375732"><ele>366.0</ele><time>2026-04-11T10:15:38.838Z</time></trkpt><trkpt lat="44.6001195" lon="7.9375238"><ele>366.0</ele><time>2026-04-11T10:15:41.844Z</time></trkpt><trkpt lat="44.6000116" lon="7.9374684"><ele>367.8333333333333</ele><time>2026-04-11T10:15:45.843Z</time></trkpt><trkpt lat="44.5999162" lon="7.9374295"><ele>369.6666666666667</ele><time>2026-04-11T10:15:49.02Z</time></trkpt><trkpt lat="44.5998314" lon="7.9374017"><ele>371.5</ele><time>2026-04-11T10:15:51.831Z</time></trkpt><trkpt lat="44.599756" lon="7.937386"><ele>373.33333333333337</ele><time>2026-04-11T10:15:54.834Z</time></trkpt><trkpt lat="44.5996612" lon="7.9373786"><ele>375.1666666666667</ele><time>2026-04-11T10:15:58.822Z</time></trkpt><trkpt lat="44.5995943" lon="7.9373872"><ele>377.0</ele><time>2026-04-11T10:16:01.837Z</time></trkpt><trkpt lat="44.5995275" lon="7.9373982"><ele>377.57142857142856</ele><time>2026-04-11T10:16:05.791Z</time></trkpt><trkpt lat="44.5994529" lon="7.937382"><ele>378.1428571428571</ele><time>2026-04-11T10:16:09.829Z</time></trkpt><trkpt lat="44.5993828" lon="7.9373585"><ele>378.71428571428567</ele><time>2026-04-11T10:16:13.808Z</time></trkpt><trkpt lat="44.5993202" lon="7.9373484"><ele>379.2857142857143</ele><time>2026-04-11T10:16:17.845Z</time></trkpt><trkpt lat="44.5992528" lon="7.9373461"><ele>379.8571428571429</ele><time>2026-04-11T10:16:21.785Z</time></trkpt><trkpt lat="44.5991799" lon="7.9373301"><ele>380.4285714285714</ele><time>2026-04-11T10:16:26.824Z</time></trkpt><trkpt lat="44.5991052" lon="7.9373198"><ele>381.0</ele><time>2026-04-11T10:16:31.816Z</time></trkpt><trkpt lat="44.599038" lon="7.9373407"><ele>381.0</ele><time>2026-04-11T10:16:35.781Z</time></trkpt><trkpt lat="44.5989745" lon="7.93733"><ele>381.0</ele><time>2026-04-11T10:16:39.836Z</time></trkpt><trkpt lat="44.598907" lon="7.9373171"><ele>381.0</ele><time>2026-04-11T10:16:44.788Z</time></trkpt><trkpt lat="44.5988403" lon="7.9373075"><ele>381.0</ele><time>2026-04-11T10:16:48.837Z</time></trkpt><trkpt lat="44.5987635" lon="7.937301"><ele>381.0</ele><time>2026-04-11T10:16:53.833Z</time></trkpt><trkpt lat="44.5986995" lon="7.9372988"><ele>381.0</ele><time>2026-04-11T10:16:57.84Z</time></trkpt><trkpt lat="44.5986244" lon="7.937306"><ele>381.0</ele><time>2026-04-11T10:17:02.83Z</time></trkpt><trkpt lat="44.5985483" lon="7.9373278"><ele>382.2857142857143</ele><time>2026-04-11T10:17:07.819Z</time></trkpt><trkpt lat="44.5984734" lon="7.9373483"><ele>383.5714285714286</ele><time>2026-04-11T10:17:12.84Z</time></trkpt><trkpt lat="44.5984099" lon="7.9373521"><ele>384.8571428571429</ele><time>2026-04-11T10:17:17.002Z</time></trkpt><trkpt lat="44.598341" lon="7.9373621"><ele>386.1428571428571</ele><time>2026-04-11T10:17:21.794Z</time></trkpt><trkpt lat="44.5982719" lon="7.9373894"><ele>387.42857142857144</ele><time>2026-04-11T10:17:26.804Z</time></trkpt><trkpt lat="44.5982016" lon="7.9373848"><ele>388.7142857142857</ele><time>2026-04-11T10:17:31.831Z</time></trkpt><trkpt lat="44.5981374" lon="7.9373919"><ele>390.0</ele><time>2026-04-11T10:17:37.046Z</time></trkpt><trkpt lat="44.5980696" lon="7.9374045"><ele>390.0</ele><time>2026-04-11T10:17:42.819Z</time></trkpt><trkpt lat="44.5980082" lon="7.9373794"><ele>390.0</ele><time>2026-04-11T10:17:49.031Z</time></trkpt><trkpt lat="44.5979441" lon="7.9373094"><ele>390.0</ele><time>2026-04-11T10:19:42Z</time></trkpt><trkpt lat="44.5978859" lon="7.937232"><ele>390.0</ele><time>2026-04-11T10:19:45.831Z</time></trkpt><trkpt lat="44.597831" lon="7.9371588"><ele>390.0</ele><time>2026-04-11T10:19:49.071Z</time></trkpt><trkpt lat="44.5977791" lon="7.9370954"><ele>390.0</ele><time>2026-04-11T10:19:51.802Z</time></trkpt><trkpt lat="44.5977321" lon="7.9370342"><ele>390.0</ele><time>2026-04-11T10:19:54.839Z</time></trkpt><trkpt lat="44.5976718" lon="7.9369573"><ele>389.2857142857143</ele><time>2026-04-11T10:19:58.841Z</time></trkpt><trkpt lat="44.5976129" lon="7.9368764"><ele>388.57142857142856</ele><time>2026-04-11T10:20:02.85Z</time></trkpt><trkpt lat="44.5975677" lon="7.9368133"><ele>387.8571428571429</ele><time>2026-04-11T10:20:05.842Z</time></trkpt><trkpt lat="44.5975288" lon="7.9367357"><ele>387.1428571428571</ele><time>2026-04-11T10:20:08.84Z</time></trkpt><trkpt lat="44.5974827" lon="7.9366744"><ele>386.42857142857144</ele><time>2026-04-11T10:20:11.838Z</time></trkpt><trkpt lat="44.5974298" lon="7.9365886"><ele>385.7142857142857</ele><time>2026-04-11T10:20:15.835Z</time></trkpt><trkpt lat="44.5973841" lon="7.9365178"><ele>385.0</ele><time>2026-04-11T10:20:18.845Z</time></trkpt><trkpt lat="44.5973381" lon="7.9364517"><ele>386.00000000000006</ele><time>2026-04-11T10:20:21.85Z</time></trkpt><trkpt lat="44.597289" lon="7.9363807"><ele>387.0</ele><time>2026-04-11T10:20:24.82Z</time></trkpt><trkpt lat="44.5972369" lon="7.936322"><ele>388.0</ele><time>2026-04-11T10:20:27.872Z</time></trkpt><trkpt lat="44.5971844" lon="7.9362715"><ele>389.0</ele><time>2026-04-11T10:20:30.832Z</time></trkpt><trkpt lat="44.5971194" lon="7.9362132"><ele>390.00000000000006</ele><time>2026-04-11T10:20:33.853Z</time></trkpt><trkpt lat="44.5970553" lon="7.936149"><ele>391.0</ele><time>2026-04-11T10:20:36.835Z</time></trkpt><trkpt lat="44.5969552" lon="7.9360284"><ele>391.00000000000006</ele><time>2026-04-11T10:20:40.815Z</time></trkpt><trkpt lat="44.5968995" lon="7.9359712"><ele>391.0</ele><time>2026-04-11T10:20:42.845Z</time></trkpt><trkpt lat="44.5968334" lon="7.9359292"><ele>391.0</ele><time>2026-04-11T10:20:44.81Z</time></trkpt><trkpt lat="44.5967656" lon="7.9359112"><ele>391.0</ele><time>2026-04-11T10:20:46.825Z</time></trkpt><trkpt lat="44.5966984" lon="7.935906"><ele>391.00000000000006</ele><time>2026-04-11T10:20:48.836Z</time></trkpt><trkpt lat="44.5966072" lon="7.935905"><ele>391.0</ele><time>2026-04-11T10:20:51.834Z</time></trkpt><trkpt lat="44.5965201" lon="7.9359152"><ele>390.99999999999994</ele><time>2026-04-11T10:20:54.782Z</time></trkpt><trkpt lat="44.5964379" lon="7.9359273"><ele>391.0</ele><time>2026-04-11T10:20:57.837Z</time></trkpt><trkpt lat="44.5963692" lon="7.9359309"><ele>391.0</ele><time>2026-04-11T10:21:00.846Z</time></trkpt><trkpt lat="44.5962996" lon="7.9359355"><ele>391.0</ele><time>2026-04-11T10:21:03.85Z</time></trkpt><trkpt lat="44.5962374" lon="7.9359565"><ele>391.0</ele><time>2026-04-11T10:21:06.817Z</time></trkpt><trkpt lat="44.5961744" lon="7.9359752"><ele>390.99999999999994</ele><time>2026-04-11T10:21:09.829Z</time></trkpt><trkpt lat="44.5960988" lon="7.9359915"><ele>391.0</ele><time>2026-04-11T10:21:14.021Z</time></trkpt><trkpt lat="44.5960343" lon="7.936002"><ele>392.99999999999994</ele><time>2026-04-11T10:21:18.022Z</time></trkpt><trkpt lat="44.5959626" lon="7.9360167"><ele>395.0</ele><time>2026-04-11T10:21:21.832Z</time></trkpt><trkpt lat="44.5958872" lon="7.9360403"><ele>397.0</ele><time>2026-04-11T10:21:26.835Z</time></trkpt><trkpt lat="44.5958137" lon="7.9360594"><ele>399.0</ele><time>2026-04-11T10:21:31.746Z</time></trkpt><trkpt lat="44.5957385" lon="7.936086"><ele>401.0</ele><time>2026-04-11T10:21:36.811Z</time></trkpt><trkpt lat="44.595672" lon="7.9360991"><ele>402.99999999999994</ele><time>2026-04-11T10:21:41.832Z</time></trkpt><trkpt lat="44.5955979" lon="7.936121"><ele>405.0</ele><time>2026-04-11T10:21:47.023Z</time></trkpt><trkpt lat="44.595526" lon="7.9361459"><ele>405.0</ele><time>2026-04-11T10:21:51.839Z</time></trkpt><trkpt lat="44.5954491" lon="7.9361614"><ele>405.0</ele><time>2026-04-11T10:21:58.057Z</time></trkpt><trkpt lat="44.5953842" lon="7.9361858"><ele>405.0</ele><time>2026-04-11T10:22:03.034Z</time></trkpt><trkpt lat="44.5953009" lon="7.9362081"><ele>405.0</ele><time>2026-04-11T10:22:09.815Z</time></trkpt><trkpt lat="44.5952283" lon="7.9362321"><ele>405.0</ele><time>2026-04-11T10:22:14.768Z</time></trkpt><trkpt lat="44.5951579" lon="7.9362087"><ele>405.0</ele><time>2026-04-11T10:22:19.796Z</time></trkpt><trkpt lat="44.5950901" lon="7.9361669"><ele>406.8333333333333</ele><time>2026-04-11T10:22:25.769Z</time></trkpt><trkpt lat="44.5950329" lon="7.936108"><ele>408.66666666666663</ele><time>2026-04-11T10:22:31.845Z</time></trkpt><trkpt lat="44.5949584" lon="7.9360787"><ele>410.5</ele><time>2026-04-11T10:23:15.801Z</time></trkpt><trkpt lat="44.5949423" lon="7.9362027"><ele>412.3333333333333</ele><time>2026-04-11T10:23:18.763Z</time></trkpt><trkpt lat="44.5948924" lon="7.93627"><ele>414.16666666666663</ele><time>2026-04-11T10:23:20.778Z</time></trkpt><trkpt lat="44.5948228" lon="7.9362515"><ele>416.0</ele><time>2026-04-11T10:23:22.844Z</time></trkpt><trkpt lat="44.5947419" lon="7.9361757"><ele>416.0</ele><time>2026-04-11T10:23:24.862Z</time></trkpt><trkpt lat="44.5946473" lon="7.9360905"><ele>416.0</ele><time>2026-04-11T10:23:26.82Z</time></trkpt><trkpt lat="44.5945572" lon="7.936007"><ele>416.0</ele><time>2026-04-11T10:23:28.82Z</time></trkpt><trkpt lat="44.5944601" lon="7.9359389"><ele>416.0</ele><time>2026-04-11T10:23:31.001Z</time></trkpt><trkpt lat="44.5943659" lon="7.9359071"><ele>416.0</ele><time>2026-04-11T10:23:32.841Z</time></trkpt><trkpt lat="44.5942122" lon="7.9358578"><ele>413.99999999999994</ele><time>2026-04-11T10:23:35.83Z</time></trkpt><trkpt lat="44.5940904" lon="7.935816"><ele>412.0</ele><time>2026-04-11T10:23:37.771Z</time></trkpt><trkpt lat="44.5940283" lon="7.935789"><ele>410.0</ele><time>2026-04-11T10:23:38.801Z</time></trkpt><trkpt lat="44.5939665" lon="7.9357536"><ele>408.0</ele><time>2026-04-11T10:23:39.831Z</time></trkpt><trkpt lat="44.5939093" lon="7.9357086"><ele>405.99999999999994</ele><time>2026-04-11T10:23:40.802Z</time></trkpt><trkpt lat="44.5938021" lon="7.9356178"><ele>404.0</ele><time>2026-04-11T10:23:42.82Z</time></trkpt><trkpt lat="44.593746" lon="7.9355718"><ele>400.79999999999995</ele><time>2026-04-11T10:23:43.785Z</time></trkpt><trkpt lat="44.5936488" lon="7.9354911"><ele>397.59999999999997</ele><time>2026-04-11T10:23:45.819Z</time></trkpt><trkpt lat="44.593549" lon="7.9354153"><ele>394.4</ele><time>2026-04-11T10:23:47.816Z</time></trkpt><trkpt lat="44.5934491" lon="7.9353542"><ele>391.2</ele><time>2026-04-11T10:23:49.813Z</time></trkpt><trkpt lat="44.593362" lon="7.9353312"><ele>388.0</ele><time>2026-04-11T10:23:51.83Z</time></trkpt><trkpt lat="44.5932831" lon="7.9353182"><ele>388.0</ele><time>2026-04-11T10:23:53.836Z</time></trkpt><trkpt lat="44.5932043" lon="7.9352945"><ele>388.0</ele><time>2026-04-11T10:23:55.824Z</time></trkpt><trkpt lat="44.5931361" lon="7.9352864"><ele>388.0</ele><time>2026-04-11T10:23:57.821Z</time></trkpt><trkpt lat="44.5930599" lon="7.9352782"><ele>388.0</ele><time>2026-04-11T10:24:00.788Z</time></trkpt><trkpt lat="44.5929876" lon="7.9352651"><ele>388.0</ele><time>2026-04-11T10:24:32.997Z</time></trkpt><trkpt lat="44.5929362" lon="7.935181"><ele>388.0</ele><time>2026-04-11T10:24:59.836Z</time></trkpt><trkpt lat="44.5929199" lon="7.9350927"><ele>388.0</ele><time>2026-04-11T10:25:05.835Z</time></trkpt><trkpt lat="44.5928947" lon="7.9350036"><ele>389.4285714285714</ele><time>2026-04-11T10:25:13.023Z</time></trkpt><trkpt lat="44.5928836" lon="7.934914"><ele>390.8571428571429</ele><time>2026-04-11T10:25:22.015Z</time></trkpt><trkpt lat="44.5928684" lon="7.9347759"><ele>392.2857142857143</ele><time>2026-04-11T10:25:33.834Z</time></trkpt><trkpt lat="44.5928558" lon="7.9346839"><ele>393.71428571428567</ele><time>2026-04-11T10:25:50.821Z</time></trkpt><trkpt lat="44.5928565" lon="7.9345883"><ele>395.1428571428571</ele><time>2026-04-11T10:26:02.8Z</time></trkpt><trkpt lat="44.5928633" lon="7.9344823"><ele>396.57142857142856</ele><time>2026-04-11T10:26:07.825Z</time></trkpt><trkpt lat="44.592878" lon="7.934382"><ele>398.0</ele><time>2026-04-11T10:26:12.841Z</time></trkpt><trkpt lat="44.5928977" lon="7.9342893"><ele>400.3333333333333</ele><time>2026-04-11T10:26:17.826Z</time></trkpt><trkpt lat="44.5928964" lon="7.9341924"><ele>402.66666666666663</ele><time>2026-04-11T10:26:22.813Z</time></trkpt><trkpt lat="44.5928867" lon="7.9341049"><ele>405.0</ele><time>2026-04-11T10:26:26.825Z</time></trkpt><trkpt lat="44.5928787" lon="7.9340054"><ele>407.33333333333337</ele><time>2026-04-11T10:26:31.835Z</time></trkpt><trkpt lat="44.5928616" lon="7.933907"><ele>409.6666666666667</ele><time>2026-04-11T10:26:36.82Z</time></trkpt><trkpt lat="44.5928357" lon="7.9337886"><ele>412.0</ele><time>2026-04-11T10:26:39.827Z</time></trkpt><trkpt lat="44.5928071" lon="7.9336561"><ele>407.6</ele><time>2026-04-11T10:26:41.831Z</time></trkpt><trkpt lat="44.5927732" lon="7.933461"><ele>403.20000000000005</ele><time>2026-04-11T10:26:44.833Z</time></trkpt><trkpt lat="44.592747" lon="7.9333608"><ele>398.8</ele><time>2026-04-11T10:26:46.77Z</time></trkpt><trkpt lat="44.5927139" lon="7.9332481"><ele>394.4</ele><time>2026-04-11T10:26:49.852Z</time></trkpt><trkpt lat="44.5926842" lon="7.9331438"><ele>390.0</ele><time>2026-04-11T10:26:53.006Z</time></trkpt><trkpt lat="44.5926602" lon="7.9330471"><ele>390.0</ele><time>2026-04-11T10:26:55.837Z</time></trkpt><trkpt lat="44.5926403" lon="7.9329323"><ele>390.0</ele><time>2026-04-11T10:26:59.804Z</time></trkpt><trkpt lat="44.5926513" lon="7.9328276"><ele>390.0</ele><time>2026-04-11T10:27:03.777Z</time></trkpt><trkpt lat="44.5926681" lon="7.9327402"><ele>390.0</ele><time>2026-04-11T10:27:07.832Z</time></trkpt><trkpt lat="44.5926658" lon="7.9326426"><ele>390.0</ele><time>2026-04-11T10:27:13.023Z</time></trkpt><trkpt lat="44.5926332" lon="7.9325573"><ele>390.0</ele><time>2026-04-11T10:27:17.806Z</time></trkpt><trkpt lat="44.5926041" lon="7.9324772"><ele>390.0</ele><time>2026-04-11T10:27:22.02Z</time></trkpt><trkpt lat="44.592579" lon="7.9323868"><ele>391.5</ele><time>2026-04-11T10:27:27.02Z</time></trkpt><trkpt lat="44.5925453" lon="7.9323024"><ele>393.0</ele><time>2026-04-11T10:27:30.828Z</time></trkpt><trkpt lat="44.5925055" lon="7.9321807"><ele>394.5</ele><time>2026-04-11T10:27:35.819Z</time></trkpt><trkpt lat="44.5924843" lon="7.9320815"><ele>396.0</ele><time>2026-04-11T10:27:39.833Z</time></trkpt><trkpt lat="44.5924593" lon="7.9319801"><ele>397.5</ele><time>2026-04-11T10:27:43.766Z</time></trkpt><trkpt lat="44.5924378" lon="7.9318838"><ele>399.0</ele><time>2026-04-11T10:27:47.811Z</time></trkpt><trkpt lat="44.5924006" lon="7.9317887"><ele>398.0</ele><time>2026-04-11T10:27:52.041Z</time></trkpt><trkpt lat="44.5923626" lon="7.9317109"><ele>397.0</ele><time>2026-04-11T10:27:55.825Z</time></trkpt><trkpt lat="44.5923073" lon="7.9316205"><ele>396.0</ele><time>2026-04-11T10:28:00.831Z</time></trkpt><trkpt lat="44.592256" lon="7.9315626"><ele>395.0</ele><time>2026-04-11T10:28:03.875Z</time></trkpt><trkpt lat="44.5922005" lon="7.9315076"><ele>394.0</ele><time>2026-04-11T10:28:07.125Z</time></trkpt><trkpt lat="44.5921311" lon="7.9314468"><ele>393.0</ele><time>2026-04-11T10:28:09.833Z</time></trkpt><trkpt lat="44.5920709" lon="7.9313967"><ele>392.0</ele><time>2026-04-11T10:28:12.829Z</time></trkpt><trkpt lat="44.5920032" lon="7.9313377"><ele>392.0</ele><time>2026-04-11T10:28:15.826Z</time></trkpt><trkpt lat="44.5919477" lon="7.9312959"><ele>392.0</ele><time>2026-04-11T10:28:17.764Z</time></trkpt><trkpt lat="44.5918752" lon="7.9312569"><ele>392.0</ele><time>2026-04-11T10:28:19.812Z</time></trkpt><trkpt lat="44.5918099" lon="7.9312077"><ele>392.0</ele><time>2026-04-11T10:28:21.83Z</time></trkpt><trkpt lat="44.5917395" lon="7.9311497"><ele>392.0</ele><time>2026-04-11T10:28:23.832Z</time></trkpt><trkpt lat="44.5916728" lon="7.9310887"><ele>392.0</ele><time>2026-04-11T10:28:25.83Z</time></trkpt><trkpt lat="44.5916148" lon="7.9310319"><ele>392.0</ele><time>2026-04-11T10:28:27.839Z</time></trkpt><trkpt lat="44.5915577" lon="7.9309869"><ele>391.99999999999994</ele><time>2026-04-11T10:28:29.794Z</time></trkpt><trkpt lat="44.5914973" lon="7.9309479"><ele>392.0</ele><time>2026-04-11T10:28:31.829Z</time></trkpt><trkpt lat="44.5914176" lon="7.9308904"><ele>392.0</ele><time>2026-04-11T10:28:34.835Z</time></trkpt><trkpt lat="44.591334" lon="7.9308357"><ele>392.0</ele><time>2026-04-11T10:28:37.785Z</time></trkpt><trkpt lat="44.5912672" lon="7.9307876"><ele>391.99999999999994</ele><time>2026-04-11T10:28:40.807Z</time></trkpt><trkpt lat="44.5911793" lon="7.9307421"><ele>392.0</ele><time>2026-04-11T10:28:45.822Z</time></trkpt><trkpt lat="44.5910854" lon="7.9306933"><ele>393.7142857142857</ele><time>2026-04-11T10:28:50.817Z</time></trkpt><trkpt lat="44.5910081" lon="7.9306679"><ele>395.42857142857144</ele><time>2026-04-11T10:28:54.831Z</time></trkpt><trkpt lat="44.5909367" lon="7.9306551"><ele>397.1428571428571</ele><time>2026-04-11T10:28:58.84Z</time></trkpt><trkpt lat="44.5908683" lon="7.9306262"><ele>398.8571428571429</ele><time>2026-04-11T10:29:03.032Z</time></trkpt><trkpt lat="44.5907958" lon="7.9305974"><ele>400.57142857142856</ele><time>2026-04-11T10:29:06.796Z</time></trkpt><trkpt lat="44.5907276" lon="7.9305811"><ele>402.2857142857143</ele><time>2026-04-11T10:29:10.836Z</time></trkpt><trkpt lat="44.5906571" lon="7.9305623"><ele>404.0</ele><time>2026-04-11T10:29:15.838Z</time></trkpt><trkpt lat="44.5905808" lon="7.9305287"><ele>404.0</ele><time>2026-04-11T10:29:20.803Z</time></trkpt><trkpt lat="44.5905178" lon="7.930507"><ele>404.0</ele><time>2026-04-11T10:29:25.816Z</time></trkpt><trkpt lat="44.590449" lon="7.9304923"><ele>404.0</ele><time>2026-04-11T10:29:30.822Z</time></trkpt><trkpt lat="44.5903878" lon="7.9304699"><ele>404.0</ele><time>2026-04-11T10:29:35.832Z</time></trkpt><trkpt lat="44.5903191" lon="7.9304602"><ele>404.0</ele><time>2026-04-11T10:29:41.814Z</time></trkpt><trkpt lat="44.5902541" lon="7.9304386"><ele>404.0</ele><time>2026-04-11T10:29:46.78Z</time></trkpt><trkpt lat="44.5901789" lon="7.9304146"><ele>404.0</ele><time>2026-04-11T10:29:51.827Z</time></trkpt><trkpt lat="44.5901129" lon="7.930397"><ele>404.57142857142856</ele><time>2026-04-11T10:29:57.087Z</time></trkpt><trkpt lat="44.5900457" lon="7.9303794"><ele>405.1428571428571</ele><time>2026-04-11T10:30:02.002Z</time></trkpt><trkpt lat="44.5899733" lon="7.9303544"><ele>405.7142857142857</ele><time>2026-04-11T10:30:08.119Z</time></trkpt><trkpt lat="44.5898816" lon="7.9303092"><ele>406.2857142857143</ele><time>2026-04-11T10:30:14.025Z</time></trkpt><trkpt lat="44.5898178" lon="7.9302736"><ele>406.8571428571429</ele><time>2026-04-11T10:30:19.064Z</time></trkpt><trkpt lat="44.5897589" lon="7.9302318"><ele>407.42857142857144</ele><time>2026-04-11T10:30:22.837Z</time></trkpt><trkpt lat="44.5896944" lon="7.9301809"><ele>408.0</ele><time>2026-04-11T10:30:26.99Z</time></trkpt><trkpt lat="44.5896304" lon="7.9301262"><ele>409.42857142857144</ele><time>2026-04-11T10:30:30.773Z</time></trkpt><trkpt lat="44.5895662" lon="7.9300483"><ele>410.8571428571429</ele><time>2026-04-11T10:30:35.819Z</time></trkpt><trkpt lat="44.5895172" lon="7.9299787"><ele>412.2857142857143</ele><time>2026-04-11T10:30:39.791Z</time></trkpt><trkpt lat="44.5894667" lon="7.9299105"><ele>413.7142857142857</ele><time>2026-04-11T10:30:43.819Z</time></trkpt><trkpt lat="44.5894215" lon="7.9298371"><ele>415.1428571428571</ele><time>2026-04-11T10:30:48.035Z</time></trkpt><trkpt lat="44.5893731" lon="7.9297669"><ele>416.57142857142856</ele><time>2026-04-11T10:30:51.821Z</time></trkpt><trkpt lat="44.5893283" lon="7.9296945"><ele>418.0</ele><time>2026-04-11T10:30:55.834Z</time></trkpt><trkpt lat="44.5892783" lon="7.9295863"><ele>418.0</ele><time>2026-04-11T10:31:00.83Z</time></trkpt><trkpt lat="44.5892481" lon="7.929507"><ele>418.0</ele><time>2026-04-11T10:31:04.849Z</time></trkpt><trkpt lat="44.5892287" lon="7.9294207"><ele>418.0</ele><time>2026-04-11T10:31:08.841Z</time></trkpt><trkpt lat="44.5892036" lon="7.9293325"><ele>418.0</ele><time>2026-04-11T10:31:12.833Z</time></trkpt><trkpt lat="44.5891634" lon="7.9292553"><ele>418.0</ele><time>2026-04-11T10:31:16.83Z</time></trkpt><trkpt lat="44.5891157" lon="7.9291951"><ele>418.0</ele><time>2026-04-11T10:31:21.002Z</time></trkpt><trkpt lat="44.5890564" lon="7.9291566"><ele>418.0</ele><time>2026-04-11T10:31:24.778Z</time></trkpt><trkpt lat="44.588989" lon="7.9291198"><ele>420.83333333333337</ele><time>2026-04-11T10:31:29.832Z</time></trkpt><trkpt lat="44.5889192" lon="7.9290648"><ele>423.6666666666667</ele><time>2026-04-11T10:31:35.826Z</time></trkpt><trkpt lat="44.5888427" lon="7.9290382"><ele>426.5</ele><time>2026-04-11T10:31:41.885Z</time></trkpt><trkpt lat="44.5887738" lon="7.9290127"><ele>429.33333333333337</ele><time>2026-04-11T10:31:46.781Z</time></trkpt><trkpt lat="44.5887042" lon="7.9290222"><ele>432.1666666666667</ele><time>2026-04-11T10:31:51.771Z</time></trkpt><trkpt lat="44.5886347" lon="7.9290221"><ele>435.0</ele><time>2026-04-11T10:31:56.837Z</time></trkpt><trkpt lat="44.5885662" lon="7.9290808"><ele>436.00000000000006</ele><time>2026-04-11T10:32:01.809Z</time></trkpt><trkpt lat="44.5884947" lon="7.9290982"><ele>437.0</ele><time>2026-04-11T10:32:07.039Z</time></trkpt><trkpt lat="44.5884289" lon="7.9291444"><ele>438.0</ele><time>2026-04-11T10:32:11.782Z</time></trkpt><trkpt lat="44.5883651" lon="7.9291612"><ele>439.0</ele><time>2026-04-11T10:32:15.748Z</time></trkpt><trkpt lat="44.5882923" lon="7.9291891"><ele>440.0</ele><time>2026-04-11T10:32:21.02Z</time></trkpt><trkpt lat="44.5882295" lon="7.9292176"><ele>441.00000000000006</ele><time>2026-04-11T10:32:24.817Z</time></trkpt><trkpt lat="44.5881565" lon="7.9292425"><ele>442.0</ele><time>2026-04-11T10:32:29.817Z</time></trkpt><trkpt lat="44.5880924" lon="7.9292539"><ele>442.42857142857144</ele><time>2026-04-11T10:32:33.819Z</time></trkpt><trkpt lat="44.5880277" lon="7.9292665"><ele>442.8571428571429</ele><time>2026-04-11T10:32:38.088Z</time></trkpt><trkpt lat="44.5879637" lon="7.9292698"><ele>443.28571428571433</ele><time>2026-04-11T10:32:41.826Z</time></trkpt><trkpt lat="44.5878946" lon="7.9292687"><ele>443.7142857142857</ele><time>2026-04-11T10:32:46.855Z</time></trkpt><trkpt lat="44.5878285" lon="7.9292639"><ele>444.1428571428571</ele><time>2026-04-11T10:32:51.838Z</time></trkpt><trkpt lat="44.5877639" lon="7.9292435"><ele>444.5714285714286</ele><time>2026-04-11T10:32:57.836Z</time></trkpt><trkpt lat="44.5877496" lon="7.9291532"><ele>445.0</ele><time>2026-04-11T10:33:03.821Z</time></trkpt><trkpt lat="44.5877879" lon="7.9290641"><ele>445.0</ele><time>2026-04-11T10:33:09.837Z</time></trkpt><trkpt lat="44.5878404" lon="7.9290049"><ele>445.0</ele><time>2026-04-11T10:33:15.839Z</time></trkpt><trkpt lat="44.5879134" lon="7.9289315"><ele>445.0</ele><time>2026-04-11T10:33:24.007Z</time></trkpt><trkpt lat="44.587982" lon="7.9288738"><ele>445.0</ele><time>2026-04-11T10:33:31Z</time></trkpt><trkpt lat="44.5880271" lon="7.9287954"><ele>445.0</ele><time>2026-04-11T10:33:36.806Z</time></trkpt><trkpt lat="44.5880754" lon="7.9287306"><ele>445.0</ele><time>2026-04-11T10:33:41.796Z</time></trkpt><trkpt lat="44.588132" lon="7.9286841"><ele>445.0</ele><time>2026-04-11T10:33:47.829Z</time></trkpt><trkpt lat="44.5882041" lon="7.9286213"><ele>444.5714285714286</ele><time>2026-04-11T10:33:55.831Z</time></trkpt><trkpt lat="44.5882058" lon="7.9285282"><ele>444.1428571428571</ele><time>2026-04-11T10:34:02.003Z</time></trkpt><trkpt lat="44.5882359" lon="7.9284442"><ele>443.7142857142857</ele><time>2026-04-11T10:34:07.832Z</time></trkpt><trkpt lat="44.5882615" lon="7.9283617"><ele>443.28571428571433</ele><time>2026-04-11T10:34:13.072Z</time></trkpt><trkpt lat="44.5882956" lon="7.9282558"><ele>442.8571428571429</ele><time>2026-04-11T10:34:20.822Z</time></trkpt><trkpt lat="44.5883207" lon="7.928163"><ele>442.42857142857144</ele><time>2026-04-11T10:34:27.107Z</time></trkpt><trkpt lat="44.5883501" lon="7.9280688"><ele>442.0</ele><time>2026-04-11T10:34:33.105Z</time></trkpt><trkpt lat="44.5883917" lon="7.9279872"><ele>444.8571428571429</ele><time>2026-04-11T10:34:37.846Z</time></trkpt><trkpt lat="44.5884344" lon="7.9279178"><ele>447.7142857142857</ele><time>2026-04-11T10:34:42.011Z</time></trkpt><trkpt lat="44.5884684" lon="7.9278251"><ele>450.57142857142856</ele><time>2026-04-11T10:34:46.847Z</time></trkpt><trkpt lat="44.5885091" lon="7.9277425"><ele>453.42857142857144</ele><time>2026-04-11T10:34:51.879Z</time></trkpt><trkpt lat="44.5885596" lon="7.9276823"><ele>456.2857142857143</ele><time>2026-04-11T10:34:56.807Z</time></trkpt><trkpt lat="44.5886057" lon="7.9276146"><ele>459.14285714285717</ele><time>2026-04-11T10:35:02.057Z</time></trkpt><trkpt lat="44.5886697" lon="7.9275614"><ele>462.0</ele><time>2026-04-11T10:35:06.83Z</time></trkpt><trkpt lat="44.5887282" lon="7.9275173"><ele>463.0</ele><time>2026-04-11T10:35:11.847Z</time></trkpt><trkpt lat="44.5886464" lon="7.9274901"><ele>464.0</ele><time>2026-04-11T10:35:25.829Z</time></trkpt><trkpt lat="44.5885789" lon="7.9275181"><ele>465.0</ele><time>2026-04-11T10:35:32.055Z</time></trkpt><trkpt lat="44.5885128" lon="7.9275417"><ele>466.0</ele><time>2026-04-11T10:35:36.799Z</time></trkpt><trkpt lat="44.5884429" lon="7.9275016"><ele>467.0</ele><time>2026-04-11T10:35:44.038Z</time></trkpt><trkpt lat="44.5883656" lon="7.9274711"><ele>468.0</ele><time>2026-04-11T10:35:50.82Z</time></trkpt><trkpt lat="44.5883033" lon="7.9274859"><ele>469.0</ele><time>2026-04-11T10:35:55.798Z</time></trkpt><trkpt lat="44.5882587" lon="7.9275562"><ele>469.0</ele><time>2026-04-11T10:39:19.817Z</time></trkpt><trkpt lat="44.5883383" lon="7.9275748"><ele>469.0</ele><time>2026-04-11T10:40:03.834Z</time></trkpt><trkpt lat="44.5884166" lon="7.9275909"><ele>469.0</ele><time>2026-04-11T10:40:07.811Z</time></trkpt><trkpt lat="44.5884723" lon="7.9275318"><ele>469.0</ele><time>2026-04-11T10:40:11.792Z</time></trkpt><trkpt lat="44.5885178" lon="7.9274658"><ele>469.0</ele><time>2026-04-11T10:41:55.793Z</time></trkpt><trkpt lat="44.5884617" lon="7.9275063"><ele>469.0</ele><time>2026-04-11T10:45:35.741Z</time></trkpt><trkpt lat="44.5885137" lon="7.9275686"><ele>469.0</ele><time>2026-04-11T10:45:43.737Z</time></trkpt><trkpt lat="44.5885879" lon="7.9274981"><ele>469.0</ele><time>2026-04-11T10:45:46.727Z</time></trkpt><trkpt lat="44.5886473" lon="7.9274609"><ele>469.0</ele><time>2026-04-11T10:45:48.758Z</time></trkpt><trkpt lat="44.5887163" lon="7.9273945"><ele>469.0</ele><time>2026-04-11T10:45:51.76Z</time></trkpt><trkpt lat="44.5887768" lon="7.9273265"><ele>469.0</ele><time>2026-04-11T10:45:54.762Z</time></trkpt><trkpt lat="44.5887898" lon="7.9272395"><ele>469.0</ele><time>2026-04-11T10:45:56.732Z</time></trkpt><trkpt lat="44.5887473" lon="7.9271324"><ele>469.0</ele><time>2026-04-11T10:45:59.735Z</time></trkpt><trkpt lat="44.5886933" lon="7.9270827"><ele>469.0</ele><time>2026-04-11T10:46:01.744Z</time></trkpt><trkpt lat="44.5886293" lon="7.9270574"><ele>469.00000000000006</ele><time>2026-04-11T10:46:03.745Z</time></trkpt><trkpt lat="44.5885462" lon="7.9270412"><ele>469.0</ele><time>2026-04-11T10:46:06.749Z</time></trkpt><trkpt lat="44.5884714" lon="7.9270086"><ele>469.0</ele><time>2026-04-11T10:46:09.747Z</time></trkpt><trkpt lat="44.5883988" lon="7.9270043"><ele>469.0</ele><time>2026-04-11T10:47:20.736Z</time></trkpt><trkpt lat="44.5883248" lon="7.9269812"><ele>469.00000000000006</ele><time>2026-04-11T10:47:23.737Z</time></trkpt><trkpt lat="44.5882308" lon="7.9269609"><ele>469.0</ele><time>2026-04-11T10:47:26.739Z</time></trkpt><trkpt lat="44.5881602" lon="7.9269439"><ele>469.0</ele><time>2026-04-11T10:47:28.722Z</time></trkpt><trkpt lat="44.5880913" lon="7.9269507"><ele>469.0</ele><time>2026-04-11T10:47:30.759Z</time></trkpt><trkpt lat="44.5880218" lon="7.9269745"><ele>469.0</ele><time>2026-04-11T10:47:32.737Z</time></trkpt><trkpt lat="44.5879583" lon="7.9269978"><ele>469.0</ele><time>2026-04-11T10:47:34.735Z</time></trkpt><trkpt lat="44.5878801" lon="7.9270128"><ele>469.0</ele><time>2026-04-11T10:47:36.754Z</time></trkpt><trkpt lat="44.5878018" lon="7.9269981"><ele>469.0</ele><time>2026-04-11T10:47:38.743Z</time></trkpt><trkpt lat="44.5877314" lon="7.9269865"><ele>469.0</ele><time>2026-04-11T10:47:41.733Z</time></trkpt><trkpt lat="44.5876764" lon="7.9269178"><ele>469.00000000000006</ele><time>2026-04-11T10:47:45.753Z</time></trkpt><trkpt lat="44.5877292" lon="7.9268423"><ele>469.0</ele><time>2026-04-11T10:47:50.745Z</time></trkpt><trkpt lat="44.5877958" lon="7.9268305"><ele>469.0</ele><time>2026-04-11T10:47:56.753Z</time></trkpt><trkpt lat="44.5878733" lon="7.9268206"><ele>469.0</ele><time>2026-04-11T10:47:59.74Z</time></trkpt><trkpt lat="44.5879486" lon="7.9268166"><ele>469.00000000000006</ele><time>2026-04-11T10:48:01.761Z</time></trkpt><trkpt lat="44.5880206" lon="7.9268019"><ele>469.0</ele><time>2026-04-11T10:48:03.751Z</time></trkpt><trkpt lat="44.5881283" lon="7.9267768"><ele>469.0</ele><time>2026-04-11T10:48:05.742Z</time></trkpt><trkpt lat="44.5882113" lon="7.9267364"><ele>469.0</ele><time>2026-04-11T10:48:07.726Z</time></trkpt><trkpt lat="44.5882668" lon="7.9266896"><ele>469.0</ele><time>2026-04-11T10:48:09.761Z</time></trkpt><trkpt lat="44.5883411" lon="7.9266209"><ele>469.0</ele><time>2026-04-11T10:48:11.737Z</time></trkpt><trkpt lat="44.588427" lon="7.9265405"><ele>469.0</ele><time>2026-04-11T10:48:13.753Z</time></trkpt><trkpt lat="44.5885369" lon="7.9264633"><ele>466.83333333333337</ele><time>2026-04-11T10:48:15.749Z</time></trkpt><trkpt lat="44.5886503" lon="7.9263818"><ele>464.6666666666667</ele><time>2026-04-11T10:48:17.738Z</time></trkpt><trkpt lat="44.5887095" lon="7.9263327"><ele>462.5</ele><time>2026-04-11T10:48:18.741Z</time></trkpt><trkpt lat="44.5887655" lon="7.9262794"><ele>460.33333333333337</ele><time>2026-04-11T10:48:19.74Z</time></trkpt><trkpt lat="44.5888242" lon="7.9262273"><ele>458.1666666666667</ele><time>2026-04-11T10:48:20.742Z</time></trkpt><trkpt lat="44.5888886" lon="7.9261814"><ele>456.0</ele><time>2026-04-11T10:48:21.737Z</time></trkpt><trkpt lat="44.588968" lon="7.9261476"><ele>456.0</ele><time>2026-04-11T10:48:22.761Z</time></trkpt><trkpt lat="44.5890493" lon="7.9261335"><ele>456.0</ele><time>2026-04-11T10:48:23.743Z</time></trkpt><trkpt lat="44.5891278" lon="7.9261181"><ele>456.0</ele><time>2026-04-11T10:48:24.775Z</time></trkpt><trkpt lat="44.5892039" lon="7.9260934"><ele>456.0</ele><time>2026-04-11T10:48:25.739Z</time></trkpt><trkpt lat="44.5892867" lon="7.9260778"><ele>456.0</ele><time>2026-04-11T10:48:26.742Z</time></trkpt><trkpt lat="44.5893655" lon="7.9260533"><ele>456.0</ele><time>2026-04-11T10:48:27.734Z</time></trkpt><trkpt lat="44.5894475" lon="7.9260296"><ele>454.6</ele><time>2026-04-11T10:48:28.739Z</time></trkpt><trkpt lat="44.5895327" lon="7.9260036"><ele>453.20000000000005</ele><time>2026-04-11T10:48:29.738Z</time></trkpt><trkpt lat="44.5896234" lon="7.9259768"><ele>451.79999999999995</ele><time>2026-04-11T10:48:30.738Z</time></trkpt><trkpt lat="44.5897202" lon="7.9259589"><ele>450.4</ele><time>2026-04-11T10:48:31.742Z</time></trkpt><trkpt lat="44.589815" lon="7.9259347"><ele>449.0</ele><time>2026-04-11T10:48:32.767Z</time></trkpt><trkpt lat="44.5899095" lon="7.9259161"><ele>446.4</ele><time>2026-04-11T10:48:33.758Z</time></trkpt><trkpt lat="44.5900075" lon="7.9258918"><ele>443.79999999999995</ele><time>2026-04-11T10:48:34.744Z</time></trkpt><trkpt lat="44.5901009" lon="7.9258525"><ele>441.20000000000005</ele><time>2026-04-11T10:48:35.738Z</time></trkpt><trkpt lat="44.5901847" lon="7.9258227"><ele>438.6</ele><time>2026-04-11T10:48:36.739Z</time></trkpt><trkpt lat="44.5902743" lon="7.9257908"><ele>436.0</ele><time>2026-04-11T10:48:38.739Z</time></trkpt><trkpt lat="44.5903485" lon="7.9257648"><ele>436.00000000000006</ele><time>2026-04-11T10:48:41.747Z</time></trkpt><trkpt lat="44.5904141" lon="7.9257108"><ele>436.0</ele><time>2026-04-11T10:48:48.748Z</time></trkpt><trkpt lat="44.5903479" lon="7.9257064"><ele>436.0</ele><time>2026-04-11T10:48:53.734Z</time></trkpt><trkpt lat="44.5902731" lon="7.9257517"><ele>436.0</ele><time>2026-04-11T10:48:56.747Z</time></trkpt><trkpt lat="44.5901911" lon="7.9257915"><ele>436.00000000000006</ele><time>2026-04-11T10:49:00.768Z</time></trkpt><trkpt lat="44.5901077" lon="7.9258156"><ele>436.0</ele><time>2026-04-11T10:49:03.76Z</time></trkpt><trkpt lat="44.5900679" lon="7.9257446"><ele>435.6666666666667</ele><time>2026-04-11T10:49:05.739Z</time></trkpt><trkpt lat="44.5900744" lon="7.9256201"><ele>435.33333333333337</ele><time>2026-04-11T10:49:07.731Z</time></trkpt><trkpt lat="44.5900803" lon="7.9254387"><ele>435.0</ele><time>2026-04-11T10:49:09.748Z</time></trkpt><trkpt lat="44.5900797" lon="7.9253376"><ele>434.66666666666663</ele><time>2026-04-11T10:49:10.765Z</time></trkpt><trkpt lat="44.5900848" lon="7.9252354"><ele>434.3333333333333</ele><time>2026-04-11T10:49:11.744Z</time></trkpt><trkpt lat="44.5900863" lon="7.9251209"><ele>434.0</ele><time>2026-04-11T10:49:12.743Z</time></trkpt><trkpt lat="44.5900883" lon="7.9250087"><ele>432.66666666666663</ele><time>2026-04-11T10:49:13.742Z</time></trkpt><trkpt lat="44.5900835" lon="7.9248936"><ele>431.3333333333333</ele><time>2026-04-11T10:49:14.752Z</time></trkpt><trkpt lat="44.5900861" lon="7.9247814"><ele>430.0</ele><time>2026-04-11T10:49:15.743Z</time></trkpt><trkpt lat="44.5900875" lon="7.9246679"><ele>428.66666666666663</ele><time>2026-04-11T10:49:16.753Z</time></trkpt><trkpt lat="44.5900909" lon="7.9245542"><ele>427.3333333333333</ele><time>2026-04-11T10:49:17.733Z</time></trkpt><trkpt lat="44.5900888" lon="7.9244414"><ele>426.0</ele><time>2026-04-11T10:49:18.731Z</time></trkpt><trkpt lat="44.5900844" lon="7.9243387"><ele>425.99999999999994</ele><time>2026-04-11T10:49:19.764Z</time></trkpt><trkpt lat="44.5900857" lon="7.9242324"><ele>426.0</ele><time>2026-04-11T10:49:20.763Z</time></trkpt><trkpt lat="44.5900866" lon="7.9241344"><ele>426.0</ele><time>2026-04-11T10:49:21.753Z</time></trkpt><trkpt lat="44.5900917" lon="7.9240434"><ele>426.0</ele><time>2026-04-11T10:49:22.769Z</time></trkpt><trkpt lat="44.5900832" lon="7.9239494"><ele>426.0</ele><time>2026-04-11T10:49:23.746Z</time></trkpt><trkpt lat="44.5900764" lon="7.9238493"><ele>425.99999999999994</ele><time>2026-04-11T10:49:24.758Z</time></trkpt><trkpt lat="44.5900818" lon="7.9237479"><ele>426.0</ele><time>2026-04-11T10:49:25.754Z</time></trkpt><trkpt lat="44.5900894" lon="7.9236307"><ele>424.3333333333333</ele><time>2026-04-11T10:49:26.748Z</time></trkpt><trkpt lat="44.590097" lon="7.9235178"><ele>422.66666666666663</ele><time>2026-04-11T10:49:27.745Z</time></trkpt><trkpt lat="44.5901018" lon="7.9233991"><ele>421.0</ele><time>2026-04-11T10:49:28.759Z</time></trkpt><trkpt lat="44.590101" lon="7.9232806"><ele>419.3333333333333</ele><time>2026-04-11T10:49:29.752Z</time></trkpt><trkpt lat="44.5900991" lon="7.9231646"><ele>417.66666666666663</ele><time>2026-04-11T10:49:30.73Z</time></trkpt><trkpt lat="44.5900997" lon="7.9230559"><ele>416.0</ele><time>2026-04-11T10:49:31.752Z</time></trkpt><trkpt lat="44.5900992" lon="7.9229442"><ele>414.49999999999994</ele><time>2026-04-11T10:49:32.741Z</time></trkpt><trkpt lat="44.5900976" lon="7.9228451"><ele>413.0</ele><time>2026-04-11T10:49:33.746Z</time></trkpt><trkpt lat="44.5900997" lon="7.9227292"><ele>411.5</ele><time>2026-04-11T10:49:34.746Z</time></trkpt><trkpt lat="44.5901107" lon="7.9226042"><ele>410.0</ele><time>2026-04-11T10:49:35.75Z</time></trkpt><trkpt lat="44.5901277" lon="7.9224786"><ele>408.49999999999994</ele><time>2026-04-11T10:49:36.739Z</time></trkpt><trkpt lat="44.5901447" lon="7.9223635"><ele>407.0</ele><time>2026-04-11T10:49:37.755Z</time></trkpt><trkpt lat="44.5901598" lon="7.9222541"><ele>405.49999999999994</ele><time>2026-04-11T10:49:38.778Z</time></trkpt><trkpt lat="44.5901786" lon="7.922138"><ele>404.0</ele><time>2026-04-11T10:49:39.751Z</time></trkpt><trkpt lat="44.5901994" lon="7.9220307"><ele>402.5</ele><time>2026-04-11T10:49:40.746Z</time></trkpt><trkpt lat="44.5902185" lon="7.9219159"><ele>401.0</ele><time>2026-04-11T10:49:41.749Z</time></trkpt><trkpt lat="44.5902359" lon="7.9218063"><ele>399.49999999999994</ele><time>2026-04-11T10:49:42.739Z</time></trkpt><trkpt lat="44.5902523" lon="7.9217001"><ele>398.0</ele><time>2026-04-11T10:49:43.756Z</time></trkpt><trkpt lat="44.590269" lon="7.9215954"><ele>397.99999999999994</ele><time>2026-04-11T10:49:44.759Z</time></trkpt><trkpt lat="44.590287" lon="7.9214804"><ele>398.0</ele><time>2026-04-11T10:49:45.739Z</time></trkpt><trkpt lat="44.5903054" lon="7.9213654"><ele>398.0</ele><time>2026-04-11T10:49:46.754Z</time></trkpt><trkpt lat="44.5903214" lon="7.9212468"><ele>398.0</ele><time>2026-04-11T10:49:47.743Z</time></trkpt><trkpt lat="44.5903364" lon="7.9211252"><ele>397.99999999999994</ele><time>2026-04-11T10:49:48.746Z</time></trkpt><trkpt lat="44.5903438" lon="7.9210015"><ele>398.0</ele><time>2026-04-11T10:49:49.774Z</time></trkpt><trkpt lat="44.590354" lon="7.9208758"><ele>397.2</ele><time>2026-04-11T10:49:50.746Z</time></trkpt><trkpt lat="44.5903717" lon="7.9207419"><ele>396.4</ele><time>2026-04-11T10:49:51.745Z</time></trkpt><trkpt lat="44.5904059" lon="7.9205961"><ele>395.59999999999997</ele><time>2026-04-11T10:49:52.763Z</time></trkpt><trkpt lat="44.5904398" lon="7.9204532"><ele>394.79999999999995</ele><time>2026-04-11T10:49:53.751Z</time></trkpt><trkpt lat="44.5904751" lon="7.9203103"><ele>394.0</ele><time>2026-04-11T10:49:54.798Z</time></trkpt><trkpt lat="44.5905143" lon="7.9201668"><ele>392.0</ele><time>2026-04-11T10:49:55.737Z</time></trkpt><trkpt lat="44.5905556" lon="7.9200232"><ele>390.0</ele><time>2026-04-11T10:49:56.742Z</time></trkpt><trkpt lat="44.590603" lon="7.9198762"><ele>388.0</ele><time>2026-04-11T10:49:57.758Z</time></trkpt><trkpt lat="44.5906447" lon="7.9197417"><ele>386.0</ele><time>2026-04-11T10:49:58.76Z</time></trkpt><trkpt lat="44.5906871" lon="7.9196116"><ele>384.0</ele><time>2026-04-11T10:49:59.755Z</time></trkpt><trkpt lat="44.5907309" lon="7.9194972"><ele>384.0</ele><time>2026-04-11T10:50:00.738Z</time></trkpt><trkpt lat="44.5907744" lon="7.9193869"><ele>384.0</ele><time>2026-04-11T10:50:01.753Z</time></trkpt><trkpt lat="44.5908275" lon="7.9192911"><ele>384.0</ele><time>2026-04-11T10:50:02.74Z</time></trkpt><trkpt lat="44.590887" lon="7.9192057"><ele>384.0</ele><time>2026-04-11T10:50:03.744Z</time></trkpt><trkpt lat="44.5909503" lon="7.9191195"><ele>384.0</ele><time>2026-04-11T10:50:04.757Z</time></trkpt><trkpt lat="44.5910115" lon="7.9190391"><ele>384.0</ele><time>2026-04-11T10:50:05.757Z</time></trkpt><trkpt lat="44.5910729" lon="7.9189588"><ele>383.85714285714283</ele><time>2026-04-11T10:50:06.747Z</time></trkpt><trkpt lat="44.5911331" lon="7.9188872"><ele>383.7142857142857</ele><time>2026-04-11T10:50:07.762Z</time></trkpt><trkpt lat="44.5911916" lon="7.9188116"><ele>383.57142857142856</ele><time>2026-04-11T10:50:08.751Z</time></trkpt><trkpt lat="44.5912411" lon="7.918738"><ele>383.42857142857144</ele><time>2026-04-11T10:50:09.75Z</time></trkpt><trkpt lat="44.5912909" lon="7.9186662"><ele>383.2857142857143</ele><time>2026-04-11T10:50:10.749Z</time></trkpt><trkpt lat="44.5913437" lon="7.9185989"><ele>383.1428571428571</ele><time>2026-04-11T10:50:11.764Z</time></trkpt><trkpt lat="44.5913927" lon="7.9185314"><ele>383.0</ele><time>2026-04-11T10:50:12.747Z</time></trkpt><trkpt lat="44.5914407" lon="7.9184694"><ele>383.0</ele><time>2026-04-11T10:50:13.762Z</time></trkpt><trkpt lat="44.5914916" lon="7.9184067"><ele>383.0</ele><time>2026-04-11T10:50:14.763Z</time></trkpt><trkpt lat="44.5915425" lon="7.9183461"><ele>383.0</ele><time>2026-04-11T10:50:15.749Z</time></trkpt><trkpt lat="44.5915862" lon="7.9182812"><ele>383.0</ele><time>2026-04-11T10:50:16.777Z</time></trkpt><trkpt lat="44.5916329" lon="7.9182169"><ele>383.0</ele><time>2026-04-11T10:50:17.755Z</time></trkpt><trkpt lat="44.5916808" lon="7.9181548"><ele>383.0</ele><time>2026-04-11T10:50:18.77Z</time></trkpt><trkpt lat="44.5917281" lon="7.9180913"><ele>383.0</ele><time>2026-04-11T10:50:19.729Z</time></trkpt><trkpt lat="44.591776" lon="7.9180281"><ele>381.1428571428571</ele><time>2026-04-11T10:50:20.746Z</time></trkpt><trkpt lat="44.591823" lon="7.9179602"><ele>379.2857142857143</ele><time>2026-04-11T10:50:21.74Z</time></trkpt><trkpt lat="44.5918682" lon="7.9178921"><ele>377.42857142857144</ele><time>2026-04-11T10:50:22.747Z</time></trkpt><trkpt lat="44.5919138" lon="7.9178205"><ele>375.57142857142856</ele><time>2026-04-11T10:50:23.736Z</time></trkpt><trkpt lat="44.5919578" lon="7.9177425"><ele>373.7142857142857</ele><time>2026-04-11T10:50:24.782Z</time></trkpt><trkpt lat="44.5920023" lon="7.9176646"><ele>371.85714285714283</ele><time>2026-04-11T10:50:25.758Z</time></trkpt><trkpt lat="44.5920459" lon="7.9175783"><ele>370.0</ele><time>2026-04-11T10:50:26.759Z</time></trkpt><trkpt lat="44.5920941" lon="7.9174782"><ele>368.8</ele><time>2026-04-11T10:50:27.77Z</time></trkpt><trkpt lat="44.592137" lon="7.9173751"><ele>367.6</ele><time>2026-04-11T10:50:28.749Z</time></trkpt><trkpt lat="44.5921822" lon="7.9172623"><ele>366.4</ele><time>2026-04-11T10:50:29.746Z</time></trkpt><trkpt lat="44.592223" lon="7.9171444"><ele>365.2</ele><time>2026-04-11T10:50:30.741Z</time></trkpt><trkpt lat="44.5922657" lon="7.9170174"><ele>364.0</ele><time>2026-04-11T10:50:31.753Z</time></trkpt><trkpt lat="44.5923132" lon="7.9168942"><ele>364.0</ele><time>2026-04-11T10:50:32.747Z</time></trkpt><trkpt lat="44.5923583" lon="7.9167675"><ele>364.0</ele><time>2026-04-11T10:50:33.751Z</time></trkpt><trkpt lat="44.5924007" lon="7.9166381"><ele>364.0</ele><time>2026-04-11T10:50:34.74Z</time></trkpt><trkpt lat="44.5924434" lon="7.9165152"><ele>364.0</ele><time>2026-04-11T10:50:35.762Z</time></trkpt><trkpt lat="44.5924813" lon="7.9164003"><ele>364.0</ele><time>2026-04-11T10:50:36.799Z</time></trkpt><trkpt lat="44.592513" lon="7.9162892"><ele>362.8333333333333</ele><time>2026-04-11T10:50:37.766Z</time></trkpt><trkpt lat="44.5925453" lon="7.9161817"><ele>361.66666666666663</ele><time>2026-04-11T10:50:38.739Z</time></trkpt><trkpt lat="44.5925868" lon="7.9160819"><ele>360.5</ele><time>2026-04-11T10:50:39.744Z</time></trkpt><trkpt lat="44.5926263" lon="7.9159818"><ele>359.3333333333333</ele><time>2026-04-11T10:50:40.748Z</time></trkpt><trkpt lat="44.592662" lon="7.9158805"><ele>358.1666666666667</ele><time>2026-04-11T10:50:41.78Z</time></trkpt><trkpt lat="44.5926981" lon="7.9157881"><ele>357.0</ele><time>2026-04-11T10:50:42.754Z</time></trkpt><trkpt lat="44.5927308" lon="7.9156991"><ele>356.2857142857143</ele><time>2026-04-11T10:50:43.741Z</time></trkpt><trkpt lat="44.59277" lon="7.9156124"><ele>355.57142857142856</ele><time>2026-04-11T10:50:44.765Z</time></trkpt><trkpt lat="44.5928139" lon="7.915525"><ele>354.8571428571429</ele><time>2026-04-11T10:50:45.754Z</time></trkpt><trkpt lat="44.592854" lon="7.9154344"><ele>354.1428571428571</ele><time>2026-04-11T10:50:46.786Z</time></trkpt><trkpt lat="44.592888" lon="7.9153451"><ele>353.42857142857144</ele><time>2026-04-11T10:50:47.765Z</time></trkpt><trkpt lat="44.5929252" lon="7.9152588"><ele>352.7142857142857</ele><time>2026-04-11T10:50:48.764Z</time></trkpt><trkpt lat="44.5929652" lon="7.9151756"><ele>352.0</ele><time>2026-04-11T10:50:49.757Z</time></trkpt><trkpt lat="44.5929992" lon="7.9150899"><ele>351.5</ele><time>2026-04-11T10:50:50.751Z</time></trkpt><trkpt lat="44.5930369" lon="7.9150053"><ele>351.0</ele><time>2026-04-11T10:50:51.749Z</time></trkpt><trkpt lat="44.5930801" lon="7.9149185"><ele>350.5</ele><time>2026-04-11T10:50:52.754Z</time></trkpt><trkpt lat="44.5931253" lon="7.9148308"><ele>350.0</ele><time>2026-04-11T10:50:53.755Z</time></trkpt><trkpt lat="44.5931774" lon="7.914734"><ele>349.5</ele><time>2026-04-11T10:50:54.747Z</time></trkpt><trkpt lat="44.5932402" lon="7.9146403"><ele>349.0</ele><time>2026-04-11T10:50:55.761Z</time></trkpt><trkpt lat="44.5933123" lon="7.9145483"><ele>349.0</ele><time>2026-04-11T10:50:56.763Z</time></trkpt><trkpt lat="44.593391" lon="7.9144423"><ele>349.0</ele><time>2026-04-11T10:50:57.736Z</time></trkpt><trkpt lat="44.5934677" lon="7.9143339"><ele>349.0</ele><time>2026-04-11T10:50:58.747Z</time></trkpt><trkpt lat="44.5935422" lon="7.9142287"><ele>349.0</ele><time>2026-04-11T10:50:59.752Z</time></trkpt><trkpt lat="44.5936126" lon="7.9141403"><ele>349.0</ele><time>2026-04-11T10:51:00.76Z</time></trkpt><trkpt lat="44.5936875" lon="7.9140573"><ele>347.0</ele><time>2026-04-11T10:51:01.743Z</time></trkpt><trkpt lat="44.5937612" lon="7.9139743"><ele>345.0</ele><time>2026-04-11T10:51:02.749Z</time></trkpt><trkpt lat="44.5938346" lon="7.91388"><ele>343.0</ele><time>2026-04-11T10:51:03.761Z</time></trkpt><trkpt lat="44.5939091" lon="7.9137871"><ele>341.0</ele><time>2026-04-11T10:51:04.741Z</time></trkpt><trkpt lat="44.5939882" lon="7.9136935"><ele>339.0</ele><time>2026-04-11T10:51:05.749Z</time></trkpt><trkpt lat="44.5940597" lon="7.9136032"><ele>339.0</ele><time>2026-04-11T10:51:06.745Z</time></trkpt><trkpt lat="44.5941306" lon="7.9135171"><ele>339.0</ele><time>2026-04-11T10:51:07.791Z</time></trkpt><trkpt lat="44.5942" lon="7.9134323"><ele>339.0</ele><time>2026-04-11T10:51:08.758Z</time></trkpt><trkpt lat="44.5942691" lon="7.9133471"><ele>339.0</ele><time>2026-04-11T10:51:09.743Z</time></trkpt><trkpt lat="44.5943368" lon="7.9132586"><ele>339.0</ele><time>2026-04-11T10:51:10.768Z</time></trkpt><trkpt lat="44.5944021" lon="7.9131623"><ele>339.4</ele><time>2026-04-11T10:51:11.74Z</time></trkpt><trkpt lat="44.5944605" lon="7.913061"><ele>339.79999999999995</ele><time>2026-04-11T10:51:12.748Z</time></trkpt><trkpt lat="44.5945141" lon="7.9129542"><ele>340.20000000000005</ele><time>2026-04-11T10:51:13.747Z</time></trkpt><trkpt lat="44.5945711" lon="7.9128456"><ele>340.6</ele><time>2026-04-11T10:51:14.749Z</time></trkpt><trkpt lat="44.5946216" lon="7.9127432"><ele>341.0</ele><time>2026-04-11T10:51:15.74Z</time></trkpt><trkpt lat="44.5946664" lon="7.9126374"><ele>339.33333333333337</ele><time>2026-04-11T10:51:16.739Z</time></trkpt><trkpt lat="44.5947078" lon="7.912526"><ele>337.6666666666667</ele><time>2026-04-11T10:51:17.745Z</time></trkpt><trkpt lat="44.5947471" lon="7.9124114"><ele>336.0</ele><time>2026-04-11T10:51:18.757Z</time></trkpt><trkpt lat="44.5947869" lon="7.9122955"><ele>334.3333333333333</ele><time>2026-04-11T10:51:19.762Z</time></trkpt><trkpt lat="44.5948217" lon="7.9121847"><ele>332.66666666666663</ele><time>2026-04-11T10:51:20.748Z</time></trkpt><trkpt lat="44.5948581" lon="7.9120708"><ele>331.0</ele><time>2026-04-11T10:51:21.751Z</time></trkpt><trkpt lat="44.5948905" lon="7.9119575"><ele>331.0</ele><time>2026-04-11T10:51:22.744Z</time></trkpt><trkpt lat="44.5949198" lon="7.9118437"><ele>331.0</ele><time>2026-04-11T10:51:23.754Z</time></trkpt><trkpt lat="44.5949482" lon="7.9117297"><ele>331.0</ele><time>2026-04-11T10:51:24.757Z</time></trkpt><trkpt lat="44.5949799" lon="7.9116128"><ele>331.0</ele><time>2026-04-11T10:51:25.76Z</time></trkpt><trkpt lat="44.5950096" lon="7.9114986"><ele>331.0</ele><time>2026-04-11T10:51:26.777Z</time></trkpt><trkpt lat="44.5950411" lon="7.9113807"><ele>331.0</ele><time>2026-04-11T10:51:27.779Z</time></trkpt><trkpt lat="44.5950754" lon="7.9112632"><ele>330.66666666666663</ele><time>2026-04-11T10:51:28.748Z</time></trkpt><trkpt lat="44.5951089" lon="7.9111542"><ele>330.3333333333333</ele><time>2026-04-11T10:51:29.75Z</time></trkpt><trkpt lat="44.5951415" lon="7.9110477"><ele>330.0</ele><time>2026-04-11T10:51:30.753Z</time></trkpt><trkpt lat="44.5951811" lon="7.9109452"><ele>329.6666666666667</ele><time>2026-04-11T10:51:31.749Z</time></trkpt><trkpt lat="44.5952241" lon="7.9108452"><ele>329.33333333333337</ele><time>2026-04-11T10:51:32.783Z</time></trkpt><trkpt lat="44.5952705" lon="7.91074"><ele>329.0</ele><time>2026-04-11T10:51:33.738Z</time></trkpt><trkpt lat="44.5953198" lon="7.9106427"><ele>326.33333333333337</ele><time>2026-04-11T10:51:34.75Z</time></trkpt><trkpt lat="44.5953806" lon="7.9105528"><ele>323.6666666666667</ele><time>2026-04-11T10:51:35.728Z</time></trkpt><trkpt lat="44.5954443" lon="7.9104686"><ele>321.0</ele><time>2026-04-11T10:51:36.748Z</time></trkpt><trkpt lat="44.5955092" lon="7.9103817"><ele>318.3333333333333</ele><time>2026-04-11T10:51:37.763Z</time></trkpt><trkpt lat="44.5955718" lon="7.9102921"><ele>315.66666666666663</ele><time>2026-04-11T10:51:38.738Z</time></trkpt><trkpt lat="44.5956337" lon="7.9102011"><ele>313.0</ele><time>2026-04-11T10:51:39.771Z</time></trkpt><trkpt lat="44.5956937" lon="7.9101131"><ele>312.3333333333333</ele><time>2026-04-11T10:51:40.746Z</time></trkpt><trkpt lat="44.5957457" lon="7.9100252"><ele>311.66666666666663</ele><time>2026-04-11T10:51:41.75Z</time></trkpt><trkpt lat="44.5957944" lon="7.9099323"><ele>311.0</ele><time>2026-04-11T10:51:42.742Z</time></trkpt><trkpt lat="44.5958385" lon="7.9098341"><ele>310.3333333333333</ele><time>2026-04-11T10:51:43.745Z</time></trkpt><trkpt lat="44.59588" lon="7.9097363"><ele>309.6666666666667</ele><time>2026-04-11T10:51:44.727Z</time></trkpt><trkpt lat="44.5959163" lon="7.9096312"><ele>309.0</ele><time>2026-04-11T10:51:45.747Z</time></trkpt><trkpt lat="44.5959452" lon="7.909524"><ele>309.0</ele><time>2026-04-11T10:51:46.752Z</time></trkpt><trkpt lat="44.5959625" lon="7.9094159"><ele>309.0</ele><time>2026-04-11T10:51:47.788Z</time></trkpt><trkpt lat="44.5959728" lon="7.9093025"><ele>309.0</ele><time>2026-04-11T10:51:48.759Z</time></trkpt><trkpt lat="44.5959699" lon="7.909183"><ele>309.0</ele><time>2026-04-11T10:51:49.767Z</time></trkpt><trkpt lat="44.5959644" lon="7.9090544"><ele>309.0</ele><time>2026-04-11T10:51:50.751Z</time></trkpt><trkpt lat="44.595956" lon="7.908927"><ele>309.0</ele><time>2026-04-11T10:51:51.759Z</time></trkpt><trkpt lat="44.595948" lon="7.9088075"><ele>308.5</ele><time>2026-04-11T10:51:52.759Z</time></trkpt><trkpt lat="44.5959348" lon="7.908689"><ele>308.0</ele><time>2026-04-11T10:51:53.768Z</time></trkpt><trkpt lat="44.5959222" lon="7.9085782"><ele>307.5</ele><time>2026-04-11T10:51:54.753Z</time></trkpt><trkpt lat="44.5959107" lon="7.9084655"><ele>307.0</ele><time>2026-04-11T10:51:55.795Z</time></trkpt><trkpt lat="44.5959007" lon="7.9083422"><ele>306.5</ele><time>2026-04-11T10:51:56.754Z</time></trkpt><trkpt lat="44.5958907" lon="7.9082179"><ele>306.0</ele><time>2026-04-11T10:51:57.748Z</time></trkpt><trkpt lat="44.5958843" lon="7.9080949"><ele>305.0</ele><time>2026-04-11T10:51:58.756Z</time></trkpt><trkpt lat="44.5958755" lon="7.9079749"><ele>304.0</ele><time>2026-04-11T10:51:59.763Z</time></trkpt><trkpt lat="44.5958669" lon="7.9078524"><ele>303.0</ele><time>2026-04-11T10:52:00.739Z</time></trkpt><trkpt lat="44.5958592" lon="7.9077333"><ele>302.0</ele><time>2026-04-11T10:52:01.759Z</time></trkpt><trkpt lat="44.595846" lon="7.9076041"><ele>301.0</ele><time>2026-04-11T10:52:02.78Z</time></trkpt><trkpt lat="44.5958329" lon="7.9074716"><ele>300.0</ele><time>2026-04-11T10:52:03.755Z</time></trkpt><trkpt lat="44.5958243" lon="7.9073302"><ele>299.3333333333333</ele><time>2026-04-11T10:52:04.749Z</time></trkpt><trkpt lat="44.5958194" lon="7.9071916"><ele>298.6666666666667</ele><time>2026-04-11T10:52:05.741Z</time></trkpt><trkpt lat="44.5958106" lon="7.9070605"><ele>298.0</ele><time>2026-04-11T10:52:06.742Z</time></trkpt><trkpt lat="44.5957981" lon="7.90694"><ele>297.33333333333337</ele><time>2026-04-11T10:52:07.787Z</time></trkpt><trkpt lat="44.5957843" lon="7.9068318"><ele>296.6666666666667</ele><time>2026-04-11T10:52:08.757Z</time></trkpt><trkpt lat="44.5957643" lon="7.9067204"><ele>296.0</ele><time>2026-04-11T10:52:09.749Z</time></trkpt><trkpt lat="44.5957377" lon="7.9066141"><ele>295.0</ele><time>2026-04-11T10:52:10.743Z</time></trkpt><trkpt lat="44.5957064" lon="7.906506"><ele>294.0</ele><time>2026-04-11T10:52:11.746Z</time></trkpt><trkpt lat="44.5956672" lon="7.9063983"><ele>293.0</ele><time>2026-04-11T10:52:12.746Z</time></trkpt><trkpt lat="44.5956261" lon="7.9062942"><ele>292.0</ele><time>2026-04-11T10:52:13.756Z</time></trkpt><trkpt lat="44.595586" lon="7.9061871"><ele>291.0</ele><time>2026-04-11T10:52:14.732Z</time></trkpt><trkpt lat="44.5955446" lon="7.9060821"><ele>290.0</ele><time>2026-04-11T10:52:15.774Z</time></trkpt><trkpt lat="44.5955109" lon="7.9059837"><ele>289.1666666666667</ele><time>2026-04-11T10:52:16.756Z</time></trkpt><trkpt lat="44.5954801" lon="7.9058865"><ele>288.33333333333337</ele><time>2026-04-11T10:52:17.752Z</time></trkpt><trkpt lat="44.5954422" lon="7.9057856"><ele>287.5</ele><time>2026-04-11T10:52:18.77Z</time></trkpt><trkpt lat="44.5954107" lon="7.9056745"><ele>286.6666666666667</ele><time>2026-04-11T10:52:19.75Z</time></trkpt><trkpt lat="44.595388" lon="7.9055538"><ele>285.8333333333333</ele><time>2026-04-11T10:52:20.748Z</time></trkpt><trkpt lat="44.595364" lon="7.9054381"><ele>285.0</ele><time>2026-04-11T10:52:21.75Z</time></trkpt><trkpt lat="44.5953407" lon="7.9053225"><ele>283.6666666666667</ele><time>2026-04-11T10:52:22.751Z</time></trkpt><trkpt lat="44.5953197" lon="7.9052093"><ele>282.3333333333333</ele><time>2026-04-11T10:52:23.771Z</time></trkpt><trkpt lat="44.5952995" lon="7.9051062"><ele>281.0</ele><time>2026-04-11T10:52:24.747Z</time></trkpt><trkpt lat="44.5952814" lon="7.9049946"><ele>279.66666666666663</ele><time>2026-04-11T10:52:25.763Z</time></trkpt><trkpt lat="44.5952604" lon="7.9048713"><ele>278.3333333333333</ele><time>2026-04-11T10:52:26.768Z</time></trkpt><trkpt lat="44.5952388" lon="7.904742"><ele>277.0</ele><time>2026-04-11T10:52:27.748Z</time></trkpt><trkpt lat="44.595211" lon="7.904619"><ele>275.8</ele><time>2026-04-11T10:52:28.797Z</time></trkpt><trkpt lat="44.5951854" lon="7.9045036"><ele>274.6</ele><time>2026-04-11T10:52:29.738Z</time></trkpt><trkpt lat="44.5951581" lon="7.9043863"><ele>273.40000000000003</ele><time>2026-04-11T10:52:30.75Z</time></trkpt><trkpt lat="44.5951317" lon="7.9042655"><ele>272.2</ele><time>2026-04-11T10:52:31.75Z</time></trkpt><trkpt lat="44.5951014" lon="7.90414"><ele>271.0</ele><time>2026-04-11T10:52:32.764Z</time></trkpt><trkpt lat="44.5950716" lon="7.9040162"><ele>269.8333333333333</ele><time>2026-04-11T10:52:33.734Z</time></trkpt><trkpt lat="44.595051" lon="7.9038944"><ele>268.66666666666663</ele><time>2026-04-11T10:52:34.762Z</time></trkpt><trkpt lat="44.5950248" lon="7.9037764"><ele>267.5</ele><time>2026-04-11T10:52:35.743Z</time></trkpt><trkpt lat="44.595" lon="7.9036656"><ele>266.3333333333333</ele><time>2026-04-11T10:52:36.765Z</time></trkpt><trkpt lat="44.5949766" lon="7.9035594"><ele>265.1666666666667</ele><time>2026-04-11T10:52:37.747Z</time></trkpt><trkpt lat="44.594951" lon="7.9034459"><ele>264.0</ele><time>2026-04-11T10:52:38.761Z</time></trkpt><trkpt lat="44.5949302" lon="7.9033289"><ele>263.3333333333333</ele><time>2026-04-11T10:52:39.77Z</time></trkpt><trkpt lat="44.5949159" lon="7.9032159"><ele>262.6666666666667</ele><time>2026-04-11T10:52:40.757Z</time></trkpt><trkpt lat="44.5949021" lon="7.9030991"><ele>262.0</ele><time>2026-04-11T10:52:41.759Z</time></trkpt><trkpt lat="44.5948907" lon="7.9029782"><ele>261.33333333333337</ele><time>2026-04-11T10:52:42.767Z</time></trkpt><trkpt lat="44.5948798" lon="7.9028631"><ele>260.6666666666667</ele><time>2026-04-11T10:52:43.75Z</time></trkpt><trkpt lat="44.5948698" lon="7.9027441"><ele>260.0</ele><time>2026-04-11T10:52:44.754Z</time></trkpt><trkpt lat="44.594861" lon="7.9026286"><ele>259.5</ele><time>2026-04-11T10:52:45.756Z</time></trkpt><trkpt lat="44.594861" lon="7.9025105"><ele>259.0</ele><time>2026-04-11T10:52:46.751Z</time></trkpt><trkpt lat="44.5948648" lon="7.9023944"><ele>258.5</ele><time>2026-04-11T10:52:47.772Z</time></trkpt><trkpt lat="44.5948639" lon="7.9022865"><ele>258.0</ele><time>2026-04-11T10:52:48.739Z</time></trkpt><trkpt lat="44.5948481" lon="7.9021847"><ele>257.5</ele><time>2026-04-11T10:52:49.746Z</time></trkpt><trkpt lat="44.5948118" lon="7.9020944"><ele>257.0</ele><time>2026-04-11T10:52:50.743Z</time></trkpt><trkpt lat="44.5947487" lon="7.902009"><ele>257.0</ele><time>2026-04-11T10:52:51.729Z</time></trkpt><trkpt lat="44.5946718" lon="7.9019406"><ele>257.0</ele><time>2026-04-11T10:52:52.781Z</time></trkpt><trkpt lat="44.5945859" lon="7.9018852"><ele>257.0</ele><time>2026-04-11T10:52:53.736Z</time></trkpt><trkpt lat="44.5944924" lon="7.9018148"><ele>257.0</ele><time>2026-04-11T10:52:54.755Z</time></trkpt><trkpt lat="44.5943876" lon="7.9017401"><ele>257.0</ele><time>2026-04-11T10:52:55.763Z</time></trkpt><trkpt lat="44.5942847" lon="7.9016712"><ele>251.75</ele><time>2026-04-11T10:52:56.734Z</time></trkpt><trkpt lat="44.5941803" lon="7.9016035"><ele>246.5</ele><time>2026-04-11T10:52:57.741Z</time></trkpt><trkpt lat="44.5940708" lon="7.9015343"><ele>241.25</ele><time>2026-04-11T10:52:58.746Z</time></trkpt><trkpt lat="44.5939569" lon="7.9014583"><ele>236.0</ele><time>2026-04-11T10:52:59.759Z</time></trkpt><trkpt lat="44.5938467" lon="7.9013731"><ele>236.0</ele><time>2026-04-11T10:53:00.744Z</time></trkpt><trkpt lat="44.5937424" lon="7.9012814"><ele>236.0</ele><time>2026-04-11T10:53:01.737Z</time></trkpt><trkpt lat="44.5936385" lon="7.9011771"><ele>236.0</ele><time>2026-04-11T10:53:02.742Z</time></trkpt><trkpt lat="44.5935477" lon="7.9010774"><ele>236.0</ele><time>2026-04-11T10:53:03.747Z</time></trkpt><trkpt lat="44.5934526" lon="7.9009696"><ele>234.25</ele><time>2026-04-11T10:53:04.745Z</time></trkpt><trkpt lat="44.5933632" lon="7.9008656"><ele>232.5</ele><time>2026-04-11T10:53:05.769Z</time></trkpt><trkpt lat="44.5932758" lon="7.9007594"><ele>230.75</ele><time>2026-04-11T10:53:06.734Z</time></trkpt><trkpt lat="44.5931904" lon="7.900648"><ele>229.0</ele><time>2026-04-11T10:53:07.74Z</time></trkpt><trkpt lat="44.5931101" lon="7.9005442"><ele>229.0</ele><time>2026-04-11T10:53:08.754Z</time></trkpt><trkpt lat="44.5930302" lon="7.9004449"><ele>228.99999999999997</ele><time>2026-04-11T10:53:09.764Z</time></trkpt><trkpt lat="44.5929563" lon="7.9003562"><ele>228.99999999999997</ele><time>2026-04-11T10:53:10.747Z</time></trkpt><trkpt lat="44.5928776" lon="7.9002705"><ele>229.0</ele><time>2026-04-11T10:53:11.769Z</time></trkpt><trkpt lat="44.5927978" lon="7.9001888"><ele>229.0</ele><time>2026-04-11T10:53:12.74Z</time></trkpt><trkpt lat="44.5927203" lon="7.9001126"><ele>228.16666666666666</ele><time>2026-04-11T10:53:13.752Z</time></trkpt><trkpt lat="44.5926412" lon="7.9000419"><ele>227.33333333333331</ele><time>2026-04-11T10:53:14.756Z</time></trkpt><trkpt lat="44.5925593" lon="7.8999793"><ele>226.5</ele><time>2026-04-11T10:53:15.765Z</time></trkpt><trkpt lat="44.5924845" lon="7.8999214"><ele>225.66666666666669</ele><time>2026-04-11T10:53:16.769Z</time></trkpt><trkpt lat="44.5924098" lon="7.8998541"><ele>224.83333333333334</ele><time>2026-04-11T10:53:17.743Z</time></trkpt><trkpt lat="44.5923422" lon="7.899786"><ele>224.0</ele><time>2026-04-11T10:53:18.747Z</time></trkpt><trkpt lat="44.5922817" lon="7.8997007"><ele>224.00000000000003</ele><time>2026-04-11T10:53:19.76Z</time></trkpt><trkpt lat="44.5922304" lon="7.8996093"><ele>224.0</ele><time>2026-04-11T10:53:20.765Z</time></trkpt><trkpt lat="44.5921785" lon="7.8995138"><ele>224.0</ele><time>2026-04-11T10:53:21.74Z</time></trkpt><trkpt lat="44.592131" lon="7.8994178"><ele>224.0</ele><time>2026-04-11T10:53:22.749Z</time></trkpt><trkpt lat="44.5920925" lon="7.8993374"><ele>224.00000000000003</ele><time>2026-04-11T10:53:23.769Z</time></trkpt><trkpt lat="44.5920484" lon="7.8992606"><ele>224.0</ele><time>2026-04-11T10:53:24.76Z</time></trkpt><trkpt lat="44.5920065" lon="7.8991848"><ele>224.39999999999998</ele><time>2026-04-11T10:53:25.754Z</time></trkpt><trkpt lat="44.5919355" lon="7.8990439"><ele>224.79999999999998</ele><time>2026-04-11T10:53:27.773Z</time></trkpt><trkpt lat="44.5919086" lon="7.8989169"><ele>225.20000000000002</ele><time>2026-04-11T10:53:29.788Z</time></trkpt><trkpt lat="44.5919432" lon="7.8987928"><ele>225.60000000000002</ele><time>2026-04-11T10:53:31.767Z</time></trkpt><trkpt lat="44.5920205" lon="7.8987142"><ele>226.0</ele><time>2026-04-11T10:53:33.728Z</time></trkpt><trkpt lat="44.5921096" lon="7.89865"><ele>226.0</ele><time>2026-04-11T10:53:35.809Z</time></trkpt><trkpt lat="44.5921987" lon="7.8985719"><ele>226.00000000000003</ele><time>2026-04-11T10:53:37.754Z</time></trkpt><trkpt lat="44.5922898" lon="7.8984961"><ele>226.00000000000003</ele><time>2026-04-11T10:53:39.764Z</time></trkpt><trkpt lat="44.5923802" lon="7.8984301"><ele>226.0</ele><time>2026-04-11T10:53:41.76Z</time></trkpt><trkpt lat="44.5924732" lon="7.8983632"><ele>226.0</ele><time>2026-04-11T10:53:43.766Z</time></trkpt><trkpt lat="44.5925652" lon="7.898295"><ele>225.4</ele><time>2026-04-11T10:53:45.758Z</time></trkpt><trkpt lat="44.5926595" lon="7.8982312"><ele>224.8</ele><time>2026-04-11T10:53:47.743Z</time></trkpt><trkpt lat="44.5927558" lon="7.898162"><ele>224.20000000000002</ele><time>2026-04-11T10:53:49.762Z</time></trkpt><trkpt lat="44.5928597" lon="7.8980916"><ele>223.60000000000002</ele><time>2026-04-11T10:53:51.765Z</time></trkpt><trkpt lat="44.5929664" lon="7.8980115"><ele>223.0</ele><time>2026-04-11T10:53:53.773Z</time></trkpt><trkpt lat="44.5930763" lon="7.8979392"><ele>223.0</ele><time>2026-04-11T10:53:55.759Z</time></trkpt><trkpt lat="44.5931881" lon="7.897867"><ele>223.0</ele><time>2026-04-11T10:53:57.768Z</time></trkpt><trkpt lat="44.5932492" lon="7.8978328"><ele>223.0</ele><time>2026-04-11T10:53:58.769Z</time></trkpt><trkpt lat="44.5933678" lon="7.8977835"><ele>223.0</ele><time>2026-04-11T10:54:00.825Z</time></trkpt><trkpt lat="44.5934708" lon="7.8977252"><ele>223.0</ele><time>2026-04-11T10:54:02.835Z</time></trkpt><trkpt lat="44.5935824" lon="7.8976717"><ele>223.0</ele><time>2026-04-11T10:54:04.814Z</time></trkpt><trkpt lat="44.59369" lon="7.8976187"><ele>223.0</ele><time>2026-04-11T10:54:06.821Z</time></trkpt><trkpt lat="44.5937935" lon="7.897538"><ele>223.0</ele><time>2026-04-11T10:54:08.836Z</time></trkpt><trkpt lat="44.5938895" lon="7.8974449"><ele>223.0</ele><time>2026-04-11T10:54:10.825Z</time></trkpt><trkpt lat="44.5939814" lon="7.8973488"><ele>222.75</ele><time>2026-04-11T10:54:12.824Z</time></trkpt><trkpt lat="44.5940749" lon="7.8972604"><ele>222.5</ele><time>2026-04-11T10:54:14.758Z</time></trkpt><trkpt lat="44.5941636" lon="7.8971531"><ele>222.25</ele><time>2026-04-11T10:54:16.84Z</time></trkpt><trkpt lat="44.5942531" lon="7.897041"><ele>222.0</ele><time>2026-04-11T10:54:18.816Z</time></trkpt><trkpt lat="44.5943447" lon="7.8969278"><ele>222.0</ele><time>2026-04-11T10:54:20.756Z</time></trkpt><trkpt lat="44.5944365" lon="7.8968227"><ele>222.0</ele><time>2026-04-11T10:54:22.736Z</time></trkpt><trkpt lat="44.5945273" lon="7.8967148"><ele>222.0</ele><time>2026-04-11T10:54:24.826Z</time></trkpt><trkpt lat="44.5946133" lon="7.8966033"><ele>222.0</ele><time>2026-04-11T10:54:26.812Z</time></trkpt><trkpt lat="44.5946933" lon="7.8964973"><ele>222.2</ele><time>2026-04-11T10:54:28.746Z</time></trkpt><trkpt lat="44.5947785" lon="7.8963917"><ele>222.39999999999998</ele><time>2026-04-11T10:54:30.827Z</time></trkpt><trkpt lat="44.5948603" lon="7.8962853"><ele>222.60000000000002</ele><time>2026-04-11T10:54:32.809Z</time></trkpt><trkpt lat="44.5949392" lon="7.8961821"><ele>222.8</ele><time>2026-04-11T10:54:34.765Z</time></trkpt><trkpt lat="44.5950159" lon="7.8960855"><ele>223.0</ele><time>2026-04-11T10:54:36.833Z</time></trkpt><trkpt lat="44.5950897" lon="7.8959912"><ele>222.83333333333331</ele><time>2026-04-11T10:54:38.83Z</time></trkpt><trkpt lat="44.595155" lon="7.8959105"><ele>222.66666666666666</ele><time>2026-04-11T10:54:40.812Z</time></trkpt><trkpt lat="44.5952197" lon="7.8958273"><ele>222.5</ele><time>2026-04-11T10:54:42.831Z</time></trkpt><trkpt lat="44.5952785" lon="7.8957514"><ele>222.33333333333331</ele><time>2026-04-11T10:54:44.816Z</time></trkpt><trkpt lat="44.5953377" lon="7.8956816"><ele>222.16666666666666</ele><time>2026-04-11T10:54:46.809Z</time></trkpt><trkpt lat="44.5953912" lon="7.8956262"><ele>222.0</ele><time>2026-04-11T10:54:48.831Z</time></trkpt><trkpt lat="44.5954573" lon="7.8955479"><ele>222.42857142857142</ele><time>2026-04-11T10:54:51.733Z</time></trkpt><trkpt lat="44.5955133" lon="7.8954818"><ele>222.8571428571429</ele><time>2026-04-11T10:54:54.831Z</time></trkpt><trkpt lat="44.5955689" lon="7.8954246"><ele>223.2857142857143</ele><time>2026-04-11T10:54:57.758Z</time></trkpt><trkpt lat="44.5956272" lon="7.8953536"><ele>223.71428571428572</ele><time>2026-04-11T10:55:01.838Z</time></trkpt><trkpt lat="44.5956843" lon="7.8952774"><ele>224.14285714285717</ele><time>2026-04-11T10:55:05.794Z</time></trkpt><trkpt lat="44.5957413" lon="7.8951987"><ele>224.5714285714286</ele><time>2026-04-11T10:55:09.828Z</time></trkpt><trkpt lat="44.5957861" lon="7.8951363"><ele>225.00000000000003</ele><time>2026-04-11T10:55:12.828Z</time></trkpt><trkpt lat="44.5958538" lon="7.8950653"><ele>225.0</ele><time>2026-04-11T10:55:16.832Z</time></trkpt><trkpt lat="44.5959047" lon="7.8949991"><ele>225.0</ele><time>2026-04-11T10:55:19.831Z</time></trkpt><trkpt lat="44.595962" lon="7.8949375"><ele>225.0</ele><time>2026-04-11T10:55:22.776Z</time></trkpt><trkpt lat="44.5960183" lon="7.8948742"><ele>225.0</ele><time>2026-04-11T10:55:25.758Z</time></trkpt><trkpt lat="44.5960791" lon="7.8948137"><ele>225.0</ele><time>2026-04-11T10:55:28.751Z</time></trkpt><trkpt lat="44.5961468" lon="7.894746"><ele>225.0</ele><time>2026-04-11T10:55:31.739Z</time></trkpt><trkpt lat="44.5962144" lon="7.8946821"><ele>225.42857142857144</ele><time>2026-04-11T10:55:34.761Z</time></trkpt><trkpt lat="44.5962846" lon="7.894611"><ele>225.85714285714286</ele><time>2026-04-11T10:55:37.738Z</time></trkpt><trkpt lat="44.5963424" lon="7.8945657"><ele>226.28571428571428</ele><time>2026-04-11T10:55:39.754Z</time></trkpt><trkpt lat="44.5963993" lon="7.8945102"><ele>226.71428571428572</ele><time>2026-04-11T10:55:41.764Z</time></trkpt><trkpt lat="44.5964591" lon="7.8944383"><ele>227.1428571428571</ele><time>2026-04-11T10:55:43.76Z</time></trkpt><trkpt lat="44.5965109" lon="7.8943731"><ele>227.57142857142856</ele><time>2026-04-11T10:55:45.762Z</time></trkpt><trkpt lat="44.5965653" lon="7.8943131"><ele>228.0</ele><time>2026-04-11T10:55:47.761Z</time></trkpt><trkpt lat="44.5966218" lon="7.8942545"><ele>228.0</ele><time>2026-04-11T10:55:49.758Z</time></trkpt><trkpt lat="44.5966796" lon="7.8941989"><ele>228.0</ele><time>2026-04-11T10:55:51.767Z</time></trkpt><trkpt lat="44.5967344" lon="7.8941378"><ele>228.0</ele><time>2026-04-11T10:55:53.759Z</time></trkpt><trkpt lat="44.5968017" lon="7.8940657"><ele>228.0</ele><time>2026-04-11T10:55:55.747Z</time></trkpt><trkpt lat="44.5968529" lon="7.8939985"><ele>228.0</ele><time>2026-04-11T10:55:57.767Z</time></trkpt><trkpt lat="44.5969211" lon="7.8939136"><ele>228.0</ele><time>2026-04-11T10:55:59.766Z</time></trkpt><trkpt lat="44.5969883" lon="7.893835"><ele>227.83333333333334</ele><time>2026-04-11T10:56:01.827Z</time></trkpt><trkpt lat="44.5970588" lon="7.8937593"><ele>227.66666666666669</ele><time>2026-04-11T10:56:03.777Z</time></trkpt><trkpt lat="44.5971275" lon="7.8936872"><ele>227.5</ele><time>2026-04-11T10:56:05.813Z</time></trkpt><trkpt lat="44.597188" lon="7.8936074"><ele>227.33333333333334</ele><time>2026-04-11T10:56:07.756Z</time></trkpt><trkpt lat="44.5972515" lon="7.8935269"><ele>227.16666666666669</ele><time>2026-04-11T10:56:09.758Z</time></trkpt><trkpt lat="44.597317" lon="7.8934393"><ele>227.0</ele><time>2026-04-11T10:56:11.82Z</time></trkpt><trkpt lat="44.5973815" lon="7.8933514"><ele>226.50000000000003</ele><time>2026-04-11T10:56:13.759Z</time></trkpt><trkpt lat="44.5974337" lon="7.8932707"><ele>226.0</ele><time>2026-04-11T10:56:15.845Z</time></trkpt><trkpt lat="44.5974889" lon="7.8931815"><ele>225.5</ele><time>2026-04-11T10:56:17.834Z</time></trkpt><trkpt lat="44.5975539" lon="7.8930787"><ele>225.0</ele><time>2026-04-11T10:56:19.825Z</time></trkpt><trkpt lat="44.5976134" lon="7.8929778"><ele>224.50000000000003</ele><time>2026-04-11T10:56:21.835Z</time></trkpt><trkpt lat="44.5976763" lon="7.8928761"><ele>224.0</ele><time>2026-04-11T10:56:23.781Z</time></trkpt><trkpt lat="44.5977399" lon="7.8927747"><ele>224.00000000000003</ele><time>2026-04-11T10:56:25.845Z</time></trkpt><trkpt lat="44.5978003" lon="7.8926704"><ele>224.0</ele><time>2026-04-11T10:56:27.768Z</time></trkpt><trkpt lat="44.5978623" lon="7.89257"><ele>224.0</ele><time>2026-04-11T10:56:29.732Z</time></trkpt><trkpt lat="44.5979355" lon="7.8924838"><ele>224.0</ele><time>2026-04-11T10:56:31.781Z</time></trkpt><trkpt lat="44.5980019" lon="7.8924154"><ele>224.00000000000003</ele><time>2026-04-11T10:56:33.755Z</time></trkpt><trkpt lat="44.5980705" lon="7.89237"><ele>224.0</ele><time>2026-04-11T10:56:35.767Z</time></trkpt><trkpt lat="44.5981358" lon="7.8923499"><ele>224.42857142857144</ele><time>2026-04-11T10:56:37.756Z</time></trkpt><trkpt lat="44.5982011" lon="7.8923377"><ele>224.85714285714286</ele><time>2026-04-11T11:02:36.745Z</time></trkpt><trkpt lat="44.5981304" lon="7.8923565"><ele>225.28571428571428</ele><time>2026-04-11T11:12:26.746Z</time></trkpt><trkpt lat="44.5981757" lon="7.8922838"><ele>225.71428571428572</ele><time>2026-04-11T11:17:47.745Z</time></trkpt><trkpt lat="44.5982118" lon="7.892202"><ele>226.14285714285717</ele><time>2026-04-11T11:17:55.765Z</time></trkpt><trkpt lat="44.5981773" lon="7.8921135"><ele>226.57142857142858</ele><time>2026-04-11T11:18:00.742Z</time></trkpt><trkpt lat="44.5981118" lon="7.8920811"><ele>227.0</ele><time>2026-04-11T11:18:04.737Z</time></trkpt><trkpt lat="44.5980424" lon="7.8920499"><ele>227.00000000000003</ele><time>2026-04-11T11:18:07.76Z</time></trkpt><trkpt lat="44.5979717" lon="7.8920198"><ele>227.0</ele><time>2026-04-11T11:18:10.769Z</time></trkpt><trkpt lat="44.5978976" lon="7.8919948"><ele>227.0</ele><time>2026-04-11T11:18:13.768Z</time></trkpt><trkpt lat="44.597826" lon="7.8919643"><ele>227.0</ele><time>2026-04-11T11:18:16.772Z</time></trkpt><trkpt lat="44.5977467" lon="7.8919299"><ele>227.00000000000003</ele><time>2026-04-11T11:18:19.742Z</time></trkpt><trkpt lat="44.5976542" lon="7.891895"><ele>227.0</ele><time>2026-04-11T11:18:22.763Z</time></trkpt><trkpt lat="44.5975691" lon="7.8918534"><ele>226.85714285714286</ele><time>2026-04-11T11:18:25.744Z</time></trkpt><trkpt lat="44.5974991" lon="7.8918137"><ele>226.71428571428572</ele><time>2026-04-11T11:18:27.75Z</time></trkpt><trkpt lat="44.5974538" lon="7.8917352"><ele>226.57142857142858</ele><time>2026-04-11T11:18:29.747Z</time></trkpt><trkpt lat="44.5974713" lon="7.8916427"><ele>226.42857142857144</ele><time>2026-04-11T11:18:31.748Z</time></trkpt><trkpt lat="44.5975231" lon="7.891568"><ele>226.28571428571428</ele><time>2026-04-11T11:18:34.74Z</time></trkpt><trkpt lat="44.597597" lon="7.8915398"><ele>226.14285714285717</ele><time>2026-04-11T11:18:37.75Z</time></trkpt><trkpt lat="44.5976733" lon="7.8915007"><ele>226.0</ele><time>2026-04-11T11:18:40.764Z</time></trkpt><trkpt lat="44.5977542" lon="7.8914431"><ele>225.4</ele><time>2026-04-11T11:18:43.768Z</time></trkpt><trkpt lat="44.5978243" lon="7.8913855"><ele>224.8</ele><time>2026-04-11T11:18:45.906Z</time></trkpt><trkpt lat="44.5979051" lon="7.8913069"><ele>224.20000000000002</ele><time>2026-04-11T11:18:47.795Z</time></trkpt><trkpt lat="44.5979813" lon="7.8911957"><ele>223.60000000000002</ele><time>2026-04-11T11:18:49.758Z</time></trkpt><trkpt lat="44.5980495" lon="7.8910539"><ele>223.0</ele><time>2026-04-11T11:18:51.785Z</time></trkpt><trkpt lat="44.5981027" lon="7.8909011"><ele>222.42857142857142</ele><time>2026-04-11T11:18:53.81Z</time></trkpt><trkpt lat="44.5981253" lon="7.8908178"><ele>221.85714285714283</ele><time>2026-04-11T11:18:54.809Z</time></trkpt><trkpt lat="44.598149" lon="7.8907311"><ele>221.28571428571428</ele><time>2026-04-11T11:18:55.83Z</time></trkpt><trkpt lat="44.5981759" lon="7.8906361"><ele>220.71428571428572</ele><time>2026-04-11T11:18:56.812Z</time></trkpt><trkpt lat="44.598196" lon="7.8905429"><ele>220.14285714285714</ele><time>2026-04-11T11:18:57.824Z</time></trkpt><trkpt lat="44.5982142" lon="7.890443"><ele>219.57142857142858</ele><time>2026-04-11T11:18:58.824Z</time></trkpt><trkpt lat="44.5982377" lon="7.8903399"><ele>219.0</ele><time>2026-04-11T11:18:59.838Z</time></trkpt><trkpt lat="44.5982579" lon="7.89024"><ele>219.0</ele><time>2026-04-11T11:19:00.832Z</time></trkpt><trkpt lat="44.5982778" lon="7.8901351"><ele>219.0</ele><time>2026-04-11T11:19:01.839Z</time></trkpt><trkpt lat="44.5982942" lon="7.8900308"><ele>219.0</ele><time>2026-04-11T11:19:02.768Z</time></trkpt><trkpt lat="44.5983122" lon="7.8899225"><ele>219.0</ele><time>2026-04-11T11:19:03.837Z</time></trkpt><trkpt lat="44.5983241" lon="7.8898152"><ele>219.0</ele><time>2026-04-11T11:19:04.807Z</time></trkpt><trkpt lat="44.5983353" lon="7.8897073"><ele>219.0</ele><time>2026-04-11T11:19:05.759Z</time></trkpt><trkpt lat="44.5983423" lon="7.8895982"><ele>218.85714285714286</ele><time>2026-04-11T11:19:06.76Z</time></trkpt><trkpt lat="44.5983476" lon="7.8894928"><ele>218.7142857142857</ele><time>2026-04-11T11:19:07.751Z</time></trkpt><trkpt lat="44.5983532" lon="7.8893824"><ele>218.57142857142856</ele><time>2026-04-11T11:19:08.746Z</time></trkpt><trkpt lat="44.5983552" lon="7.8892845"><ele>218.42857142857144</ele><time>2026-04-11T11:19:09.794Z</time></trkpt><trkpt lat="44.5983576" lon="7.8891867"><ele>218.28571428571428</ele><time>2026-04-11T11:19:10.752Z</time></trkpt><trkpt lat="44.5983578" lon="7.8890938"><ele>218.14285714285714</ele><time>2026-04-11T11:19:11.76Z</time></trkpt><trkpt lat="44.5983531" lon="7.889003"><ele>218.0</ele><time>2026-04-11T11:19:12.763Z</time></trkpt><trkpt lat="44.5983518" lon="7.8889075"><ele>217.4</ele><time>2026-04-11T11:19:13.761Z</time></trkpt><trkpt lat="44.5983433" lon="7.888818"><ele>216.8</ele><time>2026-04-11T11:19:14.757Z</time></trkpt><trkpt lat="44.5983344" lon="7.8886527"><ele>216.2</ele><time>2026-04-11T11:19:16.85Z</time></trkpt><trkpt lat="44.5983198" lon="7.8884891"><ele>215.6</ele><time>2026-04-11T11:19:18.765Z</time></trkpt><trkpt lat="44.5983081" lon="7.8883321"><ele>215.0</ele><time>2026-04-11T11:19:20.753Z</time></trkpt><trkpt lat="44.5982877" lon="7.8881859"><ele>214.25</ele><time>2026-04-11T11:19:22.768Z</time></trkpt><trkpt lat="44.5982628" lon="7.8880274"><ele>213.5</ele><time>2026-04-11T11:19:24.759Z</time></trkpt><trkpt lat="44.5982394" lon="7.8878751"><ele>212.75</ele><time>2026-04-11T11:19:26.754Z</time></trkpt><trkpt lat="44.5982119" lon="7.8877153"><ele>212.0</ele><time>2026-04-11T11:19:28.756Z</time></trkpt><trkpt lat="44.5981851" lon="7.887569"><ele>211.39999999999998</ele><time>2026-04-11T11:19:30.748Z</time></trkpt><trkpt lat="44.5981562" lon="7.8874241"><ele>210.79999999999998</ele><time>2026-04-11T11:19:32.756Z</time></trkpt><trkpt lat="44.5981256" lon="7.8872752"><ele>210.2</ele><time>2026-04-11T11:19:34.759Z</time></trkpt><trkpt lat="44.5981002" lon="7.8871317"><ele>209.6</ele><time>2026-04-11T11:19:36.763Z</time></trkpt><trkpt lat="44.5980739" lon="7.8869826"><ele>209.0</ele><time>2026-04-11T11:19:38.754Z</time></trkpt><trkpt lat="44.5980472" lon="7.8868423"><ele>208.6</ele><time>2026-04-11T11:19:40.757Z</time></trkpt><trkpt lat="44.5980242" lon="7.8867086"><ele>208.2</ele><time>2026-04-11T11:19:42.743Z</time></trkpt><trkpt lat="44.5979939" lon="7.8865639"><ele>207.79999999999998</ele><time>2026-04-11T11:19:44.768Z</time></trkpt><trkpt lat="44.597959" lon="7.8864164"><ele>207.39999999999998</ele><time>2026-04-11T11:19:46.753Z</time></trkpt><trkpt lat="44.5979333" lon="7.8862702"><ele>207.0</ele><time>2026-04-11T11:19:48.751Z</time></trkpt><trkpt lat="44.5979051" lon="7.8861392"><ele>207.0</ele><time>2026-04-11T11:19:50.764Z</time></trkpt><trkpt lat="44.5978756" lon="7.8860066"><ele>207.0</ele><time>2026-04-11T11:19:52.758Z</time></trkpt><trkpt lat="44.5978496" lon="7.8858676"><ele>207.0</ele><time>2026-04-11T11:19:54.768Z</time></trkpt><trkpt lat="44.5978309" lon="7.8857237"><ele>207.0</ele><time>2026-04-11T11:19:56.765Z</time></trkpt><trkpt lat="44.5978054" lon="7.8855708"><ele>207.0</ele><time>2026-04-11T11:19:58.745Z</time></trkpt><trkpt lat="44.5977826" lon="7.8854127"><ele>207.6</ele><time>2026-04-11T11:20:00.748Z</time></trkpt><trkpt lat="44.5977659" lon="7.8852609"><ele>208.2</ele><time>2026-04-11T11:20:02.754Z</time></trkpt><trkpt lat="44.5977525" lon="7.88511"><ele>208.8</ele><time>2026-04-11T11:20:04.752Z</time></trkpt><trkpt lat="44.5977405" lon="7.8849691"><ele>209.4</ele><time>2026-04-11T11:20:06.753Z</time></trkpt><trkpt lat="44.597739" lon="7.884825"><ele>210.0</ele><time>2026-04-11T11:20:08.743Z</time></trkpt><trkpt lat="44.5977321" lon="7.8846811"><ele>210.0</ele><time>2026-04-11T11:20:10.812Z</time></trkpt><trkpt lat="44.5977307" lon="7.8845347"><ele>210.0</ele><time>2026-04-11T11:20:12.823Z</time></trkpt><trkpt lat="44.5977381" lon="7.8844013"><ele>210.0</ele><time>2026-04-11T11:20:14.797Z</time></trkpt><trkpt lat="44.5977434" lon="7.8842728"><ele>210.0</ele><time>2026-04-11T11:20:16.786Z</time></trkpt><trkpt lat="44.5977337" lon="7.8841615"><ele>210.0</ele><time>2026-04-11T11:20:18.801Z</time></trkpt><trkpt lat="44.5977265" lon="7.8840368"><ele>210.16666666666666</ele><time>2026-04-11T11:20:20.828Z</time></trkpt><trkpt lat="44.5977298" lon="7.8839222"><ele>210.33333333333331</ele><time>2026-04-11T11:20:22.793Z</time></trkpt><trkpt lat="44.5977358" lon="7.8838091"><ele>210.5</ele><time>2026-04-11T11:20:24.795Z</time></trkpt><trkpt lat="44.5977208" lon="7.8837089"><ele>210.66666666666666</ele><time>2026-04-11T11:20:26.859Z</time></trkpt><trkpt lat="44.5976618" lon="7.8836549"><ele>210.83333333333331</ele><time>2026-04-11T11:20:28.82Z</time></trkpt><trkpt lat="44.5975908" lon="7.8837367"><ele>211.0</ele><time>2026-04-11T11:20:30.812Z</time></trkpt><trkpt lat="44.597547" lon="7.8838709"><ele>211.0</ele><time>2026-04-11T11:20:32.817Z</time></trkpt><trkpt lat="44.5975153" lon="7.8840345"><ele>211.0</ele><time>2026-04-11T11:20:34.819Z</time></trkpt><trkpt lat="44.5975042" lon="7.8841219"><ele>211.0</ele><time>2026-04-11T11:20:35.821Z</time></trkpt><trkpt lat="44.5974944" lon="7.8843042"><ele>211.0</ele><time>2026-04-11T11:20:37.844Z</time></trkpt><trkpt lat="44.597493" lon="7.8844028"><ele>211.0</ele><time>2026-04-11T11:20:38.829Z</time></trkpt><trkpt lat="44.5974958" lon="7.8845078"><ele>210.83333333333331</ele><time>2026-04-11T11:20:39.791Z</time></trkpt><trkpt lat="44.5974979" lon="7.8846144"><ele>210.66666666666666</ele><time>2026-04-11T11:20:40.761Z</time></trkpt><trkpt lat="44.5974964" lon="7.8847193"><ele>210.5</ele><time>2026-04-11T11:20:41.82Z</time></trkpt><trkpt lat="44.597487" lon="7.8848249"><ele>210.33333333333331</ele><time>2026-04-11T11:20:42.817Z</time></trkpt><trkpt lat="44.5974741" lon="7.8849323"><ele>210.16666666666666</ele><time>2026-04-11T11:20:43.812Z</time></trkpt><trkpt lat="44.5974541" lon="7.8850387"><ele>210.0</ele><time>2026-04-11T11:20:44.753Z</time></trkpt><trkpt lat="44.5974222" lon="7.8851382"><ele>210.0</ele><time>2026-04-11T11:20:45.828Z</time></trkpt><trkpt lat="44.5973774" lon="7.8852349"><ele>210.0</ele><time>2026-04-11T11:20:46.746Z</time></trkpt><trkpt lat="44.5973334" lon="7.885318"><ele>210.0</ele><time>2026-04-11T11:20:47.766Z</time></trkpt><trkpt lat="44.5972938" lon="7.8854014"><ele>210.0</ele><time>2026-04-11T11:20:48.78Z</time></trkpt><trkpt lat="44.5972562" lon="7.8854766"><ele>210.0</ele><time>2026-04-11T11:20:49.749Z</time></trkpt><trkpt lat="44.5972159" lon="7.8855477"><ele>210.0</ele><time>2026-04-11T11:20:50.749Z</time></trkpt><trkpt lat="44.5971491" lon="7.8856706"><ele>210.0</ele><time>2026-04-11T11:20:52.773Z</time></trkpt><trkpt lat="44.5970924" lon="7.8857756"><ele>210.0</ele><time>2026-04-11T11:20:54.747Z</time></trkpt><trkpt lat="44.597029" lon="7.8858615"><ele>210.0</ele><time>2026-04-11T11:20:56.753Z</time></trkpt><trkpt lat="44.5969654" lon="7.8859587"><ele>210.0</ele><time>2026-04-11T11:20:58.762Z</time></trkpt><trkpt lat="44.5969023" lon="7.8860478"><ele>210.0</ele><time>2026-04-11T11:21:00.766Z</time></trkpt><trkpt lat="44.5968411" lon="7.8861304"><ele>209.8</ele><time>2026-04-11T11:21:02.776Z</time></trkpt><trkpt lat="44.5967309" lon="7.8862639"><ele>209.6</ele><time>2026-04-11T11:21:05.776Z</time></trkpt><trkpt lat="44.596664" lon="7.8863547"><ele>209.39999999999998</ele><time>2026-04-11T11:21:07.739Z</time></trkpt><trkpt lat="44.596607" lon="7.8864467"><ele>209.2</ele><time>2026-04-11T11:21:09.808Z</time></trkpt><trkpt lat="44.5965412" lon="7.8865285"><ele>209.0</ele><time>2026-04-11T11:21:11.784Z</time></trkpt><trkpt lat="44.5964767" lon="7.8866027"><ele>209.0</ele><time>2026-04-11T11:21:13.753Z</time></trkpt><trkpt lat="44.596408" lon="7.8866693"><ele>209.0</ele><time>2026-04-11T11:21:15.765Z</time></trkpt><trkpt lat="44.5963152" lon="7.8867208"><ele>209.0</ele><time>2026-04-11T11:21:17.743Z</time></trkpt><trkpt lat="44.5962162" lon="7.8867272"><ele>209.0</ele><time>2026-04-11T11:21:19.744Z</time></trkpt><trkpt lat="44.5961234" lon="7.8867355"><ele>209.0</ele><time>2026-04-11T11:21:21.769Z</time></trkpt><trkpt lat="44.5960366" lon="7.8867401"><ele>209.14285714285714</ele><time>2026-04-11T11:21:23.741Z</time></trkpt><trkpt lat="44.5959536" lon="7.8867405"><ele>209.28571428571428</ele><time>2026-04-11T11:21:25.754Z</time></trkpt><trkpt lat="44.5958733" lon="7.8867479"><ele>209.42857142857144</ele><time>2026-04-11T11:21:27.744Z</time></trkpt><trkpt lat="44.5958027" lon="7.8867561"><ele>209.57142857142856</ele><time>2026-04-11T11:21:29.742Z</time></trkpt><trkpt lat="44.5957292" lon="7.8867648"><ele>209.71428571428572</ele><time>2026-04-11T11:21:32.744Z</time></trkpt><trkpt lat="44.5956548" lon="7.8867675"><ele>209.85714285714286</ele><time>2026-04-11T11:22:22.757Z</time></trkpt><trkpt lat="44.5955912" lon="7.8867957"><ele>210.0</ele><time>2026-04-11T11:22:25.756Z</time></trkpt><trkpt lat="44.5955301" lon="7.8868225"><ele>210.0</ele><time>2026-04-11T11:22:27.751Z</time></trkpt><trkpt lat="44.5954581" lon="7.8868597"><ele>210.0</ele><time>2026-04-11T11:22:29.758Z</time></trkpt><trkpt lat="44.5953848" lon="7.8869035"><ele>210.0</ele><time>2026-04-11T11:22:31.758Z</time></trkpt><trkpt lat="44.5952982" lon="7.8869398"><ele>210.0</ele><time>2026-04-11T11:22:33.736Z</time></trkpt><trkpt lat="44.5952089" lon="7.8869624"><ele>210.0</ele><time>2026-04-11T11:22:35.76Z</time></trkpt><trkpt lat="44.5951264" lon="7.8869762"><ele>210.0</ele><time>2026-04-11T11:22:37.768Z</time></trkpt><trkpt lat="44.5950339" lon="7.8869801"><ele>210.0</ele><time>2026-04-11T11:22:39.741Z</time></trkpt><trkpt lat="44.5949498" lon="7.8869865"><ele>210.0</ele><time>2026-04-11T11:22:41.759Z</time></trkpt><trkpt lat="44.5948746" lon="7.8869913"><ele>210.0</ele><time>2026-04-11T11:22:43.754Z</time></trkpt><trkpt lat="44.5947885" lon="7.8869915"><ele>210.0</ele><time>2026-04-11T11:22:45.745Z</time></trkpt><trkpt lat="44.5946989" lon="7.8869828"><ele>210.0</ele><time>2026-04-11T11:22:47.759Z</time></trkpt><trkpt lat="44.5946134" lon="7.8869652"><ele>210.0</ele><time>2026-04-11T11:22:49.798Z</time></trkpt><trkpt lat="44.5945295" lon="7.8869443"><ele>210.16666666666666</ele><time>2026-04-11T11:22:51.772Z</time></trkpt><trkpt lat="44.5944555" lon="7.8869296"><ele>210.33333333333331</ele><time>2026-04-11T11:22:53.772Z</time></trkpt><trkpt lat="44.594379" lon="7.8869164"><ele>210.5</ele><time>2026-04-11T11:22:55.765Z</time></trkpt><trkpt lat="44.5943047" lon="7.8869005"><ele>210.66666666666666</ele><time>2026-04-11T11:22:57.757Z</time></trkpt><trkpt lat="44.5942179" lon="7.886883"><ele>210.83333333333331</ele><time>2026-04-11T11:22:59.768Z</time></trkpt><trkpt lat="44.5941239" lon="7.8868572"><ele>211.0</ele><time>2026-04-11T11:23:01.78Z</time></trkpt><trkpt lat="44.5940312" lon="7.8868317"><ele>211.0</ele><time>2026-04-11T11:23:03.764Z</time></trkpt><trkpt lat="44.593941" lon="7.886815"><ele>211.0</ele><time>2026-04-11T11:23:05.77Z</time></trkpt><trkpt lat="44.5938516" lon="7.8867992"><ele>211.0</ele><time>2026-04-11T11:23:07.752Z</time></trkpt><trkpt lat="44.5937634" lon="7.8867812"><ele>211.0</ele><time>2026-04-11T11:23:09.776Z</time></trkpt><trkpt lat="44.5936731" lon="7.8867583"><ele>211.0</ele><time>2026-04-11T11:23:11.763Z</time></trkpt><trkpt lat="44.593575" lon="7.886733"><ele>211.0</ele><time>2026-04-11T11:23:13.757Z</time></trkpt><trkpt lat="44.5934876" lon="7.8867142"><ele>211.0</ele><time>2026-04-11T11:23:15.761Z</time></trkpt><trkpt lat="44.593399" lon="7.8866956"><ele>211.0</ele><time>2026-04-11T11:23:17.767Z</time></trkpt><trkpt lat="44.5933069" lon="7.8866867"><ele>211.0</ele><time>2026-04-11T11:23:19.774Z</time></trkpt><trkpt lat="44.5932194" lon="7.8866587"><ele>211.0</ele><time>2026-04-11T11:23:21.747Z</time></trkpt><trkpt lat="44.5931287" lon="7.886627"><ele>211.0</ele><time>2026-04-11T11:23:23.77Z</time></trkpt><trkpt lat="44.5930363" lon="7.8865863"><ele>211.0</ele><time>2026-04-11T11:23:25.77Z</time></trkpt><trkpt lat="44.5929466" lon="7.8865311"><ele>211.0</ele><time>2026-04-11T11:23:27.754Z</time></trkpt><trkpt lat="44.5928637" lon="7.8864723"><ele>211.0</ele><time>2026-04-11T11:23:29.752Z</time></trkpt><trkpt lat="44.5927921" lon="7.8863971"><ele>211.0</ele><time>2026-04-11T11:23:31.756Z</time></trkpt><trkpt lat="44.5927342" lon="7.8863026"><ele>210.99999999999997</ele><time>2026-04-11T11:23:33.759Z</time></trkpt><trkpt lat="44.5926929" lon="7.886183"><ele>211.0</ele><time>2026-04-11T11:23:35.774Z</time></trkpt><trkpt lat="44.5926673" lon="7.8860621"><ele>211.0</ele><time>2026-04-11T11:23:37.754Z</time></trkpt><trkpt lat="44.5926466" lon="7.8859514"><ele>211.0</ele><time>2026-04-11T11:23:39.747Z</time></trkpt><trkpt lat="44.5926292" lon="7.885851"><ele>210.99999999999997</ele><time>2026-04-11T11:23:41.739Z</time></trkpt><trkpt lat="44.5926064" lon="7.8857592"><ele>211.0</ele><time>2026-04-11T11:23:43.756Z</time></trkpt><trkpt lat="44.5925924" lon="7.8856719"><ele>211.57142857142858</ele><time>2026-04-11T11:23:45.761Z</time></trkpt><trkpt lat="44.5925747" lon="7.885583"><ele>212.14285714285717</ele><time>2026-04-11T11:23:47.745Z</time></trkpt><trkpt lat="44.5925583" lon="7.8854935"><ele>212.71428571428572</ele><time>2026-04-11T11:23:49.767Z</time></trkpt><trkpt lat="44.5925415" lon="7.8854068"><ele>213.28571428571428</ele><time>2026-04-11T11:23:51.738Z</time></trkpt><trkpt lat="44.5925268" lon="7.8853203"><ele>213.85714285714286</ele><time>2026-04-11T11:23:53.751Z</time></trkpt><trkpt lat="44.5925079" lon="7.8852066"><ele>214.42857142857142</ele><time>2026-04-11T11:23:56.741Z</time></trkpt><trkpt lat="44.5924849" lon="7.8851064"><ele>215.0</ele><time>2026-04-11T11:23:59.751Z</time></trkpt><trkpt lat="44.5924663" lon="7.8849963"><ele>215.28571428571428</ele><time>2026-04-11T11:24:02.728Z</time></trkpt><trkpt lat="44.5924495" lon="7.8848866"><ele>215.57142857142858</ele><time>2026-04-11T11:24:05.74Z</time></trkpt><trkpt lat="44.5924383" lon="7.884779"><ele>215.85714285714286</ele><time>2026-04-11T11:24:08.743Z</time></trkpt><trkpt lat="44.5924309" lon="7.8846897"><ele>216.14285714285714</ele><time>2026-04-11T11:24:11.769Z</time></trkpt><trkpt lat="44.5924212" lon="7.8845786"><ele>216.42857142857144</ele><time>2026-04-11T11:24:15.744Z</time></trkpt><trkpt lat="44.592406" lon="7.8844747"><ele>216.71428571428572</ele><time>2026-04-11T11:24:19.747Z</time></trkpt><trkpt lat="44.5923919" lon="7.8843744"><ele>217.0</ele><time>2026-04-11T11:24:23.74Z</time></trkpt><trkpt lat="44.5923812" lon="7.8842739"><ele>217.85714285714286</ele><time>2026-04-11T11:24:27.775Z</time></trkpt><trkpt lat="44.5923663" lon="7.8841769"><ele>218.71428571428572</ele><time>2026-04-11T11:24:31.751Z</time></trkpt><trkpt lat="44.5923485" lon="7.8840734"><ele>219.57142857142856</ele><time>2026-04-11T11:24:36.742Z</time></trkpt><trkpt lat="44.5923374" lon="7.883973"><ele>220.42857142857144</ele><time>2026-04-11T11:24:40.741Z</time></trkpt><trkpt lat="44.5923159" lon="7.8838654"><ele>221.28571428571428</ele><time>2026-04-11T11:24:45.755Z</time></trkpt><trkpt lat="44.5922904" lon="7.8837697"><ele>222.14285714285714</ele><time>2026-04-11T11:24:50.754Z</time></trkpt><trkpt lat="44.5922794" lon="7.8836699"><ele>223.0</ele><time>2026-04-11T11:24:55.746Z</time></trkpt><trkpt lat="44.5922943" lon="7.8835596"><ele>223.0</ele><time>2026-04-11T11:25:00.741Z</time></trkpt><trkpt lat="44.5923057" lon="7.8834415"><ele>223.0</ele><time>2026-04-11T11:25:04.747Z</time></trkpt><trkpt lat="44.5923168" lon="7.8833487"><ele>223.0</ele><time>2026-04-11T11:25:07.73Z</time></trkpt><trkpt lat="44.5923313" lon="7.8832615"><ele>223.0</ele><time>2026-04-11T11:25:10.737Z</time></trkpt><trkpt lat="44.5923493" lon="7.8831589"><ele>223.0</ele><time>2026-04-11T11:25:14.755Z</time></trkpt><trkpt lat="44.5923724" lon="7.8830556"><ele>223.0</ele><time>2026-04-11T11:25:18.738Z</time></trkpt><trkpt lat="44.5923914" lon="7.8829561"><ele>223.0</ele><time>2026-04-11T11:25:23.75Z</time></trkpt><trkpt lat="44.5924153" lon="7.8828685"><ele>223.28571428571428</ele><time>2026-04-11T11:25:27.757Z</time></trkpt><trkpt lat="44.5924392" lon="7.8827862"><ele>223.57142857142856</ele><time>2026-04-11T11:25:31.748Z</time></trkpt><trkpt lat="44.5924607" lon="7.882694"><ele>223.8571428571429</ele><time>2026-04-11T11:25:36.748Z</time></trkpt><trkpt lat="44.5924779" lon="7.8826039"><ele>224.14285714285717</ele><time>2026-04-11T11:25:40.758Z</time></trkpt><trkpt lat="44.5925063" lon="7.882525"><ele>224.42857142857144</ele><time>2026-04-11T11:25:44.762Z</time></trkpt><trkpt lat="44.5925267" lon="7.882423"><ele>224.71428571428575</ele><time>2026-04-11T11:25:49.746Z</time></trkpt><trkpt lat="44.5925478" lon="7.882336"><ele>225.00000000000003</ele><time>2026-04-11T11:25:54.747Z</time></trkpt><trkpt lat="44.5925813" lon="7.8822461"><ele>225.28571428571433</ele><time>2026-04-11T11:25:59.753Z</time></trkpt><trkpt lat="44.5925995" lon="7.882157"><ele>225.57142857142858</ele><time>2026-04-11T11:26:04.761Z</time></trkpt><trkpt lat="44.5926323" lon="7.8820558"><ele>225.8571428571429</ele><time>2026-04-11T11:26:09.742Z</time></trkpt><trkpt lat="44.592654" lon="7.8819589"><ele>226.14285714285717</ele><time>2026-04-11T11:26:14.766Z</time></trkpt><trkpt lat="44.5926754" lon="7.8818635"><ele>226.42857142857144</ele><time>2026-04-11T11:26:19.752Z</time></trkpt><trkpt lat="44.5927027" lon="7.881766"><ele>226.71428571428572</ele><time>2026-04-11T11:26:24.759Z</time></trkpt><trkpt lat="44.5927295" lon="7.8816673"><ele>227.0</ele><time>2026-04-11T11:26:29.759Z</time></trkpt><trkpt lat="44.5927486" lon="7.8815741"><ele>227.57142857142858</ele><time>2026-04-11T11:26:34.759Z</time></trkpt><trkpt lat="44.5927795" lon="7.88148"><ele>228.14285714285717</ele><time>2026-04-11T11:26:39.767Z</time></trkpt><trkpt lat="44.5927983" lon="7.8813874"><ele>228.71428571428572</ele><time>2026-04-11T11:26:44.747Z</time></trkpt><trkpt lat="44.5928384" lon="7.8813036"><ele>229.28571428571428</ele><time>2026-04-11T11:26:49.734Z</time></trkpt><trkpt lat="44.5928962" lon="7.8812297"><ele>229.85714285714286</ele><time>2026-04-11T11:26:54.758Z</time></trkpt><trkpt lat="44.5929639" lon="7.8811792"><ele>230.42857142857144</ele><time>2026-04-11T11:26:59.74Z</time></trkpt><trkpt lat="44.5930269" lon="7.8811638"><ele>231.0</ele><time>2026-04-11T11:27:04.75Z</time></trkpt><trkpt lat="44.5930949" lon="7.8811567"><ele>231.57142857142856</ele><time>2026-04-11T11:27:10.75Z</time></trkpt><trkpt lat="44.5931607" lon="7.8811549"><ele>232.14285714285714</ele><time>2026-04-11T11:27:15.747Z</time></trkpt><trkpt lat="44.5932283" lon="7.8811423"><ele>232.71428571428572</ele><time>2026-04-11T11:27:20.755Z</time></trkpt><trkpt lat="44.5932917" lon="7.8811244"><ele>233.28571428571428</ele><time>2026-04-11T11:27:25.73Z</time></trkpt><trkpt lat="44.5933624" lon="7.8811305"><ele>233.85714285714283</ele><time>2026-04-11T11:27:31.745Z</time></trkpt><trkpt lat="44.5934356" lon="7.8811193"><ele>234.42857142857142</ele><time>2026-04-11T11:27:36.749Z</time></trkpt><trkpt lat="44.5935042" lon="7.8811161"><ele>235.0</ele><time>2026-04-11T11:27:41.734Z</time></trkpt><trkpt lat="44.5935671" lon="7.8810949"><ele>235.0</ele><time>2026-04-11T11:27:46.74Z</time></trkpt><trkpt lat="44.5936373" lon="7.8810835"><ele>234.99999999999997</ele><time>2026-04-11T11:27:51.749Z</time></trkpt><trkpt lat="44.5936938" lon="7.8810427"><ele>235.0</ele><time>2026-04-11T11:27:56.766Z</time></trkpt><trkpt lat="44.5937527" lon="7.8809762"><ele>235.0</ele><time>2026-04-11T11:28:01.744Z</time></trkpt><trkpt lat="44.5937953" lon="7.8808845"><ele>234.99999999999997</ele><time>2026-04-11T11:28:05.762Z</time></trkpt><trkpt lat="44.5938119" lon="7.8807866"><ele>235.0</ele><time>2026-04-11T11:28:09.741Z</time></trkpt><trkpt lat="44.5937882" lon="7.8806969"><ele>235.0</ele><time>2026-04-11T11:28:25.786Z</time></trkpt><trkpt lat="44.5937464" lon="7.8806141"><ele>236.42857142857142</ele><time>2026-04-11T11:28:29.741Z</time></trkpt><trkpt lat="44.5936918" lon="7.880537"><ele>237.85714285714283</ele><time>2026-04-11T11:28:33.753Z</time></trkpt><trkpt lat="44.5936521" lon="7.8804652"><ele>239.28571428571428</ele><time>2026-04-11T11:28:37.747Z</time></trkpt><trkpt lat="44.5936132" lon="7.8803739"><ele>240.71428571428572</ele><time>2026-04-11T11:28:42.737Z</time></trkpt><trkpt lat="44.5935843" lon="7.880285"><ele>242.14285714285714</ele><time>2026-04-11T11:28:47.735Z</time></trkpt><trkpt lat="44.5935482" lon="7.8802007"><ele>243.57142857142856</ele><time>2026-04-11T11:28:51.758Z</time></trkpt><trkpt lat="44.5935216" lon="7.8801145"><ele>245.0</ele><time>2026-04-11T11:28:55.747Z</time></trkpt><trkpt lat="44.5934938" lon="7.8800316"><ele>246.14285714285714</ele><time>2026-04-11T11:28:59.774Z</time></trkpt><trkpt lat="44.5934598" lon="7.8799437"><ele>247.28571428571428</ele><time>2026-04-11T11:29:04.757Z</time></trkpt><trkpt lat="44.5934347" lon="7.8798422"><ele>248.42857142857144</ele><time>2026-04-11T11:29:09.771Z</time></trkpt><trkpt lat="44.5934212" lon="7.8797383"><ele>249.57142857142858</ele><time>2026-04-11T11:29:14.747Z</time></trkpt><trkpt lat="44.5934069" lon="7.879642"><ele>250.71428571428572</ele><time>2026-04-11T11:29:18.745Z</time></trkpt><trkpt lat="44.5934049" lon="7.8795402"><ele>251.8571428571429</ele><time>2026-04-11T11:29:23.769Z</time></trkpt><trkpt lat="44.593407" lon="7.8794497"><ele>253.00000000000003</ele><time>2026-04-11T11:29:27.766Z</time></trkpt><trkpt lat="44.5934129" lon="7.8793556"><ele>253.71428571428575</ele><time>2026-04-11T11:29:31.756Z</time></trkpt><trkpt lat="44.5934255" lon="7.8792586"><ele>254.42857142857144</ele><time>2026-04-11T11:29:35.749Z</time></trkpt><trkpt lat="44.5934306" lon="7.8791639"><ele>255.14285714285714</ele><time>2026-04-11T11:29:39.756Z</time></trkpt><trkpt lat="44.5934412" lon="7.8790757"><ele>255.85714285714286</ele><time>2026-04-11T11:29:43.752Z</time></trkpt><trkpt lat="44.5934544" lon="7.8789821"><ele>256.57142857142856</ele><time>2026-04-11T11:29:48.738Z</time></trkpt><trkpt lat="44.5934588" lon="7.8788782"><ele>257.2857142857143</ele><time>2026-04-11T11:29:53.743Z</time></trkpt><trkpt lat="44.5934735" lon="7.878765"><ele>258.0</ele><time>2026-04-11T11:29:58.743Z</time></trkpt><trkpt lat="44.5935033" lon="7.8786737"><ele>257.99999999999994</ele><time>2026-04-11T11:30:02.763Z</time></trkpt><trkpt lat="44.593523" lon="7.8785857"><ele>258.0</ele><time>2026-04-11T11:30:06.756Z</time></trkpt><trkpt lat="44.5935313" lon="7.8784906"><ele>258.0</ele><time>2026-04-11T11:30:10.758Z</time></trkpt><trkpt lat="44.5935405" lon="7.8784014"><ele>258.0</ele><time>2026-04-11T11:30:14.777Z</time></trkpt><trkpt lat="44.5935637" lon="7.8782986"><ele>258.0</ele><time>2026-04-11T11:30:19.762Z</time></trkpt><trkpt lat="44.5935835" lon="7.8782052"><ele>257.99999999999994</ele><time>2026-04-11T11:30:24.753Z</time></trkpt><trkpt lat="44.5935958" lon="7.8781045"><ele>258.0</ele><time>2026-04-11T11:30:29.769Z</time></trkpt><trkpt lat="44.5936126" lon="7.8780174"><ele>258.2857142857143</ele><time>2026-04-11T11:30:33.765Z</time></trkpt><trkpt lat="44.5936283" lon="7.8779295"><ele>258.57142857142856</ele><time>2026-04-11T11:30:37.754Z</time></trkpt><trkpt lat="44.5936328" lon="7.8778341"><ele>258.8571428571429</ele><time>2026-04-11T11:30:42.779Z</time></trkpt><trkpt lat="44.5936422" lon="7.8777444"><ele>259.1428571428571</ele><time>2026-04-11T11:30:46.755Z</time></trkpt><trkpt lat="44.5936684" lon="7.8776592"><ele>259.42857142857144</ele><time>2026-04-11T11:30:50.751Z</time></trkpt><trkpt lat="44.5936946" lon="7.8775544"><ele>259.7142857142857</ele><time>2026-04-11T11:30:55.754Z</time></trkpt><trkpt lat="44.5937161" lon="7.8774653"><ele>260.0</ele><time>2026-04-11T11:30:59.763Z</time></trkpt><trkpt lat="44.593753" lon="7.8773771"><ele>263.7142857142857</ele><time>2026-04-11T11:31:03.747Z</time></trkpt><trkpt lat="44.5937706" lon="7.8772815"><ele>267.42857142857144</ele><time>2026-04-11T11:31:07.748Z</time></trkpt><trkpt lat="44.5937931" lon="7.8771896"><ele>271.1428571428571</ele><time>2026-04-11T11:31:11.744Z</time></trkpt><trkpt lat="44.5938143" lon="7.8770829"><ele>274.8571428571429</ele><time>2026-04-11T11:31:16.749Z</time></trkpt><trkpt lat="44.5938245" lon="7.8769799"><ele>278.57142857142856</ele><time>2026-04-11T11:31:21.756Z</time></trkpt><trkpt lat="44.5938262" lon="7.8768807"><ele>282.2857142857143</ele><time>2026-04-11T11:31:26.747Z</time></trkpt><trkpt lat="44.5938549" lon="7.8768006"><ele>286.0</ele><time>2026-04-11T11:31:30.751Z</time></trkpt><trkpt lat="44.5938819" lon="7.8767201"><ele>285.99999999999994</ele><time>2026-04-11T11:31:34.745Z</time></trkpt><trkpt lat="44.593945" lon="7.8766747"><ele>286.0</ele><time>2026-04-11T11:31:39.741Z</time></trkpt><trkpt lat="44.5940119" lon="7.8767291"><ele>286.0</ele><time>2026-04-11T11:31:44.752Z</time></trkpt><trkpt lat="44.5940441" lon="7.8768286"><ele>286.0</ele><time>2026-04-11T11:31:48.75Z</time></trkpt><trkpt lat="44.5940646" lon="7.876932"><ele>286.0</ele><time>2026-04-11T11:31:52.74Z</time></trkpt><trkpt lat="44.5940636" lon="7.8770339"><ele>285.99999999999994</ele><time>2026-04-11T11:31:57.742Z</time></trkpt><trkpt lat="44.5940676" lon="7.8771303"><ele>286.0</ele><time>2026-04-11T11:32:01.775Z</time></trkpt><trkpt lat="44.5940777" lon="7.8772239"><ele>285.99999999999994</ele><time>2026-04-11T11:32:05.737Z</time></trkpt><trkpt lat="44.5940782" lon="7.8773221"><ele>286.0</ele><time>2026-04-11T11:32:09.741Z</time></trkpt><trkpt lat="44.5940793" lon="7.8774126"><ele>286.0</ele><time>2026-04-11T11:32:13.744Z</time></trkpt><trkpt lat="44.5940912" lon="7.8775153"><ele>286.0</ele><time>2026-04-11T11:32:18.747Z</time></trkpt><trkpt lat="44.5940952" lon="7.877615"><ele>286.0</ele><time>2026-04-11T11:32:22.739Z</time></trkpt><trkpt lat="44.5941045" lon="7.8777153"><ele>285.99999999999994</ele><time>2026-04-11T11:32:27.747Z</time></trkpt><trkpt lat="44.5941125" lon="7.8778159"><ele>286.0</ele><time>2026-04-11T11:32:32.737Z</time></trkpt><trkpt lat="44.5941243" lon="7.8779133"><ele>285.99999999999994</ele><time>2026-04-11T11:32:37.756Z</time></trkpt><trkpt lat="44.5941316" lon="7.8780039"><ele>286.0</ele><time>2026-04-11T11:32:41.745Z</time></trkpt><trkpt lat="44.5941375" lon="7.8780967"><ele>286.0</ele><time>2026-04-11T11:32:45.759Z</time></trkpt><trkpt lat="44.5941381" lon="7.8781856"><ele>286.0</ele><time>2026-04-11T11:32:49.739Z</time></trkpt><trkpt lat="44.5941504" lon="7.8782903"><ele>286.0</ele><time>2026-04-11T11:32:54.752Z</time></trkpt><trkpt lat="44.5941598" lon="7.8783989"><ele>285.99999999999994</ele><time>2026-04-11T11:32:59.747Z</time></trkpt><trkpt lat="44.5941697" lon="7.8784905"><ele>286.0</ele><time>2026-04-11T11:33:03.754Z</time></trkpt><trkpt lat="44.5941769" lon="7.8785874"><ele>284.57142857142856</ele><time>2026-04-11T11:33:07.749Z</time></trkpt><trkpt lat="44.5942063" lon="7.8786826"><ele>283.1428571428571</ele><time>2026-04-11T11:33:12.752Z</time></trkpt><trkpt lat="44.5942451" lon="7.878767"><ele>281.7142857142857</ele><time>2026-04-11T11:33:16.744Z</time></trkpt><trkpt lat="44.5943086" lon="7.8788075"><ele>280.2857142857143</ele><time>2026-04-11T11:33:21.735Z</time></trkpt><trkpt lat="44.5943834" lon="7.8787792"><ele>278.8571428571429</ele><time>2026-04-11T11:33:26.74Z</time></trkpt><trkpt lat="44.5944146" lon="7.8787003"><ele>277.42857142857144</ele><time>2026-04-11T11:33:30.742Z</time></trkpt><trkpt lat="44.5944391" lon="7.8786091"><ele>276.0</ele><time>2026-04-11T11:33:34.756Z</time></trkpt><trkpt lat="44.5944568" lon="7.8785137"><ele>277.42857142857144</ele><time>2026-04-11T11:33:40.746Z</time></trkpt><trkpt lat="44.5944648" lon="7.8784162"><ele>278.8571428571429</ele><time>2026-04-11T11:33:46.748Z</time></trkpt><trkpt lat="44.5944678" lon="7.8783256"><ele>280.2857142857143</ele><time>2026-04-11T11:33:50.75Z</time></trkpt><trkpt lat="44.5944712" lon="7.8782282"><ele>281.7142857142857</ele><time>2026-04-11T11:33:54.759Z</time></trkpt><trkpt lat="44.5944876" lon="7.8781412"><ele>283.1428571428571</ele><time>2026-04-11T11:33:58.746Z</time></trkpt><trkpt lat="44.5945011" lon="7.8780448"><ele>284.57142857142856</ele><time>2026-04-11T11:34:04.756Z</time></trkpt><trkpt lat="44.5945098" lon="7.8779344"><ele>286.0</ele><time>2026-04-11T11:34:09.741Z</time></trkpt><trkpt lat="44.5945163" lon="7.8778391"><ele>287.71428571428567</ele><time>2026-04-11T11:34:13.749Z</time></trkpt><trkpt lat="44.5945271" lon="7.8777367"><ele>289.42857142857144</ele><time>2026-04-11T11:34:18.768Z</time></trkpt><trkpt lat="44.594538" lon="7.8776405"><ele>291.1428571428571</ele><time>2026-04-11T11:34:22.753Z</time></trkpt><trkpt lat="44.5945475" lon="7.8775503"><ele>292.85714285714283</ele><time>2026-04-11T11:34:26.741Z</time></trkpt><trkpt lat="44.5945442" lon="7.8774448"><ele>294.57142857142856</ele><time>2026-04-11T11:34:31.765Z</time></trkpt><trkpt lat="44.5945521" lon="7.8773416"><ele>296.2857142857143</ele><time>2026-04-11T11:34:36.735Z</time></trkpt><trkpt lat="44.5945546" lon="7.8772429"><ele>298.0</ele><time>2026-04-11T11:34:41.749Z</time></trkpt><trkpt lat="44.5945715" lon="7.8771445"><ele>299.57142857142856</ele><time>2026-04-11T11:34:46.758Z</time></trkpt><trkpt lat="44.5945989" lon="7.8770476"><ele>301.1428571428571</ele><time>2026-04-11T11:34:51.743Z</time></trkpt><trkpt lat="44.5946105" lon="7.8769544"><ele>302.7142857142857</ele><time>2026-04-11T11:34:55.748Z</time></trkpt><trkpt lat="44.5946278" lon="7.8768677"><ele>304.2857142857143</ele><time>2026-04-11T11:34:59.756Z</time></trkpt><trkpt lat="44.5946431" lon="7.8767665"><ele>305.8571428571429</ele><time>2026-04-11T11:35:04.743Z</time></trkpt><trkpt lat="44.5946604" lon="7.8766513"><ele>307.42857142857144</ele><time>2026-04-11T11:35:09.741Z</time></trkpt><trkpt lat="44.5946576" lon="7.8765551"><ele>309.0</ele><time>2026-04-11T11:35:14.758Z</time></trkpt><trkpt lat="44.5946402" lon="7.8764525"><ele>309.42857142857144</ele><time>2026-04-11T11:35:20.737Z</time></trkpt><trkpt lat="44.5946203" lon="7.8763676"><ele>309.8571428571429</ele><time>2026-04-11T11:35:24.756Z</time></trkpt><trkpt lat="44.5946004" lon="7.8762706"><ele>310.28571428571433</ele><time>2026-04-11T11:35:29.766Z</time></trkpt><trkpt lat="44.5945608" lon="7.8761755"><ele>310.7142857142857</ele><time>2026-04-11T11:35:34.75Z</time></trkpt><trkpt lat="44.594516" lon="7.876092"><ele>311.1428571428571</ele><time>2026-04-11T11:35:40.75Z</time></trkpt><trkpt lat="44.5944866" lon="7.8760102"><ele>311.5714285714286</ele><time>2026-04-11T11:35:44.745Z</time></trkpt><trkpt lat="44.5944487" lon="7.87592"><ele>312.0</ele><time>2026-04-11T11:35:48.76Z</time></trkpt><trkpt lat="44.594424" lon="7.8758274"><ele>310.2857142857143</ele><time>2026-04-11T11:35:52.738Z</time></trkpt><trkpt lat="44.5944023" lon="7.875741"><ele>308.57142857142856</ele><time>2026-04-11T11:35:56.754Z</time></trkpt><trkpt lat="44.594382" lon="7.8756387"><ele>306.85714285714283</ele><time>2026-04-11T11:36:02.746Z</time></trkpt><trkpt lat="44.5943793" lon="7.8755467"><ele>305.1428571428571</ele><time>2026-04-11T11:36:07.745Z</time></trkpt><trkpt lat="44.5943718" lon="7.8754428"><ele>303.42857142857144</ele><time>2026-04-11T11:36:12.743Z</time></trkpt><trkpt lat="44.5943546" lon="7.8753429"><ele>301.71428571428567</ele><time>2026-04-11T11:36:16.744Z</time></trkpt><trkpt lat="44.5943565" lon="7.8752482"><ele>300.0</ele><time>2026-04-11T11:36:21.732Z</time></trkpt><trkpt lat="44.5943573" lon="7.8751471"><ele>301.2857142857143</ele><time>2026-04-11T11:36:25.739Z</time></trkpt><trkpt lat="44.5943457" lon="7.8750439"><ele>302.57142857142856</ele><time>2026-04-11T11:36:29.752Z</time></trkpt><trkpt lat="44.5943414" lon="7.8749376"><ele>303.8571428571429</ele><time>2026-04-11T11:36:34.745Z</time></trkpt><trkpt lat="44.5943355" lon="7.8748431"><ele>305.1428571428571</ele><time>2026-04-11T11:36:38.742Z</time></trkpt><trkpt lat="44.594321" lon="7.8747388"><ele>306.42857142857144</ele><time>2026-04-11T11:36:43.746Z</time></trkpt><trkpt lat="44.5943097" lon="7.8746461"><ele>307.7142857142857</ele><time>2026-04-11T11:36:47.747Z</time></trkpt><trkpt lat="44.594302" lon="7.8745561"><ele>309.0</ele><time>2026-04-11T11:36:51.747Z</time></trkpt><trkpt lat="44.5942942" lon="7.8744634"><ele>309.00000000000006</ele><time>2026-04-11T11:36:55.749Z</time></trkpt><trkpt lat="44.5942823" lon="7.8743613"><ele>309.0</ele><time>2026-04-11T11:36:59.751Z</time></trkpt><trkpt lat="44.5942594" lon="7.8742532"><ele>309.0</ele><time>2026-04-11T11:37:04.763Z</time></trkpt><trkpt lat="44.5942486" lon="7.8741648"><ele>309.0</ele><time>2026-04-11T11:37:08.748Z</time></trkpt><trkpt lat="44.5942252" lon="7.874063"><ele>309.0</ele><time>2026-04-11T11:37:12.736Z</time></trkpt><trkpt lat="44.5942216" lon="7.8739686"><ele>309.00000000000006</ele><time>2026-04-11T11:37:16.74Z</time></trkpt><trkpt lat="44.5942204" lon="7.8738514"><ele>309.0</ele><time>2026-04-11T11:37:20.756Z</time></trkpt><trkpt lat="44.5942224" lon="7.8737588"><ele>310.00000000000006</ele><time>2026-04-11T11:37:23.733Z</time></trkpt><trkpt lat="44.594241" lon="7.8736685"><ele>311.0</ele><time>2026-04-11T11:37:26.765Z</time></trkpt><trkpt lat="44.5942601" lon="7.8735682"><ele>312.0</ele><time>2026-04-11T11:37:29.772Z</time></trkpt><trkpt lat="44.5942748" lon="7.8734654"><ele>313.0</ele><time>2026-04-11T11:37:33.737Z</time></trkpt><trkpt lat="44.5942916" lon="7.873375"><ele>314.0</ele><time>2026-04-11T11:37:36.756Z</time></trkpt><trkpt lat="44.5943039" lon="7.8732667"><ele>315.00000000000006</ele><time>2026-04-11T11:37:40.729Z</time></trkpt><trkpt lat="44.5942928" lon="7.8731522"><ele>316.0</ele><time>2026-04-11T11:37:43.74Z</time></trkpt><trkpt lat="44.5943027" lon="7.8730284"><ele>317.16666666666663</ele><time>2026-04-11T11:37:46.753Z</time></trkpt><trkpt lat="44.594305" lon="7.8729039"><ele>318.3333333333333</ele><time>2026-04-11T11:37:49.76Z</time></trkpt><trkpt lat="44.5943086" lon="7.8727961"><ele>319.5</ele><time>2026-04-11T11:37:52.755Z</time></trkpt><trkpt lat="44.594304" lon="7.8726934"><ele>320.6666666666667</ele><time>2026-04-11T11:37:55.752Z</time></trkpt><trkpt lat="44.5942995" lon="7.872585"><ele>321.83333333333337</ele><time>2026-04-11T11:38:00.77Z</time></trkpt><trkpt lat="44.5943226" lon="7.8724968"><ele>323.0</ele><time>2026-04-11T11:38:03.759Z</time></trkpt><trkpt lat="44.5943509" lon="7.8723975"><ele>323.5</ele><time>2026-04-11T11:38:06.743Z</time></trkpt><trkpt lat="44.5943688" lon="7.8722696"><ele>324.0</ele><time>2026-04-11T11:38:09.757Z</time></trkpt><trkpt lat="44.5943841" lon="7.8721709"><ele>324.5</ele><time>2026-04-11T11:38:12.753Z</time></trkpt><trkpt lat="44.5943995" lon="7.8720722"><ele>325.0</ele><time>2026-04-11T11:38:16.756Z</time></trkpt><trkpt lat="44.5944093" lon="7.8719836"><ele>325.5</ele><time>2026-04-11T11:38:20.76Z</time></trkpt><trkpt lat="44.5943933" lon="7.8718621"><ele>326.0</ele><time>2026-04-11T11:38:23.77Z</time></trkpt><trkpt lat="44.5943953" lon="7.8717732"><ele>325.8571428571429</ele><time>2026-04-11T11:38:25.762Z</time></trkpt><trkpt lat="44.5944283" lon="7.8716596"><ele>325.71428571428567</ele><time>2026-04-11T11:38:28.74Z</time></trkpt><trkpt lat="44.5944331" lon="7.8715705"><ele>325.57142857142856</ele><time>2026-04-11T11:38:31.75Z</time></trkpt><trkpt lat="44.5944185" lon="7.8714799"><ele>325.42857142857144</ele><time>2026-04-11T11:38:34.753Z</time></trkpt><trkpt lat="44.5944087" lon="7.8713895"><ele>325.28571428571433</ele><time>2026-04-11T11:38:38.749Z</time></trkpt><trkpt lat="44.5944625" lon="7.871334"><ele>325.1428571428571</ele><time>2026-04-11T11:38:42.738Z</time></trkpt><trkpt lat="44.5944975" lon="7.8712453"><ele>325.0</ele><time>2026-04-11T11:38:45.749Z</time></trkpt><trkpt lat="44.5945492" lon="7.8711652"><ele>325.0</ele><time>2026-04-11T11:38:48.745Z</time></trkpt><trkpt lat="44.5946178" lon="7.8711398"><ele>325.0</ele><time>2026-04-11T11:38:52.769Z</time></trkpt><trkpt lat="44.5946824" lon="7.8711082"><ele>325.0</ele><time>2026-04-11T11:38:56.739Z</time></trkpt><trkpt lat="44.5947323" lon="7.8710383"><ele>325.0</ele><time>2026-04-11T11:39:18.756Z</time></trkpt><trkpt lat="44.5947993" lon="7.8710263"><ele>325.0</ele><time>2026-04-11T11:39:23.744Z</time></trkpt><trkpt lat="44.5948871" lon="7.8710316"><ele>325.0</ele><time>2026-04-11T11:39:27.751Z</time></trkpt><trkpt lat="44.5949618" lon="7.8710561"><ele>325.0</ele><time>2026-04-11T11:39:30.777Z</time></trkpt><trkpt lat="44.5950265" lon="7.8710724"><ele>325.0</ele><time>2026-04-11T11:39:33.764Z</time></trkpt><trkpt lat="44.5950979" lon="7.8710705"><ele>325.0</ele><time>2026-04-11T11:39:36.765Z</time></trkpt><trkpt lat="44.5951861" lon="7.8710315"><ele>325.0</ele><time>2026-04-11T11:39:39.746Z</time></trkpt><trkpt lat="44.5952463" lon="7.8710018"><ele>325.0</ele><time>2026-04-11T11:39:41.746Z</time></trkpt><trkpt lat="44.595327" lon="7.8709542"><ele>325.0</ele><time>2026-04-11T11:39:44.745Z</time></trkpt><trkpt lat="44.5953918" lon="7.8709025"><ele>325.0</ele><time>2026-04-11T11:39:47.733Z</time></trkpt><trkpt lat="44.5954665" lon="7.8708833"><ele>325.4285714285714</ele><time>2026-04-11T11:39:51.743Z</time></trkpt><trkpt lat="44.5955228" lon="7.8708358"><ele>325.8571428571429</ele><time>2026-04-11T11:39:56.761Z</time></trkpt><trkpt lat="44.5955974" lon="7.8708104"><ele>326.2857142857143</ele><time>2026-04-11T11:40:00.792Z</time></trkpt><trkpt lat="44.5956747" lon="7.8707879"><ele>326.71428571428567</ele><time>2026-04-11T11:40:03.779Z</time></trkpt><trkpt lat="44.5957441" lon="7.8707615"><ele>327.1428571428571</ele><time>2026-04-11T11:40:06.754Z</time></trkpt><trkpt lat="44.5958027" lon="7.8707036"><ele>327.57142857142856</ele><time>2026-04-11T11:40:11.753Z</time></trkpt><trkpt lat="44.5958693" lon="7.8706761"><ele>328.0</ele><time>2026-04-11T11:40:14.834Z</time></trkpt><trkpt lat="44.5959305" lon="7.8706457"><ele>328.0</ele><time>2026-04-11T11:40:17.746Z</time></trkpt><trkpt lat="44.5960107" lon="7.8706357"><ele>328.0</ele><time>2026-04-11T11:40:20.743Z</time></trkpt><trkpt lat="44.596095" lon="7.8706536"><ele>328.0</ele><time>2026-04-11T11:40:23.756Z</time></trkpt><trkpt lat="44.5961639" lon="7.8706404"><ele>328.0</ele><time>2026-04-11T11:40:26.781Z</time></trkpt><trkpt lat="44.5962479" lon="7.8706057"><ele>328.0</ele><time>2026-04-11T11:40:29.75Z</time></trkpt><trkpt lat="44.5963133" lon="7.870594"><ele>328.0</ele><time>2026-04-11T11:40:31.774Z</time></trkpt><trkpt lat="44.5963777" lon="7.8705849"><ele>327.8333333333333</ele><time>2026-04-11T11:40:33.79Z</time></trkpt><trkpt lat="44.5964494" lon="7.870575"><ele>327.66666666666663</ele><time>2026-04-11T11:40:36.757Z</time></trkpt><trkpt lat="44.5965309" lon="7.8705768"><ele>327.5</ele><time>2026-04-11T11:40:39.78Z</time></trkpt><trkpt lat="44.596622" lon="7.8705596"><ele>327.3333333333333</ele><time>2026-04-11T11:40:41.81Z</time></trkpt><trkpt lat="44.5966914" lon="7.870538"><ele>327.1666666666667</ele><time>2026-04-11T11:40:43.85Z</time></trkpt><trkpt lat="44.5967625" lon="7.8705229"><ele>327.0</ele><time>2026-04-11T11:40:45.797Z</time></trkpt><trkpt lat="44.5968332" lon="7.8705188"><ele>327.0</ele><time>2026-04-11T11:40:47.842Z</time></trkpt><trkpt lat="44.5968963" lon="7.8705129"><ele>327.0</ele><time>2026-04-11T11:40:49.858Z</time></trkpt><trkpt lat="44.5969766" lon="7.8705084"><ele>327.0</ele><time>2026-04-11T11:40:52.823Z</time></trkpt><trkpt lat="44.5970513" lon="7.8704922"><ele>327.0</ele><time>2026-04-11T11:40:57.849Z</time></trkpt><trkpt lat="44.5971228" lon="7.8704887"><ele>327.0</ele><time>2026-04-11T11:42:11.739Z</time></trkpt><trkpt lat="44.5972071" lon="7.8704731"><ele>327.0</ele><time>2026-04-11T11:42:15.666Z</time></trkpt><trkpt lat="44.5973063" lon="7.8704845"><ele>327.0</ele><time>2026-04-11T11:42:18.804Z</time></trkpt><trkpt lat="44.5973727" lon="7.8704762"><ele>327.0</ele><time>2026-04-11T11:42:20.641Z</time></trkpt><trkpt lat="44.5974529" lon="7.8704603"><ele>327.0</ele><time>2026-04-11T11:42:22.694Z</time></trkpt><trkpt lat="44.5975267" lon="7.8704467"><ele>327.0</ele><time>2026-04-11T11:42:24.687Z</time></trkpt><trkpt lat="44.5976124" lon="7.8704462"><ele>327.0</ele><time>2026-04-11T11:42:27.658Z</time></trkpt><trkpt lat="44.5976969" lon="7.8704269"><ele>327.0</ele><time>2026-04-11T11:42:30.672Z</time></trkpt><trkpt lat="44.5978227" lon="7.8704183"><ele>327.0</ele><time>2026-04-11T11:42:34.657Z</time></trkpt><trkpt lat="44.5978968" lon="7.8703899"><ele>327.0</ele><time>2026-04-11T11:42:36.633Z</time></trkpt><trkpt lat="44.5979612" lon="7.8703831"><ele>327.0</ele><time>2026-04-11T11:42:38.639Z</time></trkpt><trkpt lat="44.5980298" lon="7.8703726"><ele>327.0</ele><time>2026-04-11T11:42:40.641Z</time></trkpt><trkpt lat="44.5981025" lon="7.8703564"><ele>327.0</ele><time>2026-04-11T11:42:42.641Z</time></trkpt><trkpt lat="44.5981735" lon="7.8703414"><ele>327.0</ele><time>2026-04-11T11:42:44.65Z</time></trkpt><trkpt lat="44.5982478" lon="7.8703239"><ele>327.0</ele><time>2026-04-11T11:42:46.65Z</time></trkpt><trkpt lat="44.5983218" lon="7.8703227"><ele>327.0</ele><time>2026-04-11T11:42:48.653Z</time></trkpt><trkpt lat="44.5984084" lon="7.8703195"><ele>327.0</ele><time>2026-04-11T11:42:50.63Z</time></trkpt><trkpt lat="44.5984891" lon="7.8703127"><ele>327.0</ele><time>2026-04-11T11:42:52.642Z</time></trkpt><trkpt lat="44.598559" lon="7.8703005"><ele>327.0</ele><time>2026-04-11T11:42:54.655Z</time></trkpt><trkpt lat="44.5986271" lon="7.8702783"><ele>327.0</ele><time>2026-04-11T11:42:56.648Z</time></trkpt><trkpt lat="44.5986907" lon="7.8702652"><ele>327.0</ele><time>2026-04-11T11:42:58.644Z</time></trkpt><trkpt lat="44.5987654" lon="7.8702593"><ele>327.0</ele><time>2026-04-11T11:43:00.642Z</time></trkpt><trkpt lat="44.5988485" lon="7.8702374"><ele>326.8333333333333</ele><time>2026-04-11T11:43:02.631Z</time></trkpt><trkpt lat="44.5989317" lon="7.8702177"><ele>326.6666666666667</ele><time>2026-04-11T11:43:04.627Z</time></trkpt><trkpt lat="44.5990175" lon="7.8701978"><ele>326.5</ele><time>2026-04-11T11:43:06.637Z</time></trkpt><trkpt lat="44.5990981" lon="7.8701826"><ele>326.33333333333337</ele><time>2026-04-11T11:43:08.638Z</time></trkpt><trkpt lat="44.5991689" lon="7.8701589"><ele>326.1666666666667</ele><time>2026-04-11T11:43:10.632Z</time></trkpt><trkpt lat="44.5992423" lon="7.8701532"><ele>326.0</ele><time>2026-04-11T11:43:12.644Z</time></trkpt><trkpt lat="44.5993136" lon="7.8701423"><ele>326.0</ele><time>2026-04-11T11:43:14.636Z</time></trkpt><trkpt lat="44.599404" lon="7.870128"><ele>326.0</ele><time>2026-04-11T11:43:16.651Z</time></trkpt><trkpt lat="44.5994843" lon="7.870123"><ele>326.0</ele><time>2026-04-11T11:43:18.641Z</time></trkpt><trkpt lat="44.5995598" lon="7.870113"><ele>326.0</ele><time>2026-04-11T11:43:20.632Z</time></trkpt><trkpt lat="44.5996421" lon="7.8701012"><ele>326.0</ele><time>2026-04-11T11:43:22.657Z</time></trkpt><trkpt lat="44.5997127" lon="7.8700844"><ele>326.0</ele><time>2026-04-11T11:43:24.64Z</time></trkpt><trkpt lat="44.5997874" lon="7.8700668"><ele>326.1666666666667</ele><time>2026-04-11T11:43:26.643Z</time></trkpt><trkpt lat="44.5998754" lon="7.8700549"><ele>326.33333333333337</ele><time>2026-04-11T11:43:28.619Z</time></trkpt><trkpt lat="44.5999702" lon="7.8700509"><ele>326.5</ele><time>2026-04-11T11:43:30.663Z</time></trkpt><trkpt lat="44.6000611" lon="7.8700412"><ele>326.6666666666667</ele><time>2026-04-11T11:43:32.689Z</time></trkpt><trkpt lat="44.600143" lon="7.8700269"><ele>326.8333333333333</ele><time>2026-04-11T11:43:34.645Z</time></trkpt><trkpt lat="44.6002147" lon="7.8700203"><ele>327.0</ele><time>2026-04-11T11:43:36.682Z</time></trkpt><trkpt lat="44.6002953" lon="7.8700057"><ele>327.0</ele><time>2026-04-11T11:43:38.631Z</time></trkpt><trkpt lat="44.6003897" lon="7.8699892"><ele>327.0</ele><time>2026-04-11T11:43:40.655Z</time></trkpt><trkpt lat="44.60048" lon="7.8699759"><ele>327.0</ele><time>2026-04-11T11:43:42.629Z</time></trkpt><trkpt lat="44.6005493" lon="7.8699617"><ele>327.0</ele><time>2026-04-11T11:43:44.654Z</time></trkpt><trkpt lat="44.6006252" lon="7.8699484"><ele>327.0</ele><time>2026-04-11T11:43:46.63Z</time></trkpt><trkpt lat="44.6007053" lon="7.8699319"><ele>327.0</ele><time>2026-04-11T11:43:48.664Z</time></trkpt><trkpt lat="44.6007846" lon="7.8699359"><ele>327.0</ele><time>2026-04-11T11:43:50.643Z</time></trkpt><trkpt lat="44.6008815" lon="7.8699297"><ele>327.0</ele><time>2026-04-11T11:43:52.656Z</time></trkpt><trkpt lat="44.6009616" lon="7.8699141"><ele>327.0</ele><time>2026-04-11T11:43:54.634Z</time></trkpt><trkpt lat="44.6010261" lon="7.8699042"><ele>327.0</ele><time>2026-04-11T11:43:56.635Z</time></trkpt><trkpt lat="44.6011" lon="7.8698975"><ele>327.0</ele><time>2026-04-11T11:43:58.642Z</time></trkpt><trkpt lat="44.6011893" lon="7.8698871"><ele>327.0</ele><time>2026-04-11T11:44:00.631Z</time></trkpt><trkpt lat="44.6012767" lon="7.8698784"><ele>327.0</ele><time>2026-04-11T11:44:02.635Z</time></trkpt><trkpt lat="44.6013651" lon="7.8698721"><ele>327.0</ele><time>2026-04-11T11:44:04.617Z</time></trkpt><trkpt lat="44.6014574" lon="7.869851"><ele>327.0</ele><time>2026-04-11T11:44:06.639Z</time></trkpt><trkpt lat="44.6015597" lon="7.8698351"><ele>327.0</ele><time>2026-04-11T11:44:08.636Z</time></trkpt><trkpt lat="44.601652" lon="7.8698235"><ele>327.0</ele><time>2026-04-11T11:44:10.646Z</time></trkpt><trkpt lat="44.6017234" lon="7.8698158"><ele>327.0</ele><time>2026-04-11T11:44:12.646Z</time></trkpt><trkpt lat="44.6017935" lon="7.8698929"><ele>327.0</ele><time>2026-04-11T11:44:15.643Z</time></trkpt><trkpt lat="44.6018215" lon="7.8699975"><ele>327.0</ele><time>2026-04-11T11:44:17.656Z</time></trkpt><trkpt lat="44.6018338" lon="7.8701094"><ele>327.0</ele><time>2026-04-11T11:44:19.66Z</time></trkpt><trkpt lat="44.6018406" lon="7.8702075"><ele>327.0</ele><time>2026-04-11T11:44:21.658Z</time></trkpt><trkpt lat="44.6018594" lon="7.8703332"><ele>327.0</ele><time>2026-04-11T11:44:24.677Z</time></trkpt><trkpt lat="44.6018672" lon="7.8704421"><ele>327.0</ele><time>2026-04-11T11:44:27.637Z</time></trkpt><trkpt lat="44.6018723" lon="7.8705403"><ele>326.42857142857144</ele><time>2026-04-11T11:44:30.627Z</time></trkpt><trkpt lat="44.6019014" lon="7.8706223"><ele>325.8571428571429</ele><time>2026-04-11T11:44:34.651Z</time></trkpt><trkpt lat="44.601922" lon="7.8707079"><ele>325.28571428571433</ele><time>2026-04-11T11:44:37.721Z</time></trkpt><trkpt lat="44.6019608" lon="7.8707851"><ele>324.7142857142857</ele><time>2026-04-11T11:45:08.675Z</time></trkpt><trkpt lat="44.6020304" lon="7.8707811"><ele>324.14285714285717</ele><time>2026-04-11T11:45:11.646Z</time></trkpt><trkpt lat="44.6020933" lon="7.8707771"><ele>323.5714285714286</ele><time>2026-04-11T11:45:13.648Z</time></trkpt><trkpt lat="44.6021602" lon="7.870771"><ele>323.0</ele><time>2026-04-11T11:45:15.681Z</time></trkpt><trkpt lat="44.6022243" lon="7.8707554"><ele>322.5</ele><time>2026-04-11T11:45:17.672Z</time></trkpt><trkpt lat="44.6022915" lon="7.8707433"><ele>322.0</ele><time>2026-04-11T11:45:19.663Z</time></trkpt><trkpt lat="44.602365" lon="7.8707282"><ele>321.5</ele><time>2026-04-11T11:45:21.706Z</time></trkpt><trkpt lat="44.6024392" lon="7.870717"><ele>321.0</ele><time>2026-04-11T11:45:23.7Z</time></trkpt><trkpt lat="44.6025153" lon="7.8707124"><ele>320.5</ele><time>2026-04-11T11:45:25.727Z</time></trkpt><trkpt lat="44.6025965" lon="7.8706971"><ele>320.0</ele><time>2026-04-11T11:45:27.713Z</time></trkpt><trkpt lat="44.6026819" lon="7.870689"><ele>320.0</ele><time>2026-04-11T11:45:29.702Z</time></trkpt><trkpt lat="44.6027725" lon="7.8706851"><ele>320.0</ele><time>2026-04-11T11:45:31.701Z</time></trkpt><trkpt lat="44.6028573" lon="7.8706801"><ele>320.0</ele><time>2026-04-11T11:45:33.712Z</time></trkpt><trkpt lat="44.603025" lon="7.8706561"><ele>320.0</ele><time>2026-04-11T11:45:37.647Z</time></trkpt><trkpt lat="44.6031065" lon="7.8706369"><ele>320.0</ele><time>2026-04-11T11:45:39.727Z</time></trkpt><trkpt lat="44.6032134" lon="7.8706034"><ele>320.33333333333337</ele><time>2026-04-11T11:45:42.689Z</time></trkpt><trkpt lat="44.6032823" lon="7.8705815"><ele>320.6666666666667</ele><time>2026-04-11T11:45:44.692Z</time></trkpt><trkpt lat="44.6033531" lon="7.8705591"><ele>321.0</ele><time>2026-04-11T11:45:46.711Z</time></trkpt><trkpt lat="44.6034215" lon="7.8705581"><ele>321.3333333333333</ele><time>2026-04-11T11:45:48.706Z</time></trkpt><trkpt lat="44.6035037" lon="7.8705563"><ele>321.66666666666663</ele><time>2026-04-11T11:45:51.643Z</time></trkpt><trkpt lat="44.6035908" lon="7.8705576"><ele>322.0</ele><time>2026-04-11T11:45:54.662Z</time></trkpt><trkpt lat="44.6036943" lon="7.8705414"><ele>322.0</ele><time>2026-04-11T11:45:57.633Z</time></trkpt><trkpt lat="44.6037757" lon="7.8705492"><ele>322.0</ele><time>2026-04-11T11:45:59.635Z</time></trkpt><trkpt lat="44.603854" lon="7.8705558"><ele>322.0</ele><time>2026-04-11T11:46:01.643Z</time></trkpt><trkpt lat="44.6039304" lon="7.87057"><ele>322.0</ele><time>2026-04-11T11:46:03.626Z</time></trkpt><trkpt lat="44.6040105" lon="7.8705785"><ele>322.0</ele><time>2026-04-11T11:46:05.623Z</time></trkpt><trkpt lat="44.604097" lon="7.8705891"><ele>322.0</ele><time>2026-04-11T11:46:07.647Z</time></trkpt><trkpt lat="44.6041865" lon="7.8705972"><ele>322.0</ele><time>2026-04-11T11:46:09.666Z</time></trkpt><trkpt lat="44.6042628" lon="7.8705958"><ele>322.0</ele><time>2026-04-11T11:46:11.659Z</time></trkpt><trkpt lat="44.6043589" lon="7.8705874"><ele>322.0</ele><time>2026-04-11T11:46:13.643Z</time></trkpt><trkpt lat="44.6044629" lon="7.8705886"><ele>322.0</ele><time>2026-04-11T11:46:15.711Z</time></trkpt><trkpt lat="44.6045715" lon="7.8705716"><ele>322.0</ele><time>2026-04-11T11:46:17.726Z</time></trkpt><trkpt lat="44.6046659" lon="7.8705611"><ele>321.6</ele><time>2026-04-11T11:46:19.717Z</time></trkpt><trkpt lat="44.6047498" lon="7.8705637"><ele>321.20000000000005</ele><time>2026-04-11T11:46:21.685Z</time></trkpt><trkpt lat="44.6048379" lon="7.8705492"><ele>320.8</ele><time>2026-04-11T11:46:24.711Z</time></trkpt><trkpt lat="44.6049204" lon="7.870566"><ele>320.4</ele><time>2026-04-11T11:46:26.689Z</time></trkpt><trkpt lat="44.6050401" lon="7.870609"><ele>320.0</ele><time>2026-04-11T11:46:28.638Z</time></trkpt><trkpt lat="44.6051088" lon="7.870641"><ele>320.0</ele><time>2026-04-11T11:46:29.641Z</time></trkpt><trkpt lat="44.6051708" lon="7.870679"><ele>320.0</ele><time>2026-04-11T11:46:30.646Z</time></trkpt><trkpt lat="44.6052303" lon="7.8707344"><ele>320.0</ele><time>2026-04-11T11:46:31.67Z</time></trkpt><trkpt lat="44.6052848" lon="7.8708073"><ele>320.0</ele><time>2026-04-11T11:46:32.708Z</time></trkpt><trkpt lat="44.6053427" lon="7.8709012"><ele>320.0</ele><time>2026-04-11T11:46:33.645Z</time></trkpt><trkpt lat="44.6054004" lon="7.8710002"><ele>320.0</ele><time>2026-04-11T11:46:34.697Z</time></trkpt><trkpt lat="44.6055057" lon="7.871192"><ele>317.0</ele><time>2026-04-11T11:46:36.682Z</time></trkpt><trkpt lat="44.6055653" lon="7.8712846"><ele>314.0</ele><time>2026-04-11T11:46:37.674Z</time></trkpt><trkpt lat="44.6056336" lon="7.8713873"><ele>311.0</ele><time>2026-04-11T11:46:38.718Z</time></trkpt><trkpt lat="44.6057119" lon="7.8714839"><ele>308.0</ele><time>2026-04-11T11:46:39.7Z</time></trkpt><trkpt lat="44.605799" lon="7.8715729"><ele>305.0</ele><time>2026-04-11T11:46:40.717Z</time></trkpt><trkpt lat="44.6058832" lon="7.8716663"><ele>305.0</ele><time>2026-04-11T11:46:41.732Z</time></trkpt><trkpt lat="44.6059669" lon="7.8717694"><ele>305.0</ele><time>2026-04-11T11:46:42.718Z</time></trkpt><trkpt lat="44.6060487" lon="7.8718801"><ele>305.0</ele><time>2026-04-11T11:46:43.723Z</time></trkpt><trkpt lat="44.6062224" lon="7.8720804"><ele>302.6</ele><time>2026-04-11T11:46:45.704Z</time></trkpt><trkpt lat="44.6063124" lon="7.8721529"><ele>300.2</ele><time>2026-04-11T11:46:46.69Z</time></trkpt><trkpt lat="44.6064056" lon="7.8722014"><ele>297.8</ele><time>2026-04-11T11:46:47.643Z</time></trkpt><trkpt lat="44.6064978" lon="7.8722124"><ele>295.4</ele><time>2026-04-11T11:46:48.649Z</time></trkpt><trkpt lat="44.6065803" lon="7.8721985"><ele>293.0</ele><time>2026-04-11T11:46:49.626Z</time></trkpt><trkpt lat="44.6066549" lon="7.8721621"><ele>293.0</ele><time>2026-04-11T11:46:50.631Z</time></trkpt><trkpt lat="44.6067275" lon="7.8721161"><ele>293.0</ele><time>2026-04-11T11:46:51.647Z</time></trkpt><trkpt lat="44.606792" lon="7.8720735"><ele>293.0</ele><time>2026-04-11T11:46:52.653Z</time></trkpt><trkpt lat="44.6069132" lon="7.8720031"><ele>293.0</ele><time>2026-04-11T11:46:54.636Z</time></trkpt><trkpt lat="44.6070287" lon="7.8719821"><ele>293.0</ele><time>2026-04-11T11:46:56.649Z</time></trkpt><trkpt lat="44.6071405" lon="7.87201"><ele>291.5</ele><time>2026-04-11T11:46:58.711Z</time></trkpt><trkpt lat="44.6072558" lon="7.8720502"><ele>290.0</ele><time>2026-04-11T11:47:00.665Z</time></trkpt><trkpt lat="44.6073712" lon="7.8720859"><ele>288.5</ele><time>2026-04-11T11:47:02.723Z</time></trkpt><trkpt lat="44.6074839" lon="7.8721237"><ele>287.0</ele><time>2026-04-11T11:47:04.715Z</time></trkpt><trkpt lat="44.6075972" lon="7.8721599"><ele>287.0</ele><time>2026-04-11T11:47:06.689Z</time></trkpt><trkpt lat="44.6077103" lon="7.8721979"><ele>287.0</ele><time>2026-04-11T11:47:08.704Z</time></trkpt><trkpt lat="44.6078188" lon="7.8722285"><ele>287.0</ele><time>2026-04-11T11:47:10.653Z</time></trkpt><trkpt lat="44.6079251" lon="7.8722652"><ele>287.0</ele><time>2026-04-11T11:47:12.716Z</time></trkpt><trkpt lat="44.6082083" lon="7.8723503"><ele>288.5</ele><time>2026-04-11T11:47:17.681Z</time></trkpt><trkpt lat="44.608384" lon="7.8723918"><ele>290.0</ele><time>2026-04-11T11:47:20.712Z</time></trkpt><trkpt lat="44.6085018" lon="7.8724167"><ele>291.5</ele><time>2026-04-11T11:47:22.711Z</time></trkpt><trkpt lat="44.6086073" lon="7.8724413"><ele>293.0</ele><time>2026-04-11T11:47:24.716Z</time></trkpt><trkpt lat="44.6087105" lon="7.8724667"><ele>294.2</ele><time>2026-04-11T11:47:26.654Z</time></trkpt><trkpt lat="44.6088095" lon="7.8724279"><ele>295.4</ele><time>2026-04-11T11:47:28.705Z</time></trkpt><trkpt lat="44.6088854" lon="7.8723376"><ele>296.59999999999997</ele><time>2026-04-11T11:47:30.7Z</time></trkpt><trkpt lat="44.608934" lon="7.8722322"><ele>297.8</ele><time>2026-04-11T11:47:32.72Z</time></trkpt><trkpt lat="44.6089842" lon="7.872126"><ele>299.0</ele><time>2026-04-11T11:47:34.699Z</time></trkpt><trkpt lat="44.6090258" lon="7.8720128"><ele>299.0</ele><time>2026-04-11T11:47:36.706Z</time></trkpt><trkpt lat="44.6090762" lon="7.8718916"><ele>299.0</ele><time>2026-04-11T11:47:38.695Z</time></trkpt><trkpt lat="44.609134" lon="7.8717816"><ele>299.0</ele><time>2026-04-11T11:47:40.699Z</time></trkpt><trkpt lat="44.6091798" lon="7.8716615"><ele>299.0</ele><time>2026-04-11T11:47:42.705Z</time></trkpt><trkpt lat="44.6092264" lon="7.8715365"><ele>299.0</ele><time>2026-04-11T11:47:44.713Z</time></trkpt><trkpt lat="44.6092949" lon="7.8714237"><ele>299.2</ele><time>2026-04-11T11:47:46.712Z</time></trkpt><trkpt lat="44.6093855" lon="7.8713364"><ele>299.4</ele><time>2026-04-11T11:47:48.7Z</time></trkpt><trkpt lat="44.6094837" lon="7.8712988"><ele>299.6</ele><time>2026-04-11T11:47:50.701Z</time></trkpt><trkpt lat="44.6095854" lon="7.8713092"><ele>299.8</ele><time>2026-04-11T11:47:52.63Z</time></trkpt><trkpt lat="44.6096872" lon="7.8713185"><ele>300.0</ele><time>2026-04-11T11:47:54.716Z</time></trkpt><trkpt lat="44.6097919" lon="7.8713271"><ele>299.6</ele><time>2026-04-11T11:47:56.701Z</time></trkpt><trkpt lat="44.6098961" lon="7.8713135"><ele>299.2</ele><time>2026-04-11T11:47:58.702Z</time></trkpt><trkpt lat="44.6100002" lon="7.871299"><ele>298.8</ele><time>2026-04-11T11:48:00.736Z</time></trkpt><trkpt lat="44.6100986" lon="7.8712907"><ele>298.4</ele><time>2026-04-11T11:48:02.703Z</time></trkpt><trkpt lat="44.6102026" lon="7.8712806"><ele>298.0</ele><time>2026-04-11T11:48:04.714Z</time></trkpt><trkpt lat="44.6103002" lon="7.871275"><ele>298.25</ele><time>2026-04-11T11:48:06.71Z</time></trkpt><trkpt lat="44.6104454" lon="7.8712513"><ele>298.5</ele><time>2026-04-11T11:48:09.72Z</time></trkpt><trkpt lat="44.6105477" lon="7.8712159"><ele>298.75</ele><time>2026-04-11T11:48:11.721Z</time></trkpt><trkpt lat="44.6106481" lon="7.871192"><ele>299.0</ele><time>2026-04-11T11:48:13.703Z</time></trkpt><trkpt lat="44.6107445" lon="7.8711662"><ele>299.0</ele><time>2026-04-11T11:48:15.663Z</time></trkpt><trkpt lat="44.6108856" lon="7.8711386"><ele>299.0</ele><time>2026-04-11T11:48:18.712Z</time></trkpt><trkpt lat="44.6109834" lon="7.8711251"><ele>299.0</ele><time>2026-04-11T11:48:20.716Z</time></trkpt><trkpt lat="44.611077" lon="7.8711107"><ele>299.0</ele><time>2026-04-11T11:48:22.705Z</time></trkpt><trkpt lat="44.6111778" lon="7.8710975"><ele>299.0</ele><time>2026-04-11T11:48:24.714Z</time></trkpt><trkpt lat="44.6112761" lon="7.8710742"><ele>298.8</ele><time>2026-04-11T11:48:26.702Z</time></trkpt><trkpt lat="44.6113791" lon="7.8710627"><ele>298.59999999999997</ele><time>2026-04-11T11:48:28.706Z</time></trkpt><trkpt lat="44.6114756" lon="7.871061"><ele>298.4</ele><time>2026-04-11T11:48:30.637Z</time></trkpt><trkpt lat="44.6115709" lon="7.8710617"><ele>298.2</ele><time>2026-04-11T11:48:32.692Z</time></trkpt><trkpt lat="44.611671" lon="7.8710612"><ele>298.0</ele><time>2026-04-11T11:48:34.706Z</time></trkpt><trkpt lat="44.6117691" lon="7.8710609"><ele>298.0</ele><time>2026-04-11T11:48:36.692Z</time></trkpt><trkpt lat="44.6118682" lon="7.8710455"><ele>298.0</ele><time>2026-04-11T11:48:38.711Z</time></trkpt><trkpt lat="44.6119643" lon="7.8710314"><ele>298.0</ele><time>2026-04-11T11:48:40.722Z</time></trkpt><trkpt lat="44.6120569" lon="7.8710224"><ele>298.0</ele><time>2026-04-11T11:48:42.709Z</time></trkpt><trkpt lat="44.6121541" lon="7.871011"><ele>298.0</ele><time>2026-04-11T11:48:44.721Z</time></trkpt><trkpt lat="44.6122491" lon="7.8709992"><ele>297.6</ele><time>2026-04-11T11:48:46.712Z</time></trkpt><trkpt lat="44.6123457" lon="7.8709851"><ele>297.20000000000005</ele><time>2026-04-11T11:48:48.713Z</time></trkpt><trkpt lat="44.6124931" lon="7.870968"><ele>296.8</ele><time>2026-04-11T11:48:51.701Z</time></trkpt><trkpt lat="44.6125931" lon="7.8709627"><ele>296.40000000000003</ele><time>2026-04-11T11:48:53.699Z</time></trkpt><trkpt lat="44.6126908" lon="7.8709648"><ele>296.0</ele><time>2026-04-11T11:48:55.72Z</time></trkpt><trkpt lat="44.6127873" lon="7.8709526"><ele>296.40000000000003</ele><time>2026-04-11T11:48:57.706Z</time></trkpt><trkpt lat="44.6129278" lon="7.8709253"><ele>296.8</ele><time>2026-04-11T11:49:00.691Z</time></trkpt><trkpt lat="44.6130198" lon="7.8709066"><ele>297.20000000000005</ele><time>2026-04-11T11:49:02.715Z</time></trkpt><trkpt lat="44.6131141" lon="7.8708894"><ele>297.6</ele><time>2026-04-11T11:49:04.684Z</time></trkpt><trkpt lat="44.6132067" lon="7.8708687"><ele>298.0</ele><time>2026-04-11T11:49:06.716Z</time></trkpt><trkpt lat="44.6133019" lon="7.8708557"><ele>298.0</ele><time>2026-04-11T11:49:08.722Z</time></trkpt><trkpt lat="44.6133929" lon="7.8708306"><ele>298.0</ele><time>2026-04-11T11:49:10.717Z</time></trkpt><trkpt lat="44.6134859" lon="7.8708113"><ele>298.0</ele><time>2026-04-11T11:49:12.705Z</time></trkpt><trkpt lat="44.6135822" lon="7.8707919"><ele>298.0</ele><time>2026-04-11T11:49:14.705Z</time></trkpt><trkpt lat="44.6137213" lon="7.8707549"><ele>298.0</ele><time>2026-04-11T11:49:17.646Z</time></trkpt><trkpt lat="44.6138174" lon="7.8707296"><ele>298.4</ele><time>2026-04-11T11:49:19.648Z</time></trkpt><trkpt lat="44.6139122" lon="7.8706995"><ele>298.8</ele><time>2026-04-11T11:49:21.692Z</time></trkpt><trkpt lat="44.6140116" lon="7.8706734"><ele>299.2</ele><time>2026-04-11T11:49:23.723Z</time></trkpt><trkpt lat="44.6141079" lon="7.8706439"><ele>299.6</ele><time>2026-04-11T11:49:25.717Z</time></trkpt><trkpt lat="44.6142017" lon="7.8706115"><ele>300.0</ele><time>2026-04-11T11:49:27.71Z</time></trkpt><trkpt lat="44.6142907" lon="7.8705768"><ele>300.0</ele><time>2026-04-11T11:49:29.696Z</time></trkpt><trkpt lat="44.6143785" lon="7.8705381"><ele>300.0</ele><time>2026-04-11T11:49:31.726Z</time></trkpt><trkpt lat="44.6144695" lon="7.8705149"><ele>300.0</ele><time>2026-04-11T11:49:33.705Z</time></trkpt><trkpt lat="44.6145766" lon="7.8704913"><ele>300.0</ele><time>2026-04-11T11:49:35.714Z</time></trkpt><trkpt lat="44.6146815" lon="7.8704691"><ele>300.0</ele><time>2026-04-11T11:49:37.716Z</time></trkpt><trkpt lat="44.614787" lon="7.8704378"><ele>300.0</ele><time>2026-04-11T11:49:39.639Z</time></trkpt><trkpt lat="44.61489" lon="7.8704118"><ele>300.0</ele><time>2026-04-11T11:49:41.637Z</time></trkpt><trkpt lat="44.6149944" lon="7.8703922"><ele>300.0</ele><time>2026-04-11T11:49:43.653Z</time></trkpt><trkpt lat="44.6150993" lon="7.8703718"><ele>300.0</ele><time>2026-04-11T11:49:45.641Z</time></trkpt><trkpt lat="44.6152033" lon="7.8703475"><ele>300.0</ele><time>2026-04-11T11:49:47.624Z</time></trkpt><trkpt lat="44.6153488" lon="7.8703139"><ele>300.0</ele><time>2026-04-11T11:49:50.636Z</time></trkpt><trkpt lat="44.6154478" lon="7.8702958"><ele>300.0</ele><time>2026-04-11T11:49:52.655Z</time></trkpt><trkpt lat="44.6155486" lon="7.8702691"><ele>300.0</ele><time>2026-04-11T11:49:54.656Z</time></trkpt><trkpt lat="44.6156506" lon="7.8702477"><ele>300.0</ele><time>2026-04-11T11:49:56.659Z</time></trkpt><trkpt lat="44.6157438" lon="7.8702308"><ele>300.0</ele><time>2026-04-11T11:49:58.657Z</time></trkpt><trkpt lat="44.6158276" lon="7.8702165"><ele>300.0</ele><time>2026-04-11T11:50:00.683Z</time></trkpt><trkpt lat="44.6159235" lon="7.8702027"><ele>300.0</ele><time>2026-04-11T11:50:02.727Z</time></trkpt><trkpt lat="44.6160194" lon="7.8701979"><ele>300.0</ele><time>2026-04-11T11:50:04.708Z</time></trkpt><trkpt lat="44.6161668" lon="7.870157"><ele>300.0</ele><time>2026-04-11T11:50:07.705Z</time></trkpt><trkpt lat="44.6162698" lon="7.8701452"><ele>300.0</ele><time>2026-04-11T11:50:09.716Z</time></trkpt><trkpt lat="44.6163722" lon="7.8701275"><ele>299.6</ele><time>2026-04-11T11:50:11.702Z</time></trkpt><trkpt lat="44.6164754" lon="7.8700991"><ele>299.2</ele><time>2026-04-11T11:50:13.726Z</time></trkpt><trkpt lat="44.6165795" lon="7.8700799"><ele>298.8</ele><time>2026-04-11T11:50:15.631Z</time></trkpt><trkpt lat="44.6166768" lon="7.8700647"><ele>298.4</ele><time>2026-04-11T11:50:17.631Z</time></trkpt><trkpt lat="44.6167716" lon="7.8700457"><ele>298.0</ele><time>2026-04-11T11:50:19.638Z</time></trkpt><trkpt lat="44.6168673" lon="7.8700228"><ele>298.0</ele><time>2026-04-11T11:50:21.65Z</time></trkpt><trkpt lat="44.6169618" lon="7.8699935"><ele>298.0</ele><time>2026-04-11T11:50:23.674Z</time></trkpt><trkpt lat="44.6170628" lon="7.8699846"><ele>298.0</ele><time>2026-04-11T11:50:25.716Z</time></trkpt><trkpt lat="44.6171632" lon="7.8699779"><ele>298.0</ele><time>2026-04-11T11:50:27.735Z</time></trkpt><trkpt lat="44.6172614" lon="7.869973"><ele>298.0</ele><time>2026-04-11T11:50:29.733Z</time></trkpt><trkpt lat="44.6173599" lon="7.8699659"><ele>297.8</ele><time>2026-04-11T11:50:31.719Z</time></trkpt><trkpt lat="44.617455" lon="7.8699515"><ele>297.6</ele><time>2026-04-11T11:50:33.662Z</time></trkpt><trkpt lat="44.6175543" lon="7.8699169"><ele>297.4</ele><time>2026-04-11T11:50:35.7Z</time></trkpt><trkpt lat="44.617643" lon="7.8698588"><ele>297.2</ele><time>2026-04-11T11:50:37.687Z</time></trkpt><trkpt lat="44.6177449" lon="7.869812"><ele>297.0</ele><time>2026-04-11T11:50:39.725Z</time></trkpt><trkpt lat="44.6179153" lon="7.8698186"><ele>296.25</ele><time>2026-04-11T11:50:42.694Z</time></trkpt><trkpt lat="44.618013" lon="7.8698716"><ele>295.5</ele><time>2026-04-11T11:50:44.712Z</time></trkpt><trkpt lat="44.6181079" lon="7.8699443"><ele>294.75</ele><time>2026-04-11T11:50:46.655Z</time></trkpt><trkpt lat="44.6182051" lon="7.8699944"><ele>294.0</ele><time>2026-04-11T11:50:48.635Z</time></trkpt><trkpt lat="44.6183577" lon="7.8700528"><ele>294.0</ele><time>2026-04-11T11:50:51.727Z</time></trkpt><trkpt lat="44.6184575" lon="7.8700794"><ele>294.0</ele><time>2026-04-11T11:50:53.713Z</time></trkpt><trkpt lat="44.6185647" lon="7.8700902"><ele>294.0</ele><time>2026-04-11T11:50:55.712Z</time></trkpt><trkpt lat="44.6186715" lon="7.8700959"><ele>294.0</ele><time>2026-04-11T11:50:57.708Z</time></trkpt><trkpt lat="44.618827" lon="7.8700773"><ele>294.0</ele><time>2026-04-11T11:51:00.833Z</time></trkpt><trkpt lat="44.6189357" lon="7.8700577"><ele>294.0</ele><time>2026-04-11T11:51:02.69Z</time></trkpt><trkpt lat="44.6190886" lon="7.8700331"><ele>294.0</ele><time>2026-04-11T11:51:05.708Z</time></trkpt><trkpt lat="44.6192947" lon="7.8700061"><ele>294.0</ele><time>2026-04-11T11:51:09.698Z</time></trkpt><trkpt lat="44.619399" lon="7.8699923"><ele>294.0</ele><time>2026-04-11T11:51:11.896Z</time></trkpt><trkpt lat="44.6195053" lon="7.8699806"><ele>294.0</ele><time>2026-04-11T11:51:13.908Z</time></trkpt><trkpt lat="44.6196043" lon="7.869969"><ele>294.0</ele><time>2026-04-11T11:51:15.665Z</time></trkpt><trkpt lat="44.619741" lon="7.8698972"><ele>294.0</ele><time>2026-04-11T11:51:18.699Z</time></trkpt><trkpt lat="44.619817" lon="7.8698063"><ele>294.0</ele><time>2026-04-11T11:51:20.718Z</time></trkpt><trkpt lat="44.6198907" lon="7.8697051"><ele>294.0</ele><time>2026-04-11T11:51:22.884Z</time></trkpt><trkpt lat="44.6199652" lon="7.869606"><ele>294.0</ele><time>2026-04-11T11:51:24.707Z</time></trkpt><trkpt lat="44.6200444" lon="7.8695108"><ele>294.0</ele><time>2026-04-11T11:51:26.693Z</time></trkpt><trkpt lat="44.6201324" lon="7.8694293"><ele>294.0</ele><time>2026-04-11T11:51:28.904Z</time></trkpt><trkpt lat="44.6202248" lon="7.8693506"><ele>294.0</ele><time>2026-04-11T11:51:30.684Z</time></trkpt><trkpt lat="44.6203152" lon="7.8692719"><ele>294.0</ele><time>2026-04-11T11:51:32.934Z</time></trkpt><trkpt lat="44.620409" lon="7.8691983"><ele>294.0</ele><time>2026-04-11T11:51:34.739Z</time></trkpt><trkpt lat="44.620506" lon="7.869131"><ele>294.0</ele><time>2026-04-11T11:51:36.913Z</time></trkpt><trkpt lat="44.6205999" lon="7.8690524"><ele>293.75</ele><time>2026-04-11T11:51:38.897Z</time></trkpt><trkpt lat="44.620694" lon="7.8689875"><ele>293.5</ele><time>2026-04-11T11:51:40.693Z</time></trkpt><trkpt lat="44.6208325" lon="7.8688946"><ele>293.25</ele><time>2026-04-11T11:51:43.879Z</time></trkpt><trkpt lat="44.620924" lon="7.8688431"><ele>293.0</ele><time>2026-04-11T11:51:45.703Z</time></trkpt><trkpt lat="44.6210169" lon="7.8687849"><ele>293.25</ele><time>2026-04-11T11:51:47.714Z</time></trkpt><trkpt lat="44.6211599" lon="7.8686935"><ele>293.5</ele><time>2026-04-11T11:51:50.641Z</time></trkpt><trkpt lat="44.6212551" lon="7.8686384"><ele>293.75</ele><time>2026-04-11T11:51:52.616Z</time></trkpt><trkpt lat="44.6213932" lon="7.868552"><ele>294.0</ele><time>2026-04-11T11:51:55.653Z</time></trkpt><trkpt lat="44.6214816" lon="7.8684943"><ele>293.8</ele><time>2026-04-11T11:51:57.641Z</time></trkpt><trkpt lat="44.6215752" lon="7.8684371"><ele>293.59999999999997</ele><time>2026-04-11T11:51:59.628Z</time></trkpt><trkpt lat="44.6216661" lon="7.868376"><ele>293.4</ele><time>2026-04-11T11:52:01.641Z</time></trkpt><trkpt lat="44.6217512" lon="7.8683062"><ele>293.2</ele><time>2026-04-11T11:52:03.649Z</time></trkpt><trkpt lat="44.6218424" lon="7.8682425"><ele>293.0</ele><time>2026-04-11T11:52:05.642Z</time></trkpt><trkpt lat="44.6219296" lon="7.8681674"><ele>293.0</ele><time>2026-04-11T11:52:07.64Z</time></trkpt><trkpt lat="44.6220136" lon="7.8681058"><ele>293.0</ele><time>2026-04-11T11:52:09.636Z</time></trkpt><trkpt lat="44.6220994" lon="7.868044"><ele>293.0</ele><time>2026-04-11T11:52:11.707Z</time></trkpt><trkpt lat="44.6222198" lon="7.8679405"><ele>293.0</ele><time>2026-04-11T11:52:14.722Z</time></trkpt><trkpt lat="44.6223057" lon="7.8678727"><ele>293.0</ele><time>2026-04-11T11:52:16.704Z</time></trkpt><trkpt lat="44.6224803" lon="7.8677297"><ele>293.0</ele><time>2026-04-11T11:52:20.706Z</time></trkpt><trkpt lat="44.6226133" lon="7.8676219"><ele>293.0</ele><time>2026-04-11T11:52:23.714Z</time></trkpt><trkpt lat="44.6226996" lon="7.8675596"><ele>293.0</ele><time>2026-04-11T11:52:25.713Z</time></trkpt><trkpt lat="44.6228717" lon="7.8674205"><ele>293.0</ele><time>2026-04-11T11:52:29.657Z</time></trkpt><trkpt lat="44.6229502" lon="7.8673527"><ele>293.0</ele><time>2026-04-11T11:52:31.685Z</time></trkpt><trkpt lat="44.6230334" lon="7.8672862"><ele>293.0</ele><time>2026-04-11T11:52:33.737Z</time></trkpt><trkpt lat="44.6231213" lon="7.8672195"><ele>293.0</ele><time>2026-04-11T11:52:35.89Z</time></trkpt><trkpt lat="44.623209" lon="7.8671475"><ele>293.0</ele><time>2026-04-11T11:52:37.705Z</time></trkpt><trkpt lat="44.6232966" lon="7.8670825"><ele>293.0</ele><time>2026-04-11T11:52:39.685Z</time></trkpt><trkpt lat="44.6233813" lon="7.8670179"><ele>293.0</ele><time>2026-04-11T11:52:41.689Z</time></trkpt><trkpt lat="44.6234674" lon="7.8669537"><ele>293.0</ele><time>2026-04-11T11:52:43.917Z</time></trkpt><trkpt lat="44.6235562" lon="7.8668848"><ele>293.0</ele><time>2026-04-11T11:52:45.707Z</time></trkpt><trkpt lat="44.6236406" lon="7.8668206"><ele>293.0</ele><time>2026-04-11T11:52:47.698Z</time></trkpt><trkpt lat="44.6237323" lon="7.866761"><ele>293.0</ele><time>2026-04-11T11:52:49.713Z</time></trkpt><trkpt lat="44.6238576" lon="7.8666623"><ele>292.75</ele><time>2026-04-11T11:52:52.711Z</time></trkpt><trkpt lat="44.6239834" lon="7.8665506"><ele>292.5</ele><time>2026-04-11T11:52:55.718Z</time></trkpt><trkpt lat="44.6240861" lon="7.8664145"><ele>292.25</ele><time>2026-04-11T11:52:58.876Z</time></trkpt><trkpt lat="44.6241338" lon="7.8663171"><ele>292.0</ele><time>2026-04-11T11:53:00.701Z</time></trkpt><trkpt lat="44.6241364" lon="7.8662037"><ele>292.0</ele><time>2026-04-11T11:53:02.928Z</time></trkpt><trkpt lat="44.6240933" lon="7.866098"><ele>292.0</ele><time>2026-04-11T11:53:04.697Z</time></trkpt><trkpt lat="44.624058" lon="7.8659756"><ele>292.0</ele><time>2026-04-11T11:53:06.902Z</time></trkpt><trkpt lat="44.6240112" lon="7.865802"><ele>292.0</ele><time>2026-04-11T11:53:09.719Z</time></trkpt><trkpt lat="44.6239832" lon="7.8656882"><ele>292.0</ele><time>2026-04-11T11:53:11.906Z</time></trkpt><trkpt lat="44.6239509" lon="7.8655779"><ele>292.1428571428571</ele><time>2026-04-11T11:53:13.922Z</time></trkpt><trkpt lat="44.6239313" lon="7.8654623"><ele>292.2857142857143</ele><time>2026-04-11T11:53:15.934Z</time></trkpt><trkpt lat="44.6239199" lon="7.8653634"><ele>292.42857142857144</ele><time>2026-04-11T11:53:17.636Z</time></trkpt><trkpt lat="44.623909" lon="7.8652644"><ele>292.57142857142856</ele><time>2026-04-11T11:53:19.627Z</time></trkpt><trkpt lat="44.6239058" lon="7.8651678"><ele>292.7142857142857</ele><time>2026-04-11T11:53:21.611Z</time></trkpt><trkpt lat="44.6239141" lon="7.8650799"><ele>292.85714285714283</ele><time>2026-04-11T11:53:23.67Z</time></trkpt><trkpt lat="44.6239545" lon="7.8650093"><ele>293.0</ele><time>2026-04-11T11:53:25.642Z</time></trkpt><trkpt lat="44.624012" lon="7.8649563"><ele>293.1666666666667</ele><time>2026-04-11T11:53:27.685Z</time></trkpt><trkpt lat="44.6240824" lon="7.8648959"><ele>293.33333333333337</ele><time>2026-04-11T11:53:29.687Z</time></trkpt><trkpt lat="44.6241541" lon="7.8648394"><ele>293.5</ele><time>2026-04-11T11:53:31.669Z</time></trkpt><trkpt lat="44.6242284" lon="7.8647717"><ele>293.6666666666667</ele><time>2026-04-11T11:53:33.693Z</time></trkpt><trkpt lat="44.6243037" lon="7.8647066"><ele>293.8333333333333</ele><time>2026-04-11T11:53:35.69Z</time></trkpt><trkpt lat="44.6243768" lon="7.8646299"><ele>294.0</ele><time>2026-04-11T11:53:37.703Z</time></trkpt><trkpt lat="44.6244458" lon="7.8645548"><ele>293.59999999999997</ele><time>2026-04-11T11:53:39.718Z</time></trkpt><trkpt lat="44.6245544" lon="7.8644455"><ele>293.2</ele><time>2026-04-11T11:53:42.701Z</time></trkpt><trkpt lat="44.6246258" lon="7.8643786"><ele>292.79999999999995</ele><time>2026-04-11T11:53:44.68Z</time></trkpt><trkpt lat="44.6246934" lon="7.864292"><ele>292.4</ele><time>2026-04-11T11:53:46.967Z</time></trkpt><trkpt lat="44.6247687" lon="7.8642143"><ele>292.0</ele><time>2026-04-11T11:53:48.965Z</time></trkpt><trkpt lat="44.6248472" lon="7.8641494"><ele>292.0</ele><time>2026-04-11T11:53:50.674Z</time></trkpt><trkpt lat="44.6249183" lon="7.8640799"><ele>292.0</ele><time>2026-04-11T11:53:52.922Z</time></trkpt><trkpt lat="44.6250186" lon="7.8639766"><ele>292.0</ele><time>2026-04-11T11:53:55.713Z</time></trkpt><trkpt lat="44.6250861" lon="7.8639197"><ele>292.0</ele><time>2026-04-11T11:53:57.896Z</time></trkpt><trkpt lat="44.6251811" lon="7.8638714"><ele>292.0</ele><time>2026-04-11T11:54:00.69Z</time></trkpt><trkpt lat="44.6252498" lon="7.8638058"><ele>292.0</ele><time>2026-04-11T11:54:03.689Z</time></trkpt><trkpt lat="44.6253102" lon="7.8637683"><ele>292.0</ele><time>2026-04-11T11:54:06.661Z</time></trkpt><trkpt lat="44.6253699" lon="7.8637233"><ele>292.0</ele><time>2026-04-11T11:54:09.695Z</time></trkpt><trkpt lat="44.6254231" lon="7.8636599"><ele>292.0</ele><time>2026-04-11T11:54:12.724Z</time></trkpt><trkpt lat="44.6254716" lon="7.863585"><ele>292.0</ele><time>2026-04-11T11:54:16.709Z</time></trkpt><trkpt lat="44.6255317" lon="7.8635245"><ele>292.0</ele><time>2026-04-11T11:54:21.697Z</time></trkpt><trkpt lat="44.625598" lon="7.8634722"><ele>292.0</ele><time>2026-04-11T11:54:25.689Z</time></trkpt><trkpt lat="44.6256632" lon="7.8634285"><ele>292.0</ele><time>2026-04-11T11:54:28.687Z</time></trkpt><trkpt lat="44.6257362" lon="7.8634468"><ele>292.0</ele><time>2026-04-11T11:54:31.644Z</time></trkpt><trkpt lat="44.6257968" lon="7.8634728"><ele>292.0</ele><time>2026-04-11T11:54:33.644Z</time></trkpt><trkpt lat="44.625871" lon="7.8635132"><ele>292.0</ele><time>2026-04-11T11:54:35.715Z</time></trkpt><trkpt lat="44.6259613" lon="7.8635524"><ele>292.0</ele><time>2026-04-11T11:54:37.696Z</time></trkpt><trkpt lat="44.626064" lon="7.8635998"><ele>292.0</ele><time>2026-04-11T11:54:39.678Z</time></trkpt><trkpt lat="44.6261737" lon="7.8636586"><ele>291.2</ele><time>2026-04-11T11:54:41.907Z</time></trkpt><trkpt lat="44.6262928" lon="7.8637047"><ele>290.4</ele><time>2026-04-11T11:54:43.889Z</time></trkpt><trkpt lat="44.6264131" lon="7.8637476"><ele>289.6</ele><time>2026-04-11T11:54:45.71Z</time></trkpt><trkpt lat="44.6264767" lon="7.8637497"><ele>288.8</ele><time>2026-04-11T11:54:46.906Z</time></trkpt><trkpt lat="44.6265914" lon="7.8637348"><ele>288.0</ele><time>2026-04-11T11:54:48.912Z</time></trkpt><trkpt lat="44.6267" lon="7.8636876"><ele>288.0</ele><time>2026-04-11T11:54:50.693Z</time></trkpt><trkpt lat="44.6268079" lon="7.8636341"><ele>288.0</ele><time>2026-04-11T11:54:52.711Z</time></trkpt><trkpt lat="44.6269091" lon="7.8635824"><ele>288.0</ele><time>2026-04-11T11:54:54.716Z</time></trkpt><trkpt lat="44.6270089" lon="7.8635219"><ele>288.0</ele><time>2026-04-11T11:54:56.771Z</time></trkpt><trkpt lat="44.6271106" lon="7.8634536"><ele>288.0</ele><time>2026-04-11T11:54:58.649Z</time></trkpt><trkpt lat="44.6272057" lon="7.8633878"><ele>288.8</ele><time>2026-04-11T11:55:00.687Z</time></trkpt><trkpt lat="44.6273063" lon="7.8633195"><ele>289.6</ele><time>2026-04-11T11:55:02.627Z</time></trkpt><trkpt lat="44.6273981" lon="7.8632522"><ele>290.4</ele><time>2026-04-11T11:55:04.654Z</time></trkpt><trkpt lat="44.6274951" lon="7.8631941"><ele>291.2</ele><time>2026-04-11T11:55:06.637Z</time></trkpt><trkpt lat="44.6275886" lon="7.8631334"><ele>292.0</ele><time>2026-04-11T11:55:08.645Z</time></trkpt><trkpt lat="44.6276853" lon="7.863069"><ele>292.0</ele><time>2026-04-11T11:55:10.641Z</time></trkpt><trkpt lat="44.6277785" lon="7.8630016"><ele>292.0</ele><time>2026-04-11T11:55:12.633Z</time></trkpt><trkpt lat="44.6279208" lon="7.8628811"><ele>292.0</ele><time>2026-04-11T11:55:15.699Z</time></trkpt><trkpt lat="44.6280157" lon="7.8628029"><ele>292.0</ele><time>2026-04-11T11:55:17.904Z</time></trkpt><trkpt lat="44.6281514" lon="7.8627024"><ele>292.2</ele><time>2026-04-11T11:55:20.716Z</time></trkpt><trkpt lat="44.6282458" lon="7.8626419"><ele>292.4</ele><time>2026-04-11T11:55:22.794Z</time></trkpt><trkpt lat="44.6283409" lon="7.8625872"><ele>292.6</ele><time>2026-04-11T11:55:24.661Z</time></trkpt><trkpt lat="44.6284385" lon="7.8625332"><ele>292.8</ele><time>2026-04-11T11:55:26.754Z</time></trkpt><trkpt lat="44.6285288" lon="7.8624652"><ele>293.0</ele><time>2026-04-11T11:55:28.921Z</time></trkpt><trkpt lat="44.628617" lon="7.8623917"><ele>292.2</ele><time>2026-04-11T11:55:30.709Z</time></trkpt><trkpt lat="44.6287036" lon="7.8623127"><ele>291.4</ele><time>2026-04-11T11:55:32.685Z</time></trkpt><trkpt lat="44.6287943" lon="7.8622323"><ele>290.59999999999997</ele><time>2026-04-11T11:55:34.693Z</time></trkpt><trkpt lat="44.6288878" lon="7.8621504"><ele>289.8</ele><time>2026-04-11T11:55:36.908Z</time></trkpt><trkpt lat="44.6289844" lon="7.8620749"><ele>289.0</ele><time>2026-04-11T11:55:38.915Z</time></trkpt><trkpt lat="44.6290844" lon="7.8620378"><ele>289.0</ele><time>2026-04-11T11:55:40.711Z</time></trkpt><trkpt lat="44.6291827" lon="7.862016"><ele>289.0</ele><time>2026-04-11T11:55:42.637Z</time></trkpt><trkpt lat="44.629285" lon="7.8620005"><ele>289.0</ele><time>2026-04-11T11:55:44.649Z</time></trkpt><trkpt lat="44.6293908" lon="7.8619855"><ele>289.0</ele><time>2026-04-11T11:55:46.904Z</time></trkpt><trkpt lat="44.6294983" lon="7.8619808"><ele>289.0</ele><time>2026-04-11T11:55:48.823Z</time></trkpt><trkpt lat="44.6296037" lon="7.8619874"><ele>288.75</ele><time>2026-04-11T11:55:50.648Z</time></trkpt><trkpt lat="44.6297027" lon="7.8620019"><ele>288.5</ele><time>2026-04-11T11:55:53.017Z</time></trkpt><trkpt lat="44.6297976" lon="7.8620342"><ele>288.25</ele><time>2026-04-11T11:55:54.684Z</time></trkpt><trkpt lat="44.6298961" lon="7.8620621"><ele>288.0</ele><time>2026-04-11T11:55:56.672Z</time></trkpt><trkpt lat="44.6300979" lon="7.8621177"><ele>288.0</ele><time>2026-04-11T11:56:00.704Z</time></trkpt><trkpt lat="44.6302307" lon="7.8621238"><ele>288.0</ele><time>2026-04-11T11:56:03.926Z</time></trkpt><trkpt lat="44.6303234" lon="7.8621179"><ele>288.0</ele><time>2026-04-11T11:56:05.734Z</time></trkpt><trkpt lat="44.6304131" lon="7.8621041"><ele>288.0</ele><time>2026-04-11T11:56:07.97Z</time></trkpt><trkpt lat="44.6305533" lon="7.862097"><ele>287.6</ele><time>2026-04-11T11:56:10.717Z</time></trkpt><trkpt lat="44.6306538" lon="7.8620752"><ele>287.20000000000005</ele><time>2026-04-11T11:56:12.702Z</time></trkpt><trkpt lat="44.6307484" lon="7.8620476"><ele>286.8</ele><time>2026-04-11T11:56:14.67Z</time></trkpt><trkpt lat="44.6308417" lon="7.8620157"><ele>286.40000000000003</ele><time>2026-04-11T11:56:16.663Z</time></trkpt><trkpt lat="44.6309369" lon="7.8619893"><ele>286.0</ele><time>2026-04-11T11:56:18.879Z</time></trkpt><trkpt lat="44.631023" lon="7.8619601"><ele>286.0</ele><time>2026-04-11T11:56:20.711Z</time></trkpt><trkpt lat="44.6311168" lon="7.8619333"><ele>286.0</ele><time>2026-04-11T11:56:22.717Z</time></trkpt><trkpt lat="44.6312163" lon="7.8619028"><ele>286.0</ele><time>2026-04-11T11:56:24.723Z</time></trkpt><trkpt lat="44.6313036" lon="7.8618792"><ele>286.0</ele><time>2026-04-11T11:56:26.724Z</time></trkpt><trkpt lat="44.6313984" lon="7.861852"><ele>286.0</ele><time>2026-04-11T11:56:28.719Z</time></trkpt><trkpt lat="44.6315002" lon="7.8618336"><ele>285.8</ele><time>2026-04-11T11:56:30.719Z</time></trkpt><trkpt lat="44.6315988" lon="7.8618197"><ele>285.6</ele><time>2026-04-11T11:56:32.698Z</time></trkpt><trkpt lat="44.6316969" lon="7.8618043"><ele>285.4</ele><time>2026-04-11T11:56:34.707Z</time></trkpt><trkpt lat="44.631789" lon="7.8617922"><ele>285.2</ele><time>2026-04-11T11:56:36.696Z</time></trkpt><trkpt lat="44.6318829" lon="7.8617887"><ele>285.0</ele><time>2026-04-11T11:56:38.68Z</time></trkpt><trkpt lat="44.6319775" lon="7.8617871"><ele>284.4</ele><time>2026-04-11T11:56:40.715Z</time></trkpt><trkpt lat="44.6320689" lon="7.8617965"><ele>283.8</ele><time>2026-04-11T11:56:42.899Z</time></trkpt><trkpt lat="44.6322086" lon="7.8617915"><ele>283.2</ele><time>2026-04-11T11:56:45.74Z</time></trkpt><trkpt lat="44.6323015" lon="7.8617923"><ele>282.6</ele><time>2026-04-11T11:56:47.917Z</time></trkpt><trkpt lat="44.6323994" lon="7.8617871"><ele>282.0</ele><time>2026-04-11T11:56:49.725Z</time></trkpt><trkpt lat="44.6324971" lon="7.8617981"><ele>282.0</ele><time>2026-04-11T11:56:51.733Z</time></trkpt><trkpt lat="44.6325966" lon="7.8618036"><ele>282.0</ele><time>2026-04-11T11:56:53.657Z</time></trkpt><trkpt lat="44.6326928" lon="7.8618036"><ele>282.0</ele><time>2026-04-11T11:56:55.721Z</time></trkpt><trkpt lat="44.6327843" lon="7.8618093"><ele>282.0</ele><time>2026-04-11T11:56:57.703Z</time></trkpt><trkpt lat="44.6328748" lon="7.8618061"><ele>282.0</ele><time>2026-04-11T11:56:59.697Z</time></trkpt><trkpt lat="44.6329694" lon="7.861802"><ele>281.6</ele><time>2026-04-11T11:57:01.701Z</time></trkpt><trkpt lat="44.6330644" lon="7.8617829"><ele>281.2</ele><time>2026-04-11T11:57:03.719Z</time></trkpt><trkpt lat="44.6331597" lon="7.8617545"><ele>280.8</ele><time>2026-04-11T11:57:05.691Z</time></trkpt><trkpt lat="44.6332546" lon="7.8617142"><ele>280.4</ele><time>2026-04-11T11:57:07.704Z</time></trkpt><trkpt lat="44.6333455" lon="7.8616716"><ele>280.0</ele><time>2026-04-11T11:57:09.695Z</time></trkpt><trkpt lat="44.6334453" lon="7.8616226"><ele>281.0</ele><time>2026-04-11T11:57:11.713Z</time></trkpt><trkpt lat="44.6335389" lon="7.8615724"><ele>282.0</ele><time>2026-04-11T11:57:13.702Z</time></trkpt><trkpt lat="44.6336353" lon="7.8615253"><ele>283.0</ele><time>2026-04-11T11:57:15.719Z</time></trkpt><trkpt lat="44.6337311" lon="7.8614855"><ele>284.0</ele><time>2026-04-11T11:57:17.706Z</time></trkpt><trkpt lat="44.6338199" lon="7.8614423"><ele>285.0</ele><time>2026-04-11T11:57:19.668Z</time></trkpt><trkpt lat="44.6339191" lon="7.8614067"><ele>285.0</ele><time>2026-04-11T11:57:21.71Z</time></trkpt><trkpt lat="44.6340091" lon="7.8613582"><ele>285.0</ele><time>2026-04-11T11:57:23.709Z</time></trkpt><trkpt lat="44.6340995" lon="7.8613161"><ele>285.0</ele><time>2026-04-11T11:57:25.704Z</time></trkpt><trkpt lat="44.6341914" lon="7.8612791"><ele>285.0</ele><time>2026-04-11T11:57:27.723Z</time></trkpt><trkpt lat="44.634277" lon="7.8612346"><ele>285.0</ele><time>2026-04-11T11:57:29.696Z</time></trkpt><trkpt lat="44.6343629" lon="7.8612007"><ele>285.6</ele><time>2026-04-11T11:57:31.94Z</time></trkpt><trkpt lat="44.6344902" lon="7.8611359"><ele>286.2</ele><time>2026-04-11T11:57:34.698Z</time></trkpt><trkpt lat="44.6345735" lon="7.8610803"><ele>286.8</ele><time>2026-04-11T11:57:36.718Z</time></trkpt><trkpt lat="44.6346576" lon="7.8610253"><ele>287.4</ele><time>2026-04-11T11:57:38.706Z</time></trkpt><trkpt lat="44.6347367" lon="7.8609505"><ele>288.0</ele><time>2026-04-11T11:57:40.712Z</time></trkpt><trkpt lat="44.6348071" lon="7.8608658"><ele>288.0</ele><time>2026-04-11T11:57:42.669Z</time></trkpt><trkpt lat="44.6349154" lon="7.8607435"><ele>288.0</ele><time>2026-04-11T11:57:45.702Z</time></trkpt><trkpt lat="44.6349905" lon="7.8606521"><ele>288.0</ele><time>2026-04-11T11:57:47.694Z</time></trkpt><trkpt lat="44.6350566" lon="7.8605575"><ele>288.0</ele><time>2026-04-11T11:57:49.702Z</time></trkpt><trkpt lat="44.635125" lon="7.8604749"><ele>288.0</ele><time>2026-04-11T11:57:51.709Z</time></trkpt><trkpt lat="44.6351889" lon="7.8603923"><ele>288.0</ele><time>2026-04-11T11:57:53.713Z</time></trkpt><trkpt lat="44.6352607" lon="7.8603073"><ele>288.0</ele><time>2026-04-11T11:57:55.628Z</time></trkpt><trkpt lat="44.6353245" lon="7.8602232"><ele>288.0</ele><time>2026-04-11T11:57:57.703Z</time></trkpt><trkpt lat="44.6353812" lon="7.8601213"><ele>288.0</ele><time>2026-04-11T11:57:59.721Z</time></trkpt><trkpt lat="44.6354396" lon="7.8600135"><ele>288.0</ele><time>2026-04-11T11:58:01.71Z</time></trkpt><trkpt lat="44.6354985" lon="7.8599108"><ele>287.8</ele><time>2026-04-11T11:58:03.699Z</time></trkpt><trkpt lat="44.6355548" lon="7.8598068"><ele>287.6</ele><time>2026-04-11T11:58:05.706Z</time></trkpt><trkpt lat="44.6356162" lon="7.8597132"><ele>287.4</ele><time>2026-04-11T11:58:07.691Z</time></trkpt><trkpt lat="44.6356919" lon="7.8596351"><ele>287.2</ele><time>2026-04-11T11:58:09.706Z</time></trkpt><trkpt lat="44.6357779" lon="7.8595866"><ele>287.0</ele><time>2026-04-11T11:58:11.692Z</time></trkpt><trkpt lat="44.6358707" lon="7.8595761"><ele>287.0</ele><time>2026-04-11T11:58:13.669Z</time></trkpt><trkpt lat="44.6359644" lon="7.8595808"><ele>287.0</ele><time>2026-04-11T11:58:15.713Z</time></trkpt><trkpt lat="44.6360564" lon="7.8595948"><ele>287.0</ele><time>2026-04-11T11:58:17.709Z</time></trkpt><trkpt lat="44.6361485" lon="7.8596127"><ele>287.0</ele><time>2026-04-11T11:58:19.703Z</time></trkpt><trkpt lat="44.6362385" lon="7.8596513"><ele>287.0</ele><time>2026-04-11T11:58:21.898Z</time></trkpt><trkpt lat="44.6363273" lon="7.8596992"><ele>286.8</ele><time>2026-04-11T11:58:23.709Z</time></trkpt><trkpt lat="44.636417" lon="7.8597368"><ele>286.6</ele><time>2026-04-11T11:58:25.725Z</time></trkpt><trkpt lat="44.6365082" lon="7.8597737"><ele>286.40000000000003</ele><time>2026-04-11T11:58:27.663Z</time></trkpt><trkpt lat="44.63666" lon="7.8598173"><ele>286.2</ele><time>2026-04-11T11:58:30.712Z</time></trkpt><trkpt lat="44.6367558" lon="7.8598409"><ele>286.0</ele><time>2026-04-11T11:58:32.718Z</time></trkpt><trkpt lat="44.6368475" lon="7.859868"><ele>286.0</ele><time>2026-04-11T11:58:34.713Z</time></trkpt><trkpt lat="44.6369337" lon="7.8598926"><ele>286.0</ele><time>2026-04-11T11:58:36.88Z</time></trkpt><trkpt lat="44.6370195" lon="7.8599111"><ele>286.0</ele><time>2026-04-11T11:58:38.694Z</time></trkpt><trkpt lat="44.6371044" lon="7.8599258"><ele>286.0</ele><time>2026-04-11T11:58:40.721Z</time></trkpt><trkpt lat="44.6371836" lon="7.8599352"><ele>286.0</ele><time>2026-04-11T11:58:42.709Z</time></trkpt><trkpt lat="44.6372659" lon="7.8599519"><ele>286.0</ele><time>2026-04-11T11:58:44.709Z</time></trkpt><trkpt lat="44.637355" lon="7.8599614"><ele>286.2</ele><time>2026-04-11T11:58:46.711Z</time></trkpt><trkpt lat="44.6374466" lon="7.8599627"><ele>286.40000000000003</ele><time>2026-04-11T11:58:48.717Z</time></trkpt><trkpt lat="44.6375433" lon="7.8599756"><ele>286.6</ele><time>2026-04-11T11:58:50.74Z</time></trkpt><trkpt lat="44.6376394" lon="7.8599867"><ele>286.8</ele><time>2026-04-11T11:58:52.714Z</time></trkpt><trkpt lat="44.6377377" lon="7.8599914"><ele>287.0</ele><time>2026-04-11T11:58:54.716Z</time></trkpt><trkpt lat="44.6378397" lon="7.8599974"><ele>287.0</ele><time>2026-04-11T11:58:56.723Z</time></trkpt><trkpt lat="44.6379327" lon="7.8600065"><ele>287.0</ele><time>2026-04-11T11:58:58.713Z</time></trkpt><trkpt lat="44.6380221" lon="7.8600062"><ele>287.0</ele><time>2026-04-11T11:59:00.707Z</time></trkpt><trkpt lat="44.6381206" lon="7.8600061"><ele>287.0</ele><time>2026-04-11T11:59:02.714Z</time></trkpt><trkpt lat="44.6382141" lon="7.8600087"><ele>287.0</ele><time>2026-04-11T11:59:04.7Z</time></trkpt><trkpt lat="44.6383026" lon="7.8599975"><ele>287.0</ele><time>2026-04-11T11:59:06.684Z</time></trkpt><trkpt lat="44.6384" lon="7.8599939"><ele>287.0</ele><time>2026-04-11T11:59:08.698Z</time></trkpt><trkpt lat="44.6384964" lon="7.8599954"><ele>287.0</ele><time>2026-04-11T11:59:10.706Z</time></trkpt><trkpt lat="44.6385891" lon="7.8599923"><ele>287.0</ele><time>2026-04-11T11:59:12.706Z</time></trkpt><trkpt lat="44.6386828" lon="7.8599866"><ele>287.0</ele><time>2026-04-11T11:59:14.728Z</time></trkpt><trkpt lat="44.6387753" lon="7.859973"><ele>286.8</ele><time>2026-04-11T11:59:16.716Z</time></trkpt><trkpt lat="44.6388647" lon="7.8599657"><ele>286.6</ele><time>2026-04-11T11:59:18.677Z</time></trkpt><trkpt lat="44.6389542" lon="7.8599475"><ele>286.40000000000003</ele><time>2026-04-11T11:59:20.718Z</time></trkpt><trkpt lat="44.6390449" lon="7.8599375"><ele>286.2</ele><time>2026-04-11T11:59:22.711Z</time></trkpt><trkpt lat="44.6391392" lon="7.8599416"><ele>286.0</ele><time>2026-04-11T11:59:24.711Z</time></trkpt><trkpt lat="44.63923" lon="7.8599284"><ele>286.0</ele><time>2026-04-11T11:59:26.711Z</time></trkpt><trkpt lat="44.6393197" lon="7.8599246"><ele>286.0</ele><time>2026-04-11T11:59:28.714Z</time></trkpt><trkpt lat="44.6394025" lon="7.8599201"><ele>286.0</ele><time>2026-04-11T11:59:30.705Z</time></trkpt><trkpt lat="44.6394829" lon="7.8599051"><ele>286.0</ele><time>2026-04-11T11:59:32.717Z</time></trkpt><trkpt lat="44.639554" lon="7.8598919"><ele>286.0</ele><time>2026-04-11T11:59:34.704Z</time></trkpt><trkpt lat="44.639626" lon="7.8598823"><ele>286.0</ele><time>2026-04-11T11:59:36.698Z</time></trkpt><trkpt lat="44.6396919" lon="7.8598695"><ele>286.0</ele><time>2026-04-11T11:59:38.708Z</time></trkpt><trkpt lat="44.6397734" lon="7.8598371"><ele>286.0</ele><time>2026-04-11T11:59:41.695Z</time></trkpt><trkpt lat="44.6398344" lon="7.8597943"><ele>286.0</ele><time>2026-04-11T11:59:45.664Z</time></trkpt><trkpt lat="44.6398277" lon="7.8598919"><ele>286.0</ele><time>2026-04-11T12:01:12.72Z</time></trkpt><trkpt lat="44.6398573" lon="7.8600336"><ele>286.0</ele><time>2026-04-11T12:01:53.672Z</time></trkpt><trkpt lat="44.6399122" lon="7.8600901"><ele>286.0</ele><time>2026-04-11T12:01:59.664Z</time></trkpt><trkpt lat="44.6399704" lon="7.8600232"><ele>286.0</ele><time>2026-04-11T12:02:02.65Z</time></trkpt><trkpt lat="44.640043" lon="7.8599783"><ele>286.0</ele><time>2026-04-11T12:02:05.658Z</time></trkpt><trkpt lat="44.6401083" lon="7.8599512"><ele>286.0</ele><time>2026-04-11T12:02:07.672Z</time></trkpt><trkpt lat="44.6401885" lon="7.8599414"><ele>286.0</ele><time>2026-04-11T12:02:10.663Z</time></trkpt><trkpt lat="44.6402657" lon="7.8599431"><ele>286.0</ele><time>2026-04-11T12:02:13.651Z</time></trkpt><trkpt lat="44.640361" lon="7.8599385"><ele>286.0</ele><time>2026-04-11T12:02:16.71Z</time></trkpt><trkpt lat="44.6404332" lon="7.8599414"><ele>285.8333333333333</ele><time>2026-04-11T12:02:18.755Z</time></trkpt><trkpt lat="44.6405013" lon="7.8599492"><ele>285.66666666666663</ele><time>2026-04-11T12:02:20.711Z</time></trkpt><trkpt lat="44.6405887" lon="7.8599489"><ele>285.5</ele><time>2026-04-11T12:02:23.666Z</time></trkpt><trkpt lat="44.6406734" lon="7.8599593"><ele>285.3333333333333</ele><time>2026-04-11T12:02:26.742Z</time></trkpt><trkpt lat="44.6407522" lon="7.8599794"><ele>285.1666666666667</ele><time>2026-04-11T12:02:29.718Z</time></trkpt><trkpt lat="44.6408217" lon="7.8599912"><ele>285.0</ele><time>2026-04-11T12:02:31.72Z</time></trkpt><trkpt lat="44.6409084" lon="7.8600178"><ele>285.0</ele><time>2026-04-11T12:02:33.716Z</time></trkpt><trkpt lat="44.6409905" lon="7.8600527"><ele>285.0</ele><time>2026-04-11T12:02:35.724Z</time></trkpt><trkpt lat="44.6410623" lon="7.8600932"><ele>285.0</ele><time>2026-04-11T12:02:37.736Z</time></trkpt><trkpt lat="44.6411353" lon="7.8601346"><ele>285.0</ele><time>2026-04-11T12:02:39.73Z</time></trkpt><trkpt lat="44.6412042" lon="7.8601804"><ele>285.0</ele><time>2026-04-11T12:02:41.738Z</time></trkpt><trkpt lat="44.641259" lon="7.8602363"><ele>285.0</ele><time>2026-04-11T12:02:43.736Z</time></trkpt><trkpt lat="44.6413138" lon="7.8602807"><ele>285.0</ele><time>2026-04-11T12:02:45.724Z</time></trkpt><trkpt lat="44.6413783" lon="7.8603268"><ele>284.1666666666667</ele><time>2026-04-11T12:02:47.66Z</time></trkpt><trkpt lat="44.6414536" lon="7.8603717"><ele>283.3333333333333</ele><time>2026-04-11T12:02:49.723Z</time></trkpt><trkpt lat="44.6415319" lon="7.8604085"><ele>282.5</ele><time>2026-04-11T12:02:51.746Z</time></trkpt><trkpt lat="44.6416153" lon="7.8604336"><ele>281.66666666666663</ele><time>2026-04-11T12:02:53.729Z</time></trkpt><trkpt lat="44.6416935" lon="7.8604599"><ele>280.8333333333333</ele><time>2026-04-11T12:02:55.734Z</time></trkpt><trkpt lat="44.641774" lon="7.8604783"><ele>280.0</ele><time>2026-04-11T12:02:57.752Z</time></trkpt><trkpt lat="44.6418536" lon="7.8604879"><ele>280.0</ele><time>2026-04-11T12:02:59.73Z</time></trkpt><trkpt lat="44.6419407" lon="7.8605088"><ele>280.0</ele><time>2026-04-11T12:03:01.731Z</time></trkpt><trkpt lat="44.6420235" lon="7.8605191"><ele>280.0</ele><time>2026-04-11T12:03:03.727Z</time></trkpt><trkpt lat="44.6421099" lon="7.8605119"><ele>280.0</ele><time>2026-04-11T12:03:05.731Z</time></trkpt><trkpt lat="44.6422006" lon="7.8605138"><ele>280.0</ele><time>2026-04-11T12:03:07.728Z</time></trkpt><trkpt lat="44.6422843" lon="7.8605224"><ele>280.0</ele><time>2026-04-11T12:03:09.731Z</time></trkpt><trkpt lat="44.6423739" lon="7.8605276"><ele>280.5</ele><time>2026-04-11T12:03:11.699Z</time></trkpt><trkpt lat="44.6424557" lon="7.8605381"><ele>281.0</ele><time>2026-04-11T12:03:13.735Z</time></trkpt><trkpt lat="44.6425344" lon="7.8605609"><ele>281.5</ele><time>2026-04-11T12:03:15.732Z</time></trkpt><trkpt lat="44.6426135" lon="7.8606044"><ele>282.0</ele><time>2026-04-11T12:03:17.711Z</time></trkpt><trkpt lat="44.642689" lon="7.8606713"><ele>282.5</ele><time>2026-04-11T12:03:19.748Z</time></trkpt><trkpt lat="44.6427567" lon="7.8607433"><ele>283.0</ele><time>2026-04-11T12:03:21.728Z</time></trkpt><trkpt lat="44.6428359" lon="7.8608096"><ele>282.6</ele><time>2026-04-11T12:03:23.724Z</time></trkpt><trkpt lat="44.6429158" lon="7.8608736"><ele>282.20000000000005</ele><time>2026-04-11T12:03:25.74Z</time></trkpt><trkpt lat="44.6429974" lon="7.8609268"><ele>281.8</ele><time>2026-04-11T12:03:27.732Z</time></trkpt><trkpt lat="44.6430719" lon="7.86098"><ele>281.40000000000003</ele><time>2026-04-11T12:03:29.707Z</time></trkpt><trkpt lat="44.6431501" lon="7.8610526"><ele>281.0</ele><time>2026-04-11T12:03:31.747Z</time></trkpt><trkpt lat="44.6432349" lon="7.861108"><ele>281.0</ele><time>2026-04-11T12:03:33.717Z</time></trkpt><trkpt lat="44.6433238" lon="7.8611473"><ele>281.0</ele><time>2026-04-11T12:03:35.73Z</time></trkpt><trkpt lat="44.6434221" lon="7.8611639"><ele>281.0</ele><time>2026-04-11T12:03:37.722Z</time></trkpt><trkpt lat="44.6435219" lon="7.8611788"><ele>281.0</ele><time>2026-04-11T12:03:39.716Z</time></trkpt><trkpt lat="44.6436297" lon="7.86121"><ele>281.0</ele><time>2026-04-11T12:03:41.648Z</time></trkpt><trkpt lat="44.643731" lon="7.8612518"><ele>281.8</ele><time>2026-04-11T12:03:43.644Z</time></trkpt><trkpt lat="44.6438195" lon="7.8613067"><ele>282.6</ele><time>2026-04-11T12:03:45.719Z</time></trkpt><trkpt lat="44.6438889" lon="7.861388"><ele>283.4</ele><time>2026-04-11T12:03:47.712Z</time></trkpt><trkpt lat="44.6439652" lon="7.8614561"><ele>284.2</ele><time>2026-04-11T12:03:49.731Z</time></trkpt><trkpt lat="44.6440441" lon="7.8615255"><ele>285.0</ele><time>2026-04-11T12:03:51.732Z</time></trkpt><trkpt lat="44.644129" lon="7.8615835"><ele>285.0</ele><time>2026-04-11T12:03:53.667Z</time></trkpt><trkpt lat="44.6442128" lon="7.8616442"><ele>285.0</ele><time>2026-04-11T12:03:55.715Z</time></trkpt><trkpt lat="44.644299" lon="7.8616961"><ele>285.0</ele><time>2026-04-11T12:03:57.717Z</time></trkpt><trkpt lat="44.6443832" lon="7.8617478"><ele>285.0</ele><time>2026-04-11T12:03:59.739Z</time></trkpt><trkpt lat="44.6444624" lon="7.8617872"><ele>285.0</ele><time>2026-04-11T12:04:01.663Z</time></trkpt><trkpt lat="44.6445573" lon="7.8618208"><ele>283.4</ele><time>2026-04-11T12:04:03.722Z</time></trkpt><trkpt lat="44.6446514" lon="7.861855"><ele>281.8</ele><time>2026-04-11T12:04:05.731Z</time></trkpt><trkpt lat="44.644751" lon="7.8618825"><ele>280.2</ele><time>2026-04-11T12:04:07.733Z</time></trkpt><trkpt lat="44.644843" lon="7.8619073"><ele>278.6</ele><time>2026-04-11T12:04:09.738Z</time></trkpt><trkpt lat="44.6449339" lon="7.8619157"><ele>277.0</ele><time>2026-04-11T12:04:11.737Z</time></trkpt><trkpt lat="44.6450303" lon="7.861935"><ele>277.0</ele><time>2026-04-11T12:04:13.674Z</time></trkpt><trkpt lat="44.6451225" lon="7.8619573"><ele>277.0</ele><time>2026-04-11T12:04:15.708Z</time></trkpt><trkpt lat="44.6452228" lon="7.8619707"><ele>277.0</ele><time>2026-04-11T12:04:17.737Z</time></trkpt><trkpt lat="44.6453236" lon="7.8619705"><ele>277.0</ele><time>2026-04-11T12:04:19.719Z</time></trkpt><trkpt lat="44.6454273" lon="7.8619837"><ele>277.0</ele><time>2026-04-11T12:04:21.727Z</time></trkpt><trkpt lat="44.6455222" lon="7.8619849"><ele>277.0</ele><time>2026-04-11T12:04:23.73Z</time></trkpt><trkpt lat="44.6456015" lon="7.8619847"><ele>277.0</ele><time>2026-04-11T12:04:25.731Z</time></trkpt><trkpt lat="44.6456941" lon="7.8619758"><ele>277.0</ele><time>2026-04-11T12:04:27.752Z</time></trkpt><trkpt lat="44.6457912" lon="7.8619775"><ele>277.0</ele><time>2026-04-11T12:04:29.671Z</time></trkpt><trkpt lat="44.6458989" lon="7.8619809"><ele>277.0</ele><time>2026-04-11T12:04:31.735Z</time></trkpt><trkpt lat="44.6460061" lon="7.861985"><ele>277.0</ele><time>2026-04-11T12:04:33.733Z</time></trkpt><trkpt lat="44.6461098" lon="7.8619859"><ele>277.0</ele><time>2026-04-11T12:04:35.734Z</time></trkpt><trkpt lat="44.6462128" lon="7.8619836"><ele>277.0</ele><time>2026-04-11T12:04:37.734Z</time></trkpt><trkpt lat="44.6463172" lon="7.8619693"><ele>277.0</ele><time>2026-04-11T12:04:39.723Z</time></trkpt><trkpt lat="44.6464118" lon="7.8619368"><ele>277.0</ele><time>2026-04-11T12:04:41.746Z</time></trkpt><trkpt lat="44.646502" lon="7.8618981"><ele>276.0</ele><time>2026-04-11T12:04:43.714Z</time></trkpt><trkpt lat="44.6465996" lon="7.8618579"><ele>275.0</ele><time>2026-04-11T12:04:45.726Z</time></trkpt><trkpt lat="44.6466975" lon="7.8618219"><ele>274.0</ele><time>2026-04-11T12:04:47.714Z</time></trkpt><trkpt lat="44.6467884" lon="7.8617974"><ele>273.0</ele><time>2026-04-11T12:04:49.748Z</time></trkpt><trkpt lat="44.6468874" lon="7.8617589"><ele>272.0</ele><time>2026-04-11T12:04:51.736Z</time></trkpt><trkpt lat="44.6469852" lon="7.8617288"><ele>275.2</ele><time>2026-04-11T12:04:53.736Z</time></trkpt><trkpt lat="44.6470791" lon="7.8617268"><ele>278.4</ele><time>2026-04-11T12:04:55.744Z</time></trkpt><trkpt lat="44.6471814" lon="7.8617214"><ele>281.6</ele><time>2026-04-11T12:04:57.717Z</time></trkpt><trkpt lat="44.6472918" lon="7.8617296"><ele>284.8</ele><time>2026-04-11T12:04:59.7Z</time></trkpt><trkpt lat="44.6474147" lon="7.8617482"><ele>288.0</ele><time>2026-04-11T12:05:01.727Z</time></trkpt><trkpt lat="44.6475106" lon="7.861719"><ele>288.0</ele><time>2026-04-11T12:05:03.73Z</time></trkpt><trkpt lat="44.6476008" lon="7.8616584"><ele>288.0</ele><time>2026-04-11T12:05:05.715Z</time></trkpt><trkpt lat="44.6476838" lon="7.8615726"><ele>288.0</ele><time>2026-04-11T12:05:07.718Z</time></trkpt><trkpt lat="44.647748" lon="7.8614549"><ele>288.0</ele><time>2026-04-11T12:05:09.744Z</time></trkpt><trkpt lat="44.6478036" lon="7.8613326"><ele>288.0</ele><time>2026-04-11T12:05:11.734Z</time></trkpt><trkpt lat="44.6478749" lon="7.8612511"><ele>287.8</ele><time>2026-04-11T12:05:13.725Z</time></trkpt><trkpt lat="44.647982" lon="7.861221"><ele>287.6</ele><time>2026-04-11T12:05:15.701Z</time></trkpt><trkpt lat="44.6480914" lon="7.8612194"><ele>287.4</ele><time>2026-04-11T12:05:17.718Z</time></trkpt><trkpt lat="44.6481986" lon="7.8612109"><ele>287.2</ele><time>2026-04-11T12:05:19.731Z</time></trkpt><trkpt lat="44.6482933" lon="7.8612031"><ele>287.0</ele><time>2026-04-11T12:05:21.744Z</time></trkpt><trkpt lat="44.6483752" lon="7.8611944"><ele>287.0</ele><time>2026-04-11T12:05:23.689Z</time></trkpt><trkpt lat="44.6484779" lon="7.8611814"><ele>287.0</ele><time>2026-04-11T12:05:25.734Z</time></trkpt><trkpt lat="44.648565" lon="7.8611752"><ele>287.0</ele><time>2026-04-11T12:05:27.738Z</time></trkpt><trkpt lat="44.6486564" lon="7.8611514"><ele>287.0</ele><time>2026-04-11T12:05:29.723Z</time></trkpt><trkpt lat="44.6487598" lon="7.8611396"><ele>287.0</ele><time>2026-04-11T12:05:31.724Z</time></trkpt><trkpt lat="44.6488606" lon="7.8611218"><ele>287.8</ele><time>2026-04-11T12:05:33.728Z</time></trkpt><trkpt lat="44.6489592" lon="7.8611031"><ele>288.6</ele><time>2026-04-11T12:05:35.741Z</time></trkpt><trkpt lat="44.6490557" lon="7.8610908"><ele>289.40000000000003</ele><time>2026-04-11T12:05:37.713Z</time></trkpt><trkpt lat="44.64916" lon="7.8610805"><ele>290.2</ele><time>2026-04-11T12:05:39.736Z</time></trkpt><trkpt lat="44.6492613" lon="7.8610718"><ele>291.0</ele><time>2026-04-11T12:05:41.741Z</time></trkpt><trkpt lat="44.6493593" lon="7.8610705"><ele>291.0</ele><time>2026-04-11T12:05:43.736Z</time></trkpt><trkpt lat="44.6494496" lon="7.8610645"><ele>291.0</ele><time>2026-04-11T12:05:45.748Z</time></trkpt><trkpt lat="44.6495381" lon="7.8610354"><ele>291.0</ele><time>2026-04-11T12:05:47.74Z</time></trkpt><trkpt lat="44.64963" lon="7.8610093"><ele>291.0</ele><time>2026-04-11T12:05:49.736Z</time></trkpt><trkpt lat="44.6497178" lon="7.8609951"><ele>291.0</ele><time>2026-04-11T12:05:51.739Z</time></trkpt><trkpt lat="44.6498068" lon="7.860997"><ele>291.3333333333333</ele><time>2026-04-11T12:05:53.748Z</time></trkpt><trkpt lat="44.6498921" lon="7.8610071"><ele>291.6666666666667</ele><time>2026-04-11T12:05:55.727Z</time></trkpt><trkpt lat="44.6499795" lon="7.8610194"><ele>292.0</ele><time>2026-04-11T12:05:57.728Z</time></trkpt><trkpt lat="44.6500642" lon="7.8610225"><ele>292.33333333333337</ele><time>2026-04-11T12:05:59.744Z</time></trkpt><trkpt lat="44.6501375" lon="7.8610097"><ele>292.6666666666667</ele><time>2026-04-11T12:06:01.734Z</time></trkpt><trkpt lat="44.6502197" lon="7.8609883"><ele>293.0</ele><time>2026-04-11T12:06:03.724Z</time></trkpt><trkpt lat="44.6502904" lon="7.8609771"><ele>292.6666666666667</ele><time>2026-04-11T12:06:05.729Z</time></trkpt><trkpt lat="44.6503684" lon="7.8609551"><ele>292.33333333333337</ele><time>2026-04-11T12:06:08.747Z</time></trkpt><trkpt lat="44.650401" lon="7.8608467"><ele>292.0</ele><time>2026-04-11T12:06:11.709Z</time></trkpt><trkpt lat="44.6503959" lon="7.8607521"><ele>291.6666666666667</ele><time>2026-04-11T12:06:13.703Z</time></trkpt><trkpt lat="44.6503889" lon="7.8606399"><ele>291.3333333333333</ele><time>2026-04-11T12:06:15.745Z</time></trkpt><trkpt lat="44.6503833" lon="7.8605337"><ele>291.0</ele><time>2026-04-11T12:06:17.754Z</time></trkpt><trkpt lat="44.6503869" lon="7.8604055"><ele>291.0</ele><time>2026-04-11T12:06:19.717Z</time></trkpt><trkpt lat="44.650399" lon="7.8603091"><ele>291.0</ele><time>2026-04-11T12:06:21.728Z</time></trkpt><trkpt lat="44.6503954" lon="7.8602075"><ele>291.0</ele><time>2026-04-11T12:06:23.746Z</time></trkpt><trkpt lat="44.6503891" lon="7.8600935"><ele>291.0</ele><time>2026-04-11T12:06:25.753Z</time></trkpt><trkpt lat="44.6503894" lon="7.8599791"><ele>291.0</ele><time>2026-04-11T12:06:27.758Z</time></trkpt><trkpt lat="44.6504038" lon="7.8598564"><ele>291.0</ele><time>2026-04-11T12:06:29.756Z</time></trkpt><trkpt lat="44.6504109" lon="7.8597341"><ele>291.1666666666667</ele><time>2026-04-11T12:06:31.752Z</time></trkpt><trkpt lat="44.6504032" lon="7.8596244"><ele>291.3333333333333</ele><time>2026-04-11T12:06:33.735Z</time></trkpt><trkpt lat="44.6503926" lon="7.8594998"><ele>291.5</ele><time>2026-04-11T12:06:35.732Z</time></trkpt><trkpt lat="44.6503961" lon="7.8593794"><ele>291.66666666666663</ele><time>2026-04-11T12:06:37.749Z</time></trkpt><trkpt lat="44.6503919" lon="7.8592837"><ele>291.8333333333333</ele><time>2026-04-11T12:06:39.746Z</time></trkpt><trkpt lat="44.6503697" lon="7.8591716"><ele>292.0</ele><time>2026-04-11T12:06:42.748Z</time></trkpt><trkpt lat="44.6503114" lon="7.8591284"><ele>291.66666666666663</ele><time>2026-04-11T12:06:46.698Z</time></trkpt><trkpt lat="44.6502234" lon="7.8591207"><ele>291.3333333333333</ele><time>2026-04-11T12:06:49.721Z</time></trkpt><trkpt lat="44.6501555" lon="7.8591364"><ele>291.0</ele><time>2026-04-11T12:06:51.64Z</time></trkpt><trkpt lat="44.6500832" lon="7.8591357"><ele>290.6666666666667</ele><time>2026-04-11T12:06:53.713Z</time></trkpt><trkpt lat="44.6500017" lon="7.8591253"><ele>290.33333333333337</ele><time>2026-04-11T12:06:55.667Z</time></trkpt><trkpt lat="44.6499213" lon="7.8591167"><ele>290.0</ele><time>2026-04-11T12:06:57.711Z</time></trkpt><trkpt lat="44.6498548" lon="7.8591058"><ele>290.0</ele><time>2026-04-11T12:06:59.714Z</time></trkpt><trkpt lat="44.6497648" lon="7.8591077"><ele>290.0</ele><time>2026-04-11T12:07:02.706Z</time></trkpt><trkpt lat="44.6496812" lon="7.8590971"><ele>290.0</ele><time>2026-04-11T12:07:05.692Z</time></trkpt><trkpt lat="44.649616" lon="7.8590344"><ele>290.0</ele><time>2026-04-11T12:07:08.7Z</time></trkpt><trkpt lat="44.6496221" lon="7.8589141"><ele>290.0</ele><time>2026-04-11T12:07:11.702Z</time></trkpt><trkpt lat="44.6496138" lon="7.8587469"><ele>290.0</ele><time>2026-04-11T12:07:15.74Z</time></trkpt><trkpt lat="44.6495971" lon="7.8586054"><ele>290.0</ele><time>2026-04-11T12:07:18.919Z</time></trkpt><trkpt lat="44.6495893" lon="7.8585014"><ele>290.0</ele><time>2026-04-11T12:07:20.73Z</time></trkpt><trkpt lat="44.6495947" lon="7.8583951"><ele>290.0</ele><time>2026-04-11T12:07:22.99Z</time></trkpt><trkpt lat="44.6495998" lon="7.8582907"><ele>290.0</ele><time>2026-04-11T12:07:25.716Z</time></trkpt><trkpt lat="44.6496765" lon="7.8582491"><ele>290.0</ele><time>2026-04-11T12:07:29.689Z</time></trkpt><trkpt lat="44.6497619" lon="7.8582548"><ele>290.33333333333337</ele><time>2026-04-11T12:07:31.712Z</time></trkpt><trkpt lat="44.6498298" lon="7.8582588"><ele>290.6666666666667</ele><time>2026-04-11T12:07:33.722Z</time></trkpt><trkpt lat="44.6499258" lon="7.8582464"><ele>291.0</ele><time>2026-04-11T12:07:36.736Z</time></trkpt><trkpt lat="44.6499973" lon="7.858223"><ele>291.3333333333333</ele><time>2026-04-11T12:07:38.714Z</time></trkpt><trkpt lat="44.6500617" lon="7.858215"><ele>291.66666666666663</ele><time>2026-04-11T12:07:40.716Z</time></trkpt><trkpt lat="44.6501358" lon="7.8582087"><ele>292.0</ele><time>2026-04-11T12:07:43.723Z</time></trkpt><trkpt lat="44.650213" lon="7.8581973"><ele>292.0</ele><time>2026-04-11T12:07:47.728Z</time></trkpt><trkpt lat="44.6502899" lon="7.8581594"><ele>292.0</ele><time>2026-04-11T12:07:51.729Z</time></trkpt><trkpt lat="44.6503656" lon="7.8581247"><ele>292.0</ele><time>2026-04-11T12:07:57.738Z</time></trkpt><trkpt lat="44.650431" lon="7.8581328"><ele>292.0</ele><time>2026-04-11T12:08:01.653Z</time></trkpt><trkpt lat="44.6504986" lon="7.8581304"><ele>292.0</ele><time>2026-04-11T12:08:05.734Z</time></trkpt><trkpt lat="44.650559" lon="7.8581601"><ele>292.0</ele><time>2026-04-11T12:08:08.735Z</time></trkpt><trkpt lat="44.6506299" lon="7.858182"><ele>292.0</ele><time>2026-04-11T12:08:11.723Z</time></trkpt><trkpt lat="44.6507026" lon="7.8581519"><ele>292.1428571428571</ele><time>2026-04-11T12:08:16.728Z</time></trkpt><trkpt lat="44.6507696" lon="7.8581155"><ele>292.2857142857143</ele><time>2026-04-11T12:08:20.723Z</time></trkpt><trkpt lat="44.6508378" lon="7.8580968"><ele>292.42857142857144</ele><time>2026-04-11T12:08:24.732Z</time></trkpt><trkpt lat="44.6509071" lon="7.8581013"><ele>292.57142857142856</ele><time>2026-04-11T12:08:27.734Z</time></trkpt><trkpt lat="44.6509759" lon="7.8581065"><ele>292.7142857142857</ele><time>2026-04-11T12:08:30.68Z</time></trkpt><trkpt lat="44.6510493" lon="7.8580978"><ele>292.85714285714283</ele><time>2026-04-11T12:08:34.736Z</time></trkpt><trkpt lat="44.6511122" lon="7.8581058"><ele>293.0</ele><time>2026-04-11T12:08:37.706Z</time></trkpt><trkpt lat="44.6511851" lon="7.8581206"><ele>293.0</ele><time>2026-04-11T12:08:40.7Z</time></trkpt><trkpt lat="44.6512524" lon="7.8581071"><ele>293.0</ele><time>2026-04-11T12:08:43.706Z</time></trkpt><trkpt lat="44.6513324" lon="7.8580979"><ele>293.0</ele><time>2026-04-11T12:08:47.659Z</time></trkpt><trkpt lat="44.6514156" lon="7.8580995"><ele>293.0</ele><time>2026-04-11T12:08:51.703Z</time></trkpt><trkpt lat="44.6514913" lon="7.8580952"><ele>293.0</ele><time>2026-04-11T12:08:55.721Z</time></trkpt><trkpt lat="44.6515647" lon="7.858124"><ele>293.0</ele><time>2026-04-11T12:09:00.736Z</time></trkpt><trkpt lat="44.651638" lon="7.8581662"><ele>293.0</ele><time>2026-04-11T12:09:04.691Z</time></trkpt><trkpt lat="44.6517074" lon="7.8581804"><ele>293.0</ele><time>2026-04-11T12:09:08.696Z</time></trkpt><trkpt lat="44.6517735" lon="7.8581829"><ele>293.0</ele><time>2026-04-11T12:09:12.694Z</time></trkpt><trkpt lat="44.6516976" lon="7.858158"><ele>293.0</ele><time>2026-04-11T12:09:18.667Z</time></trkpt><trkpt lat="44.6516213" lon="7.8581449"><ele>293.0</ele><time>2026-04-11T12:09:20.672Z</time></trkpt><trkpt lat="44.6515224" lon="7.858142"><ele>293.0</ele><time>2026-04-11T12:09:22.671Z</time></trkpt><trkpt lat="44.6514247" lon="7.858131"><ele>293.0</ele><time>2026-04-11T12:09:24.66Z</time></trkpt><trkpt lat="44.6513279" lon="7.8580895"><ele>293.0</ele><time>2026-04-11T12:09:26.952Z</time></trkpt><trkpt lat="44.6512301" lon="7.8580543"><ele>293.0</ele><time>2026-04-11T12:09:28.634Z</time></trkpt><trkpt lat="44.651171" lon="7.8581185"><ele>293.0</ele><time>2026-04-11T12:09:36.652Z</time></trkpt><trkpt lat="44.6512529" lon="7.8581343"><ele>293.0</ele><time>2026-04-11T12:09:42.665Z</time></trkpt><trkpt lat="44.6513353" lon="7.8581671"><ele>293.0</ele><time>2026-04-11T12:09:45.655Z</time></trkpt><trkpt lat="44.6514019" lon="7.8581765"><ele>293.0</ele><time>2026-04-11T12:09:47.656Z</time></trkpt><trkpt lat="44.6514681" lon="7.8581836"><ele>293.0</ele><time>2026-04-11T12:09:51.652Z</time></trkpt><trkpt lat="44.6515242" lon="7.8581218"><ele>293.0</ele><time>2026-04-11T12:09:56.642Z</time></trkpt><trkpt lat="44.6515896" lon="7.8580547"><ele>293.0</ele><time>2026-04-11T12:09:59.655Z</time></trkpt><trkpt lat="44.6518139" lon="7.8580496"><ele>293.0</ele><time>2026-04-11T12:10:35.684Z</time></trkpt><trkpt lat="44.6520119" lon="7.8581428"><ele>292.99999999999994</ele><time>2026-04-11T12:10:45.698Z</time></trkpt><trkpt lat="44.6520837" lon="7.8581643"><ele>293.0</ele><time>2026-04-11T12:10:49.708Z</time></trkpt><trkpt lat="44.6521428" lon="7.8581335"><ele>293.0</ele><time>2026-04-11T12:10:54.715Z</time></trkpt><trkpt lat="44.6522156" lon="7.8580875"><ele>293.0</ele><time>2026-04-11T12:11:00.712Z</time></trkpt><trkpt lat="44.6522877" lon="7.858096"><ele>293.0</ele><time>2026-04-11T12:11:04.697Z</time></trkpt><trkpt lat="44.6523553" lon="7.8580735"><ele>292.99999999999994</ele><time>2026-04-11T12:11:08.701Z</time></trkpt><trkpt lat="44.6524295" lon="7.8580507"><ele>293.0</ele><time>2026-04-11T12:11:11.716Z</time></trkpt><trkpt lat="44.6525031" lon="7.8580511"><ele>292.99999999999994</ele><time>2026-04-11T12:11:14.699Z</time></trkpt><trkpt lat="44.6525829" lon="7.8580522"><ele>293.0</ele><time>2026-04-11T12:11:17.71Z</time></trkpt><trkpt lat="44.6526514" lon="7.8580277"><ele>293.0</ele><time>2026-04-11T12:11:21.704Z</time></trkpt><trkpt lat="44.6527195" lon="7.8579731"><ele>293.0</ele><time>2026-04-11T12:11:25.694Z</time></trkpt><trkpt lat="44.6527886" lon="7.8580025"><ele>293.0</ele><time>2026-04-11T12:11:38.669Z</time></trkpt><trkpt lat="44.6527639" lon="7.8579201"><ele>292.99999999999994</ele><time>2026-04-11T12:11:47.68Z</time></trkpt><trkpt lat="44.6527076" lon="7.8578793"><ele>293.0</ele><time>2026-04-11T12:11:54.684Z</time></trkpt><trkpt lat="44.6527566" lon="7.8579388"><ele>293.0</ele><time>2026-04-11T12:12:04.662Z</time></trkpt><trkpt lat="44.6528206" lon="7.8579052"><ele>292.0</ele><time>2026-04-11T12:12:30.671Z</time></trkpt></trkseg></trk></gpx>